<?xml version="1.0" encoding="UTF-8" standalone="no" ?>
<gpx xmlns="http://www.topografix.com/GPX/1/1" xmlns:xsi="http://www.w3.org/2001/XMLSchema-instance" xsi:schemaLocation="http://www.topografix.com/GPX/1/1 http://www.topografix.com/GPX/1/1/gpx.xsd" version="1.1" creator="VisuGPX - https://www.visugpx.com">
  <metadata>
    <name>munster5_bis</name>
  </metadata>
  <wpt lat="46.48819" lon="8.26368">
    <ele>1396.5</ele>
    <name><![CDATA[Point de départ]]></name>
  </wpt>
  <wpt lat="46.48816" lon="8.2637">
    <ele>1396.4</ele>
    <name><![CDATA[Destination]]></name>
  </wpt>
  <trk>
    <name><![CDATA[munster5_bis_3]]></name>
    <extensions>
      <line xmlns="http://www.topografix.com/GPX/gpx_style/0/2">
        <color>942192</color>
        <width>4</width>
        <dasharray>16</dasharray>
      </line>
    </extensions>
    <trkseg>
      <trkpt lat="46.48827" lon="8.26365">
        <ele>1395</ele>
        <time>2020-10-24T07:09:41.937Z</time>
      </trkpt>
      <trkpt lat="46.48827" lon="8.26365">
        <ele>1395</ele>
        <time>2020-10-24T07:09:42.936Z</time>
      </trkpt>
      <trkpt lat="46.48827" lon="8.26365">
        <ele>1396</ele>
        <time>2020-10-24T07:09:43.937Z</time>
      </trkpt>
      <trkpt lat="46.48827" lon="8.26365">
        <ele>1396</ele>
        <time>2020-10-24T07:09:44.936Z</time>
      </trkpt>
      <trkpt lat="46.48827" lon="8.26365">
        <ele>1397</ele>
        <time>2020-10-24T07:09:45.936Z</time>
      </trkpt>
      <trkpt lat="46.48827" lon="8.26365">
        <ele>1397</ele>
        <time>2020-10-24T07:09:46.936Z</time>
      </trkpt>
      <trkpt lat="46.48827" lon="8.26365">
        <ele>1398</ele>
        <time>2020-10-24T07:09:47.936Z</time>
      </trkpt>
      <trkpt lat="46.48827" lon="8.26365">
        <ele>1398</ele>
        <time>2020-10-24T07:09:48.936Z</time>
      </trkpt>
      <trkpt lat="46.48827" lon="8.26365">
        <ele>1399</ele>
        <time>2020-10-24T07:09:49.936Z</time>
      </trkpt>
      <trkpt lat="46.48827" lon="8.26365">
        <ele>1399</ele>
        <time>2020-10-24T07:09:50.936Z</time>
      </trkpt>
      <trkpt lat="46.48827" lon="8.26365">
        <ele>1399</ele>
        <time>2020-10-24T07:09:51.936Z</time>
      </trkpt>
      <trkpt lat="46.48827" lon="8.26365">
        <ele>1400</ele>
        <time>2020-10-24T07:09:52.936Z</time>
      </trkpt>
      <trkpt lat="46.48827" lon="8.26365">
        <ele>1400</ele>
        <time>2020-10-24T07:09:53.936Z</time>
      </trkpt>
      <trkpt lat="46.48829" lon="8.26364">
        <ele>1400</ele>
        <time>2020-10-24T07:09:54.937Z</time>
      </trkpt>
      <trkpt lat="46.48832" lon="8.26364">
        <ele>1400</ele>
        <time>2020-10-24T07:09:55.936Z</time>
      </trkpt>
      <trkpt lat="46.48834" lon="8.26363">
        <ele>1401</ele>
        <time>2020-10-24T07:09:56.937Z</time>
      </trkpt>
      <trkpt lat="46.48837" lon="8.26363">
        <ele>1401</ele>
        <time>2020-10-24T07:09:57.937Z</time>
      </trkpt>
      <trkpt lat="46.48839" lon="8.26363">
        <ele>1401</ele>
        <time>2020-10-24T07:09:58.936Z</time>
      </trkpt>
      <trkpt lat="46.48841" lon="8.26363">
        <ele>1402</ele>
        <time>2020-10-24T07:09:59.937Z</time>
      </trkpt>
      <trkpt lat="46.48842" lon="8.26364">
        <ele>1402</ele>
        <time>2020-10-24T07:10:00.936Z</time>
      </trkpt>
      <trkpt lat="46.48844" lon="8.26365">
        <ele>1403</ele>
        <time>2020-10-24T07:10:01.936Z</time>
      </trkpt>
      <trkpt lat="46.48844" lon="8.26367">
        <ele>1403</ele>
        <time>2020-10-24T07:10:02.937Z</time>
      </trkpt>
      <trkpt lat="46.48844" lon="8.2637">
        <ele>1403</ele>
        <time>2020-10-24T07:10:03.937Z</time>
      </trkpt>
      <trkpt lat="46.48843" lon="8.26373">
        <ele>1404</ele>
        <time>2020-10-24T07:10:04.937Z</time>
      </trkpt>
      <trkpt lat="46.48842" lon="8.26375">
        <ele>1404</ele>
        <time>2020-10-24T07:10:05.937Z</time>
      </trkpt>
      <trkpt lat="46.48841" lon="8.26378">
        <ele>1405</ele>
        <time>2020-10-24T07:10:06.936Z</time>
      </trkpt>
      <trkpt lat="46.48841" lon="8.2638">
        <ele>1405</ele>
        <time>2020-10-24T07:10:07.936Z</time>
      </trkpt>
      <trkpt lat="46.4884" lon="8.26382">
        <ele>1405</ele>
        <time>2020-10-24T07:10:08.937Z</time>
      </trkpt>
      <trkpt lat="46.4884" lon="8.26385">
        <ele>1406</ele>
        <time>2020-10-24T07:10:09.937Z</time>
      </trkpt>
      <trkpt lat="46.4884" lon="8.26388">
        <ele>1406</ele>
        <time>2020-10-24T07:10:10.936Z</time>
      </trkpt>
      <trkpt lat="46.4884" lon="8.2639">
        <ele>1407</ele>
        <time>2020-10-24T07:10:11.936Z</time>
      </trkpt>
      <trkpt lat="46.4884" lon="8.26393">
        <ele>1407</ele>
        <time>2020-10-24T07:10:12.936Z</time>
      </trkpt>
      <trkpt lat="46.4884" lon="8.26397">
        <ele>1407</ele>
        <time>2020-10-24T07:10:13.937Z</time>
      </trkpt>
      <trkpt lat="46.48839" lon="8.264">
        <ele>1407</ele>
        <time>2020-10-24T07:10:14.937Z</time>
      </trkpt>
      <trkpt lat="46.48838" lon="8.26403">
        <ele>1408</ele>
        <time>2020-10-24T07:10:15.937Z</time>
      </trkpt>
      <trkpt lat="46.48838" lon="8.26406">
        <ele>1408</ele>
        <time>2020-10-24T07:10:16.937Z</time>
      </trkpt>
      <trkpt lat="46.48837" lon="8.26409">
        <ele>1408</ele>
        <time>2020-10-24T07:10:17.936Z</time>
      </trkpt>
      <trkpt lat="46.48836" lon="8.26412">
        <ele>1409</ele>
        <time>2020-10-24T07:10:18.937Z</time>
      </trkpt>
      <trkpt lat="46.48836" lon="8.26415">
        <ele>1409</ele>
        <time>2020-10-24T07:10:19.937Z</time>
      </trkpt>
      <trkpt lat="46.48835" lon="8.26419">
        <ele>1409</ele>
        <time>2020-10-24T07:10:20.936Z</time>
      </trkpt>
      <trkpt lat="46.48834" lon="8.26422">
        <ele>1410</ele>
        <time>2020-10-24T07:10:21.937Z</time>
      </trkpt>
      <trkpt lat="46.48833" lon="8.26425">
        <ele>1410</ele>
        <time>2020-10-24T07:10:22.937Z</time>
      </trkpt>
      <trkpt lat="46.48832" lon="8.26428">
        <ele>1411</ele>
        <time>2020-10-24T07:10:23.936Z</time>
      </trkpt>
      <trkpt lat="46.48832" lon="8.26432">
        <ele>1411</ele>
        <time>2020-10-24T07:10:24.937Z</time>
      </trkpt>
      <trkpt lat="46.48832" lon="8.26435">
        <ele>1411</ele>
        <time>2020-10-24T07:10:25.937Z</time>
      </trkpt>
      <trkpt lat="46.48832" lon="8.26439">
        <ele>1411</ele>
        <time>2020-10-24T07:10:26.936Z</time>
      </trkpt>
      <trkpt lat="46.48831" lon="8.26443">
        <ele>1411</ele>
        <time>2020-10-24T07:10:27.937Z</time>
      </trkpt>
      <trkpt lat="46.48831" lon="8.26447">
        <ele>1411</ele>
        <time>2020-10-24T07:10:28.937Z</time>
      </trkpt>
      <trkpt lat="46.4883" lon="8.26449">
        <ele>1412</ele>
        <time>2020-10-24T07:10:29.936Z</time>
      </trkpt>
      <trkpt lat="46.48829" lon="8.26453">
        <ele>1412</ele>
        <time>2020-10-24T07:10:30.936Z</time>
      </trkpt>
      <trkpt lat="46.48828" lon="8.26456">
        <ele>1412</ele>
        <time>2020-10-24T07:10:31.937Z</time>
      </trkpt>
      <trkpt lat="46.48828" lon="8.2646">
        <ele>1412</ele>
        <time>2020-10-24T07:10:32.937Z</time>
      </trkpt>
      <trkpt lat="46.48828" lon="8.26462">
        <ele>1413</ele>
        <time>2020-10-24T07:10:33.936Z</time>
      </trkpt>
      <trkpt lat="46.48827" lon="8.26464">
        <ele>1413</ele>
        <time>2020-10-24T07:10:34.936Z</time>
      </trkpt>
      <trkpt lat="46.48827" lon="8.26463">
        <ele>1414</ele>
        <time>2020-10-24T07:10:35.937Z</time>
      </trkpt>
      <trkpt lat="46.48827" lon="8.26461">
        <ele>1414</ele>
        <time>2020-10-24T07:10:36.937Z</time>
      </trkpt>
      <trkpt lat="46.48827" lon="8.26459">
        <ele>1414</ele>
        <time>2020-10-24T07:10:37.937Z</time>
      </trkpt>
      <trkpt lat="46.48827" lon="8.26456">
        <ele>1414</ele>
        <time>2020-10-24T07:10:38.937Z</time>
      </trkpt>
      <trkpt lat="46.48827" lon="8.26453">
        <ele>1415</ele>
        <time>2020-10-24T07:10:39.937Z</time>
      </trkpt>
      <trkpt lat="46.48828" lon="8.2645">
        <ele>1415</ele>
        <time>2020-10-24T07:10:40.937Z</time>
      </trkpt>
      <trkpt lat="46.48828" lon="8.26447">
        <ele>1415</ele>
        <time>2020-10-24T07:10:41.937Z</time>
      </trkpt>
      <trkpt lat="46.48829" lon="8.26444">
        <ele>1415</ele>
        <time>2020-10-24T07:10:42.937Z</time>
      </trkpt>
      <trkpt lat="46.48829" lon="8.26441">
        <ele>1415</ele>
        <time>2020-10-24T07:10:43.937Z</time>
      </trkpt>
      <trkpt lat="46.4883" lon="8.26438">
        <ele>1415</ele>
        <time>2020-10-24T07:10:44.937Z</time>
      </trkpt>
      <trkpt lat="46.48831" lon="8.26433">
        <ele>1415</ele>
        <time>2020-10-24T07:10:45.936Z</time>
      </trkpt>
      <trkpt lat="46.48831" lon="8.26429">
        <ele>1415</ele>
        <time>2020-10-24T07:10:46.937Z</time>
      </trkpt>
      <trkpt lat="46.48832" lon="8.26426">
        <ele>1415</ele>
        <time>2020-10-24T07:10:47.937Z</time>
      </trkpt>
      <trkpt lat="46.48833" lon="8.26423">
        <ele>1415</ele>
        <time>2020-10-24T07:10:48.937Z</time>
      </trkpt>
      <trkpt lat="46.48834" lon="8.26419">
        <ele>1415</ele>
        <time>2020-10-24T07:10:49.937Z</time>
      </trkpt>
      <trkpt lat="46.48835" lon="8.26415">
        <ele>1415</ele>
        <time>2020-10-24T07:10:50.937Z</time>
      </trkpt>
      <trkpt lat="46.48836" lon="8.26413">
        <ele>1415</ele>
        <time>2020-10-24T07:10:51.937Z</time>
      </trkpt>
      <trkpt lat="46.48837" lon="8.26411">
        <ele>1415</ele>
        <time>2020-10-24T07:10:52.936Z</time>
      </trkpt>
      <trkpt lat="46.48839" lon="8.26411">
        <ele>1415</ele>
        <time>2020-10-24T07:10:53.936Z</time>
      </trkpt>
      <trkpt lat="46.4884" lon="8.2641">
        <ele>1415</ele>
        <time>2020-10-24T07:10:54.936Z</time>
      </trkpt>
      <trkpt lat="46.48842" lon="8.26411">
        <ele>1415</ele>
        <time>2020-10-24T07:10:55.937Z</time>
      </trkpt>
      <trkpt lat="46.48844" lon="8.26412">
        <ele>1415</ele>
        <time>2020-10-24T07:10:56.936Z</time>
      </trkpt>
      <trkpt lat="46.48845" lon="8.26413">
        <ele>1415</ele>
        <time>2020-10-24T07:10:57.936Z</time>
      </trkpt>
      <trkpt lat="46.48847" lon="8.26414">
        <ele>1416</ele>
        <time>2020-10-24T07:10:58.936Z</time>
      </trkpt>
      <trkpt lat="46.48848" lon="8.26415">
        <ele>1416</ele>
        <time>2020-10-24T07:10:59.936Z</time>
      </trkpt>
      <trkpt lat="46.48849" lon="8.26416">
        <ele>1416</ele>
        <time>2020-10-24T07:11:00.936Z</time>
      </trkpt>
      <trkpt lat="46.4885" lon="8.26416">
        <ele>1416</ele>
        <time>2020-10-24T07:11:01.937Z</time>
      </trkpt>
      <trkpt lat="46.48851" lon="8.26416">
        <ele>1416</ele>
        <time>2020-10-24T07:11:02.936Z</time>
      </trkpt>
      <trkpt lat="46.48852" lon="8.26417">
        <ele>1416</ele>
        <time>2020-10-24T07:11:03.936Z</time>
      </trkpt>
      <trkpt lat="46.48854" lon="8.26417">
        <ele>1416</ele>
        <time>2020-10-24T07:11:04.936Z</time>
      </trkpt>
      <trkpt lat="46.48856" lon="8.26419">
        <ele>1416</ele>
        <time>2020-10-24T07:11:05.936Z</time>
      </trkpt>
      <trkpt lat="46.48858" lon="8.2642">
        <ele>1416</ele>
        <time>2020-10-24T07:11:06.937Z</time>
      </trkpt>
      <trkpt lat="46.4886" lon="8.26421">
        <ele>1415</ele>
        <time>2020-10-24T07:11:07.936Z</time>
      </trkpt>
      <trkpt lat="46.48862" lon="8.26423">
        <ele>1415</ele>
        <time>2020-10-24T07:11:08.936Z</time>
      </trkpt>
      <trkpt lat="46.48863" lon="8.26426">
        <ele>1415</ele>
        <time>2020-10-24T07:11:09.937Z</time>
      </trkpt>
      <trkpt lat="46.48864" lon="8.26428">
        <ele>1415</ele>
        <time>2020-10-24T07:11:10.937Z</time>
      </trkpt>
      <trkpt lat="46.48864" lon="8.26431">
        <ele>1415</ele>
        <time>2020-10-24T07:11:11.937Z</time>
      </trkpt>
      <trkpt lat="46.48865" lon="8.26433">
        <ele>1415</ele>
        <time>2020-10-24T07:11:12.937Z</time>
      </trkpt>
      <trkpt lat="46.48866" lon="8.26436">
        <ele>1415</ele>
        <time>2020-10-24T07:11:13.937Z</time>
      </trkpt>
      <trkpt lat="46.48866" lon="8.26439">
        <ele>1415</ele>
        <time>2020-10-24T07:11:14.937Z</time>
      </trkpt>
      <trkpt lat="46.48867" lon="8.26441">
        <ele>1415</ele>
        <time>2020-10-24T07:11:15.937Z</time>
      </trkpt>
      <trkpt lat="46.48867" lon="8.26443">
        <ele>1416</ele>
        <time>2020-10-24T07:11:16.937Z</time>
      </trkpt>
      <trkpt lat="46.48868" lon="8.26446">
        <ele>1416</ele>
        <time>2020-10-24T07:11:17.937Z</time>
      </trkpt>
      <trkpt lat="46.48868" lon="8.26448">
        <ele>1416</ele>
        <time>2020-10-24T07:11:18.936Z</time>
      </trkpt>
      <trkpt lat="46.48869" lon="8.2645">
        <ele>1416</ele>
        <time>2020-10-24T07:11:19.937Z</time>
      </trkpt>
      <trkpt lat="46.4887" lon="8.26452">
        <ele>1416</ele>
        <time>2020-10-24T07:11:20.937Z</time>
      </trkpt>
      <trkpt lat="46.48871" lon="8.26454">
        <ele>1416</ele>
        <time>2020-10-24T07:11:21.936Z</time>
      </trkpt>
      <trkpt lat="46.48872" lon="8.26456">
        <ele>1415</ele>
        <time>2020-10-24T07:11:22.937Z</time>
      </trkpt>
      <trkpt lat="46.48873" lon="8.26457">
        <ele>1415</ele>
        <time>2020-10-24T07:11:23.936Z</time>
      </trkpt>
      <trkpt lat="46.48874" lon="8.26459">
        <ele>1416</ele>
        <time>2020-10-24T07:11:24.937Z</time>
      </trkpt>
      <trkpt lat="46.48875" lon="8.26461">
        <ele>1416</ele>
        <time>2020-10-24T07:11:25.937Z</time>
      </trkpt>
      <trkpt lat="46.48876" lon="8.26462">
        <ele>1416</ele>
        <time>2020-10-24T07:11:26.936Z</time>
      </trkpt>
      <trkpt lat="46.48877" lon="8.26463">
        <ele>1416</ele>
        <time>2020-10-24T07:11:27.937Z</time>
      </trkpt>
      <trkpt lat="46.48878" lon="8.26465">
        <ele>1416</ele>
        <time>2020-10-24T07:11:28.936Z</time>
      </trkpt>
      <trkpt lat="46.48879" lon="8.26467">
        <ele>1416</ele>
        <time>2020-10-24T07:11:29.937Z</time>
      </trkpt>
      <trkpt lat="46.4888" lon="8.2647">
        <ele>1416</ele>
        <time>2020-10-24T07:11:30.936Z</time>
      </trkpt>
      <trkpt lat="46.4888" lon="8.26472">
        <ele>1416</ele>
        <time>2020-10-24T07:11:31.937Z</time>
      </trkpt>
      <trkpt lat="46.48881" lon="8.26475">
        <ele>1417</ele>
        <time>2020-10-24T07:11:32.937Z</time>
      </trkpt>
      <trkpt lat="46.48881" lon="8.26477">
        <ele>1417</ele>
        <time>2020-10-24T07:11:33.936Z</time>
      </trkpt>
      <trkpt lat="46.48882" lon="8.2648">
        <ele>1418</ele>
        <time>2020-10-24T07:11:34.936Z</time>
      </trkpt>
      <trkpt lat="46.48882" lon="8.26482">
        <ele>1418</ele>
        <time>2020-10-24T07:11:35.936Z</time>
      </trkpt>
      <trkpt lat="46.48883" lon="8.26484">
        <ele>1419</ele>
        <time>2020-10-24T07:11:36.937Z</time>
      </trkpt>
      <trkpt lat="46.48884" lon="8.26486">
        <ele>1419</ele>
        <time>2020-10-24T07:11:37.936Z</time>
      </trkpt>
      <trkpt lat="46.48885" lon="8.26488">
        <ele>1420</ele>
        <time>2020-10-24T07:11:38.937Z</time>
      </trkpt>
      <trkpt lat="46.48886" lon="8.26491">
        <ele>1420</ele>
        <time>2020-10-24T07:11:39.936Z</time>
      </trkpt>
      <trkpt lat="46.48887" lon="8.26493">
        <ele>1421</ele>
        <time>2020-10-24T07:11:40.937Z</time>
      </trkpt>
      <trkpt lat="46.48887" lon="8.26495">
        <ele>1422</ele>
        <time>2020-10-24T07:11:41.937Z</time>
      </trkpt>
      <trkpt lat="46.48888" lon="8.26497">
        <ele>1422</ele>
        <time>2020-10-24T07:11:42.936Z</time>
      </trkpt>
      <trkpt lat="46.48889" lon="8.26499">
        <ele>1422</ele>
        <time>2020-10-24T07:11:43.936Z</time>
      </trkpt>
      <trkpt lat="46.4889" lon="8.26501">
        <ele>1423</ele>
        <time>2020-10-24T07:11:44.936Z</time>
      </trkpt>
      <trkpt lat="46.4889" lon="8.26503">
        <ele>1423</ele>
        <time>2020-10-24T07:11:45.937Z</time>
      </trkpt>
      <trkpt lat="46.48891" lon="8.26505">
        <ele>1423</ele>
        <time>2020-10-24T07:11:46.937Z</time>
      </trkpt>
      <trkpt lat="46.48892" lon="8.26507">
        <ele>1424</ele>
        <time>2020-10-24T07:11:47.936Z</time>
      </trkpt>
      <trkpt lat="46.48893" lon="8.26509">
        <ele>1424</ele>
        <time>2020-10-24T07:11:48.936Z</time>
      </trkpt>
      <trkpt lat="46.48894" lon="8.2651">
        <ele>1424</ele>
        <time>2020-10-24T07:11:49.937Z</time>
      </trkpt>
      <trkpt lat="46.48895" lon="8.26512">
        <ele>1425</ele>
        <time>2020-10-24T07:11:50.937Z</time>
      </trkpt>
      <trkpt lat="46.48897" lon="8.26513">
        <ele>1425</ele>
        <time>2020-10-24T07:11:51.937Z</time>
      </trkpt>
      <trkpt lat="46.48898" lon="8.26515">
        <ele>1425</ele>
        <time>2020-10-24T07:11:52.937Z</time>
      </trkpt>
      <trkpt lat="46.48899" lon="8.26516">
        <ele>1425</ele>
        <time>2020-10-24T07:11:53.937Z</time>
      </trkpt>
      <trkpt lat="46.489" lon="8.26518">
        <ele>1426</ele>
        <time>2020-10-24T07:11:54.937Z</time>
      </trkpt>
      <trkpt lat="46.48901" lon="8.26519">
        <ele>1426</ele>
        <time>2020-10-24T07:11:55.937Z</time>
      </trkpt>
      <trkpt lat="46.48902" lon="8.2652">
        <ele>1426</ele>
        <time>2020-10-24T07:11:56.937Z</time>
      </trkpt>
      <trkpt lat="46.48903" lon="8.26522">
        <ele>1426</ele>
        <time>2020-10-24T07:11:57.936Z</time>
      </trkpt>
      <trkpt lat="46.48904" lon="8.26523">
        <ele>1427</ele>
        <time>2020-10-24T07:11:58.937Z</time>
      </trkpt>
      <trkpt lat="46.48905" lon="8.26524">
        <ele>1427</ele>
        <time>2020-10-24T07:11:59.936Z</time>
      </trkpt>
      <trkpt lat="46.48906" lon="8.26524">
        <ele>1426</ele>
        <time>2020-10-24T07:12:00.936Z</time>
      </trkpt>
      <trkpt lat="46.48908" lon="8.26525">
        <ele>1426</ele>
        <time>2020-10-24T07:12:01.937Z</time>
      </trkpt>
      <trkpt lat="46.48909" lon="8.26526">
        <ele>1426</ele>
        <time>2020-10-24T07:12:02.936Z</time>
      </trkpt>
      <trkpt lat="46.4891" lon="8.26527">
        <ele>1427</ele>
        <time>2020-10-24T07:12:03.937Z</time>
      </trkpt>
      <trkpt lat="46.48911" lon="8.26528">
        <ele>1427</ele>
        <time>2020-10-24T07:12:04.937Z</time>
      </trkpt>
      <trkpt lat="46.48912" lon="8.26529">
        <ele>1427</ele>
        <time>2020-10-24T07:12:05.936Z</time>
      </trkpt>
      <trkpt lat="46.48913" lon="8.2653">
        <ele>1428</ele>
        <time>2020-10-24T07:12:06.936Z</time>
      </trkpt>
      <trkpt lat="46.48914" lon="8.26531">
        <ele>1428</ele>
        <time>2020-10-24T07:12:07.937Z</time>
      </trkpt>
      <trkpt lat="46.48916" lon="8.26532">
        <ele>1429</ele>
        <time>2020-10-24T07:12:08.937Z</time>
      </trkpt>
      <trkpt lat="46.48917" lon="8.26533">
        <ele>1429</ele>
        <time>2020-10-24T07:12:09.937Z</time>
      </trkpt>
      <trkpt lat="46.48918" lon="8.26533">
        <ele>1429</ele>
        <time>2020-10-24T07:12:10.937Z</time>
      </trkpt>
      <trkpt lat="46.48919" lon="8.26534">
        <ele>1429</ele>
        <time>2020-10-24T07:12:11.936Z</time>
      </trkpt>
      <trkpt lat="46.4892" lon="8.26534">
        <ele>1429</ele>
        <time>2020-10-24T07:12:12.937Z</time>
      </trkpt>
      <trkpt lat="46.48921" lon="8.26535">
        <ele>1429</ele>
        <time>2020-10-24T07:12:13.937Z</time>
      </trkpt>
      <trkpt lat="46.48923" lon="8.26535">
        <ele>1429</ele>
        <time>2020-10-24T07:12:14.936Z</time>
      </trkpt>
      <trkpt lat="46.48924" lon="8.26536">
        <ele>1429</ele>
        <time>2020-10-24T07:12:15.936Z</time>
      </trkpt>
      <trkpt lat="46.48925" lon="8.26536">
        <ele>1430</ele>
        <time>2020-10-24T07:12:16.937Z</time>
      </trkpt>
      <trkpt lat="46.48926" lon="8.26537">
        <ele>1430</ele>
        <time>2020-10-24T07:12:17.937Z</time>
      </trkpt>
      <trkpt lat="46.48927" lon="8.26537">
        <ele>1431</ele>
        <time>2020-10-24T07:12:18.936Z</time>
      </trkpt>
      <trkpt lat="46.48929" lon="8.26538">
        <ele>1431</ele>
        <time>2020-10-24T07:12:19.936Z</time>
      </trkpt>
      <trkpt lat="46.4893" lon="8.26538">
        <ele>1431</ele>
        <time>2020-10-24T07:12:20.936Z</time>
      </trkpt>
      <trkpt lat="46.48931" lon="8.26539">
        <ele>1432</ele>
        <time>2020-10-24T07:12:21.937Z</time>
      </trkpt>
      <trkpt lat="46.48932" lon="8.26539">
        <ele>1432</ele>
        <time>2020-10-24T07:12:22.937Z</time>
      </trkpt>
      <trkpt lat="46.48933" lon="8.2654">
        <ele>1432</ele>
        <time>2020-10-24T07:12:23.937Z</time>
      </trkpt>
      <trkpt lat="46.48934" lon="8.2654">
        <ele>1433</ele>
        <time>2020-10-24T07:12:24.937Z</time>
      </trkpt>
      <trkpt lat="46.48936" lon="8.26541">
        <ele>1433</ele>
        <time>2020-10-24T07:12:25.937Z</time>
      </trkpt>
      <trkpt lat="46.48937" lon="8.26542">
        <ele>1434</ele>
        <time>2020-10-24T07:12:26.936Z</time>
      </trkpt>
      <trkpt lat="46.48938" lon="8.26542">
        <ele>1434</ele>
        <time>2020-10-24T07:12:27.936Z</time>
      </trkpt>
      <trkpt lat="46.48939" lon="8.26543">
        <ele>1434</ele>
        <time>2020-10-24T07:12:28.937Z</time>
      </trkpt>
      <trkpt lat="46.4894" lon="8.26544">
        <ele>1435</ele>
        <time>2020-10-24T07:12:29.937Z</time>
      </trkpt>
      <trkpt lat="46.48941" lon="8.26545">
        <ele>1435</ele>
        <time>2020-10-24T07:12:30.936Z</time>
      </trkpt>
      <trkpt lat="46.48942" lon="8.26546">
        <ele>1436</ele>
        <time>2020-10-24T07:12:31.937Z</time>
      </trkpt>
      <trkpt lat="46.48944" lon="8.26547">
        <ele>1436</ele>
        <time>2020-10-24T07:12:32.936Z</time>
      </trkpt>
      <trkpt lat="46.48945" lon="8.26548">
        <ele>1437</ele>
        <time>2020-10-24T07:12:33.936Z</time>
      </trkpt>
      <trkpt lat="46.48946" lon="8.26548">
        <ele>1437</ele>
        <time>2020-10-24T07:12:34.936Z</time>
      </trkpt>
      <trkpt lat="46.48947" lon="8.26549">
        <ele>1436</ele>
        <time>2020-10-24T07:12:35.937Z</time>
      </trkpt>
      <trkpt lat="46.48948" lon="8.2655">
        <ele>1436</ele>
        <time>2020-10-24T07:12:36.936Z</time>
      </trkpt>
      <trkpt lat="46.48949" lon="8.2655">
        <ele>1437</ele>
        <time>2020-10-24T07:12:37.937Z</time>
      </trkpt>
      <trkpt lat="46.4895" lon="8.26551">
        <ele>1437</ele>
        <time>2020-10-24T07:12:38.937Z</time>
      </trkpt>
      <trkpt lat="46.48952" lon="8.26552">
        <ele>1437</ele>
        <time>2020-10-24T07:12:39.937Z</time>
      </trkpt>
      <trkpt lat="46.48953" lon="8.26552">
        <ele>1437</ele>
        <time>2020-10-24T07:12:40.937Z</time>
      </trkpt>
      <trkpt lat="46.48954" lon="8.26553">
        <ele>1437</ele>
        <time>2020-10-24T07:12:41.936Z</time>
      </trkpt>
      <trkpt lat="46.48955" lon="8.26554">
        <ele>1437</ele>
        <time>2020-10-24T07:12:42.937Z</time>
      </trkpt>
      <trkpt lat="46.48956" lon="8.26554">
        <ele>1438</ele>
        <time>2020-10-24T07:12:43.937Z</time>
      </trkpt>
      <trkpt lat="46.48957" lon="8.26555">
        <ele>1438</ele>
        <time>2020-10-24T07:12:44.937Z</time>
      </trkpt>
      <trkpt lat="46.48959" lon="8.26556">
        <ele>1437</ele>
        <time>2020-10-24T07:12:45.936Z</time>
      </trkpt>
      <trkpt lat="46.4896" lon="8.26556">
        <ele>1438</ele>
        <time>2020-10-24T07:12:46.937Z</time>
      </trkpt>
      <trkpt lat="46.48961" lon="8.26557">
        <ele>1438</ele>
        <time>2020-10-24T07:12:47.936Z</time>
      </trkpt>
      <trkpt lat="46.48962" lon="8.26558">
        <ele>1438</ele>
        <time>2020-10-24T07:12:48.936Z</time>
      </trkpt>
      <trkpt lat="46.48963" lon="8.26559">
        <ele>1439</ele>
        <time>2020-10-24T07:12:49.936Z</time>
      </trkpt>
      <trkpt lat="46.48964" lon="8.2656">
        <ele>1439</ele>
        <time>2020-10-24T07:12:50.936Z</time>
      </trkpt>
      <trkpt lat="46.48965" lon="8.2656">
        <ele>1439</ele>
        <time>2020-10-24T07:12:51.936Z</time>
      </trkpt>
      <trkpt lat="46.48966" lon="8.26561">
        <ele>1439</ele>
        <time>2020-10-24T07:12:52.937Z</time>
      </trkpt>
      <trkpt lat="46.48967" lon="8.26562">
        <ele>1439</ele>
        <time>2020-10-24T07:12:53.936Z</time>
      </trkpt>
      <trkpt lat="46.48968" lon="8.26563">
        <ele>1439</ele>
        <time>2020-10-24T07:12:54.936Z</time>
      </trkpt>
      <trkpt lat="46.48969" lon="8.26564">
        <ele>1440</ele>
        <time>2020-10-24T07:12:55.936Z</time>
      </trkpt>
      <trkpt lat="46.48971" lon="8.26564">
        <ele>1440</ele>
        <time>2020-10-24T07:12:56.936Z</time>
      </trkpt>
      <trkpt lat="46.48972" lon="8.26565">
        <ele>1440</ele>
        <time>2020-10-24T07:12:57.936Z</time>
      </trkpt>
      <trkpt lat="46.48973" lon="8.26566">
        <ele>1441</ele>
        <time>2020-10-24T07:12:58.937Z</time>
      </trkpt>
      <trkpt lat="46.48974" lon="8.26567">
        <ele>1441</ele>
        <time>2020-10-24T07:12:59.937Z</time>
      </trkpt>
      <trkpt lat="46.48975" lon="8.26568">
        <ele>1442</ele>
        <time>2020-10-24T07:13:00.937Z</time>
      </trkpt>
      <trkpt lat="46.48976" lon="8.26569">
        <ele>1442</ele>
        <time>2020-10-24T07:13:01.936Z</time>
      </trkpt>
      <trkpt lat="46.48977" lon="8.26569">
        <ele>1442</ele>
        <time>2020-10-24T07:13:02.937Z</time>
      </trkpt>
      <trkpt lat="46.48978" lon="8.2657">
        <ele>1442</ele>
        <time>2020-10-24T07:13:03.936Z</time>
      </trkpt>
      <trkpt lat="46.48979" lon="8.26571">
        <ele>1442</ele>
        <time>2020-10-24T07:13:04.937Z</time>
      </trkpt>
      <trkpt lat="46.4898" lon="8.26572">
        <ele>1442</ele>
        <time>2020-10-24T07:13:05.937Z</time>
      </trkpt>
      <trkpt lat="46.48981" lon="8.26573">
        <ele>1442</ele>
        <time>2020-10-24T07:13:06.937Z</time>
      </trkpt>
      <trkpt lat="46.48982" lon="8.26573">
        <ele>1442</ele>
        <time>2020-10-24T07:13:07.936Z</time>
      </trkpt>
      <trkpt lat="46.48983" lon="8.26574">
        <ele>1442</ele>
        <time>2020-10-24T07:13:08.937Z</time>
      </trkpt>
      <trkpt lat="46.48985" lon="8.26575">
        <ele>1441</ele>
        <time>2020-10-24T07:13:09.937Z</time>
      </trkpt>
      <trkpt lat="46.48986" lon="8.26576">
        <ele>1442</ele>
        <time>2020-10-24T07:13:10.937Z</time>
      </trkpt>
      <trkpt lat="46.48987" lon="8.26577">
        <ele>1441</ele>
        <time>2020-10-24T07:13:11.937Z</time>
      </trkpt>
      <trkpt lat="46.48988" lon="8.26578">
        <ele>1441</ele>
        <time>2020-10-24T07:13:12.936Z</time>
      </trkpt>
      <trkpt lat="46.48989" lon="8.26578">
        <ele>1441</ele>
        <time>2020-10-24T07:13:13.937Z</time>
      </trkpt>
      <trkpt lat="46.4899" lon="8.26579">
        <ele>1441</ele>
        <time>2020-10-24T07:13:14.936Z</time>
      </trkpt>
      <trkpt lat="46.48991" lon="8.2658">
        <ele>1442</ele>
        <time>2020-10-24T07:13:15.936Z</time>
      </trkpt>
      <trkpt lat="46.48993" lon="8.2658">
        <ele>1442</ele>
        <time>2020-10-24T07:13:16.937Z</time>
      </trkpt>
      <trkpt lat="46.48994" lon="8.26581">
        <ele>1442</ele>
        <time>2020-10-24T07:13:17.937Z</time>
      </trkpt>
      <trkpt lat="46.48995" lon="8.26582">
        <ele>1443</ele>
        <time>2020-10-24T07:13:18.937Z</time>
      </trkpt>
      <trkpt lat="46.48996" lon="8.26583">
        <ele>1444</ele>
        <time>2020-10-24T07:13:19.936Z</time>
      </trkpt>
      <trkpt lat="46.48997" lon="8.26583">
        <ele>1444</ele>
        <time>2020-10-24T07:13:20.937Z</time>
      </trkpt>
      <trkpt lat="46.48998" lon="8.26584">
        <ele>1444</ele>
        <time>2020-10-24T07:13:21.936Z</time>
      </trkpt>
      <trkpt lat="46.48999" lon="8.26584">
        <ele>1444</ele>
        <time>2020-10-24T07:13:22.937Z</time>
      </trkpt>
      <trkpt lat="46.49" lon="8.26585">
        <ele>1444</ele>
        <time>2020-10-24T07:13:23.937Z</time>
      </trkpt>
      <trkpt lat="46.49001" lon="8.26585">
        <ele>1444</ele>
        <time>2020-10-24T07:13:24.937Z</time>
      </trkpt>
      <trkpt lat="46.49003" lon="8.26586">
        <ele>1445</ele>
        <time>2020-10-24T07:13:25.937Z</time>
      </trkpt>
      <trkpt lat="46.49004" lon="8.26586">
        <ele>1445</ele>
        <time>2020-10-24T07:13:26.936Z</time>
      </trkpt>
      <trkpt lat="46.49005" lon="8.26587">
        <ele>1446</ele>
        <time>2020-10-24T07:13:27.937Z</time>
      </trkpt>
      <trkpt lat="46.49006" lon="8.26587">
        <ele>1446</ele>
        <time>2020-10-24T07:13:28.937Z</time>
      </trkpt>
      <trkpt lat="46.49008" lon="8.26588">
        <ele>1446</ele>
        <time>2020-10-24T07:13:29.936Z</time>
      </trkpt>
      <trkpt lat="46.49009" lon="8.26588">
        <ele>1447</ele>
        <time>2020-10-24T07:13:30.936Z</time>
      </trkpt>
      <trkpt lat="46.4901" lon="8.26589">
        <ele>1447</ele>
        <time>2020-10-24T07:13:31.937Z</time>
      </trkpt>
      <trkpt lat="46.49011" lon="8.2659">
        <ele>1447</ele>
        <time>2020-10-24T07:13:32.937Z</time>
      </trkpt>
      <trkpt lat="46.49012" lon="8.2659">
        <ele>1448</ele>
        <time>2020-10-24T07:13:33.936Z</time>
      </trkpt>
      <trkpt lat="46.49014" lon="8.2659">
        <ele>1448</ele>
        <time>2020-10-24T07:13:34.936Z</time>
      </trkpt>
      <trkpt lat="46.49015" lon="8.2659">
        <ele>1448</ele>
        <time>2020-10-24T07:13:35.937Z</time>
      </trkpt>
      <trkpt lat="46.49016" lon="8.2659">
        <ele>1448</ele>
        <time>2020-10-24T07:13:36.937Z</time>
      </trkpt>
      <trkpt lat="46.49017" lon="8.26591">
        <ele>1448</ele>
        <time>2020-10-24T07:13:37.936Z</time>
      </trkpt>
      <trkpt lat="46.49019" lon="8.26591">
        <ele>1448</ele>
        <time>2020-10-24T07:13:38.937Z</time>
      </trkpt>
      <trkpt lat="46.4902" lon="8.26592">
        <ele>1449</ele>
        <time>2020-10-24T07:13:39.937Z</time>
      </trkpt>
      <trkpt lat="46.49021" lon="8.26592">
        <ele>1449</ele>
        <time>2020-10-24T07:13:40.937Z</time>
      </trkpt>
      <trkpt lat="46.49022" lon="8.26592">
        <ele>1449</ele>
        <time>2020-10-24T07:13:41.937Z</time>
      </trkpt>
      <trkpt lat="46.49023" lon="8.26592">
        <ele>1450</ele>
        <time>2020-10-24T07:13:42.937Z</time>
      </trkpt>
      <trkpt lat="46.49024" lon="8.26593">
        <ele>1450</ele>
        <time>2020-10-24T07:13:43.936Z</time>
      </trkpt>
      <trkpt lat="46.49025" lon="8.26593">
        <ele>1450</ele>
        <time>2020-10-24T07:13:44.937Z</time>
      </trkpt>
      <trkpt lat="46.49027" lon="8.26594">
        <ele>1451</ele>
        <time>2020-10-24T07:13:45.936Z</time>
      </trkpt>
      <trkpt lat="46.49028" lon="8.26594">
        <ele>1451</ele>
        <time>2020-10-24T07:13:46.936Z</time>
      </trkpt>
      <trkpt lat="46.49029" lon="8.26594">
        <ele>1451</ele>
        <time>2020-10-24T07:13:47.936Z</time>
      </trkpt>
      <trkpt lat="46.4903" lon="8.26595">
        <ele>1451</ele>
        <time>2020-10-24T07:13:48.936Z</time>
      </trkpt>
      <trkpt lat="46.49031" lon="8.26595">
        <ele>1452</ele>
        <time>2020-10-24T07:13:49.936Z</time>
      </trkpt>
      <trkpt lat="46.49032" lon="8.26596">
        <ele>1453</ele>
        <time>2020-10-24T07:13:50.937Z</time>
      </trkpt>
      <trkpt lat="46.49034" lon="8.26596">
        <ele>1453</ele>
        <time>2020-10-24T07:13:51.937Z</time>
      </trkpt>
      <trkpt lat="46.49035" lon="8.26596">
        <ele>1453</ele>
        <time>2020-10-24T07:13:52.936Z</time>
      </trkpt>
      <trkpt lat="46.49036" lon="8.26596">
        <ele>1454</ele>
        <time>2020-10-24T07:13:53.936Z</time>
      </trkpt>
      <trkpt lat="46.49037" lon="8.26596">
        <ele>1454</ele>
        <time>2020-10-24T07:13:54.936Z</time>
      </trkpt>
      <trkpt lat="46.49038" lon="8.26596">
        <ele>1454</ele>
        <time>2020-10-24T07:13:55.936Z</time>
      </trkpt>
      <trkpt lat="46.49039" lon="8.26597">
        <ele>1454</ele>
        <time>2020-10-24T07:13:56.936Z</time>
      </trkpt>
      <trkpt lat="46.49041" lon="8.26597">
        <ele>1454</ele>
        <time>2020-10-24T07:13:57.937Z</time>
      </trkpt>
      <trkpt lat="46.49042" lon="8.26598">
        <ele>1454</ele>
        <time>2020-10-24T07:13:58.936Z</time>
      </trkpt>
      <trkpt lat="46.49043" lon="8.26598">
        <ele>1454</ele>
        <time>2020-10-24T07:13:59.937Z</time>
      </trkpt>
      <trkpt lat="46.49044" lon="8.26598">
        <ele>1454</ele>
        <time>2020-10-24T07:14:00.936Z</time>
      </trkpt>
      <trkpt lat="46.49045" lon="8.26598">
        <ele>1454</ele>
        <time>2020-10-24T07:14:01.936Z</time>
      </trkpt>
      <trkpt lat="46.49046" lon="8.26599">
        <ele>1453</ele>
        <time>2020-10-24T07:14:02.936Z</time>
      </trkpt>
      <trkpt lat="46.49047" lon="8.26599">
        <ele>1453</ele>
        <time>2020-10-24T07:14:03.936Z</time>
      </trkpt>
      <trkpt lat="46.49048" lon="8.266">
        <ele>1453</ele>
        <time>2020-10-24T07:14:04.936Z</time>
      </trkpt>
      <trkpt lat="46.4905" lon="8.266">
        <ele>1453</ele>
        <time>2020-10-24T07:14:05.936Z</time>
      </trkpt>
      <trkpt lat="46.49051" lon="8.266">
        <ele>1454</ele>
        <time>2020-10-24T07:14:06.936Z</time>
      </trkpt>
      <trkpt lat="46.49052" lon="8.26601">
        <ele>1454</ele>
        <time>2020-10-24T07:14:07.936Z</time>
      </trkpt>
      <trkpt lat="46.49053" lon="8.26601">
        <ele>1454</ele>
        <time>2020-10-24T07:14:08.936Z</time>
      </trkpt>
      <trkpt lat="46.49054" lon="8.26602">
        <ele>1454</ele>
        <time>2020-10-24T07:14:09.936Z</time>
      </trkpt>
      <trkpt lat="46.49055" lon="8.26602">
        <ele>1455</ele>
        <time>2020-10-24T07:14:10.936Z</time>
      </trkpt>
      <trkpt lat="46.49056" lon="8.26602">
        <ele>1455</ele>
        <time>2020-10-24T07:14:11.936Z</time>
      </trkpt>
      <trkpt lat="46.49057" lon="8.26602">
        <ele>1456</ele>
        <time>2020-10-24T07:14:12.936Z</time>
      </trkpt>
      <trkpt lat="46.49059" lon="8.26602">
        <ele>1456</ele>
        <time>2020-10-24T07:14:13.936Z</time>
      </trkpt>
      <trkpt lat="46.4906" lon="8.26603">
        <ele>1456</ele>
        <time>2020-10-24T07:14:14.937Z</time>
      </trkpt>
      <trkpt lat="46.49061" lon="8.26603">
        <ele>1456</ele>
        <time>2020-10-24T07:14:15.937Z</time>
      </trkpt>
      <trkpt lat="46.49062" lon="8.26603">
        <ele>1456</ele>
        <time>2020-10-24T07:14:16.936Z</time>
      </trkpt>
      <trkpt lat="46.49063" lon="8.26603">
        <ele>1457</ele>
        <time>2020-10-24T07:14:17.937Z</time>
      </trkpt>
      <trkpt lat="46.49064" lon="8.26603">
        <ele>1457</ele>
        <time>2020-10-24T07:14:18.936Z</time>
      </trkpt>
      <trkpt lat="46.49065" lon="8.26603">
        <ele>1457</ele>
        <time>2020-10-24T07:14:19.936Z</time>
      </trkpt>
      <trkpt lat="46.49067" lon="8.26604">
        <ele>1457</ele>
        <time>2020-10-24T07:14:20.937Z</time>
      </trkpt>
      <trkpt lat="46.49068" lon="8.26604">
        <ele>1457</ele>
        <time>2020-10-24T07:14:21.937Z</time>
      </trkpt>
      <trkpt lat="46.49069" lon="8.26604">
        <ele>1457</ele>
        <time>2020-10-24T07:14:22.936Z</time>
      </trkpt>
      <trkpt lat="46.4907" lon="8.26604">
        <ele>1457</ele>
        <time>2020-10-24T07:14:23.937Z</time>
      </trkpt>
      <trkpt lat="46.49071" lon="8.26604">
        <ele>1457</ele>
        <time>2020-10-24T07:14:24.936Z</time>
      </trkpt>
      <trkpt lat="46.49072" lon="8.26605">
        <ele>1457</ele>
        <time>2020-10-24T07:14:25.937Z</time>
      </trkpt>
      <trkpt lat="46.49073" lon="8.26605">
        <ele>1457</ele>
        <time>2020-10-24T07:14:26.936Z</time>
      </trkpt>
      <trkpt lat="46.49074" lon="8.26605">
        <ele>1457</ele>
        <time>2020-10-24T07:14:27.937Z</time>
      </trkpt>
      <trkpt lat="46.49075" lon="8.26605">
        <ele>1458</ele>
        <time>2020-10-24T07:14:28.937Z</time>
      </trkpt>
      <trkpt lat="46.49076" lon="8.26605">
        <ele>1458</ele>
        <time>2020-10-24T07:14:29.937Z</time>
      </trkpt>
      <trkpt lat="46.49078" lon="8.26605">
        <ele>1459</ele>
        <time>2020-10-24T07:14:30.937Z</time>
      </trkpt>
      <trkpt lat="46.49079" lon="8.26605">
        <ele>1459</ele>
        <time>2020-10-24T07:14:31.937Z</time>
      </trkpt>
      <trkpt lat="46.4908" lon="8.26605">
        <ele>1460</ele>
        <time>2020-10-24T07:14:32.936Z</time>
      </trkpt>
      <trkpt lat="46.49081" lon="8.26605">
        <ele>1460</ele>
        <time>2020-10-24T07:14:33.937Z</time>
      </trkpt>
      <trkpt lat="46.49082" lon="8.26606">
        <ele>1460</ele>
        <time>2020-10-24T07:14:34.937Z</time>
      </trkpt>
      <trkpt lat="46.49084" lon="8.26606">
        <ele>1460</ele>
        <time>2020-10-24T07:14:35.937Z</time>
      </trkpt>
      <trkpt lat="46.49085" lon="8.26606">
        <ele>1461</ele>
        <time>2020-10-24T07:14:36.937Z</time>
      </trkpt>
      <trkpt lat="46.49087" lon="8.26606">
        <ele>1461</ele>
        <time>2020-10-24T07:14:37.937Z</time>
      </trkpt>
      <trkpt lat="46.49088" lon="8.26607">
        <ele>1461</ele>
        <time>2020-10-24T07:14:38.936Z</time>
      </trkpt>
      <trkpt lat="46.49089" lon="8.26607">
        <ele>1461</ele>
        <time>2020-10-24T07:14:39.937Z</time>
      </trkpt>
      <trkpt lat="46.4909" lon="8.26607">
        <ele>1462</ele>
        <time>2020-10-24T07:14:40.937Z</time>
      </trkpt>
      <trkpt lat="46.49091" lon="8.26607">
        <ele>1462</ele>
        <time>2020-10-24T07:14:41.937Z</time>
      </trkpt>
      <trkpt lat="46.49092" lon="8.26607">
        <ele>1462</ele>
        <time>2020-10-24T07:14:42.937Z</time>
      </trkpt>
      <trkpt lat="46.49093" lon="8.26608">
        <ele>1463</ele>
        <time>2020-10-24T07:14:43.936Z</time>
      </trkpt>
      <trkpt lat="46.49094" lon="8.26608">
        <ele>1463</ele>
        <time>2020-10-24T07:14:44.937Z</time>
      </trkpt>
      <trkpt lat="46.49095" lon="8.26608">
        <ele>1463</ele>
        <time>2020-10-24T07:14:45.937Z</time>
      </trkpt>
      <trkpt lat="46.49096" lon="8.26609">
        <ele>1463</ele>
        <time>2020-10-24T07:14:46.936Z</time>
      </trkpt>
      <trkpt lat="46.49097" lon="8.2661">
        <ele>1464</ele>
        <time>2020-10-24T07:14:47.937Z</time>
      </trkpt>
      <trkpt lat="46.49098" lon="8.2661">
        <ele>1464</ele>
        <time>2020-10-24T07:14:48.937Z</time>
      </trkpt>
      <trkpt lat="46.49099" lon="8.2661">
        <ele>1465</ele>
        <time>2020-10-24T07:14:49.936Z</time>
      </trkpt>
      <trkpt lat="46.491" lon="8.26611">
        <ele>1465</ele>
        <time>2020-10-24T07:14:50.937Z</time>
      </trkpt>
      <trkpt lat="46.49102" lon="8.26611">
        <ele>1465</ele>
        <time>2020-10-24T07:14:51.937Z</time>
      </trkpt>
      <trkpt lat="46.49103" lon="8.26611">
        <ele>1466</ele>
        <time>2020-10-24T07:14:52.936Z</time>
      </trkpt>
      <trkpt lat="46.49104" lon="8.26611">
        <ele>1466</ele>
        <time>2020-10-24T07:14:53.937Z</time>
      </trkpt>
      <trkpt lat="46.49105" lon="8.26612">
        <ele>1466</ele>
        <time>2020-10-24T07:14:54.937Z</time>
      </trkpt>
      <trkpt lat="46.49106" lon="8.26612">
        <ele>1466</ele>
        <time>2020-10-24T07:14:55.937Z</time>
      </trkpt>
      <trkpt lat="46.49107" lon="8.26612">
        <ele>1466</ele>
        <time>2020-10-24T07:14:56.937Z</time>
      </trkpt>
      <trkpt lat="46.49108" lon="8.26612">
        <ele>1467</ele>
        <time>2020-10-24T07:14:57.937Z</time>
      </trkpt>
      <trkpt lat="46.49109" lon="8.26612">
        <ele>1467</ele>
        <time>2020-10-24T07:14:58.937Z</time>
      </trkpt>
      <trkpt lat="46.4911" lon="8.26613">
        <ele>1467</ele>
        <time>2020-10-24T07:14:59.937Z</time>
      </trkpt>
      <trkpt lat="46.49111" lon="8.26613">
        <ele>1467</ele>
        <time>2020-10-24T07:15:00.937Z</time>
      </trkpt>
      <trkpt lat="46.49112" lon="8.26613">
        <ele>1467</ele>
        <time>2020-10-24T07:15:01.937Z</time>
      </trkpt>
      <trkpt lat="46.49113" lon="8.26613">
        <ele>1468</ele>
        <time>2020-10-24T07:15:02.936Z</time>
      </trkpt>
      <trkpt lat="46.49114" lon="8.26613">
        <ele>1468</ele>
        <time>2020-10-24T07:15:03.937Z</time>
      </trkpt>
      <trkpt lat="46.49116" lon="8.26614">
        <ele>1469</ele>
        <time>2020-10-24T07:15:04.936Z</time>
      </trkpt>
      <trkpt lat="46.49117" lon="8.26614">
        <ele>1469</ele>
        <time>2020-10-24T07:15:05.937Z</time>
      </trkpt>
      <trkpt lat="46.49118" lon="8.26614">
        <ele>1470</ele>
        <time>2020-10-24T07:15:06.936Z</time>
      </trkpt>
      <trkpt lat="46.49119" lon="8.26614">
        <ele>1470</ele>
        <time>2020-10-24T07:15:07.936Z</time>
      </trkpt>
      <trkpt lat="46.4912" lon="8.26615">
        <ele>1470</ele>
        <time>2020-10-24T07:15:08.937Z</time>
      </trkpt>
      <trkpt lat="46.49121" lon="8.26615">
        <ele>1471</ele>
        <time>2020-10-24T07:15:09.937Z</time>
      </trkpt>
      <trkpt lat="46.49122" lon="8.26615">
        <ele>1471</ele>
        <time>2020-10-24T07:15:10.936Z</time>
      </trkpt>
      <trkpt lat="46.49123" lon="8.26615">
        <ele>1471</ele>
        <time>2020-10-24T07:15:11.936Z</time>
      </trkpt>
      <trkpt lat="46.49125" lon="8.26615">
        <ele>1471</ele>
        <time>2020-10-24T07:15:12.936Z</time>
      </trkpt>
      <trkpt lat="46.49126" lon="8.26615">
        <ele>1471</ele>
        <time>2020-10-24T07:15:13.937Z</time>
      </trkpt>
      <trkpt lat="46.49127" lon="8.26615">
        <ele>1472</ele>
        <time>2020-10-24T07:15:14.937Z</time>
      </trkpt>
      <trkpt lat="46.49128" lon="8.26615">
        <ele>1472</ele>
        <time>2020-10-24T07:15:15.937Z</time>
      </trkpt>
      <trkpt lat="46.49129" lon="8.26616">
        <ele>1472</ele>
        <time>2020-10-24T07:15:16.936Z</time>
      </trkpt>
      <trkpt lat="46.4913" lon="8.26616">
        <ele>1473</ele>
        <time>2020-10-24T07:15:17.936Z</time>
      </trkpt>
      <trkpt lat="46.49131" lon="8.26617">
        <ele>1473</ele>
        <time>2020-10-24T07:15:18.936Z</time>
      </trkpt>
      <trkpt lat="46.49132" lon="8.26618">
        <ele>1474</ele>
        <time>2020-10-24T07:15:19.937Z</time>
      </trkpt>
      <trkpt lat="46.49134" lon="8.26618">
        <ele>1473</ele>
        <time>2020-10-24T07:15:20.937Z</time>
      </trkpt>
      <trkpt lat="46.49134" lon="8.26618">
        <ele>1474</ele>
        <time>2020-10-24T07:15:21.937Z</time>
      </trkpt>
      <trkpt lat="46.49135" lon="8.26619">
        <ele>1474</ele>
        <time>2020-10-24T07:15:22.937Z</time>
      </trkpt>
      <trkpt lat="46.49137" lon="8.26619">
        <ele>1474</ele>
        <time>2020-10-24T07:15:23.937Z</time>
      </trkpt>
      <trkpt lat="46.49137" lon="8.26619">
        <ele>1474</ele>
        <time>2020-10-24T07:15:24.937Z</time>
      </trkpt>
      <trkpt lat="46.49139" lon="8.2662">
        <ele>1474</ele>
        <time>2020-10-24T07:15:25.936Z</time>
      </trkpt>
      <trkpt lat="46.4914" lon="8.2662">
        <ele>1474</ele>
        <time>2020-10-24T07:15:26.937Z</time>
      </trkpt>
      <trkpt lat="46.49141" lon="8.2662">
        <ele>1474</ele>
        <time>2020-10-24T07:15:27.937Z</time>
      </trkpt>
      <trkpt lat="46.49142" lon="8.2662">
        <ele>1475</ele>
        <time>2020-10-24T07:15:28.937Z</time>
      </trkpt>
      <trkpt lat="46.49143" lon="8.2662">
        <ele>1475</ele>
        <time>2020-10-24T07:15:29.937Z</time>
      </trkpt>
      <trkpt lat="46.49144" lon="8.26621">
        <ele>1475</ele>
        <time>2020-10-24T07:15:30.937Z</time>
      </trkpt>
      <trkpt lat="46.49145" lon="8.26622">
        <ele>1476</ele>
        <time>2020-10-24T07:15:31.936Z</time>
      </trkpt>
      <trkpt lat="46.49146" lon="8.26622">
        <ele>1476</ele>
        <time>2020-10-24T07:15:32.937Z</time>
      </trkpt>
      <trkpt lat="46.49148" lon="8.26623">
        <ele>1476</ele>
        <time>2020-10-24T07:15:33.936Z</time>
      </trkpt>
      <trkpt lat="46.49149" lon="8.26623">
        <ele>1477</ele>
        <time>2020-10-24T07:15:34.937Z</time>
      </trkpt>
      <trkpt lat="46.4915" lon="8.26623">
        <ele>1477</ele>
        <time>2020-10-24T07:15:35.937Z</time>
      </trkpt>
      <trkpt lat="46.49151" lon="8.26624">
        <ele>1478</ele>
        <time>2020-10-24T07:15:36.937Z</time>
      </trkpt>
      <trkpt lat="46.49152" lon="8.26624">
        <ele>1478</ele>
        <time>2020-10-24T07:15:37.937Z</time>
      </trkpt>
      <trkpt lat="46.49153" lon="8.26624">
        <ele>1478</ele>
        <time>2020-10-24T07:15:38.936Z</time>
      </trkpt>
      <trkpt lat="46.49154" lon="8.26624">
        <ele>1478</ele>
        <time>2020-10-24T07:15:39.937Z</time>
      </trkpt>
      <trkpt lat="46.49155" lon="8.26625">
        <ele>1478</ele>
        <time>2020-10-24T07:15:40.937Z</time>
      </trkpt>
      <trkpt lat="46.49156" lon="8.26625">
        <ele>1478</ele>
        <time>2020-10-24T07:15:41.936Z</time>
      </trkpt>
      <trkpt lat="46.49157" lon="8.26626">
        <ele>1479</ele>
        <time>2020-10-24T07:15:42.937Z</time>
      </trkpt>
      <trkpt lat="46.49158" lon="8.26626">
        <ele>1479</ele>
        <time>2020-10-24T07:15:43.937Z</time>
      </trkpt>
      <trkpt lat="46.49159" lon="8.26627">
        <ele>1479</ele>
        <time>2020-10-24T07:15:44.936Z</time>
      </trkpt>
      <trkpt lat="46.4916" lon="8.26627">
        <ele>1479</ele>
        <time>2020-10-24T07:15:45.936Z</time>
      </trkpt>
      <trkpt lat="46.49162" lon="8.26628">
        <ele>1480</ele>
        <time>2020-10-24T07:15:46.936Z</time>
      </trkpt>
      <trkpt lat="46.49163" lon="8.26628">
        <ele>1480</ele>
        <time>2020-10-24T07:15:47.937Z</time>
      </trkpt>
      <trkpt lat="46.49164" lon="8.26629">
        <ele>1480</ele>
        <time>2020-10-24T07:15:48.937Z</time>
      </trkpt>
      <trkpt lat="46.49165" lon="8.26629">
        <ele>1480</ele>
        <time>2020-10-24T07:15:49.936Z</time>
      </trkpt>
      <trkpt lat="46.49166" lon="8.26629">
        <ele>1481</ele>
        <time>2020-10-24T07:15:50.937Z</time>
      </trkpt>
      <trkpt lat="46.49167" lon="8.2663">
        <ele>1481</ele>
        <time>2020-10-24T07:15:51.936Z</time>
      </trkpt>
      <trkpt lat="46.49169" lon="8.2663">
        <ele>1482</ele>
        <time>2020-10-24T07:15:52.937Z</time>
      </trkpt>
      <trkpt lat="46.49169" lon="8.2663">
        <ele>1482</ele>
        <time>2020-10-24T07:15:53.937Z</time>
      </trkpt>
      <trkpt lat="46.4917" lon="8.26631">
        <ele>1483</ele>
        <time>2020-10-24T07:15:54.937Z</time>
      </trkpt>
      <trkpt lat="46.49171" lon="8.26632">
        <ele>1483</ele>
        <time>2020-10-24T07:15:55.936Z</time>
      </trkpt>
      <trkpt lat="46.49172" lon="8.26632">
        <ele>1484</ele>
        <time>2020-10-24T07:15:56.937Z</time>
      </trkpt>
      <trkpt lat="46.49173" lon="8.26633">
        <ele>1484</ele>
        <time>2020-10-24T07:15:57.937Z</time>
      </trkpt>
      <trkpt lat="46.49174" lon="8.26633">
        <ele>1484</ele>
        <time>2020-10-24T07:15:58.937Z</time>
      </trkpt>
      <trkpt lat="46.49175" lon="8.26633">
        <ele>1484</ele>
        <time>2020-10-24T07:15:59.937Z</time>
      </trkpt>
      <trkpt lat="46.49176" lon="8.26633">
        <ele>1484</ele>
        <time>2020-10-24T07:16:00.936Z</time>
      </trkpt>
      <trkpt lat="46.49177" lon="8.26633">
        <ele>1484</ele>
        <time>2020-10-24T07:16:01.937Z</time>
      </trkpt>
      <trkpt lat="46.49179" lon="8.26633">
        <ele>1484</ele>
        <time>2020-10-24T07:16:02.937Z</time>
      </trkpt>
      <trkpt lat="46.4918" lon="8.26633">
        <ele>1485</ele>
        <time>2020-10-24T07:16:03.936Z</time>
      </trkpt>
      <trkpt lat="46.49181" lon="8.26633">
        <ele>1485</ele>
        <time>2020-10-24T07:16:04.936Z</time>
      </trkpt>
      <trkpt lat="46.49182" lon="8.26634">
        <ele>1485</ele>
        <time>2020-10-24T07:16:05.936Z</time>
      </trkpt>
      <trkpt lat="46.49183" lon="8.26634">
        <ele>1485</ele>
        <time>2020-10-24T07:16:06.936Z</time>
      </trkpt>
      <trkpt lat="46.49184" lon="8.26634">
        <ele>1485</ele>
        <time>2020-10-24T07:16:07.936Z</time>
      </trkpt>
      <trkpt lat="46.49185" lon="8.26635">
        <ele>1486</ele>
        <time>2020-10-24T07:16:08.936Z</time>
      </trkpt>
      <trkpt lat="46.49186" lon="8.26635">
        <ele>1486</ele>
        <time>2020-10-24T07:16:09.936Z</time>
      </trkpt>
      <trkpt lat="46.49187" lon="8.26635">
        <ele>1486</ele>
        <time>2020-10-24T07:16:10.936Z</time>
      </trkpt>
      <trkpt lat="46.49188" lon="8.26635">
        <ele>1486</ele>
        <time>2020-10-24T07:16:11.936Z</time>
      </trkpt>
      <trkpt lat="46.49189" lon="8.26636">
        <ele>1485</ele>
        <time>2020-10-24T07:16:12.937Z</time>
      </trkpt>
      <trkpt lat="46.4919" lon="8.26636">
        <ele>1486</ele>
        <time>2020-10-24T07:16:13.936Z</time>
      </trkpt>
      <trkpt lat="46.49191" lon="8.26636">
        <ele>1486</ele>
        <time>2020-10-24T07:16:14.937Z</time>
      </trkpt>
      <trkpt lat="46.49192" lon="8.26637">
        <ele>1486</ele>
        <time>2020-10-24T07:16:15.936Z</time>
      </trkpt>
      <trkpt lat="46.49193" lon="8.26637">
        <ele>1487</ele>
        <time>2020-10-24T07:16:16.937Z</time>
      </trkpt>
      <trkpt lat="46.49194" lon="8.26637">
        <ele>1487</ele>
        <time>2020-10-24T07:16:17.936Z</time>
      </trkpt>
      <trkpt lat="46.49195" lon="8.26637">
        <ele>1487</ele>
        <time>2020-10-24T07:16:18.937Z</time>
      </trkpt>
      <trkpt lat="46.49196" lon="8.26638">
        <ele>1487</ele>
        <time>2020-10-24T07:16:19.937Z</time>
      </trkpt>
      <trkpt lat="46.49197" lon="8.26638">
        <ele>1488</ele>
        <time>2020-10-24T07:16:20.937Z</time>
      </trkpt>
      <trkpt lat="46.49198" lon="8.26638">
        <ele>1488</ele>
        <time>2020-10-24T07:16:21.937Z</time>
      </trkpt>
      <trkpt lat="46.49199" lon="8.26637">
        <ele>1488</ele>
        <time>2020-10-24T07:16:22.937Z</time>
      </trkpt>
      <trkpt lat="46.492" lon="8.26637">
        <ele>1488</ele>
        <time>2020-10-24T07:16:23.937Z</time>
      </trkpt>
      <trkpt lat="46.49201" lon="8.26637">
        <ele>1489</ele>
        <time>2020-10-24T07:16:24.937Z</time>
      </trkpt>
      <trkpt lat="46.49202" lon="8.26637">
        <ele>1489</ele>
        <time>2020-10-24T07:16:25.937Z</time>
      </trkpt>
      <trkpt lat="46.49203" lon="8.26637">
        <ele>1490</ele>
        <time>2020-10-24T07:16:26.937Z</time>
      </trkpt>
      <trkpt lat="46.49204" lon="8.26637">
        <ele>1491</ele>
        <time>2020-10-24T07:16:27.937Z</time>
      </trkpt>
      <trkpt lat="46.49205" lon="8.26637">
        <ele>1491</ele>
        <time>2020-10-24T07:16:28.937Z</time>
      </trkpt>
      <trkpt lat="46.49206" lon="8.26636">
        <ele>1491</ele>
        <time>2020-10-24T07:16:29.937Z</time>
      </trkpt>
      <trkpt lat="46.49207" lon="8.26636">
        <ele>1491</ele>
        <time>2020-10-24T07:16:30.936Z</time>
      </trkpt>
      <trkpt lat="46.49208" lon="8.26636">
        <ele>1491</ele>
        <time>2020-10-24T07:16:31.937Z</time>
      </trkpt>
      <trkpt lat="46.49209" lon="8.26635">
        <ele>1491</ele>
        <time>2020-10-24T07:16:32.936Z</time>
      </trkpt>
      <trkpt lat="46.4921" lon="8.26635">
        <ele>1492</ele>
        <time>2020-10-24T07:16:33.937Z</time>
      </trkpt>
      <trkpt lat="46.49211" lon="8.26635">
        <ele>1492</ele>
        <time>2020-10-24T07:16:34.936Z</time>
      </trkpt>
      <trkpt lat="46.49212" lon="8.26635">
        <ele>1492</ele>
        <time>2020-10-24T07:16:35.937Z</time>
      </trkpt>
      <trkpt lat="46.49213" lon="8.26635">
        <ele>1492</ele>
        <time>2020-10-24T07:16:36.936Z</time>
      </trkpt>
      <trkpt lat="46.49214" lon="8.26635">
        <ele>1493</ele>
        <time>2020-10-24T07:16:37.936Z</time>
      </trkpt>
      <trkpt lat="46.49215" lon="8.26635">
        <ele>1493</ele>
        <time>2020-10-24T07:16:38.936Z</time>
      </trkpt>
      <trkpt lat="46.49216" lon="8.26635">
        <ele>1494</ele>
        <time>2020-10-24T07:16:39.937Z</time>
      </trkpt>
      <trkpt lat="46.49218" lon="8.26635">
        <ele>1494</ele>
        <time>2020-10-24T07:16:40.937Z</time>
      </trkpt>
      <trkpt lat="46.49219" lon="8.26634">
        <ele>1494</ele>
        <time>2020-10-24T07:16:41.936Z</time>
      </trkpt>
      <trkpt lat="46.4922" lon="8.26634">
        <ele>1495</ele>
        <time>2020-10-24T07:16:42.937Z</time>
      </trkpt>
      <trkpt lat="46.49221" lon="8.26634">
        <ele>1495</ele>
        <time>2020-10-24T07:16:43.937Z</time>
      </trkpt>
      <trkpt lat="46.49221" lon="8.26634">
        <ele>1495</ele>
        <time>2020-10-24T07:16:44.937Z</time>
      </trkpt>
      <trkpt lat="46.49222" lon="8.26634">
        <ele>1495</ele>
        <time>2020-10-24T07:16:45.937Z</time>
      </trkpt>
      <trkpt lat="46.49223" lon="8.26634">
        <ele>1495</ele>
        <time>2020-10-24T07:16:46.937Z</time>
      </trkpt>
      <trkpt lat="46.49225" lon="8.26634">
        <ele>1495</ele>
        <time>2020-10-24T07:16:47.936Z</time>
      </trkpt>
      <trkpt lat="46.49226" lon="8.26634">
        <ele>1496</ele>
        <time>2020-10-24T07:16:48.936Z</time>
      </trkpt>
      <trkpt lat="46.49227" lon="8.26633">
        <ele>1496</ele>
        <time>2020-10-24T07:16:49.936Z</time>
      </trkpt>
      <trkpt lat="46.49228" lon="8.26633">
        <ele>1496</ele>
        <time>2020-10-24T07:16:50.936Z</time>
      </trkpt>
      <trkpt lat="46.49229" lon="8.26633">
        <ele>1497</ele>
        <time>2020-10-24T07:16:51.936Z</time>
      </trkpt>
      <trkpt lat="46.4923" lon="8.26633">
        <ele>1497</ele>
        <time>2020-10-24T07:16:52.936Z</time>
      </trkpt>
      <trkpt lat="46.49231" lon="8.26633">
        <ele>1497</ele>
        <time>2020-10-24T07:16:53.936Z</time>
      </trkpt>
      <trkpt lat="46.49232" lon="8.26633">
        <ele>1498</ele>
        <time>2020-10-24T07:16:54.937Z</time>
      </trkpt>
      <trkpt lat="46.49233" lon="8.26633">
        <ele>1498</ele>
        <time>2020-10-24T07:16:55.937Z</time>
      </trkpt>
      <trkpt lat="46.49234" lon="8.26632">
        <ele>1498</ele>
        <time>2020-10-24T07:16:56.937Z</time>
      </trkpt>
      <trkpt lat="46.49235" lon="8.26632">
        <ele>1498</ele>
        <time>2020-10-24T07:16:57.936Z</time>
      </trkpt>
      <trkpt lat="46.49236" lon="8.26632">
        <ele>1499</ele>
        <time>2020-10-24T07:16:58.937Z</time>
      </trkpt>
      <trkpt lat="46.49237" lon="8.26632">
        <ele>1499</ele>
        <time>2020-10-24T07:16:59.937Z</time>
      </trkpt>
      <trkpt lat="46.49238" lon="8.26632">
        <ele>1499</ele>
        <time>2020-10-24T07:17:00.936Z</time>
      </trkpt>
      <trkpt lat="46.49239" lon="8.26631">
        <ele>1500</ele>
        <time>2020-10-24T07:17:01.937Z</time>
      </trkpt>
      <trkpt lat="46.4924" lon="8.26631">
        <ele>1500</ele>
        <time>2020-10-24T07:17:02.936Z</time>
      </trkpt>
      <trkpt lat="46.49241" lon="8.26631">
        <ele>1501</ele>
        <time>2020-10-24T07:17:03.937Z</time>
      </trkpt>
      <trkpt lat="46.49242" lon="8.2663">
        <ele>1501</ele>
        <time>2020-10-24T07:17:04.937Z</time>
      </trkpt>
      <trkpt lat="46.49243" lon="8.2663">
        <ele>1501</ele>
        <time>2020-10-24T07:17:05.936Z</time>
      </trkpt>
      <trkpt lat="46.49244" lon="8.2663">
        <ele>1500</ele>
        <time>2020-10-24T07:17:06.937Z</time>
      </trkpt>
      <trkpt lat="46.49245" lon="8.2663">
        <ele>1501</ele>
        <time>2020-10-24T07:17:07.936Z</time>
      </trkpt>
      <trkpt lat="46.49246" lon="8.2663">
        <ele>1501</ele>
        <time>2020-10-24T07:17:08.937Z</time>
      </trkpt>
      <trkpt lat="46.49247" lon="8.2663">
        <ele>1501</ele>
        <time>2020-10-24T07:17:09.937Z</time>
      </trkpt>
      <trkpt lat="46.49248" lon="8.26629">
        <ele>1502</ele>
        <time>2020-10-24T07:17:10.937Z</time>
      </trkpt>
      <trkpt lat="46.49249" lon="8.26629">
        <ele>1502</ele>
        <time>2020-10-24T07:17:11.936Z</time>
      </trkpt>
      <trkpt lat="46.49251" lon="8.2663">
        <ele>1503</ele>
        <time>2020-10-24T07:17:12.936Z</time>
      </trkpt>
      <trkpt lat="46.49252" lon="8.2663">
        <ele>1503</ele>
        <time>2020-10-24T07:17:13.936Z</time>
      </trkpt>
      <trkpt lat="46.49253" lon="8.2663">
        <ele>1503</ele>
        <time>2020-10-24T07:17:14.937Z</time>
      </trkpt>
      <trkpt lat="46.49254" lon="8.26629">
        <ele>1503</ele>
        <time>2020-10-24T07:17:15.936Z</time>
      </trkpt>
      <trkpt lat="46.49255" lon="8.26629">
        <ele>1504</ele>
        <time>2020-10-24T07:17:16.936Z</time>
      </trkpt>
      <trkpt lat="46.49256" lon="8.26628">
        <ele>1504</ele>
        <time>2020-10-24T07:17:17.936Z</time>
      </trkpt>
      <trkpt lat="46.49256" lon="8.26628">
        <ele>1504</ele>
        <time>2020-10-24T07:17:18.936Z</time>
      </trkpt>
      <trkpt lat="46.49257" lon="8.26628">
        <ele>1505</ele>
        <time>2020-10-24T07:17:19.936Z</time>
      </trkpt>
      <trkpt lat="46.49259" lon="8.26628">
        <ele>1505</ele>
        <time>2020-10-24T07:17:20.937Z</time>
      </trkpt>
      <trkpt lat="46.4926" lon="8.26628">
        <ele>1506</ele>
        <time>2020-10-24T07:17:21.936Z</time>
      </trkpt>
      <trkpt lat="46.49261" lon="8.26629">
        <ele>1506</ele>
        <time>2020-10-24T07:17:22.936Z</time>
      </trkpt>
      <trkpt lat="46.49262" lon="8.26629">
        <ele>1506</ele>
        <time>2020-10-24T07:17:23.937Z</time>
      </trkpt>
      <trkpt lat="46.49262" lon="8.26629">
        <ele>1506</ele>
        <time>2020-10-24T07:17:24.937Z</time>
      </trkpt>
      <trkpt lat="46.49263" lon="8.26629">
        <ele>1506</ele>
        <time>2020-10-24T07:17:25.936Z</time>
      </trkpt>
      <trkpt lat="46.49264" lon="8.26629">
        <ele>1506</ele>
        <time>2020-10-24T07:17:26.936Z</time>
      </trkpt>
      <trkpt lat="46.49265" lon="8.26629">
        <ele>1507</ele>
        <time>2020-10-24T07:17:27.936Z</time>
      </trkpt>
      <trkpt lat="46.49266" lon="8.26629">
        <ele>1507</ele>
        <time>2020-10-24T07:17:28.937Z</time>
      </trkpt>
      <trkpt lat="46.49267" lon="8.26628">
        <ele>1507</ele>
        <time>2020-10-24T07:17:29.936Z</time>
      </trkpt>
      <trkpt lat="46.49268" lon="8.26628">
        <ele>1507</ele>
        <time>2020-10-24T07:17:30.936Z</time>
      </trkpt>
      <trkpt lat="46.49269" lon="8.26628">
        <ele>1508</ele>
        <time>2020-10-24T07:17:31.936Z</time>
      </trkpt>
      <trkpt lat="46.4927" lon="8.26628">
        <ele>1508</ele>
        <time>2020-10-24T07:17:32.936Z</time>
      </trkpt>
      <trkpt lat="46.49272" lon="8.26628">
        <ele>1508</ele>
        <time>2020-10-24T07:17:33.937Z</time>
      </trkpt>
      <trkpt lat="46.49273" lon="8.26628">
        <ele>1509</ele>
        <time>2020-10-24T07:17:34.937Z</time>
      </trkpt>
      <trkpt lat="46.49274" lon="8.26628">
        <ele>1509</ele>
        <time>2020-10-24T07:17:35.936Z</time>
      </trkpt>
      <trkpt lat="46.49275" lon="8.26629">
        <ele>1509</ele>
        <time>2020-10-24T07:17:36.936Z</time>
      </trkpt>
      <trkpt lat="46.49276" lon="8.26629">
        <ele>1510</ele>
        <time>2020-10-24T07:17:37.936Z</time>
      </trkpt>
      <trkpt lat="46.49277" lon="8.26629">
        <ele>1510</ele>
        <time>2020-10-24T07:17:38.937Z</time>
      </trkpt>
      <trkpt lat="46.49278" lon="8.26629">
        <ele>1510</ele>
        <time>2020-10-24T07:17:39.936Z</time>
      </trkpt>
      <trkpt lat="46.49279" lon="8.26629">
        <ele>1510</ele>
        <time>2020-10-24T07:17:40.936Z</time>
      </trkpt>
      <trkpt lat="46.4928" lon="8.26629">
        <ele>1511</ele>
        <time>2020-10-24T07:17:41.937Z</time>
      </trkpt>
      <trkpt lat="46.49281" lon="8.26628">
        <ele>1511</ele>
        <time>2020-10-24T07:17:42.936Z</time>
      </trkpt>
      <trkpt lat="46.49282" lon="8.26628">
        <ele>1511</ele>
        <time>2020-10-24T07:17:43.937Z</time>
      </trkpt>
      <trkpt lat="46.49283" lon="8.26628">
        <ele>1511</ele>
        <time>2020-10-24T07:17:44.937Z</time>
      </trkpt>
      <trkpt lat="46.49284" lon="8.26628">
        <ele>1512</ele>
        <time>2020-10-24T07:17:45.937Z</time>
      </trkpt>
      <trkpt lat="46.49285" lon="8.26627">
        <ele>1512</ele>
        <time>2020-10-24T07:17:46.936Z</time>
      </trkpt>
      <trkpt lat="46.49286" lon="8.26626">
        <ele>1512</ele>
        <time>2020-10-24T07:17:47.937Z</time>
      </trkpt>
      <trkpt lat="46.49287" lon="8.26625">
        <ele>1511</ele>
        <time>2020-10-24T07:17:48.937Z</time>
      </trkpt>
      <trkpt lat="46.49288" lon="8.26624">
        <ele>1511</ele>
        <time>2020-10-24T07:17:49.937Z</time>
      </trkpt>
      <trkpt lat="46.49289" lon="8.26624">
        <ele>1511</ele>
        <time>2020-10-24T07:17:50.937Z</time>
      </trkpt>
      <trkpt lat="46.4929" lon="8.26623">
        <ele>1512</ele>
        <time>2020-10-24T07:17:51.937Z</time>
      </trkpt>
      <trkpt lat="46.49291" lon="8.26622">
        <ele>1512</ele>
        <time>2020-10-24T07:17:52.937Z</time>
      </trkpt>
      <trkpt lat="46.49292" lon="8.26622">
        <ele>1512</ele>
        <time>2020-10-24T07:17:53.936Z</time>
      </trkpt>
      <trkpt lat="46.49293" lon="8.26623">
        <ele>1513</ele>
        <time>2020-10-24T07:17:54.936Z</time>
      </trkpt>
      <trkpt lat="46.49293" lon="8.26623">
        <ele>1513</ele>
        <time>2020-10-24T07:17:55.937Z</time>
      </trkpt>
      <trkpt lat="46.49294" lon="8.26623">
        <ele>1513</ele>
        <time>2020-10-24T07:17:56.937Z</time>
      </trkpt>
      <trkpt lat="46.49295" lon="8.26623">
        <ele>1514</ele>
        <time>2020-10-24T07:17:57.937Z</time>
      </trkpt>
      <trkpt lat="46.49296" lon="8.26624">
        <ele>1514</ele>
        <time>2020-10-24T07:17:58.937Z</time>
      </trkpt>
      <trkpt lat="46.49297" lon="8.26624">
        <ele>1515</ele>
        <time>2020-10-24T07:17:59.936Z</time>
      </trkpt>
      <trkpt lat="46.49298" lon="8.26624">
        <ele>1515</ele>
        <time>2020-10-24T07:18:00.937Z</time>
      </trkpt>
      <trkpt lat="46.49299" lon="8.26623">
        <ele>1516</ele>
        <time>2020-10-24T07:18:01.937Z</time>
      </trkpt>
      <trkpt lat="46.493" lon="8.26622">
        <ele>1516</ele>
        <time>2020-10-24T07:18:02.936Z</time>
      </trkpt>
      <trkpt lat="46.49301" lon="8.26622">
        <ele>1516</ele>
        <time>2020-10-24T07:18:03.937Z</time>
      </trkpt>
      <trkpt lat="46.49301" lon="8.26622">
        <ele>1516</ele>
        <time>2020-10-24T07:18:04.936Z</time>
      </trkpt>
      <trkpt lat="46.49302" lon="8.26622">
        <ele>1516</ele>
        <time>2020-10-24T07:18:05.937Z</time>
      </trkpt>
      <trkpt lat="46.49303" lon="8.26622">
        <ele>1516</ele>
        <time>2020-10-24T07:18:06.937Z</time>
      </trkpt>
      <trkpt lat="46.49303" lon="8.26622">
        <ele>1516</ele>
        <time>2020-10-24T07:18:07.937Z</time>
      </trkpt>
      <trkpt lat="46.49304" lon="8.26621">
        <ele>1517</ele>
        <time>2020-10-24T07:18:08.937Z</time>
      </trkpt>
      <trkpt lat="46.49305" lon="8.26621">
        <ele>1517</ele>
        <time>2020-10-24T07:18:09.936Z</time>
      </trkpt>
      <trkpt lat="46.49306" lon="8.26621">
        <ele>1518</ele>
        <time>2020-10-24T07:18:10.936Z</time>
      </trkpt>
      <trkpt lat="46.49307" lon="8.26621">
        <ele>1518</ele>
        <time>2020-10-24T07:18:11.937Z</time>
      </trkpt>
      <trkpt lat="46.49307" lon="8.26621">
        <ele>1518</ele>
        <time>2020-10-24T07:18:12.937Z</time>
      </trkpt>
      <trkpt lat="46.49308" lon="8.26621">
        <ele>1519</ele>
        <time>2020-10-24T07:18:13.936Z</time>
      </trkpt>
      <trkpt lat="46.49309" lon="8.26621">
        <ele>1519</ele>
        <time>2020-10-24T07:18:14.937Z</time>
      </trkpt>
      <trkpt lat="46.4931" lon="8.2662">
        <ele>1520</ele>
        <time>2020-10-24T07:18:15.937Z</time>
      </trkpt>
      <trkpt lat="46.49311" lon="8.2662">
        <ele>1520</ele>
        <time>2020-10-24T07:18:16.937Z</time>
      </trkpt>
      <trkpt lat="46.49313" lon="8.2662">
        <ele>1521</ele>
        <time>2020-10-24T07:18:17.936Z</time>
      </trkpt>
      <trkpt lat="46.49314" lon="8.2662">
        <ele>1521</ele>
        <time>2020-10-24T07:18:18.937Z</time>
      </trkpt>
      <trkpt lat="46.49315" lon="8.2662">
        <ele>1521</ele>
        <time>2020-10-24T07:18:19.936Z</time>
      </trkpt>
      <trkpt lat="46.49316" lon="8.2662">
        <ele>1521</ele>
        <time>2020-10-24T07:18:20.937Z</time>
      </trkpt>
      <trkpt lat="46.49316" lon="8.26619">
        <ele>1521</ele>
        <time>2020-10-24T07:18:21.936Z</time>
      </trkpt>
      <trkpt lat="46.49317" lon="8.26619">
        <ele>1522</ele>
        <time>2020-10-24T07:18:22.937Z</time>
      </trkpt>
      <trkpt lat="46.49318" lon="8.26619">
        <ele>1522</ele>
        <time>2020-10-24T07:18:23.937Z</time>
      </trkpt>
      <trkpt lat="46.49319" lon="8.26619">
        <ele>1522</ele>
        <time>2020-10-24T07:18:24.937Z</time>
      </trkpt>
      <trkpt lat="46.49319" lon="8.26619">
        <ele>1522</ele>
        <time>2020-10-24T07:18:25.936Z</time>
      </trkpt>
      <trkpt lat="46.4932" lon="8.26619">
        <ele>1522</ele>
        <time>2020-10-24T07:18:26.937Z</time>
      </trkpt>
      <trkpt lat="46.49321" lon="8.26619">
        <ele>1523</ele>
        <time>2020-10-24T07:18:27.937Z</time>
      </trkpt>
      <trkpt lat="46.49321" lon="8.2662">
        <ele>1523</ele>
        <time>2020-10-24T07:18:28.937Z</time>
      </trkpt>
      <trkpt lat="46.49322" lon="8.26619">
        <ele>1523</ele>
        <time>2020-10-24T07:18:29.937Z</time>
      </trkpt>
      <trkpt lat="46.49323" lon="8.26619">
        <ele>1524</ele>
        <time>2020-10-24T07:18:30.936Z</time>
      </trkpt>
      <trkpt lat="46.49324" lon="8.26619">
        <ele>1524</ele>
        <time>2020-10-24T07:18:31.936Z</time>
      </trkpt>
      <trkpt lat="46.49324" lon="8.26619">
        <ele>1524</ele>
        <time>2020-10-24T07:18:32.937Z</time>
      </trkpt>
      <trkpt lat="46.49325" lon="8.26619">
        <ele>1524</ele>
        <time>2020-10-24T07:18:33.937Z</time>
      </trkpt>
      <trkpt lat="46.49326" lon="8.26619">
        <ele>1524</ele>
        <time>2020-10-24T07:18:34.937Z</time>
      </trkpt>
      <trkpt lat="46.49326" lon="8.26619">
        <ele>1524</ele>
        <time>2020-10-24T07:18:35.937Z</time>
      </trkpt>
      <trkpt lat="46.49327" lon="8.26618">
        <ele>1524</ele>
        <time>2020-10-24T07:18:36.936Z</time>
      </trkpt>
      <trkpt lat="46.49328" lon="8.26618">
        <ele>1524</ele>
        <time>2020-10-24T07:18:37.936Z</time>
      </trkpt>
      <trkpt lat="46.49329" lon="8.26618">
        <ele>1524</ele>
        <time>2020-10-24T07:18:38.936Z</time>
      </trkpt>
      <trkpt lat="46.4933" lon="8.26618">
        <ele>1525</ele>
        <time>2020-10-24T07:18:39.937Z</time>
      </trkpt>
      <trkpt lat="46.4933" lon="8.26618">
        <ele>1525</ele>
        <time>2020-10-24T07:18:40.936Z</time>
      </trkpt>
      <trkpt lat="46.49331" lon="8.26618">
        <ele>1526</ele>
        <time>2020-10-24T07:18:41.936Z</time>
      </trkpt>
      <trkpt lat="46.49332" lon="8.26618">
        <ele>1526</ele>
        <time>2020-10-24T07:18:42.936Z</time>
      </trkpt>
      <trkpt lat="46.49334" lon="8.26617">
        <ele>1526</ele>
        <time>2020-10-24T07:18:43.936Z</time>
      </trkpt>
      <trkpt lat="46.49335" lon="8.26617">
        <ele>1527</ele>
        <time>2020-10-24T07:18:44.936Z</time>
      </trkpt>
      <trkpt lat="46.49336" lon="8.26617">
        <ele>1527</ele>
        <time>2020-10-24T07:18:45.937Z</time>
      </trkpt>
      <trkpt lat="46.49337" lon="8.26617">
        <ele>1527</ele>
        <time>2020-10-24T07:18:46.937Z</time>
      </trkpt>
      <trkpt lat="46.49338" lon="8.26617">
        <ele>1527</ele>
        <time>2020-10-24T07:18:47.937Z</time>
      </trkpt>
      <trkpt lat="46.49339" lon="8.26616">
        <ele>1528</ele>
        <time>2020-10-24T07:18:48.936Z</time>
      </trkpt>
      <trkpt lat="46.4934" lon="8.26616">
        <ele>1528</ele>
        <time>2020-10-24T07:18:49.937Z</time>
      </trkpt>
      <trkpt lat="46.49341" lon="8.26616">
        <ele>1528</ele>
        <time>2020-10-24T07:18:50.936Z</time>
      </trkpt>
      <trkpt lat="46.49342" lon="8.26615">
        <ele>1528</ele>
        <time>2020-10-24T07:18:51.937Z</time>
      </trkpt>
      <trkpt lat="46.49343" lon="8.26615">
        <ele>1528</ele>
        <time>2020-10-24T07:18:52.936Z</time>
      </trkpt>
      <trkpt lat="46.49344" lon="8.26614">
        <ele>1528</ele>
        <time>2020-10-24T07:18:53.936Z</time>
      </trkpt>
      <trkpt lat="46.49344" lon="8.26614">
        <ele>1528</ele>
        <time>2020-10-24T07:18:54.937Z</time>
      </trkpt>
      <trkpt lat="46.49345" lon="8.26613">
        <ele>1528</ele>
        <time>2020-10-24T07:18:55.936Z</time>
      </trkpt>
      <trkpt lat="46.49346" lon="8.26613">
        <ele>1528</ele>
        <time>2020-10-24T07:18:56.936Z</time>
      </trkpt>
      <trkpt lat="46.49347" lon="8.26613">
        <ele>1528</ele>
        <time>2020-10-24T07:18:57.936Z</time>
      </trkpt>
      <trkpt lat="46.49348" lon="8.26613">
        <ele>1528</ele>
        <time>2020-10-24T07:18:58.936Z</time>
      </trkpt>
      <trkpt lat="46.49349" lon="8.26613">
        <ele>1529</ele>
        <time>2020-10-24T07:18:59.936Z</time>
      </trkpt>
      <trkpt lat="46.4935" lon="8.26612">
        <ele>1529</ele>
        <time>2020-10-24T07:19:00.936Z</time>
      </trkpt>
      <trkpt lat="46.49351" lon="8.26612">
        <ele>1529</ele>
        <time>2020-10-24T07:19:01.936Z</time>
      </trkpt>
      <trkpt lat="46.49352" lon="8.26612">
        <ele>1529</ele>
        <time>2020-10-24T07:19:02.936Z</time>
      </trkpt>
      <trkpt lat="46.49353" lon="8.26612">
        <ele>1529</ele>
        <time>2020-10-24T07:19:03.936Z</time>
      </trkpt>
      <trkpt lat="46.49354" lon="8.26612">
        <ele>1530</ele>
        <time>2020-10-24T07:19:04.936Z</time>
      </trkpt>
      <trkpt lat="46.49355" lon="8.26612">
        <ele>1530</ele>
        <time>2020-10-24T07:19:05.936Z</time>
      </trkpt>
      <trkpt lat="46.49356" lon="8.26612">
        <ele>1530</ele>
        <time>2020-10-24T07:19:06.936Z</time>
      </trkpt>
      <trkpt lat="46.49357" lon="8.26611">
        <ele>1530</ele>
        <time>2020-10-24T07:19:07.936Z</time>
      </trkpt>
      <trkpt lat="46.49358" lon="8.26611">
        <ele>1530</ele>
        <time>2020-10-24T07:19:08.936Z</time>
      </trkpt>
      <trkpt lat="46.49359" lon="8.26611">
        <ele>1531</ele>
        <time>2020-10-24T07:19:09.936Z</time>
      </trkpt>
      <trkpt lat="46.4936" lon="8.26611">
        <ele>1532</ele>
        <time>2020-10-24T07:19:10.936Z</time>
      </trkpt>
      <trkpt lat="46.49361" lon="8.26611">
        <ele>1532</ele>
        <time>2020-10-24T07:19:11.936Z</time>
      </trkpt>
      <trkpt lat="46.49362" lon="8.2661">
        <ele>1533</ele>
        <time>2020-10-24T07:19:12.936Z</time>
      </trkpt>
      <trkpt lat="46.49363" lon="8.2661">
        <ele>1533</ele>
        <time>2020-10-24T07:19:13.937Z</time>
      </trkpt>
      <trkpt lat="46.49364" lon="8.2661">
        <ele>1533</ele>
        <time>2020-10-24T07:19:14.937Z</time>
      </trkpt>
      <trkpt lat="46.49365" lon="8.2661">
        <ele>1533</ele>
        <time>2020-10-24T07:19:15.936Z</time>
      </trkpt>
      <trkpt lat="46.49365" lon="8.2661">
        <ele>1533</ele>
        <time>2020-10-24T07:19:16.937Z</time>
      </trkpt>
      <trkpt lat="46.49366" lon="8.2661">
        <ele>1533</ele>
        <time>2020-10-24T07:19:17.937Z</time>
      </trkpt>
      <trkpt lat="46.49367" lon="8.2661">
        <ele>1533</ele>
        <time>2020-10-24T07:19:18.937Z</time>
      </trkpt>
      <trkpt lat="46.49368" lon="8.2661">
        <ele>1534</ele>
        <time>2020-10-24T07:19:19.936Z</time>
      </trkpt>
      <trkpt lat="46.49369" lon="8.2661">
        <ele>1534</ele>
        <time>2020-10-24T07:19:20.937Z</time>
      </trkpt>
      <trkpt lat="46.4937" lon="8.2661">
        <ele>1535</ele>
        <time>2020-10-24T07:19:21.936Z</time>
      </trkpt>
      <trkpt lat="46.49371" lon="8.2661">
        <ele>1535</ele>
        <time>2020-10-24T07:19:22.937Z</time>
      </trkpt>
      <trkpt lat="46.49372" lon="8.26609">
        <ele>1536</ele>
        <time>2020-10-24T07:19:23.937Z</time>
      </trkpt>
      <trkpt lat="46.49373" lon="8.26609">
        <ele>1536</ele>
        <time>2020-10-24T07:19:24.937Z</time>
      </trkpt>
      <trkpt lat="46.49374" lon="8.26609">
        <ele>1537</ele>
        <time>2020-10-24T07:19:25.937Z</time>
      </trkpt>
      <trkpt lat="46.49375" lon="8.26609">
        <ele>1538</ele>
        <time>2020-10-24T07:19:26.937Z</time>
      </trkpt>
      <trkpt lat="46.49376" lon="8.26609">
        <ele>1538</ele>
        <time>2020-10-24T07:19:27.936Z</time>
      </trkpt>
      <trkpt lat="46.49377" lon="8.26609">
        <ele>1539</ele>
        <time>2020-10-24T07:19:28.937Z</time>
      </trkpt>
      <trkpt lat="46.49378" lon="8.26608">
        <ele>1539</ele>
        <time>2020-10-24T07:19:29.937Z</time>
      </trkpt>
      <trkpt lat="46.49379" lon="8.26608">
        <ele>1540</ele>
        <time>2020-10-24T07:19:30.936Z</time>
      </trkpt>
      <trkpt lat="46.4938" lon="8.26608">
        <ele>1540</ele>
        <time>2020-10-24T07:19:31.937Z</time>
      </trkpt>
      <trkpt lat="46.49381" lon="8.26608">
        <ele>1540</ele>
        <time>2020-10-24T07:19:32.936Z</time>
      </trkpt>
      <trkpt lat="46.49382" lon="8.26607">
        <ele>1540</ele>
        <time>2020-10-24T07:19:33.936Z</time>
      </trkpt>
      <trkpt lat="46.49383" lon="8.26607">
        <ele>1540</ele>
        <time>2020-10-24T07:19:34.936Z</time>
      </trkpt>
      <trkpt lat="46.49383" lon="8.26608">
        <ele>1540</ele>
        <time>2020-10-24T07:19:35.936Z</time>
      </trkpt>
      <trkpt lat="46.49384" lon="8.26608">
        <ele>1540</ele>
        <time>2020-10-24T07:19:36.936Z</time>
      </trkpt>
      <trkpt lat="46.49384" lon="8.26609">
        <ele>1541</ele>
        <time>2020-10-24T07:19:37.937Z</time>
      </trkpt>
      <trkpt lat="46.49385" lon="8.2661">
        <ele>1541</ele>
        <time>2020-10-24T07:19:38.937Z</time>
      </trkpt>
      <trkpt lat="46.49385" lon="8.26611">
        <ele>1541</ele>
        <time>2020-10-24T07:19:39.936Z</time>
      </trkpt>
      <trkpt lat="46.49386" lon="8.26612">
        <ele>1542</ele>
        <time>2020-10-24T07:19:40.936Z</time>
      </trkpt>
      <trkpt lat="46.49387" lon="8.26613">
        <ele>1542</ele>
        <time>2020-10-24T07:19:41.936Z</time>
      </trkpt>
      <trkpt lat="46.49387" lon="8.26615">
        <ele>1542</ele>
        <time>2020-10-24T07:19:42.937Z</time>
      </trkpt>
      <trkpt lat="46.49388" lon="8.26616">
        <ele>1543</ele>
        <time>2020-10-24T07:19:43.936Z</time>
      </trkpt>
      <trkpt lat="46.49388" lon="8.26618">
        <ele>1543</ele>
        <time>2020-10-24T07:19:44.937Z</time>
      </trkpt>
      <trkpt lat="46.49389" lon="8.2662">
        <ele>1543</ele>
        <time>2020-10-24T07:19:45.937Z</time>
      </trkpt>
      <trkpt lat="46.49389" lon="8.26623">
        <ele>1544</ele>
        <time>2020-10-24T07:19:46.937Z</time>
      </trkpt>
      <trkpt lat="46.4939" lon="8.26625">
        <ele>1544</ele>
        <time>2020-10-24T07:19:47.937Z</time>
      </trkpt>
      <trkpt lat="46.4939" lon="8.26628">
        <ele>1544</ele>
        <time>2020-10-24T07:19:48.937Z</time>
      </trkpt>
      <trkpt lat="46.49391" lon="8.2663">
        <ele>1544</ele>
        <time>2020-10-24T07:19:49.937Z</time>
      </trkpt>
      <trkpt lat="46.49392" lon="8.26632">
        <ele>1544</ele>
        <time>2020-10-24T07:19:50.937Z</time>
      </trkpt>
      <trkpt lat="46.49393" lon="8.26634">
        <ele>1544</ele>
        <time>2020-10-24T07:19:51.937Z</time>
      </trkpt>
      <trkpt lat="46.49393" lon="8.26636">
        <ele>1543</ele>
        <time>2020-10-24T07:19:52.937Z</time>
      </trkpt>
      <trkpt lat="46.49394" lon="8.26638">
        <ele>1543</ele>
        <time>2020-10-24T07:19:53.936Z</time>
      </trkpt>
      <trkpt lat="46.49395" lon="8.2664">
        <ele>1543</ele>
        <time>2020-10-24T07:19:54.936Z</time>
      </trkpt>
      <trkpt lat="46.49396" lon="8.26642">
        <ele>1543</ele>
        <time>2020-10-24T07:19:55.937Z</time>
      </trkpt>
      <trkpt lat="46.49397" lon="8.26644">
        <ele>1543</ele>
        <time>2020-10-24T07:19:56.937Z</time>
      </trkpt>
      <trkpt lat="46.49398" lon="8.26645">
        <ele>1543</ele>
        <time>2020-10-24T07:19:57.937Z</time>
      </trkpt>
      <trkpt lat="46.49399" lon="8.26647">
        <ele>1543</ele>
        <time>2020-10-24T07:19:58.936Z</time>
      </trkpt>
      <trkpt lat="46.494" lon="8.26648">
        <ele>1543</ele>
        <time>2020-10-24T07:19:59.936Z</time>
      </trkpt>
      <trkpt lat="46.49401" lon="8.2665">
        <ele>1543</ele>
        <time>2020-10-24T07:20:00.937Z</time>
      </trkpt>
      <trkpt lat="46.49401" lon="8.26652">
        <ele>1543</ele>
        <time>2020-10-24T07:20:01.937Z</time>
      </trkpt>
      <trkpt lat="46.49402" lon="8.26654">
        <ele>1543</ele>
        <time>2020-10-24T07:20:02.937Z</time>
      </trkpt>
      <trkpt lat="46.49403" lon="8.26656">
        <ele>1543</ele>
        <time>2020-10-24T07:20:03.937Z</time>
      </trkpt>
      <trkpt lat="46.49404" lon="8.26658">
        <ele>1543</ele>
        <time>2020-10-24T07:20:04.936Z</time>
      </trkpt>
      <trkpt lat="46.49404" lon="8.26659">
        <ele>1543</ele>
        <time>2020-10-24T07:20:05.937Z</time>
      </trkpt>
      <trkpt lat="46.49405" lon="8.26661">
        <ele>1543</ele>
        <time>2020-10-24T07:20:06.937Z</time>
      </trkpt>
      <trkpt lat="46.49406" lon="8.26662">
        <ele>1543</ele>
        <time>2020-10-24T07:20:07.937Z</time>
      </trkpt>
      <trkpt lat="46.49407" lon="8.26664">
        <ele>1543</ele>
        <time>2020-10-24T07:20:08.937Z</time>
      </trkpt>
      <trkpt lat="46.49408" lon="8.26665">
        <ele>1542</ele>
        <time>2020-10-24T07:20:09.937Z</time>
      </trkpt>
      <trkpt lat="46.49409" lon="8.26667">
        <ele>1542</ele>
        <time>2020-10-24T07:20:10.936Z</time>
      </trkpt>
      <trkpt lat="46.49409" lon="8.26669">
        <ele>1542</ele>
        <time>2020-10-24T07:20:11.936Z</time>
      </trkpt>
      <trkpt lat="46.4941" lon="8.26671">
        <ele>1542</ele>
        <time>2020-10-24T07:20:12.936Z</time>
      </trkpt>
      <trkpt lat="46.49411" lon="8.26673">
        <ele>1541</ele>
        <time>2020-10-24T07:20:13.937Z</time>
      </trkpt>
      <trkpt lat="46.49412" lon="8.26675">
        <ele>1541</ele>
        <time>2020-10-24T07:20:14.937Z</time>
      </trkpt>
      <trkpt lat="46.49413" lon="8.26676">
        <ele>1541</ele>
        <time>2020-10-24T07:20:15.937Z</time>
      </trkpt>
      <trkpt lat="46.49414" lon="8.26677">
        <ele>1541</ele>
        <time>2020-10-24T07:20:16.937Z</time>
      </trkpt>
      <trkpt lat="46.49415" lon="8.26679">
        <ele>1541</ele>
        <time>2020-10-24T07:20:17.937Z</time>
      </trkpt>
      <trkpt lat="46.49416" lon="8.26681">
        <ele>1541</ele>
        <time>2020-10-24T07:20:18.936Z</time>
      </trkpt>
      <trkpt lat="46.49417" lon="8.26683">
        <ele>1541</ele>
        <time>2020-10-24T07:20:19.936Z</time>
      </trkpt>
      <trkpt lat="46.49418" lon="8.26685">
        <ele>1541</ele>
        <time>2020-10-24T07:20:20.936Z</time>
      </trkpt>
      <trkpt lat="46.49419" lon="8.26688">
        <ele>1541</ele>
        <time>2020-10-24T07:20:21.936Z</time>
      </trkpt>
      <trkpt lat="46.49421" lon="8.2669">
        <ele>1542</ele>
        <time>2020-10-24T07:20:22.937Z</time>
      </trkpt>
      <trkpt lat="46.49422" lon="8.26692">
        <ele>1542</ele>
        <time>2020-10-24T07:20:23.937Z</time>
      </trkpt>
      <trkpt lat="46.49423" lon="8.26693">
        <ele>1542</ele>
        <time>2020-10-24T07:20:24.937Z</time>
      </trkpt>
      <trkpt lat="46.49424" lon="8.26695">
        <ele>1542</ele>
        <time>2020-10-24T07:20:25.936Z</time>
      </trkpt>
      <trkpt lat="46.49426" lon="8.26696">
        <ele>1542</ele>
        <time>2020-10-24T07:20:26.937Z</time>
      </trkpt>
      <trkpt lat="46.49427" lon="8.26698">
        <ele>1542</ele>
        <time>2020-10-24T07:20:27.937Z</time>
      </trkpt>
      <trkpt lat="46.49428" lon="8.26699">
        <ele>1542</ele>
        <time>2020-10-24T07:20:28.937Z</time>
      </trkpt>
      <trkpt lat="46.49429" lon="8.26701">
        <ele>1541</ele>
        <time>2020-10-24T07:20:29.936Z</time>
      </trkpt>
      <trkpt lat="46.49431" lon="8.26702">
        <ele>1541</ele>
        <time>2020-10-24T07:20:30.937Z</time>
      </trkpt>
      <trkpt lat="46.49432" lon="8.26703">
        <ele>1541</ele>
        <time>2020-10-24T07:20:31.937Z</time>
      </trkpt>
      <trkpt lat="46.49433" lon="8.26705">
        <ele>1541</ele>
        <time>2020-10-24T07:20:32.937Z</time>
      </trkpt>
      <trkpt lat="46.49435" lon="8.26706">
        <ele>1541</ele>
        <time>2020-10-24T07:20:33.936Z</time>
      </trkpt>
      <trkpt lat="46.49436" lon="8.26707">
        <ele>1540</ele>
        <time>2020-10-24T07:20:34.937Z</time>
      </trkpt>
      <trkpt lat="46.49438" lon="8.26708">
        <ele>1540</ele>
        <time>2020-10-24T07:20:35.936Z</time>
      </trkpt>
      <trkpt lat="46.49439" lon="8.2671">
        <ele>1540</ele>
        <time>2020-10-24T07:20:36.937Z</time>
      </trkpt>
      <trkpt lat="46.4944" lon="8.26712">
        <ele>1540</ele>
        <time>2020-10-24T07:20:37.937Z</time>
      </trkpt>
      <trkpt lat="46.4944" lon="8.26713">
        <ele>1540</ele>
        <time>2020-10-24T07:20:38.936Z</time>
      </trkpt>
      <trkpt lat="46.49441" lon="8.26715">
        <ele>1540</ele>
        <time>2020-10-24T07:20:39.937Z</time>
      </trkpt>
      <trkpt lat="46.49441" lon="8.26717">
        <ele>1540</ele>
        <time>2020-10-24T07:20:40.937Z</time>
      </trkpt>
      <trkpt lat="46.49441" lon="8.2672">
        <ele>1540</ele>
        <time>2020-10-24T07:20:41.936Z</time>
      </trkpt>
      <trkpt lat="46.49442" lon="8.26722">
        <ele>1540</ele>
        <time>2020-10-24T07:20:42.936Z</time>
      </trkpt>
      <trkpt lat="46.49442" lon="8.26723">
        <ele>1540</ele>
        <time>2020-10-24T07:20:43.937Z</time>
      </trkpt>
      <trkpt lat="46.49443" lon="8.26724">
        <ele>1540</ele>
        <time>2020-10-24T07:20:44.937Z</time>
      </trkpt>
      <trkpt lat="46.49444" lon="8.26725">
        <ele>1540</ele>
        <time>2020-10-24T07:20:45.936Z</time>
      </trkpt>
      <trkpt lat="46.49446" lon="8.26727">
        <ele>1541</ele>
        <time>2020-10-24T07:20:46.936Z</time>
      </trkpt>
      <trkpt lat="46.49446" lon="8.26727">
        <ele>1541</ele>
        <time>2020-10-24T07:20:47.936Z</time>
      </trkpt>
      <trkpt lat="46.49447" lon="8.26729">
        <ele>1541</ele>
        <time>2020-10-24T07:20:48.937Z</time>
      </trkpt>
      <trkpt lat="46.49447" lon="8.2673">
        <ele>1541</ele>
        <time>2020-10-24T07:20:49.937Z</time>
      </trkpt>
      <trkpt lat="46.49446" lon="8.26732">
        <ele>1541</ele>
        <time>2020-10-24T07:20:50.937Z</time>
      </trkpt>
      <trkpt lat="46.49446" lon="8.26734">
        <ele>1541</ele>
        <time>2020-10-24T07:20:51.936Z</time>
      </trkpt>
      <trkpt lat="46.49445" lon="8.26736">
        <ele>1542</ele>
        <time>2020-10-24T07:20:52.937Z</time>
      </trkpt>
      <trkpt lat="46.49445" lon="8.26738">
        <ele>1542</ele>
        <time>2020-10-24T07:20:53.937Z</time>
      </trkpt>
      <trkpt lat="46.49444" lon="8.2674">
        <ele>1542</ele>
        <time>2020-10-24T07:20:54.936Z</time>
      </trkpt>
      <trkpt lat="46.49444" lon="8.26742">
        <ele>1542</ele>
        <time>2020-10-24T07:20:55.936Z</time>
      </trkpt>
      <trkpt lat="46.49443" lon="8.26744">
        <ele>1542</ele>
        <time>2020-10-24T07:20:56.937Z</time>
      </trkpt>
      <trkpt lat="46.49443" lon="8.26747">
        <ele>1542</ele>
        <time>2020-10-24T07:20:57.937Z</time>
      </trkpt>
      <trkpt lat="46.49442" lon="8.26749">
        <ele>1542</ele>
        <time>2020-10-24T07:20:58.937Z</time>
      </trkpt>
      <trkpt lat="46.49442" lon="8.26751">
        <ele>1542</ele>
        <time>2020-10-24T07:20:59.937Z</time>
      </trkpt>
      <trkpt lat="46.49442" lon="8.26753">
        <ele>1542</ele>
        <time>2020-10-24T07:21:00.937Z</time>
      </trkpt>
      <trkpt lat="46.49443" lon="8.26755">
        <ele>1542</ele>
        <time>2020-10-24T07:21:01.936Z</time>
      </trkpt>
      <trkpt lat="46.49443" lon="8.26757">
        <ele>1542</ele>
        <time>2020-10-24T07:21:02.936Z</time>
      </trkpt>
      <trkpt lat="46.49444" lon="8.26759">
        <ele>1543</ele>
        <time>2020-10-24T07:21:03.936Z</time>
      </trkpt>
      <trkpt lat="46.49444" lon="8.26761">
        <ele>1543</ele>
        <time>2020-10-24T07:21:04.936Z</time>
      </trkpt>
      <trkpt lat="46.49444" lon="8.26764">
        <ele>1543</ele>
        <time>2020-10-24T07:21:05.937Z</time>
      </trkpt>
      <trkpt lat="46.49445" lon="8.26766">
        <ele>1543</ele>
        <time>2020-10-24T07:21:06.936Z</time>
      </trkpt>
      <trkpt lat="46.49446" lon="8.26769">
        <ele>1543</ele>
        <time>2020-10-24T07:21:07.937Z</time>
      </trkpt>
      <trkpt lat="46.49447" lon="8.2677">
        <ele>1543</ele>
        <time>2020-10-24T07:21:08.936Z</time>
      </trkpt>
      <trkpt lat="46.49448" lon="8.26772">
        <ele>1543</ele>
        <time>2020-10-24T07:21:09.937Z</time>
      </trkpt>
      <trkpt lat="46.49449" lon="8.26774">
        <ele>1543</ele>
        <time>2020-10-24T07:21:10.936Z</time>
      </trkpt>
      <trkpt lat="46.4945" lon="8.26775">
        <ele>1544</ele>
        <time>2020-10-24T07:21:11.937Z</time>
      </trkpt>
      <trkpt lat="46.49451" lon="8.26777">
        <ele>1544</ele>
        <time>2020-10-24T07:21:12.936Z</time>
      </trkpt>
      <trkpt lat="46.49452" lon="8.26778">
        <ele>1544</ele>
        <time>2020-10-24T07:21:13.936Z</time>
      </trkpt>
      <trkpt lat="46.49453" lon="8.2678">
        <ele>1545</ele>
        <time>2020-10-24T07:21:14.937Z</time>
      </trkpt>
      <trkpt lat="46.49454" lon="8.26781">
        <ele>1545</ele>
        <time>2020-10-24T07:21:15.937Z</time>
      </trkpt>
      <trkpt lat="46.49455" lon="8.26783">
        <ele>1545</ele>
        <time>2020-10-24T07:21:16.937Z</time>
      </trkpt>
      <trkpt lat="46.49456" lon="8.26785">
        <ele>1545</ele>
        <time>2020-10-24T07:21:17.937Z</time>
      </trkpt>
      <trkpt lat="46.49457" lon="8.26786">
        <ele>1546</ele>
        <time>2020-10-24T07:21:18.937Z</time>
      </trkpt>
      <trkpt lat="46.49457" lon="8.26789">
        <ele>1546</ele>
        <time>2020-10-24T07:21:19.936Z</time>
      </trkpt>
      <trkpt lat="46.49458" lon="8.2679">
        <ele>1546</ele>
        <time>2020-10-24T07:21:20.936Z</time>
      </trkpt>
      <trkpt lat="46.49459" lon="8.26793">
        <ele>1546</ele>
        <time>2020-10-24T07:21:21.936Z</time>
      </trkpt>
      <trkpt lat="46.4946" lon="8.26795">
        <ele>1547</ele>
        <time>2020-10-24T07:21:22.937Z</time>
      </trkpt>
      <trkpt lat="46.49461" lon="8.26797">
        <ele>1547</ele>
        <time>2020-10-24T07:21:23.937Z</time>
      </trkpt>
      <trkpt lat="46.49462" lon="8.26799">
        <ele>1547</ele>
        <time>2020-10-24T07:21:24.937Z</time>
      </trkpt>
      <trkpt lat="46.49463" lon="8.26801">
        <ele>1547</ele>
        <time>2020-10-24T07:21:25.936Z</time>
      </trkpt>
      <trkpt lat="46.49463" lon="8.26803">
        <ele>1547</ele>
        <time>2020-10-24T07:21:26.937Z</time>
      </trkpt>
      <trkpt lat="46.49465" lon="8.26805">
        <ele>1547</ele>
        <time>2020-10-24T07:21:27.937Z</time>
      </trkpt>
      <trkpt lat="46.49465" lon="8.26807">
        <ele>1547</ele>
        <time>2020-10-24T07:21:28.937Z</time>
      </trkpt>
      <trkpt lat="46.49466" lon="8.26809">
        <ele>1547</ele>
        <time>2020-10-24T07:21:29.936Z</time>
      </trkpt>
      <trkpt lat="46.49467" lon="8.26811">
        <ele>1547</ele>
        <time>2020-10-24T07:21:30.937Z</time>
      </trkpt>
      <trkpt lat="46.49468" lon="8.26813">
        <ele>1547</ele>
        <time>2020-10-24T07:21:31.937Z</time>
      </trkpt>
      <trkpt lat="46.49469" lon="8.26815">
        <ele>1547</ele>
        <time>2020-10-24T07:21:32.936Z</time>
      </trkpt>
      <trkpt lat="46.4947" lon="8.26817">
        <ele>1547</ele>
        <time>2020-10-24T07:21:33.937Z</time>
      </trkpt>
      <trkpt lat="46.49471" lon="8.26818">
        <ele>1547</ele>
        <time>2020-10-24T07:21:34.936Z</time>
      </trkpt>
      <trkpt lat="46.49472" lon="8.26819">
        <ele>1547</ele>
        <time>2020-10-24T07:21:35.936Z</time>
      </trkpt>
      <trkpt lat="46.49473" lon="8.26821">
        <ele>1547</ele>
        <time>2020-10-24T07:21:36.936Z</time>
      </trkpt>
      <trkpt lat="46.49474" lon="8.26822">
        <ele>1548</ele>
        <time>2020-10-24T07:21:37.937Z</time>
      </trkpt>
      <trkpt lat="46.49475" lon="8.26824">
        <ele>1549</ele>
        <time>2020-10-24T07:21:38.937Z</time>
      </trkpt>
      <trkpt lat="46.49475" lon="8.26826">
        <ele>1550</ele>
        <time>2020-10-24T07:21:39.937Z</time>
      </trkpt>
      <trkpt lat="46.49476" lon="8.26827">
        <ele>1550</ele>
        <time>2020-10-24T07:21:40.937Z</time>
      </trkpt>
      <trkpt lat="46.49477" lon="8.26831">
        <ele>1551</ele>
        <time>2020-10-24T07:21:41.937Z</time>
      </trkpt>
      <trkpt lat="46.49478" lon="8.26833">
        <ele>1552</ele>
        <time>2020-10-24T07:21:42.937Z</time>
      </trkpt>
      <trkpt lat="46.49479" lon="8.26836">
        <ele>1552</ele>
        <time>2020-10-24T07:21:43.937Z</time>
      </trkpt>
      <trkpt lat="46.4948" lon="8.26838">
        <ele>1553</ele>
        <time>2020-10-24T07:21:44.936Z</time>
      </trkpt>
      <trkpt lat="46.49481" lon="8.2684">
        <ele>1553</ele>
        <time>2020-10-24T07:21:45.937Z</time>
      </trkpt>
      <trkpt lat="46.49483" lon="8.26842">
        <ele>1554</ele>
        <time>2020-10-24T07:21:46.937Z</time>
      </trkpt>
      <trkpt lat="46.49484" lon="8.26844">
        <ele>1554</ele>
        <time>2020-10-24T07:21:47.937Z</time>
      </trkpt>
      <trkpt lat="46.49485" lon="8.26846">
        <ele>1554</ele>
        <time>2020-10-24T07:21:48.936Z</time>
      </trkpt>
      <trkpt lat="46.49487" lon="8.26849">
        <ele>1554</ele>
        <time>2020-10-24T07:21:49.937Z</time>
      </trkpt>
      <trkpt lat="46.49488" lon="8.26852">
        <ele>1554</ele>
        <time>2020-10-24T07:21:50.936Z</time>
      </trkpt>
      <trkpt lat="46.49489" lon="8.26854">
        <ele>1554</ele>
        <time>2020-10-24T07:21:51.936Z</time>
      </trkpt>
      <trkpt lat="46.4949" lon="8.26857">
        <ele>1554</ele>
        <time>2020-10-24T07:21:52.937Z</time>
      </trkpt>
      <trkpt lat="46.49491" lon="8.26859">
        <ele>1554</ele>
        <time>2020-10-24T07:21:53.937Z</time>
      </trkpt>
      <trkpt lat="46.49492" lon="8.26862">
        <ele>1553</ele>
        <time>2020-10-24T07:21:54.937Z</time>
      </trkpt>
      <trkpt lat="46.49493" lon="8.26865">
        <ele>1553</ele>
        <time>2020-10-24T07:21:55.937Z</time>
      </trkpt>
      <trkpt lat="46.49493" lon="8.26868">
        <ele>1553</ele>
        <time>2020-10-24T07:21:56.937Z</time>
      </trkpt>
      <trkpt lat="46.49494" lon="8.26871">
        <ele>1553</ele>
        <time>2020-10-24T07:21:57.936Z</time>
      </trkpt>
      <trkpt lat="46.49495" lon="8.26874">
        <ele>1552</ele>
        <time>2020-10-24T07:21:58.937Z</time>
      </trkpt>
      <trkpt lat="46.49496" lon="8.26877">
        <ele>1551</ele>
        <time>2020-10-24T07:21:59.937Z</time>
      </trkpt>
      <trkpt lat="46.49497" lon="8.2688">
        <ele>1551</ele>
        <time>2020-10-24T07:22:00.937Z</time>
      </trkpt>
      <trkpt lat="46.49498" lon="8.26883">
        <ele>1550</ele>
        <time>2020-10-24T07:22:01.937Z</time>
      </trkpt>
      <trkpt lat="46.49499" lon="8.26886">
        <ele>1550</ele>
        <time>2020-10-24T07:22:02.937Z</time>
      </trkpt>
      <trkpt lat="46.495" lon="8.2689">
        <ele>1549</ele>
        <time>2020-10-24T07:22:03.937Z</time>
      </trkpt>
      <trkpt lat="46.495" lon="8.26893">
        <ele>1548</ele>
        <time>2020-10-24T07:22:04.936Z</time>
      </trkpt>
      <trkpt lat="46.49501" lon="8.26896">
        <ele>1548</ele>
        <time>2020-10-24T07:22:05.936Z</time>
      </trkpt>
      <trkpt lat="46.49502" lon="8.26899">
        <ele>1548</ele>
        <time>2020-10-24T07:22:06.937Z</time>
      </trkpt>
      <trkpt lat="46.49503" lon="8.26901">
        <ele>1548</ele>
        <time>2020-10-24T07:22:07.937Z</time>
      </trkpt>
      <trkpt lat="46.49504" lon="8.26904">
        <ele>1548</ele>
        <time>2020-10-24T07:22:08.937Z</time>
      </trkpt>
      <trkpt lat="46.49505" lon="8.26907">
        <ele>1547</ele>
        <time>2020-10-24T07:22:09.936Z</time>
      </trkpt>
      <trkpt lat="46.49506" lon="8.2691">
        <ele>1547</ele>
        <time>2020-10-24T07:22:10.936Z</time>
      </trkpt>
      <trkpt lat="46.49507" lon="8.26912">
        <ele>1547</ele>
        <time>2020-10-24T07:22:11.937Z</time>
      </trkpt>
      <trkpt lat="46.49509" lon="8.26916">
        <ele>1547</ele>
        <time>2020-10-24T07:22:12.937Z</time>
      </trkpt>
      <trkpt lat="46.4951" lon="8.26919">
        <ele>1547</ele>
        <time>2020-10-24T07:22:13.937Z</time>
      </trkpt>
      <trkpt lat="46.49511" lon="8.26922">
        <ele>1548</ele>
        <time>2020-10-24T07:22:14.937Z</time>
      </trkpt>
      <trkpt lat="46.49512" lon="8.26925">
        <ele>1549</ele>
        <time>2020-10-24T07:22:15.937Z</time>
      </trkpt>
      <trkpt lat="46.49514" lon="8.26928">
        <ele>1549</ele>
        <time>2020-10-24T07:22:16.937Z</time>
      </trkpt>
      <trkpt lat="46.49516" lon="8.26931">
        <ele>1550</ele>
        <time>2020-10-24T07:22:17.937Z</time>
      </trkpt>
      <trkpt lat="46.49517" lon="8.26934">
        <ele>1550</ele>
        <time>2020-10-24T07:22:18.937Z</time>
      </trkpt>
      <trkpt lat="46.49518" lon="8.26938">
        <ele>1550</ele>
        <time>2020-10-24T07:22:19.937Z</time>
      </trkpt>
      <trkpt lat="46.49519" lon="8.26941">
        <ele>1550</ele>
        <time>2020-10-24T07:22:20.936Z</time>
      </trkpt>
      <trkpt lat="46.4952" lon="8.26944">
        <ele>1550</ele>
        <time>2020-10-24T07:22:21.937Z</time>
      </trkpt>
      <trkpt lat="46.49521" lon="8.26947">
        <ele>1550</ele>
        <time>2020-10-24T07:22:22.937Z</time>
      </trkpt>
      <trkpt lat="46.49523" lon="8.26949">
        <ele>1549</ele>
        <time>2020-10-24T07:22:23.937Z</time>
      </trkpt>
      <trkpt lat="46.49524" lon="8.26952">
        <ele>1549</ele>
        <time>2020-10-24T07:22:24.937Z</time>
      </trkpt>
      <trkpt lat="46.49525" lon="8.26954">
        <ele>1549</ele>
        <time>2020-10-24T07:22:25.937Z</time>
      </trkpt>
      <trkpt lat="46.49527" lon="8.26956">
        <ele>1549</ele>
        <time>2020-10-24T07:22:26.936Z</time>
      </trkpt>
      <trkpt lat="46.49528" lon="8.26959">
        <ele>1548</ele>
        <time>2020-10-24T07:22:27.937Z</time>
      </trkpt>
      <trkpt lat="46.49529" lon="8.26961">
        <ele>1548</ele>
        <time>2020-10-24T07:22:28.936Z</time>
      </trkpt>
      <trkpt lat="46.49531" lon="8.26964">
        <ele>1548</ele>
        <time>2020-10-24T07:22:29.936Z</time>
      </trkpt>
      <trkpt lat="46.49532" lon="8.26966">
        <ele>1548</ele>
        <time>2020-10-24T07:22:30.937Z</time>
      </trkpt>
      <trkpt lat="46.49533" lon="8.26968">
        <ele>1548</ele>
        <time>2020-10-24T07:22:31.937Z</time>
      </trkpt>
      <trkpt lat="46.49534" lon="8.2697">
        <ele>1548</ele>
        <time>2020-10-24T07:22:32.937Z</time>
      </trkpt>
      <trkpt lat="46.49535" lon="8.26972">
        <ele>1547</ele>
        <time>2020-10-24T07:22:33.936Z</time>
      </trkpt>
      <trkpt lat="46.49537" lon="8.26974">
        <ele>1547</ele>
        <time>2020-10-24T07:22:34.937Z</time>
      </trkpt>
      <trkpt lat="46.49538" lon="8.26976">
        <ele>1547</ele>
        <time>2020-10-24T07:22:35.937Z</time>
      </trkpt>
      <trkpt lat="46.49539" lon="8.26978">
        <ele>1547</ele>
        <time>2020-10-24T07:22:36.937Z</time>
      </trkpt>
      <trkpt lat="46.49541" lon="8.26979">
        <ele>1547</ele>
        <time>2020-10-24T07:22:37.936Z</time>
      </trkpt>
      <trkpt lat="46.49542" lon="8.2698">
        <ele>1547</ele>
        <time>2020-10-24T07:22:38.937Z</time>
      </trkpt>
      <trkpt lat="46.49543" lon="8.26982">
        <ele>1547</ele>
        <time>2020-10-24T07:22:39.937Z</time>
      </trkpt>
      <trkpt lat="46.49545" lon="8.26983">
        <ele>1547</ele>
        <time>2020-10-24T07:22:40.936Z</time>
      </trkpt>
      <trkpt lat="46.49546" lon="8.26985">
        <ele>1548</ele>
        <time>2020-10-24T07:22:41.936Z</time>
      </trkpt>
      <trkpt lat="46.49548" lon="8.26987">
        <ele>1548</ele>
        <time>2020-10-24T07:22:42.936Z</time>
      </trkpt>
      <trkpt lat="46.49549" lon="8.26989">
        <ele>1548</ele>
        <time>2020-10-24T07:22:43.936Z</time>
      </trkpt>
      <trkpt lat="46.49551" lon="8.2699">
        <ele>1549</ele>
        <time>2020-10-24T07:22:44.936Z</time>
      </trkpt>
      <trkpt lat="46.49552" lon="8.26992">
        <ele>1549</ele>
        <time>2020-10-24T07:22:45.937Z</time>
      </trkpt>
      <trkpt lat="46.49553" lon="8.26994">
        <ele>1549</ele>
        <time>2020-10-24T07:22:46.936Z</time>
      </trkpt>
      <trkpt lat="46.49554" lon="8.26997">
        <ele>1549</ele>
        <time>2020-10-24T07:22:47.936Z</time>
      </trkpt>
      <trkpt lat="46.49556" lon="8.26999">
        <ele>1549</ele>
        <time>2020-10-24T07:22:48.936Z</time>
      </trkpt>
      <trkpt lat="46.49557" lon="8.27001">
        <ele>1549</ele>
        <time>2020-10-24T07:22:49.936Z</time>
      </trkpt>
      <trkpt lat="46.49558" lon="8.27003">
        <ele>1549</ele>
        <time>2020-10-24T07:22:50.937Z</time>
      </trkpt>
      <trkpt lat="46.4956" lon="8.27005">
        <ele>1549</ele>
        <time>2020-10-24T07:22:51.937Z</time>
      </trkpt>
      <trkpt lat="46.49561" lon="8.27007">
        <ele>1549</ele>
        <time>2020-10-24T07:22:52.937Z</time>
      </trkpt>
      <trkpt lat="46.49563" lon="8.27009">
        <ele>1549</ele>
        <time>2020-10-24T07:22:53.936Z</time>
      </trkpt>
      <trkpt lat="46.49564" lon="8.2701">
        <ele>1549</ele>
        <time>2020-10-24T07:22:54.937Z</time>
      </trkpt>
      <trkpt lat="46.49566" lon="8.27011">
        <ele>1549</ele>
        <time>2020-10-24T07:22:55.937Z</time>
      </trkpt>
      <trkpt lat="46.49567" lon="8.27013">
        <ele>1549</ele>
        <time>2020-10-24T07:22:56.937Z</time>
      </trkpt>
      <trkpt lat="46.49569" lon="8.27014">
        <ele>1549</ele>
        <time>2020-10-24T07:22:57.937Z</time>
      </trkpt>
      <trkpt lat="46.4957" lon="8.27017">
        <ele>1549</ele>
        <time>2020-10-24T07:22:58.937Z</time>
      </trkpt>
      <trkpt lat="46.49571" lon="8.27019">
        <ele>1549</ele>
        <time>2020-10-24T07:22:59.936Z</time>
      </trkpt>
      <trkpt lat="46.49572" lon="8.27022">
        <ele>1550</ele>
        <time>2020-10-24T07:23:00.936Z</time>
      </trkpt>
      <trkpt lat="46.49573" lon="8.27024">
        <ele>1550</ele>
        <time>2020-10-24T07:23:01.937Z</time>
      </trkpt>
      <trkpt lat="46.49574" lon="8.27026">
        <ele>1550</ele>
        <time>2020-10-24T07:23:02.937Z</time>
      </trkpt>
      <trkpt lat="46.49575" lon="8.27028">
        <ele>1550</ele>
        <time>2020-10-24T07:23:03.937Z</time>
      </trkpt>
      <trkpt lat="46.49575" lon="8.2703">
        <ele>1550</ele>
        <time>2020-10-24T07:23:04.937Z</time>
      </trkpt>
      <trkpt lat="46.49576" lon="8.27033">
        <ele>1550</ele>
        <time>2020-10-24T07:23:05.936Z</time>
      </trkpt>
      <trkpt lat="46.49577" lon="8.27035">
        <ele>1550</ele>
        <time>2020-10-24T07:23:06.936Z</time>
      </trkpt>
      <trkpt lat="46.49578" lon="8.27038">
        <ele>1550</ele>
        <time>2020-10-24T07:23:07.936Z</time>
      </trkpt>
      <trkpt lat="46.4958" lon="8.2704">
        <ele>1550</ele>
        <time>2020-10-24T07:23:08.937Z</time>
      </trkpt>
      <trkpt lat="46.49581" lon="8.27042">
        <ele>1550</ele>
        <time>2020-10-24T07:23:09.936Z</time>
      </trkpt>
      <trkpt lat="46.49582" lon="8.27044">
        <ele>1551</ele>
        <time>2020-10-24T07:23:10.936Z</time>
      </trkpt>
      <trkpt lat="46.49584" lon="8.27046">
        <ele>1551</ele>
        <time>2020-10-24T07:23:11.937Z</time>
      </trkpt>
      <trkpt lat="46.49585" lon="8.27048">
        <ele>1552</ele>
        <time>2020-10-24T07:23:12.937Z</time>
      </trkpt>
      <trkpt lat="46.49586" lon="8.2705">
        <ele>1552</ele>
        <time>2020-10-24T07:23:13.936Z</time>
      </trkpt>
      <trkpt lat="46.49588" lon="8.27052">
        <ele>1552</ele>
        <time>2020-10-24T07:23:14.936Z</time>
      </trkpt>
      <trkpt lat="46.49589" lon="8.27053">
        <ele>1552</ele>
        <time>2020-10-24T07:23:15.936Z</time>
      </trkpt>
      <trkpt lat="46.4959" lon="8.27055">
        <ele>1552</ele>
        <time>2020-10-24T07:23:16.936Z</time>
      </trkpt>
      <trkpt lat="46.49592" lon="8.27056">
        <ele>1552</ele>
        <time>2020-10-24T07:23:17.937Z</time>
      </trkpt>
      <trkpt lat="46.49593" lon="8.27057">
        <ele>1552</ele>
        <time>2020-10-24T07:23:18.937Z</time>
      </trkpt>
      <trkpt lat="46.49594" lon="8.27058">
        <ele>1553</ele>
        <time>2020-10-24T07:23:19.937Z</time>
      </trkpt>
      <trkpt lat="46.49596" lon="8.27059">
        <ele>1553</ele>
        <time>2020-10-24T07:23:20.937Z</time>
      </trkpt>
      <trkpt lat="46.49597" lon="8.2706">
        <ele>1553</ele>
        <time>2020-10-24T07:23:21.937Z</time>
      </trkpt>
      <trkpt lat="46.49598" lon="8.27062">
        <ele>1553</ele>
        <time>2020-10-24T07:23:22.937Z</time>
      </trkpt>
      <trkpt lat="46.49599" lon="8.27064">
        <ele>1553</ele>
        <time>2020-10-24T07:23:23.936Z</time>
      </trkpt>
      <trkpt lat="46.49599" lon="8.27068">
        <ele>1554</ele>
        <time>2020-10-24T07:23:24.936Z</time>
      </trkpt>
      <trkpt lat="46.49599" lon="8.27071">
        <ele>1554</ele>
        <time>2020-10-24T07:23:25.936Z</time>
      </trkpt>
      <trkpt lat="46.496" lon="8.27074">
        <ele>1555</ele>
        <time>2020-10-24T07:23:26.936Z</time>
      </trkpt>
      <trkpt lat="46.49602" lon="8.27076">
        <ele>1555</ele>
        <time>2020-10-24T07:23:27.937Z</time>
      </trkpt>
      <trkpt lat="46.49604" lon="8.27078">
        <ele>1555</ele>
        <time>2020-10-24T07:23:28.936Z</time>
      </trkpt>
      <trkpt lat="46.49605" lon="8.2708">
        <ele>1555</ele>
        <time>2020-10-24T07:23:29.936Z</time>
      </trkpt>
      <trkpt lat="46.49606" lon="8.27082">
        <ele>1555</ele>
        <time>2020-10-24T07:23:30.937Z</time>
      </trkpt>
      <trkpt lat="46.49607" lon="8.27085">
        <ele>1555</ele>
        <time>2020-10-24T07:23:31.937Z</time>
      </trkpt>
      <trkpt lat="46.49608" lon="8.27087">
        <ele>1554</ele>
        <time>2020-10-24T07:23:32.937Z</time>
      </trkpt>
      <trkpt lat="46.49609" lon="8.27091">
        <ele>1554</ele>
        <time>2020-10-24T07:23:33.937Z</time>
      </trkpt>
      <trkpt lat="46.4961" lon="8.27094">
        <ele>1554</ele>
        <time>2020-10-24T07:23:34.936Z</time>
      </trkpt>
      <trkpt lat="46.49611" lon="8.27097">
        <ele>1554</ele>
        <time>2020-10-24T07:23:35.937Z</time>
      </trkpt>
      <trkpt lat="46.49613" lon="8.27099">
        <ele>1554</ele>
        <time>2020-10-24T07:23:36.937Z</time>
      </trkpt>
      <trkpt lat="46.49614" lon="8.27102">
        <ele>1553</ele>
        <time>2020-10-24T07:23:37.937Z</time>
      </trkpt>
      <trkpt lat="46.49615" lon="8.27105">
        <ele>1553</ele>
        <time>2020-10-24T07:23:38.937Z</time>
      </trkpt>
      <trkpt lat="46.49617" lon="8.27108">
        <ele>1553</ele>
        <time>2020-10-24T07:23:39.937Z</time>
      </trkpt>
      <trkpt lat="46.49619" lon="8.27111">
        <ele>1552</ele>
        <time>2020-10-24T07:23:40.937Z</time>
      </trkpt>
      <trkpt lat="46.4962" lon="8.27114">
        <ele>1552</ele>
        <time>2020-10-24T07:23:41.937Z</time>
      </trkpt>
      <trkpt lat="46.49622" lon="8.27116">
        <ele>1551</ele>
        <time>2020-10-24T07:23:42.937Z</time>
      </trkpt>
      <trkpt lat="46.49623" lon="8.27118">
        <ele>1551</ele>
        <time>2020-10-24T07:23:43.936Z</time>
      </trkpt>
      <trkpt lat="46.49624" lon="8.2712">
        <ele>1551</ele>
        <time>2020-10-24T07:23:44.937Z</time>
      </trkpt>
      <trkpt lat="46.49625" lon="8.27122">
        <ele>1550</ele>
        <time>2020-10-24T07:23:45.936Z</time>
      </trkpt>
      <trkpt lat="46.49626" lon="8.27124">
        <ele>1550</ele>
        <time>2020-10-24T07:23:46.937Z</time>
      </trkpt>
      <trkpt lat="46.49627" lon="8.27126">
        <ele>1550</ele>
        <time>2020-10-24T07:23:47.937Z</time>
      </trkpt>
      <trkpt lat="46.49628" lon="8.27129">
        <ele>1550</ele>
        <time>2020-10-24T07:23:48.936Z</time>
      </trkpt>
      <trkpt lat="46.4963" lon="8.27131">
        <ele>1550</ele>
        <time>2020-10-24T07:23:49.937Z</time>
      </trkpt>
      <trkpt lat="46.49631" lon="8.27133">
        <ele>1550</ele>
        <time>2020-10-24T07:23:50.937Z</time>
      </trkpt>
      <trkpt lat="46.49632" lon="8.27136">
        <ele>1549</ele>
        <time>2020-10-24T07:23:51.937Z</time>
      </trkpt>
      <trkpt lat="46.49633" lon="8.27138">
        <ele>1549</ele>
        <time>2020-10-24T07:23:52.936Z</time>
      </trkpt>
      <trkpt lat="46.49635" lon="8.2714">
        <ele>1549</ele>
        <time>2020-10-24T07:23:53.936Z</time>
      </trkpt>
      <trkpt lat="46.49636" lon="8.27143">
        <ele>1549</ele>
        <time>2020-10-24T07:23:54.937Z</time>
      </trkpt>
      <trkpt lat="46.49638" lon="8.27146">
        <ele>1549</ele>
        <time>2020-10-24T07:23:55.937Z</time>
      </trkpt>
      <trkpt lat="46.49639" lon="8.27148">
        <ele>1549</ele>
        <time>2020-10-24T07:23:56.937Z</time>
      </trkpt>
      <trkpt lat="46.4964" lon="8.27151">
        <ele>1549</ele>
        <time>2020-10-24T07:23:57.937Z</time>
      </trkpt>
      <trkpt lat="46.49642" lon="8.27154">
        <ele>1549</ele>
        <time>2020-10-24T07:23:58.937Z</time>
      </trkpt>
      <trkpt lat="46.49643" lon="8.27156">
        <ele>1549</ele>
        <time>2020-10-24T07:23:59.937Z</time>
      </trkpt>
      <trkpt lat="46.49644" lon="8.27159">
        <ele>1549</ele>
        <time>2020-10-24T07:24:00.937Z</time>
      </trkpt>
      <trkpt lat="46.49646" lon="8.27162">
        <ele>1549</ele>
        <time>2020-10-24T07:24:01.937Z</time>
      </trkpt>
      <trkpt lat="46.49648" lon="8.27164">
        <ele>1549</ele>
        <time>2020-10-24T07:24:02.936Z</time>
      </trkpt>
      <trkpt lat="46.4965" lon="8.27165">
        <ele>1549</ele>
        <time>2020-10-24T07:24:03.936Z</time>
      </trkpt>
      <trkpt lat="46.49652" lon="8.27167">
        <ele>1549</ele>
        <time>2020-10-24T07:24:04.937Z</time>
      </trkpt>
      <trkpt lat="46.49653" lon="8.27169">
        <ele>1549</ele>
        <time>2020-10-24T07:24:05.937Z</time>
      </trkpt>
      <trkpt lat="46.49655" lon="8.27171">
        <ele>1549</ele>
        <time>2020-10-24T07:24:06.937Z</time>
      </trkpt>
      <trkpt lat="46.49656" lon="8.27173">
        <ele>1548</ele>
        <time>2020-10-24T07:24:07.936Z</time>
      </trkpt>
      <trkpt lat="46.49657" lon="8.27174">
        <ele>1548</ele>
        <time>2020-10-24T07:24:08.937Z</time>
      </trkpt>
      <trkpt lat="46.49659" lon="8.27175">
        <ele>1548</ele>
        <time>2020-10-24T07:24:09.937Z</time>
      </trkpt>
      <trkpt lat="46.4966" lon="8.27178">
        <ele>1548</ele>
        <time>2020-10-24T07:24:10.936Z</time>
      </trkpt>
      <trkpt lat="46.49661" lon="8.27181">
        <ele>1549</ele>
        <time>2020-10-24T07:24:11.936Z</time>
      </trkpt>
      <trkpt lat="46.49662" lon="8.27184">
        <ele>1549</ele>
        <time>2020-10-24T07:24:12.936Z</time>
      </trkpt>
      <trkpt lat="46.49664" lon="8.27186">
        <ele>1549</ele>
        <time>2020-10-24T07:24:13.936Z</time>
      </trkpt>
      <trkpt lat="46.49665" lon="8.27189">
        <ele>1549</ele>
        <time>2020-10-24T07:24:14.936Z</time>
      </trkpt>
      <trkpt lat="46.49666" lon="8.27191">
        <ele>1549</ele>
        <time>2020-10-24T07:24:15.937Z</time>
      </trkpt>
      <trkpt lat="46.49667" lon="8.27193">
        <ele>1548</ele>
        <time>2020-10-24T07:24:16.937Z</time>
      </trkpt>
      <trkpt lat="46.49669" lon="8.27196">
        <ele>1548</ele>
        <time>2020-10-24T07:24:17.937Z</time>
      </trkpt>
      <trkpt lat="46.4967" lon="8.27198">
        <ele>1548</ele>
        <time>2020-10-24T07:24:18.936Z</time>
      </trkpt>
      <trkpt lat="46.49672" lon="8.272">
        <ele>1548</ele>
        <time>2020-10-24T07:24:19.937Z</time>
      </trkpt>
      <trkpt lat="46.49674" lon="8.27201">
        <ele>1548</ele>
        <time>2020-10-24T07:24:20.937Z</time>
      </trkpt>
      <trkpt lat="46.49675" lon="8.27203">
        <ele>1548</ele>
        <time>2020-10-24T07:24:21.936Z</time>
      </trkpt>
      <trkpt lat="46.49677" lon="8.27205">
        <ele>1548</ele>
        <time>2020-10-24T07:24:22.937Z</time>
      </trkpt>
      <trkpt lat="46.49678" lon="8.27207">
        <ele>1548</ele>
        <time>2020-10-24T07:24:23.937Z</time>
      </trkpt>
      <trkpt lat="46.49679" lon="8.2721">
        <ele>1547</ele>
        <time>2020-10-24T07:24:24.937Z</time>
      </trkpt>
      <trkpt lat="46.49679" lon="8.27213">
        <ele>1547</ele>
        <time>2020-10-24T07:24:25.937Z</time>
      </trkpt>
      <trkpt lat="46.49681" lon="8.27215">
        <ele>1547</ele>
        <time>2020-10-24T07:24:26.937Z</time>
      </trkpt>
      <trkpt lat="46.49682" lon="8.27218">
        <ele>1547</ele>
        <time>2020-10-24T07:24:27.937Z</time>
      </trkpt>
      <trkpt lat="46.49683" lon="8.2722">
        <ele>1547</ele>
        <time>2020-10-24T07:24:28.937Z</time>
      </trkpt>
      <trkpt lat="46.49684" lon="8.27222">
        <ele>1547</ele>
        <time>2020-10-24T07:24:29.936Z</time>
      </trkpt>
      <trkpt lat="46.49686" lon="8.27225">
        <ele>1547</ele>
        <time>2020-10-24T07:24:30.937Z</time>
      </trkpt>
      <trkpt lat="46.49687" lon="8.27226">
        <ele>1547</ele>
        <time>2020-10-24T07:24:31.937Z</time>
      </trkpt>
      <trkpt lat="46.49688" lon="8.27228">
        <ele>1547</ele>
        <time>2020-10-24T07:24:32.937Z</time>
      </trkpt>
      <trkpt lat="46.49689" lon="8.2723">
        <ele>1548</ele>
        <time>2020-10-24T07:24:33.936Z</time>
      </trkpt>
      <trkpt lat="46.49691" lon="8.27232">
        <ele>1549</ele>
        <time>2020-10-24T07:24:34.937Z</time>
      </trkpt>
      <trkpt lat="46.49692" lon="8.27234">
        <ele>1549</ele>
        <time>2020-10-24T07:24:35.937Z</time>
      </trkpt>
      <trkpt lat="46.49693" lon="8.27236">
        <ele>1549</ele>
        <time>2020-10-24T07:24:36.936Z</time>
      </trkpt>
      <trkpt lat="46.49694" lon="8.27238">
        <ele>1549</ele>
        <time>2020-10-24T07:24:37.936Z</time>
      </trkpt>
      <trkpt lat="46.49695" lon="8.27241">
        <ele>1549</ele>
        <time>2020-10-24T07:24:38.936Z</time>
      </trkpt>
      <trkpt lat="46.49696" lon="8.27243">
        <ele>1550</ele>
        <time>2020-10-24T07:24:39.936Z</time>
      </trkpt>
      <trkpt lat="46.49698" lon="8.27245">
        <ele>1550</ele>
        <time>2020-10-24T07:24:40.936Z</time>
      </trkpt>
      <trkpt lat="46.49699" lon="8.27248">
        <ele>1550</ele>
        <time>2020-10-24T07:24:41.937Z</time>
      </trkpt>
      <trkpt lat="46.497" lon="8.2725">
        <ele>1550</ele>
        <time>2020-10-24T07:24:42.937Z</time>
      </trkpt>
      <trkpt lat="46.49702" lon="8.27253">
        <ele>1550</ele>
        <time>2020-10-24T07:24:43.937Z</time>
      </trkpt>
      <trkpt lat="46.49704" lon="8.27255">
        <ele>1549</ele>
        <time>2020-10-24T07:24:44.936Z</time>
      </trkpt>
      <trkpt lat="46.49705" lon="8.27257">
        <ele>1549</ele>
        <time>2020-10-24T07:24:45.936Z</time>
      </trkpt>
      <trkpt lat="46.49707" lon="8.27259">
        <ele>1549</ele>
        <time>2020-10-24T07:24:46.936Z</time>
      </trkpt>
      <trkpt lat="46.49708" lon="8.2726">
        <ele>1549</ele>
        <time>2020-10-24T07:24:47.936Z</time>
      </trkpt>
      <trkpt lat="46.4971" lon="8.27262">
        <ele>1549</ele>
        <time>2020-10-24T07:24:48.936Z</time>
      </trkpt>
      <trkpt lat="46.49712" lon="8.27263">
        <ele>1549</ele>
        <time>2020-10-24T07:24:49.936Z</time>
      </trkpt>
      <trkpt lat="46.49714" lon="8.27265">
        <ele>1549</ele>
        <time>2020-10-24T07:24:50.936Z</time>
      </trkpt>
      <trkpt lat="46.49715" lon="8.27267">
        <ele>1549</ele>
        <time>2020-10-24T07:24:51.936Z</time>
      </trkpt>
      <trkpt lat="46.49717" lon="8.27269">
        <ele>1549</ele>
        <time>2020-10-24T07:24:52.936Z</time>
      </trkpt>
      <trkpt lat="46.49718" lon="8.27272">
        <ele>1549</ele>
        <time>2020-10-24T07:24:53.937Z</time>
      </trkpt>
      <trkpt lat="46.49719" lon="8.27274">
        <ele>1549</ele>
        <time>2020-10-24T07:24:54.936Z</time>
      </trkpt>
      <trkpt lat="46.49721" lon="8.27277">
        <ele>1548</ele>
        <time>2020-10-24T07:24:55.936Z</time>
      </trkpt>
      <trkpt lat="46.49722" lon="8.27279">
        <ele>1548</ele>
        <time>2020-10-24T07:24:56.936Z</time>
      </trkpt>
      <trkpt lat="46.49723" lon="8.27281">
        <ele>1547</ele>
        <time>2020-10-24T07:24:57.936Z</time>
      </trkpt>
      <trkpt lat="46.49724" lon="8.27282">
        <ele>1547</ele>
        <time>2020-10-24T07:24:58.936Z</time>
      </trkpt>
      <trkpt lat="46.49725" lon="8.27284">
        <ele>1547</ele>
        <time>2020-10-24T07:24:59.937Z</time>
      </trkpt>
      <trkpt lat="46.49727" lon="8.27286">
        <ele>1546</ele>
        <time>2020-10-24T07:25:00.936Z</time>
      </trkpt>
      <trkpt lat="46.49728" lon="8.27288">
        <ele>1546</ele>
        <time>2020-10-24T07:25:01.936Z</time>
      </trkpt>
      <trkpt lat="46.4973" lon="8.2729">
        <ele>1546</ele>
        <time>2020-10-24T07:25:02.937Z</time>
      </trkpt>
      <trkpt lat="46.49731" lon="8.27292">
        <ele>1546</ele>
        <time>2020-10-24T07:25:03.937Z</time>
      </trkpt>
      <trkpt lat="46.49733" lon="8.27294">
        <ele>1546</ele>
        <time>2020-10-24T07:25:04.936Z</time>
      </trkpt>
      <trkpt lat="46.49734" lon="8.27296">
        <ele>1546</ele>
        <time>2020-10-24T07:25:05.937Z</time>
      </trkpt>
      <trkpt lat="46.49736" lon="8.27297">
        <ele>1547</ele>
        <time>2020-10-24T07:25:06.936Z</time>
      </trkpt>
      <trkpt lat="46.49737" lon="8.27299">
        <ele>1547</ele>
        <time>2020-10-24T07:25:07.937Z</time>
      </trkpt>
      <trkpt lat="46.49739" lon="8.27301">
        <ele>1547</ele>
        <time>2020-10-24T07:25:08.936Z</time>
      </trkpt>
      <trkpt lat="46.49741" lon="8.27304">
        <ele>1547</ele>
        <time>2020-10-24T07:25:09.937Z</time>
      </trkpt>
      <trkpt lat="46.49743" lon="8.27306">
        <ele>1548</ele>
        <time>2020-10-24T07:25:10.937Z</time>
      </trkpt>
      <trkpt lat="46.49744" lon="8.27309">
        <ele>1548</ele>
        <time>2020-10-24T07:25:11.937Z</time>
      </trkpt>
      <trkpt lat="46.49745" lon="8.27311">
        <ele>1548</ele>
        <time>2020-10-24T07:25:12.937Z</time>
      </trkpt>
      <trkpt lat="46.49747" lon="8.27313">
        <ele>1547</ele>
        <time>2020-10-24T07:25:13.937Z</time>
      </trkpt>
      <trkpt lat="46.49748" lon="8.27315">
        <ele>1547</ele>
        <time>2020-10-24T07:25:14.937Z</time>
      </trkpt>
      <trkpt lat="46.4975" lon="8.27317">
        <ele>1547</ele>
        <time>2020-10-24T07:25:15.937Z</time>
      </trkpt>
      <trkpt lat="46.49752" lon="8.27319">
        <ele>1548</ele>
        <time>2020-10-24T07:25:16.937Z</time>
      </trkpt>
      <trkpt lat="46.49753" lon="8.27322">
        <ele>1548</ele>
        <time>2020-10-24T07:25:17.937Z</time>
      </trkpt>
      <trkpt lat="46.49756" lon="8.27324">
        <ele>1548</ele>
        <time>2020-10-24T07:25:18.936Z</time>
      </trkpt>
      <trkpt lat="46.49758" lon="8.27326">
        <ele>1548</ele>
        <time>2020-10-24T07:25:19.936Z</time>
      </trkpt>
      <trkpt lat="46.4976" lon="8.27328">
        <ele>1548</ele>
        <time>2020-10-24T07:25:20.937Z</time>
      </trkpt>
      <trkpt lat="46.49761" lon="8.27331">
        <ele>1548</ele>
        <time>2020-10-24T07:25:21.937Z</time>
      </trkpt>
      <trkpt lat="46.49762" lon="8.27333">
        <ele>1548</ele>
        <time>2020-10-24T07:25:22.937Z</time>
      </trkpt>
      <trkpt lat="46.49763" lon="8.27337">
        <ele>1548</ele>
        <time>2020-10-24T07:25:23.937Z</time>
      </trkpt>
      <trkpt lat="46.49763" lon="8.27339">
        <ele>1548</ele>
        <time>2020-10-24T07:25:24.937Z</time>
      </trkpt>
      <trkpt lat="46.49764" lon="8.27342">
        <ele>1548</ele>
        <time>2020-10-24T07:25:25.937Z</time>
      </trkpt>
      <trkpt lat="46.49766" lon="8.27344">
        <ele>1549</ele>
        <time>2020-10-24T07:25:26.937Z</time>
      </trkpt>
      <trkpt lat="46.49767" lon="8.27346">
        <ele>1549</ele>
        <time>2020-10-24T07:25:27.936Z</time>
      </trkpt>
      <trkpt lat="46.49769" lon="8.27349">
        <ele>1549</ele>
        <time>2020-10-24T07:25:28.936Z</time>
      </trkpt>
      <trkpt lat="46.4977" lon="8.27351">
        <ele>1549</ele>
        <time>2020-10-24T07:25:29.936Z</time>
      </trkpt>
      <trkpt lat="46.49771" lon="8.27354">
        <ele>1549</ele>
        <time>2020-10-24T07:25:30.937Z</time>
      </trkpt>
      <trkpt lat="46.49773" lon="8.27356">
        <ele>1549</ele>
        <time>2020-10-24T07:25:31.936Z</time>
      </trkpt>
      <trkpt lat="46.49774" lon="8.27357">
        <ele>1549</ele>
        <time>2020-10-24T07:25:32.937Z</time>
      </trkpt>
      <trkpt lat="46.49776" lon="8.2736">
        <ele>1549</ele>
        <time>2020-10-24T07:25:33.937Z</time>
      </trkpt>
      <trkpt lat="46.49778" lon="8.27363">
        <ele>1549</ele>
        <time>2020-10-24T07:25:34.937Z</time>
      </trkpt>
      <trkpt lat="46.49779" lon="8.27367">
        <ele>1549</ele>
        <time>2020-10-24T07:25:35.936Z</time>
      </trkpt>
      <trkpt lat="46.49781" lon="8.27371">
        <ele>1549</ele>
        <time>2020-10-24T07:25:36.937Z</time>
      </trkpt>
      <trkpt lat="46.49782" lon="8.27374">
        <ele>1550</ele>
        <time>2020-10-24T07:25:37.936Z</time>
      </trkpt>
      <trkpt lat="46.49783" lon="8.27376">
        <ele>1550</ele>
        <time>2020-10-24T07:25:38.937Z</time>
      </trkpt>
      <trkpt lat="46.49784" lon="8.27378">
        <ele>1550</ele>
        <time>2020-10-24T07:25:39.936Z</time>
      </trkpt>
      <trkpt lat="46.49786" lon="8.27382">
        <ele>1550</ele>
        <time>2020-10-24T07:25:40.937Z</time>
      </trkpt>
      <trkpt lat="46.49787" lon="8.27385">
        <ele>1550</ele>
        <time>2020-10-24T07:25:41.937Z</time>
      </trkpt>
      <trkpt lat="46.49788" lon="8.27387">
        <ele>1550</ele>
        <time>2020-10-24T07:25:42.937Z</time>
      </trkpt>
      <trkpt lat="46.49789" lon="8.2739">
        <ele>1550</ele>
        <time>2020-10-24T07:25:43.937Z</time>
      </trkpt>
      <trkpt lat="46.4979" lon="8.27392">
        <ele>1551</ele>
        <time>2020-10-24T07:25:44.936Z</time>
      </trkpt>
      <trkpt lat="46.49792" lon="8.27394">
        <ele>1551</ele>
        <time>2020-10-24T07:25:45.937Z</time>
      </trkpt>
      <trkpt lat="46.49794" lon="8.27396">
        <ele>1551</ele>
        <time>2020-10-24T07:25:46.937Z</time>
      </trkpt>
      <trkpt lat="46.49797" lon="8.27397">
        <ele>1551</ele>
        <time>2020-10-24T07:25:47.937Z</time>
      </trkpt>
      <trkpt lat="46.49799" lon="8.27399">
        <ele>1551</ele>
        <time>2020-10-24T07:25:48.937Z</time>
      </trkpt>
      <trkpt lat="46.49802" lon="8.274">
        <ele>1551</ele>
        <time>2020-10-24T07:25:49.937Z</time>
      </trkpt>
      <trkpt lat="46.49803" lon="8.27403">
        <ele>1550</ele>
        <time>2020-10-24T07:25:50.936Z</time>
      </trkpt>
      <trkpt lat="46.49805" lon="8.27405">
        <ele>1550</ele>
        <time>2020-10-24T07:25:51.937Z</time>
      </trkpt>
      <trkpt lat="46.49806" lon="8.27409">
        <ele>1550</ele>
        <time>2020-10-24T07:25:52.936Z</time>
      </trkpt>
      <trkpt lat="46.49807" lon="8.27412">
        <ele>1549</ele>
        <time>2020-10-24T07:25:53.937Z</time>
      </trkpt>
      <trkpt lat="46.49809" lon="8.27415">
        <ele>1549</ele>
        <time>2020-10-24T07:25:54.936Z</time>
      </trkpt>
      <trkpt lat="46.4981" lon="8.27418">
        <ele>1549</ele>
        <time>2020-10-24T07:25:55.937Z</time>
      </trkpt>
      <trkpt lat="46.49812" lon="8.2742">
        <ele>1548</ele>
        <time>2020-10-24T07:25:56.937Z</time>
      </trkpt>
      <trkpt lat="46.49813" lon="8.27423">
        <ele>1548</ele>
        <time>2020-10-24T07:25:57.937Z</time>
      </trkpt>
      <trkpt lat="46.49813" lon="8.27426">
        <ele>1548</ele>
        <time>2020-10-24T07:25:58.937Z</time>
      </trkpt>
      <trkpt lat="46.49814" lon="8.27429">
        <ele>1547</ele>
        <time>2020-10-24T07:25:59.937Z</time>
      </trkpt>
      <trkpt lat="46.49815" lon="8.27432">
        <ele>1547</ele>
        <time>2020-10-24T07:26:00.936Z</time>
      </trkpt>
      <trkpt lat="46.49816" lon="8.27435">
        <ele>1547</ele>
        <time>2020-10-24T07:26:01.937Z</time>
      </trkpt>
      <trkpt lat="46.49817" lon="8.27439">
        <ele>1546</ele>
        <time>2020-10-24T07:26:02.937Z</time>
      </trkpt>
      <trkpt lat="46.49818" lon="8.27442">
        <ele>1546</ele>
        <time>2020-10-24T07:26:03.937Z</time>
      </trkpt>
      <trkpt lat="46.49819" lon="8.27444">
        <ele>1545</ele>
        <time>2020-10-24T07:26:04.936Z</time>
      </trkpt>
      <trkpt lat="46.49821" lon="8.27446">
        <ele>1545</ele>
        <time>2020-10-24T07:26:05.937Z</time>
      </trkpt>
      <trkpt lat="46.49821" lon="8.27448">
        <ele>1545</ele>
        <time>2020-10-24T07:26:06.936Z</time>
      </trkpt>
      <trkpt lat="46.49822" lon="8.2745">
        <ele>1545</ele>
        <time>2020-10-24T07:26:07.937Z</time>
      </trkpt>
      <trkpt lat="46.49823" lon="8.27453">
        <ele>1545</ele>
        <time>2020-10-24T07:26:08.937Z</time>
      </trkpt>
      <trkpt lat="46.49824" lon="8.27456">
        <ele>1544</ele>
        <time>2020-10-24T07:26:09.937Z</time>
      </trkpt>
      <trkpt lat="46.49826" lon="8.27459">
        <ele>1544</ele>
        <time>2020-10-24T07:26:10.937Z</time>
      </trkpt>
      <trkpt lat="46.49827" lon="8.27463">
        <ele>1544</ele>
        <time>2020-10-24T07:26:11.937Z</time>
      </trkpt>
      <trkpt lat="46.49828" lon="8.27466">
        <ele>1544</ele>
        <time>2020-10-24T07:26:12.937Z</time>
      </trkpt>
      <trkpt lat="46.4983" lon="8.2747">
        <ele>1544</ele>
        <time>2020-10-24T07:26:13.937Z</time>
      </trkpt>
      <trkpt lat="46.49831" lon="8.27473">
        <ele>1544</ele>
        <time>2020-10-24T07:26:14.937Z</time>
      </trkpt>
      <trkpt lat="46.49832" lon="8.27477">
        <ele>1543</ele>
        <time>2020-10-24T07:26:15.937Z</time>
      </trkpt>
      <trkpt lat="46.49834" lon="8.2748">
        <ele>1543</ele>
        <time>2020-10-24T07:26:16.937Z</time>
      </trkpt>
      <trkpt lat="46.49836" lon="8.27483">
        <ele>1543</ele>
        <time>2020-10-24T07:26:17.936Z</time>
      </trkpt>
      <trkpt lat="46.49836" lon="8.27486">
        <ele>1543</ele>
        <time>2020-10-24T07:26:18.937Z</time>
      </trkpt>
      <trkpt lat="46.49837" lon="8.27489">
        <ele>1543</ele>
        <time>2020-10-24T07:26:19.936Z</time>
      </trkpt>
      <trkpt lat="46.49838" lon="8.27492">
        <ele>1543</ele>
        <time>2020-10-24T07:26:20.937Z</time>
      </trkpt>
      <trkpt lat="46.4984" lon="8.27495">
        <ele>1543</ele>
        <time>2020-10-24T07:26:21.937Z</time>
      </trkpt>
      <trkpt lat="46.49841" lon="8.27498">
        <ele>1543</ele>
        <time>2020-10-24T07:26:22.936Z</time>
      </trkpt>
      <trkpt lat="46.49842" lon="8.27501">
        <ele>1543</ele>
        <time>2020-10-24T07:26:23.937Z</time>
      </trkpt>
      <trkpt lat="46.49843" lon="8.27504">
        <ele>1542</ele>
        <time>2020-10-24T07:26:24.936Z</time>
      </trkpt>
      <trkpt lat="46.49844" lon="8.27507">
        <ele>1542</ele>
        <time>2020-10-24T07:26:25.937Z</time>
      </trkpt>
      <trkpt lat="46.49845" lon="8.27509">
        <ele>1542</ele>
        <time>2020-10-24T07:26:26.937Z</time>
      </trkpt>
      <trkpt lat="46.49847" lon="8.27511">
        <ele>1542</ele>
        <time>2020-10-24T07:26:27.936Z</time>
      </trkpt>
      <trkpt lat="46.49848" lon="8.27513">
        <ele>1542</ele>
        <time>2020-10-24T07:26:28.937Z</time>
      </trkpt>
      <trkpt lat="46.49849" lon="8.27515">
        <ele>1542</ele>
        <time>2020-10-24T07:26:29.936Z</time>
      </trkpt>
      <trkpt lat="46.4985" lon="8.27517">
        <ele>1542</ele>
        <time>2020-10-24T07:26:30.937Z</time>
      </trkpt>
      <trkpt lat="46.49852" lon="8.27519">
        <ele>1543</ele>
        <time>2020-10-24T07:26:31.937Z</time>
      </trkpt>
      <trkpt lat="46.49854" lon="8.27521">
        <ele>1543</ele>
        <time>2020-10-24T07:26:32.937Z</time>
      </trkpt>
      <trkpt lat="46.49855" lon="8.27523">
        <ele>1543</ele>
        <time>2020-10-24T07:26:33.937Z</time>
      </trkpt>
      <trkpt lat="46.49856" lon="8.27525">
        <ele>1543</ele>
        <time>2020-10-24T07:26:34.936Z</time>
      </trkpt>
      <trkpt lat="46.49856" lon="8.27527">
        <ele>1543</ele>
        <time>2020-10-24T07:26:35.937Z</time>
      </trkpt>
      <trkpt lat="46.49856" lon="8.27531">
        <ele>1543</ele>
        <time>2020-10-24T07:26:36.937Z</time>
      </trkpt>
      <trkpt lat="46.49855" lon="8.27535">
        <ele>1542</ele>
        <time>2020-10-24T07:26:37.937Z</time>
      </trkpt>
      <trkpt lat="46.49855" lon="8.27539">
        <ele>1542</ele>
        <time>2020-10-24T07:26:38.937Z</time>
      </trkpt>
      <trkpt lat="46.49857" lon="8.27541">
        <ele>1541</ele>
        <time>2020-10-24T07:26:39.936Z</time>
      </trkpt>
      <trkpt lat="46.49859" lon="8.27542">
        <ele>1541</ele>
        <time>2020-10-24T07:26:40.936Z</time>
      </trkpt>
      <trkpt lat="46.4986" lon="8.27545">
        <ele>1540</ele>
        <time>2020-10-24T07:26:41.937Z</time>
      </trkpt>
      <trkpt lat="46.49862" lon="8.27547">
        <ele>1540</ele>
        <time>2020-10-24T07:26:42.937Z</time>
      </trkpt>
      <trkpt lat="46.49864" lon="8.27551">
        <ele>1540</ele>
        <time>2020-10-24T07:26:43.937Z</time>
      </trkpt>
      <trkpt lat="46.49866" lon="8.27554">
        <ele>1540</ele>
        <time>2020-10-24T07:26:44.937Z</time>
      </trkpt>
      <trkpt lat="46.49867" lon="8.27558">
        <ele>1540</ele>
        <time>2020-10-24T07:26:45.936Z</time>
      </trkpt>
      <trkpt lat="46.49868" lon="8.27561">
        <ele>1539</ele>
        <time>2020-10-24T07:26:46.936Z</time>
      </trkpt>
      <trkpt lat="46.49869" lon="8.27565">
        <ele>1539</ele>
        <time>2020-10-24T07:26:47.936Z</time>
      </trkpt>
      <trkpt lat="46.4987" lon="8.27568">
        <ele>1539</ele>
        <time>2020-10-24T07:26:48.937Z</time>
      </trkpt>
      <trkpt lat="46.49871" lon="8.27571">
        <ele>1539</ele>
        <time>2020-10-24T07:26:49.936Z</time>
      </trkpt>
      <trkpt lat="46.49873" lon="8.27574">
        <ele>1539</ele>
        <time>2020-10-24T07:26:50.936Z</time>
      </trkpt>
      <trkpt lat="46.49874" lon="8.27578">
        <ele>1539</ele>
        <time>2020-10-24T07:26:51.937Z</time>
      </trkpt>
      <trkpt lat="46.49876" lon="8.2758">
        <ele>1538</ele>
        <time>2020-10-24T07:26:52.936Z</time>
      </trkpt>
      <trkpt lat="46.49877" lon="8.27582">
        <ele>1538</ele>
        <time>2020-10-24T07:26:53.936Z</time>
      </trkpt>
      <trkpt lat="46.49879" lon="8.27585">
        <ele>1538</ele>
        <time>2020-10-24T07:26:54.937Z</time>
      </trkpt>
      <trkpt lat="46.4988" lon="8.27588">
        <ele>1538</ele>
        <time>2020-10-24T07:26:55.937Z</time>
      </trkpt>
      <trkpt lat="46.49881" lon="8.2759">
        <ele>1538</ele>
        <time>2020-10-24T07:26:56.936Z</time>
      </trkpt>
      <trkpt lat="46.49883" lon="8.27592">
        <ele>1537</ele>
        <time>2020-10-24T07:26:57.937Z</time>
      </trkpt>
      <trkpt lat="46.49885" lon="8.27595">
        <ele>1537</ele>
        <time>2020-10-24T07:26:58.936Z</time>
      </trkpt>
      <trkpt lat="46.49888" lon="8.27598">
        <ele>1537</ele>
        <time>2020-10-24T07:26:59.937Z</time>
      </trkpt>
      <trkpt lat="46.4989" lon="8.276">
        <ele>1537</ele>
        <time>2020-10-24T07:27:00.936Z</time>
      </trkpt>
      <trkpt lat="46.49891" lon="8.27604">
        <ele>1536</ele>
        <time>2020-10-24T07:27:01.936Z</time>
      </trkpt>
      <trkpt lat="46.49893" lon="8.27607">
        <ele>1536</ele>
        <time>2020-10-24T07:27:02.937Z</time>
      </trkpt>
      <trkpt lat="46.49894" lon="8.2761">
        <ele>1536</ele>
        <time>2020-10-24T07:27:03.936Z</time>
      </trkpt>
      <trkpt lat="46.49895" lon="8.27613">
        <ele>1535</ele>
        <time>2020-10-24T07:27:04.936Z</time>
      </trkpt>
      <trkpt lat="46.49896" lon="8.27616">
        <ele>1535</ele>
        <time>2020-10-24T07:27:05.937Z</time>
      </trkpt>
      <trkpt lat="46.49898" lon="8.27619">
        <ele>1535</ele>
        <time>2020-10-24T07:27:06.936Z</time>
      </trkpt>
      <trkpt lat="46.49899" lon="8.27623">
        <ele>1534</ele>
        <time>2020-10-24T07:27:07.937Z</time>
      </trkpt>
      <trkpt lat="46.499" lon="8.27626">
        <ele>1534</ele>
        <time>2020-10-24T07:27:08.937Z</time>
      </trkpt>
      <trkpt lat="46.49902" lon="8.27629">
        <ele>1533</ele>
        <time>2020-10-24T07:27:09.937Z</time>
      </trkpt>
      <trkpt lat="46.49903" lon="8.27632">
        <ele>1533</ele>
        <time>2020-10-24T07:27:10.937Z</time>
      </trkpt>
      <trkpt lat="46.49904" lon="8.27636">
        <ele>1532</ele>
        <time>2020-10-24T07:27:11.937Z</time>
      </trkpt>
      <trkpt lat="46.49904" lon="8.27639">
        <ele>1532</ele>
        <time>2020-10-24T07:27:12.936Z</time>
      </trkpt>
      <trkpt lat="46.49904" lon="8.27642">
        <ele>1531</ele>
        <time>2020-10-24T07:27:13.937Z</time>
      </trkpt>
      <trkpt lat="46.49903" lon="8.27646">
        <ele>1531</ele>
        <time>2020-10-24T07:27:14.936Z</time>
      </trkpt>
      <trkpt lat="46.49902" lon="8.27649">
        <ele>1531</ele>
        <time>2020-10-24T07:27:15.937Z</time>
      </trkpt>
      <trkpt lat="46.49901" lon="8.27651">
        <ele>1530</ele>
        <time>2020-10-24T07:27:16.937Z</time>
      </trkpt>
      <trkpt lat="46.499" lon="8.27653">
        <ele>1530</ele>
        <time>2020-10-24T07:27:17.937Z</time>
      </trkpt>
      <trkpt lat="46.49899" lon="8.27655">
        <ele>1530</ele>
        <time>2020-10-24T07:27:18.936Z</time>
      </trkpt>
      <trkpt lat="46.49899" lon="8.27655">
        <ele>1530</ele>
        <time>2020-10-24T07:27:19.936Z</time>
      </trkpt>
      <trkpt lat="46.49898" lon="8.27654">
        <ele>1530</ele>
        <time>2020-10-24T07:27:20.937Z</time>
      </trkpt>
      <trkpt lat="46.49898" lon="8.27652">
        <ele>1529</ele>
        <time>2020-10-24T07:27:21.937Z</time>
      </trkpt>
      <trkpt lat="46.49898" lon="8.27649">
        <ele>1529</ele>
        <time>2020-10-24T07:27:22.936Z</time>
      </trkpt>
      <trkpt lat="46.49897" lon="8.27648">
        <ele>1529</ele>
        <time>2020-10-24T07:27:23.937Z</time>
      </trkpt>
      <trkpt lat="46.49897" lon="8.27647">
        <ele>1529</ele>
        <time>2020-10-24T07:27:24.936Z</time>
      </trkpt>
      <trkpt lat="46.49898" lon="8.27648">
        <ele>1529</ele>
        <time>2020-10-24T07:27:25.937Z</time>
      </trkpt>
      <trkpt lat="46.49898" lon="8.27649">
        <ele>1529</ele>
        <time>2020-10-24T07:27:26.937Z</time>
      </trkpt>
      <trkpt lat="46.49899" lon="8.27651">
        <ele>1529</ele>
        <time>2020-10-24T07:27:27.936Z</time>
      </trkpt>
      <trkpt lat="46.49899" lon="8.27651">
        <ele>1529</ele>
        <time>2020-10-24T07:27:28.936Z</time>
      </trkpt>
      <trkpt lat="46.49899" lon="8.27651">
        <ele>1529</ele>
        <time>2020-10-24T07:27:29.937Z</time>
      </trkpt>
      <trkpt lat="46.49899" lon="8.27651">
        <ele>1529</ele>
        <time>2020-10-24T07:27:30.937Z</time>
      </trkpt>
      <trkpt lat="46.49899" lon="8.27651">
        <ele>1529</ele>
        <time>2020-10-24T07:27:31.937Z</time>
      </trkpt>
      <trkpt lat="46.49899" lon="8.27651">
        <ele>1529</ele>
        <time>2020-10-24T07:27:32.937Z</time>
      </trkpt>
      <trkpt lat="46.49899" lon="8.27651">
        <ele>1529</ele>
        <time>2020-10-24T07:27:33.936Z</time>
      </trkpt>
      <trkpt lat="46.49899" lon="8.27651">
        <ele>1529</ele>
        <time>2020-10-24T07:27:34.936Z</time>
      </trkpt>
      <trkpt lat="46.49899" lon="8.27651">
        <ele>1529</ele>
        <time>2020-10-24T07:27:35.937Z</time>
      </trkpt>
      <trkpt lat="46.49899" lon="8.27651">
        <ele>1528</ele>
        <time>2020-10-24T07:27:36.937Z</time>
      </trkpt>
      <trkpt lat="46.49898" lon="8.27651">
        <ele>1528</ele>
        <time>2020-10-24T07:27:37.936Z</time>
      </trkpt>
      <trkpt lat="46.49897" lon="8.2765">
        <ele>1528</ele>
        <time>2020-10-24T07:27:38.936Z</time>
      </trkpt>
      <trkpt lat="46.49896" lon="8.27649">
        <ele>1528</ele>
        <time>2020-10-24T07:27:39.936Z</time>
      </trkpt>
      <trkpt lat="46.49894" lon="8.27649">
        <ele>1528</ele>
        <time>2020-10-24T07:27:40.936Z</time>
      </trkpt>
      <trkpt lat="46.49893" lon="8.27648">
        <ele>1528</ele>
        <time>2020-10-24T07:27:41.937Z</time>
      </trkpt>
      <trkpt lat="46.49891" lon="8.27647">
        <ele>1528</ele>
        <time>2020-10-24T07:27:42.936Z</time>
      </trkpt>
      <trkpt lat="46.49889" lon="8.27646">
        <ele>1528</ele>
        <time>2020-10-24T07:27:43.937Z</time>
      </trkpt>
      <trkpt lat="46.49887" lon="8.27645">
        <ele>1528</ele>
        <time>2020-10-24T07:27:44.937Z</time>
      </trkpt>
      <trkpt lat="46.49884" lon="8.27645">
        <ele>1528</ele>
        <time>2020-10-24T07:27:45.937Z</time>
      </trkpt>
      <trkpt lat="46.49882" lon="8.27645">
        <ele>1528</ele>
        <time>2020-10-24T07:27:46.936Z</time>
      </trkpt>
      <trkpt lat="46.4988" lon="8.27646">
        <ele>1528</ele>
        <time>2020-10-24T07:27:47.937Z</time>
      </trkpt>
      <trkpt lat="46.49879" lon="8.27648">
        <ele>1528</ele>
        <time>2020-10-24T07:27:48.937Z</time>
      </trkpt>
      <trkpt lat="46.49878" lon="8.27648">
        <ele>1527</ele>
        <time>2020-10-24T07:27:49.937Z</time>
      </trkpt>
      <trkpt lat="46.49876" lon="8.27648">
        <ele>1527</ele>
        <time>2020-10-24T07:27:50.937Z</time>
      </trkpt>
      <trkpt lat="46.49875" lon="8.27648">
        <ele>1526</ele>
        <time>2020-10-24T07:27:51.937Z</time>
      </trkpt>
      <trkpt lat="46.49874" lon="8.27648">
        <ele>1526</ele>
        <time>2020-10-24T07:27:52.936Z</time>
      </trkpt>
      <trkpt lat="46.49872" lon="8.27648">
        <ele>1526</ele>
        <time>2020-10-24T07:27:53.937Z</time>
      </trkpt>
      <trkpt lat="46.49871" lon="8.27648">
        <ele>1525</ele>
        <time>2020-10-24T07:27:54.936Z</time>
      </trkpt>
      <trkpt lat="46.49871" lon="8.27648">
        <ele>1525</ele>
        <time>2020-10-24T07:27:55.937Z</time>
      </trkpt>
      <trkpt lat="46.4987" lon="8.27648">
        <ele>1525</ele>
        <time>2020-10-24T07:27:56.936Z</time>
      </trkpt>
      <trkpt lat="46.4987" lon="8.27647">
        <ele>1525</ele>
        <time>2020-10-24T07:27:57.937Z</time>
      </trkpt>
      <trkpt lat="46.4987" lon="8.27646">
        <ele>1526</ele>
        <time>2020-10-24T07:27:58.937Z</time>
      </trkpt>
      <trkpt lat="46.49869" lon="8.27645">
        <ele>1526</ele>
        <time>2020-10-24T07:27:59.936Z</time>
      </trkpt>
      <trkpt lat="46.49867" lon="8.27644">
        <ele>1526</ele>
        <time>2020-10-24T07:28:00.937Z</time>
      </trkpt>
      <trkpt lat="46.49865" lon="8.27644">
        <ele>1527</ele>
        <time>2020-10-24T07:28:01.936Z</time>
      </trkpt>
      <trkpt lat="46.49864" lon="8.27643">
        <ele>1527</ele>
        <time>2020-10-24T07:28:02.937Z</time>
      </trkpt>
      <trkpt lat="46.49862" lon="8.27642">
        <ele>1527</ele>
        <time>2020-10-24T07:28:03.936Z</time>
      </trkpt>
      <trkpt lat="46.4986" lon="8.27641">
        <ele>1528</ele>
        <time>2020-10-24T07:28:04.937Z</time>
      </trkpt>
      <trkpt lat="46.49858" lon="8.27641">
        <ele>1528</ele>
        <time>2020-10-24T07:28:05.936Z</time>
      </trkpt>
      <trkpt lat="46.49856" lon="8.2764">
        <ele>1529</ele>
        <time>2020-10-24T07:28:06.937Z</time>
      </trkpt>
      <trkpt lat="46.49854" lon="8.2764">
        <ele>1530</ele>
        <time>2020-10-24T07:28:07.937Z</time>
      </trkpt>
      <trkpt lat="46.49852" lon="8.27639">
        <ele>1530</ele>
        <time>2020-10-24T07:28:08.936Z</time>
      </trkpt>
      <trkpt lat="46.4985" lon="8.27638">
        <ele>1530</ele>
        <time>2020-10-24T07:28:09.937Z</time>
      </trkpt>
      <trkpt lat="46.49847" lon="8.27638">
        <ele>1531</ele>
        <time>2020-10-24T07:28:10.936Z</time>
      </trkpt>
      <trkpt lat="46.49844" lon="8.27637">
        <ele>1530</ele>
        <time>2020-10-24T07:28:11.936Z</time>
      </trkpt>
      <trkpt lat="46.49842" lon="8.27639">
        <ele>1529</ele>
        <time>2020-10-24T07:28:12.937Z</time>
      </trkpt>
      <trkpt lat="46.4984" lon="8.27639">
        <ele>1528</ele>
        <time>2020-10-24T07:28:13.936Z</time>
      </trkpt>
      <trkpt lat="46.49838" lon="8.27639">
        <ele>1526</ele>
        <time>2020-10-24T07:28:14.937Z</time>
      </trkpt>
      <trkpt lat="46.49836" lon="8.27639">
        <ele>1525</ele>
        <time>2020-10-24T07:28:15.936Z</time>
      </trkpt>
      <trkpt lat="46.49834" lon="8.2764">
        <ele>1523</ele>
        <time>2020-10-24T07:28:16.937Z</time>
      </trkpt>
      <trkpt lat="46.49831" lon="8.27639">
        <ele>1522</ele>
        <time>2020-10-24T07:28:17.937Z</time>
      </trkpt>
      <trkpt lat="46.49829" lon="8.27639">
        <ele>1521</ele>
        <time>2020-10-24T07:28:18.937Z</time>
      </trkpt>
      <trkpt lat="46.49826" lon="8.27639">
        <ele>1520</ele>
        <time>2020-10-24T07:28:19.937Z</time>
      </trkpt>
      <trkpt lat="46.49824" lon="8.27639">
        <ele>1519</ele>
        <time>2020-10-24T07:28:20.936Z</time>
      </trkpt>
      <trkpt lat="46.49822" lon="8.27638">
        <ele>1519</ele>
        <time>2020-10-24T07:28:21.937Z</time>
      </trkpt>
      <trkpt lat="46.4982" lon="8.27638">
        <ele>1518</ele>
        <time>2020-10-24T07:28:22.937Z</time>
      </trkpt>
      <trkpt lat="46.49818" lon="8.27638">
        <ele>1516</ele>
        <time>2020-10-24T07:28:23.937Z</time>
      </trkpt>
      <trkpt lat="46.49816" lon="8.27638">
        <ele>1515</ele>
        <time>2020-10-24T07:28:24.937Z</time>
      </trkpt>
      <trkpt lat="46.49813" lon="8.27638">
        <ele>1514</ele>
        <time>2020-10-24T07:28:25.936Z</time>
      </trkpt>
      <trkpt lat="46.4981" lon="8.27638">
        <ele>1513</ele>
        <time>2020-10-24T07:28:26.937Z</time>
      </trkpt>
      <trkpt lat="46.49808" lon="8.27637">
        <ele>1512</ele>
        <time>2020-10-24T07:28:27.937Z</time>
      </trkpt>
      <trkpt lat="46.49805" lon="8.27635">
        <ele>1511</ele>
        <time>2020-10-24T07:28:28.936Z</time>
      </trkpt>
      <trkpt lat="46.49803" lon="8.27633">
        <ele>1511</ele>
        <time>2020-10-24T07:28:29.937Z</time>
      </trkpt>
      <trkpt lat="46.49801" lon="8.27631">
        <ele>1510</ele>
        <time>2020-10-24T07:28:30.937Z</time>
      </trkpt>
      <trkpt lat="46.498" lon="8.2763">
        <ele>1510</ele>
        <time>2020-10-24T07:28:31.937Z</time>
      </trkpt>
      <trkpt lat="46.49798" lon="8.27629">
        <ele>1510</ele>
        <time>2020-10-24T07:28:32.937Z</time>
      </trkpt>
      <trkpt lat="46.49794" lon="8.27628">
        <ele>1509</ele>
        <time>2020-10-24T07:28:33.937Z</time>
      </trkpt>
      <trkpt lat="46.49792" lon="8.27627">
        <ele>1509</ele>
        <time>2020-10-24T07:28:34.937Z</time>
      </trkpt>
      <trkpt lat="46.49789" lon="8.27626">
        <ele>1508</ele>
        <time>2020-10-24T07:28:35.937Z</time>
      </trkpt>
      <trkpt lat="46.49786" lon="8.27626">
        <ele>1508</ele>
        <time>2020-10-24T07:28:36.937Z</time>
      </trkpt>
      <trkpt lat="46.49782" lon="8.27625">
        <ele>1507</ele>
        <time>2020-10-24T07:28:37.937Z</time>
      </trkpt>
      <trkpt lat="46.49779" lon="8.27625">
        <ele>1506</ele>
        <time>2020-10-24T07:28:38.937Z</time>
      </trkpt>
      <trkpt lat="46.49778" lon="8.27624">
        <ele>1505</ele>
        <time>2020-10-24T07:28:39.937Z</time>
      </trkpt>
      <trkpt lat="46.49776" lon="8.27624">
        <ele>1504</ele>
        <time>2020-10-24T07:28:40.937Z</time>
      </trkpt>
      <trkpt lat="46.49773" lon="8.27624">
        <ele>1504</ele>
        <time>2020-10-24T07:28:41.936Z</time>
      </trkpt>
      <trkpt lat="46.4977" lon="8.27624">
        <ele>1503</ele>
        <time>2020-10-24T07:28:42.937Z</time>
      </trkpt>
      <trkpt lat="46.49767" lon="8.27626">
        <ele>1502</ele>
        <time>2020-10-24T07:28:43.937Z</time>
      </trkpt>
      <trkpt lat="46.49764" lon="8.27627">
        <ele>1502</ele>
        <time>2020-10-24T07:28:44.937Z</time>
      </trkpt>
      <trkpt lat="46.49762" lon="8.27629">
        <ele>1501</ele>
        <time>2020-10-24T07:28:45.937Z</time>
      </trkpt>
      <trkpt lat="46.49759" lon="8.2763">
        <ele>1501</ele>
        <time>2020-10-24T07:28:46.937Z</time>
      </trkpt>
      <trkpt lat="46.49756" lon="8.27631">
        <ele>1500</ele>
        <time>2020-10-24T07:28:47.937Z</time>
      </trkpt>
      <trkpt lat="46.49754" lon="8.27633">
        <ele>1500</ele>
        <time>2020-10-24T07:28:48.937Z</time>
      </trkpt>
      <trkpt lat="46.49751" lon="8.27634">
        <ele>1499</ele>
        <time>2020-10-24T07:28:49.937Z</time>
      </trkpt>
      <trkpt lat="46.49749" lon="8.27635">
        <ele>1499</ele>
        <time>2020-10-24T07:28:50.937Z</time>
      </trkpt>
      <trkpt lat="46.49748" lon="8.27636">
        <ele>1498</ele>
        <time>2020-10-24T07:28:51.937Z</time>
      </trkpt>
      <trkpt lat="46.49746" lon="8.27638">
        <ele>1497</ele>
        <time>2020-10-24T07:28:52.936Z</time>
      </trkpt>
      <trkpt lat="46.49744" lon="8.2764">
        <ele>1497</ele>
        <time>2020-10-24T07:28:53.936Z</time>
      </trkpt>
      <trkpt lat="46.49743" lon="8.27642">
        <ele>1496</ele>
        <time>2020-10-24T07:28:54.936Z</time>
      </trkpt>
      <trkpt lat="46.49742" lon="8.27644">
        <ele>1495</ele>
        <time>2020-10-24T07:28:55.936Z</time>
      </trkpt>
      <trkpt lat="46.4974" lon="8.27647">
        <ele>1494</ele>
        <time>2020-10-24T07:28:56.936Z</time>
      </trkpt>
      <trkpt lat="46.4974" lon="8.2765">
        <ele>1494</ele>
        <time>2020-10-24T07:28:57.936Z</time>
      </trkpt>
      <trkpt lat="46.49739" lon="8.27652">
        <ele>1493</ele>
        <time>2020-10-24T07:28:58.936Z</time>
      </trkpt>
      <trkpt lat="46.49739" lon="8.27655">
        <ele>1493</ele>
        <time>2020-10-24T07:28:59.937Z</time>
      </trkpt>
      <trkpt lat="46.49739" lon="8.27657">
        <ele>1492</ele>
        <time>2020-10-24T07:29:00.936Z</time>
      </trkpt>
      <trkpt lat="46.4974" lon="8.27661">
        <ele>1492</ele>
        <time>2020-10-24T07:29:01.936Z</time>
      </trkpt>
      <trkpt lat="46.49741" lon="8.27663">
        <ele>1492</ele>
        <time>2020-10-24T07:29:02.937Z</time>
      </trkpt>
      <trkpt lat="46.49742" lon="8.27665">
        <ele>1492</ele>
        <time>2020-10-24T07:29:03.937Z</time>
      </trkpt>
      <trkpt lat="46.49743" lon="8.27667">
        <ele>1492</ele>
        <time>2020-10-24T07:29:04.936Z</time>
      </trkpt>
      <trkpt lat="46.49744" lon="8.2767">
        <ele>1492</ele>
        <time>2020-10-24T07:29:05.937Z</time>
      </trkpt>
      <trkpt lat="46.49744" lon="8.27674">
        <ele>1492</ele>
        <time>2020-10-24T07:29:06.936Z</time>
      </trkpt>
      <trkpt lat="46.49745" lon="8.27676">
        <ele>1492</ele>
        <time>2020-10-24T07:29:07.936Z</time>
      </trkpt>
      <trkpt lat="46.49746" lon="8.27679">
        <ele>1492</ele>
        <time>2020-10-24T07:29:08.936Z</time>
      </trkpt>
      <trkpt lat="46.49747" lon="8.27682">
        <ele>1491</ele>
        <time>2020-10-24T07:29:09.936Z</time>
      </trkpt>
      <trkpt lat="46.49747" lon="8.27686">
        <ele>1491</ele>
        <time>2020-10-24T07:29:10.936Z</time>
      </trkpt>
      <trkpt lat="46.49749" lon="8.27689">
        <ele>1491</ele>
        <time>2020-10-24T07:29:11.937Z</time>
      </trkpt>
      <trkpt lat="46.4975" lon="8.27693">
        <ele>1490</ele>
        <time>2020-10-24T07:29:12.936Z</time>
      </trkpt>
      <trkpt lat="46.49751" lon="8.27696">
        <ele>1490</ele>
        <time>2020-10-24T07:29:13.937Z</time>
      </trkpt>
      <trkpt lat="46.49753" lon="8.27701">
        <ele>1490</ele>
        <time>2020-10-24T07:29:14.936Z</time>
      </trkpt>
      <trkpt lat="46.49754" lon="8.27705">
        <ele>1490</ele>
        <time>2020-10-24T07:29:15.936Z</time>
      </trkpt>
      <trkpt lat="46.49755" lon="8.2771">
        <ele>1490</ele>
        <time>2020-10-24T07:29:16.937Z</time>
      </trkpt>
      <trkpt lat="46.49757" lon="8.27714">
        <ele>1490</ele>
        <time>2020-10-24T07:29:17.936Z</time>
      </trkpt>
      <trkpt lat="46.49758" lon="8.27719">
        <ele>1490</ele>
        <time>2020-10-24T07:29:18.937Z</time>
      </trkpt>
      <trkpt lat="46.49759" lon="8.27723">
        <ele>1489</ele>
        <time>2020-10-24T07:29:19.937Z</time>
      </trkpt>
      <trkpt lat="46.4976" lon="8.27727">
        <ele>1489</ele>
        <time>2020-10-24T07:29:20.937Z</time>
      </trkpt>
      <trkpt lat="46.49761" lon="8.27731">
        <ele>1488</ele>
        <time>2020-10-24T07:29:21.937Z</time>
      </trkpt>
      <trkpt lat="46.49762" lon="8.27735">
        <ele>1488</ele>
        <time>2020-10-24T07:29:22.937Z</time>
      </trkpt>
      <trkpt lat="46.49762" lon="8.2774">
        <ele>1488</ele>
        <time>2020-10-24T07:29:23.937Z</time>
      </trkpt>
      <trkpt lat="46.49763" lon="8.27744">
        <ele>1488</ele>
        <time>2020-10-24T07:29:24.937Z</time>
      </trkpt>
      <trkpt lat="46.49764" lon="8.27749">
        <ele>1488</ele>
        <time>2020-10-24T07:29:25.937Z</time>
      </trkpt>
      <trkpt lat="46.49765" lon="8.27753">
        <ele>1488</ele>
        <time>2020-10-24T07:29:26.937Z</time>
      </trkpt>
      <trkpt lat="46.49767" lon="8.27756">
        <ele>1488</ele>
        <time>2020-10-24T07:29:27.937Z</time>
      </trkpt>
      <trkpt lat="46.49768" lon="8.2776">
        <ele>1488</ele>
        <time>2020-10-24T07:29:28.937Z</time>
      </trkpt>
      <trkpt lat="46.49769" lon="8.27763">
        <ele>1488</ele>
        <time>2020-10-24T07:29:29.937Z</time>
      </trkpt>
      <trkpt lat="46.49771" lon="8.27767">
        <ele>1488</ele>
        <time>2020-10-24T07:29:30.937Z</time>
      </trkpt>
      <trkpt lat="46.49772" lon="8.2777">
        <ele>1489</ele>
        <time>2020-10-24T07:29:31.937Z</time>
      </trkpt>
      <trkpt lat="46.49774" lon="8.27774">
        <ele>1489</ele>
        <time>2020-10-24T07:29:32.936Z</time>
      </trkpt>
      <trkpt lat="46.49775" lon="8.27778">
        <ele>1489</ele>
        <time>2020-10-24T07:29:33.936Z</time>
      </trkpt>
      <trkpt lat="46.49777" lon="8.27781">
        <ele>1489</ele>
        <time>2020-10-24T07:29:34.936Z</time>
      </trkpt>
      <trkpt lat="46.49779" lon="8.27785">
        <ele>1489</ele>
        <time>2020-10-24T07:29:35.937Z</time>
      </trkpt>
      <trkpt lat="46.4978" lon="8.27789">
        <ele>1489</ele>
        <time>2020-10-24T07:29:36.936Z</time>
      </trkpt>
      <trkpt lat="46.49782" lon="8.27792">
        <ele>1489</ele>
        <time>2020-10-24T07:29:37.936Z</time>
      </trkpt>
      <trkpt lat="46.49783" lon="8.27796">
        <ele>1489</ele>
        <time>2020-10-24T07:29:38.937Z</time>
      </trkpt>
      <trkpt lat="46.49785" lon="8.27801">
        <ele>1490</ele>
        <time>2020-10-24T07:29:39.937Z</time>
      </trkpt>
      <trkpt lat="46.49786" lon="8.27805">
        <ele>1490</ele>
        <time>2020-10-24T07:29:40.937Z</time>
      </trkpt>
      <trkpt lat="46.49788" lon="8.27809">
        <ele>1490</ele>
        <time>2020-10-24T07:29:41.937Z</time>
      </trkpt>
      <trkpt lat="46.49789" lon="8.27812">
        <ele>1490</ele>
        <time>2020-10-24T07:29:42.937Z</time>
      </trkpt>
      <trkpt lat="46.49791" lon="8.27815">
        <ele>1490</ele>
        <time>2020-10-24T07:29:43.936Z</time>
      </trkpt>
      <trkpt lat="46.49793" lon="8.27818">
        <ele>1489</ele>
        <time>2020-10-24T07:29:44.937Z</time>
      </trkpt>
      <trkpt lat="46.49795" lon="8.2782">
        <ele>1489</ele>
        <time>2020-10-24T07:29:45.937Z</time>
      </trkpt>
      <trkpt lat="46.49796" lon="8.27823">
        <ele>1488</ele>
        <time>2020-10-24T07:29:46.937Z</time>
      </trkpt>
      <trkpt lat="46.49798" lon="8.27827">
        <ele>1487</ele>
        <time>2020-10-24T07:29:47.937Z</time>
      </trkpt>
      <trkpt lat="46.498" lon="8.27829">
        <ele>1487</ele>
        <time>2020-10-24T07:29:48.937Z</time>
      </trkpt>
      <trkpt lat="46.49802" lon="8.27833">
        <ele>1486</ele>
        <time>2020-10-24T07:29:49.936Z</time>
      </trkpt>
      <trkpt lat="46.49803" lon="8.27836">
        <ele>1486</ele>
        <time>2020-10-24T07:29:50.937Z</time>
      </trkpt>
      <trkpt lat="46.49803" lon="8.2784">
        <ele>1485</ele>
        <time>2020-10-24T07:29:51.936Z</time>
      </trkpt>
      <trkpt lat="46.49802" lon="8.27844">
        <ele>1485</ele>
        <time>2020-10-24T07:29:52.937Z</time>
      </trkpt>
      <trkpt lat="46.49802" lon="8.27848">
        <ele>1484</ele>
        <time>2020-10-24T07:29:53.937Z</time>
      </trkpt>
      <trkpt lat="46.498" lon="8.27851">
        <ele>1484</ele>
        <time>2020-10-24T07:29:54.936Z</time>
      </trkpt>
      <trkpt lat="46.49798" lon="8.27854">
        <ele>1484</ele>
        <time>2020-10-24T07:29:55.936Z</time>
      </trkpt>
      <trkpt lat="46.49796" lon="8.27857">
        <ele>1484</ele>
        <time>2020-10-24T07:29:56.936Z</time>
      </trkpt>
      <trkpt lat="46.49795" lon="8.27861">
        <ele>1483</ele>
        <time>2020-10-24T07:29:57.936Z</time>
      </trkpt>
      <trkpt lat="46.49793" lon="8.27864">
        <ele>1483</ele>
        <time>2020-10-24T07:29:58.937Z</time>
      </trkpt>
      <trkpt lat="46.49793" lon="8.27868">
        <ele>1482</ele>
        <time>2020-10-24T07:29:59.937Z</time>
      </trkpt>
      <trkpt lat="46.49793" lon="8.27871">
        <ele>1482</ele>
        <time>2020-10-24T07:30:00.937Z</time>
      </trkpt>
      <trkpt lat="46.49794" lon="8.27875">
        <ele>1482</ele>
        <time>2020-10-24T07:30:01.937Z</time>
      </trkpt>
      <trkpt lat="46.49795" lon="8.27878">
        <ele>1481</ele>
        <time>2020-10-24T07:30:02.937Z</time>
      </trkpt>
      <trkpt lat="46.49796" lon="8.27881">
        <ele>1481</ele>
        <time>2020-10-24T07:30:03.937Z</time>
      </trkpt>
      <trkpt lat="46.49798" lon="8.27885">
        <ele>1481</ele>
        <time>2020-10-24T07:30:04.936Z</time>
      </trkpt>
      <trkpt lat="46.49799" lon="8.27888">
        <ele>1481</ele>
        <time>2020-10-24T07:30:05.936Z</time>
      </trkpt>
      <trkpt lat="46.49801" lon="8.27891">
        <ele>1481</ele>
        <time>2020-10-24T07:30:06.936Z</time>
      </trkpt>
      <trkpt lat="46.49802" lon="8.27895">
        <ele>1481</ele>
        <time>2020-10-24T07:30:07.936Z</time>
      </trkpt>
      <trkpt lat="46.49804" lon="8.27898">
        <ele>1481</ele>
        <time>2020-10-24T07:30:08.937Z</time>
      </trkpt>
      <trkpt lat="46.49806" lon="8.27901">
        <ele>1481</ele>
        <time>2020-10-24T07:30:09.936Z</time>
      </trkpt>
      <trkpt lat="46.49808" lon="8.27904">
        <ele>1481</ele>
        <time>2020-10-24T07:30:10.936Z</time>
      </trkpt>
      <trkpt lat="46.4981" lon="8.27908">
        <ele>1481</ele>
        <time>2020-10-24T07:30:11.936Z</time>
      </trkpt>
      <trkpt lat="46.49811" lon="8.27911">
        <ele>1481</ele>
        <time>2020-10-24T07:30:12.936Z</time>
      </trkpt>
      <trkpt lat="46.49813" lon="8.27915">
        <ele>1480</ele>
        <time>2020-10-24T07:30:13.936Z</time>
      </trkpt>
      <trkpt lat="46.49815" lon="8.27919">
        <ele>1480</ele>
        <time>2020-10-24T07:30:14.936Z</time>
      </trkpt>
      <trkpt lat="46.49816" lon="8.27922">
        <ele>1479</ele>
        <time>2020-10-24T07:30:15.937Z</time>
      </trkpt>
      <trkpt lat="46.49818" lon="8.27925">
        <ele>1479</ele>
        <time>2020-10-24T07:30:16.937Z</time>
      </trkpt>
      <trkpt lat="46.49819" lon="8.27928">
        <ele>1478</ele>
        <time>2020-10-24T07:30:17.936Z</time>
      </trkpt>
      <trkpt lat="46.49821" lon="8.27931">
        <ele>1477</ele>
        <time>2020-10-24T07:30:18.936Z</time>
      </trkpt>
      <trkpt lat="46.49823" lon="8.27934">
        <ele>1477</ele>
        <time>2020-10-24T07:30:19.937Z</time>
      </trkpt>
      <trkpt lat="46.49825" lon="8.27937">
        <ele>1477</ele>
        <time>2020-10-24T07:30:20.937Z</time>
      </trkpt>
      <trkpt lat="46.49826" lon="8.2794">
        <ele>1476</ele>
        <time>2020-10-24T07:30:21.937Z</time>
      </trkpt>
      <trkpt lat="46.49827" lon="8.27944">
        <ele>1476</ele>
        <time>2020-10-24T07:30:22.937Z</time>
      </trkpt>
      <trkpt lat="46.49829" lon="8.27947">
        <ele>1475</ele>
        <time>2020-10-24T07:30:23.936Z</time>
      </trkpt>
      <trkpt lat="46.4983" lon="8.2795">
        <ele>1474</ele>
        <time>2020-10-24T07:30:24.937Z</time>
      </trkpt>
      <trkpt lat="46.49832" lon="8.27954">
        <ele>1474</ele>
        <time>2020-10-24T07:30:25.937Z</time>
      </trkpt>
      <trkpt lat="46.49834" lon="8.27957">
        <ele>1473</ele>
        <time>2020-10-24T07:30:26.937Z</time>
      </trkpt>
      <trkpt lat="46.49836" lon="8.2796">
        <ele>1473</ele>
        <time>2020-10-24T07:30:27.937Z</time>
      </trkpt>
      <trkpt lat="46.49837" lon="8.27963">
        <ele>1473</ele>
        <time>2020-10-24T07:30:28.937Z</time>
      </trkpt>
      <trkpt lat="46.49839" lon="8.27967">
        <ele>1472</ele>
        <time>2020-10-24T07:30:29.937Z</time>
      </trkpt>
      <trkpt lat="46.49841" lon="8.2797">
        <ele>1472</ele>
        <time>2020-10-24T07:30:30.937Z</time>
      </trkpt>
      <trkpt lat="46.49842" lon="8.27973">
        <ele>1472</ele>
        <time>2020-10-24T07:30:31.936Z</time>
      </trkpt>
      <trkpt lat="46.49844" lon="8.27977">
        <ele>1471</ele>
        <time>2020-10-24T07:30:32.936Z</time>
      </trkpt>
      <trkpt lat="46.49845" lon="8.2798">
        <ele>1471</ele>
        <time>2020-10-24T07:30:33.937Z</time>
      </trkpt>
      <trkpt lat="46.49847" lon="8.27983">
        <ele>1471</ele>
        <time>2020-10-24T07:30:34.936Z</time>
      </trkpt>
      <trkpt lat="46.49848" lon="8.27987">
        <ele>1471</ele>
        <time>2020-10-24T07:30:35.937Z</time>
      </trkpt>
      <trkpt lat="46.4985" lon="8.2799">
        <ele>1471</ele>
        <time>2020-10-24T07:30:36.936Z</time>
      </trkpt>
      <trkpt lat="46.49851" lon="8.27993">
        <ele>1471</ele>
        <time>2020-10-24T07:30:37.936Z</time>
      </trkpt>
      <trkpt lat="46.49853" lon="8.27995">
        <ele>1470</ele>
        <time>2020-10-24T07:30:38.936Z</time>
      </trkpt>
      <trkpt lat="46.49856" lon="8.27996">
        <ele>1470</ele>
        <time>2020-10-24T07:30:39.937Z</time>
      </trkpt>
      <trkpt lat="46.49858" lon="8.27998">
        <ele>1469</ele>
        <time>2020-10-24T07:30:40.936Z</time>
      </trkpt>
      <trkpt lat="46.4986" lon="8.28">
        <ele>1468</ele>
        <time>2020-10-24T07:30:41.937Z</time>
      </trkpt>
      <trkpt lat="46.49863" lon="8.28002">
        <ele>1468</ele>
        <time>2020-10-24T07:30:42.937Z</time>
      </trkpt>
      <trkpt lat="46.49865" lon="8.28004">
        <ele>1468</ele>
        <time>2020-10-24T07:30:43.937Z</time>
      </trkpt>
      <trkpt lat="46.49868" lon="8.28006">
        <ele>1468</ele>
        <time>2020-10-24T07:30:44.937Z</time>
      </trkpt>
      <trkpt lat="46.4987" lon="8.28008">
        <ele>1468</ele>
        <time>2020-10-24T07:30:45.937Z</time>
      </trkpt>
      <trkpt lat="46.49872" lon="8.2801">
        <ele>1468</ele>
        <time>2020-10-24T07:30:46.937Z</time>
      </trkpt>
      <trkpt lat="46.49875" lon="8.28011">
        <ele>1468</ele>
        <time>2020-10-24T07:30:47.937Z</time>
      </trkpt>
      <trkpt lat="46.49878" lon="8.28012">
        <ele>1468</ele>
        <time>2020-10-24T07:30:48.937Z</time>
      </trkpt>
      <trkpt lat="46.49881" lon="8.28013">
        <ele>1468</ele>
        <time>2020-10-24T07:30:49.937Z</time>
      </trkpt>
      <trkpt lat="46.49883" lon="8.28013">
        <ele>1469</ele>
        <time>2020-10-24T07:30:50.937Z</time>
      </trkpt>
      <trkpt lat="46.49885" lon="8.28013">
        <ele>1469</ele>
        <time>2020-10-24T07:30:51.937Z</time>
      </trkpt>
      <trkpt lat="46.49887" lon="8.28013">
        <ele>1470</ele>
        <time>2020-10-24T07:30:52.936Z</time>
      </trkpt>
      <trkpt lat="46.4989" lon="8.28012">
        <ele>1470</ele>
        <time>2020-10-24T07:30:53.937Z</time>
      </trkpt>
      <trkpt lat="46.49892" lon="8.28011">
        <ele>1471</ele>
        <time>2020-10-24T07:30:54.937Z</time>
      </trkpt>
      <trkpt lat="46.49894" lon="8.2801">
        <ele>1471</ele>
        <time>2020-10-24T07:30:55.936Z</time>
      </trkpt>
      <trkpt lat="46.49897" lon="8.28008">
        <ele>1472</ele>
        <time>2020-10-24T07:30:56.937Z</time>
      </trkpt>
      <trkpt lat="46.499" lon="8.28007">
        <ele>1472</ele>
        <time>2020-10-24T07:30:57.936Z</time>
      </trkpt>
      <trkpt lat="46.49903" lon="8.28006">
        <ele>1473</ele>
        <time>2020-10-24T07:30:58.937Z</time>
      </trkpt>
      <trkpt lat="46.49905" lon="8.28005">
        <ele>1473</ele>
        <time>2020-10-24T07:30:59.937Z</time>
      </trkpt>
      <trkpt lat="46.49908" lon="8.28004">
        <ele>1473</ele>
        <time>2020-10-24T07:31:00.937Z</time>
      </trkpt>
      <trkpt lat="46.4991" lon="8.28004">
        <ele>1474</ele>
        <time>2020-10-24T07:31:01.937Z</time>
      </trkpt>
      <trkpt lat="46.49913" lon="8.28003">
        <ele>1474</ele>
        <time>2020-10-24T07:31:02.936Z</time>
      </trkpt>
      <trkpt lat="46.49916" lon="8.28002">
        <ele>1474</ele>
        <time>2020-10-24T07:31:03.937Z</time>
      </trkpt>
      <trkpt lat="46.49919" lon="8.28002">
        <ele>1475</ele>
        <time>2020-10-24T07:31:04.937Z</time>
      </trkpt>
      <trkpt lat="46.49922" lon="8.28001">
        <ele>1475</ele>
        <time>2020-10-24T07:31:05.937Z</time>
      </trkpt>
      <trkpt lat="46.49925" lon="8.28001">
        <ele>1475</ele>
        <time>2020-10-24T07:31:06.936Z</time>
      </trkpt>
      <trkpt lat="46.49928" lon="8.28001">
        <ele>1475</ele>
        <time>2020-10-24T07:31:07.936Z</time>
      </trkpt>
      <trkpt lat="46.4993" lon="8.28001">
        <ele>1476</ele>
        <time>2020-10-24T07:31:08.936Z</time>
      </trkpt>
      <trkpt lat="46.49933" lon="8.28001">
        <ele>1476</ele>
        <time>2020-10-24T07:31:09.937Z</time>
      </trkpt>
      <trkpt lat="46.49935" lon="8.28002">
        <ele>1476</ele>
        <time>2020-10-24T07:31:10.937Z</time>
      </trkpt>
      <trkpt lat="46.49937" lon="8.28004">
        <ele>1477</ele>
        <time>2020-10-24T07:31:11.937Z</time>
      </trkpt>
      <trkpt lat="46.49939" lon="8.28005">
        <ele>1477</ele>
        <time>2020-10-24T07:31:12.937Z</time>
      </trkpt>
      <trkpt lat="46.49941" lon="8.28006">
        <ele>1477</ele>
        <time>2020-10-24T07:31:13.936Z</time>
      </trkpt>
      <trkpt lat="46.49943" lon="8.28007">
        <ele>1477</ele>
        <time>2020-10-24T07:31:14.936Z</time>
      </trkpt>
      <trkpt lat="46.49945" lon="8.28007">
        <ele>1477</ele>
        <time>2020-10-24T07:31:15.936Z</time>
      </trkpt>
      <trkpt lat="46.49948" lon="8.28007">
        <ele>1477</ele>
        <time>2020-10-24T07:31:16.936Z</time>
      </trkpt>
      <trkpt lat="46.49951" lon="8.28006">
        <ele>1477</ele>
        <time>2020-10-24T07:31:17.936Z</time>
      </trkpt>
      <trkpt lat="46.49955" lon="8.28005">
        <ele>1477</ele>
        <time>2020-10-24T07:31:18.936Z</time>
      </trkpt>
      <trkpt lat="46.49959" lon="8.28004">
        <ele>1477</ele>
        <time>2020-10-24T07:31:19.936Z</time>
      </trkpt>
      <trkpt lat="46.49962" lon="8.28003">
        <ele>1477</ele>
        <time>2020-10-24T07:31:20.937Z</time>
      </trkpt>
      <trkpt lat="46.49965" lon="8.28001">
        <ele>1478</ele>
        <time>2020-10-24T07:31:21.936Z</time>
      </trkpt>
      <trkpt lat="46.49968" lon="8.28">
        <ele>1478</ele>
        <time>2020-10-24T07:31:22.937Z</time>
      </trkpt>
      <trkpt lat="46.4997" lon="8.28">
        <ele>1478</ele>
        <time>2020-10-24T07:31:23.937Z</time>
      </trkpt>
      <trkpt lat="46.49972" lon="8.27999">
        <ele>1478</ele>
        <time>2020-10-24T07:31:24.937Z</time>
      </trkpt>
      <trkpt lat="46.49974" lon="8.27999">
        <ele>1478</ele>
        <time>2020-10-24T07:31:25.936Z</time>
      </trkpt>
      <trkpt lat="46.49977" lon="8.28">
        <ele>1479</ele>
        <time>2020-10-24T07:31:26.937Z</time>
      </trkpt>
      <trkpt lat="46.49981" lon="8.28">
        <ele>1479</ele>
        <time>2020-10-24T07:31:27.937Z</time>
      </trkpt>
      <trkpt lat="46.49984" lon="8.27999">
        <ele>1479</ele>
        <time>2020-10-24T07:31:28.937Z</time>
      </trkpt>
      <trkpt lat="46.49987" lon="8.27999">
        <ele>1479</ele>
        <time>2020-10-24T07:31:29.936Z</time>
      </trkpt>
      <trkpt lat="46.49991" lon="8.27999">
        <ele>1479</ele>
        <time>2020-10-24T07:31:30.937Z</time>
      </trkpt>
      <trkpt lat="46.49995" lon="8.27999">
        <ele>1479</ele>
        <time>2020-10-24T07:31:31.936Z</time>
      </trkpt>
      <trkpt lat="46.49998" lon="8.27999">
        <ele>1479</ele>
        <time>2020-10-24T07:31:32.936Z</time>
      </trkpt>
      <trkpt lat="46.5" lon="8.28">
        <ele>1479</ele>
        <time>2020-10-24T07:31:33.937Z</time>
      </trkpt>
      <trkpt lat="46.50004" lon="8.28">
        <ele>1479</ele>
        <time>2020-10-24T07:31:34.937Z</time>
      </trkpt>
      <trkpt lat="46.50007" lon="8.28">
        <ele>1479</ele>
        <time>2020-10-24T07:31:35.937Z</time>
      </trkpt>
      <trkpt lat="46.5001" lon="8.28001">
        <ele>1479</ele>
        <time>2020-10-24T07:31:36.937Z</time>
      </trkpt>
      <trkpt lat="46.50013" lon="8.28001">
        <ele>1479</ele>
        <time>2020-10-24T07:31:37.937Z</time>
      </trkpt>
      <trkpt lat="46.50016" lon="8.28">
        <ele>1479</ele>
        <time>2020-10-24T07:31:38.936Z</time>
      </trkpt>
      <trkpt lat="46.50019" lon="8.27999">
        <ele>1479</ele>
        <time>2020-10-24T07:31:39.937Z</time>
      </trkpt>
      <trkpt lat="46.50022" lon="8.28">
        <ele>1479</ele>
        <time>2020-10-24T07:31:40.937Z</time>
      </trkpt>
      <trkpt lat="46.50025" lon="8.28001">
        <ele>1479</ele>
        <time>2020-10-24T07:31:41.937Z</time>
      </trkpt>
      <trkpt lat="46.50027" lon="8.28002">
        <ele>1479</ele>
        <time>2020-10-24T07:31:42.937Z</time>
      </trkpt>
      <trkpt lat="46.50029" lon="8.28004">
        <ele>1478</ele>
        <time>2020-10-24T07:31:43.937Z</time>
      </trkpt>
      <trkpt lat="46.5003" lon="8.28006">
        <ele>1478</ele>
        <time>2020-10-24T07:31:44.936Z</time>
      </trkpt>
      <trkpt lat="46.5003" lon="8.28008">
        <ele>1478</ele>
        <time>2020-10-24T07:31:45.937Z</time>
      </trkpt>
      <trkpt lat="46.50029" lon="8.28009">
        <ele>1478</ele>
        <time>2020-10-24T07:31:46.937Z</time>
      </trkpt>
      <trkpt lat="46.50027" lon="8.28009">
        <ele>1477</ele>
        <time>2020-10-24T07:31:47.936Z</time>
      </trkpt>
      <trkpt lat="46.50024" lon="8.28007">
        <ele>1477</ele>
        <time>2020-10-24T07:31:48.936Z</time>
      </trkpt>
      <trkpt lat="46.50021" lon="8.28007">
        <ele>1476</ele>
        <time>2020-10-24T07:31:49.936Z</time>
      </trkpt>
      <trkpt lat="46.50018" lon="8.28006">
        <ele>1476</ele>
        <time>2020-10-24T07:31:50.937Z</time>
      </trkpt>
      <trkpt lat="46.50015" lon="8.28006">
        <ele>1476</ele>
        <time>2020-10-24T07:31:51.936Z</time>
      </trkpt>
      <trkpt lat="46.50013" lon="8.28006">
        <ele>1475</ele>
        <time>2020-10-24T07:31:52.936Z</time>
      </trkpt>
      <trkpt lat="46.5001" lon="8.28007">
        <ele>1475</ele>
        <time>2020-10-24T07:31:53.937Z</time>
      </trkpt>
      <trkpt lat="46.50008" lon="8.28008">
        <ele>1475</ele>
        <time>2020-10-24T07:31:54.936Z</time>
      </trkpt>
      <trkpt lat="46.50005" lon="8.28009">
        <ele>1475</ele>
        <time>2020-10-24T07:31:55.937Z</time>
      </trkpt>
      <trkpt lat="46.50003" lon="8.28011">
        <ele>1474</ele>
        <time>2020-10-24T07:31:56.937Z</time>
      </trkpt>
      <trkpt lat="46.5" lon="8.28012">
        <ele>1474</ele>
        <time>2020-10-24T07:31:57.937Z</time>
      </trkpt>
      <trkpt lat="46.49998" lon="8.28014">
        <ele>1474</ele>
        <time>2020-10-24T07:31:58.937Z</time>
      </trkpt>
      <trkpt lat="46.49996" lon="8.28015">
        <ele>1473</ele>
        <time>2020-10-24T07:31:59.937Z</time>
      </trkpt>
      <trkpt lat="46.49994" lon="8.28016">
        <ele>1473</ele>
        <time>2020-10-24T07:32:00.937Z</time>
      </trkpt>
      <trkpt lat="46.49992" lon="8.28016">
        <ele>1473</ele>
        <time>2020-10-24T07:32:01.937Z</time>
      </trkpt>
      <trkpt lat="46.4999" lon="8.28017">
        <ele>1473</ele>
        <time>2020-10-24T07:32:02.936Z</time>
      </trkpt>
      <trkpt lat="46.4999" lon="8.28017">
        <ele>1472</ele>
        <time>2020-10-24T07:32:03.936Z</time>
      </trkpt>
      <trkpt lat="46.49991" lon="8.28016">
        <ele>1472</ele>
        <time>2020-10-24T07:32:04.937Z</time>
      </trkpt>
      <trkpt lat="46.49992" lon="8.28016">
        <ele>1472</ele>
        <time>2020-10-24T07:32:05.936Z</time>
      </trkpt>
      <trkpt lat="46.49993" lon="8.28016">
        <ele>1472</ele>
        <time>2020-10-24T07:32:06.936Z</time>
      </trkpt>
      <trkpt lat="46.49995" lon="8.28015">
        <ele>1472</ele>
        <time>2020-10-24T07:32:07.936Z</time>
      </trkpt>
      <trkpt lat="46.49997" lon="8.28014">
        <ele>1472</ele>
        <time>2020-10-24T07:32:08.936Z</time>
      </trkpt>
      <trkpt lat="46.49998" lon="8.28014">
        <ele>1472</ele>
        <time>2020-10-24T07:32:09.936Z</time>
      </trkpt>
      <trkpt lat="46.5" lon="8.28013">
        <ele>1472</ele>
        <time>2020-10-24T07:32:10.936Z</time>
      </trkpt>
      <trkpt lat="46.50001" lon="8.28013">
        <ele>1472</ele>
        <time>2020-10-24T07:32:11.937Z</time>
      </trkpt>
      <trkpt lat="46.50003" lon="8.28012">
        <ele>1472</ele>
        <time>2020-10-24T07:32:12.937Z</time>
      </trkpt>
      <trkpt lat="46.50004" lon="8.28012">
        <ele>1472</ele>
        <time>2020-10-24T07:32:13.937Z</time>
      </trkpt>
      <trkpt lat="46.50006" lon="8.28012">
        <ele>1473</ele>
        <time>2020-10-24T07:32:14.936Z</time>
      </trkpt>
      <trkpt lat="46.50008" lon="8.28012">
        <ele>1473</ele>
        <time>2020-10-24T07:32:15.936Z</time>
      </trkpt>
      <trkpt lat="46.5001" lon="8.28011">
        <ele>1473</ele>
        <time>2020-10-24T07:32:16.936Z</time>
      </trkpt>
      <trkpt lat="46.50013" lon="8.28011">
        <ele>1473</ele>
        <time>2020-10-24T07:32:17.937Z</time>
      </trkpt>
      <trkpt lat="46.50015" lon="8.28011">
        <ele>1473</ele>
        <time>2020-10-24T07:32:18.936Z</time>
      </trkpt>
      <trkpt lat="46.50017" lon="8.28012">
        <ele>1473</ele>
        <time>2020-10-24T07:32:19.936Z</time>
      </trkpt>
      <trkpt lat="46.50019" lon="8.28012">
        <ele>1473</ele>
        <time>2020-10-24T07:32:20.937Z</time>
      </trkpt>
      <trkpt lat="46.50021" lon="8.28012">
        <ele>1473</ele>
        <time>2020-10-24T07:32:21.937Z</time>
      </trkpt>
      <trkpt lat="46.50024" lon="8.28012">
        <ele>1473</ele>
        <time>2020-10-24T07:32:22.936Z</time>
      </trkpt>
      <trkpt lat="46.50026" lon="8.28012">
        <ele>1473</ele>
        <time>2020-10-24T07:32:23.936Z</time>
      </trkpt>
      <trkpt lat="46.50029" lon="8.28012">
        <ele>1473</ele>
        <time>2020-10-24T07:32:24.936Z</time>
      </trkpt>
      <trkpt lat="46.50031" lon="8.28012">
        <ele>1473</ele>
        <time>2020-10-24T07:32:25.936Z</time>
      </trkpt>
      <trkpt lat="46.50033" lon="8.28012">
        <ele>1473</ele>
        <time>2020-10-24T07:32:26.936Z</time>
      </trkpt>
      <trkpt lat="46.50035" lon="8.28012">
        <ele>1473</ele>
        <time>2020-10-24T07:32:27.936Z</time>
      </trkpt>
      <trkpt lat="46.50036" lon="8.28011">
        <ele>1473</ele>
        <time>2020-10-24T07:32:28.936Z</time>
      </trkpt>
      <trkpt lat="46.50038" lon="8.28011">
        <ele>1473</ele>
        <time>2020-10-24T07:32:29.936Z</time>
      </trkpt>
      <trkpt lat="46.50038" lon="8.28011">
        <ele>1473</ele>
        <time>2020-10-24T07:32:30.936Z</time>
      </trkpt>
      <trkpt lat="46.50039" lon="8.28011">
        <ele>1473</ele>
        <time>2020-10-24T07:32:31.936Z</time>
      </trkpt>
      <trkpt lat="46.5004" lon="8.28012">
        <ele>1473</ele>
        <time>2020-10-24T07:32:32.936Z</time>
      </trkpt>
      <trkpt lat="46.5004" lon="8.28012">
        <ele>1473</ele>
        <time>2020-10-24T07:32:33.936Z</time>
      </trkpt>
      <trkpt lat="46.50041" lon="8.28013">
        <ele>1473</ele>
        <time>2020-10-24T07:32:34.937Z</time>
      </trkpt>
      <trkpt lat="46.50041" lon="8.28013">
        <ele>1472</ele>
        <time>2020-10-24T07:32:35.936Z</time>
      </trkpt>
      <trkpt lat="46.50041" lon="8.28012">
        <ele>1472</ele>
        <time>2020-10-24T07:32:36.936Z</time>
      </trkpt>
      <trkpt lat="46.50041" lon="8.28011">
        <ele>1472</ele>
        <time>2020-10-24T07:32:37.936Z</time>
      </trkpt>
      <trkpt lat="46.50041" lon="8.2801">
        <ele>1471</ele>
        <time>2020-10-24T07:32:38.936Z</time>
      </trkpt>
      <trkpt lat="46.5004" lon="8.28008">
        <ele>1471</ele>
        <time>2020-10-24T07:32:39.936Z</time>
      </trkpt>
      <trkpt lat="46.50039" lon="8.28007">
        <ele>1471</ele>
        <time>2020-10-24T07:32:40.937Z</time>
      </trkpt>
      <trkpt lat="46.50039" lon="8.28006">
        <ele>1471</ele>
        <time>2020-10-24T07:32:41.937Z</time>
      </trkpt>
      <trkpt lat="46.50039" lon="8.28006">
        <ele>1471</ele>
        <time>2020-10-24T07:32:42.937Z</time>
      </trkpt>
      <trkpt lat="46.50041" lon="8.28007">
        <ele>1471</ele>
        <time>2020-10-24T07:32:43.937Z</time>
      </trkpt>
      <trkpt lat="46.50042" lon="8.28009">
        <ele>1471</ele>
        <time>2020-10-24T07:32:44.937Z</time>
      </trkpt>
      <trkpt lat="46.50044" lon="8.28011">
        <ele>1471</ele>
        <time>2020-10-24T07:32:45.936Z</time>
      </trkpt>
      <trkpt lat="46.50045" lon="8.28013">
        <ele>1471</ele>
        <time>2020-10-24T07:32:46.936Z</time>
      </trkpt>
      <trkpt lat="46.50047" lon="8.28014">
        <ele>1470</ele>
        <time>2020-10-24T07:32:47.936Z</time>
      </trkpt>
      <trkpt lat="46.50048" lon="8.28015">
        <ele>1470</ele>
        <time>2020-10-24T07:32:48.936Z</time>
      </trkpt>
      <trkpt lat="46.50048" lon="8.28016">
        <ele>1469</ele>
        <time>2020-10-24T07:32:49.936Z</time>
      </trkpt>
      <trkpt lat="46.50049" lon="8.28018">
        <ele>1468</ele>
        <time>2020-10-24T07:32:50.937Z</time>
      </trkpt>
      <trkpt lat="46.50048" lon="8.2802">
        <ele>1468</ele>
        <time>2020-10-24T07:32:51.937Z</time>
      </trkpt>
      <trkpt lat="46.50048" lon="8.28022">
        <ele>1466</ele>
        <time>2020-10-24T07:32:52.936Z</time>
      </trkpt>
      <trkpt lat="46.50047" lon="8.28024">
        <ele>1465</ele>
        <time>2020-10-24T07:32:53.936Z</time>
      </trkpt>
      <trkpt lat="46.50046" lon="8.28026">
        <ele>1463</ele>
        <time>2020-10-24T07:32:54.937Z</time>
      </trkpt>
      <trkpt lat="46.50045" lon="8.28027">
        <ele>1461</ele>
        <time>2020-10-24T07:32:55.936Z</time>
      </trkpt>
      <trkpt lat="46.50044" lon="8.28028">
        <ele>1459</ele>
        <time>2020-10-24T07:32:56.936Z</time>
      </trkpt>
      <trkpt lat="46.50043" lon="8.28029">
        <ele>1457</ele>
        <time>2020-10-24T07:32:57.937Z</time>
      </trkpt>
      <trkpt lat="46.50041" lon="8.2803">
        <ele>1456</ele>
        <time>2020-10-24T07:32:58.937Z</time>
      </trkpt>
      <trkpt lat="46.50039" lon="8.28031">
        <ele>1454</ele>
        <time>2020-10-24T07:32:59.937Z</time>
      </trkpt>
      <trkpt lat="46.50038" lon="8.28031">
        <ele>1452</ele>
        <time>2020-10-24T07:33:00.936Z</time>
      </trkpt>
      <trkpt lat="46.50035" lon="8.28032">
        <ele>1451</ele>
        <time>2020-10-24T07:33:01.937Z</time>
      </trkpt>
      <trkpt lat="46.50033" lon="8.28032">
        <ele>1450</ele>
        <time>2020-10-24T07:33:02.937Z</time>
      </trkpt>
      <trkpt lat="46.5003" lon="8.28033">
        <ele>1450</ele>
        <time>2020-10-24T07:33:03.936Z</time>
      </trkpt>
      <trkpt lat="46.50028" lon="8.28034">
        <ele>1449</ele>
        <time>2020-10-24T07:33:04.937Z</time>
      </trkpt>
      <trkpt lat="46.50026" lon="8.28035">
        <ele>1448</ele>
        <time>2020-10-24T07:33:05.937Z</time>
      </trkpt>
      <trkpt lat="46.50024" lon="8.28037">
        <ele>1448</ele>
        <time>2020-10-24T07:33:06.937Z</time>
      </trkpt>
      <trkpt lat="46.50022" lon="8.28038">
        <ele>1447</ele>
        <time>2020-10-24T07:33:07.937Z</time>
      </trkpt>
      <trkpt lat="46.50021" lon="8.2804">
        <ele>1446</ele>
        <time>2020-10-24T07:33:08.937Z</time>
      </trkpt>
      <trkpt lat="46.50019" lon="8.28042">
        <ele>1446</ele>
        <time>2020-10-24T07:33:09.937Z</time>
      </trkpt>
      <trkpt lat="46.50016" lon="8.28044">
        <ele>1445</ele>
        <time>2020-10-24T07:33:10.937Z</time>
      </trkpt>
      <trkpt lat="46.50014" lon="8.28046">
        <ele>1445</ele>
        <time>2020-10-24T07:33:11.937Z</time>
      </trkpt>
      <trkpt lat="46.50013" lon="8.28048">
        <ele>1444</ele>
        <time>2020-10-24T07:33:12.937Z</time>
      </trkpt>
      <trkpt lat="46.50012" lon="8.2805">
        <ele>1443</ele>
        <time>2020-10-24T07:33:13.936Z</time>
      </trkpt>
      <trkpt lat="46.5001" lon="8.28051">
        <ele>1443</ele>
        <time>2020-10-24T07:33:14.936Z</time>
      </trkpt>
      <trkpt lat="46.50008" lon="8.28053">
        <ele>1442</ele>
        <time>2020-10-24T07:33:15.937Z</time>
      </trkpt>
      <trkpt lat="46.50006" lon="8.28055">
        <ele>1442</ele>
        <time>2020-10-24T07:33:16.936Z</time>
      </trkpt>
      <trkpt lat="46.50007" lon="8.28057">
        <ele>1440</ele>
        <time>2020-10-24T07:33:17.937Z</time>
      </trkpt>
      <trkpt lat="46.50006" lon="8.28059">
        <ele>1439</ele>
        <time>2020-10-24T07:33:18.937Z</time>
      </trkpt>
      <trkpt lat="46.50004" lon="8.28061">
        <ele>1438</ele>
        <time>2020-10-24T07:33:19.937Z</time>
      </trkpt>
      <trkpt lat="46.50001" lon="8.28063">
        <ele>1437</ele>
        <time>2020-10-24T07:33:20.937Z</time>
      </trkpt>
      <trkpt lat="46.49998" lon="8.28065">
        <ele>1436</ele>
        <time>2020-10-24T07:33:21.937Z</time>
      </trkpt>
      <trkpt lat="46.49996" lon="8.28066">
        <ele>1435</ele>
        <time>2020-10-24T07:33:22.936Z</time>
      </trkpt>
      <trkpt lat="46.49993" lon="8.28068">
        <ele>1434</ele>
        <time>2020-10-24T07:33:23.937Z</time>
      </trkpt>
      <trkpt lat="46.4999" lon="8.28069">
        <ele>1434</ele>
        <time>2020-10-24T07:33:24.936Z</time>
      </trkpt>
      <trkpt lat="46.49987" lon="8.28071">
        <ele>1433</ele>
        <time>2020-10-24T07:33:25.936Z</time>
      </trkpt>
      <trkpt lat="46.49985" lon="8.28073">
        <ele>1432</ele>
        <time>2020-10-24T07:33:26.937Z</time>
      </trkpt>
      <trkpt lat="46.49983" lon="8.28074">
        <ele>1431</ele>
        <time>2020-10-24T07:33:27.937Z</time>
      </trkpt>
      <trkpt lat="46.49981" lon="8.28077">
        <ele>1430</ele>
        <time>2020-10-24T07:33:28.936Z</time>
      </trkpt>
      <trkpt lat="46.49979" lon="8.28079">
        <ele>1429</ele>
        <time>2020-10-24T07:33:29.936Z</time>
      </trkpt>
      <trkpt lat="46.49977" lon="8.28081">
        <ele>1428</ele>
        <time>2020-10-24T07:33:30.936Z</time>
      </trkpt>
      <trkpt lat="46.49974" lon="8.28082">
        <ele>1427</ele>
        <time>2020-10-24T07:33:31.937Z</time>
      </trkpt>
      <trkpt lat="46.49971" lon="8.28084">
        <ele>1427</ele>
        <time>2020-10-24T07:33:32.936Z</time>
      </trkpt>
      <trkpt lat="46.49968" lon="8.28085">
        <ele>1427</ele>
        <time>2020-10-24T07:33:33.937Z</time>
      </trkpt>
      <trkpt lat="46.49965" lon="8.28086">
        <ele>1427</ele>
        <time>2020-10-24T07:33:34.937Z</time>
      </trkpt>
      <trkpt lat="46.49963" lon="8.28088">
        <ele>1427</ele>
        <time>2020-10-24T07:33:35.937Z</time>
      </trkpt>
      <trkpt lat="46.4996" lon="8.28089">
        <ele>1426</ele>
        <time>2020-10-24T07:33:36.936Z</time>
      </trkpt>
      <trkpt lat="46.49957" lon="8.28091">
        <ele>1426</ele>
        <time>2020-10-24T07:33:37.936Z</time>
      </trkpt>
      <trkpt lat="46.49954" lon="8.28092">
        <ele>1426</ele>
        <time>2020-10-24T07:33:38.936Z</time>
      </trkpt>
      <trkpt lat="46.49952" lon="8.28093">
        <ele>1425</ele>
        <time>2020-10-24T07:33:39.937Z</time>
      </trkpt>
      <trkpt lat="46.4995" lon="8.28095">
        <ele>1424</ele>
        <time>2020-10-24T07:33:40.936Z</time>
      </trkpt>
      <trkpt lat="46.49948" lon="8.28097">
        <ele>1423</ele>
        <time>2020-10-24T07:33:41.937Z</time>
      </trkpt>
      <trkpt lat="46.49946" lon="8.28099">
        <ele>1423</ele>
        <time>2020-10-24T07:33:42.937Z</time>
      </trkpt>
      <trkpt lat="46.49945" lon="8.28101">
        <ele>1422</ele>
        <time>2020-10-24T07:33:43.937Z</time>
      </trkpt>
      <trkpt lat="46.49943" lon="8.28104">
        <ele>1421</ele>
        <time>2020-10-24T07:33:44.937Z</time>
      </trkpt>
      <trkpt lat="46.49943" lon="8.28108">
        <ele>1421</ele>
        <time>2020-10-24T07:33:45.936Z</time>
      </trkpt>
      <trkpt lat="46.49942" lon="8.28112">
        <ele>1420</ele>
        <time>2020-10-24T07:33:46.936Z</time>
      </trkpt>
      <trkpt lat="46.49942" lon="8.28116">
        <ele>1420</ele>
        <time>2020-10-24T07:33:47.936Z</time>
      </trkpt>
      <trkpt lat="46.49942" lon="8.28121">
        <ele>1419</ele>
        <time>2020-10-24T07:33:48.937Z</time>
      </trkpt>
      <trkpt lat="46.49942" lon="8.28125">
        <ele>1419</ele>
        <time>2020-10-24T07:33:49.936Z</time>
      </trkpt>
      <trkpt lat="46.49942" lon="8.28129">
        <ele>1419</ele>
        <time>2020-10-24T07:33:50.936Z</time>
      </trkpt>
      <trkpt lat="46.49942" lon="8.28133">
        <ele>1418</ele>
        <time>2020-10-24T07:33:51.937Z</time>
      </trkpt>
      <trkpt lat="46.49942" lon="8.28137">
        <ele>1418</ele>
        <time>2020-10-24T07:33:52.937Z</time>
      </trkpt>
      <trkpt lat="46.49941" lon="8.28141">
        <ele>1417</ele>
        <time>2020-10-24T07:33:53.937Z</time>
      </trkpt>
      <trkpt lat="46.49941" lon="8.28145">
        <ele>1417</ele>
        <time>2020-10-24T07:33:54.937Z</time>
      </trkpt>
      <trkpt lat="46.4994" lon="8.28149">
        <ele>1416</ele>
        <time>2020-10-24T07:33:55.937Z</time>
      </trkpt>
      <trkpt lat="46.49939" lon="8.28153">
        <ele>1415</ele>
        <time>2020-10-24T07:33:56.937Z</time>
      </trkpt>
      <trkpt lat="46.49938" lon="8.28157">
        <ele>1414</ele>
        <time>2020-10-24T07:33:57.937Z</time>
      </trkpt>
      <trkpt lat="46.49938" lon="8.28161">
        <ele>1414</ele>
        <time>2020-10-24T07:33:58.937Z</time>
      </trkpt>
      <trkpt lat="46.49937" lon="8.28166">
        <ele>1413</ele>
        <time>2020-10-24T07:33:59.937Z</time>
      </trkpt>
      <trkpt lat="46.49937" lon="8.2817">
        <ele>1413</ele>
        <time>2020-10-24T07:34:00.937Z</time>
      </trkpt>
      <trkpt lat="46.49938" lon="8.28173">
        <ele>1413</ele>
        <time>2020-10-24T07:34:01.937Z</time>
      </trkpt>
      <trkpt lat="46.49938" lon="8.28177">
        <ele>1413</ele>
        <time>2020-10-24T07:34:02.937Z</time>
      </trkpt>
      <trkpt lat="46.49939" lon="8.2818">
        <ele>1413</ele>
        <time>2020-10-24T07:34:03.937Z</time>
      </trkpt>
      <trkpt lat="46.4994" lon="8.28183">
        <ele>1413</ele>
        <time>2020-10-24T07:34:04.937Z</time>
      </trkpt>
      <trkpt lat="46.4994" lon="8.28186">
        <ele>1412</ele>
        <time>2020-10-24T07:34:05.937Z</time>
      </trkpt>
      <trkpt lat="46.49941" lon="8.28189">
        <ele>1412</ele>
        <time>2020-10-24T07:34:06.937Z</time>
      </trkpt>
      <trkpt lat="46.4994" lon="8.28192">
        <ele>1412</ele>
        <time>2020-10-24T07:34:07.937Z</time>
      </trkpt>
      <trkpt lat="46.4994" lon="8.28194">
        <ele>1412</ele>
        <time>2020-10-24T07:34:08.936Z</time>
      </trkpt>
      <trkpt lat="46.4994" lon="8.28197">
        <ele>1412</ele>
        <time>2020-10-24T07:34:09.937Z</time>
      </trkpt>
      <trkpt lat="46.49939" lon="8.282">
        <ele>1412</ele>
        <time>2020-10-24T07:34:10.937Z</time>
      </trkpt>
      <trkpt lat="46.49939" lon="8.28202">
        <ele>1412</ele>
        <time>2020-10-24T07:34:11.937Z</time>
      </trkpt>
      <trkpt lat="46.49938" lon="8.28205">
        <ele>1412</ele>
        <time>2020-10-24T07:34:12.937Z</time>
      </trkpt>
      <trkpt lat="46.49938" lon="8.28208">
        <ele>1412</ele>
        <time>2020-10-24T07:34:13.936Z</time>
      </trkpt>
      <trkpt lat="46.49938" lon="8.2821">
        <ele>1412</ele>
        <time>2020-10-24T07:34:14.937Z</time>
      </trkpt>
      <trkpt lat="46.49938" lon="8.28213">
        <ele>1412</ele>
        <time>2020-10-24T07:34:15.937Z</time>
      </trkpt>
      <trkpt lat="46.49937" lon="8.28215">
        <ele>1412</ele>
        <time>2020-10-24T07:34:16.937Z</time>
      </trkpt>
      <trkpt lat="46.49937" lon="8.28217">
        <ele>1412</ele>
        <time>2020-10-24T07:34:17.937Z</time>
      </trkpt>
      <trkpt lat="46.49936" lon="8.28219">
        <ele>1412</ele>
        <time>2020-10-24T07:34:18.937Z</time>
      </trkpt>
      <trkpt lat="46.49935" lon="8.28222">
        <ele>1412</ele>
        <time>2020-10-24T07:34:19.937Z</time>
      </trkpt>
      <trkpt lat="46.49935" lon="8.28224">
        <ele>1412</ele>
        <time>2020-10-24T07:34:20.937Z</time>
      </trkpt>
      <trkpt lat="46.49934" lon="8.28227">
        <ele>1412</ele>
        <time>2020-10-24T07:34:21.937Z</time>
      </trkpt>
      <trkpt lat="46.49934" lon="8.2823">
        <ele>1412</ele>
        <time>2020-10-24T07:34:22.936Z</time>
      </trkpt>
      <trkpt lat="46.49934" lon="8.28232">
        <ele>1412</ele>
        <time>2020-10-24T07:34:23.936Z</time>
      </trkpt>
      <trkpt lat="46.49934" lon="8.28235">
        <ele>1412</ele>
        <time>2020-10-24T07:34:24.937Z</time>
      </trkpt>
      <trkpt lat="46.49934" lon="8.28238">
        <ele>1412</ele>
        <time>2020-10-24T07:34:25.937Z</time>
      </trkpt>
      <trkpt lat="46.49934" lon="8.2824">
        <ele>1412</ele>
        <time>2020-10-24T07:34:26.936Z</time>
      </trkpt>
      <trkpt lat="46.49935" lon="8.28243">
        <ele>1412</ele>
        <time>2020-10-24T07:34:27.936Z</time>
      </trkpt>
      <trkpt lat="46.49935" lon="8.28245">
        <ele>1412</ele>
        <time>2020-10-24T07:34:28.937Z</time>
      </trkpt>
      <trkpt lat="46.49936" lon="8.28248">
        <ele>1412</ele>
        <time>2020-10-24T07:34:29.937Z</time>
      </trkpt>
      <trkpt lat="46.49938" lon="8.2825">
        <ele>1412</ele>
        <time>2020-10-24T07:34:30.937Z</time>
      </trkpt>
      <trkpt lat="46.49939" lon="8.28252">
        <ele>1413</ele>
        <time>2020-10-24T07:34:31.936Z</time>
      </trkpt>
      <trkpt lat="46.49941" lon="8.28254">
        <ele>1413</ele>
        <time>2020-10-24T07:34:32.937Z</time>
      </trkpt>
      <trkpt lat="46.49942" lon="8.28256">
        <ele>1413</ele>
        <time>2020-10-24T07:34:33.937Z</time>
      </trkpt>
      <trkpt lat="46.49944" lon="8.28257">
        <ele>1413</ele>
        <time>2020-10-24T07:34:34.937Z</time>
      </trkpt>
      <trkpt lat="46.49945" lon="8.28258">
        <ele>1413</ele>
        <time>2020-10-24T07:34:35.937Z</time>
      </trkpt>
      <trkpt lat="46.49947" lon="8.2826">
        <ele>1413</ele>
        <time>2020-10-24T07:34:36.937Z</time>
      </trkpt>
      <trkpt lat="46.49949" lon="8.28261">
        <ele>1413</ele>
        <time>2020-10-24T07:34:37.937Z</time>
      </trkpt>
      <trkpt lat="46.49951" lon="8.28262">
        <ele>1413</ele>
        <time>2020-10-24T07:34:38.936Z</time>
      </trkpt>
      <trkpt lat="46.49953" lon="8.28263">
        <ele>1413</ele>
        <time>2020-10-24T07:34:39.936Z</time>
      </trkpt>
      <trkpt lat="46.49954" lon="8.28264">
        <ele>1414</ele>
        <time>2020-10-24T07:34:40.937Z</time>
      </trkpt>
      <trkpt lat="46.49956" lon="8.28265">
        <ele>1414</ele>
        <time>2020-10-24T07:34:41.937Z</time>
      </trkpt>
      <trkpt lat="46.49958" lon="8.28266">
        <ele>1414</ele>
        <time>2020-10-24T07:34:42.936Z</time>
      </trkpt>
      <trkpt lat="46.4996" lon="8.28267">
        <ele>1414</ele>
        <time>2020-10-24T07:34:43.937Z</time>
      </trkpt>
      <trkpt lat="46.49961" lon="8.28268">
        <ele>1415</ele>
        <time>2020-10-24T07:34:44.936Z</time>
      </trkpt>
      <trkpt lat="46.49963" lon="8.28269">
        <ele>1415</ele>
        <time>2020-10-24T07:34:45.937Z</time>
      </trkpt>
      <trkpt lat="46.49965" lon="8.2827">
        <ele>1415</ele>
        <time>2020-10-24T07:34:46.937Z</time>
      </trkpt>
      <trkpt lat="46.49966" lon="8.28271">
        <ele>1415</ele>
        <time>2020-10-24T07:34:47.937Z</time>
      </trkpt>
      <trkpt lat="46.49968" lon="8.28272">
        <ele>1416</ele>
        <time>2020-10-24T07:34:48.937Z</time>
      </trkpt>
      <trkpt lat="46.4997" lon="8.28273">
        <ele>1416</ele>
        <time>2020-10-24T07:34:49.937Z</time>
      </trkpt>
      <trkpt lat="46.49971" lon="8.28274">
        <ele>1416</ele>
        <time>2020-10-24T07:34:50.937Z</time>
      </trkpt>
      <trkpt lat="46.49973" lon="8.28274">
        <ele>1417</ele>
        <time>2020-10-24T07:34:51.937Z</time>
      </trkpt>
      <trkpt lat="46.49975" lon="8.28275">
        <ele>1417</ele>
        <time>2020-10-24T07:34:52.937Z</time>
      </trkpt>
      <trkpt lat="46.49977" lon="8.28276">
        <ele>1417</ele>
        <time>2020-10-24T07:34:53.937Z</time>
      </trkpt>
      <trkpt lat="46.49978" lon="8.28276">
        <ele>1417</ele>
        <time>2020-10-24T07:34:54.937Z</time>
      </trkpt>
      <trkpt lat="46.4998" lon="8.28277">
        <ele>1418</ele>
        <time>2020-10-24T07:34:55.936Z</time>
      </trkpt>
      <trkpt lat="46.49982" lon="8.28278">
        <ele>1418</ele>
        <time>2020-10-24T07:34:56.936Z</time>
      </trkpt>
      <trkpt lat="46.49984" lon="8.28279">
        <ele>1418</ele>
        <time>2020-10-24T07:34:57.937Z</time>
      </trkpt>
      <trkpt lat="46.49986" lon="8.2828">
        <ele>1418</ele>
        <time>2020-10-24T07:34:58.936Z</time>
      </trkpt>
      <trkpt lat="46.49987" lon="8.2828">
        <ele>1419</ele>
        <time>2020-10-24T07:34:59.937Z</time>
      </trkpt>
      <trkpt lat="46.49989" lon="8.28281">
        <ele>1419</ele>
        <time>2020-10-24T07:35:00.937Z</time>
      </trkpt>
      <trkpt lat="46.49991" lon="8.28281">
        <ele>1419</ele>
        <time>2020-10-24T07:35:01.937Z</time>
      </trkpt>
      <trkpt lat="46.49993" lon="8.28282">
        <ele>1420</ele>
        <time>2020-10-24T07:35:02.936Z</time>
      </trkpt>
      <trkpt lat="46.49995" lon="8.28282">
        <ele>1420</ele>
        <time>2020-10-24T07:35:03.937Z</time>
      </trkpt>
      <trkpt lat="46.49996" lon="8.28283">
        <ele>1420</ele>
        <time>2020-10-24T07:35:04.936Z</time>
      </trkpt>
      <trkpt lat="46.49998" lon="8.28284">
        <ele>1420</ele>
        <time>2020-10-24T07:35:05.936Z</time>
      </trkpt>
      <trkpt lat="46.49999" lon="8.28285">
        <ele>1420</ele>
        <time>2020-10-24T07:35:06.937Z</time>
      </trkpt>
      <trkpt lat="46.50001" lon="8.28286">
        <ele>1420</ele>
        <time>2020-10-24T07:35:07.937Z</time>
      </trkpt>
      <trkpt lat="46.50003" lon="8.28287">
        <ele>1420</ele>
        <time>2020-10-24T07:35:08.937Z</time>
      </trkpt>
      <trkpt lat="46.50005" lon="8.28289">
        <ele>1420</ele>
        <time>2020-10-24T07:35:09.937Z</time>
      </trkpt>
      <trkpt lat="46.50006" lon="8.2829">
        <ele>1420</ele>
        <time>2020-10-24T07:35:10.936Z</time>
      </trkpt>
      <trkpt lat="46.50008" lon="8.28291">
        <ele>1420</ele>
        <time>2020-10-24T07:35:11.936Z</time>
      </trkpt>
      <trkpt lat="46.5001" lon="8.28293">
        <ele>1421</ele>
        <time>2020-10-24T07:35:12.937Z</time>
      </trkpt>
      <trkpt lat="46.50011" lon="8.28294">
        <ele>1421</ele>
        <time>2020-10-24T07:35:13.937Z</time>
      </trkpt>
      <trkpt lat="46.50013" lon="8.28295">
        <ele>1421</ele>
        <time>2020-10-24T07:35:14.937Z</time>
      </trkpt>
      <trkpt lat="46.50015" lon="8.28297">
        <ele>1421</ele>
        <time>2020-10-24T07:35:15.937Z</time>
      </trkpt>
      <trkpt lat="46.50016" lon="8.28298">
        <ele>1420</ele>
        <time>2020-10-24T07:35:16.937Z</time>
      </trkpt>
      <trkpt lat="46.50018" lon="8.283">
        <ele>1421</ele>
        <time>2020-10-24T07:35:17.937Z</time>
      </trkpt>
      <trkpt lat="46.50019" lon="8.28301">
        <ele>1421</ele>
        <time>2020-10-24T07:35:18.937Z</time>
      </trkpt>
      <trkpt lat="46.50021" lon="8.28303">
        <ele>1421</ele>
        <time>2020-10-24T07:35:19.937Z</time>
      </trkpt>
      <trkpt lat="46.50023" lon="8.28304">
        <ele>1421</ele>
        <time>2020-10-24T07:35:20.936Z</time>
      </trkpt>
      <trkpt lat="46.50024" lon="8.28305">
        <ele>1422</ele>
        <time>2020-10-24T07:35:21.937Z</time>
      </trkpt>
      <trkpt lat="46.50025" lon="8.28307">
        <ele>1422</ele>
        <time>2020-10-24T07:35:22.937Z</time>
      </trkpt>
      <trkpt lat="46.50027" lon="8.28307">
        <ele>1422</ele>
        <time>2020-10-24T07:35:23.937Z</time>
      </trkpt>
      <trkpt lat="46.50028" lon="8.28309">
        <ele>1422</ele>
        <time>2020-10-24T07:35:24.936Z</time>
      </trkpt>
      <trkpt lat="46.5003" lon="8.2831">
        <ele>1422</ele>
        <time>2020-10-24T07:35:25.937Z</time>
      </trkpt>
      <trkpt lat="46.50032" lon="8.2831">
        <ele>1423</ele>
        <time>2020-10-24T07:35:26.937Z</time>
      </trkpt>
      <trkpt lat="46.50033" lon="8.28311">
        <ele>1423</ele>
        <time>2020-10-24T07:35:27.937Z</time>
      </trkpt>
      <trkpt lat="46.50035" lon="8.28312">
        <ele>1423</ele>
        <time>2020-10-24T07:35:28.936Z</time>
      </trkpt>
      <trkpt lat="46.50036" lon="8.28313">
        <ele>1423</ele>
        <time>2020-10-24T07:35:29.937Z</time>
      </trkpt>
      <trkpt lat="46.50038" lon="8.28315">
        <ele>1423</ele>
        <time>2020-10-24T07:35:30.937Z</time>
      </trkpt>
      <trkpt lat="46.50039" lon="8.28316">
        <ele>1423</ele>
        <time>2020-10-24T07:35:31.936Z</time>
      </trkpt>
      <trkpt lat="46.50041" lon="8.28316">
        <ele>1423</ele>
        <time>2020-10-24T07:35:32.937Z</time>
      </trkpt>
      <trkpt lat="46.50043" lon="8.28317">
        <ele>1423</ele>
        <time>2020-10-24T07:35:33.936Z</time>
      </trkpt>
      <trkpt lat="46.50044" lon="8.28318">
        <ele>1423</ele>
        <time>2020-10-24T07:35:34.936Z</time>
      </trkpt>
      <trkpt lat="46.50046" lon="8.28318">
        <ele>1423</ele>
        <time>2020-10-24T07:35:35.937Z</time>
      </trkpt>
      <trkpt lat="46.50048" lon="8.28318">
        <ele>1422</ele>
        <time>2020-10-24T07:35:36.937Z</time>
      </trkpt>
      <trkpt lat="46.50049" lon="8.28319">
        <ele>1422</ele>
        <time>2020-10-24T07:35:37.937Z</time>
      </trkpt>
      <trkpt lat="46.50051" lon="8.28319">
        <ele>1423</ele>
        <time>2020-10-24T07:35:38.937Z</time>
      </trkpt>
      <trkpt lat="46.50053" lon="8.2832">
        <ele>1423</ele>
        <time>2020-10-24T07:35:39.937Z</time>
      </trkpt>
      <trkpt lat="46.50054" lon="8.2832">
        <ele>1423</ele>
        <time>2020-10-24T07:35:40.936Z</time>
      </trkpt>
      <trkpt lat="46.50056" lon="8.28321">
        <ele>1424</ele>
        <time>2020-10-24T07:35:41.937Z</time>
      </trkpt>
      <trkpt lat="46.50058" lon="8.28322">
        <ele>1424</ele>
        <time>2020-10-24T07:35:42.936Z</time>
      </trkpt>
      <trkpt lat="46.50059" lon="8.28323">
        <ele>1425</ele>
        <time>2020-10-24T07:35:43.937Z</time>
      </trkpt>
      <trkpt lat="46.50061" lon="8.28324">
        <ele>1425</ele>
        <time>2020-10-24T07:35:44.937Z</time>
      </trkpt>
      <trkpt lat="46.50063" lon="8.28325">
        <ele>1425</ele>
        <time>2020-10-24T07:35:45.937Z</time>
      </trkpt>
      <trkpt lat="46.50064" lon="8.28326">
        <ele>1425</ele>
        <time>2020-10-24T07:35:46.936Z</time>
      </trkpt>
      <trkpt lat="46.50066" lon="8.28328">
        <ele>1425</ele>
        <time>2020-10-24T07:35:47.937Z</time>
      </trkpt>
      <trkpt lat="46.50067" lon="8.2833">
        <ele>1425</ele>
        <time>2020-10-24T07:35:48.937Z</time>
      </trkpt>
      <trkpt lat="46.50068" lon="8.28331">
        <ele>1425</ele>
        <time>2020-10-24T07:35:49.936Z</time>
      </trkpt>
      <trkpt lat="46.5007" lon="8.28333">
        <ele>1425</ele>
        <time>2020-10-24T07:35:50.937Z</time>
      </trkpt>
      <trkpt lat="46.50071" lon="8.28335">
        <ele>1425</ele>
        <time>2020-10-24T07:35:51.937Z</time>
      </trkpt>
      <trkpt lat="46.50072" lon="8.28337">
        <ele>1425</ele>
        <time>2020-10-24T07:35:52.937Z</time>
      </trkpt>
      <trkpt lat="46.50073" lon="8.28339">
        <ele>1425</ele>
        <time>2020-10-24T07:35:53.937Z</time>
      </trkpt>
      <trkpt lat="46.50074" lon="8.28342">
        <ele>1425</ele>
        <time>2020-10-24T07:35:54.937Z</time>
      </trkpt>
      <trkpt lat="46.50075" lon="8.28344">
        <ele>1425</ele>
        <time>2020-10-24T07:35:55.937Z</time>
      </trkpt>
      <trkpt lat="46.50075" lon="8.28347">
        <ele>1425</ele>
        <time>2020-10-24T07:35:56.937Z</time>
      </trkpt>
      <trkpt lat="46.50076" lon="8.28349">
        <ele>1426</ele>
        <time>2020-10-24T07:35:57.937Z</time>
      </trkpt>
      <trkpt lat="46.50076" lon="8.28352">
        <ele>1426</ele>
        <time>2020-10-24T07:35:58.936Z</time>
      </trkpt>
      <trkpt lat="46.50077" lon="8.28355">
        <ele>1426</ele>
        <time>2020-10-24T07:35:59.937Z</time>
      </trkpt>
      <trkpt lat="46.50077" lon="8.28357">
        <ele>1426</ele>
        <time>2020-10-24T07:36:00.937Z</time>
      </trkpt>
      <trkpt lat="46.50077" lon="8.2836">
        <ele>1426</ele>
        <time>2020-10-24T07:36:01.937Z</time>
      </trkpt>
      <trkpt lat="46.50076" lon="8.28362">
        <ele>1427</ele>
        <time>2020-10-24T07:36:02.937Z</time>
      </trkpt>
      <trkpt lat="46.50076" lon="8.28365">
        <ele>1427</ele>
        <time>2020-10-24T07:36:03.937Z</time>
      </trkpt>
      <trkpt lat="46.50076" lon="8.28367">
        <ele>1427</ele>
        <time>2020-10-24T07:36:04.937Z</time>
      </trkpt>
      <trkpt lat="46.50076" lon="8.2837">
        <ele>1428</ele>
        <time>2020-10-24T07:36:05.937Z</time>
      </trkpt>
      <trkpt lat="46.50075" lon="8.28372">
        <ele>1428</ele>
        <time>2020-10-24T07:36:06.936Z</time>
      </trkpt>
      <trkpt lat="46.50075" lon="8.28375">
        <ele>1428</ele>
        <time>2020-10-24T07:36:07.937Z</time>
      </trkpt>
      <trkpt lat="46.50074" lon="8.28377">
        <ele>1428</ele>
        <time>2020-10-24T07:36:08.936Z</time>
      </trkpt>
      <trkpt lat="46.50074" lon="8.2838">
        <ele>1429</ele>
        <time>2020-10-24T07:36:09.937Z</time>
      </trkpt>
      <trkpt lat="46.50074" lon="8.28383">
        <ele>1429</ele>
        <time>2020-10-24T07:36:10.937Z</time>
      </trkpt>
      <trkpt lat="46.50074" lon="8.28385">
        <ele>1429</ele>
        <time>2020-10-24T07:36:11.936Z</time>
      </trkpt>
      <trkpt lat="46.50074" lon="8.28388">
        <ele>1430</ele>
        <time>2020-10-24T07:36:12.936Z</time>
      </trkpt>
      <trkpt lat="46.50075" lon="8.28391">
        <ele>1430</ele>
        <time>2020-10-24T07:36:13.937Z</time>
      </trkpt>
      <trkpt lat="46.50076" lon="8.28393">
        <ele>1431</ele>
        <time>2020-10-24T07:36:14.936Z</time>
      </trkpt>
      <trkpt lat="46.50078" lon="8.28395">
        <ele>1431</ele>
        <time>2020-10-24T07:36:15.937Z</time>
      </trkpt>
      <trkpt lat="46.50079" lon="8.28396">
        <ele>1431</ele>
        <time>2020-10-24T07:36:16.937Z</time>
      </trkpt>
      <trkpt lat="46.50081" lon="8.28398">
        <ele>1432</ele>
        <time>2020-10-24T07:36:17.937Z</time>
      </trkpt>
      <trkpt lat="46.50083" lon="8.28399">
        <ele>1432</ele>
        <time>2020-10-24T07:36:18.936Z</time>
      </trkpt>
      <trkpt lat="46.50085" lon="8.28399">
        <ele>1433</ele>
        <time>2020-10-24T07:36:19.937Z</time>
      </trkpt>
      <trkpt lat="46.50087" lon="8.284">
        <ele>1433</ele>
        <time>2020-10-24T07:36:20.936Z</time>
      </trkpt>
      <trkpt lat="46.50089" lon="8.284">
        <ele>1432</ele>
        <time>2020-10-24T07:36:21.937Z</time>
      </trkpt>
      <trkpt lat="46.50091" lon="8.284">
        <ele>1432</ele>
        <time>2020-10-24T07:36:22.937Z</time>
      </trkpt>
      <trkpt lat="46.50092" lon="8.28401">
        <ele>1432</ele>
        <time>2020-10-24T07:36:23.937Z</time>
      </trkpt>
      <trkpt lat="46.50094" lon="8.28402">
        <ele>1432</ele>
        <time>2020-10-24T07:36:24.937Z</time>
      </trkpt>
      <trkpt lat="46.50096" lon="8.28403">
        <ele>1433</ele>
        <time>2020-10-24T07:36:25.937Z</time>
      </trkpt>
      <trkpt lat="46.50098" lon="8.28404">
        <ele>1433</ele>
        <time>2020-10-24T07:36:26.936Z</time>
      </trkpt>
      <trkpt lat="46.501" lon="8.28404">
        <ele>1433</ele>
        <time>2020-10-24T07:36:27.937Z</time>
      </trkpt>
      <trkpt lat="46.50102" lon="8.28405">
        <ele>1433</ele>
        <time>2020-10-24T07:36:28.937Z</time>
      </trkpt>
      <trkpt lat="46.50103" lon="8.28406">
        <ele>1433</ele>
        <time>2020-10-24T07:36:29.936Z</time>
      </trkpt>
      <trkpt lat="46.50105" lon="8.28406">
        <ele>1433</ele>
        <time>2020-10-24T07:36:30.936Z</time>
      </trkpt>
      <trkpt lat="46.50107" lon="8.28407">
        <ele>1433</ele>
        <time>2020-10-24T07:36:31.936Z</time>
      </trkpt>
      <trkpt lat="46.50109" lon="8.28407">
        <ele>1433</ele>
        <time>2020-10-24T07:36:32.937Z</time>
      </trkpt>
      <trkpt lat="46.50111" lon="8.28408">
        <ele>1433</ele>
        <time>2020-10-24T07:36:33.937Z</time>
      </trkpt>
      <trkpt lat="46.50112" lon="8.28409">
        <ele>1434</ele>
        <time>2020-10-24T07:36:34.937Z</time>
      </trkpt>
      <trkpt lat="46.50114" lon="8.2841">
        <ele>1434</ele>
        <time>2020-10-24T07:36:35.937Z</time>
      </trkpt>
      <trkpt lat="46.50116" lon="8.2841">
        <ele>1435</ele>
        <time>2020-10-24T07:36:36.936Z</time>
      </trkpt>
      <trkpt lat="46.50118" lon="8.28411">
        <ele>1435</ele>
        <time>2020-10-24T07:36:37.937Z</time>
      </trkpt>
      <trkpt lat="46.50119" lon="8.28412">
        <ele>1435</ele>
        <time>2020-10-24T07:36:38.936Z</time>
      </trkpt>
      <trkpt lat="46.50121" lon="8.28412">
        <ele>1435</ele>
        <time>2020-10-24T07:36:39.937Z</time>
      </trkpt>
      <trkpt lat="46.50123" lon="8.28413">
        <ele>1435</ele>
        <time>2020-10-24T07:36:40.936Z</time>
      </trkpt>
      <trkpt lat="46.50125" lon="8.28414">
        <ele>1435</ele>
        <time>2020-10-24T07:36:41.937Z</time>
      </trkpt>
      <trkpt lat="46.50126" lon="8.28414">
        <ele>1435</ele>
        <time>2020-10-24T07:36:42.936Z</time>
      </trkpt>
      <trkpt lat="46.50128" lon="8.28415">
        <ele>1435</ele>
        <time>2020-10-24T07:36:43.936Z</time>
      </trkpt>
      <trkpt lat="46.5013" lon="8.28416">
        <ele>1435</ele>
        <time>2020-10-24T07:36:44.937Z</time>
      </trkpt>
      <trkpt lat="46.50131" lon="8.28417">
        <ele>1435</ele>
        <time>2020-10-24T07:36:45.937Z</time>
      </trkpt>
      <trkpt lat="46.50133" lon="8.28418">
        <ele>1435</ele>
        <time>2020-10-24T07:36:46.937Z</time>
      </trkpt>
      <trkpt lat="46.50134" lon="8.28419">
        <ele>1435</ele>
        <time>2020-10-24T07:36:47.937Z</time>
      </trkpt>
      <trkpt lat="46.50136" lon="8.2842">
        <ele>1435</ele>
        <time>2020-10-24T07:36:48.937Z</time>
      </trkpt>
      <trkpt lat="46.50138" lon="8.28421">
        <ele>1435</ele>
        <time>2020-10-24T07:36:49.937Z</time>
      </trkpt>
      <trkpt lat="46.5014" lon="8.28421">
        <ele>1434</ele>
        <time>2020-10-24T07:36:50.936Z</time>
      </trkpt>
      <trkpt lat="46.50141" lon="8.28422">
        <ele>1434</ele>
        <time>2020-10-24T07:36:51.937Z</time>
      </trkpt>
      <trkpt lat="46.50143" lon="8.28423">
        <ele>1434</ele>
        <time>2020-10-24T07:36:52.937Z</time>
      </trkpt>
      <trkpt lat="46.50145" lon="8.28424">
        <ele>1434</ele>
        <time>2020-10-24T07:36:53.936Z</time>
      </trkpt>
      <trkpt lat="46.50147" lon="8.28424">
        <ele>1435</ele>
        <time>2020-10-24T07:36:54.937Z</time>
      </trkpt>
      <trkpt lat="46.50148" lon="8.28426">
        <ele>1435</ele>
        <time>2020-10-24T07:36:55.937Z</time>
      </trkpt>
      <trkpt lat="46.5015" lon="8.28427">
        <ele>1435</ele>
        <time>2020-10-24T07:36:56.937Z</time>
      </trkpt>
      <trkpt lat="46.50151" lon="8.28428">
        <ele>1436</ele>
        <time>2020-10-24T07:36:57.937Z</time>
      </trkpt>
      <trkpt lat="46.50153" lon="8.28429">
        <ele>1436</ele>
        <time>2020-10-24T07:36:58.936Z</time>
      </trkpt>
      <trkpt lat="46.50154" lon="8.28431">
        <ele>1436</ele>
        <time>2020-10-24T07:36:59.937Z</time>
      </trkpt>
      <trkpt lat="46.50156" lon="8.28432">
        <ele>1436</ele>
        <time>2020-10-24T07:37:00.937Z</time>
      </trkpt>
      <trkpt lat="46.50157" lon="8.28434">
        <ele>1437</ele>
        <time>2020-10-24T07:37:01.937Z</time>
      </trkpt>
      <trkpt lat="46.50158" lon="8.28436">
        <ele>1437</ele>
        <time>2020-10-24T07:37:02.937Z</time>
      </trkpt>
      <trkpt lat="46.5016" lon="8.28437">
        <ele>1438</ele>
        <time>2020-10-24T07:37:03.937Z</time>
      </trkpt>
      <trkpt lat="46.50161" lon="8.28439">
        <ele>1438</ele>
        <time>2020-10-24T07:37:04.937Z</time>
      </trkpt>
      <trkpt lat="46.50162" lon="8.28441">
        <ele>1438</ele>
        <time>2020-10-24T07:37:05.937Z</time>
      </trkpt>
      <trkpt lat="46.50163" lon="8.28443">
        <ele>1438</ele>
        <time>2020-10-24T07:37:06.937Z</time>
      </trkpt>
      <trkpt lat="46.50164" lon="8.28445">
        <ele>1439</ele>
        <time>2020-10-24T07:37:07.937Z</time>
      </trkpt>
      <trkpt lat="46.50165" lon="8.28448">
        <ele>1439</ele>
        <time>2020-10-24T07:37:08.937Z</time>
      </trkpt>
      <trkpt lat="46.50166" lon="8.2845">
        <ele>1439</ele>
        <time>2020-10-24T07:37:09.936Z</time>
      </trkpt>
      <trkpt lat="46.50167" lon="8.28452">
        <ele>1439</ele>
        <time>2020-10-24T07:37:10.936Z</time>
      </trkpt>
      <trkpt lat="46.50168" lon="8.28455">
        <ele>1439</ele>
        <time>2020-10-24T07:37:11.936Z</time>
      </trkpt>
      <trkpt lat="46.50169" lon="8.28457">
        <ele>1440</ele>
        <time>2020-10-24T07:37:12.937Z</time>
      </trkpt>
      <trkpt lat="46.50169" lon="8.2846">
        <ele>1440</ele>
        <time>2020-10-24T07:37:13.936Z</time>
      </trkpt>
      <trkpt lat="46.5017" lon="8.28463">
        <ele>1440</ele>
        <time>2020-10-24T07:37:14.936Z</time>
      </trkpt>
      <trkpt lat="46.5017" lon="8.28465">
        <ele>1440</ele>
        <time>2020-10-24T07:37:15.937Z</time>
      </trkpt>
      <trkpt lat="46.50169" lon="8.28468">
        <ele>1441</ele>
        <time>2020-10-24T07:37:16.937Z</time>
      </trkpt>
      <trkpt lat="46.50169" lon="8.28471">
        <ele>1441</ele>
        <time>2020-10-24T07:37:17.937Z</time>
      </trkpt>
      <trkpt lat="46.50168" lon="8.28473">
        <ele>1441</ele>
        <time>2020-10-24T07:37:18.937Z</time>
      </trkpt>
      <trkpt lat="46.50167" lon="8.28475">
        <ele>1440</ele>
        <time>2020-10-24T07:37:19.936Z</time>
      </trkpt>
      <trkpt lat="46.50165" lon="8.28477">
        <ele>1440</ele>
        <time>2020-10-24T07:37:20.936Z</time>
      </trkpt>
      <trkpt lat="46.50164" lon="8.28478">
        <ele>1440</ele>
        <time>2020-10-24T07:37:21.937Z</time>
      </trkpt>
      <trkpt lat="46.50161" lon="8.28479">
        <ele>1440</ele>
        <time>2020-10-24T07:37:22.937Z</time>
      </trkpt>
      <trkpt lat="46.50159" lon="8.28479">
        <ele>1440</ele>
        <time>2020-10-24T07:37:23.936Z</time>
      </trkpt>
      <trkpt lat="46.50157" lon="8.28479">
        <ele>1440</ele>
        <time>2020-10-24T07:37:24.937Z</time>
      </trkpt>
      <trkpt lat="46.50156" lon="8.28479">
        <ele>1441</ele>
        <time>2020-10-24T07:37:25.937Z</time>
      </trkpt>
      <trkpt lat="46.50154" lon="8.2848">
        <ele>1441</ele>
        <time>2020-10-24T07:37:26.937Z</time>
      </trkpt>
      <trkpt lat="46.50152" lon="8.2848">
        <ele>1441</ele>
        <time>2020-10-24T07:37:27.937Z</time>
      </trkpt>
      <trkpt lat="46.50149" lon="8.2848">
        <ele>1441</ele>
        <time>2020-10-24T07:37:28.936Z</time>
      </trkpt>
      <trkpt lat="46.50148" lon="8.2848">
        <ele>1442</ele>
        <time>2020-10-24T07:37:29.937Z</time>
      </trkpt>
      <trkpt lat="46.50146" lon="8.28481">
        <ele>1442</ele>
        <time>2020-10-24T07:37:30.937Z</time>
      </trkpt>
      <trkpt lat="46.50144" lon="8.28481">
        <ele>1442</ele>
        <time>2020-10-24T07:37:31.936Z</time>
      </trkpt>
      <trkpt lat="46.50142" lon="8.28481">
        <ele>1441</ele>
        <time>2020-10-24T07:37:32.937Z</time>
      </trkpt>
      <trkpt lat="46.5014" lon="8.28481">
        <ele>1441</ele>
        <time>2020-10-24T07:37:33.937Z</time>
      </trkpt>
      <trkpt lat="46.50138" lon="8.28482">
        <ele>1441</ele>
        <time>2020-10-24T07:37:34.937Z</time>
      </trkpt>
      <trkpt lat="46.50136" lon="8.28483">
        <ele>1441</ele>
        <time>2020-10-24T07:37:35.937Z</time>
      </trkpt>
      <trkpt lat="46.50135" lon="8.28484">
        <ele>1441</ele>
        <time>2020-10-24T07:37:36.937Z</time>
      </trkpt>
      <trkpt lat="46.50134" lon="8.28485">
        <ele>1442</ele>
        <time>2020-10-24T07:37:37.937Z</time>
      </trkpt>
      <trkpt lat="46.50133" lon="8.28486">
        <ele>1442</ele>
        <time>2020-10-24T07:37:38.936Z</time>
      </trkpt>
      <trkpt lat="46.50132" lon="8.28488">
        <ele>1442</ele>
        <time>2020-10-24T07:37:39.937Z</time>
      </trkpt>
      <trkpt lat="46.50131" lon="8.2849">
        <ele>1442</ele>
        <time>2020-10-24T07:37:40.936Z</time>
      </trkpt>
      <trkpt lat="46.50131" lon="8.28492">
        <ele>1443</ele>
        <time>2020-10-24T07:37:41.937Z</time>
      </trkpt>
      <trkpt lat="46.5013" lon="8.28495">
        <ele>1443</ele>
        <time>2020-10-24T07:37:42.936Z</time>
      </trkpt>
      <trkpt lat="46.50131" lon="8.28498">
        <ele>1443</ele>
        <time>2020-10-24T07:37:43.937Z</time>
      </trkpt>
      <trkpt lat="46.50131" lon="8.285">
        <ele>1444</ele>
        <time>2020-10-24T07:37:44.936Z</time>
      </trkpt>
      <trkpt lat="46.50132" lon="8.28502">
        <ele>1444</ele>
        <time>2020-10-24T07:37:45.937Z</time>
      </trkpt>
      <trkpt lat="46.50132" lon="8.28503">
        <ele>1444</ele>
        <time>2020-10-24T07:37:46.937Z</time>
      </trkpt>
      <trkpt lat="46.50133" lon="8.28505">
        <ele>1445</ele>
        <time>2020-10-24T07:37:47.937Z</time>
      </trkpt>
      <trkpt lat="46.50134" lon="8.28506">
        <ele>1445</ele>
        <time>2020-10-24T07:37:48.937Z</time>
      </trkpt>
      <trkpt lat="46.50135" lon="8.28508">
        <ele>1445</ele>
        <time>2020-10-24T07:37:49.936Z</time>
      </trkpt>
      <trkpt lat="46.50136" lon="8.2851">
        <ele>1445</ele>
        <time>2020-10-24T07:37:50.937Z</time>
      </trkpt>
      <trkpt lat="46.50137" lon="8.28511">
        <ele>1445</ele>
        <time>2020-10-24T07:37:51.937Z</time>
      </trkpt>
      <trkpt lat="46.50138" lon="8.28513">
        <ele>1445</ele>
        <time>2020-10-24T07:37:52.937Z</time>
      </trkpt>
      <trkpt lat="46.50139" lon="8.28514">
        <ele>1446</ele>
        <time>2020-10-24T07:37:53.937Z</time>
      </trkpt>
      <trkpt lat="46.5014" lon="8.28516">
        <ele>1446</ele>
        <time>2020-10-24T07:37:54.936Z</time>
      </trkpt>
      <trkpt lat="46.50141" lon="8.28518">
        <ele>1447</ele>
        <time>2020-10-24T07:37:55.937Z</time>
      </trkpt>
      <trkpt lat="46.50141" lon="8.2852">
        <ele>1447</ele>
        <time>2020-10-24T07:37:56.937Z</time>
      </trkpt>
      <trkpt lat="46.50142" lon="8.28522">
        <ele>1448</ele>
        <time>2020-10-24T07:37:57.937Z</time>
      </trkpt>
      <trkpt lat="46.50143" lon="8.28524">
        <ele>1449</ele>
        <time>2020-10-24T07:37:58.937Z</time>
      </trkpt>
      <trkpt lat="46.50144" lon="8.28526">
        <ele>1450</ele>
        <time>2020-10-24T07:37:59.936Z</time>
      </trkpt>
      <trkpt lat="46.50145" lon="8.28528">
        <ele>1450</ele>
        <time>2020-10-24T07:38:00.937Z</time>
      </trkpt>
      <trkpt lat="46.50146" lon="8.2853">
        <ele>1450</ele>
        <time>2020-10-24T07:38:01.937Z</time>
      </trkpt>
      <trkpt lat="46.50147" lon="8.28532">
        <ele>1451</ele>
        <time>2020-10-24T07:38:02.936Z</time>
      </trkpt>
      <trkpt lat="46.50147" lon="8.28534">
        <ele>1451</ele>
        <time>2020-10-24T07:38:03.936Z</time>
      </trkpt>
      <trkpt lat="46.50148" lon="8.28535">
        <ele>1452</ele>
        <time>2020-10-24T07:38:04.937Z</time>
      </trkpt>
      <trkpt lat="46.50149" lon="8.28537">
        <ele>1452</ele>
        <time>2020-10-24T07:38:05.937Z</time>
      </trkpt>
      <trkpt lat="46.5015" lon="8.28539">
        <ele>1453</ele>
        <time>2020-10-24T07:38:06.937Z</time>
      </trkpt>
      <trkpt lat="46.50151" lon="8.28542">
        <ele>1454</ele>
        <time>2020-10-24T07:38:07.936Z</time>
      </trkpt>
      <trkpt lat="46.50151" lon="8.28544">
        <ele>1454</ele>
        <time>2020-10-24T07:38:08.937Z</time>
      </trkpt>
      <trkpt lat="46.50152" lon="8.28546">
        <ele>1454</ele>
        <time>2020-10-24T07:38:09.937Z</time>
      </trkpt>
      <trkpt lat="46.50153" lon="8.28547">
        <ele>1455</ele>
        <time>2020-10-24T07:38:10.936Z</time>
      </trkpt>
      <trkpt lat="46.50154" lon="8.28549">
        <ele>1455</ele>
        <time>2020-10-24T07:38:11.936Z</time>
      </trkpt>
      <trkpt lat="46.50155" lon="8.28551">
        <ele>1455</ele>
        <time>2020-10-24T07:38:12.936Z</time>
      </trkpt>
      <trkpt lat="46.50156" lon="8.28553">
        <ele>1455</ele>
        <time>2020-10-24T07:38:13.937Z</time>
      </trkpt>
      <trkpt lat="46.50157" lon="8.28554">
        <ele>1455</ele>
        <time>2020-10-24T07:38:14.936Z</time>
      </trkpt>
      <trkpt lat="46.50158" lon="8.28556">
        <ele>1455</ele>
        <time>2020-10-24T07:38:15.936Z</time>
      </trkpt>
      <trkpt lat="46.50159" lon="8.28558">
        <ele>1455</ele>
        <time>2020-10-24T07:38:16.936Z</time>
      </trkpt>
      <trkpt lat="46.5016" lon="8.2856">
        <ele>1456</ele>
        <time>2020-10-24T07:38:17.937Z</time>
      </trkpt>
      <trkpt lat="46.50163" lon="8.28562">
        <ele>1456</ele>
        <time>2020-10-24T07:38:18.937Z</time>
      </trkpt>
      <trkpt lat="46.50165" lon="8.28564">
        <ele>1456</ele>
        <time>2020-10-24T07:38:19.937Z</time>
      </trkpt>
      <trkpt lat="46.50167" lon="8.28566">
        <ele>1456</ele>
        <time>2020-10-24T07:38:20.937Z</time>
      </trkpt>
      <trkpt lat="46.50168" lon="8.28567">
        <ele>1456</ele>
        <time>2020-10-24T07:38:21.937Z</time>
      </trkpt>
      <trkpt lat="46.5017" lon="8.28569">
        <ele>1455</ele>
        <time>2020-10-24T07:38:22.936Z</time>
      </trkpt>
      <trkpt lat="46.50171" lon="8.28571">
        <ele>1456</ele>
        <time>2020-10-24T07:38:23.937Z</time>
      </trkpt>
      <trkpt lat="46.50172" lon="8.28573">
        <ele>1456</ele>
        <time>2020-10-24T07:38:24.936Z</time>
      </trkpt>
      <trkpt lat="46.50173" lon="8.28575">
        <ele>1456</ele>
        <time>2020-10-24T07:38:25.937Z</time>
      </trkpt>
      <trkpt lat="46.50174" lon="8.28576">
        <ele>1456</ele>
        <time>2020-10-24T07:38:26.937Z</time>
      </trkpt>
      <trkpt lat="46.50174" lon="8.28578">
        <ele>1456</ele>
        <time>2020-10-24T07:38:27.936Z</time>
      </trkpt>
      <trkpt lat="46.50175" lon="8.2858">
        <ele>1457</ele>
        <time>2020-10-24T07:38:28.936Z</time>
      </trkpt>
      <trkpt lat="46.50176" lon="8.28582">
        <ele>1457</ele>
        <time>2020-10-24T07:38:29.936Z</time>
      </trkpt>
      <trkpt lat="46.50177" lon="8.28584">
        <ele>1457</ele>
        <time>2020-10-24T07:38:30.937Z</time>
      </trkpt>
      <trkpt lat="46.50178" lon="8.28585">
        <ele>1456</ele>
        <time>2020-10-24T07:38:31.936Z</time>
      </trkpt>
      <trkpt lat="46.5018" lon="8.28587">
        <ele>1457</ele>
        <time>2020-10-24T07:38:32.936Z</time>
      </trkpt>
      <trkpt lat="46.50181" lon="8.28589">
        <ele>1457</ele>
        <time>2020-10-24T07:38:33.937Z</time>
      </trkpt>
      <trkpt lat="46.50182" lon="8.28591">
        <ele>1457</ele>
        <time>2020-10-24T07:38:34.936Z</time>
      </trkpt>
      <trkpt lat="46.50184" lon="8.28593">
        <ele>1457</ele>
        <time>2020-10-24T07:38:35.937Z</time>
      </trkpt>
      <trkpt lat="46.50186" lon="8.28594">
        <ele>1457</ele>
        <time>2020-10-24T07:38:36.936Z</time>
      </trkpt>
      <trkpt lat="46.50188" lon="8.28595">
        <ele>1457</ele>
        <time>2020-10-24T07:38:37.937Z</time>
      </trkpt>
      <trkpt lat="46.50189" lon="8.28596">
        <ele>1457</ele>
        <time>2020-10-24T07:38:38.937Z</time>
      </trkpt>
      <trkpt lat="46.50191" lon="8.28597">
        <ele>1458</ele>
        <time>2020-10-24T07:38:39.937Z</time>
      </trkpt>
      <trkpt lat="46.50192" lon="8.28597">
        <ele>1458</ele>
        <time>2020-10-24T07:38:40.937Z</time>
      </trkpt>
      <trkpt lat="46.50194" lon="8.28598">
        <ele>1459</ele>
        <time>2020-10-24T07:38:41.936Z</time>
      </trkpt>
      <trkpt lat="46.50196" lon="8.28599">
        <ele>1459</ele>
        <time>2020-10-24T07:38:42.936Z</time>
      </trkpt>
      <trkpt lat="46.50197" lon="8.28599">
        <ele>1459</ele>
        <time>2020-10-24T07:38:43.937Z</time>
      </trkpt>
      <trkpt lat="46.50199" lon="8.286">
        <ele>1459</ele>
        <time>2020-10-24T07:38:44.937Z</time>
      </trkpt>
      <trkpt lat="46.502" lon="8.28601">
        <ele>1458</ele>
        <time>2020-10-24T07:38:45.937Z</time>
      </trkpt>
      <trkpt lat="46.50202" lon="8.28601">
        <ele>1458</ele>
        <time>2020-10-24T07:38:46.937Z</time>
      </trkpt>
      <trkpt lat="46.50204" lon="8.28604">
        <ele>1459</ele>
        <time>2020-10-24T07:38:47.936Z</time>
      </trkpt>
      <trkpt lat="46.50205" lon="8.28606">
        <ele>1459</ele>
        <time>2020-10-24T07:38:48.936Z</time>
      </trkpt>
      <trkpt lat="46.50206" lon="8.28608">
        <ele>1460</ele>
        <time>2020-10-24T07:38:49.937Z</time>
      </trkpt>
      <trkpt lat="46.50207" lon="8.2861">
        <ele>1461</ele>
        <time>2020-10-24T07:38:50.937Z</time>
      </trkpt>
      <trkpt lat="46.50207" lon="8.28611">
        <ele>1461</ele>
        <time>2020-10-24T07:38:51.937Z</time>
      </trkpt>
      <trkpt lat="46.50209" lon="8.28613">
        <ele>1462</ele>
        <time>2020-10-24T07:38:52.937Z</time>
      </trkpt>
      <trkpt lat="46.5021" lon="8.28614">
        <ele>1462</ele>
        <time>2020-10-24T07:38:53.937Z</time>
      </trkpt>
      <trkpt lat="46.50211" lon="8.28615">
        <ele>1462</ele>
        <time>2020-10-24T07:38:54.936Z</time>
      </trkpt>
      <trkpt lat="46.50213" lon="8.28617">
        <ele>1462</ele>
        <time>2020-10-24T07:38:55.936Z</time>
      </trkpt>
      <trkpt lat="46.50213" lon="8.28619">
        <ele>1462</ele>
        <time>2020-10-24T07:38:56.936Z</time>
      </trkpt>
      <trkpt lat="46.50214" lon="8.2862">
        <ele>1463</ele>
        <time>2020-10-24T07:38:57.937Z</time>
      </trkpt>
      <trkpt lat="46.50215" lon="8.28621">
        <ele>1463</ele>
        <time>2020-10-24T07:38:58.936Z</time>
      </trkpt>
      <trkpt lat="46.50217" lon="8.28621">
        <ele>1464</ele>
        <time>2020-10-24T07:38:59.937Z</time>
      </trkpt>
      <trkpt lat="46.50219" lon="8.28622">
        <ele>1465</ele>
        <time>2020-10-24T07:39:00.937Z</time>
      </trkpt>
      <trkpt lat="46.5022" lon="8.28623">
        <ele>1466</ele>
        <time>2020-10-24T07:39:01.937Z</time>
      </trkpt>
      <trkpt lat="46.50222" lon="8.28623">
        <ele>1466</ele>
        <time>2020-10-24T07:39:02.937Z</time>
      </trkpt>
      <trkpt lat="46.50224" lon="8.28623">
        <ele>1467</ele>
        <time>2020-10-24T07:39:03.937Z</time>
      </trkpt>
      <trkpt lat="46.50225" lon="8.28624">
        <ele>1467</ele>
        <time>2020-10-24T07:39:04.936Z</time>
      </trkpt>
      <trkpt lat="46.50227" lon="8.28624">
        <ele>1467</ele>
        <time>2020-10-24T07:39:05.936Z</time>
      </trkpt>
      <trkpt lat="46.50228" lon="8.28625">
        <ele>1467</ele>
        <time>2020-10-24T07:39:06.937Z</time>
      </trkpt>
      <trkpt lat="46.5023" lon="8.28626">
        <ele>1468</ele>
        <time>2020-10-24T07:39:07.937Z</time>
      </trkpt>
      <trkpt lat="46.50231" lon="8.28626">
        <ele>1468</ele>
        <time>2020-10-24T07:39:08.937Z</time>
      </trkpt>
      <trkpt lat="46.50232" lon="8.28627">
        <ele>1469</ele>
        <time>2020-10-24T07:39:09.937Z</time>
      </trkpt>
      <trkpt lat="46.50234" lon="8.28628">
        <ele>1470</ele>
        <time>2020-10-24T07:39:10.937Z</time>
      </trkpt>
      <trkpt lat="46.50235" lon="8.28629">
        <ele>1471</ele>
        <time>2020-10-24T07:39:11.937Z</time>
      </trkpt>
      <trkpt lat="46.50237" lon="8.2863">
        <ele>1471</ele>
        <time>2020-10-24T07:39:12.937Z</time>
      </trkpt>
      <trkpt lat="46.50238" lon="8.28631">
        <ele>1472</ele>
        <time>2020-10-24T07:39:13.937Z</time>
      </trkpt>
      <trkpt lat="46.5024" lon="8.28632">
        <ele>1472</ele>
        <time>2020-10-24T07:39:14.936Z</time>
      </trkpt>
      <trkpt lat="46.50241" lon="8.28633">
        <ele>1473</ele>
        <time>2020-10-24T07:39:15.936Z</time>
      </trkpt>
      <trkpt lat="46.50243" lon="8.28634">
        <ele>1473</ele>
        <time>2020-10-24T07:39:16.936Z</time>
      </trkpt>
      <trkpt lat="46.50244" lon="8.28635">
        <ele>1473</ele>
        <time>2020-10-24T07:39:17.936Z</time>
      </trkpt>
      <trkpt lat="46.50245" lon="8.28636">
        <ele>1473</ele>
        <time>2020-10-24T07:39:18.936Z</time>
      </trkpt>
      <trkpt lat="46.50247" lon="8.28637">
        <ele>1473</ele>
        <time>2020-10-24T07:39:19.936Z</time>
      </trkpt>
      <trkpt lat="46.50249" lon="8.28638">
        <ele>1473</ele>
        <time>2020-10-24T07:39:20.936Z</time>
      </trkpt>
      <trkpt lat="46.5025" lon="8.28639">
        <ele>1473</ele>
        <time>2020-10-24T07:39:21.937Z</time>
      </trkpt>
      <trkpt lat="46.50251" lon="8.28639">
        <ele>1473</ele>
        <time>2020-10-24T07:39:22.937Z</time>
      </trkpt>
      <trkpt lat="46.50253" lon="8.2864">
        <ele>1473</ele>
        <time>2020-10-24T07:39:23.937Z</time>
      </trkpt>
      <trkpt lat="46.50254" lon="8.28641">
        <ele>1473</ele>
        <time>2020-10-24T07:39:24.936Z</time>
      </trkpt>
      <trkpt lat="46.50255" lon="8.28643">
        <ele>1473</ele>
        <time>2020-10-24T07:39:25.936Z</time>
      </trkpt>
      <trkpt lat="46.50256" lon="8.28645">
        <ele>1473</ele>
        <time>2020-10-24T07:39:26.937Z</time>
      </trkpt>
      <trkpt lat="46.50257" lon="8.28647">
        <ele>1472</ele>
        <time>2020-10-24T07:39:27.937Z</time>
      </trkpt>
      <trkpt lat="46.50258" lon="8.28649">
        <ele>1472</ele>
        <time>2020-10-24T07:39:28.937Z</time>
      </trkpt>
      <trkpt lat="46.50259" lon="8.28651">
        <ele>1472</ele>
        <time>2020-10-24T07:39:29.936Z</time>
      </trkpt>
      <trkpt lat="46.50261" lon="8.28653">
        <ele>1472</ele>
        <time>2020-10-24T07:39:30.937Z</time>
      </trkpt>
      <trkpt lat="46.50262" lon="8.28654">
        <ele>1472</ele>
        <time>2020-10-24T07:39:31.937Z</time>
      </trkpt>
      <trkpt lat="46.50263" lon="8.28656">
        <ele>1472</ele>
        <time>2020-10-24T07:39:32.937Z</time>
      </trkpt>
      <trkpt lat="46.50264" lon="8.28657">
        <ele>1472</ele>
        <time>2020-10-24T07:39:33.936Z</time>
      </trkpt>
      <trkpt lat="46.50265" lon="8.28659">
        <ele>1473</ele>
        <time>2020-10-24T07:39:34.937Z</time>
      </trkpt>
      <trkpt lat="46.50266" lon="8.28661">
        <ele>1473</ele>
        <time>2020-10-24T07:39:35.937Z</time>
      </trkpt>
      <trkpt lat="46.50268" lon="8.28662">
        <ele>1473</ele>
        <time>2020-10-24T07:39:36.936Z</time>
      </trkpt>
      <trkpt lat="46.50269" lon="8.28663">
        <ele>1473</ele>
        <time>2020-10-24T07:39:37.937Z</time>
      </trkpt>
      <trkpt lat="46.5027" lon="8.28663">
        <ele>1474</ele>
        <time>2020-10-24T07:39:38.937Z</time>
      </trkpt>
      <trkpt lat="46.50272" lon="8.28664">
        <ele>1474</ele>
        <time>2020-10-24T07:39:39.936Z</time>
      </trkpt>
      <trkpt lat="46.50273" lon="8.28665">
        <ele>1474</ele>
        <time>2020-10-24T07:39:40.937Z</time>
      </trkpt>
      <trkpt lat="46.50275" lon="8.28665">
        <ele>1474</ele>
        <time>2020-10-24T07:39:41.937Z</time>
      </trkpt>
      <trkpt lat="46.50276" lon="8.28666">
        <ele>1474</ele>
        <time>2020-10-24T07:39:42.937Z</time>
      </trkpt>
      <trkpt lat="46.50277" lon="8.28666">
        <ele>1474</ele>
        <time>2020-10-24T07:39:43.937Z</time>
      </trkpt>
      <trkpt lat="46.50278" lon="8.28667">
        <ele>1474</ele>
        <time>2020-10-24T07:39:44.937Z</time>
      </trkpt>
      <trkpt lat="46.5028" lon="8.28668">
        <ele>1474</ele>
        <time>2020-10-24T07:39:45.937Z</time>
      </trkpt>
      <trkpt lat="46.50281" lon="8.28669">
        <ele>1475</ele>
        <time>2020-10-24T07:39:46.937Z</time>
      </trkpt>
      <trkpt lat="46.50282" lon="8.28671">
        <ele>1475</ele>
        <time>2020-10-24T07:39:47.936Z</time>
      </trkpt>
      <trkpt lat="46.50284" lon="8.28672">
        <ele>1476</ele>
        <time>2020-10-24T07:39:48.937Z</time>
      </trkpt>
      <trkpt lat="46.50286" lon="8.28673">
        <ele>1476</ele>
        <time>2020-10-24T07:39:49.937Z</time>
      </trkpt>
      <trkpt lat="46.50287" lon="8.28674">
        <ele>1476</ele>
        <time>2020-10-24T07:39:50.937Z</time>
      </trkpt>
      <trkpt lat="46.50289" lon="8.28676">
        <ele>1477</ele>
        <time>2020-10-24T07:39:51.936Z</time>
      </trkpt>
      <trkpt lat="46.5029" lon="8.28677">
        <ele>1477</ele>
        <time>2020-10-24T07:39:52.936Z</time>
      </trkpt>
      <trkpt lat="46.50291" lon="8.28679">
        <ele>1477</ele>
        <time>2020-10-24T07:39:53.937Z</time>
      </trkpt>
      <trkpt lat="46.50292" lon="8.2868">
        <ele>1477</ele>
        <time>2020-10-24T07:39:54.936Z</time>
      </trkpt>
      <trkpt lat="46.50293" lon="8.28683">
        <ele>1477</ele>
        <time>2020-10-24T07:39:55.936Z</time>
      </trkpt>
      <trkpt lat="46.50295" lon="8.28684">
        <ele>1477</ele>
        <time>2020-10-24T07:39:56.936Z</time>
      </trkpt>
      <trkpt lat="46.50296" lon="8.28686">
        <ele>1477</ele>
        <time>2020-10-24T07:39:57.936Z</time>
      </trkpt>
      <trkpt lat="46.50298" lon="8.28688">
        <ele>1477</ele>
        <time>2020-10-24T07:39:58.937Z</time>
      </trkpt>
      <trkpt lat="46.50299" lon="8.2869">
        <ele>1477</ele>
        <time>2020-10-24T07:39:59.937Z</time>
      </trkpt>
      <trkpt lat="46.50301" lon="8.28691">
        <ele>1477</ele>
        <time>2020-10-24T07:40:00.936Z</time>
      </trkpt>
      <trkpt lat="46.50303" lon="8.28692">
        <ele>1477</ele>
        <time>2020-10-24T07:40:01.936Z</time>
      </trkpt>
      <trkpt lat="46.50305" lon="8.28692">
        <ele>1477</ele>
        <time>2020-10-24T07:40:02.937Z</time>
      </trkpt>
      <trkpt lat="46.50307" lon="8.28692">
        <ele>1476</ele>
        <time>2020-10-24T07:40:03.937Z</time>
      </trkpt>
      <trkpt lat="46.50309" lon="8.28692">
        <ele>1476</ele>
        <time>2020-10-24T07:40:04.937Z</time>
      </trkpt>
      <trkpt lat="46.5031" lon="8.28693">
        <ele>1476</ele>
        <time>2020-10-24T07:40:05.936Z</time>
      </trkpt>
      <trkpt lat="46.50312" lon="8.28693">
        <ele>1476</ele>
        <time>2020-10-24T07:40:06.937Z</time>
      </trkpt>
      <trkpt lat="46.50313" lon="8.28695">
        <ele>1476</ele>
        <time>2020-10-24T07:40:07.936Z</time>
      </trkpt>
      <trkpt lat="46.50315" lon="8.28696">
        <ele>1476</ele>
        <time>2020-10-24T07:40:08.937Z</time>
      </trkpt>
      <trkpt lat="46.50316" lon="8.28697">
        <ele>1476</ele>
        <time>2020-10-24T07:40:09.937Z</time>
      </trkpt>
      <trkpt lat="46.50317" lon="8.28699">
        <ele>1477</ele>
        <time>2020-10-24T07:40:10.936Z</time>
      </trkpt>
      <trkpt lat="46.50318" lon="8.287">
        <ele>1477</ele>
        <time>2020-10-24T07:40:11.936Z</time>
      </trkpt>
      <trkpt lat="46.50319" lon="8.28702">
        <ele>1476</ele>
        <time>2020-10-24T07:40:12.936Z</time>
      </trkpt>
      <trkpt lat="46.5032" lon="8.28704">
        <ele>1477</ele>
        <time>2020-10-24T07:40:13.936Z</time>
      </trkpt>
      <trkpt lat="46.50321" lon="8.28705">
        <ele>1477</ele>
        <time>2020-10-24T07:40:14.936Z</time>
      </trkpt>
      <trkpt lat="46.50322" lon="8.28707">
        <ele>1477</ele>
        <time>2020-10-24T07:40:15.936Z</time>
      </trkpt>
      <trkpt lat="46.50324" lon="8.28709">
        <ele>1477</ele>
        <time>2020-10-24T07:40:16.937Z</time>
      </trkpt>
      <trkpt lat="46.50325" lon="8.28711">
        <ele>1477</ele>
        <time>2020-10-24T07:40:17.936Z</time>
      </trkpt>
      <trkpt lat="46.50326" lon="8.28713">
        <ele>1477</ele>
        <time>2020-10-24T07:40:18.936Z</time>
      </trkpt>
      <trkpt lat="46.50327" lon="8.28715">
        <ele>1478</ele>
        <time>2020-10-24T07:40:19.936Z</time>
      </trkpt>
      <trkpt lat="46.50328" lon="8.28717">
        <ele>1478</ele>
        <time>2020-10-24T07:40:20.936Z</time>
      </trkpt>
      <trkpt lat="46.50329" lon="8.28719">
        <ele>1478</ele>
        <time>2020-10-24T07:40:21.936Z</time>
      </trkpt>
      <trkpt lat="46.5033" lon="8.28721">
        <ele>1478</ele>
        <time>2020-10-24T07:40:22.937Z</time>
      </trkpt>
      <trkpt lat="46.50331" lon="8.28723">
        <ele>1478</ele>
        <time>2020-10-24T07:40:23.936Z</time>
      </trkpt>
      <trkpt lat="46.50332" lon="8.28725">
        <ele>1478</ele>
        <time>2020-10-24T07:40:24.936Z</time>
      </trkpt>
      <trkpt lat="46.50333" lon="8.28727">
        <ele>1478</ele>
        <time>2020-10-24T07:40:25.936Z</time>
      </trkpt>
      <trkpt lat="46.50334" lon="8.28728">
        <ele>1478</ele>
        <time>2020-10-24T07:40:26.936Z</time>
      </trkpt>
      <trkpt lat="46.50335" lon="8.28731">
        <ele>1478</ele>
        <time>2020-10-24T07:40:27.936Z</time>
      </trkpt>
      <trkpt lat="46.50336" lon="8.28732">
        <ele>1478</ele>
        <time>2020-10-24T07:40:28.936Z</time>
      </trkpt>
      <trkpt lat="46.50337" lon="8.28734">
        <ele>1478</ele>
        <time>2020-10-24T07:40:29.937Z</time>
      </trkpt>
      <trkpt lat="46.50339" lon="8.28736">
        <ele>1478</ele>
        <time>2020-10-24T07:40:30.936Z</time>
      </trkpt>
      <trkpt lat="46.5034" lon="8.28737">
        <ele>1478</ele>
        <time>2020-10-24T07:40:31.937Z</time>
      </trkpt>
      <trkpt lat="46.50341" lon="8.28739">
        <ele>1478</ele>
        <time>2020-10-24T07:40:32.937Z</time>
      </trkpt>
      <trkpt lat="46.50343" lon="8.28741">
        <ele>1479</ele>
        <time>2020-10-24T07:40:33.937Z</time>
      </trkpt>
      <trkpt lat="46.50343" lon="8.28743">
        <ele>1479</ele>
        <time>2020-10-24T07:40:34.937Z</time>
      </trkpt>
      <trkpt lat="46.50344" lon="8.28745">
        <ele>1479</ele>
        <time>2020-10-24T07:40:35.937Z</time>
      </trkpt>
      <trkpt lat="46.50345" lon="8.28746">
        <ele>1479</ele>
        <time>2020-10-24T07:40:36.937Z</time>
      </trkpt>
      <trkpt lat="46.50347" lon="8.28747">
        <ele>1479</ele>
        <time>2020-10-24T07:40:37.937Z</time>
      </trkpt>
      <trkpt lat="46.50348" lon="8.28748">
        <ele>1479</ele>
        <time>2020-10-24T07:40:38.936Z</time>
      </trkpt>
      <trkpt lat="46.50349" lon="8.2875">
        <ele>1479</ele>
        <time>2020-10-24T07:40:39.936Z</time>
      </trkpt>
      <trkpt lat="46.50351" lon="8.28751">
        <ele>1480</ele>
        <time>2020-10-24T07:40:40.936Z</time>
      </trkpt>
      <trkpt lat="46.50352" lon="8.28753">
        <ele>1480</ele>
        <time>2020-10-24T07:40:41.937Z</time>
      </trkpt>
      <trkpt lat="46.50353" lon="8.28754">
        <ele>1480</ele>
        <time>2020-10-24T07:40:42.937Z</time>
      </trkpt>
      <trkpt lat="46.50354" lon="8.28756">
        <ele>1480</ele>
        <time>2020-10-24T07:40:43.937Z</time>
      </trkpt>
      <trkpt lat="46.50355" lon="8.28758">
        <ele>1480</ele>
        <time>2020-10-24T07:40:44.937Z</time>
      </trkpt>
      <trkpt lat="46.50356" lon="8.2876">
        <ele>1480</ele>
        <time>2020-10-24T07:40:45.936Z</time>
      </trkpt>
      <trkpt lat="46.50358" lon="8.28761">
        <ele>1481</ele>
        <time>2020-10-24T07:40:46.937Z</time>
      </trkpt>
      <trkpt lat="46.50359" lon="8.28762">
        <ele>1481</ele>
        <time>2020-10-24T07:40:47.937Z</time>
      </trkpt>
      <trkpt lat="46.5036" lon="8.28764">
        <ele>1481</ele>
        <time>2020-10-24T07:40:48.937Z</time>
      </trkpt>
      <trkpt lat="46.50361" lon="8.28766">
        <ele>1481</ele>
        <time>2020-10-24T07:40:49.937Z</time>
      </trkpt>
      <trkpt lat="46.50362" lon="8.28768">
        <ele>1481</ele>
        <time>2020-10-24T07:40:50.936Z</time>
      </trkpt>
      <trkpt lat="46.50363" lon="8.28769">
        <ele>1482</ele>
        <time>2020-10-24T07:40:51.937Z</time>
      </trkpt>
      <trkpt lat="46.50364" lon="8.28771">
        <ele>1482</ele>
        <time>2020-10-24T07:40:52.936Z</time>
      </trkpt>
      <trkpt lat="46.50365" lon="8.28772">
        <ele>1483</ele>
        <time>2020-10-24T07:40:53.936Z</time>
      </trkpt>
      <trkpt lat="46.50366" lon="8.28773">
        <ele>1483</ele>
        <time>2020-10-24T07:40:54.937Z</time>
      </trkpt>
      <trkpt lat="46.50367" lon="8.28775">
        <ele>1483</ele>
        <time>2020-10-24T07:40:55.936Z</time>
      </trkpt>
      <trkpt lat="46.50368" lon="8.28777">
        <ele>1484</ele>
        <time>2020-10-24T07:40:56.937Z</time>
      </trkpt>
      <trkpt lat="46.50369" lon="8.28779">
        <ele>1484</ele>
        <time>2020-10-24T07:40:57.937Z</time>
      </trkpt>
      <trkpt lat="46.5037" lon="8.2878">
        <ele>1485</ele>
        <time>2020-10-24T07:40:58.936Z</time>
      </trkpt>
      <trkpt lat="46.50371" lon="8.28781">
        <ele>1485</ele>
        <time>2020-10-24T07:40:59.937Z</time>
      </trkpt>
      <trkpt lat="46.50373" lon="8.28781">
        <ele>1485</ele>
        <time>2020-10-24T07:41:00.937Z</time>
      </trkpt>
      <trkpt lat="46.50374" lon="8.28783">
        <ele>1486</ele>
        <time>2020-10-24T07:41:01.937Z</time>
      </trkpt>
      <trkpt lat="46.50375" lon="8.28785">
        <ele>1486</ele>
        <time>2020-10-24T07:41:02.936Z</time>
      </trkpt>
      <trkpt lat="46.50376" lon="8.28786">
        <ele>1486</ele>
        <time>2020-10-24T07:41:03.937Z</time>
      </trkpt>
      <trkpt lat="46.50377" lon="8.28788">
        <ele>1486</ele>
        <time>2020-10-24T07:41:04.936Z</time>
      </trkpt>
      <trkpt lat="46.50378" lon="8.28789">
        <ele>1486</ele>
        <time>2020-10-24T07:41:05.937Z</time>
      </trkpt>
      <trkpt lat="46.50379" lon="8.28791">
        <ele>1486</ele>
        <time>2020-10-24T07:41:06.936Z</time>
      </trkpt>
      <trkpt lat="46.50379" lon="8.28793">
        <ele>1486</ele>
        <time>2020-10-24T07:41:07.937Z</time>
      </trkpt>
      <trkpt lat="46.5038" lon="8.28795">
        <ele>1486</ele>
        <time>2020-10-24T07:41:08.937Z</time>
      </trkpt>
      <trkpt lat="46.50381" lon="8.28797">
        <ele>1486</ele>
        <time>2020-10-24T07:41:09.937Z</time>
      </trkpt>
      <trkpt lat="46.50381" lon="8.28799">
        <ele>1486</ele>
        <time>2020-10-24T07:41:10.937Z</time>
      </trkpt>
      <trkpt lat="46.50382" lon="8.28801">
        <ele>1486</ele>
        <time>2020-10-24T07:41:11.937Z</time>
      </trkpt>
      <trkpt lat="46.50383" lon="8.28803">
        <ele>1487</ele>
        <time>2020-10-24T07:41:12.937Z</time>
      </trkpt>
      <trkpt lat="46.50384" lon="8.28805">
        <ele>1487</ele>
        <time>2020-10-24T07:41:13.936Z</time>
      </trkpt>
      <trkpt lat="46.50385" lon="8.28807">
        <ele>1486</ele>
        <time>2020-10-24T07:41:14.937Z</time>
      </trkpt>
      <trkpt lat="46.50385" lon="8.28809">
        <ele>1486</ele>
        <time>2020-10-24T07:41:15.937Z</time>
      </trkpt>
      <trkpt lat="46.50386" lon="8.28811">
        <ele>1486</ele>
        <time>2020-10-24T07:41:16.937Z</time>
      </trkpt>
      <trkpt lat="46.50387" lon="8.28813">
        <ele>1486</ele>
        <time>2020-10-24T07:41:17.936Z</time>
      </trkpt>
      <trkpt lat="46.50388" lon="8.28815">
        <ele>1486</ele>
        <time>2020-10-24T07:41:18.937Z</time>
      </trkpt>
      <trkpt lat="46.50389" lon="8.28817">
        <ele>1486</ele>
        <time>2020-10-24T07:41:19.937Z</time>
      </trkpt>
      <trkpt lat="46.5039" lon="8.28819">
        <ele>1487</ele>
        <time>2020-10-24T07:41:20.936Z</time>
      </trkpt>
      <trkpt lat="46.50391" lon="8.28821">
        <ele>1487</ele>
        <time>2020-10-24T07:41:21.937Z</time>
      </trkpt>
      <trkpt lat="46.50392" lon="8.28822">
        <ele>1488</ele>
        <time>2020-10-24T07:41:22.937Z</time>
      </trkpt>
      <trkpt lat="46.50393" lon="8.28824">
        <ele>1488</ele>
        <time>2020-10-24T07:41:23.937Z</time>
      </trkpt>
      <trkpt lat="46.50394" lon="8.28826">
        <ele>1489</ele>
        <time>2020-10-24T07:41:24.936Z</time>
      </trkpt>
      <trkpt lat="46.50395" lon="8.28828">
        <ele>1489</ele>
        <time>2020-10-24T07:41:25.937Z</time>
      </trkpt>
      <trkpt lat="46.50395" lon="8.2883">
        <ele>1489</ele>
        <time>2020-10-24T07:41:26.937Z</time>
      </trkpt>
      <trkpt lat="46.50396" lon="8.28832">
        <ele>1489</ele>
        <time>2020-10-24T07:41:27.937Z</time>
      </trkpt>
      <trkpt lat="46.50396" lon="8.28835">
        <ele>1489</ele>
        <time>2020-10-24T07:41:28.937Z</time>
      </trkpt>
      <trkpt lat="46.50397" lon="8.28837">
        <ele>1490</ele>
        <time>2020-10-24T07:41:29.937Z</time>
      </trkpt>
      <trkpt lat="46.50397" lon="8.28839">
        <ele>1490</ele>
        <time>2020-10-24T07:41:30.936Z</time>
      </trkpt>
      <trkpt lat="46.50398" lon="8.28842">
        <ele>1490</ele>
        <time>2020-10-24T07:41:31.937Z</time>
      </trkpt>
      <trkpt lat="46.50398" lon="8.28844">
        <ele>1490</ele>
        <time>2020-10-24T07:41:32.937Z</time>
      </trkpt>
      <trkpt lat="46.50399" lon="8.28847">
        <ele>1491</ele>
        <time>2020-10-24T07:41:33.936Z</time>
      </trkpt>
      <trkpt lat="46.50399" lon="8.28849">
        <ele>1492</ele>
        <time>2020-10-24T07:41:34.936Z</time>
      </trkpt>
      <trkpt lat="46.504" lon="8.28851">
        <ele>1492</ele>
        <time>2020-10-24T07:41:35.937Z</time>
      </trkpt>
      <trkpt lat="46.50401" lon="8.28853">
        <ele>1492</ele>
        <time>2020-10-24T07:41:36.937Z</time>
      </trkpt>
      <trkpt lat="46.50402" lon="8.28855">
        <ele>1492</ele>
        <time>2020-10-24T07:41:37.936Z</time>
      </trkpt>
      <trkpt lat="46.50402" lon="8.28857">
        <ele>1492</ele>
        <time>2020-10-24T07:41:38.936Z</time>
      </trkpt>
      <trkpt lat="46.50403" lon="8.28859">
        <ele>1492</ele>
        <time>2020-10-24T07:41:39.937Z</time>
      </trkpt>
      <trkpt lat="46.50403" lon="8.28862">
        <ele>1493</ele>
        <time>2020-10-24T07:41:40.936Z</time>
      </trkpt>
      <trkpt lat="46.50404" lon="8.28864">
        <ele>1493</ele>
        <time>2020-10-24T07:41:41.937Z</time>
      </trkpt>
      <trkpt lat="46.50405" lon="8.28866">
        <ele>1493</ele>
        <time>2020-10-24T07:41:42.936Z</time>
      </trkpt>
      <trkpt lat="46.50405" lon="8.28869">
        <ele>1493</ele>
        <time>2020-10-24T07:41:43.936Z</time>
      </trkpt>
      <trkpt lat="46.50406" lon="8.28871">
        <ele>1493</ele>
        <time>2020-10-24T07:41:44.936Z</time>
      </trkpt>
      <trkpt lat="46.50406" lon="8.28873">
        <ele>1493</ele>
        <time>2020-10-24T07:41:45.937Z</time>
      </trkpt>
      <trkpt lat="46.50407" lon="8.28875">
        <ele>1493</ele>
        <time>2020-10-24T07:41:46.937Z</time>
      </trkpt>
      <trkpt lat="46.50407" lon="8.28878">
        <ele>1493</ele>
        <time>2020-10-24T07:41:47.936Z</time>
      </trkpt>
      <trkpt lat="46.50407" lon="8.2888">
        <ele>1493</ele>
        <time>2020-10-24T07:41:48.936Z</time>
      </trkpt>
      <trkpt lat="46.50408" lon="8.28882">
        <ele>1493</ele>
        <time>2020-10-24T07:41:49.937Z</time>
      </trkpt>
      <trkpt lat="46.50408" lon="8.28884">
        <ele>1493</ele>
        <time>2020-10-24T07:41:50.937Z</time>
      </trkpt>
      <trkpt lat="46.50409" lon="8.28887">
        <ele>1492</ele>
        <time>2020-10-24T07:41:51.937Z</time>
      </trkpt>
      <trkpt lat="46.50409" lon="8.28889">
        <ele>1492</ele>
        <time>2020-10-24T07:41:52.937Z</time>
      </trkpt>
      <trkpt lat="46.50409" lon="8.28891">
        <ele>1492</ele>
        <time>2020-10-24T07:41:53.936Z</time>
      </trkpt>
      <trkpt lat="46.5041" lon="8.28893">
        <ele>1492</ele>
        <time>2020-10-24T07:41:54.937Z</time>
      </trkpt>
      <trkpt lat="46.5041" lon="8.28895">
        <ele>1492</ele>
        <time>2020-10-24T07:41:55.937Z</time>
      </trkpt>
      <trkpt lat="46.50411" lon="8.28897">
        <ele>1492</ele>
        <time>2020-10-24T07:41:56.937Z</time>
      </trkpt>
      <trkpt lat="46.50411" lon="8.289">
        <ele>1492</ele>
        <time>2020-10-24T07:41:57.936Z</time>
      </trkpt>
      <trkpt lat="46.50412" lon="8.28902">
        <ele>1493</ele>
        <time>2020-10-24T07:41:58.936Z</time>
      </trkpt>
      <trkpt lat="46.50412" lon="8.28904">
        <ele>1493</ele>
        <time>2020-10-24T07:41:59.937Z</time>
      </trkpt>
      <trkpt lat="46.50412" lon="8.28906">
        <ele>1493</ele>
        <time>2020-10-24T07:42:00.937Z</time>
      </trkpt>
      <trkpt lat="46.50413" lon="8.28909">
        <ele>1493</ele>
        <time>2020-10-24T07:42:01.936Z</time>
      </trkpt>
      <trkpt lat="46.50413" lon="8.28911">
        <ele>1493</ele>
        <time>2020-10-24T07:42:02.937Z</time>
      </trkpt>
      <trkpt lat="46.50413" lon="8.28914">
        <ele>1493</ele>
        <time>2020-10-24T07:42:03.936Z</time>
      </trkpt>
      <trkpt lat="46.50413" lon="8.28916">
        <ele>1493</ele>
        <time>2020-10-24T07:42:04.937Z</time>
      </trkpt>
      <trkpt lat="46.50413" lon="8.28918">
        <ele>1493</ele>
        <time>2020-10-24T07:42:05.937Z</time>
      </trkpt>
      <trkpt lat="46.50413" lon="8.28921">
        <ele>1493</ele>
        <time>2020-10-24T07:42:06.937Z</time>
      </trkpt>
      <trkpt lat="46.50413" lon="8.28923">
        <ele>1493</ele>
        <time>2020-10-24T07:42:07.936Z</time>
      </trkpt>
      <trkpt lat="46.50413" lon="8.28926">
        <ele>1493</ele>
        <time>2020-10-24T07:42:08.936Z</time>
      </trkpt>
      <trkpt lat="46.50413" lon="8.28928">
        <ele>1493</ele>
        <time>2020-10-24T07:42:09.937Z</time>
      </trkpt>
      <trkpt lat="46.50413" lon="8.2893">
        <ele>1493</ele>
        <time>2020-10-24T07:42:10.936Z</time>
      </trkpt>
      <trkpt lat="46.50413" lon="8.28933">
        <ele>1493</ele>
        <time>2020-10-24T07:42:11.937Z</time>
      </trkpt>
      <trkpt lat="46.50414" lon="8.28935">
        <ele>1493</ele>
        <time>2020-10-24T07:42:12.937Z</time>
      </trkpt>
      <trkpt lat="46.50414" lon="8.28938">
        <ele>1493</ele>
        <time>2020-10-24T07:42:13.937Z</time>
      </trkpt>
      <trkpt lat="46.50414" lon="8.28941">
        <ele>1493</ele>
        <time>2020-10-24T07:42:14.937Z</time>
      </trkpt>
      <trkpt lat="46.50415" lon="8.28943">
        <ele>1494</ele>
        <time>2020-10-24T07:42:15.937Z</time>
      </trkpt>
      <trkpt lat="46.50416" lon="8.28945">
        <ele>1494</ele>
        <time>2020-10-24T07:42:16.937Z</time>
      </trkpt>
      <trkpt lat="46.50417" lon="8.28947">
        <ele>1494</ele>
        <time>2020-10-24T07:42:17.936Z</time>
      </trkpt>
      <trkpt lat="46.50418" lon="8.2895">
        <ele>1495</ele>
        <time>2020-10-24T07:42:18.936Z</time>
      </trkpt>
      <trkpt lat="46.50419" lon="8.28952">
        <ele>1495</ele>
        <time>2020-10-24T07:42:19.936Z</time>
      </trkpt>
      <trkpt lat="46.5042" lon="8.28954">
        <ele>1496</ele>
        <time>2020-10-24T07:42:20.936Z</time>
      </trkpt>
      <trkpt lat="46.50421" lon="8.28956">
        <ele>1497</ele>
        <time>2020-10-24T07:42:21.937Z</time>
      </trkpt>
      <trkpt lat="46.50423" lon="8.28957">
        <ele>1497</ele>
        <time>2020-10-24T07:42:22.937Z</time>
      </trkpt>
      <trkpt lat="46.50424" lon="8.28959">
        <ele>1497</ele>
        <time>2020-10-24T07:42:23.937Z</time>
      </trkpt>
      <trkpt lat="46.50425" lon="8.28961">
        <ele>1497</ele>
        <time>2020-10-24T07:42:24.937Z</time>
      </trkpt>
      <trkpt lat="46.50427" lon="8.28962">
        <ele>1497</ele>
        <time>2020-10-24T07:42:25.936Z</time>
      </trkpt>
      <trkpt lat="46.50428" lon="8.28964">
        <ele>1497</ele>
        <time>2020-10-24T07:42:26.936Z</time>
      </trkpt>
      <trkpt lat="46.5043" lon="8.28965">
        <ele>1498</ele>
        <time>2020-10-24T07:42:27.936Z</time>
      </trkpt>
      <trkpt lat="46.50431" lon="8.28967">
        <ele>1498</ele>
        <time>2020-10-24T07:42:28.936Z</time>
      </trkpt>
      <trkpt lat="46.50432" lon="8.28969">
        <ele>1499</ele>
        <time>2020-10-24T07:42:29.936Z</time>
      </trkpt>
      <trkpt lat="46.50434" lon="8.2897">
        <ele>1500</ele>
        <time>2020-10-24T07:42:30.937Z</time>
      </trkpt>
      <trkpt lat="46.50435" lon="8.28972">
        <ele>1500</ele>
        <time>2020-10-24T07:42:31.937Z</time>
      </trkpt>
      <trkpt lat="46.50436" lon="8.28973">
        <ele>1501</ele>
        <time>2020-10-24T07:42:32.937Z</time>
      </trkpt>
      <trkpt lat="46.50437" lon="8.28974">
        <ele>1501</ele>
        <time>2020-10-24T07:42:33.936Z</time>
      </trkpt>
      <trkpt lat="46.50439" lon="8.28976">
        <ele>1501</ele>
        <time>2020-10-24T07:42:34.937Z</time>
      </trkpt>
      <trkpt lat="46.5044" lon="8.28977">
        <ele>1502</ele>
        <time>2020-10-24T07:42:35.937Z</time>
      </trkpt>
      <trkpt lat="46.50441" lon="8.28978">
        <ele>1502</ele>
        <time>2020-10-24T07:42:36.936Z</time>
      </trkpt>
      <trkpt lat="46.50442" lon="8.28979">
        <ele>1502</ele>
        <time>2020-10-24T07:42:37.937Z</time>
      </trkpt>
      <trkpt lat="46.50444" lon="8.2898">
        <ele>1503</ele>
        <time>2020-10-24T07:42:38.937Z</time>
      </trkpt>
      <trkpt lat="46.50445" lon="8.28982">
        <ele>1503</ele>
        <time>2020-10-24T07:42:39.936Z</time>
      </trkpt>
      <trkpt lat="46.50447" lon="8.28983">
        <ele>1503</ele>
        <time>2020-10-24T07:42:40.937Z</time>
      </trkpt>
      <trkpt lat="46.50448" lon="8.28984">
        <ele>1503</ele>
        <time>2020-10-24T07:42:41.937Z</time>
      </trkpt>
      <trkpt lat="46.50449" lon="8.28985">
        <ele>1503</ele>
        <time>2020-10-24T07:42:42.936Z</time>
      </trkpt>
      <trkpt lat="46.50451" lon="8.28986">
        <ele>1503</ele>
        <time>2020-10-24T07:42:43.937Z</time>
      </trkpt>
      <trkpt lat="46.50452" lon="8.28988">
        <ele>1504</ele>
        <time>2020-10-24T07:42:44.937Z</time>
      </trkpt>
      <trkpt lat="46.50453" lon="8.28989">
        <ele>1505</ele>
        <time>2020-10-24T07:42:45.937Z</time>
      </trkpt>
      <trkpt lat="46.50455" lon="8.2899">
        <ele>1505</ele>
        <time>2020-10-24T07:42:46.937Z</time>
      </trkpt>
      <trkpt lat="46.50456" lon="8.28991">
        <ele>1505</ele>
        <time>2020-10-24T07:42:47.937Z</time>
      </trkpt>
      <trkpt lat="46.50458" lon="8.28991">
        <ele>1505</ele>
        <time>2020-10-24T07:42:48.936Z</time>
      </trkpt>
      <trkpt lat="46.50459" lon="8.28992">
        <ele>1506</ele>
        <time>2020-10-24T07:42:49.937Z</time>
      </trkpt>
      <trkpt lat="46.50461" lon="8.28993">
        <ele>1506</ele>
        <time>2020-10-24T07:42:50.937Z</time>
      </trkpt>
      <trkpt lat="46.50462" lon="8.28993">
        <ele>1506</ele>
        <time>2020-10-24T07:42:51.936Z</time>
      </trkpt>
      <trkpt lat="46.50464" lon="8.28994">
        <ele>1507</ele>
        <time>2020-10-24T07:42:52.936Z</time>
      </trkpt>
      <trkpt lat="46.50465" lon="8.28995">
        <ele>1507</ele>
        <time>2020-10-24T07:42:53.937Z</time>
      </trkpt>
      <trkpt lat="46.50467" lon="8.28996">
        <ele>1508</ele>
        <time>2020-10-24T07:42:54.937Z</time>
      </trkpt>
      <trkpt lat="46.50468" lon="8.28997">
        <ele>1508</ele>
        <time>2020-10-24T07:42:55.937Z</time>
      </trkpt>
      <trkpt lat="46.50469" lon="8.28998">
        <ele>1509</ele>
        <time>2020-10-24T07:42:56.936Z</time>
      </trkpt>
      <trkpt lat="46.50471" lon="8.28999">
        <ele>1509</ele>
        <time>2020-10-24T07:42:57.937Z</time>
      </trkpt>
      <trkpt lat="46.50472" lon="8.28999">
        <ele>1509</ele>
        <time>2020-10-24T07:42:58.937Z</time>
      </trkpt>
      <trkpt lat="46.50474" lon="8.29">
        <ele>1509</ele>
        <time>2020-10-24T07:42:59.937Z</time>
      </trkpt>
      <trkpt lat="46.50475" lon="8.29001">
        <ele>1510</ele>
        <time>2020-10-24T07:43:00.936Z</time>
      </trkpt>
      <trkpt lat="46.50477" lon="8.29002">
        <ele>1511</ele>
        <time>2020-10-24T07:43:01.936Z</time>
      </trkpt>
      <trkpt lat="46.50478" lon="8.29003">
        <ele>1511</ele>
        <time>2020-10-24T07:43:02.937Z</time>
      </trkpt>
      <trkpt lat="46.50479" lon="8.29004">
        <ele>1511</ele>
        <time>2020-10-24T07:43:03.936Z</time>
      </trkpt>
      <trkpt lat="46.50481" lon="8.29005">
        <ele>1512</ele>
        <time>2020-10-24T07:43:04.936Z</time>
      </trkpt>
      <trkpt lat="46.50482" lon="8.29006">
        <ele>1512</ele>
        <time>2020-10-24T07:43:05.937Z</time>
      </trkpt>
      <trkpt lat="46.50483" lon="8.29007">
        <ele>1512</ele>
        <time>2020-10-24T07:43:06.937Z</time>
      </trkpt>
      <trkpt lat="46.50485" lon="8.29008">
        <ele>1512</ele>
        <time>2020-10-24T07:43:07.936Z</time>
      </trkpt>
      <trkpt lat="46.50486" lon="8.29009">
        <ele>1512</ele>
        <time>2020-10-24T07:43:08.937Z</time>
      </trkpt>
      <trkpt lat="46.50487" lon="8.2901">
        <ele>1512</ele>
        <time>2020-10-24T07:43:09.936Z</time>
      </trkpt>
      <trkpt lat="46.50489" lon="8.29011">
        <ele>1512</ele>
        <time>2020-10-24T07:43:10.936Z</time>
      </trkpt>
      <trkpt lat="46.5049" lon="8.29012">
        <ele>1512</ele>
        <time>2020-10-24T07:43:11.936Z</time>
      </trkpt>
      <trkpt lat="46.50491" lon="8.29013">
        <ele>1512</ele>
        <time>2020-10-24T07:43:12.936Z</time>
      </trkpt>
      <trkpt lat="46.50493" lon="8.29014">
        <ele>1512</ele>
        <time>2020-10-24T07:43:13.936Z</time>
      </trkpt>
      <trkpt lat="46.50494" lon="8.29015">
        <ele>1513</ele>
        <time>2020-10-24T07:43:14.937Z</time>
      </trkpt>
      <trkpt lat="46.50496" lon="8.29015">
        <ele>1513</ele>
        <time>2020-10-24T07:43:15.937Z</time>
      </trkpt>
      <trkpt lat="46.50497" lon="8.29015">
        <ele>1513</ele>
        <time>2020-10-24T07:43:16.937Z</time>
      </trkpt>
      <trkpt lat="46.50498" lon="8.29016">
        <ele>1513</ele>
        <time>2020-10-24T07:43:17.937Z</time>
      </trkpt>
      <trkpt lat="46.50499" lon="8.29015">
        <ele>1513</ele>
        <time>2020-10-24T07:43:18.937Z</time>
      </trkpt>
      <trkpt lat="46.505" lon="8.29014">
        <ele>1514</ele>
        <time>2020-10-24T07:43:19.936Z</time>
      </trkpt>
      <trkpt lat="46.50501" lon="8.29012">
        <ele>1514</ele>
        <time>2020-10-24T07:43:20.937Z</time>
      </trkpt>
      <trkpt lat="46.50501" lon="8.2901">
        <ele>1514</ele>
        <time>2020-10-24T07:43:21.936Z</time>
      </trkpt>
      <trkpt lat="46.505" lon="8.29009">
        <ele>1514</ele>
        <time>2020-10-24T07:43:22.936Z</time>
      </trkpt>
      <trkpt lat="46.50499" lon="8.29007">
        <ele>1514</ele>
        <time>2020-10-24T07:43:23.937Z</time>
      </trkpt>
      <trkpt lat="46.50499" lon="8.29006">
        <ele>1514</ele>
        <time>2020-10-24T07:43:24.936Z</time>
      </trkpt>
      <trkpt lat="46.50497" lon="8.29003">
        <ele>1514</ele>
        <time>2020-10-24T07:43:25.936Z</time>
      </trkpt>
      <trkpt lat="46.50496" lon="8.29001">
        <ele>1514</ele>
        <time>2020-10-24T07:43:26.937Z</time>
      </trkpt>
      <trkpt lat="46.50494" lon="8.29">
        <ele>1514</ele>
        <time>2020-10-24T07:43:27.937Z</time>
      </trkpt>
      <trkpt lat="46.50493" lon="8.28998">
        <ele>1515</ele>
        <time>2020-10-24T07:43:28.937Z</time>
      </trkpt>
      <trkpt lat="46.50492" lon="8.28997">
        <ele>1515</ele>
        <time>2020-10-24T07:43:29.937Z</time>
      </trkpt>
      <trkpt lat="46.50491" lon="8.28995">
        <ele>1515</ele>
        <time>2020-10-24T07:43:30.937Z</time>
      </trkpt>
      <trkpt lat="46.5049" lon="8.28994">
        <ele>1516</ele>
        <time>2020-10-24T07:43:31.937Z</time>
      </trkpt>
      <trkpt lat="46.5049" lon="8.28993">
        <ele>1516</ele>
        <time>2020-10-24T07:43:32.937Z</time>
      </trkpt>
      <trkpt lat="46.50488" lon="8.28992">
        <ele>1516</ele>
        <time>2020-10-24T07:43:33.937Z</time>
      </trkpt>
      <trkpt lat="46.50487" lon="8.28991">
        <ele>1517</ele>
        <time>2020-10-24T07:43:34.936Z</time>
      </trkpt>
      <trkpt lat="46.50486" lon="8.2899">
        <ele>1518</ele>
        <time>2020-10-24T07:43:35.936Z</time>
      </trkpt>
      <trkpt lat="46.50484" lon="8.28988">
        <ele>1518</ele>
        <time>2020-10-24T07:43:36.937Z</time>
      </trkpt>
      <trkpt lat="46.50482" lon="8.28987">
        <ele>1519</ele>
        <time>2020-10-24T07:43:37.936Z</time>
      </trkpt>
      <trkpt lat="46.5048" lon="8.28986">
        <ele>1519</ele>
        <time>2020-10-24T07:43:38.936Z</time>
      </trkpt>
      <trkpt lat="46.50479" lon="8.28985">
        <ele>1519</ele>
        <time>2020-10-24T07:43:39.937Z</time>
      </trkpt>
      <trkpt lat="46.50478" lon="8.28983">
        <ele>1519</ele>
        <time>2020-10-24T07:43:40.937Z</time>
      </trkpt>
      <trkpt lat="46.50476" lon="8.28983">
        <ele>1519</ele>
        <time>2020-10-24T07:43:41.936Z</time>
      </trkpt>
      <trkpt lat="46.50475" lon="8.28982">
        <ele>1519</ele>
        <time>2020-10-24T07:43:42.937Z</time>
      </trkpt>
      <trkpt lat="46.50474" lon="8.28981">
        <ele>1519</ele>
        <time>2020-10-24T07:43:43.936Z</time>
      </trkpt>
      <trkpt lat="46.50473" lon="8.2898">
        <ele>1520</ele>
        <time>2020-10-24T07:43:44.937Z</time>
      </trkpt>
      <trkpt lat="46.50472" lon="8.28979">
        <ele>1520</ele>
        <time>2020-10-24T07:43:45.937Z</time>
      </trkpt>
      <trkpt lat="46.50471" lon="8.28978">
        <ele>1520</ele>
        <time>2020-10-24T07:43:46.937Z</time>
      </trkpt>
      <trkpt lat="46.5047" lon="8.28976">
        <ele>1520</ele>
        <time>2020-10-24T07:43:47.937Z</time>
      </trkpt>
      <trkpt lat="46.50469" lon="8.28975">
        <ele>1520</ele>
        <time>2020-10-24T07:43:48.936Z</time>
      </trkpt>
      <trkpt lat="46.50468" lon="8.28974">
        <ele>1520</ele>
        <time>2020-10-24T07:43:49.937Z</time>
      </trkpt>
      <trkpt lat="46.50467" lon="8.28972">
        <ele>1520</ele>
        <time>2020-10-24T07:43:50.937Z</time>
      </trkpt>
      <trkpt lat="46.50466" lon="8.28971">
        <ele>1520</ele>
        <time>2020-10-24T07:43:51.936Z</time>
      </trkpt>
      <trkpt lat="46.50465" lon="8.28969">
        <ele>1520</ele>
        <time>2020-10-24T07:43:52.937Z</time>
      </trkpt>
      <trkpt lat="46.50465" lon="8.28968">
        <ele>1520</ele>
        <time>2020-10-24T07:43:53.937Z</time>
      </trkpt>
      <trkpt lat="46.50464" lon="8.28967">
        <ele>1520</ele>
        <time>2020-10-24T07:43:54.937Z</time>
      </trkpt>
      <trkpt lat="46.50463" lon="8.28965">
        <ele>1519</ele>
        <time>2020-10-24T07:43:55.937Z</time>
      </trkpt>
      <trkpt lat="46.50462" lon="8.28964">
        <ele>1519</ele>
        <time>2020-10-24T07:43:56.937Z</time>
      </trkpt>
      <trkpt lat="46.50462" lon="8.28962">
        <ele>1519</ele>
        <time>2020-10-24T07:43:57.937Z</time>
      </trkpt>
      <trkpt lat="46.50462" lon="8.2896">
        <ele>1518</ele>
        <time>2020-10-24T07:43:58.937Z</time>
      </trkpt>
      <trkpt lat="46.50461" lon="8.28958">
        <ele>1518</ele>
        <time>2020-10-24T07:43:59.937Z</time>
      </trkpt>
      <trkpt lat="46.5046" lon="8.28956">
        <ele>1517</ele>
        <time>2020-10-24T07:44:00.937Z</time>
      </trkpt>
      <trkpt lat="46.50459" lon="8.28955">
        <ele>1517</ele>
        <time>2020-10-24T07:44:01.937Z</time>
      </trkpt>
      <trkpt lat="46.50458" lon="8.28953">
        <ele>1517</ele>
        <time>2020-10-24T07:44:02.936Z</time>
      </trkpt>
      <trkpt lat="46.50457" lon="8.2895">
        <ele>1517</ele>
        <time>2020-10-24T07:44:03.936Z</time>
      </trkpt>
      <trkpt lat="46.50456" lon="8.28947">
        <ele>1516</ele>
        <time>2020-10-24T07:44:04.937Z</time>
      </trkpt>
      <trkpt lat="46.50455" lon="8.28944">
        <ele>1516</ele>
        <time>2020-10-24T07:44:05.936Z</time>
      </trkpt>
      <trkpt lat="46.50455" lon="8.28942">
        <ele>1516</ele>
        <time>2020-10-24T07:44:06.936Z</time>
      </trkpt>
      <trkpt lat="46.50456" lon="8.28939">
        <ele>1515</ele>
        <time>2020-10-24T07:44:07.936Z</time>
      </trkpt>
      <trkpt lat="46.50455" lon="8.28937">
        <ele>1515</ele>
        <time>2020-10-24T07:44:08.936Z</time>
      </trkpt>
      <trkpt lat="46.50455" lon="8.28935">
        <ele>1515</ele>
        <time>2020-10-24T07:44:09.937Z</time>
      </trkpt>
      <trkpt lat="46.50454" lon="8.28932">
        <ele>1515</ele>
        <time>2020-10-24T07:44:10.936Z</time>
      </trkpt>
      <trkpt lat="46.50453" lon="8.2893">
        <ele>1515</ele>
        <time>2020-10-24T07:44:11.936Z</time>
      </trkpt>
      <trkpt lat="46.50453" lon="8.28928">
        <ele>1515</ele>
        <time>2020-10-24T07:44:12.937Z</time>
      </trkpt>
      <trkpt lat="46.50451" lon="8.28927">
        <ele>1516</ele>
        <time>2020-10-24T07:44:13.936Z</time>
      </trkpt>
      <trkpt lat="46.5045" lon="8.28925">
        <ele>1516</ele>
        <time>2020-10-24T07:44:14.936Z</time>
      </trkpt>
      <trkpt lat="46.50449" lon="8.28924">
        <ele>1517</ele>
        <time>2020-10-24T07:44:15.936Z</time>
      </trkpt>
      <trkpt lat="46.50448" lon="8.28922">
        <ele>1518</ele>
        <time>2020-10-24T07:44:16.937Z</time>
      </trkpt>
      <trkpt lat="46.50448" lon="8.2892">
        <ele>1518</ele>
        <time>2020-10-24T07:44:17.936Z</time>
      </trkpt>
      <trkpt lat="46.50448" lon="8.28918">
        <ele>1518</ele>
        <time>2020-10-24T07:44:18.936Z</time>
      </trkpt>
      <trkpt lat="46.50448" lon="8.28916">
        <ele>1518</ele>
        <time>2020-10-24T07:44:19.936Z</time>
      </trkpt>
      <trkpt lat="46.50449" lon="8.28913">
        <ele>1518</ele>
        <time>2020-10-24T07:44:20.936Z</time>
      </trkpt>
      <trkpt lat="46.50449" lon="8.28911">
        <ele>1518</ele>
        <time>2020-10-24T07:44:21.936Z</time>
      </trkpt>
      <trkpt lat="46.5045" lon="8.28909">
        <ele>1517</ele>
        <time>2020-10-24T07:44:22.936Z</time>
      </trkpt>
      <trkpt lat="46.5045" lon="8.28907">
        <ele>1517</ele>
        <time>2020-10-24T07:44:23.936Z</time>
      </trkpt>
      <trkpt lat="46.50451" lon="8.28906">
        <ele>1517</ele>
        <time>2020-10-24T07:44:24.936Z</time>
      </trkpt>
      <trkpt lat="46.50451" lon="8.28903">
        <ele>1516</ele>
        <time>2020-10-24T07:44:25.936Z</time>
      </trkpt>
      <trkpt lat="46.50451" lon="8.28901">
        <ele>1516</ele>
        <time>2020-10-24T07:44:26.936Z</time>
      </trkpt>
      <trkpt lat="46.50452" lon="8.28899">
        <ele>1515</ele>
        <time>2020-10-24T07:44:27.936Z</time>
      </trkpt>
      <trkpt lat="46.50452" lon="8.28897">
        <ele>1515</ele>
        <time>2020-10-24T07:44:28.936Z</time>
      </trkpt>
      <trkpt lat="46.50453" lon="8.28895">
        <ele>1514</ele>
        <time>2020-10-24T07:44:29.936Z</time>
      </trkpt>
      <trkpt lat="46.50453" lon="8.28893">
        <ele>1514</ele>
        <time>2020-10-24T07:44:30.936Z</time>
      </trkpt>
      <trkpt lat="46.50454" lon="8.28891">
        <ele>1514</ele>
        <time>2020-10-24T07:44:31.936Z</time>
      </trkpt>
      <trkpt lat="46.50454" lon="8.28889">
        <ele>1514</ele>
        <time>2020-10-24T07:44:32.936Z</time>
      </trkpt>
      <trkpt lat="46.50454" lon="8.28888">
        <ele>1514</ele>
        <time>2020-10-24T07:44:33.937Z</time>
      </trkpt>
      <trkpt lat="46.50454" lon="8.28886">
        <ele>1514</ele>
        <time>2020-10-24T07:44:34.937Z</time>
      </trkpt>
      <trkpt lat="46.50454" lon="8.28883">
        <ele>1515</ele>
        <time>2020-10-24T07:44:35.937Z</time>
      </trkpt>
      <trkpt lat="46.50454" lon="8.28882">
        <ele>1515</ele>
        <time>2020-10-24T07:44:36.937Z</time>
      </trkpt>
      <trkpt lat="46.50454" lon="8.28879">
        <ele>1516</ele>
        <time>2020-10-24T07:44:37.937Z</time>
      </trkpt>
      <trkpt lat="46.50454" lon="8.28877">
        <ele>1516</ele>
        <time>2020-10-24T07:44:38.937Z</time>
      </trkpt>
      <trkpt lat="46.50455" lon="8.28874">
        <ele>1516</ele>
        <time>2020-10-24T07:44:39.936Z</time>
      </trkpt>
      <trkpt lat="46.50455" lon="8.28872">
        <ele>1516</ele>
        <time>2020-10-24T07:44:40.937Z</time>
      </trkpt>
      <trkpt lat="46.50455" lon="8.28869">
        <ele>1517</ele>
        <time>2020-10-24T07:44:41.936Z</time>
      </trkpt>
      <trkpt lat="46.50454" lon="8.28867">
        <ele>1517</ele>
        <time>2020-10-24T07:44:42.937Z</time>
      </trkpt>
      <trkpt lat="46.50453" lon="8.28864">
        <ele>1518</ele>
        <time>2020-10-24T07:44:43.937Z</time>
      </trkpt>
      <trkpt lat="46.50453" lon="8.28862">
        <ele>1519</ele>
        <time>2020-10-24T07:44:44.936Z</time>
      </trkpt>
      <trkpt lat="46.50454" lon="8.2886">
        <ele>1520</ele>
        <time>2020-10-24T07:44:45.937Z</time>
      </trkpt>
      <trkpt lat="46.50454" lon="8.28857">
        <ele>1521</ele>
        <time>2020-10-24T07:44:46.937Z</time>
      </trkpt>
      <trkpt lat="46.50454" lon="8.28855">
        <ele>1521</ele>
        <time>2020-10-24T07:44:47.936Z</time>
      </trkpt>
      <trkpt lat="46.50455" lon="8.28852">
        <ele>1521</ele>
        <time>2020-10-24T07:44:48.937Z</time>
      </trkpt>
      <trkpt lat="46.50454" lon="8.2885">
        <ele>1521</ele>
        <time>2020-10-24T07:44:49.937Z</time>
      </trkpt>
      <trkpt lat="46.50454" lon="8.28847">
        <ele>1521</ele>
        <time>2020-10-24T07:44:50.936Z</time>
      </trkpt>
      <trkpt lat="46.50454" lon="8.28845">
        <ele>1521</ele>
        <time>2020-10-24T07:44:51.936Z</time>
      </trkpt>
      <trkpt lat="46.50454" lon="8.28843">
        <ele>1521</ele>
        <time>2020-10-24T07:44:52.936Z</time>
      </trkpt>
      <trkpt lat="46.50453" lon="8.2884">
        <ele>1521</ele>
        <time>2020-10-24T07:44:53.937Z</time>
      </trkpt>
      <trkpt lat="46.50453" lon="8.28838">
        <ele>1521</ele>
        <time>2020-10-24T07:44:54.937Z</time>
      </trkpt>
      <trkpt lat="46.50452" lon="8.28836">
        <ele>1520</ele>
        <time>2020-10-24T07:44:55.937Z</time>
      </trkpt>
      <trkpt lat="46.50452" lon="8.28833">
        <ele>1520</ele>
        <time>2020-10-24T07:44:56.936Z</time>
      </trkpt>
      <trkpt lat="46.50451" lon="8.2883">
        <ele>1520</ele>
        <time>2020-10-24T07:44:57.937Z</time>
      </trkpt>
      <trkpt lat="46.50451" lon="8.28828">
        <ele>1520</ele>
        <time>2020-10-24T07:44:58.937Z</time>
      </trkpt>
      <trkpt lat="46.50451" lon="8.28826">
        <ele>1520</ele>
        <time>2020-10-24T07:44:59.937Z</time>
      </trkpt>
      <trkpt lat="46.5045" lon="8.28824">
        <ele>1520</ele>
        <time>2020-10-24T07:45:00.937Z</time>
      </trkpt>
      <trkpt lat="46.5045" lon="8.28822">
        <ele>1520</ele>
        <time>2020-10-24T07:45:01.937Z</time>
      </trkpt>
      <trkpt lat="46.5045" lon="8.28819">
        <ele>1520</ele>
        <time>2020-10-24T07:45:02.936Z</time>
      </trkpt>
      <trkpt lat="46.5045" lon="8.28818">
        <ele>1520</ele>
        <time>2020-10-24T07:45:03.936Z</time>
      </trkpt>
      <trkpt lat="46.5045" lon="8.28816">
        <ele>1520</ele>
        <time>2020-10-24T07:45:04.937Z</time>
      </trkpt>
      <trkpt lat="46.5045" lon="8.28815">
        <ele>1520</ele>
        <time>2020-10-24T07:45:05.937Z</time>
      </trkpt>
      <trkpt lat="46.5045" lon="8.28812">
        <ele>1520</ele>
        <time>2020-10-24T07:45:06.937Z</time>
      </trkpt>
      <trkpt lat="46.5045" lon="8.28809">
        <ele>1520</ele>
        <time>2020-10-24T07:45:07.937Z</time>
      </trkpt>
      <trkpt lat="46.5045" lon="8.28807">
        <ele>1520</ele>
        <time>2020-10-24T07:45:08.936Z</time>
      </trkpt>
      <trkpt lat="46.50451" lon="8.28804">
        <ele>1520</ele>
        <time>2020-10-24T07:45:09.936Z</time>
      </trkpt>
      <trkpt lat="46.50452" lon="8.28801">
        <ele>1520</ele>
        <time>2020-10-24T07:45:10.937Z</time>
      </trkpt>
      <trkpt lat="46.50452" lon="8.28798">
        <ele>1520</ele>
        <time>2020-10-24T07:45:11.937Z</time>
      </trkpt>
      <trkpt lat="46.50451" lon="8.28795">
        <ele>1521</ele>
        <time>2020-10-24T07:45:12.937Z</time>
      </trkpt>
      <trkpt lat="46.50449" lon="8.28792">
        <ele>1521</ele>
        <time>2020-10-24T07:45:13.936Z</time>
      </trkpt>
      <trkpt lat="46.50448" lon="8.28791">
        <ele>1522</ele>
        <time>2020-10-24T07:45:14.937Z</time>
      </trkpt>
      <trkpt lat="46.50448" lon="8.28789">
        <ele>1522</ele>
        <time>2020-10-24T07:45:15.937Z</time>
      </trkpt>
      <trkpt lat="46.50447" lon="8.28786">
        <ele>1523</ele>
        <time>2020-10-24T07:45:16.936Z</time>
      </trkpt>
      <trkpt lat="46.50447" lon="8.28783">
        <ele>1523</ele>
        <time>2020-10-24T07:45:17.936Z</time>
      </trkpt>
      <trkpt lat="46.50447" lon="8.28781">
        <ele>1523</ele>
        <time>2020-10-24T07:45:18.936Z</time>
      </trkpt>
      <trkpt lat="46.50448" lon="8.28778">
        <ele>1523</ele>
        <time>2020-10-24T07:45:19.937Z</time>
      </trkpt>
      <trkpt lat="46.50448" lon="8.28775">
        <ele>1524</ele>
        <time>2020-10-24T07:45:20.936Z</time>
      </trkpt>
      <trkpt lat="46.50447" lon="8.28773">
        <ele>1524</ele>
        <time>2020-10-24T07:45:21.937Z</time>
      </trkpt>
      <trkpt lat="46.50447" lon="8.28771">
        <ele>1525</ele>
        <time>2020-10-24T07:45:22.937Z</time>
      </trkpt>
      <trkpt lat="46.50446" lon="8.28769">
        <ele>1525</ele>
        <time>2020-10-24T07:45:23.937Z</time>
      </trkpt>
      <trkpt lat="46.50445" lon="8.28768">
        <ele>1525</ele>
        <time>2020-10-24T07:45:24.936Z</time>
      </trkpt>
      <trkpt lat="46.50443" lon="8.28766">
        <ele>1525</ele>
        <time>2020-10-24T07:45:25.937Z</time>
      </trkpt>
      <trkpt lat="46.50443" lon="8.28765">
        <ele>1524</ele>
        <time>2020-10-24T07:45:26.937Z</time>
      </trkpt>
      <trkpt lat="46.50443" lon="8.28763">
        <ele>1524</ele>
        <time>2020-10-24T07:45:27.937Z</time>
      </trkpt>
      <trkpt lat="46.50443" lon="8.2876">
        <ele>1524</ele>
        <time>2020-10-24T07:45:28.937Z</time>
      </trkpt>
      <trkpt lat="46.50442" lon="8.28758">
        <ele>1524</ele>
        <time>2020-10-24T07:45:29.937Z</time>
      </trkpt>
      <trkpt lat="46.5044" lon="8.28756">
        <ele>1524</ele>
        <time>2020-10-24T07:45:30.937Z</time>
      </trkpt>
      <trkpt lat="46.50438" lon="8.28755">
        <ele>1525</ele>
        <time>2020-10-24T07:45:31.936Z</time>
      </trkpt>
      <trkpt lat="46.50437" lon="8.28753">
        <ele>1525</ele>
        <time>2020-10-24T07:45:32.937Z</time>
      </trkpt>
      <trkpt lat="46.50436" lon="8.28752">
        <ele>1525</ele>
        <time>2020-10-24T07:45:33.937Z</time>
      </trkpt>
      <trkpt lat="46.50435" lon="8.2875">
        <ele>1525</ele>
        <time>2020-10-24T07:45:34.937Z</time>
      </trkpt>
      <trkpt lat="46.50434" lon="8.28748">
        <ele>1525</ele>
        <time>2020-10-24T07:45:35.937Z</time>
      </trkpt>
      <trkpt lat="46.50434" lon="8.28746">
        <ele>1525</ele>
        <time>2020-10-24T07:45:36.937Z</time>
      </trkpt>
      <trkpt lat="46.50433" lon="8.28744">
        <ele>1525</ele>
        <time>2020-10-24T07:45:37.937Z</time>
      </trkpt>
      <trkpt lat="46.50433" lon="8.28742">
        <ele>1524</ele>
        <time>2020-10-24T07:45:38.937Z</time>
      </trkpt>
      <trkpt lat="46.50433" lon="8.2874">
        <ele>1524</ele>
        <time>2020-10-24T07:45:39.937Z</time>
      </trkpt>
      <trkpt lat="46.50432" lon="8.28738">
        <ele>1524</ele>
        <time>2020-10-24T07:45:40.937Z</time>
      </trkpt>
      <trkpt lat="46.50431" lon="8.28737">
        <ele>1523</ele>
        <time>2020-10-24T07:45:41.937Z</time>
      </trkpt>
      <trkpt lat="46.5043" lon="8.28735">
        <ele>1523</ele>
        <time>2020-10-24T07:45:42.937Z</time>
      </trkpt>
      <trkpt lat="46.5043" lon="8.28734">
        <ele>1523</ele>
        <time>2020-10-24T07:45:43.937Z</time>
      </trkpt>
      <trkpt lat="46.50429" lon="8.28732">
        <ele>1523</ele>
        <time>2020-10-24T07:45:44.936Z</time>
      </trkpt>
      <trkpt lat="46.50429" lon="8.2873">
        <ele>1524</ele>
        <time>2020-10-24T07:45:45.936Z</time>
      </trkpt>
      <trkpt lat="46.50428" lon="8.28728">
        <ele>1524</ele>
        <time>2020-10-24T07:45:46.936Z</time>
      </trkpt>
      <trkpt lat="46.50428" lon="8.28726">
        <ele>1524</ele>
        <time>2020-10-24T07:45:47.936Z</time>
      </trkpt>
      <trkpt lat="46.50427" lon="8.28724">
        <ele>1524</ele>
        <time>2020-10-24T07:45:48.936Z</time>
      </trkpt>
      <trkpt lat="46.50426" lon="8.28722">
        <ele>1524</ele>
        <time>2020-10-24T07:45:49.937Z</time>
      </trkpt>
      <trkpt lat="46.50425" lon="8.2872">
        <ele>1524</ele>
        <time>2020-10-24T07:45:50.936Z</time>
      </trkpt>
      <trkpt lat="46.50424" lon="8.28718">
        <ele>1525</ele>
        <time>2020-10-24T07:45:51.937Z</time>
      </trkpt>
      <trkpt lat="46.50424" lon="8.28716">
        <ele>1525</ele>
        <time>2020-10-24T07:45:52.936Z</time>
      </trkpt>
      <trkpt lat="46.50423" lon="8.28714">
        <ele>1525</ele>
        <time>2020-10-24T07:45:53.936Z</time>
      </trkpt>
      <trkpt lat="46.50423" lon="8.28711">
        <ele>1525</ele>
        <time>2020-10-24T07:45:54.937Z</time>
      </trkpt>
      <trkpt lat="46.50422" lon="8.28709">
        <ele>1525</ele>
        <time>2020-10-24T07:45:55.937Z</time>
      </trkpt>
      <trkpt lat="46.50421" lon="8.28707">
        <ele>1525</ele>
        <time>2020-10-24T07:45:56.936Z</time>
      </trkpt>
      <trkpt lat="46.5042" lon="8.28705">
        <ele>1524</ele>
        <time>2020-10-24T07:45:57.936Z</time>
      </trkpt>
      <trkpt lat="46.5042" lon="8.28704">
        <ele>1524</ele>
        <time>2020-10-24T07:45:58.936Z</time>
      </trkpt>
      <trkpt lat="46.50419" lon="8.28701">
        <ele>1525</ele>
        <time>2020-10-24T07:45:59.937Z</time>
      </trkpt>
      <trkpt lat="46.50419" lon="8.28699">
        <ele>1525</ele>
        <time>2020-10-24T07:46:00.937Z</time>
      </trkpt>
      <trkpt lat="46.50418" lon="8.28697">
        <ele>1525</ele>
        <time>2020-10-24T07:46:01.936Z</time>
      </trkpt>
      <trkpt lat="46.50417" lon="8.28696">
        <ele>1525</ele>
        <time>2020-10-24T07:46:02.936Z</time>
      </trkpt>
      <trkpt lat="46.50416" lon="8.28694">
        <ele>1525</ele>
        <time>2020-10-24T07:46:03.936Z</time>
      </trkpt>
      <trkpt lat="46.50416" lon="8.28692">
        <ele>1525</ele>
        <time>2020-10-24T07:46:04.937Z</time>
      </trkpt>
      <trkpt lat="46.50415" lon="8.2869">
        <ele>1525</ele>
        <time>2020-10-24T07:46:05.936Z</time>
      </trkpt>
      <trkpt lat="46.50414" lon="8.28688">
        <ele>1525</ele>
        <time>2020-10-24T07:46:06.936Z</time>
      </trkpt>
      <trkpt lat="46.50413" lon="8.28686">
        <ele>1525</ele>
        <time>2020-10-24T07:46:07.936Z</time>
      </trkpt>
      <trkpt lat="46.50412" lon="8.28684">
        <ele>1525</ele>
        <time>2020-10-24T07:46:08.936Z</time>
      </trkpt>
      <trkpt lat="46.50411" lon="8.28682">
        <ele>1526</ele>
        <time>2020-10-24T07:46:09.937Z</time>
      </trkpt>
      <trkpt lat="46.5041" lon="8.28679">
        <ele>1527</ele>
        <time>2020-10-24T07:46:10.936Z</time>
      </trkpt>
      <trkpt lat="46.5041" lon="8.28677">
        <ele>1528</ele>
        <time>2020-10-24T07:46:11.936Z</time>
      </trkpt>
      <trkpt lat="46.5041" lon="8.28676">
        <ele>1528</ele>
        <time>2020-10-24T07:46:12.936Z</time>
      </trkpt>
      <trkpt lat="46.5041" lon="8.28674">
        <ele>1529</ele>
        <time>2020-10-24T07:46:13.936Z</time>
      </trkpt>
      <trkpt lat="46.50411" lon="8.28673">
        <ele>1530</ele>
        <time>2020-10-24T07:46:14.937Z</time>
      </trkpt>
      <trkpt lat="46.50412" lon="8.28672">
        <ele>1531</ele>
        <time>2020-10-24T07:46:15.937Z</time>
      </trkpt>
      <trkpt lat="46.50413" lon="8.28671">
        <ele>1532</ele>
        <time>2020-10-24T07:46:16.936Z</time>
      </trkpt>
      <trkpt lat="46.50413" lon="8.28672">
        <ele>1533</ele>
        <time>2020-10-24T07:46:17.936Z</time>
      </trkpt>
      <trkpt lat="46.50414" lon="8.28673">
        <ele>1534</ele>
        <time>2020-10-24T07:46:18.936Z</time>
      </trkpt>
      <trkpt lat="46.50415" lon="8.28674">
        <ele>1535</ele>
        <time>2020-10-24T07:46:19.937Z</time>
      </trkpt>
      <trkpt lat="46.50416" lon="8.28675">
        <ele>1535</ele>
        <time>2020-10-24T07:46:20.937Z</time>
      </trkpt>
      <trkpt lat="46.50416" lon="8.28677">
        <ele>1536</ele>
        <time>2020-10-24T07:46:21.936Z</time>
      </trkpt>
      <trkpt lat="46.50417" lon="8.28678">
        <ele>1537</ele>
        <time>2020-10-24T07:46:22.936Z</time>
      </trkpt>
      <trkpt lat="46.50418" lon="8.2868">
        <ele>1537</ele>
        <time>2020-10-24T07:46:23.936Z</time>
      </trkpt>
      <trkpt lat="46.50419" lon="8.28681">
        <ele>1538</ele>
        <time>2020-10-24T07:46:24.937Z</time>
      </trkpt>
      <trkpt lat="46.5042" lon="8.28683">
        <ele>1538</ele>
        <time>2020-10-24T07:46:25.936Z</time>
      </trkpt>
      <trkpt lat="46.5042" lon="8.28685">
        <ele>1538</ele>
        <time>2020-10-24T07:46:26.936Z</time>
      </trkpt>
      <trkpt lat="46.50421" lon="8.28686">
        <ele>1539</ele>
        <time>2020-10-24T07:46:27.936Z</time>
      </trkpt>
      <trkpt lat="46.50422" lon="8.28688">
        <ele>1539</ele>
        <time>2020-10-24T07:46:28.937Z</time>
      </trkpt>
      <trkpt lat="46.50424" lon="8.28689">
        <ele>1539</ele>
        <time>2020-10-24T07:46:29.937Z</time>
      </trkpt>
      <trkpt lat="46.50425" lon="8.28691">
        <ele>1540</ele>
        <time>2020-10-24T07:46:30.937Z</time>
      </trkpt>
      <trkpt lat="46.50427" lon="8.28692">
        <ele>1540</ele>
        <time>2020-10-24T07:46:31.936Z</time>
      </trkpt>
      <trkpt lat="46.50429" lon="8.28693">
        <ele>1540</ele>
        <time>2020-10-24T07:46:32.937Z</time>
      </trkpt>
      <trkpt lat="46.5043" lon="8.28694">
        <ele>1540</ele>
        <time>2020-10-24T07:46:33.936Z</time>
      </trkpt>
      <trkpt lat="46.5043" lon="8.28697">
        <ele>1540</ele>
        <time>2020-10-24T07:46:34.937Z</time>
      </trkpt>
      <trkpt lat="46.50431" lon="8.287">
        <ele>1540</ele>
        <time>2020-10-24T07:46:35.937Z</time>
      </trkpt>
      <trkpt lat="46.50432" lon="8.28701">
        <ele>1540</ele>
        <time>2020-10-24T07:46:36.937Z</time>
      </trkpt>
      <trkpt lat="46.50432" lon="8.28703">
        <ele>1539</ele>
        <time>2020-10-24T07:46:37.936Z</time>
      </trkpt>
      <trkpt lat="46.50433" lon="8.28704">
        <ele>1540</ele>
        <time>2020-10-24T07:46:38.937Z</time>
      </trkpt>
      <trkpt lat="46.50434" lon="8.28706">
        <ele>1541</ele>
        <time>2020-10-24T07:46:39.937Z</time>
      </trkpt>
      <trkpt lat="46.50436" lon="8.28708">
        <ele>1541</ele>
        <time>2020-10-24T07:46:40.937Z</time>
      </trkpt>
      <trkpt lat="46.50437" lon="8.28709">
        <ele>1542</ele>
        <time>2020-10-24T07:46:41.937Z</time>
      </trkpt>
      <trkpt lat="46.50438" lon="8.28711">
        <ele>1542</ele>
        <time>2020-10-24T07:46:42.936Z</time>
      </trkpt>
      <trkpt lat="46.50438" lon="8.28713">
        <ele>1542</ele>
        <time>2020-10-24T07:46:43.936Z</time>
      </trkpt>
      <trkpt lat="46.50439" lon="8.28715">
        <ele>1542</ele>
        <time>2020-10-24T07:46:44.936Z</time>
      </trkpt>
      <trkpt lat="46.5044" lon="8.28716">
        <ele>1542</ele>
        <time>2020-10-24T07:46:45.937Z</time>
      </trkpt>
      <trkpt lat="46.50442" lon="8.28717">
        <ele>1542</ele>
        <time>2020-10-24T07:46:46.937Z</time>
      </trkpt>
      <trkpt lat="46.50443" lon="8.28718">
        <ele>1542</ele>
        <time>2020-10-24T07:46:47.936Z</time>
      </trkpt>
      <trkpt lat="46.50444" lon="8.2872">
        <ele>1541</ele>
        <time>2020-10-24T07:46:48.937Z</time>
      </trkpt>
      <trkpt lat="46.50444" lon="8.28721">
        <ele>1541</ele>
        <time>2020-10-24T07:46:49.937Z</time>
      </trkpt>
      <trkpt lat="46.50446" lon="8.28722">
        <ele>1541</ele>
        <time>2020-10-24T07:46:50.936Z</time>
      </trkpt>
      <trkpt lat="46.50447" lon="8.28723">
        <ele>1542</ele>
        <time>2020-10-24T07:46:51.937Z</time>
      </trkpt>
      <trkpt lat="46.50448" lon="8.28724">
        <ele>1542</ele>
        <time>2020-10-24T07:46:52.937Z</time>
      </trkpt>
      <trkpt lat="46.50449" lon="8.28725">
        <ele>1543</ele>
        <time>2020-10-24T07:46:53.936Z</time>
      </trkpt>
      <trkpt lat="46.50451" lon="8.28725">
        <ele>1543</ele>
        <time>2020-10-24T07:46:54.936Z</time>
      </trkpt>
      <trkpt lat="46.50452" lon="8.28727">
        <ele>1544</ele>
        <time>2020-10-24T07:46:55.937Z</time>
      </trkpt>
      <trkpt lat="46.50453" lon="8.28728">
        <ele>1544</ele>
        <time>2020-10-24T07:46:56.936Z</time>
      </trkpt>
      <trkpt lat="46.50454" lon="8.28729">
        <ele>1545</ele>
        <time>2020-10-24T07:46:57.937Z</time>
      </trkpt>
      <trkpt lat="46.50455" lon="8.28731">
        <ele>1545</ele>
        <time>2020-10-24T07:46:58.937Z</time>
      </trkpt>
      <trkpt lat="46.50457" lon="8.28732">
        <ele>1546</ele>
        <time>2020-10-24T07:46:59.936Z</time>
      </trkpt>
      <trkpt lat="46.50458" lon="8.28733">
        <ele>1546</ele>
        <time>2020-10-24T07:47:00.937Z</time>
      </trkpt>
      <trkpt lat="46.5046" lon="8.28734">
        <ele>1546</ele>
        <time>2020-10-24T07:47:01.936Z</time>
      </trkpt>
      <trkpt lat="46.50461" lon="8.28734">
        <ele>1546</ele>
        <time>2020-10-24T07:47:02.937Z</time>
      </trkpt>
      <trkpt lat="46.50463" lon="8.28735">
        <ele>1546</ele>
        <time>2020-10-24T07:47:03.937Z</time>
      </trkpt>
      <trkpt lat="46.50464" lon="8.28736">
        <ele>1546</ele>
        <time>2020-10-24T07:47:04.937Z</time>
      </trkpt>
      <trkpt lat="46.50464" lon="8.28737">
        <ele>1546</ele>
        <time>2020-10-24T07:47:05.937Z</time>
      </trkpt>
      <trkpt lat="46.50465" lon="8.28737">
        <ele>1546</ele>
        <time>2020-10-24T07:47:06.937Z</time>
      </trkpt>
      <trkpt lat="46.50465" lon="8.28739">
        <ele>1546</ele>
        <time>2020-10-24T07:47:07.936Z</time>
      </trkpt>
      <trkpt lat="46.50466" lon="8.2874">
        <ele>1546</ele>
        <time>2020-10-24T07:47:08.936Z</time>
      </trkpt>
      <trkpt lat="46.50466" lon="8.28742">
        <ele>1546</ele>
        <time>2020-10-24T07:47:09.936Z</time>
      </trkpt>
      <trkpt lat="46.50466" lon="8.28745">
        <ele>1546</ele>
        <time>2020-10-24T07:47:10.937Z</time>
      </trkpt>
      <trkpt lat="46.50466" lon="8.28747">
        <ele>1546</ele>
        <time>2020-10-24T07:47:11.937Z</time>
      </trkpt>
      <trkpt lat="46.50463" lon="8.2875">
        <ele>1546</ele>
        <time>2020-10-24T07:47:12.937Z</time>
      </trkpt>
      <trkpt lat="46.50461" lon="8.28752">
        <ele>1546</ele>
        <time>2020-10-24T07:47:13.937Z</time>
      </trkpt>
      <trkpt lat="46.50459" lon="8.28752">
        <ele>1547</ele>
        <time>2020-10-24T07:47:14.937Z</time>
      </trkpt>
      <trkpt lat="46.50458" lon="8.28752">
        <ele>1548</ele>
        <time>2020-10-24T07:47:15.937Z</time>
      </trkpt>
      <trkpt lat="46.50457" lon="8.28755">
        <ele>1548</ele>
        <time>2020-10-24T07:47:16.937Z</time>
      </trkpt>
      <trkpt lat="46.50457" lon="8.28756">
        <ele>1549</ele>
        <time>2020-10-24T07:47:17.937Z</time>
      </trkpt>
      <trkpt lat="46.50457" lon="8.28758">
        <ele>1549</ele>
        <time>2020-10-24T07:47:18.937Z</time>
      </trkpt>
      <trkpt lat="46.50457" lon="8.28761">
        <ele>1548</ele>
        <time>2020-10-24T07:47:19.936Z</time>
      </trkpt>
      <trkpt lat="46.50458" lon="8.28763">
        <ele>1548</ele>
        <time>2020-10-24T07:47:20.937Z</time>
      </trkpt>
      <trkpt lat="46.50459" lon="8.28766">
        <ele>1548</ele>
        <time>2020-10-24T07:47:21.936Z</time>
      </trkpt>
      <trkpt lat="46.50459" lon="8.28768">
        <ele>1549</ele>
        <time>2020-10-24T07:47:22.936Z</time>
      </trkpt>
      <trkpt lat="46.5046" lon="8.2877">
        <ele>1549</ele>
        <time>2020-10-24T07:47:23.937Z</time>
      </trkpt>
      <trkpt lat="46.50461" lon="8.28772">
        <ele>1548</ele>
        <time>2020-10-24T07:47:24.937Z</time>
      </trkpt>
      <trkpt lat="46.50463" lon="8.28774">
        <ele>1548</ele>
        <time>2020-10-24T07:47:25.936Z</time>
      </trkpt>
      <trkpt lat="46.50464" lon="8.28776">
        <ele>1548</ele>
        <time>2020-10-24T07:47:26.937Z</time>
      </trkpt>
      <trkpt lat="46.50464" lon="8.28777">
        <ele>1548</ele>
        <time>2020-10-24T07:47:27.937Z</time>
      </trkpt>
      <trkpt lat="46.50465" lon="8.28779">
        <ele>1549</ele>
        <time>2020-10-24T07:47:28.937Z</time>
      </trkpt>
      <trkpt lat="46.50465" lon="8.2878">
        <ele>1550</ele>
        <time>2020-10-24T07:47:29.937Z</time>
      </trkpt>
      <trkpt lat="46.50466" lon="8.28781">
        <ele>1550</ele>
        <time>2020-10-24T07:47:30.937Z</time>
      </trkpt>
      <trkpt lat="46.50467" lon="8.28781">
        <ele>1551</ele>
        <time>2020-10-24T07:47:31.936Z</time>
      </trkpt>
      <trkpt lat="46.50468" lon="8.28781">
        <ele>1551</ele>
        <time>2020-10-24T07:47:32.937Z</time>
      </trkpt>
      <trkpt lat="46.50469" lon="8.28781">
        <ele>1551</ele>
        <time>2020-10-24T07:47:33.937Z</time>
      </trkpt>
      <trkpt lat="46.5047" lon="8.28782">
        <ele>1552</ele>
        <time>2020-10-24T07:47:34.936Z</time>
      </trkpt>
      <trkpt lat="46.5047" lon="8.28783">
        <ele>1552</ele>
        <time>2020-10-24T07:47:35.936Z</time>
      </trkpt>
      <trkpt lat="46.50471" lon="8.28784">
        <ele>1552</ele>
        <time>2020-10-24T07:47:36.937Z</time>
      </trkpt>
      <trkpt lat="46.50471" lon="8.28785">
        <ele>1552</ele>
        <time>2020-10-24T07:47:37.936Z</time>
      </trkpt>
      <trkpt lat="46.50471" lon="8.28786">
        <ele>1552</ele>
        <time>2020-10-24T07:47:38.937Z</time>
      </trkpt>
      <trkpt lat="46.50471" lon="8.28787">
        <ele>1553</ele>
        <time>2020-10-24T07:47:39.937Z</time>
      </trkpt>
      <trkpt lat="46.50471" lon="8.28788">
        <ele>1553</ele>
        <time>2020-10-24T07:47:40.937Z</time>
      </trkpt>
      <trkpt lat="46.50472" lon="8.28789">
        <ele>1554</ele>
        <time>2020-10-24T07:47:41.937Z</time>
      </trkpt>
      <trkpt lat="46.50472" lon="8.2879">
        <ele>1554</ele>
        <time>2020-10-24T07:47:42.937Z</time>
      </trkpt>
      <trkpt lat="46.50472" lon="8.2879">
        <ele>1555</ele>
        <time>2020-10-24T07:47:43.937Z</time>
      </trkpt>
      <trkpt lat="46.50473" lon="8.28791">
        <ele>1555</ele>
        <time>2020-10-24T07:47:44.937Z</time>
      </trkpt>
      <trkpt lat="46.50473" lon="8.28792">
        <ele>1556</ele>
        <time>2020-10-24T07:47:45.937Z</time>
      </trkpt>
      <trkpt lat="46.50473" lon="8.28793">
        <ele>1556</ele>
        <time>2020-10-24T07:47:46.936Z</time>
      </trkpt>
      <trkpt lat="46.50473" lon="8.28794">
        <ele>1557</ele>
        <time>2020-10-24T07:47:47.937Z</time>
      </trkpt>
      <trkpt lat="46.50473" lon="8.28795">
        <ele>1558</ele>
        <time>2020-10-24T07:47:48.937Z</time>
      </trkpt>
      <trkpt lat="46.50473" lon="8.28796">
        <ele>1559</ele>
        <time>2020-10-24T07:47:49.937Z</time>
      </trkpt>
      <trkpt lat="46.50473" lon="8.28797">
        <ele>1560</ele>
        <time>2020-10-24T07:47:50.937Z</time>
      </trkpt>
      <trkpt lat="46.50473" lon="8.28799">
        <ele>1561</ele>
        <time>2020-10-24T07:47:51.937Z</time>
      </trkpt>
      <trkpt lat="46.50473" lon="8.28801">
        <ele>1561</ele>
        <time>2020-10-24T07:47:52.936Z</time>
      </trkpt>
      <trkpt lat="46.50473" lon="8.28803">
        <ele>1562</ele>
        <time>2020-10-24T07:47:53.936Z</time>
      </trkpt>
      <trkpt lat="46.50473" lon="8.28804">
        <ele>1562</ele>
        <time>2020-10-24T07:47:54.936Z</time>
      </trkpt>
      <trkpt lat="46.50474" lon="8.28806">
        <ele>1563</ele>
        <time>2020-10-24T07:47:55.936Z</time>
      </trkpt>
      <trkpt lat="46.50474" lon="8.28807">
        <ele>1564</ele>
        <time>2020-10-24T07:47:56.937Z</time>
      </trkpt>
      <trkpt lat="46.50475" lon="8.28806">
        <ele>1564</ele>
        <time>2020-10-24T07:47:57.937Z</time>
      </trkpt>
      <trkpt lat="46.50476" lon="8.28805">
        <ele>1565</ele>
        <time>2020-10-24T07:47:58.937Z</time>
      </trkpt>
      <trkpt lat="46.50476" lon="8.28805">
        <ele>1565</ele>
        <time>2020-10-24T07:47:59.936Z</time>
      </trkpt>
      <trkpt lat="46.50477" lon="8.28806">
        <ele>1565</ele>
        <time>2020-10-24T07:48:00.936Z</time>
      </trkpt>
      <trkpt lat="46.50477" lon="8.28807">
        <ele>1566</ele>
        <time>2020-10-24T07:48:01.936Z</time>
      </trkpt>
      <trkpt lat="46.50477" lon="8.28808">
        <ele>1566</ele>
        <time>2020-10-24T07:48:02.936Z</time>
      </trkpt>
      <trkpt lat="46.50477" lon="8.28809">
        <ele>1567</ele>
        <time>2020-10-24T07:48:03.937Z</time>
      </trkpt>
      <trkpt lat="46.50477" lon="8.2881">
        <ele>1567</ele>
        <time>2020-10-24T07:48:04.937Z</time>
      </trkpt>
      <trkpt lat="46.50477" lon="8.28811">
        <ele>1567</ele>
        <time>2020-10-24T07:48:05.936Z</time>
      </trkpt>
      <trkpt lat="46.50477" lon="8.28811">
        <ele>1567</ele>
        <time>2020-10-24T07:48:06.936Z</time>
      </trkpt>
      <trkpt lat="46.50478" lon="8.28812">
        <ele>1567</ele>
        <time>2020-10-24T07:48:07.937Z</time>
      </trkpt>
      <trkpt lat="46.50478" lon="8.28813">
        <ele>1567</ele>
        <time>2020-10-24T07:48:08.936Z</time>
      </trkpt>
      <trkpt lat="46.50478" lon="8.28814">
        <ele>1567</ele>
        <time>2020-10-24T07:48:09.936Z</time>
      </trkpt>
      <trkpt lat="46.50479" lon="8.28814">
        <ele>1568</ele>
        <time>2020-10-24T07:48:10.936Z</time>
      </trkpt>
      <trkpt lat="46.5048" lon="8.28814">
        <ele>1568</ele>
        <time>2020-10-24T07:48:11.936Z</time>
      </trkpt>
      <trkpt lat="46.50481" lon="8.28814">
        <ele>1569</ele>
        <time>2020-10-24T07:48:12.937Z</time>
      </trkpt>
      <trkpt lat="46.50481" lon="8.28814">
        <ele>1569</ele>
        <time>2020-10-24T07:48:13.936Z</time>
      </trkpt>
      <trkpt lat="46.50481" lon="8.28816">
        <ele>1570</ele>
        <time>2020-10-24T07:48:14.937Z</time>
      </trkpt>
      <trkpt lat="46.50481" lon="8.28818">
        <ele>1570</ele>
        <time>2020-10-24T07:48:15.936Z</time>
      </trkpt>
      <trkpt lat="46.50482" lon="8.28821">
        <ele>1571</ele>
        <time>2020-10-24T07:48:16.936Z</time>
      </trkpt>
      <trkpt lat="46.50482" lon="8.28823">
        <ele>1571</ele>
        <time>2020-10-24T07:48:17.937Z</time>
      </trkpt>
      <trkpt lat="46.50483" lon="8.28824">
        <ele>1572</ele>
        <time>2020-10-24T07:48:18.936Z</time>
      </trkpt>
      <trkpt lat="46.50484" lon="8.28825">
        <ele>1572</ele>
        <time>2020-10-24T07:48:19.936Z</time>
      </trkpt>
      <trkpt lat="46.50484" lon="8.28827">
        <ele>1572</ele>
        <time>2020-10-24T07:48:20.936Z</time>
      </trkpt>
      <trkpt lat="46.50485" lon="8.2883">
        <ele>1573</ele>
        <time>2020-10-24T07:48:21.936Z</time>
      </trkpt>
      <trkpt lat="46.50485" lon="8.28832">
        <ele>1573</ele>
        <time>2020-10-24T07:48:22.936Z</time>
      </trkpt>
      <trkpt lat="46.50486" lon="8.28834">
        <ele>1573</ele>
        <time>2020-10-24T07:48:23.936Z</time>
      </trkpt>
      <trkpt lat="46.50486" lon="8.28835">
        <ele>1573</ele>
        <time>2020-10-24T07:48:24.936Z</time>
      </trkpt>
      <trkpt lat="46.50486" lon="8.28835">
        <ele>1573</ele>
        <time>2020-10-24T07:48:25.936Z</time>
      </trkpt>
      <trkpt lat="46.50486" lon="8.28836">
        <ele>1573</ele>
        <time>2020-10-24T07:48:26.936Z</time>
      </trkpt>
      <trkpt lat="46.50487" lon="8.28837">
        <ele>1573</ele>
        <time>2020-10-24T07:48:27.936Z</time>
      </trkpt>
      <trkpt lat="46.50487" lon="8.28838">
        <ele>1572</ele>
        <time>2020-10-24T07:48:28.936Z</time>
      </trkpt>
      <trkpt lat="46.50488" lon="8.28838">
        <ele>1572</ele>
        <time>2020-10-24T07:48:29.936Z</time>
      </trkpt>
      <trkpt lat="46.50488" lon="8.28839">
        <ele>1571</ele>
        <time>2020-10-24T07:48:30.936Z</time>
      </trkpt>
      <trkpt lat="46.50489" lon="8.2884">
        <ele>1570</ele>
        <time>2020-10-24T07:48:31.936Z</time>
      </trkpt>
      <trkpt lat="46.5049" lon="8.2884">
        <ele>1569</ele>
        <time>2020-10-24T07:48:32.936Z</time>
      </trkpt>
      <trkpt lat="46.5049" lon="8.28841">
        <ele>1569</ele>
        <time>2020-10-24T07:48:33.936Z</time>
      </trkpt>
      <trkpt lat="46.50491" lon="8.28841">
        <ele>1568</ele>
        <time>2020-10-24T07:48:34.936Z</time>
      </trkpt>
      <trkpt lat="46.50492" lon="8.28842">
        <ele>1567</ele>
        <time>2020-10-24T07:48:35.936Z</time>
      </trkpt>
      <trkpt lat="46.50492" lon="8.28843">
        <ele>1567</ele>
        <time>2020-10-24T07:48:36.936Z</time>
      </trkpt>
      <trkpt lat="46.50493" lon="8.28844">
        <ele>1566</ele>
        <time>2020-10-24T07:48:37.936Z</time>
      </trkpt>
      <trkpt lat="46.50493" lon="8.28845">
        <ele>1566</ele>
        <time>2020-10-24T07:48:38.936Z</time>
      </trkpt>
      <trkpt lat="46.50494" lon="8.28846">
        <ele>1566</ele>
        <time>2020-10-24T07:48:39.936Z</time>
      </trkpt>
      <trkpt lat="46.50495" lon="8.28847">
        <ele>1566</ele>
        <time>2020-10-24T07:48:40.937Z</time>
      </trkpt>
      <trkpt lat="46.50495" lon="8.28847">
        <ele>1565</ele>
        <time>2020-10-24T07:48:41.936Z</time>
      </trkpt>
      <trkpt lat="46.50495" lon="8.28848">
        <ele>1565</ele>
        <time>2020-10-24T07:48:42.937Z</time>
      </trkpt>
      <trkpt lat="46.50496" lon="8.28848">
        <ele>1565</ele>
        <time>2020-10-24T07:48:43.937Z</time>
      </trkpt>
      <trkpt lat="46.50496" lon="8.2885">
        <ele>1565</ele>
        <time>2020-10-24T07:48:44.936Z</time>
      </trkpt>
      <trkpt lat="46.50496" lon="8.28851">
        <ele>1565</ele>
        <time>2020-10-24T07:48:45.936Z</time>
      </trkpt>
      <trkpt lat="46.50496" lon="8.28853">
        <ele>1565</ele>
        <time>2020-10-24T07:48:46.937Z</time>
      </trkpt>
      <trkpt lat="46.50497" lon="8.28855">
        <ele>1565</ele>
        <time>2020-10-24T07:48:47.936Z</time>
      </trkpt>
      <trkpt lat="46.50497" lon="8.28857">
        <ele>1565</ele>
        <time>2020-10-24T07:48:48.937Z</time>
      </trkpt>
      <trkpt lat="46.50497" lon="8.28858">
        <ele>1565</ele>
        <time>2020-10-24T07:48:49.936Z</time>
      </trkpt>
      <trkpt lat="46.50497" lon="8.2886">
        <ele>1565</ele>
        <time>2020-10-24T07:48:50.937Z</time>
      </trkpt>
      <trkpt lat="46.50498" lon="8.28861">
        <ele>1565</ele>
        <time>2020-10-24T07:48:51.937Z</time>
      </trkpt>
      <trkpt lat="46.50498" lon="8.28862">
        <ele>1565</ele>
        <time>2020-10-24T07:48:52.937Z</time>
      </trkpt>
      <trkpt lat="46.50499" lon="8.28863">
        <ele>1566</ele>
        <time>2020-10-24T07:48:53.936Z</time>
      </trkpt>
      <trkpt lat="46.50499" lon="8.28864">
        <ele>1566</ele>
        <time>2020-10-24T07:48:54.937Z</time>
      </trkpt>
      <trkpt lat="46.50499" lon="8.28866">
        <ele>1566</ele>
        <time>2020-10-24T07:48:55.937Z</time>
      </trkpt>
      <trkpt lat="46.50498" lon="8.28868">
        <ele>1567</ele>
        <time>2020-10-24T07:48:56.937Z</time>
      </trkpt>
      <trkpt lat="46.50499" lon="8.28869">
        <ele>1567</ele>
        <time>2020-10-24T07:48:57.936Z</time>
      </trkpt>
      <trkpt lat="46.50499" lon="8.2887">
        <ele>1567</ele>
        <time>2020-10-24T07:48:58.937Z</time>
      </trkpt>
      <trkpt lat="46.505" lon="8.28872">
        <ele>1567</ele>
        <time>2020-10-24T07:48:59.936Z</time>
      </trkpt>
      <trkpt lat="46.505" lon="8.28874">
        <ele>1567</ele>
        <time>2020-10-24T07:49:00.937Z</time>
      </trkpt>
      <trkpt lat="46.50501" lon="8.28876">
        <ele>1568</ele>
        <time>2020-10-24T07:49:01.937Z</time>
      </trkpt>
      <trkpt lat="46.50502" lon="8.28876">
        <ele>1568</ele>
        <time>2020-10-24T07:49:02.937Z</time>
      </trkpt>
      <trkpt lat="46.50504" lon="8.28877">
        <ele>1569</ele>
        <time>2020-10-24T07:49:03.937Z</time>
      </trkpt>
      <trkpt lat="46.50505" lon="8.28877">
        <ele>1570</ele>
        <time>2020-10-24T07:49:04.937Z</time>
      </trkpt>
      <trkpt lat="46.50506" lon="8.28876">
        <ele>1570</ele>
        <time>2020-10-24T07:49:05.936Z</time>
      </trkpt>
      <trkpt lat="46.50507" lon="8.28875">
        <ele>1571</ele>
        <time>2020-10-24T07:49:06.936Z</time>
      </trkpt>
      <trkpt lat="46.50509" lon="8.28874">
        <ele>1572</ele>
        <time>2020-10-24T07:49:07.937Z</time>
      </trkpt>
      <trkpt lat="46.50511" lon="8.28872">
        <ele>1572</ele>
        <time>2020-10-24T07:49:08.937Z</time>
      </trkpt>
      <trkpt lat="46.50512" lon="8.28872">
        <ele>1573</ele>
        <time>2020-10-24T07:49:09.937Z</time>
      </trkpt>
      <trkpt lat="46.50512" lon="8.28871">
        <ele>1573</ele>
        <time>2020-10-24T07:49:10.936Z</time>
      </trkpt>
      <trkpt lat="46.50513" lon="8.28871">
        <ele>1574</ele>
        <time>2020-10-24T07:49:11.937Z</time>
      </trkpt>
      <trkpt lat="46.50513" lon="8.2887">
        <ele>1575</ele>
        <time>2020-10-24T07:49:12.936Z</time>
      </trkpt>
      <trkpt lat="46.50513" lon="8.28869">
        <ele>1576</ele>
        <time>2020-10-24T07:49:13.936Z</time>
      </trkpt>
      <trkpt lat="46.50514" lon="8.28869">
        <ele>1576</ele>
        <time>2020-10-24T07:49:14.937Z</time>
      </trkpt>
      <trkpt lat="46.50515" lon="8.28868">
        <ele>1576</ele>
        <time>2020-10-24T07:49:15.937Z</time>
      </trkpt>
      <trkpt lat="46.50516" lon="8.28868">
        <ele>1577</ele>
        <time>2020-10-24T07:49:16.937Z</time>
      </trkpt>
      <trkpt lat="46.50516" lon="8.28868">
        <ele>1577</ele>
        <time>2020-10-24T07:49:17.937Z</time>
      </trkpt>
      <trkpt lat="46.50518" lon="8.28867">
        <ele>1578</ele>
        <time>2020-10-24T07:49:18.937Z</time>
      </trkpt>
      <trkpt lat="46.50519" lon="8.28866">
        <ele>1578</ele>
        <time>2020-10-24T07:49:19.936Z</time>
      </trkpt>
      <trkpt lat="46.5052" lon="8.28865">
        <ele>1579</ele>
        <time>2020-10-24T07:49:20.936Z</time>
      </trkpt>
      <trkpt lat="46.50521" lon="8.28864">
        <ele>1579</ele>
        <time>2020-10-24T07:49:21.936Z</time>
      </trkpt>
      <trkpt lat="46.50523" lon="8.28862">
        <ele>1579</ele>
        <time>2020-10-24T07:49:22.937Z</time>
      </trkpt>
      <trkpt lat="46.50524" lon="8.2886">
        <ele>1579</ele>
        <time>2020-10-24T07:49:23.936Z</time>
      </trkpt>
      <trkpt lat="46.50526" lon="8.28859">
        <ele>1579</ele>
        <time>2020-10-24T07:49:24.937Z</time>
      </trkpt>
      <trkpt lat="46.50527" lon="8.28857">
        <ele>1578</ele>
        <time>2020-10-24T07:49:25.936Z</time>
      </trkpt>
      <trkpt lat="46.50528" lon="8.28856">
        <ele>1578</ele>
        <time>2020-10-24T07:49:26.937Z</time>
      </trkpt>
      <trkpt lat="46.50529" lon="8.28854">
        <ele>1578</ele>
        <time>2020-10-24T07:49:27.937Z</time>
      </trkpt>
      <trkpt lat="46.5053" lon="8.28853">
        <ele>1578</ele>
        <time>2020-10-24T07:49:28.936Z</time>
      </trkpt>
      <trkpt lat="46.5053" lon="8.28853">
        <ele>1578</ele>
        <time>2020-10-24T07:49:29.937Z</time>
      </trkpt>
      <trkpt lat="46.50531" lon="8.28852">
        <ele>1578</ele>
        <time>2020-10-24T07:49:30.937Z</time>
      </trkpt>
      <trkpt lat="46.50533" lon="8.28849">
        <ele>1577</ele>
        <time>2020-10-24T07:49:31.937Z</time>
      </trkpt>
      <trkpt lat="46.50534" lon="8.28848">
        <ele>1576</ele>
        <time>2020-10-24T07:49:32.937Z</time>
      </trkpt>
      <trkpt lat="46.50536" lon="8.28846">
        <ele>1576</ele>
        <time>2020-10-24T07:49:33.937Z</time>
      </trkpt>
      <trkpt lat="46.50536" lon="8.28844">
        <ele>1575</ele>
        <time>2020-10-24T07:49:34.937Z</time>
      </trkpt>
      <trkpt lat="46.50537" lon="8.28842">
        <ele>1575</ele>
        <time>2020-10-24T07:49:35.937Z</time>
      </trkpt>
      <trkpt lat="46.50538" lon="8.28841">
        <ele>1575</ele>
        <time>2020-10-24T07:49:36.936Z</time>
      </trkpt>
      <trkpt lat="46.50538" lon="8.2884">
        <ele>1575</ele>
        <time>2020-10-24T07:49:37.936Z</time>
      </trkpt>
      <trkpt lat="46.50538" lon="8.2884">
        <ele>1575</ele>
        <time>2020-10-24T07:49:38.937Z</time>
      </trkpt>
      <trkpt lat="46.50538" lon="8.28839">
        <ele>1576</ele>
        <time>2020-10-24T07:49:39.937Z</time>
      </trkpt>
      <trkpt lat="46.50539" lon="8.28838">
        <ele>1576</ele>
        <time>2020-10-24T07:49:40.937Z</time>
      </trkpt>
      <trkpt lat="46.5054" lon="8.28837">
        <ele>1576</ele>
        <time>2020-10-24T07:49:41.937Z</time>
      </trkpt>
      <trkpt lat="46.50541" lon="8.28836">
        <ele>1577</ele>
        <time>2020-10-24T07:49:42.937Z</time>
      </trkpt>
      <trkpt lat="46.50543" lon="8.28834">
        <ele>1578</ele>
        <time>2020-10-24T07:49:43.937Z</time>
      </trkpt>
      <trkpt lat="46.50544" lon="8.28833">
        <ele>1578</ele>
        <time>2020-10-24T07:49:44.936Z</time>
      </trkpt>
      <trkpt lat="46.50546" lon="8.28832">
        <ele>1579</ele>
        <time>2020-10-24T07:49:45.937Z</time>
      </trkpt>
      <trkpt lat="46.50547" lon="8.28831">
        <ele>1579</ele>
        <time>2020-10-24T07:49:46.937Z</time>
      </trkpt>
      <trkpt lat="46.50549" lon="8.2883">
        <ele>1580</ele>
        <time>2020-10-24T07:49:47.937Z</time>
      </trkpt>
      <trkpt lat="46.5055" lon="8.28829">
        <ele>1580</ele>
        <time>2020-10-24T07:49:48.937Z</time>
      </trkpt>
      <trkpt lat="46.50551" lon="8.28828">
        <ele>1580</ele>
        <time>2020-10-24T07:49:49.937Z</time>
      </trkpt>
      <trkpt lat="46.50553" lon="8.28827">
        <ele>1580</ele>
        <time>2020-10-24T07:49:50.937Z</time>
      </trkpt>
      <trkpt lat="46.50554" lon="8.28826">
        <ele>1580</ele>
        <time>2020-10-24T07:49:51.936Z</time>
      </trkpt>
      <trkpt lat="46.50554" lon="8.28825">
        <ele>1581</ele>
        <time>2020-10-24T07:49:52.937Z</time>
      </trkpt>
      <trkpt lat="46.50555" lon="8.28825">
        <ele>1581</ele>
        <time>2020-10-24T07:49:53.937Z</time>
      </trkpt>
      <trkpt lat="46.50555" lon="8.28825">
        <ele>1581</ele>
        <time>2020-10-24T07:49:54.936Z</time>
      </trkpt>
      <trkpt lat="46.50555" lon="8.28825">
        <ele>1581</ele>
        <time>2020-10-24T07:49:55.937Z</time>
      </trkpt>
      <trkpt lat="46.50556" lon="8.28824">
        <ele>1581</ele>
        <time>2020-10-24T07:49:56.936Z</time>
      </trkpt>
      <trkpt lat="46.50557" lon="8.28823">
        <ele>1580</ele>
        <time>2020-10-24T07:49:57.937Z</time>
      </trkpt>
      <trkpt lat="46.50557" lon="8.28821">
        <ele>1580</ele>
        <time>2020-10-24T07:49:58.937Z</time>
      </trkpt>
      <trkpt lat="46.50558" lon="8.2882">
        <ele>1580</ele>
        <time>2020-10-24T07:49:59.937Z</time>
      </trkpt>
      <trkpt lat="46.50558" lon="8.28819">
        <ele>1580</ele>
        <time>2020-10-24T07:50:00.937Z</time>
      </trkpt>
      <trkpt lat="46.50559" lon="8.28817">
        <ele>1580</ele>
        <time>2020-10-24T07:50:01.937Z</time>
      </trkpt>
      <trkpt lat="46.5056" lon="8.28817">
        <ele>1580</ele>
        <time>2020-10-24T07:50:02.937Z</time>
      </trkpt>
      <trkpt lat="46.5056" lon="8.28816">
        <ele>1581</ele>
        <time>2020-10-24T07:50:03.937Z</time>
      </trkpt>
      <trkpt lat="46.50561" lon="8.28815">
        <ele>1581</ele>
        <time>2020-10-24T07:50:04.937Z</time>
      </trkpt>
      <trkpt lat="46.50562" lon="8.28814">
        <ele>1581</ele>
        <time>2020-10-24T07:50:05.937Z</time>
      </trkpt>
      <trkpt lat="46.50563" lon="8.28813">
        <ele>1581</ele>
        <time>2020-10-24T07:50:06.937Z</time>
      </trkpt>
      <trkpt lat="46.50564" lon="8.28811">
        <ele>1582</ele>
        <time>2020-10-24T07:50:07.936Z</time>
      </trkpt>
      <trkpt lat="46.50565" lon="8.28809">
        <ele>1582</ele>
        <time>2020-10-24T07:50:08.937Z</time>
      </trkpt>
      <trkpt lat="46.50566" lon="8.28807">
        <ele>1582</ele>
        <time>2020-10-24T07:50:09.937Z</time>
      </trkpt>
      <trkpt lat="46.50566" lon="8.28806">
        <ele>1582</ele>
        <time>2020-10-24T07:50:10.936Z</time>
      </trkpt>
      <trkpt lat="46.50567" lon="8.28804">
        <ele>1583</ele>
        <time>2020-10-24T07:50:11.936Z</time>
      </trkpt>
      <trkpt lat="46.50567" lon="8.28803">
        <ele>1583</ele>
        <time>2020-10-24T07:50:12.936Z</time>
      </trkpt>
      <trkpt lat="46.50568" lon="8.28802">
        <ele>1583</ele>
        <time>2020-10-24T07:50:13.937Z</time>
      </trkpt>
      <trkpt lat="46.50569" lon="8.28801">
        <ele>1583</ele>
        <time>2020-10-24T07:50:14.937Z</time>
      </trkpt>
      <trkpt lat="46.5057" lon="8.28801">
        <ele>1584</ele>
        <time>2020-10-24T07:50:15.937Z</time>
      </trkpt>
      <trkpt lat="46.50571" lon="8.28801">
        <ele>1585</ele>
        <time>2020-10-24T07:50:16.936Z</time>
      </trkpt>
      <trkpt lat="46.50572" lon="8.28801">
        <ele>1585</ele>
        <time>2020-10-24T07:50:17.937Z</time>
      </trkpt>
      <trkpt lat="46.50572" lon="8.28802">
        <ele>1586</ele>
        <time>2020-10-24T07:50:18.937Z</time>
      </trkpt>
      <trkpt lat="46.50573" lon="8.28801">
        <ele>1587</ele>
        <time>2020-10-24T07:50:19.937Z</time>
      </trkpt>
      <trkpt lat="46.50574" lon="8.28801">
        <ele>1588</ele>
        <time>2020-10-24T07:50:20.936Z</time>
      </trkpt>
      <trkpt lat="46.50574" lon="8.28801">
        <ele>1589</ele>
        <time>2020-10-24T07:50:21.937Z</time>
      </trkpt>
      <trkpt lat="46.50574" lon="8.28801">
        <ele>1590</ele>
        <time>2020-10-24T07:50:22.937Z</time>
      </trkpt>
      <trkpt lat="46.50575" lon="8.28801">
        <ele>1591</ele>
        <time>2020-10-24T07:50:23.937Z</time>
      </trkpt>
      <trkpt lat="46.50575" lon="8.288">
        <ele>1592</ele>
        <time>2020-10-24T07:50:24.937Z</time>
      </trkpt>
      <trkpt lat="46.50576" lon="8.28799">
        <ele>1592</ele>
        <time>2020-10-24T07:50:25.937Z</time>
      </trkpt>
      <trkpt lat="46.50577" lon="8.28798">
        <ele>1593</ele>
        <time>2020-10-24T07:50:26.936Z</time>
      </trkpt>
      <trkpt lat="46.50579" lon="8.28796">
        <ele>1593</ele>
        <time>2020-10-24T07:50:27.937Z</time>
      </trkpt>
      <trkpt lat="46.50581" lon="8.28795">
        <ele>1593</ele>
        <time>2020-10-24T07:50:28.936Z</time>
      </trkpt>
      <trkpt lat="46.50582" lon="8.28793">
        <ele>1594</ele>
        <time>2020-10-24T07:50:29.936Z</time>
      </trkpt>
      <trkpt lat="46.50583" lon="8.28792">
        <ele>1593</ele>
        <time>2020-10-24T07:50:30.936Z</time>
      </trkpt>
      <trkpt lat="46.50584" lon="8.28792">
        <ele>1593</ele>
        <time>2020-10-24T07:50:31.937Z</time>
      </trkpt>
      <trkpt lat="46.50585" lon="8.28792">
        <ele>1592</ele>
        <time>2020-10-24T07:50:32.937Z</time>
      </trkpt>
      <trkpt lat="46.50586" lon="8.28792">
        <ele>1591</ele>
        <time>2020-10-24T07:50:33.937Z</time>
      </trkpt>
      <trkpt lat="46.50586" lon="8.28791">
        <ele>1591</ele>
        <time>2020-10-24T07:50:34.937Z</time>
      </trkpt>
      <trkpt lat="46.50587" lon="8.28791">
        <ele>1591</ele>
        <time>2020-10-24T07:50:35.937Z</time>
      </trkpt>
      <trkpt lat="46.50588" lon="8.28792">
        <ele>1591</ele>
        <time>2020-10-24T07:50:36.937Z</time>
      </trkpt>
      <trkpt lat="46.50589" lon="8.28792">
        <ele>1591</ele>
        <time>2020-10-24T07:50:37.936Z</time>
      </trkpt>
      <trkpt lat="46.5059" lon="8.28793">
        <ele>1590</ele>
        <time>2020-10-24T07:50:38.936Z</time>
      </trkpt>
      <trkpt lat="46.5059" lon="8.28794">
        <ele>1590</ele>
        <time>2020-10-24T07:50:39.936Z</time>
      </trkpt>
      <trkpt lat="46.50591" lon="8.28795">
        <ele>1590</ele>
        <time>2020-10-24T07:50:40.936Z</time>
      </trkpt>
      <trkpt lat="46.50591" lon="8.28796">
        <ele>1591</ele>
        <time>2020-10-24T07:50:41.936Z</time>
      </trkpt>
      <trkpt lat="46.50592" lon="8.28798">
        <ele>1591</ele>
        <time>2020-10-24T07:50:42.936Z</time>
      </trkpt>
      <trkpt lat="46.50591" lon="8.28799">
        <ele>1591</ele>
        <time>2020-10-24T07:50:43.937Z</time>
      </trkpt>
      <trkpt lat="46.50591" lon="8.288">
        <ele>1592</ele>
        <time>2020-10-24T07:50:44.937Z</time>
      </trkpt>
      <trkpt lat="46.50592" lon="8.288">
        <ele>1593</ele>
        <time>2020-10-24T07:50:45.937Z</time>
      </trkpt>
      <trkpt lat="46.50593" lon="8.28801">
        <ele>1594</ele>
        <time>2020-10-24T07:50:46.937Z</time>
      </trkpt>
      <trkpt lat="46.50594" lon="8.28802">
        <ele>1594</ele>
        <time>2020-10-24T07:50:47.937Z</time>
      </trkpt>
      <trkpt lat="46.50595" lon="8.28802">
        <ele>1595</ele>
        <time>2020-10-24T07:50:48.937Z</time>
      </trkpt>
      <trkpt lat="46.50597" lon="8.28802">
        <ele>1595</ele>
        <time>2020-10-24T07:50:49.937Z</time>
      </trkpt>
      <trkpt lat="46.50598" lon="8.28802">
        <ele>1595</ele>
        <time>2020-10-24T07:50:50.937Z</time>
      </trkpt>
      <trkpt lat="46.50599" lon="8.28803">
        <ele>1596</ele>
        <time>2020-10-24T07:50:51.937Z</time>
      </trkpt>
      <trkpt lat="46.506" lon="8.28803">
        <ele>1596</ele>
        <time>2020-10-24T07:50:52.936Z</time>
      </trkpt>
      <trkpt lat="46.50601" lon="8.28804">
        <ele>1595</ele>
        <time>2020-10-24T07:50:53.936Z</time>
      </trkpt>
      <trkpt lat="46.50603" lon="8.28804">
        <ele>1595</ele>
        <time>2020-10-24T07:50:54.937Z</time>
      </trkpt>
      <trkpt lat="46.50605" lon="8.28803">
        <ele>1595</ele>
        <time>2020-10-24T07:50:55.937Z</time>
      </trkpt>
      <trkpt lat="46.50606" lon="8.28803">
        <ele>1595</ele>
        <time>2020-10-24T07:50:56.936Z</time>
      </trkpt>
      <trkpt lat="46.50607" lon="8.28802">
        <ele>1595</ele>
        <time>2020-10-24T07:50:57.937Z</time>
      </trkpt>
      <trkpt lat="46.50608" lon="8.28802">
        <ele>1595</ele>
        <time>2020-10-24T07:50:58.937Z</time>
      </trkpt>
      <trkpt lat="46.50609" lon="8.28802">
        <ele>1595</ele>
        <time>2020-10-24T07:50:59.936Z</time>
      </trkpt>
      <trkpt lat="46.5061" lon="8.28802">
        <ele>1595</ele>
        <time>2020-10-24T07:51:00.936Z</time>
      </trkpt>
      <trkpt lat="46.50612" lon="8.28802">
        <ele>1594</ele>
        <time>2020-10-24T07:51:01.937Z</time>
      </trkpt>
      <trkpt lat="46.50612" lon="8.28802">
        <ele>1594</ele>
        <time>2020-10-24T07:51:02.936Z</time>
      </trkpt>
      <trkpt lat="46.50613" lon="8.28803">
        <ele>1594</ele>
        <time>2020-10-24T07:51:03.937Z</time>
      </trkpt>
      <trkpt lat="46.50614" lon="8.28803">
        <ele>1595</ele>
        <time>2020-10-24T07:51:04.937Z</time>
      </trkpt>
      <trkpt lat="46.50614" lon="8.28803">
        <ele>1595</ele>
        <time>2020-10-24T07:51:05.936Z</time>
      </trkpt>
      <trkpt lat="46.50615" lon="8.28804">
        <ele>1596</ele>
        <time>2020-10-24T07:51:06.937Z</time>
      </trkpt>
      <trkpt lat="46.50615" lon="8.28804">
        <ele>1597</ele>
        <time>2020-10-24T07:51:07.937Z</time>
      </trkpt>
      <trkpt lat="46.50616" lon="8.28804">
        <ele>1597</ele>
        <time>2020-10-24T07:51:08.937Z</time>
      </trkpt>
      <trkpt lat="46.50616" lon="8.28804">
        <ele>1598</ele>
        <time>2020-10-24T07:51:09.937Z</time>
      </trkpt>
      <trkpt lat="46.50617" lon="8.28804">
        <ele>1598</ele>
        <time>2020-10-24T07:51:10.936Z</time>
      </trkpt>
      <trkpt lat="46.50618" lon="8.28805">
        <ele>1598</ele>
        <time>2020-10-24T07:51:11.937Z</time>
      </trkpt>
      <trkpt lat="46.50619" lon="8.28805">
        <ele>1599</ele>
        <time>2020-10-24T07:51:12.937Z</time>
      </trkpt>
      <trkpt lat="46.5062" lon="8.28805">
        <ele>1599</ele>
        <time>2020-10-24T07:51:13.937Z</time>
      </trkpt>
      <trkpt lat="46.50621" lon="8.28806">
        <ele>1599</ele>
        <time>2020-10-24T07:51:14.937Z</time>
      </trkpt>
      <trkpt lat="46.50623" lon="8.28806">
        <ele>1599</ele>
        <time>2020-10-24T07:51:15.937Z</time>
      </trkpt>
      <trkpt lat="46.50625" lon="8.28807">
        <ele>1599</ele>
        <time>2020-10-24T07:51:16.937Z</time>
      </trkpt>
      <trkpt lat="46.50626" lon="8.28806">
        <ele>1599</ele>
        <time>2020-10-24T07:51:17.936Z</time>
      </trkpt>
      <trkpt lat="46.50628" lon="8.28805">
        <ele>1599</ele>
        <time>2020-10-24T07:51:18.937Z</time>
      </trkpt>
      <trkpt lat="46.5063" lon="8.28805">
        <ele>1599</ele>
        <time>2020-10-24T07:51:19.937Z</time>
      </trkpt>
      <trkpt lat="46.50631" lon="8.28806">
        <ele>1599</ele>
        <time>2020-10-24T07:51:20.936Z</time>
      </trkpt>
      <trkpt lat="46.50633" lon="8.28807">
        <ele>1600</ele>
        <time>2020-10-24T07:51:21.936Z</time>
      </trkpt>
      <trkpt lat="46.50635" lon="8.28809">
        <ele>1600</ele>
        <time>2020-10-24T07:51:22.937Z</time>
      </trkpt>
      <trkpt lat="46.50637" lon="8.2881">
        <ele>1600</ele>
        <time>2020-10-24T07:51:23.937Z</time>
      </trkpt>
      <trkpt lat="46.50639" lon="8.28811">
        <ele>1600</ele>
        <time>2020-10-24T07:51:24.937Z</time>
      </trkpt>
      <trkpt lat="46.50641" lon="8.2881">
        <ele>1601</ele>
        <time>2020-10-24T07:51:25.937Z</time>
      </trkpt>
      <trkpt lat="46.50642" lon="8.2881">
        <ele>1601</ele>
        <time>2020-10-24T07:51:26.937Z</time>
      </trkpt>
      <trkpt lat="46.50645" lon="8.28811">
        <ele>1600</ele>
        <time>2020-10-24T07:51:27.937Z</time>
      </trkpt>
      <trkpt lat="46.50646" lon="8.28813">
        <ele>1601</ele>
        <time>2020-10-24T07:51:28.937Z</time>
      </trkpt>
      <trkpt lat="46.50647" lon="8.28815">
        <ele>1601</ele>
        <time>2020-10-24T07:51:29.937Z</time>
      </trkpt>
      <trkpt lat="46.50649" lon="8.28816">
        <ele>1601</ele>
        <time>2020-10-24T07:51:30.937Z</time>
      </trkpt>
      <trkpt lat="46.5065" lon="8.28819">
        <ele>1601</ele>
        <time>2020-10-24T07:51:31.936Z</time>
      </trkpt>
      <trkpt lat="46.50652" lon="8.28821">
        <ele>1601</ele>
        <time>2020-10-24T07:51:32.936Z</time>
      </trkpt>
      <trkpt lat="46.50654" lon="8.28822">
        <ele>1601</ele>
        <time>2020-10-24T07:51:33.937Z</time>
      </trkpt>
      <trkpt lat="46.50656" lon="8.28823">
        <ele>1601</ele>
        <time>2020-10-24T07:51:34.937Z</time>
      </trkpt>
      <trkpt lat="46.50657" lon="8.28824">
        <ele>1601</ele>
        <time>2020-10-24T07:51:35.937Z</time>
      </trkpt>
      <trkpt lat="46.50658" lon="8.28826">
        <ele>1601</ele>
        <time>2020-10-24T07:51:36.936Z</time>
      </trkpt>
      <trkpt lat="46.5066" lon="8.28827">
        <ele>1601</ele>
        <time>2020-10-24T07:51:37.937Z</time>
      </trkpt>
      <trkpt lat="46.50661" lon="8.28827">
        <ele>1601</ele>
        <time>2020-10-24T07:51:38.936Z</time>
      </trkpt>
      <trkpt lat="46.50662" lon="8.28828">
        <ele>1602</ele>
        <time>2020-10-24T07:51:39.937Z</time>
      </trkpt>
      <trkpt lat="46.50663" lon="8.2883">
        <ele>1602</ele>
        <time>2020-10-24T07:51:40.937Z</time>
      </trkpt>
      <trkpt lat="46.50664" lon="8.28831">
        <ele>1602</ele>
        <time>2020-10-24T07:51:41.937Z</time>
      </trkpt>
      <trkpt lat="46.50666" lon="8.28833">
        <ele>1602</ele>
        <time>2020-10-24T07:51:42.936Z</time>
      </trkpt>
      <trkpt lat="46.50667" lon="8.28833">
        <ele>1602</ele>
        <time>2020-10-24T07:51:43.937Z</time>
      </trkpt>
      <trkpt lat="46.50668" lon="8.28834">
        <ele>1603</ele>
        <time>2020-10-24T07:51:44.936Z</time>
      </trkpt>
      <trkpt lat="46.50669" lon="8.28835">
        <ele>1603</ele>
        <time>2020-10-24T07:51:45.936Z</time>
      </trkpt>
      <trkpt lat="46.5067" lon="8.28836">
        <ele>1604</ele>
        <time>2020-10-24T07:51:46.937Z</time>
      </trkpt>
      <trkpt lat="46.50672" lon="8.28837">
        <ele>1604</ele>
        <time>2020-10-24T07:51:47.937Z</time>
      </trkpt>
      <trkpt lat="46.50674" lon="8.28836">
        <ele>1605</ele>
        <time>2020-10-24T07:51:48.937Z</time>
      </trkpt>
      <trkpt lat="46.50676" lon="8.28835">
        <ele>1605</ele>
        <time>2020-10-24T07:51:49.936Z</time>
      </trkpt>
      <trkpt lat="46.50679" lon="8.28834">
        <ele>1605</ele>
        <time>2020-10-24T07:51:50.937Z</time>
      </trkpt>
      <trkpt lat="46.50682" lon="8.28832">
        <ele>1605</ele>
        <time>2020-10-24T07:51:51.936Z</time>
      </trkpt>
      <trkpt lat="46.50685" lon="8.28833">
        <ele>1605</ele>
        <time>2020-10-24T07:51:52.937Z</time>
      </trkpt>
      <trkpt lat="46.50688" lon="8.28833">
        <ele>1605</ele>
        <time>2020-10-24T07:51:53.937Z</time>
      </trkpt>
      <trkpt lat="46.50691" lon="8.28834">
        <ele>1605</ele>
        <time>2020-10-24T07:51:54.937Z</time>
      </trkpt>
      <trkpt lat="46.50695" lon="8.28834">
        <ele>1605</ele>
        <time>2020-10-24T07:51:55.937Z</time>
      </trkpt>
      <trkpt lat="46.50697" lon="8.28834">
        <ele>1606</ele>
        <time>2020-10-24T07:51:56.937Z</time>
      </trkpt>
      <trkpt lat="46.50699" lon="8.28835">
        <ele>1605</ele>
        <time>2020-10-24T07:51:57.936Z</time>
      </trkpt>
      <trkpt lat="46.507" lon="8.28837">
        <ele>1605</ele>
        <time>2020-10-24T07:51:58.937Z</time>
      </trkpt>
      <trkpt lat="46.50701" lon="8.28839">
        <ele>1605</ele>
        <time>2020-10-24T07:51:59.937Z</time>
      </trkpt>
      <trkpt lat="46.50701" lon="8.2884">
        <ele>1604</ele>
        <time>2020-10-24T07:52:00.936Z</time>
      </trkpt>
      <trkpt lat="46.50702" lon="8.28842">
        <ele>1604</ele>
        <time>2020-10-24T07:52:01.937Z</time>
      </trkpt>
      <trkpt lat="46.50703" lon="8.28843">
        <ele>1603</ele>
        <time>2020-10-24T07:52:02.937Z</time>
      </trkpt>
      <trkpt lat="46.50704" lon="8.28845">
        <ele>1603</ele>
        <time>2020-10-24T07:52:03.936Z</time>
      </trkpt>
      <trkpt lat="46.50705" lon="8.28847">
        <ele>1602</ele>
        <time>2020-10-24T07:52:04.937Z</time>
      </trkpt>
      <trkpt lat="46.50706" lon="8.2885">
        <ele>1602</ele>
        <time>2020-10-24T07:52:05.936Z</time>
      </trkpt>
      <trkpt lat="46.50707" lon="8.28851">
        <ele>1601</ele>
        <time>2020-10-24T07:52:06.936Z</time>
      </trkpt>
      <trkpt lat="46.50708" lon="8.28855">
        <ele>1601</ele>
        <time>2020-10-24T07:52:07.937Z</time>
      </trkpt>
      <trkpt lat="46.50708" lon="8.28857">
        <ele>1600</ele>
        <time>2020-10-24T07:52:08.937Z</time>
      </trkpt>
      <trkpt lat="46.50709" lon="8.2886">
        <ele>1599</ele>
        <time>2020-10-24T07:52:09.937Z</time>
      </trkpt>
      <trkpt lat="46.5071" lon="8.2886">
        <ele>1599</ele>
        <time>2020-10-24T07:52:10.937Z</time>
      </trkpt>
      <trkpt lat="46.50712" lon="8.28862">
        <ele>1599</ele>
        <time>2020-10-24T07:52:11.937Z</time>
      </trkpt>
      <trkpt lat="46.50714" lon="8.28863">
        <ele>1599</ele>
        <time>2020-10-24T07:52:12.937Z</time>
      </trkpt>
      <trkpt lat="46.50716" lon="8.28864">
        <ele>1599</ele>
        <time>2020-10-24T07:52:13.937Z</time>
      </trkpt>
      <trkpt lat="46.50718" lon="8.28864">
        <ele>1599</ele>
        <time>2020-10-24T07:52:14.937Z</time>
      </trkpt>
      <trkpt lat="46.50719" lon="8.28864">
        <ele>1600</ele>
        <time>2020-10-24T07:52:15.937Z</time>
      </trkpt>
      <trkpt lat="46.50721" lon="8.28864">
        <ele>1600</ele>
        <time>2020-10-24T07:52:16.936Z</time>
      </trkpt>
      <trkpt lat="46.50723" lon="8.28864">
        <ele>1601</ele>
        <time>2020-10-24T07:52:17.937Z</time>
      </trkpt>
      <trkpt lat="46.50725" lon="8.28864">
        <ele>1601</ele>
        <time>2020-10-24T07:52:18.936Z</time>
      </trkpt>
      <trkpt lat="46.50727" lon="8.28864">
        <ele>1601</ele>
        <time>2020-10-24T07:52:19.937Z</time>
      </trkpt>
      <trkpt lat="46.50728" lon="8.28863">
        <ele>1601</ele>
        <time>2020-10-24T07:52:20.937Z</time>
      </trkpt>
      <trkpt lat="46.5073" lon="8.28862">
        <ele>1601</ele>
        <time>2020-10-24T07:52:21.937Z</time>
      </trkpt>
      <trkpt lat="46.50731" lon="8.28862">
        <ele>1602</ele>
        <time>2020-10-24T07:52:22.937Z</time>
      </trkpt>
      <trkpt lat="46.50732" lon="8.28861">
        <ele>1602</ele>
        <time>2020-10-24T07:52:23.937Z</time>
      </trkpt>
      <trkpt lat="46.50733" lon="8.2886">
        <ele>1603</ele>
        <time>2020-10-24T07:52:24.936Z</time>
      </trkpt>
      <trkpt lat="46.50734" lon="8.28859">
        <ele>1603</ele>
        <time>2020-10-24T07:52:25.937Z</time>
      </trkpt>
      <trkpt lat="46.50735" lon="8.28858">
        <ele>1604</ele>
        <time>2020-10-24T07:52:26.937Z</time>
      </trkpt>
      <trkpt lat="46.50737" lon="8.28856">
        <ele>1605</ele>
        <time>2020-10-24T07:52:27.937Z</time>
      </trkpt>
      <trkpt lat="46.50738" lon="8.28856">
        <ele>1606</ele>
        <time>2020-10-24T07:52:28.936Z</time>
      </trkpt>
      <trkpt lat="46.50739" lon="8.28855">
        <ele>1607</ele>
        <time>2020-10-24T07:52:29.937Z</time>
      </trkpt>
      <trkpt lat="46.50741" lon="8.28854">
        <ele>1608</ele>
        <time>2020-10-24T07:52:30.937Z</time>
      </trkpt>
      <trkpt lat="46.50742" lon="8.28853">
        <ele>1608</ele>
        <time>2020-10-24T07:52:31.936Z</time>
      </trkpt>
      <trkpt lat="46.50743" lon="8.28853">
        <ele>1609</ele>
        <time>2020-10-24T07:52:32.936Z</time>
      </trkpt>
      <trkpt lat="46.50744" lon="8.28853">
        <ele>1610</ele>
        <time>2020-10-24T07:52:33.936Z</time>
      </trkpt>
      <trkpt lat="46.50744" lon="8.28854">
        <ele>1611</ele>
        <time>2020-10-24T07:52:34.936Z</time>
      </trkpt>
      <trkpt lat="46.50745" lon="8.28854">
        <ele>1611</ele>
        <time>2020-10-24T07:52:35.937Z</time>
      </trkpt>
      <trkpt lat="46.50744" lon="8.28856">
        <ele>1611</ele>
        <time>2020-10-24T07:52:36.936Z</time>
      </trkpt>
      <trkpt lat="46.50745" lon="8.28858">
        <ele>1612</ele>
        <time>2020-10-24T07:52:37.937Z</time>
      </trkpt>
      <trkpt lat="46.50746" lon="8.28859">
        <ele>1612</ele>
        <time>2020-10-24T07:52:38.937Z</time>
      </trkpt>
      <trkpt lat="46.50747" lon="8.2886">
        <ele>1612</ele>
        <time>2020-10-24T07:52:39.937Z</time>
      </trkpt>
      <trkpt lat="46.50748" lon="8.28861">
        <ele>1612</ele>
        <time>2020-10-24T07:52:40.937Z</time>
      </trkpt>
      <trkpt lat="46.50749" lon="8.28862">
        <ele>1612</ele>
        <time>2020-10-24T07:52:41.937Z</time>
      </trkpt>
      <trkpt lat="46.5075" lon="8.28863">
        <ele>1612</ele>
        <time>2020-10-24T07:52:42.936Z</time>
      </trkpt>
      <trkpt lat="46.50751" lon="8.28863">
        <ele>1612</ele>
        <time>2020-10-24T07:52:43.937Z</time>
      </trkpt>
      <trkpt lat="46.50753" lon="8.28864">
        <ele>1611</ele>
        <time>2020-10-24T07:52:44.937Z</time>
      </trkpt>
      <trkpt lat="46.50755" lon="8.28864">
        <ele>1611</ele>
        <time>2020-10-24T07:52:45.936Z</time>
      </trkpt>
      <trkpt lat="46.50756" lon="8.28865">
        <ele>1611</ele>
        <time>2020-10-24T07:52:46.936Z</time>
      </trkpt>
      <trkpt lat="46.50758" lon="8.28865">
        <ele>1610</ele>
        <time>2020-10-24T07:52:47.937Z</time>
      </trkpt>
      <trkpt lat="46.5076" lon="8.28866">
        <ele>1610</ele>
        <time>2020-10-24T07:52:48.937Z</time>
      </trkpt>
      <trkpt lat="46.50762" lon="8.28866">
        <ele>1610</ele>
        <time>2020-10-24T07:52:49.937Z</time>
      </trkpt>
      <trkpt lat="46.50763" lon="8.28867">
        <ele>1609</ele>
        <time>2020-10-24T07:52:50.937Z</time>
      </trkpt>
      <trkpt lat="46.50764" lon="8.28868">
        <ele>1608</ele>
        <time>2020-10-24T07:52:51.936Z</time>
      </trkpt>
      <trkpt lat="46.50765" lon="8.28869">
        <ele>1607</ele>
        <time>2020-10-24T07:52:52.937Z</time>
      </trkpt>
      <trkpt lat="46.50766" lon="8.28869">
        <ele>1607</ele>
        <time>2020-10-24T07:52:53.937Z</time>
      </trkpt>
      <trkpt lat="46.50768" lon="8.2887">
        <ele>1607</ele>
        <time>2020-10-24T07:52:54.937Z</time>
      </trkpt>
      <trkpt lat="46.50769" lon="8.28871">
        <ele>1606</ele>
        <time>2020-10-24T07:52:55.936Z</time>
      </trkpt>
      <trkpt lat="46.5077" lon="8.28873">
        <ele>1606</ele>
        <time>2020-10-24T07:52:56.937Z</time>
      </trkpt>
      <trkpt lat="46.50771" lon="8.28874">
        <ele>1606</ele>
        <time>2020-10-24T07:52:57.937Z</time>
      </trkpt>
      <trkpt lat="46.50772" lon="8.28875">
        <ele>1606</ele>
        <time>2020-10-24T07:52:58.936Z</time>
      </trkpt>
      <trkpt lat="46.50773" lon="8.28876">
        <ele>1606</ele>
        <time>2020-10-24T07:52:59.937Z</time>
      </trkpt>
      <trkpt lat="46.50774" lon="8.28877">
        <ele>1607</ele>
        <time>2020-10-24T07:53:00.936Z</time>
      </trkpt>
      <trkpt lat="46.50774" lon="8.2888">
        <ele>1607</ele>
        <time>2020-10-24T07:53:01.937Z</time>
      </trkpt>
      <trkpt lat="46.50775" lon="8.28882">
        <ele>1607</ele>
        <time>2020-10-24T07:53:02.937Z</time>
      </trkpt>
      <trkpt lat="46.50776" lon="8.28884">
        <ele>1607</ele>
        <time>2020-10-24T07:53:03.936Z</time>
      </trkpt>
      <trkpt lat="46.50776" lon="8.28886">
        <ele>1607</ele>
        <time>2020-10-24T07:53:04.936Z</time>
      </trkpt>
      <trkpt lat="46.50777" lon="8.28889">
        <ele>1607</ele>
        <time>2020-10-24T07:53:05.937Z</time>
      </trkpt>
      <trkpt lat="46.50777" lon="8.28891">
        <ele>1607</ele>
        <time>2020-10-24T07:53:06.937Z</time>
      </trkpt>
      <trkpt lat="46.50778" lon="8.28893">
        <ele>1607</ele>
        <time>2020-10-24T07:53:07.936Z</time>
      </trkpt>
      <trkpt lat="46.50779" lon="8.28895">
        <ele>1606</ele>
        <time>2020-10-24T07:53:08.937Z</time>
      </trkpt>
      <trkpt lat="46.50779" lon="8.28897">
        <ele>1607</ele>
        <time>2020-10-24T07:53:09.937Z</time>
      </trkpt>
      <trkpt lat="46.5078" lon="8.28899">
        <ele>1607</ele>
        <time>2020-10-24T07:53:10.936Z</time>
      </trkpt>
      <trkpt lat="46.50781" lon="8.28901">
        <ele>1607</ele>
        <time>2020-10-24T07:53:11.937Z</time>
      </trkpt>
      <trkpt lat="46.50781" lon="8.28904">
        <ele>1607</ele>
        <time>2020-10-24T07:53:12.937Z</time>
      </trkpt>
      <trkpt lat="46.50782" lon="8.28905">
        <ele>1607</ele>
        <time>2020-10-24T07:53:13.937Z</time>
      </trkpt>
      <trkpt lat="46.50784" lon="8.28907">
        <ele>1607</ele>
        <time>2020-10-24T07:53:14.936Z</time>
      </trkpt>
      <trkpt lat="46.50785" lon="8.28908">
        <ele>1607</ele>
        <time>2020-10-24T07:53:15.936Z</time>
      </trkpt>
      <trkpt lat="46.50786" lon="8.28908">
        <ele>1606</ele>
        <time>2020-10-24T07:53:16.936Z</time>
      </trkpt>
      <trkpt lat="46.50788" lon="8.28909">
        <ele>1606</ele>
        <time>2020-10-24T07:53:17.937Z</time>
      </trkpt>
      <trkpt lat="46.50789" lon="8.2891">
        <ele>1605</ele>
        <time>2020-10-24T07:53:18.937Z</time>
      </trkpt>
      <trkpt lat="46.5079" lon="8.28911">
        <ele>1605</ele>
        <time>2020-10-24T07:53:19.936Z</time>
      </trkpt>
      <trkpt lat="46.50791" lon="8.28913">
        <ele>1605</ele>
        <time>2020-10-24T07:53:20.937Z</time>
      </trkpt>
      <trkpt lat="46.50792" lon="8.28914">
        <ele>1605</ele>
        <time>2020-10-24T07:53:21.937Z</time>
      </trkpt>
      <trkpt lat="46.50794" lon="8.28915">
        <ele>1605</ele>
        <time>2020-10-24T07:53:22.937Z</time>
      </trkpt>
      <trkpt lat="46.50795" lon="8.28918">
        <ele>1605</ele>
        <time>2020-10-24T07:53:23.936Z</time>
      </trkpt>
      <trkpt lat="46.50796" lon="8.2892">
        <ele>1604</ele>
        <time>2020-10-24T07:53:24.936Z</time>
      </trkpt>
      <trkpt lat="46.50797" lon="8.28921">
        <ele>1604</ele>
        <time>2020-10-24T07:53:25.936Z</time>
      </trkpt>
      <trkpt lat="46.50799" lon="8.28921">
        <ele>1604</ele>
        <time>2020-10-24T07:53:26.936Z</time>
      </trkpt>
      <trkpt lat="46.508" lon="8.28921">
        <ele>1604</ele>
        <time>2020-10-24T07:53:27.937Z</time>
      </trkpt>
      <trkpt lat="46.50802" lon="8.28921">
        <ele>1604</ele>
        <time>2020-10-24T07:53:28.937Z</time>
      </trkpt>
      <trkpt lat="46.50804" lon="8.2892">
        <ele>1604</ele>
        <time>2020-10-24T07:53:29.936Z</time>
      </trkpt>
      <trkpt lat="46.50805" lon="8.28919">
        <ele>1604</ele>
        <time>2020-10-24T07:53:30.936Z</time>
      </trkpt>
      <trkpt lat="46.50808" lon="8.28918">
        <ele>1604</ele>
        <time>2020-10-24T07:53:31.936Z</time>
      </trkpt>
      <trkpt lat="46.50811" lon="8.28916">
        <ele>1604</ele>
        <time>2020-10-24T07:53:32.936Z</time>
      </trkpt>
      <trkpt lat="46.50814" lon="8.28915">
        <ele>1605</ele>
        <time>2020-10-24T07:53:33.937Z</time>
      </trkpt>
      <trkpt lat="46.50815" lon="8.28914">
        <ele>1605</ele>
        <time>2020-10-24T07:53:34.937Z</time>
      </trkpt>
      <trkpt lat="46.50817" lon="8.28913">
        <ele>1606</ele>
        <time>2020-10-24T07:53:35.937Z</time>
      </trkpt>
      <trkpt lat="46.50818" lon="8.28912">
        <ele>1607</ele>
        <time>2020-10-24T07:53:36.936Z</time>
      </trkpt>
      <trkpt lat="46.5082" lon="8.28912">
        <ele>1608</ele>
        <time>2020-10-24T07:53:37.936Z</time>
      </trkpt>
      <trkpt lat="46.50821" lon="8.28911">
        <ele>1608</ele>
        <time>2020-10-24T07:53:38.936Z</time>
      </trkpt>
      <trkpt lat="46.50823" lon="8.28911">
        <ele>1609</ele>
        <time>2020-10-24T07:53:39.936Z</time>
      </trkpt>
      <trkpt lat="46.50823" lon="8.2891">
        <ele>1610</ele>
        <time>2020-10-24T07:53:40.937Z</time>
      </trkpt>
      <trkpt lat="46.50825" lon="8.2891">
        <ele>1611</ele>
        <time>2020-10-24T07:53:41.936Z</time>
      </trkpt>
      <trkpt lat="46.50827" lon="8.2891">
        <ele>1611</ele>
        <time>2020-10-24T07:53:42.936Z</time>
      </trkpt>
      <trkpt lat="46.50828" lon="8.28909">
        <ele>1612</ele>
        <time>2020-10-24T07:53:43.936Z</time>
      </trkpt>
      <trkpt lat="46.50829" lon="8.28908">
        <ele>1612</ele>
        <time>2020-10-24T07:53:44.936Z</time>
      </trkpt>
      <trkpt lat="46.50831" lon="8.28907">
        <ele>1613</ele>
        <time>2020-10-24T07:53:45.936Z</time>
      </trkpt>
      <trkpt lat="46.50833" lon="8.28907">
        <ele>1613</ele>
        <time>2020-10-24T07:53:46.936Z</time>
      </trkpt>
      <trkpt lat="46.50834" lon="8.28906">
        <ele>1614</ele>
        <time>2020-10-24T07:53:47.937Z</time>
      </trkpt>
      <trkpt lat="46.50835" lon="8.28905">
        <ele>1614</ele>
        <time>2020-10-24T07:53:48.936Z</time>
      </trkpt>
      <trkpt lat="46.50836" lon="8.28905">
        <ele>1615</ele>
        <time>2020-10-24T07:53:49.936Z</time>
      </trkpt>
      <trkpt lat="46.50837" lon="8.28906">
        <ele>1616</ele>
        <time>2020-10-24T07:53:50.936Z</time>
      </trkpt>
      <trkpt lat="46.50838" lon="8.28906">
        <ele>1616</ele>
        <time>2020-10-24T07:53:51.937Z</time>
      </trkpt>
      <trkpt lat="46.50838" lon="8.28907">
        <ele>1617</ele>
        <time>2020-10-24T07:53:52.936Z</time>
      </trkpt>
      <trkpt lat="46.50838" lon="8.28907">
        <ele>1617</ele>
        <time>2020-10-24T07:53:53.936Z</time>
      </trkpt>
      <trkpt lat="46.50838" lon="8.28907">
        <ele>1617</ele>
        <time>2020-10-24T07:53:54.936Z</time>
      </trkpt>
      <trkpt lat="46.50839" lon="8.28906">
        <ele>1616</ele>
        <time>2020-10-24T07:53:55.937Z</time>
      </trkpt>
      <trkpt lat="46.5084" lon="8.28905">
        <ele>1615</ele>
        <time>2020-10-24T07:53:56.936Z</time>
      </trkpt>
      <trkpt lat="46.50842" lon="8.28905">
        <ele>1615</ele>
        <time>2020-10-24T07:53:57.937Z</time>
      </trkpt>
      <trkpt lat="46.50843" lon="8.28903">
        <ele>1615</ele>
        <time>2020-10-24T07:53:58.937Z</time>
      </trkpt>
      <trkpt lat="46.50844" lon="8.28903">
        <ele>1615</ele>
        <time>2020-10-24T07:53:59.937Z</time>
      </trkpt>
      <trkpt lat="46.50846" lon="8.28901">
        <ele>1615</ele>
        <time>2020-10-24T07:54:00.937Z</time>
      </trkpt>
      <trkpt lat="46.50847" lon="8.289">
        <ele>1615</ele>
        <time>2020-10-24T07:54:01.937Z</time>
      </trkpt>
      <trkpt lat="46.50848" lon="8.289">
        <ele>1615</ele>
        <time>2020-10-24T07:54:02.937Z</time>
      </trkpt>
      <trkpt lat="46.5085" lon="8.28898">
        <ele>1615</ele>
        <time>2020-10-24T07:54:03.937Z</time>
      </trkpt>
      <trkpt lat="46.50851" lon="8.28897">
        <ele>1615</ele>
        <time>2020-10-24T07:54:04.936Z</time>
      </trkpt>
      <trkpt lat="46.50853" lon="8.28896">
        <ele>1615</ele>
        <time>2020-10-24T07:54:05.937Z</time>
      </trkpt>
      <trkpt lat="46.50855" lon="8.28894">
        <ele>1615</ele>
        <time>2020-10-24T07:54:06.936Z</time>
      </trkpt>
      <trkpt lat="46.50857" lon="8.28893">
        <ele>1616</ele>
        <time>2020-10-24T07:54:07.937Z</time>
      </trkpt>
      <trkpt lat="46.50859" lon="8.28892">
        <ele>1616</ele>
        <time>2020-10-24T07:54:08.936Z</time>
      </trkpt>
      <trkpt lat="46.50861" lon="8.28891">
        <ele>1617</ele>
        <time>2020-10-24T07:54:09.936Z</time>
      </trkpt>
      <trkpt lat="46.50864" lon="8.2889">
        <ele>1617</ele>
        <time>2020-10-24T07:54:10.937Z</time>
      </trkpt>
      <trkpt lat="46.50866" lon="8.28889">
        <ele>1618</ele>
        <time>2020-10-24T07:54:11.937Z</time>
      </trkpt>
      <trkpt lat="46.50868" lon="8.28888">
        <ele>1618</ele>
        <time>2020-10-24T07:54:12.937Z</time>
      </trkpt>
      <trkpt lat="46.5087" lon="8.28888">
        <ele>1617</ele>
        <time>2020-10-24T07:54:13.936Z</time>
      </trkpt>
      <trkpt lat="46.50873" lon="8.28887">
        <ele>1617</ele>
        <time>2020-10-24T07:54:14.936Z</time>
      </trkpt>
      <trkpt lat="46.50874" lon="8.28888">
        <ele>1616</ele>
        <time>2020-10-24T07:54:15.937Z</time>
      </trkpt>
      <trkpt lat="46.50876" lon="8.28888">
        <ele>1616</ele>
        <time>2020-10-24T07:54:16.936Z</time>
      </trkpt>
      <trkpt lat="46.50878" lon="8.28888">
        <ele>1615</ele>
        <time>2020-10-24T07:54:17.937Z</time>
      </trkpt>
      <trkpt lat="46.5088" lon="8.28889">
        <ele>1614</ele>
        <time>2020-10-24T07:54:18.937Z</time>
      </trkpt>
      <trkpt lat="46.50882" lon="8.2889">
        <ele>1614</ele>
        <time>2020-10-24T07:54:19.937Z</time>
      </trkpt>
      <trkpt lat="46.50885" lon="8.2889">
        <ele>1613</ele>
        <time>2020-10-24T07:54:20.937Z</time>
      </trkpt>
      <trkpt lat="46.50887" lon="8.28889">
        <ele>1612</ele>
        <time>2020-10-24T07:54:21.937Z</time>
      </trkpt>
      <trkpt lat="46.50889" lon="8.28888">
        <ele>1612</ele>
        <time>2020-10-24T07:54:22.936Z</time>
      </trkpt>
      <trkpt lat="46.50892" lon="8.28887">
        <ele>1611</ele>
        <time>2020-10-24T07:54:23.937Z</time>
      </trkpt>
      <trkpt lat="46.50894" lon="8.28887">
        <ele>1611</ele>
        <time>2020-10-24T07:54:24.937Z</time>
      </trkpt>
      <trkpt lat="46.50896" lon="8.28887">
        <ele>1611</ele>
        <time>2020-10-24T07:54:25.937Z</time>
      </trkpt>
      <trkpt lat="46.50899" lon="8.28886">
        <ele>1610</ele>
        <time>2020-10-24T07:54:26.937Z</time>
      </trkpt>
      <trkpt lat="46.50901" lon="8.28886">
        <ele>1609</ele>
        <time>2020-10-24T07:54:27.937Z</time>
      </trkpt>
      <trkpt lat="46.50902" lon="8.28887">
        <ele>1608</ele>
        <time>2020-10-24T07:54:28.937Z</time>
      </trkpt>
      <trkpt lat="46.50904" lon="8.28888">
        <ele>1607</ele>
        <time>2020-10-24T07:54:29.937Z</time>
      </trkpt>
      <trkpt lat="46.50906" lon="8.28888">
        <ele>1607</ele>
        <time>2020-10-24T07:54:30.936Z</time>
      </trkpt>
      <trkpt lat="46.50906" lon="8.28889">
        <ele>1606</ele>
        <time>2020-10-24T07:54:31.937Z</time>
      </trkpt>
      <trkpt lat="46.50907" lon="8.2889">
        <ele>1606</ele>
        <time>2020-10-24T07:54:32.937Z</time>
      </trkpt>
      <trkpt lat="46.50908" lon="8.2889">
        <ele>1605</ele>
        <time>2020-10-24T07:54:33.937Z</time>
      </trkpt>
      <trkpt lat="46.50909" lon="8.2889">
        <ele>1605</ele>
        <time>2020-10-24T07:54:34.937Z</time>
      </trkpt>
      <trkpt lat="46.5091" lon="8.2889">
        <ele>1605</ele>
        <time>2020-10-24T07:54:35.936Z</time>
      </trkpt>
      <trkpt lat="46.50911" lon="8.2889">
        <ele>1605</ele>
        <time>2020-10-24T07:54:36.937Z</time>
      </trkpt>
      <trkpt lat="46.5091" lon="8.28892">
        <ele>1606</ele>
        <time>2020-10-24T07:54:37.937Z</time>
      </trkpt>
      <trkpt lat="46.50909" lon="8.28894">
        <ele>1606</ele>
        <time>2020-10-24T07:54:38.937Z</time>
      </trkpt>
      <trkpt lat="46.50909" lon="8.28897">
        <ele>1606</ele>
        <time>2020-10-24T07:54:39.937Z</time>
      </trkpt>
      <trkpt lat="46.50909" lon="8.289">
        <ele>1607</ele>
        <time>2020-10-24T07:54:40.937Z</time>
      </trkpt>
      <trkpt lat="46.50909" lon="8.28901">
        <ele>1607</ele>
        <time>2020-10-24T07:54:41.937Z</time>
      </trkpt>
      <trkpt lat="46.50908" lon="8.28903">
        <ele>1608</ele>
        <time>2020-10-24T07:54:42.937Z</time>
      </trkpt>
      <trkpt lat="46.50907" lon="8.28903">
        <ele>1609</ele>
        <time>2020-10-24T07:54:43.937Z</time>
      </trkpt>
      <trkpt lat="46.50905" lon="8.28904">
        <ele>1609</ele>
        <time>2020-10-24T07:54:44.936Z</time>
      </trkpt>
      <trkpt lat="46.50904" lon="8.28905">
        <ele>1610</ele>
        <time>2020-10-24T07:54:45.936Z</time>
      </trkpt>
      <trkpt lat="46.50902" lon="8.28907">
        <ele>1610</ele>
        <time>2020-10-24T07:54:46.937Z</time>
      </trkpt>
      <trkpt lat="46.50901" lon="8.28909">
        <ele>1611</ele>
        <time>2020-10-24T07:54:47.937Z</time>
      </trkpt>
      <trkpt lat="46.50901" lon="8.2891">
        <ele>1612</ele>
        <time>2020-10-24T07:54:48.937Z</time>
      </trkpt>
      <trkpt lat="46.50899" lon="8.28912">
        <ele>1612</ele>
        <time>2020-10-24T07:54:49.937Z</time>
      </trkpt>
      <trkpt lat="46.50898" lon="8.28914">
        <ele>1613</ele>
        <time>2020-10-24T07:54:50.937Z</time>
      </trkpt>
      <trkpt lat="46.50897" lon="8.28916">
        <ele>1614</ele>
        <time>2020-10-24T07:54:51.937Z</time>
      </trkpt>
      <trkpt lat="46.50896" lon="8.28917">
        <ele>1614</ele>
        <time>2020-10-24T07:54:52.936Z</time>
      </trkpt>
      <trkpt lat="46.50894" lon="8.28919">
        <ele>1615</ele>
        <time>2020-10-24T07:54:53.936Z</time>
      </trkpt>
      <trkpt lat="46.50893" lon="8.28921">
        <ele>1615</ele>
        <time>2020-10-24T07:54:54.937Z</time>
      </trkpt>
      <trkpt lat="46.50892" lon="8.28922">
        <ele>1616</ele>
        <time>2020-10-24T07:54:55.937Z</time>
      </trkpt>
      <trkpt lat="46.50891" lon="8.28924">
        <ele>1617</ele>
        <time>2020-10-24T07:54:56.936Z</time>
      </trkpt>
      <trkpt lat="46.50891" lon="8.28925">
        <ele>1617</ele>
        <time>2020-10-24T07:54:57.937Z</time>
      </trkpt>
      <trkpt lat="46.5089" lon="8.28927">
        <ele>1618</ele>
        <time>2020-10-24T07:54:58.937Z</time>
      </trkpt>
      <trkpt lat="46.50889" lon="8.28929">
        <ele>1618</ele>
        <time>2020-10-24T07:54:59.937Z</time>
      </trkpt>
      <trkpt lat="46.50888" lon="8.28931">
        <ele>1619</ele>
        <time>2020-10-24T07:55:00.936Z</time>
      </trkpt>
      <trkpt lat="46.50887" lon="8.28932">
        <ele>1619</ele>
        <time>2020-10-24T07:55:01.936Z</time>
      </trkpt>
      <trkpt lat="46.50887" lon="8.28933">
        <ele>1620</ele>
        <time>2020-10-24T07:55:02.937Z</time>
      </trkpt>
      <trkpt lat="46.50886" lon="8.28934">
        <ele>1620</ele>
        <time>2020-10-24T07:55:03.937Z</time>
      </trkpt>
      <trkpt lat="46.50885" lon="8.28936">
        <ele>1621</ele>
        <time>2020-10-24T07:55:04.937Z</time>
      </trkpt>
      <trkpt lat="46.50885" lon="8.28937">
        <ele>1621</ele>
        <time>2020-10-24T07:55:05.937Z</time>
      </trkpt>
      <trkpt lat="46.50884" lon="8.28938">
        <ele>1621</ele>
        <time>2020-10-24T07:55:06.937Z</time>
      </trkpt>
      <trkpt lat="46.50884" lon="8.28939">
        <ele>1621</ele>
        <time>2020-10-24T07:55:07.936Z</time>
      </trkpt>
      <trkpt lat="46.50883" lon="8.2894">
        <ele>1622</ele>
        <time>2020-10-24T07:55:08.936Z</time>
      </trkpt>
      <trkpt lat="46.50882" lon="8.28941">
        <ele>1622</ele>
        <time>2020-10-24T07:55:09.937Z</time>
      </trkpt>
      <trkpt lat="46.50881" lon="8.28941">
        <ele>1622</ele>
        <time>2020-10-24T07:55:10.936Z</time>
      </trkpt>
      <trkpt lat="46.5088" lon="8.28942">
        <ele>1622</ele>
        <time>2020-10-24T07:55:11.937Z</time>
      </trkpt>
      <trkpt lat="46.5088" lon="8.28944">
        <ele>1622</ele>
        <time>2020-10-24T07:55:12.937Z</time>
      </trkpt>
      <trkpt lat="46.50879" lon="8.28946">
        <ele>1622</ele>
        <time>2020-10-24T07:55:13.937Z</time>
      </trkpt>
      <trkpt lat="46.50879" lon="8.28948">
        <ele>1622</ele>
        <time>2020-10-24T07:55:14.936Z</time>
      </trkpt>
      <trkpt lat="46.50879" lon="8.28949">
        <ele>1622</ele>
        <time>2020-10-24T07:55:15.936Z</time>
      </trkpt>
      <trkpt lat="46.50878" lon="8.2895">
        <ele>1622</ele>
        <time>2020-10-24T07:55:16.937Z</time>
      </trkpt>
      <trkpt lat="46.50877" lon="8.28951">
        <ele>1622</ele>
        <time>2020-10-24T07:55:17.937Z</time>
      </trkpt>
      <trkpt lat="46.50876" lon="8.28952">
        <ele>1622</ele>
        <time>2020-10-24T07:55:18.937Z</time>
      </trkpt>
      <trkpt lat="46.50876" lon="8.28954">
        <ele>1622</ele>
        <time>2020-10-24T07:55:19.936Z</time>
      </trkpt>
      <trkpt lat="46.50875" lon="8.28956">
        <ele>1621</ele>
        <time>2020-10-24T07:55:20.937Z</time>
      </trkpt>
      <trkpt lat="46.50874" lon="8.28957">
        <ele>1621</ele>
        <time>2020-10-24T07:55:21.937Z</time>
      </trkpt>
      <trkpt lat="46.50874" lon="8.28958">
        <ele>1621</ele>
        <time>2020-10-24T07:55:22.937Z</time>
      </trkpt>
      <trkpt lat="46.50873" lon="8.28959">
        <ele>1621</ele>
        <time>2020-10-24T07:55:23.936Z</time>
      </trkpt>
      <trkpt lat="46.50872" lon="8.28961">
        <ele>1621</ele>
        <time>2020-10-24T07:55:24.936Z</time>
      </trkpt>
      <trkpt lat="46.50871" lon="8.28962">
        <ele>1621</ele>
        <time>2020-10-24T07:55:25.936Z</time>
      </trkpt>
      <trkpt lat="46.50871" lon="8.28963">
        <ele>1620</ele>
        <time>2020-10-24T07:55:26.936Z</time>
      </trkpt>
      <trkpt lat="46.5087" lon="8.28964">
        <ele>1620</ele>
        <time>2020-10-24T07:55:27.937Z</time>
      </trkpt>
      <trkpt lat="46.50869" lon="8.28965">
        <ele>1620</ele>
        <time>2020-10-24T07:55:28.937Z</time>
      </trkpt>
      <trkpt lat="46.50869" lon="8.28967">
        <ele>1620</ele>
        <time>2020-10-24T07:55:29.937Z</time>
      </trkpt>
      <trkpt lat="46.50868" lon="8.28968">
        <ele>1620</ele>
        <time>2020-10-24T07:55:30.936Z</time>
      </trkpt>
      <trkpt lat="46.50868" lon="8.2897">
        <ele>1619</ele>
        <time>2020-10-24T07:55:31.937Z</time>
      </trkpt>
      <trkpt lat="46.50868" lon="8.28971">
        <ele>1619</ele>
        <time>2020-10-24T07:55:32.936Z</time>
      </trkpt>
      <trkpt lat="46.50868" lon="8.28973">
        <ele>1618</ele>
        <time>2020-10-24T07:55:33.937Z</time>
      </trkpt>
      <trkpt lat="46.50868" lon="8.28974">
        <ele>1618</ele>
        <time>2020-10-24T07:55:34.936Z</time>
      </trkpt>
      <trkpt lat="46.50868" lon="8.28975">
        <ele>1617</ele>
        <time>2020-10-24T07:55:35.936Z</time>
      </trkpt>
      <trkpt lat="46.50868" lon="8.28976">
        <ele>1617</ele>
        <time>2020-10-24T07:55:36.937Z</time>
      </trkpt>
      <trkpt lat="46.50868" lon="8.28977">
        <ele>1617</ele>
        <time>2020-10-24T07:55:37.937Z</time>
      </trkpt>
      <trkpt lat="46.50867" lon="8.28977">
        <ele>1616</ele>
        <time>2020-10-24T07:55:38.937Z</time>
      </trkpt>
      <trkpt lat="46.50867" lon="8.28978">
        <ele>1616</ele>
        <time>2020-10-24T07:55:39.937Z</time>
      </trkpt>
      <trkpt lat="46.50867" lon="8.28979">
        <ele>1616</ele>
        <time>2020-10-24T07:55:40.936Z</time>
      </trkpt>
      <trkpt lat="46.50867" lon="8.2898">
        <ele>1616</ele>
        <time>2020-10-24T07:55:41.936Z</time>
      </trkpt>
      <trkpt lat="46.50867" lon="8.28981">
        <ele>1616</ele>
        <time>2020-10-24T07:55:42.937Z</time>
      </trkpt>
      <trkpt lat="46.50867" lon="8.28982">
        <ele>1616</ele>
        <time>2020-10-24T07:55:43.937Z</time>
      </trkpt>
      <trkpt lat="46.50867" lon="8.28983">
        <ele>1615</ele>
        <time>2020-10-24T07:55:44.937Z</time>
      </trkpt>
      <trkpt lat="46.50867" lon="8.28983">
        <ele>1615</ele>
        <time>2020-10-24T07:55:45.937Z</time>
      </trkpt>
      <trkpt lat="46.50867" lon="8.28985">
        <ele>1615</ele>
        <time>2020-10-24T07:55:46.937Z</time>
      </trkpt>
      <trkpt lat="46.50866" lon="8.28985">
        <ele>1614</ele>
        <time>2020-10-24T07:55:47.937Z</time>
      </trkpt>
      <trkpt lat="46.50866" lon="8.28987">
        <ele>1614</ele>
        <time>2020-10-24T07:55:48.936Z</time>
      </trkpt>
      <trkpt lat="46.50866" lon="8.28987">
        <ele>1613</ele>
        <time>2020-10-24T07:55:49.936Z</time>
      </trkpt>
      <trkpt lat="46.50866" lon="8.28988">
        <ele>1613</ele>
        <time>2020-10-24T07:55:50.937Z</time>
      </trkpt>
      <trkpt lat="46.50866" lon="8.28989">
        <ele>1612</ele>
        <time>2020-10-24T07:55:51.936Z</time>
      </trkpt>
      <trkpt lat="46.50867" lon="8.28989">
        <ele>1612</ele>
        <time>2020-10-24T07:55:52.937Z</time>
      </trkpt>
      <trkpt lat="46.50867" lon="8.2899">
        <ele>1612</ele>
        <time>2020-10-24T07:55:53.937Z</time>
      </trkpt>
      <trkpt lat="46.50867" lon="8.2899">
        <ele>1612</ele>
        <time>2020-10-24T07:55:54.936Z</time>
      </trkpt>
      <trkpt lat="46.50867" lon="8.28991">
        <ele>1612</ele>
        <time>2020-10-24T07:55:55.936Z</time>
      </trkpt>
      <trkpt lat="46.50867" lon="8.28991">
        <ele>1612</ele>
        <time>2020-10-24T07:55:56.936Z</time>
      </trkpt>
      <trkpt lat="46.50867" lon="8.28991">
        <ele>1612</ele>
        <time>2020-10-24T07:55:57.937Z</time>
      </trkpt>
      <trkpt lat="46.50866" lon="8.28992">
        <ele>1612</ele>
        <time>2020-10-24T07:55:58.937Z</time>
      </trkpt>
      <trkpt lat="46.50866" lon="8.28993">
        <ele>1613</ele>
        <time>2020-10-24T07:55:59.937Z</time>
      </trkpt>
      <trkpt lat="46.50867" lon="8.28994">
        <ele>1613</ele>
        <time>2020-10-24T07:56:00.937Z</time>
      </trkpt>
      <trkpt lat="46.50867" lon="8.28995">
        <ele>1612</ele>
        <time>2020-10-24T07:56:01.937Z</time>
      </trkpt>
      <trkpt lat="46.50867" lon="8.28995">
        <ele>1612</ele>
        <time>2020-10-24T07:56:02.937Z</time>
      </trkpt>
      <trkpt lat="46.50867" lon="8.28996">
        <ele>1611</ele>
        <time>2020-10-24T07:56:03.937Z</time>
      </trkpt>
      <trkpt lat="46.50867" lon="8.28997">
        <ele>1611</ele>
        <time>2020-10-24T07:56:04.937Z</time>
      </trkpt>
      <trkpt lat="46.50867" lon="8.28998">
        <ele>1610</ele>
        <time>2020-10-24T07:56:05.937Z</time>
      </trkpt>
      <trkpt lat="46.50867" lon="8.28998">
        <ele>1610</ele>
        <time>2020-10-24T07:56:06.937Z</time>
      </trkpt>
      <trkpt lat="46.50867" lon="8.28999">
        <ele>1609</ele>
        <time>2020-10-24T07:56:07.937Z</time>
      </trkpt>
      <trkpt lat="46.50869" lon="8.29002">
        <ele>1609</ele>
        <time>2020-10-24T07:56:08.937Z</time>
      </trkpt>
      <trkpt lat="46.50869" lon="8.29003">
        <ele>1609</ele>
        <time>2020-10-24T07:56:09.937Z</time>
      </trkpt>
      <trkpt lat="46.50868" lon="8.29003">
        <ele>1609</ele>
        <time>2020-10-24T07:56:10.937Z</time>
      </trkpt>
      <trkpt lat="46.50867" lon="8.29002">
        <ele>1609</ele>
        <time>2020-10-24T07:56:11.937Z</time>
      </trkpt>
      <trkpt lat="46.50867" lon="8.29003">
        <ele>1609</ele>
        <time>2020-10-24T07:56:12.936Z</time>
      </trkpt>
      <trkpt lat="46.50867" lon="8.29004">
        <ele>1610</ele>
        <time>2020-10-24T07:56:13.937Z</time>
      </trkpt>
      <trkpt lat="46.50867" lon="8.29005">
        <ele>1610</ele>
        <time>2020-10-24T07:56:14.936Z</time>
      </trkpt>
      <trkpt lat="46.50867" lon="8.29006">
        <ele>1611</ele>
        <time>2020-10-24T07:56:15.937Z</time>
      </trkpt>
      <trkpt lat="46.50866" lon="8.29007">
        <ele>1612</ele>
        <time>2020-10-24T07:56:16.937Z</time>
      </trkpt>
      <trkpt lat="46.50866" lon="8.29008">
        <ele>1613</ele>
        <time>2020-10-24T07:56:17.937Z</time>
      </trkpt>
      <trkpt lat="46.50866" lon="8.29008">
        <ele>1614</ele>
        <time>2020-10-24T07:56:18.937Z</time>
      </trkpt>
      <trkpt lat="46.50865" lon="8.29009">
        <ele>1615</ele>
        <time>2020-10-24T07:56:19.937Z</time>
      </trkpt>
      <trkpt lat="46.50866" lon="8.2901">
        <ele>1615</ele>
        <time>2020-10-24T07:56:20.937Z</time>
      </trkpt>
      <trkpt lat="46.50866" lon="8.2901">
        <ele>1616</ele>
        <time>2020-10-24T07:56:21.937Z</time>
      </trkpt>
      <trkpt lat="46.50866" lon="8.29011">
        <ele>1616</ele>
        <time>2020-10-24T07:56:22.937Z</time>
      </trkpt>
      <trkpt lat="46.50866" lon="8.29012">
        <ele>1616</ele>
        <time>2020-10-24T07:56:23.937Z</time>
      </trkpt>
      <trkpt lat="46.50866" lon="8.29013">
        <ele>1616</ele>
        <time>2020-10-24T07:56:24.936Z</time>
      </trkpt>
      <trkpt lat="46.50866" lon="8.29014">
        <ele>1617</ele>
        <time>2020-10-24T07:56:25.936Z</time>
      </trkpt>
      <trkpt lat="46.50866" lon="8.29015">
        <ele>1618</ele>
        <time>2020-10-24T07:56:26.936Z</time>
      </trkpt>
      <trkpt lat="46.50866" lon="8.29016">
        <ele>1619</ele>
        <time>2020-10-24T07:56:27.937Z</time>
      </trkpt>
      <trkpt lat="46.50865" lon="8.29016">
        <ele>1620</ele>
        <time>2020-10-24T07:56:28.936Z</time>
      </trkpt>
      <trkpt lat="46.50865" lon="8.29017">
        <ele>1621</ele>
        <time>2020-10-24T07:56:29.936Z</time>
      </trkpt>
      <trkpt lat="46.50865" lon="8.29018">
        <ele>1621</ele>
        <time>2020-10-24T07:56:30.937Z</time>
      </trkpt>
      <trkpt lat="46.50865" lon="8.29018">
        <ele>1622</ele>
        <time>2020-10-24T07:56:31.937Z</time>
      </trkpt>
      <trkpt lat="46.50865" lon="8.29019">
        <ele>1622</ele>
        <time>2020-10-24T07:56:32.937Z</time>
      </trkpt>
      <trkpt lat="46.50864" lon="8.29019">
        <ele>1623</ele>
        <time>2020-10-24T07:56:33.937Z</time>
      </trkpt>
      <trkpt lat="46.50864" lon="8.29019">
        <ele>1623</ele>
        <time>2020-10-24T07:56:34.936Z</time>
      </trkpt>
      <trkpt lat="46.50864" lon="8.2902">
        <ele>1623</ele>
        <time>2020-10-24T07:56:35.937Z</time>
      </trkpt>
      <trkpt lat="46.50864" lon="8.29021">
        <ele>1622</ele>
        <time>2020-10-24T07:56:36.936Z</time>
      </trkpt>
      <trkpt lat="46.50864" lon="8.29022">
        <ele>1621</ele>
        <time>2020-10-24T07:56:37.936Z</time>
      </trkpt>
      <trkpt lat="46.50864" lon="8.29023">
        <ele>1621</ele>
        <time>2020-10-24T07:56:38.937Z</time>
      </trkpt>
      <trkpt lat="46.50864" lon="8.29024">
        <ele>1620</ele>
        <time>2020-10-24T07:56:39.937Z</time>
      </trkpt>
      <trkpt lat="46.50864" lon="8.29025">
        <ele>1620</ele>
        <time>2020-10-24T07:56:40.937Z</time>
      </trkpt>
      <trkpt lat="46.50864" lon="8.29025">
        <ele>1620</ele>
        <time>2020-10-24T07:56:41.937Z</time>
      </trkpt>
      <trkpt lat="46.50863" lon="8.29027">
        <ele>1620</ele>
        <time>2020-10-24T07:56:42.937Z</time>
      </trkpt>
      <trkpt lat="46.50863" lon="8.29028">
        <ele>1620</ele>
        <time>2020-10-24T07:56:43.937Z</time>
      </trkpt>
      <trkpt lat="46.50863" lon="8.29029">
        <ele>1619</ele>
        <time>2020-10-24T07:56:44.936Z</time>
      </trkpt>
      <trkpt lat="46.50863" lon="8.2903">
        <ele>1619</ele>
        <time>2020-10-24T07:56:45.937Z</time>
      </trkpt>
      <trkpt lat="46.50864" lon="8.29031">
        <ele>1618</ele>
        <time>2020-10-24T07:56:46.937Z</time>
      </trkpt>
      <trkpt lat="46.50865" lon="8.29033">
        <ele>1618</ele>
        <time>2020-10-24T07:56:47.937Z</time>
      </trkpt>
      <trkpt lat="46.50865" lon="8.29034">
        <ele>1618</ele>
        <time>2020-10-24T07:56:48.937Z</time>
      </trkpt>
      <trkpt lat="46.50866" lon="8.29035">
        <ele>1618</ele>
        <time>2020-10-24T07:56:49.937Z</time>
      </trkpt>
      <trkpt lat="46.50866" lon="8.29036">
        <ele>1618</ele>
        <time>2020-10-24T07:56:50.937Z</time>
      </trkpt>
      <trkpt lat="46.50867" lon="8.29038">
        <ele>1619</ele>
        <time>2020-10-24T07:56:51.937Z</time>
      </trkpt>
      <trkpt lat="46.50867" lon="8.29039">
        <ele>1619</ele>
        <time>2020-10-24T07:56:52.937Z</time>
      </trkpt>
      <trkpt lat="46.50867" lon="8.2904">
        <ele>1619</ele>
        <time>2020-10-24T07:56:53.937Z</time>
      </trkpt>
      <trkpt lat="46.50867" lon="8.29041">
        <ele>1619</ele>
        <time>2020-10-24T07:56:54.936Z</time>
      </trkpt>
      <trkpt lat="46.50866" lon="8.29042">
        <ele>1619</ele>
        <time>2020-10-24T07:56:55.937Z</time>
      </trkpt>
      <trkpt lat="46.50866" lon="8.29043">
        <ele>1620</ele>
        <time>2020-10-24T07:56:56.937Z</time>
      </trkpt>
      <trkpt lat="46.50865" lon="8.29044">
        <ele>1620</ele>
        <time>2020-10-24T07:56:57.937Z</time>
      </trkpt>
      <trkpt lat="46.50865" lon="8.29045">
        <ele>1621</ele>
        <time>2020-10-24T07:56:58.936Z</time>
      </trkpt>
      <trkpt lat="46.50866" lon="8.29046">
        <ele>1622</ele>
        <time>2020-10-24T07:56:59.937Z</time>
      </trkpt>
      <trkpt lat="46.50866" lon="8.29048">
        <ele>1622</ele>
        <time>2020-10-24T07:57:00.937Z</time>
      </trkpt>
      <trkpt lat="46.50866" lon="8.29048">
        <ele>1623</ele>
        <time>2020-10-24T07:57:01.937Z</time>
      </trkpt>
      <trkpt lat="46.50866" lon="8.2905">
        <ele>1624</ele>
        <time>2020-10-24T07:57:02.937Z</time>
      </trkpt>
      <trkpt lat="46.50866" lon="8.29051">
        <ele>1624</ele>
        <time>2020-10-24T07:57:03.937Z</time>
      </trkpt>
      <trkpt lat="46.50866" lon="8.29053">
        <ele>1625</ele>
        <time>2020-10-24T07:57:04.937Z</time>
      </trkpt>
      <trkpt lat="46.50867" lon="8.29053">
        <ele>1626</ele>
        <time>2020-10-24T07:57:05.936Z</time>
      </trkpt>
      <trkpt lat="46.50867" lon="8.29053">
        <ele>1626</ele>
        <time>2020-10-24T07:57:06.937Z</time>
      </trkpt>
      <trkpt lat="46.50868" lon="8.29054">
        <ele>1627</ele>
        <time>2020-10-24T07:57:07.936Z</time>
      </trkpt>
      <trkpt lat="46.50868" lon="8.29055">
        <ele>1627</ele>
        <time>2020-10-24T07:57:08.937Z</time>
      </trkpt>
      <trkpt lat="46.50868" lon="8.29055">
        <ele>1627</ele>
        <time>2020-10-24T07:57:09.936Z</time>
      </trkpt>
      <trkpt lat="46.50867" lon="8.29056">
        <ele>1628</ele>
        <time>2020-10-24T07:57:10.937Z</time>
      </trkpt>
      <trkpt lat="46.50867" lon="8.29057">
        <ele>1627</ele>
        <time>2020-10-24T07:57:11.937Z</time>
      </trkpt>
      <trkpt lat="46.50868" lon="8.29057">
        <ele>1627</ele>
        <time>2020-10-24T07:57:12.937Z</time>
      </trkpt>
      <trkpt lat="46.50868" lon="8.29058">
        <ele>1627</ele>
        <time>2020-10-24T07:57:13.937Z</time>
      </trkpt>
      <trkpt lat="46.50868" lon="8.29058">
        <ele>1627</ele>
        <time>2020-10-24T07:57:14.936Z</time>
      </trkpt>
      <trkpt lat="46.50868" lon="8.29059">
        <ele>1627</ele>
        <time>2020-10-24T07:57:15.936Z</time>
      </trkpt>
      <trkpt lat="46.50869" lon="8.2906">
        <ele>1627</ele>
        <time>2020-10-24T07:57:16.937Z</time>
      </trkpt>
      <trkpt lat="46.50869" lon="8.29061">
        <ele>1627</ele>
        <time>2020-10-24T07:57:17.937Z</time>
      </trkpt>
      <trkpt lat="46.50869" lon="8.29062">
        <ele>1628</ele>
        <time>2020-10-24T07:57:18.936Z</time>
      </trkpt>
      <trkpt lat="46.50869" lon="8.29063">
        <ele>1628</ele>
        <time>2020-10-24T07:57:19.937Z</time>
      </trkpt>
      <trkpt lat="46.5087" lon="8.29064">
        <ele>1628</ele>
        <time>2020-10-24T07:57:20.936Z</time>
      </trkpt>
      <trkpt lat="46.5087" lon="8.29065">
        <ele>1628</ele>
        <time>2020-10-24T07:57:21.937Z</time>
      </trkpt>
      <trkpt lat="46.50871" lon="8.29066">
        <ele>1627</ele>
        <time>2020-10-24T07:57:22.936Z</time>
      </trkpt>
      <trkpt lat="46.50871" lon="8.29066">
        <ele>1627</ele>
        <time>2020-10-24T07:57:23.937Z</time>
      </trkpt>
      <trkpt lat="46.50871" lon="8.29067">
        <ele>1627</ele>
        <time>2020-10-24T07:57:24.937Z</time>
      </trkpt>
      <trkpt lat="46.50872" lon="8.29068">
        <ele>1626</ele>
        <time>2020-10-24T07:57:25.936Z</time>
      </trkpt>
      <trkpt lat="46.50872" lon="8.29068">
        <ele>1626</ele>
        <time>2020-10-24T07:57:26.937Z</time>
      </trkpt>
      <trkpt lat="46.50873" lon="8.29069">
        <ele>1625</ele>
        <time>2020-10-24T07:57:27.937Z</time>
      </trkpt>
      <trkpt lat="46.50873" lon="8.29069">
        <ele>1625</ele>
        <time>2020-10-24T07:57:28.937Z</time>
      </trkpt>
      <trkpt lat="46.50873" lon="8.2907">
        <ele>1623</ele>
        <time>2020-10-24T07:57:29.937Z</time>
      </trkpt>
      <trkpt lat="46.50874" lon="8.2907">
        <ele>1622</ele>
        <time>2020-10-24T07:57:30.937Z</time>
      </trkpt>
      <trkpt lat="46.50874" lon="8.29071">
        <ele>1620</ele>
        <time>2020-10-24T07:57:31.937Z</time>
      </trkpt>
      <trkpt lat="46.50874" lon="8.29071">
        <ele>1619</ele>
        <time>2020-10-24T07:57:32.937Z</time>
      </trkpt>
      <trkpt lat="46.50874" lon="8.29071">
        <ele>1617</ele>
        <time>2020-10-24T07:57:33.937Z</time>
      </trkpt>
      <trkpt lat="46.50875" lon="8.29072">
        <ele>1616</ele>
        <time>2020-10-24T07:57:34.937Z</time>
      </trkpt>
      <trkpt lat="46.50875" lon="8.29072">
        <ele>1616</ele>
        <time>2020-10-24T07:57:35.937Z</time>
      </trkpt>
      <trkpt lat="46.50875" lon="8.29074">
        <ele>1616</ele>
        <time>2020-10-24T07:57:36.937Z</time>
      </trkpt>
      <trkpt lat="46.50875" lon="8.29075">
        <ele>1616</ele>
        <time>2020-10-24T07:57:37.937Z</time>
      </trkpt>
      <trkpt lat="46.50875" lon="8.29076">
        <ele>1617</ele>
        <time>2020-10-24T07:57:38.936Z</time>
      </trkpt>
      <trkpt lat="46.50875" lon="8.29077">
        <ele>1618</ele>
        <time>2020-10-24T07:57:39.937Z</time>
      </trkpt>
      <trkpt lat="46.50875" lon="8.29079">
        <ele>1618</ele>
        <time>2020-10-24T07:57:40.937Z</time>
      </trkpt>
      <trkpt lat="46.50874" lon="8.29081">
        <ele>1619</ele>
        <time>2020-10-24T07:57:41.937Z</time>
      </trkpt>
      <trkpt lat="46.50874" lon="8.29083">
        <ele>1620</ele>
        <time>2020-10-24T07:57:42.937Z</time>
      </trkpt>
      <trkpt lat="46.50874" lon="8.29084">
        <ele>1621</ele>
        <time>2020-10-24T07:57:43.937Z</time>
      </trkpt>
      <trkpt lat="46.50875" lon="8.29085">
        <ele>1621</ele>
        <time>2020-10-24T07:57:44.937Z</time>
      </trkpt>
      <trkpt lat="46.50874" lon="8.29087">
        <ele>1621</ele>
        <time>2020-10-24T07:57:45.936Z</time>
      </trkpt>
      <trkpt lat="46.50874" lon="8.29089">
        <ele>1621</ele>
        <time>2020-10-24T07:57:46.936Z</time>
      </trkpt>
      <trkpt lat="46.50873" lon="8.29092">
        <ele>1622</ele>
        <time>2020-10-24T07:57:47.937Z</time>
      </trkpt>
      <trkpt lat="46.50872" lon="8.29096">
        <ele>1622</ele>
        <time>2020-10-24T07:57:48.937Z</time>
      </trkpt>
      <trkpt lat="46.50873" lon="8.29097">
        <ele>1623</ele>
        <time>2020-10-24T07:57:49.936Z</time>
      </trkpt>
      <trkpt lat="46.50874" lon="8.29098">
        <ele>1624</ele>
        <time>2020-10-24T07:57:50.936Z</time>
      </trkpt>
      <trkpt lat="46.50875" lon="8.29098">
        <ele>1625</ele>
        <time>2020-10-24T07:57:51.936Z</time>
      </trkpt>
      <trkpt lat="46.50876" lon="8.29099">
        <ele>1625</ele>
        <time>2020-10-24T07:57:52.936Z</time>
      </trkpt>
      <trkpt lat="46.50876" lon="8.291">
        <ele>1625</ele>
        <time>2020-10-24T07:57:53.936Z</time>
      </trkpt>
      <trkpt lat="46.50876" lon="8.29101">
        <ele>1625</ele>
        <time>2020-10-24T07:57:54.936Z</time>
      </trkpt>
      <trkpt lat="46.50876" lon="8.29103">
        <ele>1625</ele>
        <time>2020-10-24T07:57:55.937Z</time>
      </trkpt>
      <trkpt lat="46.50876" lon="8.29104">
        <ele>1626</ele>
        <time>2020-10-24T07:57:56.937Z</time>
      </trkpt>
      <trkpt lat="46.50876" lon="8.29105">
        <ele>1626</ele>
        <time>2020-10-24T07:57:57.937Z</time>
      </trkpt>
      <trkpt lat="46.50877" lon="8.29107">
        <ele>1626</ele>
        <time>2020-10-24T07:57:58.937Z</time>
      </trkpt>
      <trkpt lat="46.50877" lon="8.29109">
        <ele>1626</ele>
        <time>2020-10-24T07:57:59.937Z</time>
      </trkpt>
      <trkpt lat="46.50877" lon="8.29111">
        <ele>1626</ele>
        <time>2020-10-24T07:58:00.936Z</time>
      </trkpt>
      <trkpt lat="46.50878" lon="8.29113">
        <ele>1626</ele>
        <time>2020-10-24T07:58:01.937Z</time>
      </trkpt>
      <trkpt lat="46.50878" lon="8.29115">
        <ele>1626</ele>
        <time>2020-10-24T07:58:02.937Z</time>
      </trkpt>
      <trkpt lat="46.50879" lon="8.29118">
        <ele>1627</ele>
        <time>2020-10-24T07:58:03.937Z</time>
      </trkpt>
      <trkpt lat="46.5088" lon="8.2912">
        <ele>1627</ele>
        <time>2020-10-24T07:58:04.937Z</time>
      </trkpt>
      <trkpt lat="46.50881" lon="8.29122">
        <ele>1627</ele>
        <time>2020-10-24T07:58:05.936Z</time>
      </trkpt>
      <trkpt lat="46.50881" lon="8.29124">
        <ele>1627</ele>
        <time>2020-10-24T07:58:06.937Z</time>
      </trkpt>
      <trkpt lat="46.50882" lon="8.29126">
        <ele>1627</ele>
        <time>2020-10-24T07:58:07.936Z</time>
      </trkpt>
      <trkpt lat="46.50883" lon="8.29128">
        <ele>1627</ele>
        <time>2020-10-24T07:58:08.937Z</time>
      </trkpt>
      <trkpt lat="46.50883" lon="8.2913">
        <ele>1627</ele>
        <time>2020-10-24T07:58:09.937Z</time>
      </trkpt>
      <trkpt lat="46.50884" lon="8.29132">
        <ele>1626</ele>
        <time>2020-10-24T07:58:10.936Z</time>
      </trkpt>
      <trkpt lat="46.50885" lon="8.29134">
        <ele>1626</ele>
        <time>2020-10-24T07:58:11.937Z</time>
      </trkpt>
      <trkpt lat="46.50886" lon="8.29137">
        <ele>1626</ele>
        <time>2020-10-24T07:58:12.937Z</time>
      </trkpt>
      <trkpt lat="46.50886" lon="8.29139">
        <ele>1626</ele>
        <time>2020-10-24T07:58:13.937Z</time>
      </trkpt>
      <trkpt lat="46.50887" lon="8.29142">
        <ele>1626</ele>
        <time>2020-10-24T07:58:14.937Z</time>
      </trkpt>
      <trkpt lat="46.50888" lon="8.29144">
        <ele>1626</ele>
        <time>2020-10-24T07:58:15.937Z</time>
      </trkpt>
      <trkpt lat="46.50889" lon="8.29146">
        <ele>1625</ele>
        <time>2020-10-24T07:58:16.936Z</time>
      </trkpt>
      <trkpt lat="46.5089" lon="8.29148">
        <ele>1625</ele>
        <time>2020-10-24T07:58:17.937Z</time>
      </trkpt>
      <trkpt lat="46.50891" lon="8.29151">
        <ele>1625</ele>
        <time>2020-10-24T07:58:18.936Z</time>
      </trkpt>
      <trkpt lat="46.50892" lon="8.29153">
        <ele>1625</ele>
        <time>2020-10-24T07:58:19.937Z</time>
      </trkpt>
      <trkpt lat="46.50893" lon="8.29155">
        <ele>1625</ele>
        <time>2020-10-24T07:58:20.936Z</time>
      </trkpt>
      <trkpt lat="46.50894" lon="8.29157">
        <ele>1625</ele>
        <time>2020-10-24T07:58:21.937Z</time>
      </trkpt>
      <trkpt lat="46.50896" lon="8.29159">
        <ele>1626</ele>
        <time>2020-10-24T07:58:22.937Z</time>
      </trkpt>
      <trkpt lat="46.50897" lon="8.2916">
        <ele>1626</ele>
        <time>2020-10-24T07:58:23.936Z</time>
      </trkpt>
      <trkpt lat="46.50899" lon="8.29162">
        <ele>1626</ele>
        <time>2020-10-24T07:58:24.937Z</time>
      </trkpt>
      <trkpt lat="46.509" lon="8.29164">
        <ele>1626</ele>
        <time>2020-10-24T07:58:25.937Z</time>
      </trkpt>
      <trkpt lat="46.50902" lon="8.29166">
        <ele>1626</ele>
        <time>2020-10-24T07:58:26.937Z</time>
      </trkpt>
      <trkpt lat="46.50904" lon="8.29168">
        <ele>1627</ele>
        <time>2020-10-24T07:58:27.937Z</time>
      </trkpt>
      <trkpt lat="46.50905" lon="8.2917">
        <ele>1626</ele>
        <time>2020-10-24T07:58:28.936Z</time>
      </trkpt>
      <trkpt lat="46.50906" lon="8.29172">
        <ele>1626</ele>
        <time>2020-10-24T07:58:29.937Z</time>
      </trkpt>
      <trkpt lat="46.50906" lon="8.29175">
        <ele>1626</ele>
        <time>2020-10-24T07:58:30.937Z</time>
      </trkpt>
      <trkpt lat="46.50907" lon="8.29178">
        <ele>1626</ele>
        <time>2020-10-24T07:58:31.936Z</time>
      </trkpt>
      <trkpt lat="46.50907" lon="8.29181">
        <ele>1626</ele>
        <time>2020-10-24T07:58:32.936Z</time>
      </trkpt>
      <trkpt lat="46.50907" lon="8.29184">
        <ele>1626</ele>
        <time>2020-10-24T07:58:33.936Z</time>
      </trkpt>
      <trkpt lat="46.50908" lon="8.29187">
        <ele>1627</ele>
        <time>2020-10-24T07:58:34.937Z</time>
      </trkpt>
      <trkpt lat="46.50908" lon="8.2919">
        <ele>1626</ele>
        <time>2020-10-24T07:58:35.936Z</time>
      </trkpt>
      <trkpt lat="46.50909" lon="8.29193">
        <ele>1626</ele>
        <time>2020-10-24T07:58:36.936Z</time>
      </trkpt>
      <trkpt lat="46.5091" lon="8.29195">
        <ele>1625</ele>
        <time>2020-10-24T07:58:37.936Z</time>
      </trkpt>
      <trkpt lat="46.50912" lon="8.29197">
        <ele>1625</ele>
        <time>2020-10-24T07:58:38.937Z</time>
      </trkpt>
      <trkpt lat="46.50913" lon="8.292">
        <ele>1624</ele>
        <time>2020-10-24T07:58:39.937Z</time>
      </trkpt>
      <trkpt lat="46.50915" lon="8.29202">
        <ele>1624</ele>
        <time>2020-10-24T07:58:40.936Z</time>
      </trkpt>
      <trkpt lat="46.50917" lon="8.29203">
        <ele>1623</ele>
        <time>2020-10-24T07:58:41.936Z</time>
      </trkpt>
      <trkpt lat="46.50919" lon="8.29205">
        <ele>1623</ele>
        <time>2020-10-24T07:58:42.937Z</time>
      </trkpt>
      <trkpt lat="46.5092" lon="8.29206">
        <ele>1622</ele>
        <time>2020-10-24T07:58:43.937Z</time>
      </trkpt>
      <trkpt lat="46.50922" lon="8.29208">
        <ele>1622</ele>
        <time>2020-10-24T07:58:44.937Z</time>
      </trkpt>
      <trkpt lat="46.50924" lon="8.2921">
        <ele>1622</ele>
        <time>2020-10-24T07:58:45.937Z</time>
      </trkpt>
      <trkpt lat="46.50926" lon="8.29211">
        <ele>1622</ele>
        <time>2020-10-24T07:58:46.937Z</time>
      </trkpt>
      <trkpt lat="46.50928" lon="8.29214">
        <ele>1622</ele>
        <time>2020-10-24T07:58:47.936Z</time>
      </trkpt>
      <trkpt lat="46.50929" lon="8.29216">
        <ele>1622</ele>
        <time>2020-10-24T07:58:48.937Z</time>
      </trkpt>
      <trkpt lat="46.5093" lon="8.29219">
        <ele>1621</ele>
        <time>2020-10-24T07:58:49.937Z</time>
      </trkpt>
      <trkpt lat="46.50931" lon="8.29222">
        <ele>1621</ele>
        <time>2020-10-24T07:58:50.937Z</time>
      </trkpt>
      <trkpt lat="46.50931" lon="8.29225">
        <ele>1620</ele>
        <time>2020-10-24T07:58:51.937Z</time>
      </trkpt>
      <trkpt lat="46.50931" lon="8.29229">
        <ele>1620</ele>
        <time>2020-10-24T07:58:52.936Z</time>
      </trkpt>
      <trkpt lat="46.50931" lon="8.29232">
        <ele>1620</ele>
        <time>2020-10-24T07:58:53.936Z</time>
      </trkpt>
      <trkpt lat="46.5093" lon="8.29235">
        <ele>1620</ele>
        <time>2020-10-24T07:58:54.937Z</time>
      </trkpt>
      <trkpt lat="46.5093" lon="8.29239">
        <ele>1620</ele>
        <time>2020-10-24T07:58:55.937Z</time>
      </trkpt>
      <trkpt lat="46.50931" lon="8.29242">
        <ele>1620</ele>
        <time>2020-10-24T07:58:56.936Z</time>
      </trkpt>
      <trkpt lat="46.50931" lon="8.29245">
        <ele>1620</ele>
        <time>2020-10-24T07:58:57.937Z</time>
      </trkpt>
      <trkpt lat="46.50932" lon="8.29249">
        <ele>1620</ele>
        <time>2020-10-24T07:58:58.936Z</time>
      </trkpt>
      <trkpt lat="46.50932" lon="8.29252">
        <ele>1620</ele>
        <time>2020-10-24T07:58:59.937Z</time>
      </trkpt>
      <trkpt lat="46.50933" lon="8.29256">
        <ele>1620</ele>
        <time>2020-10-24T07:59:00.936Z</time>
      </trkpt>
      <trkpt lat="46.50934" lon="8.2926">
        <ele>1620</ele>
        <time>2020-10-24T07:59:01.936Z</time>
      </trkpt>
      <trkpt lat="46.50934" lon="8.29262">
        <ele>1620</ele>
        <time>2020-10-24T07:59:02.937Z</time>
      </trkpt>
      <trkpt lat="46.50934" lon="8.29265">
        <ele>1620</ele>
        <time>2020-10-24T07:59:03.937Z</time>
      </trkpt>
      <trkpt lat="46.50934" lon="8.29268">
        <ele>1620</ele>
        <time>2020-10-24T07:59:04.936Z</time>
      </trkpt>
      <trkpt lat="46.50934" lon="8.29272">
        <ele>1620</ele>
        <time>2020-10-24T07:59:05.937Z</time>
      </trkpt>
      <trkpt lat="46.50933" lon="8.29275">
        <ele>1620</ele>
        <time>2020-10-24T07:59:06.937Z</time>
      </trkpt>
      <trkpt lat="46.50933" lon="8.29279">
        <ele>1620</ele>
        <time>2020-10-24T07:59:07.936Z</time>
      </trkpt>
      <trkpt lat="46.50933" lon="8.29282">
        <ele>1620</ele>
        <time>2020-10-24T07:59:08.936Z</time>
      </trkpt>
      <trkpt lat="46.50933" lon="8.29285">
        <ele>1620</ele>
        <time>2020-10-24T07:59:09.936Z</time>
      </trkpt>
      <trkpt lat="46.50933" lon="8.29288">
        <ele>1619</ele>
        <time>2020-10-24T07:59:10.936Z</time>
      </trkpt>
      <trkpt lat="46.50934" lon="8.29292">
        <ele>1619</ele>
        <time>2020-10-24T07:59:11.937Z</time>
      </trkpt>
      <trkpt lat="46.50934" lon="8.29296">
        <ele>1619</ele>
        <time>2020-10-24T07:59:12.937Z</time>
      </trkpt>
      <trkpt lat="46.50934" lon="8.293">
        <ele>1619</ele>
        <time>2020-10-24T07:59:13.937Z</time>
      </trkpt>
      <trkpt lat="46.50935" lon="8.29303">
        <ele>1618</ele>
        <time>2020-10-24T07:59:14.936Z</time>
      </trkpt>
      <trkpt lat="46.50935" lon="8.29306">
        <ele>1617</ele>
        <time>2020-10-24T07:59:15.937Z</time>
      </trkpt>
      <trkpt lat="46.50935" lon="8.29309">
        <ele>1617</ele>
        <time>2020-10-24T07:59:16.937Z</time>
      </trkpt>
      <trkpt lat="46.50936" lon="8.29312">
        <ele>1616</ele>
        <time>2020-10-24T07:59:17.937Z</time>
      </trkpt>
      <trkpt lat="46.50936" lon="8.29316">
        <ele>1616</ele>
        <time>2020-10-24T07:59:18.937Z</time>
      </trkpt>
      <trkpt lat="46.50936" lon="8.2932">
        <ele>1615</ele>
        <time>2020-10-24T07:59:19.937Z</time>
      </trkpt>
      <trkpt lat="46.50937" lon="8.29323">
        <ele>1615</ele>
        <time>2020-10-24T07:59:20.937Z</time>
      </trkpt>
      <trkpt lat="46.50937" lon="8.29327">
        <ele>1614</ele>
        <time>2020-10-24T07:59:21.937Z</time>
      </trkpt>
      <trkpt lat="46.50938" lon="8.2933">
        <ele>1614</ele>
        <time>2020-10-24T07:59:22.936Z</time>
      </trkpt>
      <trkpt lat="46.50938" lon="8.29333">
        <ele>1614</ele>
        <time>2020-10-24T07:59:23.937Z</time>
      </trkpt>
      <trkpt lat="46.50939" lon="8.29336">
        <ele>1614</ele>
        <time>2020-10-24T07:59:24.936Z</time>
      </trkpt>
      <trkpt lat="46.50939" lon="8.29339">
        <ele>1614</ele>
        <time>2020-10-24T07:59:25.936Z</time>
      </trkpt>
      <trkpt lat="46.5094" lon="8.29342">
        <ele>1613</ele>
        <time>2020-10-24T07:59:26.937Z</time>
      </trkpt>
      <trkpt lat="46.50941" lon="8.29346">
        <ele>1612</ele>
        <time>2020-10-24T07:59:27.937Z</time>
      </trkpt>
      <trkpt lat="46.50942" lon="8.29349">
        <ele>1611</ele>
        <time>2020-10-24T07:59:28.937Z</time>
      </trkpt>
      <trkpt lat="46.50943" lon="8.29353">
        <ele>1610</ele>
        <time>2020-10-24T07:59:29.936Z</time>
      </trkpt>
      <trkpt lat="46.50943" lon="8.29356">
        <ele>1610</ele>
        <time>2020-10-24T07:59:30.937Z</time>
      </trkpt>
      <trkpt lat="46.50944" lon="8.2936">
        <ele>1609</ele>
        <time>2020-10-24T07:59:31.937Z</time>
      </trkpt>
      <trkpt lat="46.50944" lon="8.29363">
        <ele>1609</ele>
        <time>2020-10-24T07:59:32.937Z</time>
      </trkpt>
      <trkpt lat="46.50945" lon="8.29367">
        <ele>1608</ele>
        <time>2020-10-24T07:59:33.937Z</time>
      </trkpt>
      <trkpt lat="46.50946" lon="8.2937">
        <ele>1608</ele>
        <time>2020-10-24T07:59:34.937Z</time>
      </trkpt>
      <trkpt lat="46.50946" lon="8.29374">
        <ele>1608</ele>
        <time>2020-10-24T07:59:35.937Z</time>
      </trkpt>
      <trkpt lat="46.50947" lon="8.29378">
        <ele>1608</ele>
        <time>2020-10-24T07:59:36.937Z</time>
      </trkpt>
      <trkpt lat="46.50947" lon="8.29382">
        <ele>1608</ele>
        <time>2020-10-24T07:59:37.936Z</time>
      </trkpt>
      <trkpt lat="46.50947" lon="8.29386">
        <ele>1608</ele>
        <time>2020-10-24T07:59:38.937Z</time>
      </trkpt>
      <trkpt lat="46.50948" lon="8.2939">
        <ele>1607</ele>
        <time>2020-10-24T07:59:39.937Z</time>
      </trkpt>
      <trkpt lat="46.50949" lon="8.29394">
        <ele>1607</ele>
        <time>2020-10-24T07:59:40.936Z</time>
      </trkpt>
      <trkpt lat="46.5095" lon="8.29397">
        <ele>1607</ele>
        <time>2020-10-24T07:59:41.937Z</time>
      </trkpt>
      <trkpt lat="46.5095" lon="8.294">
        <ele>1607</ele>
        <time>2020-10-24T07:59:42.937Z</time>
      </trkpt>
      <trkpt lat="46.50951" lon="8.29404">
        <ele>1607</ele>
        <time>2020-10-24T07:59:43.936Z</time>
      </trkpt>
      <trkpt lat="46.50952" lon="8.29408">
        <ele>1606</ele>
        <time>2020-10-24T07:59:44.936Z</time>
      </trkpt>
      <trkpt lat="46.50953" lon="8.29412">
        <ele>1606</ele>
        <time>2020-10-24T07:59:45.937Z</time>
      </trkpt>
      <trkpt lat="46.50954" lon="8.29416">
        <ele>1605</ele>
        <time>2020-10-24T07:59:46.937Z</time>
      </trkpt>
      <trkpt lat="46.50955" lon="8.29419">
        <ele>1604</ele>
        <time>2020-10-24T07:59:47.937Z</time>
      </trkpt>
      <trkpt lat="46.50956" lon="8.29424">
        <ele>1604</ele>
        <time>2020-10-24T07:59:48.937Z</time>
      </trkpt>
      <trkpt lat="46.50957" lon="8.29428">
        <ele>1603</ele>
        <time>2020-10-24T07:59:49.937Z</time>
      </trkpt>
      <trkpt lat="46.50957" lon="8.29432">
        <ele>1602</ele>
        <time>2020-10-24T07:59:50.937Z</time>
      </trkpt>
      <trkpt lat="46.50958" lon="8.29436">
        <ele>1601</ele>
        <time>2020-10-24T07:59:51.936Z</time>
      </trkpt>
      <trkpt lat="46.50958" lon="8.29439">
        <ele>1600</ele>
        <time>2020-10-24T07:59:52.937Z</time>
      </trkpt>
      <trkpt lat="46.50959" lon="8.29443">
        <ele>1600</ele>
        <time>2020-10-24T07:59:53.937Z</time>
      </trkpt>
      <trkpt lat="46.50959" lon="8.29447">
        <ele>1599</ele>
        <time>2020-10-24T07:59:54.937Z</time>
      </trkpt>
      <trkpt lat="46.50959" lon="8.2945">
        <ele>1599</ele>
        <time>2020-10-24T07:59:55.936Z</time>
      </trkpt>
      <trkpt lat="46.50959" lon="8.29455">
        <ele>1599</ele>
        <time>2020-10-24T07:59:56.936Z</time>
      </trkpt>
      <trkpt lat="46.50959" lon="8.29458">
        <ele>1599</ele>
        <time>2020-10-24T07:59:57.936Z</time>
      </trkpt>
      <trkpt lat="46.5096" lon="8.29461">
        <ele>1599</ele>
        <time>2020-10-24T07:59:58.937Z</time>
      </trkpt>
      <trkpt lat="46.50961" lon="8.29466">
        <ele>1599</ele>
        <time>2020-10-24T07:59:59.937Z</time>
      </trkpt>
      <trkpt lat="46.50962" lon="8.29469">
        <ele>1599</ele>
        <time>2020-10-24T08:00:00.937Z</time>
      </trkpt>
      <trkpt lat="46.50963" lon="8.29472">
        <ele>1599</ele>
        <time>2020-10-24T08:00:01.937Z</time>
      </trkpt>
      <trkpt lat="46.50964" lon="8.29476">
        <ele>1599</ele>
        <time>2020-10-24T08:00:02.936Z</time>
      </trkpt>
      <trkpt lat="46.50965" lon="8.29479">
        <ele>1599</ele>
        <time>2020-10-24T08:00:03.937Z</time>
      </trkpt>
      <trkpt lat="46.50967" lon="8.29483">
        <ele>1599</ele>
        <time>2020-10-24T08:00:04.936Z</time>
      </trkpt>
      <trkpt lat="46.50968" lon="8.29486">
        <ele>1599</ele>
        <time>2020-10-24T08:00:05.936Z</time>
      </trkpt>
      <trkpt lat="46.50969" lon="8.2949">
        <ele>1599</ele>
        <time>2020-10-24T08:00:06.936Z</time>
      </trkpt>
      <trkpt lat="46.5097" lon="8.29493">
        <ele>1599</ele>
        <time>2020-10-24T08:00:07.936Z</time>
      </trkpt>
      <trkpt lat="46.50971" lon="8.29497">
        <ele>1599</ele>
        <time>2020-10-24T08:00:08.936Z</time>
      </trkpt>
      <trkpt lat="46.50971" lon="8.29501">
        <ele>1599</ele>
        <time>2020-10-24T08:00:09.936Z</time>
      </trkpt>
      <trkpt lat="46.50972" lon="8.29505">
        <ele>1598</ele>
        <time>2020-10-24T08:00:10.936Z</time>
      </trkpt>
      <trkpt lat="46.50972" lon="8.29509">
        <ele>1597</ele>
        <time>2020-10-24T08:00:11.936Z</time>
      </trkpt>
      <trkpt lat="46.50973" lon="8.29513">
        <ele>1597</ele>
        <time>2020-10-24T08:00:12.937Z</time>
      </trkpt>
      <trkpt lat="46.50973" lon="8.29518">
        <ele>1596</ele>
        <time>2020-10-24T08:00:13.937Z</time>
      </trkpt>
      <trkpt lat="46.50974" lon="8.29522">
        <ele>1596</ele>
        <time>2020-10-24T08:00:14.937Z</time>
      </trkpt>
      <trkpt lat="46.50975" lon="8.29526">
        <ele>1596</ele>
        <time>2020-10-24T08:00:15.937Z</time>
      </trkpt>
      <trkpt lat="46.50977" lon="8.29531">
        <ele>1596</ele>
        <time>2020-10-24T08:00:16.936Z</time>
      </trkpt>
      <trkpt lat="46.50978" lon="8.29535">
        <ele>1596</ele>
        <time>2020-10-24T08:00:17.937Z</time>
      </trkpt>
      <trkpt lat="46.5098" lon="8.29538">
        <ele>1596</ele>
        <time>2020-10-24T08:00:18.936Z</time>
      </trkpt>
      <trkpt lat="46.50982" lon="8.29542">
        <ele>1595</ele>
        <time>2020-10-24T08:00:19.936Z</time>
      </trkpt>
      <trkpt lat="46.50983" lon="8.29545">
        <ele>1595</ele>
        <time>2020-10-24T08:00:20.937Z</time>
      </trkpt>
      <trkpt lat="46.50983" lon="8.2955">
        <ele>1594</ele>
        <time>2020-10-24T08:00:21.937Z</time>
      </trkpt>
      <trkpt lat="46.50984" lon="8.29554">
        <ele>1594</ele>
        <time>2020-10-24T08:00:22.937Z</time>
      </trkpt>
      <trkpt lat="46.50986" lon="8.29558">
        <ele>1594</ele>
        <time>2020-10-24T08:00:23.936Z</time>
      </trkpt>
      <trkpt lat="46.50986" lon="8.29562">
        <ele>1593</ele>
        <time>2020-10-24T08:00:24.937Z</time>
      </trkpt>
      <trkpt lat="46.50987" lon="8.29567">
        <ele>1593</ele>
        <time>2020-10-24T08:00:25.936Z</time>
      </trkpt>
      <trkpt lat="46.50988" lon="8.29571">
        <ele>1593</ele>
        <time>2020-10-24T08:00:26.937Z</time>
      </trkpt>
      <trkpt lat="46.50989" lon="8.29574">
        <ele>1592</ele>
        <time>2020-10-24T08:00:27.937Z</time>
      </trkpt>
      <trkpt lat="46.5099" lon="8.29577">
        <ele>1591</ele>
        <time>2020-10-24T08:00:28.937Z</time>
      </trkpt>
      <trkpt lat="46.50991" lon="8.29581">
        <ele>1590</ele>
        <time>2020-10-24T08:00:29.937Z</time>
      </trkpt>
      <trkpt lat="46.50992" lon="8.29585">
        <ele>1589</ele>
        <time>2020-10-24T08:00:30.936Z</time>
      </trkpt>
      <trkpt lat="46.50993" lon="8.2959">
        <ele>1589</ele>
        <time>2020-10-24T08:00:31.936Z</time>
      </trkpt>
      <trkpt lat="46.50994" lon="8.29594">
        <ele>1588</ele>
        <time>2020-10-24T08:00:32.937Z</time>
      </trkpt>
      <trkpt lat="46.50996" lon="8.29598">
        <ele>1588</ele>
        <time>2020-10-24T08:00:33.937Z</time>
      </trkpt>
      <trkpt lat="46.50997" lon="8.29602">
        <ele>1587</ele>
        <time>2020-10-24T08:00:34.937Z</time>
      </trkpt>
      <trkpt lat="46.50998" lon="8.29606">
        <ele>1586</ele>
        <time>2020-10-24T08:00:35.937Z</time>
      </trkpt>
      <trkpt lat="46.50999" lon="8.2961">
        <ele>1586</ele>
        <time>2020-10-24T08:00:36.937Z</time>
      </trkpt>
      <trkpt lat="46.50999" lon="8.29613">
        <ele>1586</ele>
        <time>2020-10-24T08:00:37.936Z</time>
      </trkpt>
      <trkpt lat="46.50998" lon="8.29617">
        <ele>1586</ele>
        <time>2020-10-24T08:00:38.937Z</time>
      </trkpt>
      <trkpt lat="46.50998" lon="8.29622">
        <ele>1587</ele>
        <time>2020-10-24T08:00:39.936Z</time>
      </trkpt>
      <trkpt lat="46.50997" lon="8.29627">
        <ele>1588</ele>
        <time>2020-10-24T08:00:40.937Z</time>
      </trkpt>
      <trkpt lat="46.50997" lon="8.29632">
        <ele>1587</ele>
        <time>2020-10-24T08:00:41.936Z</time>
      </trkpt>
      <trkpt lat="46.50997" lon="8.29636">
        <ele>1588</ele>
        <time>2020-10-24T08:00:42.937Z</time>
      </trkpt>
      <trkpt lat="46.50997" lon="8.29641">
        <ele>1587</ele>
        <time>2020-10-24T08:00:43.936Z</time>
      </trkpt>
      <trkpt lat="46.50998" lon="8.29646">
        <ele>1587</ele>
        <time>2020-10-24T08:00:44.937Z</time>
      </trkpt>
      <trkpt lat="46.50998" lon="8.29651">
        <ele>1587</ele>
        <time>2020-10-24T08:00:45.937Z</time>
      </trkpt>
      <trkpt lat="46.50998" lon="8.29656">
        <ele>1587</ele>
        <time>2020-10-24T08:00:46.936Z</time>
      </trkpt>
      <trkpt lat="46.50999" lon="8.2966">
        <ele>1586</ele>
        <time>2020-10-24T08:00:47.937Z</time>
      </trkpt>
      <trkpt lat="46.51" lon="8.29665">
        <ele>1586</ele>
        <time>2020-10-24T08:00:48.937Z</time>
      </trkpt>
      <trkpt lat="46.51002" lon="8.29669">
        <ele>1586</ele>
        <time>2020-10-24T08:00:49.936Z</time>
      </trkpt>
      <trkpt lat="46.51004" lon="8.29672">
        <ele>1585</ele>
        <time>2020-10-24T08:00:50.936Z</time>
      </trkpt>
      <trkpt lat="46.51006" lon="8.29676">
        <ele>1585</ele>
        <time>2020-10-24T08:00:51.936Z</time>
      </trkpt>
      <trkpt lat="46.51008" lon="8.29678">
        <ele>1585</ele>
        <time>2020-10-24T08:00:52.937Z</time>
      </trkpt>
      <trkpt lat="46.51011" lon="8.29681">
        <ele>1585</ele>
        <time>2020-10-24T08:00:53.936Z</time>
      </trkpt>
      <trkpt lat="46.51014" lon="8.29684">
        <ele>1585</ele>
        <time>2020-10-24T08:00:54.936Z</time>
      </trkpt>
      <trkpt lat="46.51015" lon="8.29687">
        <ele>1584</ele>
        <time>2020-10-24T08:00:55.936Z</time>
      </trkpt>
      <trkpt lat="46.51017" lon="8.2969">
        <ele>1584</ele>
        <time>2020-10-24T08:00:56.936Z</time>
      </trkpt>
      <trkpt lat="46.51018" lon="8.29695">
        <ele>1584</ele>
        <time>2020-10-24T08:00:57.937Z</time>
      </trkpt>
      <trkpt lat="46.51018" lon="8.297">
        <ele>1584</ele>
        <time>2020-10-24T08:00:58.937Z</time>
      </trkpt>
      <trkpt lat="46.51017" lon="8.29705">
        <ele>1584</ele>
        <time>2020-10-24T08:00:59.936Z</time>
      </trkpt>
      <trkpt lat="46.51018" lon="8.29709">
        <ele>1584</ele>
        <time>2020-10-24T08:01:00.936Z</time>
      </trkpt>
      <trkpt lat="46.51018" lon="8.29714">
        <ele>1584</ele>
        <time>2020-10-24T08:01:01.936Z</time>
      </trkpt>
      <trkpt lat="46.51018" lon="8.29719">
        <ele>1583</ele>
        <time>2020-10-24T08:01:02.936Z</time>
      </trkpt>
      <trkpt lat="46.5102" lon="8.29723">
        <ele>1582</ele>
        <time>2020-10-24T08:01:03.936Z</time>
      </trkpt>
      <trkpt lat="46.51021" lon="8.29727">
        <ele>1581</ele>
        <time>2020-10-24T08:01:04.936Z</time>
      </trkpt>
      <trkpt lat="46.51023" lon="8.29731">
        <ele>1581</ele>
        <time>2020-10-24T08:01:05.936Z</time>
      </trkpt>
      <trkpt lat="46.51024" lon="8.29736">
        <ele>1580</ele>
        <time>2020-10-24T08:01:06.936Z</time>
      </trkpt>
      <trkpt lat="46.51026" lon="8.29742">
        <ele>1579</ele>
        <time>2020-10-24T08:01:07.936Z</time>
      </trkpt>
      <trkpt lat="46.51028" lon="8.29746">
        <ele>1579</ele>
        <time>2020-10-24T08:01:08.937Z</time>
      </trkpt>
      <trkpt lat="46.51029" lon="8.29749">
        <ele>1578</ele>
        <time>2020-10-24T08:01:09.936Z</time>
      </trkpt>
      <trkpt lat="46.5103" lon="8.29754">
        <ele>1577</ele>
        <time>2020-10-24T08:01:10.936Z</time>
      </trkpt>
      <trkpt lat="46.51031" lon="8.29758">
        <ele>1577</ele>
        <time>2020-10-24T08:01:11.936Z</time>
      </trkpt>
      <trkpt lat="46.51033" lon="8.29763">
        <ele>1576</ele>
        <time>2020-10-24T08:01:12.936Z</time>
      </trkpt>
      <trkpt lat="46.51034" lon="8.29767">
        <ele>1575</ele>
        <time>2020-10-24T08:01:13.936Z</time>
      </trkpt>
      <trkpt lat="46.51035" lon="8.29771">
        <ele>1575</ele>
        <time>2020-10-24T08:01:14.936Z</time>
      </trkpt>
      <trkpt lat="46.51037" lon="8.29776">
        <ele>1574</ele>
        <time>2020-10-24T08:01:15.936Z</time>
      </trkpt>
      <trkpt lat="46.51038" lon="8.2978">
        <ele>1574</ele>
        <time>2020-10-24T08:01:16.936Z</time>
      </trkpt>
      <trkpt lat="46.51039" lon="8.29784">
        <ele>1573</ele>
        <time>2020-10-24T08:01:17.936Z</time>
      </trkpt>
      <trkpt lat="46.5104" lon="8.29788">
        <ele>1573</ele>
        <time>2020-10-24T08:01:18.936Z</time>
      </trkpt>
      <trkpt lat="46.51042" lon="8.29792">
        <ele>1573</ele>
        <time>2020-10-24T08:01:19.936Z</time>
      </trkpt>
      <trkpt lat="46.51043" lon="8.29797">
        <ele>1573</ele>
        <time>2020-10-24T08:01:20.936Z</time>
      </trkpt>
      <trkpt lat="46.51043" lon="8.29802">
        <ele>1573</ele>
        <time>2020-10-24T08:01:21.936Z</time>
      </trkpt>
      <trkpt lat="46.51044" lon="8.29806">
        <ele>1573</ele>
        <time>2020-10-24T08:01:22.937Z</time>
      </trkpt>
      <trkpt lat="46.51044" lon="8.29812">
        <ele>1573</ele>
        <time>2020-10-24T08:01:23.936Z</time>
      </trkpt>
      <trkpt lat="46.51044" lon="8.29815">
        <ele>1573</ele>
        <time>2020-10-24T08:01:24.937Z</time>
      </trkpt>
      <trkpt lat="46.51045" lon="8.29819">
        <ele>1574</ele>
        <time>2020-10-24T08:01:25.936Z</time>
      </trkpt>
      <trkpt lat="46.51046" lon="8.29823">
        <ele>1573</ele>
        <time>2020-10-24T08:01:26.937Z</time>
      </trkpt>
      <trkpt lat="46.51047" lon="8.29827">
        <ele>1573</ele>
        <time>2020-10-24T08:01:27.937Z</time>
      </trkpt>
      <trkpt lat="46.51047" lon="8.29831">
        <ele>1573</ele>
        <time>2020-10-24T08:01:28.937Z</time>
      </trkpt>
      <trkpt lat="46.51048" lon="8.29836">
        <ele>1573</ele>
        <time>2020-10-24T08:01:29.937Z</time>
      </trkpt>
      <trkpt lat="46.5105" lon="8.2984">
        <ele>1573</ele>
        <time>2020-10-24T08:01:30.937Z</time>
      </trkpt>
      <trkpt lat="46.51051" lon="8.29844">
        <ele>1573</ele>
        <time>2020-10-24T08:01:31.936Z</time>
      </trkpt>
      <trkpt lat="46.51053" lon="8.29848">
        <ele>1573</ele>
        <time>2020-10-24T08:01:32.937Z</time>
      </trkpt>
      <trkpt lat="46.51054" lon="8.29852">
        <ele>1573</ele>
        <time>2020-10-24T08:01:33.936Z</time>
      </trkpt>
      <trkpt lat="46.51055" lon="8.29857">
        <ele>1572</ele>
        <time>2020-10-24T08:01:34.936Z</time>
      </trkpt>
      <trkpt lat="46.51056" lon="8.29861">
        <ele>1571</ele>
        <time>2020-10-24T08:01:35.937Z</time>
      </trkpt>
      <trkpt lat="46.51057" lon="8.29866">
        <ele>1570</ele>
        <time>2020-10-24T08:01:36.936Z</time>
      </trkpt>
      <trkpt lat="46.51058" lon="8.29871">
        <ele>1569</ele>
        <time>2020-10-24T08:01:37.937Z</time>
      </trkpt>
      <trkpt lat="46.51058" lon="8.29875">
        <ele>1569</ele>
        <time>2020-10-24T08:01:38.937Z</time>
      </trkpt>
      <trkpt lat="46.51058" lon="8.29879">
        <ele>1568</ele>
        <time>2020-10-24T08:01:39.937Z</time>
      </trkpt>
      <trkpt lat="46.51058" lon="8.29882">
        <ele>1568</ele>
        <time>2020-10-24T08:01:40.937Z</time>
      </trkpt>
      <trkpt lat="46.51057" lon="8.29885">
        <ele>1568</ele>
        <time>2020-10-24T08:01:41.937Z</time>
      </trkpt>
      <trkpt lat="46.51055" lon="8.29889">
        <ele>1568</ele>
        <time>2020-10-24T08:01:42.937Z</time>
      </trkpt>
      <trkpt lat="46.51054" lon="8.29891">
        <ele>1568</ele>
        <time>2020-10-24T08:01:43.937Z</time>
      </trkpt>
      <trkpt lat="46.51052" lon="8.29893">
        <ele>1567</ele>
        <time>2020-10-24T08:01:44.937Z</time>
      </trkpt>
      <trkpt lat="46.5105" lon="8.29894">
        <ele>1567</ele>
        <time>2020-10-24T08:01:45.937Z</time>
      </trkpt>
      <trkpt lat="46.51048" lon="8.29895">
        <ele>1567</ele>
        <time>2020-10-24T08:01:46.937Z</time>
      </trkpt>
      <trkpt lat="46.51045" lon="8.29895">
        <ele>1567</ele>
        <time>2020-10-24T08:01:47.937Z</time>
      </trkpt>
      <trkpt lat="46.51041" lon="8.29896">
        <ele>1567</ele>
        <time>2020-10-24T08:01:48.936Z</time>
      </trkpt>
      <trkpt lat="46.51037" lon="8.29894">
        <ele>1567</ele>
        <time>2020-10-24T08:01:49.936Z</time>
      </trkpt>
      <trkpt lat="46.51033" lon="8.29893">
        <ele>1566</ele>
        <time>2020-10-24T08:01:50.936Z</time>
      </trkpt>
      <trkpt lat="46.51028" lon="8.29892">
        <ele>1567</ele>
        <time>2020-10-24T08:01:51.937Z</time>
      </trkpt>
      <trkpt lat="46.51024" lon="8.29891">
        <ele>1567</ele>
        <time>2020-10-24T08:01:52.936Z</time>
      </trkpt>
      <trkpt lat="46.51021" lon="8.29889">
        <ele>1567</ele>
        <time>2020-10-24T08:01:53.937Z</time>
      </trkpt>
      <trkpt lat="46.51017" lon="8.29888">
        <ele>1567</ele>
        <time>2020-10-24T08:01:54.936Z</time>
      </trkpt>
      <trkpt lat="46.51013" lon="8.29887">
        <ele>1567</ele>
        <time>2020-10-24T08:01:55.937Z</time>
      </trkpt>
      <trkpt lat="46.5101" lon="8.29886">
        <ele>1567</ele>
        <time>2020-10-24T08:01:56.937Z</time>
      </trkpt>
      <trkpt lat="46.51008" lon="8.29886">
        <ele>1567</ele>
        <time>2020-10-24T08:01:57.937Z</time>
      </trkpt>
      <trkpt lat="46.51004" lon="8.29884">
        <ele>1567</ele>
        <time>2020-10-24T08:01:58.937Z</time>
      </trkpt>
      <trkpt lat="46.51002" lon="8.29882">
        <ele>1566</ele>
        <time>2020-10-24T08:01:59.937Z</time>
      </trkpt>
      <trkpt lat="46.51" lon="8.2988">
        <ele>1566</ele>
        <time>2020-10-24T08:02:00.936Z</time>
      </trkpt>
      <trkpt lat="46.50997" lon="8.29878">
        <ele>1565</ele>
        <time>2020-10-24T08:02:01.936Z</time>
      </trkpt>
      <trkpt lat="46.50995" lon="8.29877">
        <ele>1563</ele>
        <time>2020-10-24T08:02:02.937Z</time>
      </trkpt>
      <trkpt lat="46.50992" lon="8.29876">
        <ele>1561</ele>
        <time>2020-10-24T08:02:03.937Z</time>
      </trkpt>
      <trkpt lat="46.50989" lon="8.29875">
        <ele>1560</ele>
        <time>2020-10-24T08:02:04.937Z</time>
      </trkpt>
      <trkpt lat="46.50986" lon="8.29875">
        <ele>1559</ele>
        <time>2020-10-24T08:02:05.937Z</time>
      </trkpt>
      <trkpt lat="46.50982" lon="8.29875">
        <ele>1558</ele>
        <time>2020-10-24T08:02:06.937Z</time>
      </trkpt>
      <trkpt lat="46.50978" lon="8.29875">
        <ele>1557</ele>
        <time>2020-10-24T08:02:07.936Z</time>
      </trkpt>
      <trkpt lat="46.50976" lon="8.29876">
        <ele>1556</ele>
        <time>2020-10-24T08:02:08.937Z</time>
      </trkpt>
      <trkpt lat="46.50972" lon="8.29877">
        <ele>1556</ele>
        <time>2020-10-24T08:02:09.937Z</time>
      </trkpt>
      <trkpt lat="46.50969" lon="8.29879">
        <ele>1555</ele>
        <time>2020-10-24T08:02:10.937Z</time>
      </trkpt>
      <trkpt lat="46.50967" lon="8.29881">
        <ele>1555</ele>
        <time>2020-10-24T08:02:11.937Z</time>
      </trkpt>
      <trkpt lat="46.50964" lon="8.29883">
        <ele>1555</ele>
        <time>2020-10-24T08:02:12.937Z</time>
      </trkpt>
      <trkpt lat="46.50962" lon="8.29886">
        <ele>1554</ele>
        <time>2020-10-24T08:02:13.937Z</time>
      </trkpt>
      <trkpt lat="46.5096" lon="8.29891">
        <ele>1554</ele>
        <time>2020-10-24T08:02:14.937Z</time>
      </trkpt>
      <trkpt lat="46.5096" lon="8.29895">
        <ele>1553</ele>
        <time>2020-10-24T08:02:15.937Z</time>
      </trkpt>
      <trkpt lat="46.50959" lon="8.29899">
        <ele>1553</ele>
        <time>2020-10-24T08:02:16.937Z</time>
      </trkpt>
      <trkpt lat="46.5096" lon="8.29903">
        <ele>1552</ele>
        <time>2020-10-24T08:02:17.937Z</time>
      </trkpt>
      <trkpt lat="46.5096" lon="8.29908">
        <ele>1552</ele>
        <time>2020-10-24T08:02:18.937Z</time>
      </trkpt>
      <trkpt lat="46.50962" lon="8.29913">
        <ele>1552</ele>
        <time>2020-10-24T08:02:19.937Z</time>
      </trkpt>
      <trkpt lat="46.50963" lon="8.29917">
        <ele>1551</ele>
        <time>2020-10-24T08:02:20.936Z</time>
      </trkpt>
      <trkpt lat="46.50965" lon="8.2992">
        <ele>1551</ele>
        <time>2020-10-24T08:02:21.937Z</time>
      </trkpt>
      <trkpt lat="46.50967" lon="8.29924">
        <ele>1551</ele>
        <time>2020-10-24T08:02:22.936Z</time>
      </trkpt>
      <trkpt lat="46.50969" lon="8.29928">
        <ele>1550</ele>
        <time>2020-10-24T08:02:23.937Z</time>
      </trkpt>
      <trkpt lat="46.50971" lon="8.29932">
        <ele>1550</ele>
        <time>2020-10-24T08:02:24.936Z</time>
      </trkpt>
      <trkpt lat="46.50973" lon="8.29935">
        <ele>1550</ele>
        <time>2020-10-24T08:02:25.937Z</time>
      </trkpt>
      <trkpt lat="46.50975" lon="8.29939">
        <ele>1549</ele>
        <time>2020-10-24T08:02:26.937Z</time>
      </trkpt>
      <trkpt lat="46.50978" lon="8.29943">
        <ele>1549</ele>
        <time>2020-10-24T08:02:27.937Z</time>
      </trkpt>
      <trkpt lat="46.5098" lon="8.29946">
        <ele>1548</ele>
        <time>2020-10-24T08:02:28.937Z</time>
      </trkpt>
      <trkpt lat="46.50982" lon="8.29949">
        <ele>1548</ele>
        <time>2020-10-24T08:02:29.936Z</time>
      </trkpt>
      <trkpt lat="46.50984" lon="8.29953">
        <ele>1548</ele>
        <time>2020-10-24T08:02:30.937Z</time>
      </trkpt>
      <trkpt lat="46.50987" lon="8.29956">
        <ele>1547</ele>
        <time>2020-10-24T08:02:31.936Z</time>
      </trkpt>
      <trkpt lat="46.50989" lon="8.29962">
        <ele>1547</ele>
        <time>2020-10-24T08:02:32.936Z</time>
      </trkpt>
      <trkpt lat="46.50991" lon="8.29967">
        <ele>1547</ele>
        <time>2020-10-24T08:02:33.937Z</time>
      </trkpt>
      <trkpt lat="46.50992" lon="8.29971">
        <ele>1546</ele>
        <time>2020-10-24T08:02:34.936Z</time>
      </trkpt>
      <trkpt lat="46.50994" lon="8.29975">
        <ele>1546</ele>
        <time>2020-10-24T08:02:35.937Z</time>
      </trkpt>
      <trkpt lat="46.50997" lon="8.29978">
        <ele>1546</ele>
        <time>2020-10-24T08:02:36.937Z</time>
      </trkpt>
      <trkpt lat="46.50999" lon="8.29983">
        <ele>1546</ele>
        <time>2020-10-24T08:02:37.936Z</time>
      </trkpt>
      <trkpt lat="46.51" lon="8.29987">
        <ele>1546</ele>
        <time>2020-10-24T08:02:38.936Z</time>
      </trkpt>
      <trkpt lat="46.51002" lon="8.2999">
        <ele>1546</ele>
        <time>2020-10-24T08:02:39.937Z</time>
      </trkpt>
      <trkpt lat="46.51005" lon="8.29993">
        <ele>1546</ele>
        <time>2020-10-24T08:02:40.936Z</time>
      </trkpt>
      <trkpt lat="46.51007" lon="8.29996">
        <ele>1546</ele>
        <time>2020-10-24T08:02:41.937Z</time>
      </trkpt>
      <trkpt lat="46.51009" lon="8.29999">
        <ele>1545</ele>
        <time>2020-10-24T08:02:42.937Z</time>
      </trkpt>
      <trkpt lat="46.51012" lon="8.30003">
        <ele>1545</ele>
        <time>2020-10-24T08:02:43.937Z</time>
      </trkpt>
      <trkpt lat="46.51014" lon="8.30007">
        <ele>1545</ele>
        <time>2020-10-24T08:02:44.936Z</time>
      </trkpt>
      <trkpt lat="46.51015" lon="8.30011">
        <ele>1545</ele>
        <time>2020-10-24T08:02:45.937Z</time>
      </trkpt>
      <trkpt lat="46.51018" lon="8.30015">
        <ele>1544</ele>
        <time>2020-10-24T08:02:46.937Z</time>
      </trkpt>
      <trkpt lat="46.5102" lon="8.30018">
        <ele>1544</ele>
        <time>2020-10-24T08:02:47.937Z</time>
      </trkpt>
      <trkpt lat="46.51022" lon="8.3002">
        <ele>1544</ele>
        <time>2020-10-24T08:02:48.936Z</time>
      </trkpt>
      <trkpt lat="46.51025" lon="8.30023">
        <ele>1543</ele>
        <time>2020-10-24T08:02:49.937Z</time>
      </trkpt>
      <trkpt lat="46.51029" lon="8.30026">
        <ele>1543</ele>
        <time>2020-10-24T08:02:50.937Z</time>
      </trkpt>
      <trkpt lat="46.51031" lon="8.30028">
        <ele>1543</ele>
        <time>2020-10-24T08:02:51.937Z</time>
      </trkpt>
      <trkpt lat="46.51034" lon="8.3003">
        <ele>1543</ele>
        <time>2020-10-24T08:02:52.937Z</time>
      </trkpt>
      <trkpt lat="46.51037" lon="8.30033">
        <ele>1543</ele>
        <time>2020-10-24T08:02:53.937Z</time>
      </trkpt>
      <trkpt lat="46.5104" lon="8.30036">
        <ele>1543</ele>
        <time>2020-10-24T08:02:54.937Z</time>
      </trkpt>
      <trkpt lat="46.51043" lon="8.30041">
        <ele>1542</ele>
        <time>2020-10-24T08:02:55.936Z</time>
      </trkpt>
      <trkpt lat="46.51045" lon="8.30044">
        <ele>1542</ele>
        <time>2020-10-24T08:02:56.937Z</time>
      </trkpt>
      <trkpt lat="46.51048" lon="8.30048">
        <ele>1541</ele>
        <time>2020-10-24T08:02:57.937Z</time>
      </trkpt>
      <trkpt lat="46.5105" lon="8.30051">
        <ele>1541</ele>
        <time>2020-10-24T08:02:58.937Z</time>
      </trkpt>
      <trkpt lat="46.51054" lon="8.30054">
        <ele>1541</ele>
        <time>2020-10-24T08:02:59.937Z</time>
      </trkpt>
      <trkpt lat="46.51057" lon="8.30055">
        <ele>1540</ele>
        <time>2020-10-24T08:03:00.937Z</time>
      </trkpt>
      <trkpt lat="46.51059" lon="8.30057">
        <ele>1540</ele>
        <time>2020-10-24T08:03:01.937Z</time>
      </trkpt>
      <trkpt lat="46.51061" lon="8.30059">
        <ele>1539</ele>
        <time>2020-10-24T08:03:02.936Z</time>
      </trkpt>
      <trkpt lat="46.51063" lon="8.30062">
        <ele>1539</ele>
        <time>2020-10-24T08:03:03.937Z</time>
      </trkpt>
      <trkpt lat="46.51064" lon="8.30065">
        <ele>1539</ele>
        <time>2020-10-24T08:03:04.937Z</time>
      </trkpt>
      <trkpt lat="46.51064" lon="8.30067">
        <ele>1539</ele>
        <time>2020-10-24T08:03:05.937Z</time>
      </trkpt>
      <trkpt lat="46.51063" lon="8.30069">
        <ele>1539</ele>
        <time>2020-10-24T08:03:06.937Z</time>
      </trkpt>
      <trkpt lat="46.51061" lon="8.3007">
        <ele>1540</ele>
        <time>2020-10-24T08:03:07.937Z</time>
      </trkpt>
      <trkpt lat="46.5106" lon="8.3007">
        <ele>1540</ele>
        <time>2020-10-24T08:03:08.936Z</time>
      </trkpt>
      <trkpt lat="46.51058" lon="8.30068">
        <ele>1540</ele>
        <time>2020-10-24T08:03:09.937Z</time>
      </trkpt>
      <trkpt lat="46.51056" lon="8.30066">
        <ele>1540</ele>
        <time>2020-10-24T08:03:10.936Z</time>
      </trkpt>
      <trkpt lat="46.51054" lon="8.30064">
        <ele>1540</ele>
        <time>2020-10-24T08:03:11.936Z</time>
      </trkpt>
      <trkpt lat="46.51051" lon="8.30062">
        <ele>1540</ele>
        <time>2020-10-24T08:03:12.937Z</time>
      </trkpt>
      <trkpt lat="46.51049" lon="8.3006">
        <ele>1540</ele>
        <time>2020-10-24T08:03:13.936Z</time>
      </trkpt>
      <trkpt lat="46.51045" lon="8.30058">
        <ele>1540</ele>
        <time>2020-10-24T08:03:14.937Z</time>
      </trkpt>
      <trkpt lat="46.51042" lon="8.30056">
        <ele>1540</ele>
        <time>2020-10-24T08:03:15.937Z</time>
      </trkpt>
      <trkpt lat="46.51039" lon="8.30055">
        <ele>1540</ele>
        <time>2020-10-24T08:03:16.937Z</time>
      </trkpt>
      <trkpt lat="46.51034" lon="8.30053">
        <ele>1540</ele>
        <time>2020-10-24T08:03:17.936Z</time>
      </trkpt>
      <trkpt lat="46.51031" lon="8.30051">
        <ele>1540</ele>
        <time>2020-10-24T08:03:18.937Z</time>
      </trkpt>
      <trkpt lat="46.51028" lon="8.30049">
        <ele>1540</ele>
        <time>2020-10-24T08:03:19.936Z</time>
      </trkpt>
      <trkpt lat="46.51026" lon="8.30047">
        <ele>1540</ele>
        <time>2020-10-24T08:03:20.937Z</time>
      </trkpt>
      <trkpt lat="46.51021" lon="8.30045">
        <ele>1540</ele>
        <time>2020-10-24T08:03:21.937Z</time>
      </trkpt>
      <trkpt lat="46.51016" lon="8.30044">
        <ele>1540</ele>
        <time>2020-10-24T08:03:22.937Z</time>
      </trkpt>
      <trkpt lat="46.51012" lon="8.30043">
        <ele>1540</ele>
        <time>2020-10-24T08:03:23.936Z</time>
      </trkpt>
      <trkpt lat="46.51009" lon="8.30043">
        <ele>1540</ele>
        <time>2020-10-24T08:03:24.937Z</time>
      </trkpt>
      <trkpt lat="46.51005" lon="8.30043">
        <ele>1539</ele>
        <time>2020-10-24T08:03:25.937Z</time>
      </trkpt>
      <trkpt lat="46.51002" lon="8.30043">
        <ele>1540</ele>
        <time>2020-10-24T08:03:26.936Z</time>
      </trkpt>
      <trkpt lat="46.50998" lon="8.30043">
        <ele>1540</ele>
        <time>2020-10-24T08:03:27.937Z</time>
      </trkpt>
      <trkpt lat="46.50994" lon="8.30043">
        <ele>1540</ele>
        <time>2020-10-24T08:03:28.937Z</time>
      </trkpt>
      <trkpt lat="46.50991" lon="8.30043">
        <ele>1540</ele>
        <time>2020-10-24T08:03:29.937Z</time>
      </trkpt>
      <trkpt lat="46.50987" lon="8.30042">
        <ele>1540</ele>
        <time>2020-10-24T08:03:30.937Z</time>
      </trkpt>
      <trkpt lat="46.50984" lon="8.30041">
        <ele>1540</ele>
        <time>2020-10-24T08:03:31.936Z</time>
      </trkpt>
      <trkpt lat="46.50981" lon="8.30039">
        <ele>1540</ele>
        <time>2020-10-24T08:03:32.936Z</time>
      </trkpt>
      <trkpt lat="46.50977" lon="8.30036">
        <ele>1540</ele>
        <time>2020-10-24T08:03:33.937Z</time>
      </trkpt>
      <trkpt lat="46.50974" lon="8.30033">
        <ele>1539</ele>
        <time>2020-10-24T08:03:34.936Z</time>
      </trkpt>
      <trkpt lat="46.5097" lon="8.3003">
        <ele>1539</ele>
        <time>2020-10-24T08:03:35.936Z</time>
      </trkpt>
      <trkpt lat="46.50967" lon="8.30024">
        <ele>1539</ele>
        <time>2020-10-24T08:03:36.936Z</time>
      </trkpt>
      <trkpt lat="46.50964" lon="8.30019">
        <ele>1539</ele>
        <time>2020-10-24T08:03:37.937Z</time>
      </trkpt>
      <trkpt lat="46.50962" lon="8.30015">
        <ele>1538</ele>
        <time>2020-10-24T08:03:38.937Z</time>
      </trkpt>
      <trkpt lat="46.50959" lon="8.30011">
        <ele>1538</ele>
        <time>2020-10-24T08:03:39.937Z</time>
      </trkpt>
      <trkpt lat="46.50956" lon="8.30008">
        <ele>1538</ele>
        <time>2020-10-24T08:03:40.937Z</time>
      </trkpt>
      <trkpt lat="46.50953" lon="8.30005">
        <ele>1538</ele>
        <time>2020-10-24T08:03:41.937Z</time>
      </trkpt>
      <trkpt lat="46.50951" lon="8.30002">
        <ele>1537</ele>
        <time>2020-10-24T08:03:42.937Z</time>
      </trkpt>
      <trkpt lat="46.50948" lon="8.29998">
        <ele>1537</ele>
        <time>2020-10-24T08:03:43.937Z</time>
      </trkpt>
      <trkpt lat="46.50947" lon="8.29994">
        <ele>1536</ele>
        <time>2020-10-24T08:03:44.936Z</time>
      </trkpt>
      <trkpt lat="46.50946" lon="8.2999">
        <ele>1536</ele>
        <time>2020-10-24T08:03:45.937Z</time>
      </trkpt>
      <trkpt lat="46.50943" lon="8.29986">
        <ele>1535</ele>
        <time>2020-10-24T08:03:46.937Z</time>
      </trkpt>
      <trkpt lat="46.5094" lon="8.29981">
        <ele>1534</ele>
        <time>2020-10-24T08:03:47.937Z</time>
      </trkpt>
      <trkpt lat="46.50938" lon="8.29978">
        <ele>1533</ele>
        <time>2020-10-24T08:03:48.937Z</time>
      </trkpt>
      <trkpt lat="46.50935" lon="8.29974">
        <ele>1533</ele>
        <time>2020-10-24T08:03:49.936Z</time>
      </trkpt>
      <trkpt lat="46.50933" lon="8.29969">
        <ele>1532</ele>
        <time>2020-10-24T08:03:50.937Z</time>
      </trkpt>
      <trkpt lat="46.5093" lon="8.29964">
        <ele>1531</ele>
        <time>2020-10-24T08:03:51.936Z</time>
      </trkpt>
      <trkpt lat="46.50929" lon="8.29958">
        <ele>1531</ele>
        <time>2020-10-24T08:03:52.936Z</time>
      </trkpt>
      <trkpt lat="46.50928" lon="8.29953">
        <ele>1530</ele>
        <time>2020-10-24T08:03:53.936Z</time>
      </trkpt>
      <trkpt lat="46.50926" lon="8.29949">
        <ele>1529</ele>
        <time>2020-10-24T08:03:54.937Z</time>
      </trkpt>
      <trkpt lat="46.50924" lon="8.29944">
        <ele>1528</ele>
        <time>2020-10-24T08:03:55.937Z</time>
      </trkpt>
      <trkpt lat="46.50922" lon="8.29939">
        <ele>1527</ele>
        <time>2020-10-24T08:03:56.936Z</time>
      </trkpt>
      <trkpt lat="46.50919" lon="8.29934">
        <ele>1527</ele>
        <time>2020-10-24T08:03:57.937Z</time>
      </trkpt>
      <trkpt lat="46.50917" lon="8.2993">
        <ele>1526</ele>
        <time>2020-10-24T08:03:58.937Z</time>
      </trkpt>
      <trkpt lat="46.50913" lon="8.29926">
        <ele>1525</ele>
        <time>2020-10-24T08:03:59.936Z</time>
      </trkpt>
      <trkpt lat="46.5091" lon="8.29923">
        <ele>1525</ele>
        <time>2020-10-24T08:04:00.937Z</time>
      </trkpt>
      <trkpt lat="46.50907" lon="8.29919">
        <ele>1524</ele>
        <time>2020-10-24T08:04:01.936Z</time>
      </trkpt>
      <trkpt lat="46.50905" lon="8.29914">
        <ele>1523</ele>
        <time>2020-10-24T08:04:02.937Z</time>
      </trkpt>
      <trkpt lat="46.50903" lon="8.2991">
        <ele>1523</ele>
        <time>2020-10-24T08:04:03.937Z</time>
      </trkpt>
      <trkpt lat="46.50901" lon="8.29907">
        <ele>1522</ele>
        <time>2020-10-24T08:04:04.936Z</time>
      </trkpt>
      <trkpt lat="46.50898" lon="8.29904">
        <ele>1522</ele>
        <time>2020-10-24T08:04:05.936Z</time>
      </trkpt>
      <trkpt lat="46.50895" lon="8.29901">
        <ele>1522</ele>
        <time>2020-10-24T08:04:06.937Z</time>
      </trkpt>
      <trkpt lat="46.50893" lon="8.29897">
        <ele>1521</ele>
        <time>2020-10-24T08:04:07.936Z</time>
      </trkpt>
      <trkpt lat="46.50891" lon="8.29894">
        <ele>1521</ele>
        <time>2020-10-24T08:04:08.937Z</time>
      </trkpt>
      <trkpt lat="46.50889" lon="8.29891">
        <ele>1520</ele>
        <time>2020-10-24T08:04:09.937Z</time>
      </trkpt>
      <trkpt lat="46.50888" lon="8.29888">
        <ele>1519</ele>
        <time>2020-10-24T08:04:10.937Z</time>
      </trkpt>
      <trkpt lat="46.50886" lon="8.29884">
        <ele>1518</ele>
        <time>2020-10-24T08:04:11.937Z</time>
      </trkpt>
      <trkpt lat="46.50885" lon="8.29881">
        <ele>1518</ele>
        <time>2020-10-24T08:04:12.936Z</time>
      </trkpt>
      <trkpt lat="46.50884" lon="8.29878">
        <ele>1517</ele>
        <time>2020-10-24T08:04:13.936Z</time>
      </trkpt>
      <trkpt lat="46.50885" lon="8.29874">
        <ele>1517</ele>
        <time>2020-10-24T08:04:14.937Z</time>
      </trkpt>
      <trkpt lat="46.50887" lon="8.2987">
        <ele>1516</ele>
        <time>2020-10-24T08:04:15.936Z</time>
      </trkpt>
      <trkpt lat="46.50888" lon="8.29866">
        <ele>1516</ele>
        <time>2020-10-24T08:04:16.936Z</time>
      </trkpt>
      <trkpt lat="46.50889" lon="8.29861">
        <ele>1515</ele>
        <time>2020-10-24T08:04:17.937Z</time>
      </trkpt>
      <trkpt lat="46.5089" lon="8.29856">
        <ele>1515</ele>
        <time>2020-10-24T08:04:18.936Z</time>
      </trkpt>
      <trkpt lat="46.50892" lon="8.29849">
        <ele>1514</ele>
        <time>2020-10-24T08:04:19.936Z</time>
      </trkpt>
      <trkpt lat="46.50893" lon="8.29844">
        <ele>1514</ele>
        <time>2020-10-24T08:04:20.936Z</time>
      </trkpt>
      <trkpt lat="46.50894" lon="8.29839">
        <ele>1513</ele>
        <time>2020-10-24T08:04:21.936Z</time>
      </trkpt>
      <trkpt lat="46.50896" lon="8.29834">
        <ele>1513</ele>
        <time>2020-10-24T08:04:22.936Z</time>
      </trkpt>
      <trkpt lat="46.50898" lon="8.29831">
        <ele>1512</ele>
        <time>2020-10-24T08:04:23.936Z</time>
      </trkpt>
      <trkpt lat="46.509" lon="8.29828">
        <ele>1512</ele>
        <time>2020-10-24T08:04:24.936Z</time>
      </trkpt>
      <trkpt lat="46.50902" lon="8.29825">
        <ele>1512</ele>
        <time>2020-10-24T08:04:25.937Z</time>
      </trkpt>
      <trkpt lat="46.50904" lon="8.29823">
        <ele>1511</ele>
        <time>2020-10-24T08:04:26.937Z</time>
      </trkpt>
      <trkpt lat="46.50907" lon="8.29821">
        <ele>1511</ele>
        <time>2020-10-24T08:04:27.936Z</time>
      </trkpt>
      <trkpt lat="46.50909" lon="8.29819">
        <ele>1511</ele>
        <time>2020-10-24T08:04:28.937Z</time>
      </trkpt>
      <trkpt lat="46.50912" lon="8.29815">
        <ele>1511</ele>
        <time>2020-10-24T08:04:29.936Z</time>
      </trkpt>
      <trkpt lat="46.50913" lon="8.29811">
        <ele>1511</ele>
        <time>2020-10-24T08:04:30.936Z</time>
      </trkpt>
      <trkpt lat="46.50913" lon="8.29806">
        <ele>1510</ele>
        <time>2020-10-24T08:04:31.937Z</time>
      </trkpt>
      <trkpt lat="46.50912" lon="8.29802">
        <ele>1509</ele>
        <time>2020-10-24T08:04:32.937Z</time>
      </trkpt>
      <trkpt lat="46.5091" lon="8.29798">
        <ele>1509</ele>
        <time>2020-10-24T08:04:33.937Z</time>
      </trkpt>
      <trkpt lat="46.50907" lon="8.29795">
        <ele>1508</ele>
        <time>2020-10-24T08:04:34.937Z</time>
      </trkpt>
      <trkpt lat="46.50904" lon="8.29792">
        <ele>1508</ele>
        <time>2020-10-24T08:04:35.936Z</time>
      </trkpt>
      <trkpt lat="46.509" lon="8.29789">
        <ele>1508</ele>
        <time>2020-10-24T08:04:36.937Z</time>
      </trkpt>
      <trkpt lat="46.50898" lon="8.29786">
        <ele>1507</ele>
        <time>2020-10-24T08:04:37.937Z</time>
      </trkpt>
      <trkpt lat="46.50896" lon="8.29784">
        <ele>1507</ele>
        <time>2020-10-24T08:04:38.936Z</time>
      </trkpt>
      <trkpt lat="46.50893" lon="8.2978">
        <ele>1506</ele>
        <time>2020-10-24T08:04:39.936Z</time>
      </trkpt>
      <trkpt lat="46.5089" lon="8.29777">
        <ele>1506</ele>
        <time>2020-10-24T08:04:40.937Z</time>
      </trkpt>
      <trkpt lat="46.50888" lon="8.29774">
        <ele>1505</ele>
        <time>2020-10-24T08:04:41.937Z</time>
      </trkpt>
      <trkpt lat="46.50885" lon="8.29771">
        <ele>1505</ele>
        <time>2020-10-24T08:04:42.937Z</time>
      </trkpt>
      <trkpt lat="46.50882" lon="8.29769">
        <ele>1505</ele>
        <time>2020-10-24T08:04:43.937Z</time>
      </trkpt>
      <trkpt lat="46.50879" lon="8.29768">
        <ele>1504</ele>
        <time>2020-10-24T08:04:44.937Z</time>
      </trkpt>
      <trkpt lat="46.50875" lon="8.29766">
        <ele>1503</ele>
        <time>2020-10-24T08:04:45.937Z</time>
      </trkpt>
      <trkpt lat="46.50872" lon="8.29765">
        <ele>1503</ele>
        <time>2020-10-24T08:04:46.937Z</time>
      </trkpt>
      <trkpt lat="46.50868" lon="8.29762">
        <ele>1502</ele>
        <time>2020-10-24T08:04:47.937Z</time>
      </trkpt>
      <trkpt lat="46.50864" lon="8.29761">
        <ele>1502</ele>
        <time>2020-10-24T08:04:48.936Z</time>
      </trkpt>
      <trkpt lat="46.5086" lon="8.2976">
        <ele>1501</ele>
        <time>2020-10-24T08:04:49.936Z</time>
      </trkpt>
      <trkpt lat="46.50857" lon="8.2976">
        <ele>1501</ele>
        <time>2020-10-24T08:04:50.936Z</time>
      </trkpt>
      <trkpt lat="46.50853" lon="8.29759">
        <ele>1501</ele>
        <time>2020-10-24T08:04:51.937Z</time>
      </trkpt>
      <trkpt lat="46.5085" lon="8.29759">
        <ele>1500</ele>
        <time>2020-10-24T08:04:52.937Z</time>
      </trkpt>
      <trkpt lat="46.50846" lon="8.29759">
        <ele>1500</ele>
        <time>2020-10-24T08:04:53.936Z</time>
      </trkpt>
      <trkpt lat="46.50842" lon="8.29759">
        <ele>1500</ele>
        <time>2020-10-24T08:04:54.936Z</time>
      </trkpt>
      <trkpt lat="46.5084" lon="8.2976">
        <ele>1500</ele>
        <time>2020-10-24T08:04:55.937Z</time>
      </trkpt>
      <trkpt lat="46.50836" lon="8.29761">
        <ele>1500</ele>
        <time>2020-10-24T08:04:56.936Z</time>
      </trkpt>
      <trkpt lat="46.50832" lon="8.29761">
        <ele>1500</ele>
        <time>2020-10-24T08:04:57.937Z</time>
      </trkpt>
      <trkpt lat="46.5083" lon="8.29761">
        <ele>1500</ele>
        <time>2020-10-24T08:04:58.937Z</time>
      </trkpt>
      <trkpt lat="46.50826" lon="8.29762">
        <ele>1499</ele>
        <time>2020-10-24T08:04:59.937Z</time>
      </trkpt>
      <trkpt lat="46.50823" lon="8.29761">
        <ele>1499</ele>
        <time>2020-10-24T08:05:00.937Z</time>
      </trkpt>
      <trkpt lat="46.50819" lon="8.29761">
        <ele>1498</ele>
        <time>2020-10-24T08:05:01.936Z</time>
      </trkpt>
      <trkpt lat="46.50815" lon="8.29762">
        <ele>1498</ele>
        <time>2020-10-24T08:05:02.937Z</time>
      </trkpt>
      <trkpt lat="46.50812" lon="8.29762">
        <ele>1497</ele>
        <time>2020-10-24T08:05:03.936Z</time>
      </trkpt>
      <trkpt lat="46.50809" lon="8.29763">
        <ele>1497</ele>
        <time>2020-10-24T08:05:04.937Z</time>
      </trkpt>
      <trkpt lat="46.50806" lon="8.29763">
        <ele>1496</ele>
        <time>2020-10-24T08:05:05.937Z</time>
      </trkpt>
      <trkpt lat="46.50802" lon="8.29763">
        <ele>1495</ele>
        <time>2020-10-24T08:05:06.936Z</time>
      </trkpt>
      <trkpt lat="46.50799" lon="8.29761">
        <ele>1495</ele>
        <time>2020-10-24T08:05:07.936Z</time>
      </trkpt>
      <trkpt lat="46.50797" lon="8.29759">
        <ele>1494</ele>
        <time>2020-10-24T08:05:08.937Z</time>
      </trkpt>
      <trkpt lat="46.50794" lon="8.29758">
        <ele>1494</ele>
        <time>2020-10-24T08:05:09.937Z</time>
      </trkpt>
      <trkpt lat="46.50792" lon="8.29756">
        <ele>1493</ele>
        <time>2020-10-24T08:05:10.937Z</time>
      </trkpt>
      <trkpt lat="46.50789" lon="8.29754">
        <ele>1493</ele>
        <time>2020-10-24T08:05:11.936Z</time>
      </trkpt>
      <trkpt lat="46.50787" lon="8.29752">
        <ele>1493</ele>
        <time>2020-10-24T08:05:12.936Z</time>
      </trkpt>
      <trkpt lat="46.50785" lon="8.29749">
        <ele>1492</ele>
        <time>2020-10-24T08:05:13.937Z</time>
      </trkpt>
      <trkpt lat="46.50783" lon="8.29746">
        <ele>1492</ele>
        <time>2020-10-24T08:05:14.937Z</time>
      </trkpt>
      <trkpt lat="46.50783" lon="8.29743">
        <ele>1491</ele>
        <time>2020-10-24T08:05:15.937Z</time>
      </trkpt>
      <trkpt lat="46.50782" lon="8.2974">
        <ele>1490</ele>
        <time>2020-10-24T08:05:16.937Z</time>
      </trkpt>
      <trkpt lat="46.50781" lon="8.29736">
        <ele>1489</ele>
        <time>2020-10-24T08:05:17.936Z</time>
      </trkpt>
      <trkpt lat="46.50781" lon="8.29732">
        <ele>1489</ele>
        <time>2020-10-24T08:05:18.937Z</time>
      </trkpt>
      <trkpt lat="46.50781" lon="8.29728">
        <ele>1488</ele>
        <time>2020-10-24T08:05:19.937Z</time>
      </trkpt>
      <trkpt lat="46.50782" lon="8.29723">
        <ele>1487</ele>
        <time>2020-10-24T08:05:20.937Z</time>
      </trkpt>
      <trkpt lat="46.50783" lon="8.2972">
        <ele>1487</ele>
        <time>2020-10-24T08:05:21.936Z</time>
      </trkpt>
      <trkpt lat="46.50785" lon="8.29715">
        <ele>1486</ele>
        <time>2020-10-24T08:05:22.936Z</time>
      </trkpt>
      <trkpt lat="46.50787" lon="8.29712">
        <ele>1485</ele>
        <time>2020-10-24T08:05:23.936Z</time>
      </trkpt>
      <trkpt lat="46.50789" lon="8.29707">
        <ele>1484</ele>
        <time>2020-10-24T08:05:24.937Z</time>
      </trkpt>
      <trkpt lat="46.50791" lon="8.29702">
        <ele>1484</ele>
        <time>2020-10-24T08:05:25.937Z</time>
      </trkpt>
      <trkpt lat="46.50793" lon="8.29698">
        <ele>1483</ele>
        <time>2020-10-24T08:05:26.937Z</time>
      </trkpt>
      <trkpt lat="46.50795" lon="8.29694">
        <ele>1483</ele>
        <time>2020-10-24T08:05:27.936Z</time>
      </trkpt>
      <trkpt lat="46.50797" lon="8.29689">
        <ele>1483</ele>
        <time>2020-10-24T08:05:28.937Z</time>
      </trkpt>
      <trkpt lat="46.50799" lon="8.29685">
        <ele>1482</ele>
        <time>2020-10-24T08:05:29.937Z</time>
      </trkpt>
      <trkpt lat="46.508" lon="8.2968">
        <ele>1482</ele>
        <time>2020-10-24T08:05:30.936Z</time>
      </trkpt>
      <trkpt lat="46.508" lon="8.29675">
        <ele>1481</ele>
        <time>2020-10-24T08:05:31.936Z</time>
      </trkpt>
      <trkpt lat="46.508" lon="8.2967">
        <ele>1481</ele>
        <time>2020-10-24T08:05:32.937Z</time>
      </trkpt>
      <trkpt lat="46.50798" lon="8.29667">
        <ele>1481</ele>
        <time>2020-10-24T08:05:33.937Z</time>
      </trkpt>
      <trkpt lat="46.50796" lon="8.29663">
        <ele>1481</ele>
        <time>2020-10-24T08:05:34.937Z</time>
      </trkpt>
      <trkpt lat="46.50794" lon="8.2966">
        <ele>1481</ele>
        <time>2020-10-24T08:05:35.937Z</time>
      </trkpt>
      <trkpt lat="46.50792" lon="8.29656">
        <ele>1480</ele>
        <time>2020-10-24T08:05:36.936Z</time>
      </trkpt>
      <trkpt lat="46.50789" lon="8.29653">
        <ele>1480</ele>
        <time>2020-10-24T08:05:37.937Z</time>
      </trkpt>
      <trkpt lat="46.50786" lon="8.2965">
        <ele>1480</ele>
        <time>2020-10-24T08:05:38.937Z</time>
      </trkpt>
      <trkpt lat="46.50783" lon="8.29648">
        <ele>1480</ele>
        <time>2020-10-24T08:05:39.937Z</time>
      </trkpt>
      <trkpt lat="46.5078" lon="8.29646">
        <ele>1480</ele>
        <time>2020-10-24T08:05:40.936Z</time>
      </trkpt>
      <trkpt lat="46.50776" lon="8.29645">
        <ele>1479</ele>
        <time>2020-10-24T08:05:41.937Z</time>
      </trkpt>
      <trkpt lat="46.50771" lon="8.29644">
        <ele>1479</ele>
        <time>2020-10-24T08:05:42.937Z</time>
      </trkpt>
      <trkpt lat="46.50767" lon="8.29643">
        <ele>1479</ele>
        <time>2020-10-24T08:05:43.937Z</time>
      </trkpt>
      <trkpt lat="46.50763" lon="8.29644">
        <ele>1479</ele>
        <time>2020-10-24T08:05:44.937Z</time>
      </trkpt>
      <trkpt lat="46.5076" lon="8.29645">
        <ele>1479</ele>
        <time>2020-10-24T08:05:45.937Z</time>
      </trkpt>
      <trkpt lat="46.50757" lon="8.29645">
        <ele>1479</ele>
        <time>2020-10-24T08:05:46.937Z</time>
      </trkpt>
      <trkpt lat="46.50754" lon="8.29645">
        <ele>1479</ele>
        <time>2020-10-24T08:05:47.936Z</time>
      </trkpt>
      <trkpt lat="46.50751" lon="8.29645">
        <ele>1479</ele>
        <time>2020-10-24T08:05:48.937Z</time>
      </trkpt>
      <trkpt lat="46.50747" lon="8.29644">
        <ele>1479</ele>
        <time>2020-10-24T08:05:49.937Z</time>
      </trkpt>
      <trkpt lat="46.50744" lon="8.29644">
        <ele>1479</ele>
        <time>2020-10-24T08:05:50.936Z</time>
      </trkpt>
      <trkpt lat="46.50742" lon="8.29642">
        <ele>1479</ele>
        <time>2020-10-24T08:05:51.937Z</time>
      </trkpt>
      <trkpt lat="46.5074" lon="8.2964">
        <ele>1479</ele>
        <time>2020-10-24T08:05:52.937Z</time>
      </trkpt>
      <trkpt lat="46.50739" lon="8.29636">
        <ele>1478</ele>
        <time>2020-10-24T08:05:53.937Z</time>
      </trkpt>
      <trkpt lat="46.50738" lon="8.29632">
        <ele>1478</ele>
        <time>2020-10-24T08:05:54.936Z</time>
      </trkpt>
      <trkpt lat="46.50737" lon="8.29628">
        <ele>1477</ele>
        <time>2020-10-24T08:05:55.936Z</time>
      </trkpt>
      <trkpt lat="46.50735" lon="8.29624">
        <ele>1477</ele>
        <time>2020-10-24T08:05:56.937Z</time>
      </trkpt>
      <trkpt lat="46.50733" lon="8.2962">
        <ele>1476</ele>
        <time>2020-10-24T08:05:57.937Z</time>
      </trkpt>
      <trkpt lat="46.5073" lon="8.29618">
        <ele>1475</ele>
        <time>2020-10-24T08:05:58.937Z</time>
      </trkpt>
      <trkpt lat="46.50727" lon="8.29616">
        <ele>1475</ele>
        <time>2020-10-24T08:05:59.936Z</time>
      </trkpt>
      <trkpt lat="46.50725" lon="8.29614">
        <ele>1474</ele>
        <time>2020-10-24T08:06:00.937Z</time>
      </trkpt>
      <trkpt lat="46.50722" lon="8.29611">
        <ele>1473</ele>
        <time>2020-10-24T08:06:01.937Z</time>
      </trkpt>
      <trkpt lat="46.50719" lon="8.29609">
        <ele>1473</ele>
        <time>2020-10-24T08:06:02.937Z</time>
      </trkpt>
      <trkpt lat="46.50716" lon="8.29608">
        <ele>1472</ele>
        <time>2020-10-24T08:06:03.937Z</time>
      </trkpt>
      <trkpt lat="46.50713" lon="8.29606">
        <ele>1472</ele>
        <time>2020-10-24T08:06:04.937Z</time>
      </trkpt>
      <trkpt lat="46.5071" lon="8.29605">
        <ele>1472</ele>
        <time>2020-10-24T08:06:05.937Z</time>
      </trkpt>
      <trkpt lat="46.50707" lon="8.29603">
        <ele>1472</ele>
        <time>2020-10-24T08:06:06.937Z</time>
      </trkpt>
      <trkpt lat="46.50704" lon="8.296">
        <ele>1471</ele>
        <time>2020-10-24T08:06:07.937Z</time>
      </trkpt>
      <trkpt lat="46.50702" lon="8.29596">
        <ele>1471</ele>
        <time>2020-10-24T08:06:08.937Z</time>
      </trkpt>
      <trkpt lat="46.50701" lon="8.29592">
        <ele>1471</ele>
        <time>2020-10-24T08:06:09.936Z</time>
      </trkpt>
      <trkpt lat="46.50699" lon="8.29588">
        <ele>1471</ele>
        <time>2020-10-24T08:06:10.937Z</time>
      </trkpt>
      <trkpt lat="46.50697" lon="8.29584">
        <ele>1470</ele>
        <time>2020-10-24T08:06:11.937Z</time>
      </trkpt>
      <trkpt lat="46.50695" lon="8.2958">
        <ele>1470</ele>
        <time>2020-10-24T08:06:12.937Z</time>
      </trkpt>
      <trkpt lat="46.50695" lon="8.29576">
        <ele>1469</ele>
        <time>2020-10-24T08:06:13.937Z</time>
      </trkpt>
      <trkpt lat="46.50695" lon="8.29571">
        <ele>1469</ele>
        <time>2020-10-24T08:06:14.937Z</time>
      </trkpt>
      <trkpt lat="46.50696" lon="8.29566">
        <ele>1468</ele>
        <time>2020-10-24T08:06:15.936Z</time>
      </trkpt>
      <trkpt lat="46.50697" lon="8.29562">
        <ele>1468</ele>
        <time>2020-10-24T08:06:16.937Z</time>
      </trkpt>
      <trkpt lat="46.50698" lon="8.29557">
        <ele>1468</ele>
        <time>2020-10-24T08:06:17.937Z</time>
      </trkpt>
      <trkpt lat="46.50697" lon="8.29552">
        <ele>1467</ele>
        <time>2020-10-24T08:06:18.936Z</time>
      </trkpt>
      <trkpt lat="46.50697" lon="8.29547">
        <ele>1466</ele>
        <time>2020-10-24T08:06:19.936Z</time>
      </trkpt>
      <trkpt lat="46.50696" lon="8.29542">
        <ele>1466</ele>
        <time>2020-10-24T08:06:20.936Z</time>
      </trkpt>
      <trkpt lat="46.50695" lon="8.29538">
        <ele>1465</ele>
        <time>2020-10-24T08:06:21.937Z</time>
      </trkpt>
      <trkpt lat="46.50694" lon="8.29533">
        <ele>1464</ele>
        <time>2020-10-24T08:06:22.936Z</time>
      </trkpt>
      <trkpt lat="46.50693" lon="8.29529">
        <ele>1463</ele>
        <time>2020-10-24T08:06:23.937Z</time>
      </trkpt>
      <trkpt lat="46.50691" lon="8.29526">
        <ele>1462</ele>
        <time>2020-10-24T08:06:24.936Z</time>
      </trkpt>
      <trkpt lat="46.50684" lon="8.29521">
        <ele>1461</ele>
        <time>2020-10-24T08:06:26.937Z</time>
      </trkpt>
      <trkpt lat="46.50679" lon="8.29521">
        <ele>1460</ele>
        <time>2020-10-24T08:06:27.937Z</time>
      </trkpt>
      <trkpt lat="46.50676" lon="8.29522">
        <ele>1460</ele>
        <time>2020-10-24T08:06:28.936Z</time>
      </trkpt>
      <trkpt lat="46.50672" lon="8.29523">
        <ele>1459</ele>
        <time>2020-10-24T08:06:29.937Z</time>
      </trkpt>
      <trkpt lat="46.50669" lon="8.29523">
        <ele>1458</ele>
        <time>2020-10-24T08:06:30.936Z</time>
      </trkpt>
      <trkpt lat="46.50665" lon="8.29523">
        <ele>1457</ele>
        <time>2020-10-24T08:06:31.937Z</time>
      </trkpt>
      <trkpt lat="46.50663" lon="8.29523">
        <ele>1457</ele>
        <time>2020-10-24T08:06:32.936Z</time>
      </trkpt>
      <trkpt lat="46.5066" lon="8.29521">
        <ele>1456</ele>
        <time>2020-10-24T08:06:33.936Z</time>
      </trkpt>
      <trkpt lat="46.50657" lon="8.29518">
        <ele>1455</ele>
        <time>2020-10-24T08:06:34.936Z</time>
      </trkpt>
      <trkpt lat="46.50655" lon="8.29516">
        <ele>1454</ele>
        <time>2020-10-24T08:06:35.936Z</time>
      </trkpt>
      <trkpt lat="46.50653" lon="8.29513">
        <ele>1453</ele>
        <time>2020-10-24T08:06:36.936Z</time>
      </trkpt>
      <trkpt lat="46.50651" lon="8.2951">
        <ele>1453</ele>
        <time>2020-10-24T08:06:37.936Z</time>
      </trkpt>
      <trkpt lat="46.50648" lon="8.29507">
        <ele>1452</ele>
        <time>2020-10-24T08:06:38.936Z</time>
      </trkpt>
      <trkpt lat="46.50646" lon="8.29504">
        <ele>1451</ele>
        <time>2020-10-24T08:06:39.936Z</time>
      </trkpt>
      <trkpt lat="46.50643" lon="8.29501">
        <ele>1450</ele>
        <time>2020-10-24T08:06:40.936Z</time>
      </trkpt>
      <trkpt lat="46.50641" lon="8.29499">
        <ele>1449</ele>
        <time>2020-10-24T08:06:41.936Z</time>
      </trkpt>
      <trkpt lat="46.50638" lon="8.29496">
        <ele>1448</ele>
        <time>2020-10-24T08:06:42.936Z</time>
      </trkpt>
      <trkpt lat="46.50635" lon="8.29493">
        <ele>1447</ele>
        <time>2020-10-24T08:06:43.936Z</time>
      </trkpt>
      <trkpt lat="46.50633" lon="8.2949">
        <ele>1447</ele>
        <time>2020-10-24T08:06:44.936Z</time>
      </trkpt>
      <trkpt lat="46.5063" lon="8.29488">
        <ele>1446</ele>
        <time>2020-10-24T08:06:45.937Z</time>
      </trkpt>
      <trkpt lat="46.50626" lon="8.29485">
        <ele>1446</ele>
        <time>2020-10-24T08:06:46.937Z</time>
      </trkpt>
      <trkpt lat="46.50623" lon="8.29483">
        <ele>1446</ele>
        <time>2020-10-24T08:06:47.936Z</time>
      </trkpt>
      <trkpt lat="46.50619" lon="8.29481">
        <ele>1445</ele>
        <time>2020-10-24T08:06:48.936Z</time>
      </trkpt>
      <trkpt lat="46.50616" lon="8.2948">
        <ele>1445</ele>
        <time>2020-10-24T08:06:49.936Z</time>
      </trkpt>
      <trkpt lat="46.50612" lon="8.29478">
        <ele>1445</ele>
        <time>2020-10-24T08:06:50.936Z</time>
      </trkpt>
      <trkpt lat="46.50608" lon="8.29477">
        <ele>1445</ele>
        <time>2020-10-24T08:06:51.936Z</time>
      </trkpt>
      <trkpt lat="46.50605" lon="8.29475">
        <ele>1446</ele>
        <time>2020-10-24T08:06:52.936Z</time>
      </trkpt>
      <trkpt lat="46.50602" lon="8.29473">
        <ele>1446</ele>
        <time>2020-10-24T08:06:53.936Z</time>
      </trkpt>
      <trkpt lat="46.50599" lon="8.2947">
        <ele>1446</ele>
        <time>2020-10-24T08:06:54.936Z</time>
      </trkpt>
      <trkpt lat="46.50596" lon="8.29468">
        <ele>1446</ele>
        <time>2020-10-24T08:06:55.936Z</time>
      </trkpt>
      <trkpt lat="46.50594" lon="8.29464">
        <ele>1446</ele>
        <time>2020-10-24T08:06:56.936Z</time>
      </trkpt>
      <trkpt lat="46.50591" lon="8.29461">
        <ele>1445</ele>
        <time>2020-10-24T08:06:57.936Z</time>
      </trkpt>
      <trkpt lat="46.50588" lon="8.29459">
        <ele>1445</ele>
        <time>2020-10-24T08:06:58.936Z</time>
      </trkpt>
      <trkpt lat="46.50585" lon="8.29456">
        <ele>1444</ele>
        <time>2020-10-24T08:06:59.936Z</time>
      </trkpt>
      <trkpt lat="46.50582" lon="8.29453">
        <ele>1444</ele>
        <time>2020-10-24T08:07:00.936Z</time>
      </trkpt>
      <trkpt lat="46.50579" lon="8.2945">
        <ele>1444</ele>
        <time>2020-10-24T08:07:01.936Z</time>
      </trkpt>
      <trkpt lat="46.50576" lon="8.29447">
        <ele>1443</ele>
        <time>2020-10-24T08:07:02.936Z</time>
      </trkpt>
      <trkpt lat="46.50572" lon="8.29444">
        <ele>1443</ele>
        <time>2020-10-24T08:07:03.936Z</time>
      </trkpt>
      <trkpt lat="46.50569" lon="8.29441">
        <ele>1443</ele>
        <time>2020-10-24T08:07:04.936Z</time>
      </trkpt>
      <trkpt lat="46.50566" lon="8.29438">
        <ele>1442</ele>
        <time>2020-10-24T08:07:05.937Z</time>
      </trkpt>
      <trkpt lat="46.50563" lon="8.29436">
        <ele>1442</ele>
        <time>2020-10-24T08:07:06.936Z</time>
      </trkpt>
      <trkpt lat="46.5056" lon="8.29433">
        <ele>1442</ele>
        <time>2020-10-24T08:07:07.936Z</time>
      </trkpt>
      <trkpt lat="46.50556" lon="8.29431">
        <ele>1442</ele>
        <time>2020-10-24T08:07:08.936Z</time>
      </trkpt>
      <trkpt lat="46.50553" lon="8.29428">
        <ele>1441</ele>
        <time>2020-10-24T08:07:09.936Z</time>
      </trkpt>
      <trkpt lat="46.5055" lon="8.29426">
        <ele>1441</ele>
        <time>2020-10-24T08:07:10.937Z</time>
      </trkpt>
      <trkpt lat="46.50547" lon="8.29424">
        <ele>1441</ele>
        <time>2020-10-24T08:07:11.936Z</time>
      </trkpt>
      <trkpt lat="46.50544" lon="8.29422">
        <ele>1440</ele>
        <time>2020-10-24T08:07:12.937Z</time>
      </trkpt>
      <trkpt lat="46.50541" lon="8.2942">
        <ele>1439</ele>
        <time>2020-10-24T08:07:13.937Z</time>
      </trkpt>
      <trkpt lat="46.50538" lon="8.29417">
        <ele>1439</ele>
        <time>2020-10-24T08:07:14.937Z</time>
      </trkpt>
      <trkpt lat="46.50536" lon="8.29415">
        <ele>1438</ele>
        <time>2020-10-24T08:07:15.937Z</time>
      </trkpt>
      <trkpt lat="46.50533" lon="8.29412">
        <ele>1438</ele>
        <time>2020-10-24T08:07:16.937Z</time>
      </trkpt>
      <trkpt lat="46.50531" lon="8.29409">
        <ele>1437</ele>
        <time>2020-10-24T08:07:17.936Z</time>
      </trkpt>
      <trkpt lat="46.50528" lon="8.29405">
        <ele>1436</ele>
        <time>2020-10-24T08:07:18.936Z</time>
      </trkpt>
      <trkpt lat="46.50525" lon="8.29402">
        <ele>1436</ele>
        <time>2020-10-24T08:07:19.937Z</time>
      </trkpt>
      <trkpt lat="46.50523" lon="8.29399">
        <ele>1435</ele>
        <time>2020-10-24T08:07:20.937Z</time>
      </trkpt>
      <trkpt lat="46.50521" lon="8.29396">
        <ele>1435</ele>
        <time>2020-10-24T08:07:21.937Z</time>
      </trkpt>
      <trkpt lat="46.50519" lon="8.29393">
        <ele>1435</ele>
        <time>2020-10-24T08:07:22.937Z</time>
      </trkpt>
      <trkpt lat="46.50517" lon="8.2939">
        <ele>1434</ele>
        <time>2020-10-24T08:07:23.937Z</time>
      </trkpt>
      <trkpt lat="46.50515" lon="8.29386">
        <ele>1434</ele>
        <time>2020-10-24T08:07:24.937Z</time>
      </trkpt>
      <trkpt lat="46.50512" lon="8.29384">
        <ele>1433</ele>
        <time>2020-10-24T08:07:25.937Z</time>
      </trkpt>
      <trkpt lat="46.5051" lon="8.29381">
        <ele>1433</ele>
        <time>2020-10-24T08:07:26.937Z</time>
      </trkpt>
      <trkpt lat="46.50508" lon="8.29378">
        <ele>1433</ele>
        <time>2020-10-24T08:07:27.937Z</time>
      </trkpt>
      <trkpt lat="46.50506" lon="8.29376">
        <ele>1433</ele>
        <time>2020-10-24T08:07:28.937Z</time>
      </trkpt>
      <trkpt lat="46.50503" lon="8.29372">
        <ele>1432</ele>
        <time>2020-10-24T08:07:29.937Z</time>
      </trkpt>
      <trkpt lat="46.50501" lon="8.29369">
        <ele>1432</ele>
        <time>2020-10-24T08:07:30.937Z</time>
      </trkpt>
      <trkpt lat="46.50499" lon="8.29366">
        <ele>1432</ele>
        <time>2020-10-24T08:07:31.936Z</time>
      </trkpt>
      <trkpt lat="46.50497" lon="8.29363">
        <ele>1432</ele>
        <time>2020-10-24T08:07:32.936Z</time>
      </trkpt>
      <trkpt lat="46.50494" lon="8.2936">
        <ele>1432</ele>
        <time>2020-10-24T08:07:33.937Z</time>
      </trkpt>
      <trkpt lat="46.50493" lon="8.29359">
        <ele>1431</ele>
        <time>2020-10-24T08:07:34.936Z</time>
      </trkpt>
      <trkpt lat="46.5049" lon="8.29359">
        <ele>1431</ele>
        <time>2020-10-24T08:07:35.936Z</time>
      </trkpt>
      <trkpt lat="46.50489" lon="8.29361">
        <ele>1431</ele>
        <time>2020-10-24T08:07:36.936Z</time>
      </trkpt>
      <trkpt lat="46.50489" lon="8.29364">
        <ele>1431</ele>
        <time>2020-10-24T08:07:37.936Z</time>
      </trkpt>
      <trkpt lat="46.50489" lon="8.29367">
        <ele>1430</ele>
        <time>2020-10-24T08:07:38.937Z</time>
      </trkpt>
      <trkpt lat="46.5049" lon="8.29371">
        <ele>1430</ele>
        <time>2020-10-24T08:07:39.936Z</time>
      </trkpt>
      <trkpt lat="46.50491" lon="8.29376">
        <ele>1429</ele>
        <time>2020-10-24T08:07:40.937Z</time>
      </trkpt>
      <trkpt lat="46.50493" lon="8.2938">
        <ele>1429</ele>
        <time>2020-10-24T08:07:41.937Z</time>
      </trkpt>
      <trkpt lat="46.50494" lon="8.29384">
        <ele>1428</ele>
        <time>2020-10-24T08:07:42.936Z</time>
      </trkpt>
      <trkpt lat="46.50495" lon="8.29388">
        <ele>1428</ele>
        <time>2020-10-24T08:07:43.937Z</time>
      </trkpt>
      <trkpt lat="46.50496" lon="8.29392">
        <ele>1427</ele>
        <time>2020-10-24T08:07:44.937Z</time>
      </trkpt>
      <trkpt lat="46.50498" lon="8.29397">
        <ele>1427</ele>
        <time>2020-10-24T08:07:45.937Z</time>
      </trkpt>
      <trkpt lat="46.50499" lon="8.29402">
        <ele>1427</ele>
        <time>2020-10-24T08:07:46.937Z</time>
      </trkpt>
      <trkpt lat="46.505" lon="8.29407">
        <ele>1427</ele>
        <time>2020-10-24T08:07:47.937Z</time>
      </trkpt>
      <trkpt lat="46.50502" lon="8.29411">
        <ele>1427</ele>
        <time>2020-10-24T08:07:48.937Z</time>
      </trkpt>
      <trkpt lat="46.50503" lon="8.29416">
        <ele>1427</ele>
        <time>2020-10-24T08:07:49.937Z</time>
      </trkpt>
      <trkpt lat="46.50504" lon="8.29421">
        <ele>1427</ele>
        <time>2020-10-24T08:07:50.936Z</time>
      </trkpt>
      <trkpt lat="46.50506" lon="8.29426">
        <ele>1427</ele>
        <time>2020-10-24T08:07:51.937Z</time>
      </trkpt>
      <trkpt lat="46.50507" lon="8.29431">
        <ele>1427</ele>
        <time>2020-10-24T08:07:52.937Z</time>
      </trkpt>
      <trkpt lat="46.50509" lon="8.29435">
        <ele>1426</ele>
        <time>2020-10-24T08:07:53.937Z</time>
      </trkpt>
      <trkpt lat="46.5051" lon="8.2944">
        <ele>1426</ele>
        <time>2020-10-24T08:07:54.937Z</time>
      </trkpt>
      <trkpt lat="46.50512" lon="8.29444">
        <ele>1425</ele>
        <time>2020-10-24T08:07:55.936Z</time>
      </trkpt>
      <trkpt lat="46.50513" lon="8.29449">
        <ele>1425</ele>
        <time>2020-10-24T08:07:56.937Z</time>
      </trkpt>
      <trkpt lat="46.50514" lon="8.29454">
        <ele>1424</ele>
        <time>2020-10-24T08:07:57.937Z</time>
      </trkpt>
      <trkpt lat="46.50516" lon="8.29458">
        <ele>1424</ele>
        <time>2020-10-24T08:07:58.937Z</time>
      </trkpt>
      <trkpt lat="46.50517" lon="8.29463">
        <ele>1423</ele>
        <time>2020-10-24T08:07:59.936Z</time>
      </trkpt>
      <trkpt lat="46.50518" lon="8.29467">
        <ele>1423</ele>
        <time>2020-10-24T08:08:00.936Z</time>
      </trkpt>
      <trkpt lat="46.5052" lon="8.29472">
        <ele>1423</ele>
        <time>2020-10-24T08:08:01.936Z</time>
      </trkpt>
      <trkpt lat="46.50521" lon="8.29477">
        <ele>1422</ele>
        <time>2020-10-24T08:08:02.937Z</time>
      </trkpt>
      <trkpt lat="46.50522" lon="8.29481">
        <ele>1422</ele>
        <time>2020-10-24T08:08:03.937Z</time>
      </trkpt>
      <trkpt lat="46.50523" lon="8.29486">
        <ele>1421</ele>
        <time>2020-10-24T08:08:04.936Z</time>
      </trkpt>
      <trkpt lat="46.50524" lon="8.2949">
        <ele>1421</ele>
        <time>2020-10-24T08:08:05.937Z</time>
      </trkpt>
      <trkpt lat="46.50525" lon="8.29495">
        <ele>1421</ele>
        <time>2020-10-24T08:08:06.937Z</time>
      </trkpt>
      <trkpt lat="46.50526" lon="8.29499">
        <ele>1420</ele>
        <time>2020-10-24T08:08:07.936Z</time>
      </trkpt>
      <trkpt lat="46.50528" lon="8.29505">
        <ele>1420</ele>
        <time>2020-10-24T08:08:08.937Z</time>
      </trkpt>
      <trkpt lat="46.50529" lon="8.29509">
        <ele>1419</ele>
        <time>2020-10-24T08:08:09.936Z</time>
      </trkpt>
      <trkpt lat="46.5053" lon="8.29514">
        <ele>1419</ele>
        <time>2020-10-24T08:08:10.937Z</time>
      </trkpt>
      <trkpt lat="46.50531" lon="8.29519">
        <ele>1418</ele>
        <time>2020-10-24T08:08:11.936Z</time>
      </trkpt>
      <trkpt lat="46.50531" lon="8.29523">
        <ele>1418</ele>
        <time>2020-10-24T08:08:12.936Z</time>
      </trkpt>
      <trkpt lat="46.50532" lon="8.29528">
        <ele>1417</ele>
        <time>2020-10-24T08:08:13.937Z</time>
      </trkpt>
      <trkpt lat="46.50533" lon="8.29533">
        <ele>1417</ele>
        <time>2020-10-24T08:08:14.937Z</time>
      </trkpt>
      <trkpt lat="46.50534" lon="8.29539">
        <ele>1416</ele>
        <time>2020-10-24T08:08:15.936Z</time>
      </trkpt>
      <trkpt lat="46.50534" lon="8.29544">
        <ele>1416</ele>
        <time>2020-10-24T08:08:16.936Z</time>
      </trkpt>
      <trkpt lat="46.50534" lon="8.29549">
        <ele>1415</ele>
        <time>2020-10-24T08:08:17.937Z</time>
      </trkpt>
      <trkpt lat="46.50534" lon="8.29555">
        <ele>1414</ele>
        <time>2020-10-24T08:08:18.937Z</time>
      </trkpt>
      <trkpt lat="46.50535" lon="8.2956">
        <ele>1414</ele>
        <time>2020-10-24T08:08:19.936Z</time>
      </trkpt>
      <trkpt lat="46.50535" lon="8.29564">
        <ele>1413</ele>
        <time>2020-10-24T08:08:20.937Z</time>
      </trkpt>
      <trkpt lat="46.50536" lon="8.2957">
        <ele>1413</ele>
        <time>2020-10-24T08:08:21.937Z</time>
      </trkpt>
      <trkpt lat="46.50537" lon="8.29575">
        <ele>1413</ele>
        <time>2020-10-24T08:08:22.937Z</time>
      </trkpt>
      <trkpt lat="46.50537" lon="8.29579">
        <ele>1413</ele>
        <time>2020-10-24T08:08:23.936Z</time>
      </trkpt>
      <trkpt lat="46.50538" lon="8.29584">
        <ele>1412</ele>
        <time>2020-10-24T08:08:24.936Z</time>
      </trkpt>
      <trkpt lat="46.50539" lon="8.29589">
        <ele>1412</ele>
        <time>2020-10-24T08:08:25.936Z</time>
      </trkpt>
      <trkpt lat="46.50541" lon="8.29594">
        <ele>1411</ele>
        <time>2020-10-24T08:08:26.937Z</time>
      </trkpt>
      <trkpt lat="46.50542" lon="8.29597">
        <ele>1411</ele>
        <time>2020-10-24T08:08:27.937Z</time>
      </trkpt>
      <trkpt lat="46.50543" lon="8.29603">
        <ele>1411</ele>
        <time>2020-10-24T08:08:28.937Z</time>
      </trkpt>
      <trkpt lat="46.50544" lon="8.29608">
        <ele>1411</ele>
        <time>2020-10-24T08:08:29.937Z</time>
      </trkpt>
      <trkpt lat="46.50546" lon="8.29613">
        <ele>1411</ele>
        <time>2020-10-24T08:08:30.937Z</time>
      </trkpt>
      <trkpt lat="46.50547" lon="8.29616">
        <ele>1411</ele>
        <time>2020-10-24T08:08:31.937Z</time>
      </trkpt>
      <trkpt lat="46.50549" lon="8.2962">
        <ele>1411</ele>
        <time>2020-10-24T08:08:32.937Z</time>
      </trkpt>
      <trkpt lat="46.50552" lon="8.29623">
        <ele>1411</ele>
        <time>2020-10-24T08:08:33.937Z</time>
      </trkpt>
      <trkpt lat="46.50555" lon="8.29626">
        <ele>1411</ele>
        <time>2020-10-24T08:08:34.937Z</time>
      </trkpt>
      <trkpt lat="46.50557" lon="8.29629">
        <ele>1410</ele>
        <time>2020-10-24T08:08:35.936Z</time>
      </trkpt>
      <trkpt lat="46.5056" lon="8.29632">
        <ele>1410</ele>
        <time>2020-10-24T08:08:36.936Z</time>
      </trkpt>
      <trkpt lat="46.50563" lon="8.29635">
        <ele>1409</ele>
        <time>2020-10-24T08:08:37.936Z</time>
      </trkpt>
      <trkpt lat="46.50565" lon="8.29638">
        <ele>1409</ele>
        <time>2020-10-24T08:08:38.936Z</time>
      </trkpt>
      <trkpt lat="46.50567" lon="8.29642">
        <ele>1409</ele>
        <time>2020-10-24T08:08:39.937Z</time>
      </trkpt>
      <trkpt lat="46.50569" lon="8.29646">
        <ele>1408</ele>
        <time>2020-10-24T08:08:40.937Z</time>
      </trkpt>
      <trkpt lat="46.5057" lon="8.29651">
        <ele>1408</ele>
        <time>2020-10-24T08:08:41.936Z</time>
      </trkpt>
      <trkpt lat="46.5057" lon="8.29656">
        <ele>1408</ele>
        <time>2020-10-24T08:08:42.937Z</time>
      </trkpt>
      <trkpt lat="46.50571" lon="8.29661">
        <ele>1407</ele>
        <time>2020-10-24T08:08:43.936Z</time>
      </trkpt>
      <trkpt lat="46.50571" lon="8.29667">
        <ele>1406</ele>
        <time>2020-10-24T08:08:44.937Z</time>
      </trkpt>
      <trkpt lat="46.50572" lon="8.29671">
        <ele>1406</ele>
        <time>2020-10-24T08:08:45.937Z</time>
      </trkpt>
      <trkpt lat="46.50573" lon="8.29676">
        <ele>1405</ele>
        <time>2020-10-24T08:08:46.937Z</time>
      </trkpt>
      <trkpt lat="46.50573" lon="8.29681">
        <ele>1405</ele>
        <time>2020-10-24T08:08:47.936Z</time>
      </trkpt>
      <trkpt lat="46.50574" lon="8.29686">
        <ele>1404</ele>
        <time>2020-10-24T08:08:48.937Z</time>
      </trkpt>
      <trkpt lat="46.50576" lon="8.29691">
        <ele>1404</ele>
        <time>2020-10-24T08:08:49.937Z</time>
      </trkpt>
      <trkpt lat="46.50577" lon="8.29695">
        <ele>1404</ele>
        <time>2020-10-24T08:08:50.937Z</time>
      </trkpt>
      <trkpt lat="46.50578" lon="8.297">
        <ele>1404</ele>
        <time>2020-10-24T08:08:51.937Z</time>
      </trkpt>
      <trkpt lat="46.50579" lon="8.29705">
        <ele>1404</ele>
        <time>2020-10-24T08:08:52.937Z</time>
      </trkpt>
      <trkpt lat="46.5058" lon="8.2971">
        <ele>1403</ele>
        <time>2020-10-24T08:08:53.937Z</time>
      </trkpt>
      <trkpt lat="46.50581" lon="8.29715">
        <ele>1403</ele>
        <time>2020-10-24T08:08:54.937Z</time>
      </trkpt>
      <trkpt lat="46.50582" lon="8.29719">
        <ele>1403</ele>
        <time>2020-10-24T08:08:55.937Z</time>
      </trkpt>
      <trkpt lat="46.50583" lon="8.29724">
        <ele>1402</ele>
        <time>2020-10-24T08:08:56.936Z</time>
      </trkpt>
      <trkpt lat="46.50585" lon="8.29729">
        <ele>1402</ele>
        <time>2020-10-24T08:08:57.937Z</time>
      </trkpt>
      <trkpt lat="46.50586" lon="8.29734">
        <ele>1401</ele>
        <time>2020-10-24T08:08:58.937Z</time>
      </trkpt>
      <trkpt lat="46.50587" lon="8.29739">
        <ele>1400</ele>
        <time>2020-10-24T08:08:59.937Z</time>
      </trkpt>
      <trkpt lat="46.50588" lon="8.29744">
        <ele>1400</ele>
        <time>2020-10-24T08:09:00.937Z</time>
      </trkpt>
      <trkpt lat="46.50589" lon="8.29749">
        <ele>1399</ele>
        <time>2020-10-24T08:09:01.937Z</time>
      </trkpt>
      <trkpt lat="46.50591" lon="8.29754">
        <ele>1398</ele>
        <time>2020-10-24T08:09:02.937Z</time>
      </trkpt>
      <trkpt lat="46.50592" lon="8.29759">
        <ele>1398</ele>
        <time>2020-10-24T08:09:03.937Z</time>
      </trkpt>
      <trkpt lat="46.50593" lon="8.29765">
        <ele>1397</ele>
        <time>2020-10-24T08:09:04.937Z</time>
      </trkpt>
      <trkpt lat="46.50594" lon="8.2977">
        <ele>1397</ele>
        <time>2020-10-24T08:09:05.936Z</time>
      </trkpt>
      <trkpt lat="46.50595" lon="8.29775">
        <ele>1397</ele>
        <time>2020-10-24T08:09:06.937Z</time>
      </trkpt>
      <trkpt lat="46.50596" lon="8.29781">
        <ele>1396</ele>
        <time>2020-10-24T08:09:07.936Z</time>
      </trkpt>
      <trkpt lat="46.50597" lon="8.29786">
        <ele>1396</ele>
        <time>2020-10-24T08:09:08.937Z</time>
      </trkpt>
      <trkpt lat="46.50598" lon="8.29791">
        <ele>1396</ele>
        <time>2020-10-24T08:09:09.937Z</time>
      </trkpt>
      <trkpt lat="46.50599" lon="8.29796">
        <ele>1396</ele>
        <time>2020-10-24T08:09:10.937Z</time>
      </trkpt>
      <trkpt lat="46.506" lon="8.29801">
        <ele>1395</ele>
        <time>2020-10-24T08:09:11.936Z</time>
      </trkpt>
      <trkpt lat="46.50602" lon="8.29806">
        <ele>1395</ele>
        <time>2020-10-24T08:09:12.936Z</time>
      </trkpt>
      <trkpt lat="46.50603" lon="8.2981">
        <ele>1395</ele>
        <time>2020-10-24T08:09:13.936Z</time>
      </trkpt>
      <trkpt lat="46.50605" lon="8.29815">
        <ele>1395</ele>
        <time>2020-10-24T08:09:14.937Z</time>
      </trkpt>
      <trkpt lat="46.50607" lon="8.2982">
        <ele>1394</ele>
        <time>2020-10-24T08:09:15.937Z</time>
      </trkpt>
      <trkpt lat="46.50608" lon="8.29825">
        <ele>1394</ele>
        <time>2020-10-24T08:09:16.936Z</time>
      </trkpt>
      <trkpt lat="46.5061" lon="8.29829">
        <ele>1394</ele>
        <time>2020-10-24T08:09:17.936Z</time>
      </trkpt>
      <trkpt lat="46.50612" lon="8.29833">
        <ele>1394</ele>
        <time>2020-10-24T08:09:18.937Z</time>
      </trkpt>
      <trkpt lat="46.50614" lon="8.29838">
        <ele>1393</ele>
        <time>2020-10-24T08:09:19.937Z</time>
      </trkpt>
      <trkpt lat="46.50616" lon="8.29842">
        <ele>1393</ele>
        <time>2020-10-24T08:09:20.937Z</time>
      </trkpt>
      <trkpt lat="46.50617" lon="8.29847">
        <ele>1392</ele>
        <time>2020-10-24T08:09:21.937Z</time>
      </trkpt>
      <trkpt lat="46.50617" lon="8.29853">
        <ele>1392</ele>
        <time>2020-10-24T08:09:22.937Z</time>
      </trkpt>
      <trkpt lat="46.50618" lon="8.29858">
        <ele>1392</ele>
        <time>2020-10-24T08:09:23.936Z</time>
      </trkpt>
      <trkpt lat="46.50619" lon="8.29864">
        <ele>1391</ele>
        <time>2020-10-24T08:09:24.937Z</time>
      </trkpt>
      <trkpt lat="46.50619" lon="8.29869">
        <ele>1391</ele>
        <time>2020-10-24T08:09:25.937Z</time>
      </trkpt>
      <trkpt lat="46.5062" lon="8.29874">
        <ele>1391</ele>
        <time>2020-10-24T08:09:26.936Z</time>
      </trkpt>
      <trkpt lat="46.5062" lon="8.29879">
        <ele>1390</ele>
        <time>2020-10-24T08:09:27.937Z</time>
      </trkpt>
      <trkpt lat="46.50621" lon="8.29884">
        <ele>1390</ele>
        <time>2020-10-24T08:09:28.936Z</time>
      </trkpt>
      <trkpt lat="46.50622" lon="8.29889">
        <ele>1389</ele>
        <time>2020-10-24T08:09:29.937Z</time>
      </trkpt>
      <trkpt lat="46.50623" lon="8.29895">
        <ele>1389</ele>
        <time>2020-10-24T08:09:30.937Z</time>
      </trkpt>
      <trkpt lat="46.50624" lon="8.299">
        <ele>1389</ele>
        <time>2020-10-24T08:09:31.937Z</time>
      </trkpt>
      <trkpt lat="46.50625" lon="8.29906">
        <ele>1388</ele>
        <time>2020-10-24T08:09:32.936Z</time>
      </trkpt>
      <trkpt lat="46.50626" lon="8.29911">
        <ele>1387</ele>
        <time>2020-10-24T08:09:33.937Z</time>
      </trkpt>
      <trkpt lat="46.50627" lon="8.29917">
        <ele>1387</ele>
        <time>2020-10-24T08:09:34.937Z</time>
      </trkpt>
      <trkpt lat="46.50627" lon="8.29922">
        <ele>1387</ele>
        <time>2020-10-24T08:09:35.937Z</time>
      </trkpt>
      <trkpt lat="46.50628" lon="8.29927">
        <ele>1387</ele>
        <time>2020-10-24T08:09:36.937Z</time>
      </trkpt>
      <trkpt lat="46.50628" lon="8.29932">
        <ele>1386</ele>
        <time>2020-10-24T08:09:37.937Z</time>
      </trkpt>
      <trkpt lat="46.50629" lon="8.29937">
        <ele>1386</ele>
        <time>2020-10-24T08:09:38.937Z</time>
      </trkpt>
      <trkpt lat="46.5063" lon="8.29942">
        <ele>1386</ele>
        <time>2020-10-24T08:09:39.937Z</time>
      </trkpt>
      <trkpt lat="46.5063" lon="8.29947">
        <ele>1386</ele>
        <time>2020-10-24T08:09:40.937Z</time>
      </trkpt>
      <trkpt lat="46.50631" lon="8.29953">
        <ele>1385</ele>
        <time>2020-10-24T08:09:41.937Z</time>
      </trkpt>
      <trkpt lat="46.50632" lon="8.29957">
        <ele>1385</ele>
        <time>2020-10-24T08:09:42.936Z</time>
      </trkpt>
      <trkpt lat="46.50634" lon="8.29961">
        <ele>1385</ele>
        <time>2020-10-24T08:09:43.937Z</time>
      </trkpt>
      <trkpt lat="46.50637" lon="8.29963">
        <ele>1384</ele>
        <time>2020-10-24T08:09:44.936Z</time>
      </trkpt>
      <trkpt lat="46.50639" lon="8.29965">
        <ele>1384</ele>
        <time>2020-10-24T08:09:45.937Z</time>
      </trkpt>
      <trkpt lat="46.50642" lon="8.29967">
        <ele>1384</ele>
        <time>2020-10-24T08:09:46.937Z</time>
      </trkpt>
      <trkpt lat="46.50646" lon="8.2997">
        <ele>1383</ele>
        <time>2020-10-24T08:09:47.937Z</time>
      </trkpt>
      <trkpt lat="46.50649" lon="8.29972">
        <ele>1383</ele>
        <time>2020-10-24T08:09:48.937Z</time>
      </trkpt>
      <trkpt lat="46.50652" lon="8.29974">
        <ele>1383</ele>
        <time>2020-10-24T08:09:49.936Z</time>
      </trkpt>
      <trkpt lat="46.50655" lon="8.29977">
        <ele>1382</ele>
        <time>2020-10-24T08:09:50.937Z</time>
      </trkpt>
      <trkpt lat="46.50657" lon="8.29981">
        <ele>1382</ele>
        <time>2020-10-24T08:09:51.936Z</time>
      </trkpt>
      <trkpt lat="46.50659" lon="8.29985">
        <ele>1381</ele>
        <time>2020-10-24T08:09:52.936Z</time>
      </trkpt>
      <trkpt lat="46.5066" lon="8.2999">
        <ele>1381</ele>
        <time>2020-10-24T08:09:53.937Z</time>
      </trkpt>
      <trkpt lat="46.50661" lon="8.29995">
        <ele>1380</ele>
        <time>2020-10-24T08:09:54.937Z</time>
      </trkpt>
      <trkpt lat="46.50662" lon="8.3">
        <ele>1380</ele>
        <time>2020-10-24T08:09:55.937Z</time>
      </trkpt>
      <trkpt lat="46.50662" lon="8.30005">
        <ele>1379</ele>
        <time>2020-10-24T08:09:56.936Z</time>
      </trkpt>
      <trkpt lat="46.50661" lon="8.3001">
        <ele>1378</ele>
        <time>2020-10-24T08:09:57.937Z</time>
      </trkpt>
      <trkpt lat="46.50661" lon="8.30015">
        <ele>1377</ele>
        <time>2020-10-24T08:09:58.937Z</time>
      </trkpt>
      <trkpt lat="46.5066" lon="8.3002">
        <ele>1376</ele>
        <time>2020-10-24T08:09:59.936Z</time>
      </trkpt>
      <trkpt lat="46.5066" lon="8.30025">
        <ele>1376</ele>
        <time>2020-10-24T08:10:00.937Z</time>
      </trkpt>
      <trkpt lat="46.50659" lon="8.3003">
        <ele>1376</ele>
        <time>2020-10-24T08:10:01.936Z</time>
      </trkpt>
      <trkpt lat="46.50659" lon="8.30035">
        <ele>1376</ele>
        <time>2020-10-24T08:10:02.937Z</time>
      </trkpt>
      <trkpt lat="46.50658" lon="8.3004">
        <ele>1375</ele>
        <time>2020-10-24T08:10:03.937Z</time>
      </trkpt>
      <trkpt lat="46.50659" lon="8.30045">
        <ele>1375</ele>
        <time>2020-10-24T08:10:04.937Z</time>
      </trkpt>
      <trkpt lat="46.50659" lon="8.3005">
        <ele>1374</ele>
        <time>2020-10-24T08:10:05.937Z</time>
      </trkpt>
      <trkpt lat="46.5066" lon="8.30055">
        <ele>1374</ele>
        <time>2020-10-24T08:10:06.937Z</time>
      </trkpt>
      <trkpt lat="46.50661" lon="8.3006">
        <ele>1373</ele>
        <time>2020-10-24T08:10:07.936Z</time>
      </trkpt>
      <trkpt lat="46.50663" lon="8.30066">
        <ele>1373</ele>
        <time>2020-10-24T08:10:08.937Z</time>
      </trkpt>
      <trkpt lat="46.50664" lon="8.30071">
        <ele>1372</ele>
        <time>2020-10-24T08:10:09.936Z</time>
      </trkpt>
      <trkpt lat="46.50665" lon="8.30076">
        <ele>1372</ele>
        <time>2020-10-24T08:10:10.936Z</time>
      </trkpt>
      <trkpt lat="46.50666" lon="8.30081">
        <ele>1372</ele>
        <time>2020-10-24T08:10:11.937Z</time>
      </trkpt>
      <trkpt lat="46.50667" lon="8.30086">
        <ele>1372</ele>
        <time>2020-10-24T08:10:12.937Z</time>
      </trkpt>
      <trkpt lat="46.50669" lon="8.30091">
        <ele>1372</ele>
        <time>2020-10-24T08:10:13.937Z</time>
      </trkpt>
      <trkpt lat="46.5067" lon="8.30096">
        <ele>1371</ele>
        <time>2020-10-24T08:10:14.937Z</time>
      </trkpt>
      <trkpt lat="46.50671" lon="8.301">
        <ele>1371</ele>
        <time>2020-10-24T08:10:15.936Z</time>
      </trkpt>
      <trkpt lat="46.50673" lon="8.30105">
        <ele>1371</ele>
        <time>2020-10-24T08:10:16.937Z</time>
      </trkpt>
      <trkpt lat="46.50674" lon="8.30109">
        <ele>1370</ele>
        <time>2020-10-24T08:10:17.937Z</time>
      </trkpt>
      <trkpt lat="46.50676" lon="8.30114">
        <ele>1370</ele>
        <time>2020-10-24T08:10:18.937Z</time>
      </trkpt>
      <trkpt lat="46.50678" lon="8.30118">
        <ele>1369</ele>
        <time>2020-10-24T08:10:19.937Z</time>
      </trkpt>
      <trkpt lat="46.50679" lon="8.30123">
        <ele>1369</ele>
        <time>2020-10-24T08:10:20.936Z</time>
      </trkpt>
      <trkpt lat="46.50681" lon="8.30128">
        <ele>1369</ele>
        <time>2020-10-24T08:10:21.936Z</time>
      </trkpt>
      <trkpt lat="46.50682" lon="8.30133">
        <ele>1369</ele>
        <time>2020-10-24T08:10:22.937Z</time>
      </trkpt>
      <trkpt lat="46.50684" lon="8.30138">
        <ele>1369</ele>
        <time>2020-10-24T08:10:23.936Z</time>
      </trkpt>
      <trkpt lat="46.50685" lon="8.30142">
        <ele>1368</ele>
        <time>2020-10-24T08:10:24.936Z</time>
      </trkpt>
      <trkpt lat="46.50686" lon="8.30147">
        <ele>1368</ele>
        <time>2020-10-24T08:10:25.937Z</time>
      </trkpt>
      <trkpt lat="46.50687" lon="8.30152">
        <ele>1368</ele>
        <time>2020-10-24T08:10:26.936Z</time>
      </trkpt>
      <trkpt lat="46.50688" lon="8.30157">
        <ele>1368</ele>
        <time>2020-10-24T08:10:27.937Z</time>
      </trkpt>
      <trkpt lat="46.50689" lon="8.30161">
        <ele>1367</ele>
        <time>2020-10-24T08:10:28.937Z</time>
      </trkpt>
      <trkpt lat="46.5069" lon="8.30166">
        <ele>1367</ele>
        <time>2020-10-24T08:10:29.937Z</time>
      </trkpt>
      <trkpt lat="46.50691" lon="8.30171">
        <ele>1366</ele>
        <time>2020-10-24T08:10:30.937Z</time>
      </trkpt>
      <trkpt lat="46.50691" lon="8.30177">
        <ele>1366</ele>
        <time>2020-10-24T08:10:31.937Z</time>
      </trkpt>
      <trkpt lat="46.50692" lon="8.30182">
        <ele>1365</ele>
        <time>2020-10-24T08:10:32.937Z</time>
      </trkpt>
      <trkpt lat="46.50692" lon="8.30187">
        <ele>1365</ele>
        <time>2020-10-24T08:10:33.937Z</time>
      </trkpt>
      <trkpt lat="46.50692" lon="8.30192">
        <ele>1364</ele>
        <time>2020-10-24T08:10:34.937Z</time>
      </trkpt>
      <trkpt lat="46.50692" lon="8.30197">
        <ele>1363</ele>
        <time>2020-10-24T08:10:35.937Z</time>
      </trkpt>
      <trkpt lat="46.50691" lon="8.30202">
        <ele>1363</ele>
        <time>2020-10-24T08:10:36.936Z</time>
      </trkpt>
      <trkpt lat="46.50689" lon="8.30207">
        <ele>1363</ele>
        <time>2020-10-24T08:10:37.936Z</time>
      </trkpt>
      <trkpt lat="46.50688" lon="8.30211">
        <ele>1362</ele>
        <time>2020-10-24T08:10:38.937Z</time>
      </trkpt>
      <trkpt lat="46.50686" lon="8.30216">
        <ele>1362</ele>
        <time>2020-10-24T08:10:39.937Z</time>
      </trkpt>
      <trkpt lat="46.50684" lon="8.3022">
        <ele>1361</ele>
        <time>2020-10-24T08:10:40.937Z</time>
      </trkpt>
      <trkpt lat="46.50682" lon="8.30224">
        <ele>1361</ele>
        <time>2020-10-24T08:10:41.936Z</time>
      </trkpt>
      <trkpt lat="46.5068" lon="8.30228">
        <ele>1361</ele>
        <time>2020-10-24T08:10:42.936Z</time>
      </trkpt>
      <trkpt lat="46.50678" lon="8.30232">
        <ele>1361</ele>
        <time>2020-10-24T08:10:43.936Z</time>
      </trkpt>
      <trkpt lat="46.50676" lon="8.30236">
        <ele>1360</ele>
        <time>2020-10-24T08:10:44.937Z</time>
      </trkpt>
      <trkpt lat="46.50674" lon="8.3024">
        <ele>1360</ele>
        <time>2020-10-24T08:10:45.937Z</time>
      </trkpt>
      <trkpt lat="46.50672" lon="8.30244">
        <ele>1360</ele>
        <time>2020-10-24T08:10:46.936Z</time>
      </trkpt>
      <trkpt lat="46.5067" lon="8.30248">
        <ele>1360</ele>
        <time>2020-10-24T08:10:47.937Z</time>
      </trkpt>
      <trkpt lat="46.50668" lon="8.30253">
        <ele>1360</ele>
        <time>2020-10-24T08:10:48.937Z</time>
      </trkpt>
      <trkpt lat="46.50667" lon="8.30257">
        <ele>1359</ele>
        <time>2020-10-24T08:10:49.936Z</time>
      </trkpt>
      <trkpt lat="46.50665" lon="8.30261">
        <ele>1359</ele>
        <time>2020-10-24T08:10:50.936Z</time>
      </trkpt>
      <trkpt lat="46.50664" lon="8.30265">
        <ele>1359</ele>
        <time>2020-10-24T08:10:51.936Z</time>
      </trkpt>
      <trkpt lat="46.50664" lon="8.3027">
        <ele>1359</ele>
        <time>2020-10-24T08:10:52.937Z</time>
      </trkpt>
      <trkpt lat="46.50664" lon="8.30274">
        <ele>1359</ele>
        <time>2020-10-24T08:10:53.937Z</time>
      </trkpt>
      <trkpt lat="46.50664" lon="8.30279">
        <ele>1360</ele>
        <time>2020-10-24T08:10:54.937Z</time>
      </trkpt>
      <trkpt lat="46.50664" lon="8.30283">
        <ele>1359</ele>
        <time>2020-10-24T08:10:55.937Z</time>
      </trkpt>
      <trkpt lat="46.50664" lon="8.30288">
        <ele>1359</ele>
        <time>2020-10-24T08:10:56.937Z</time>
      </trkpt>
      <trkpt lat="46.50664" lon="8.30293">
        <ele>1359</ele>
        <time>2020-10-24T08:10:57.937Z</time>
      </trkpt>
      <trkpt lat="46.50664" lon="8.30297">
        <ele>1358</ele>
        <time>2020-10-24T08:10:58.936Z</time>
      </trkpt>
      <trkpt lat="46.50665" lon="8.30302">
        <ele>1358</ele>
        <time>2020-10-24T08:10:59.936Z</time>
      </trkpt>
      <trkpt lat="46.50665" lon="8.30307">
        <ele>1357</ele>
        <time>2020-10-24T08:11:00.937Z</time>
      </trkpt>
      <trkpt lat="46.50665" lon="8.30311">
        <ele>1357</ele>
        <time>2020-10-24T08:11:01.936Z</time>
      </trkpt>
      <trkpt lat="46.50665" lon="8.30316">
        <ele>1357</ele>
        <time>2020-10-24T08:11:02.936Z</time>
      </trkpt>
      <trkpt lat="46.50665" lon="8.3032">
        <ele>1357</ele>
        <time>2020-10-24T08:11:03.937Z</time>
      </trkpt>
      <trkpt lat="46.50665" lon="8.30323">
        <ele>1356</ele>
        <time>2020-10-24T08:11:04.936Z</time>
      </trkpt>
      <trkpt lat="46.50664" lon="8.30327">
        <ele>1356</ele>
        <time>2020-10-24T08:11:05.936Z</time>
      </trkpt>
      <trkpt lat="46.50663" lon="8.30331">
        <ele>1355</ele>
        <time>2020-10-24T08:11:06.936Z</time>
      </trkpt>
      <trkpt lat="46.50662" lon="8.30335">
        <ele>1355</ele>
        <time>2020-10-24T08:11:07.936Z</time>
      </trkpt>
      <trkpt lat="46.5066" lon="8.30338">
        <ele>1355</ele>
        <time>2020-10-24T08:11:08.937Z</time>
      </trkpt>
      <trkpt lat="46.50659" lon="8.3034">
        <ele>1355</ele>
        <time>2020-10-24T08:11:09.936Z</time>
      </trkpt>
      <trkpt lat="46.50657" lon="8.30343">
        <ele>1355</ele>
        <time>2020-10-24T08:11:10.936Z</time>
      </trkpt>
      <trkpt lat="46.50656" lon="8.30345">
        <ele>1355</ele>
        <time>2020-10-24T08:11:11.936Z</time>
      </trkpt>
      <trkpt lat="46.50654" lon="8.30348">
        <ele>1355</ele>
        <time>2020-10-24T08:11:12.936Z</time>
      </trkpt>
      <trkpt lat="46.50653" lon="8.30351">
        <ele>1355</ele>
        <time>2020-10-24T08:11:13.937Z</time>
      </trkpt>
      <trkpt lat="46.50651" lon="8.30355">
        <ele>1356</ele>
        <time>2020-10-24T08:11:14.936Z</time>
      </trkpt>
      <trkpt lat="46.5065" lon="8.30358">
        <ele>1356</ele>
        <time>2020-10-24T08:11:15.936Z</time>
      </trkpt>
      <trkpt lat="46.50648" lon="8.3036">
        <ele>1356</ele>
        <time>2020-10-24T08:11:16.936Z</time>
      </trkpt>
      <trkpt lat="46.50645" lon="8.30362">
        <ele>1356</ele>
        <time>2020-10-24T08:11:17.936Z</time>
      </trkpt>
      <trkpt lat="46.50643" lon="8.30364">
        <ele>1356</ele>
        <time>2020-10-24T08:11:18.936Z</time>
      </trkpt>
      <trkpt lat="46.50641" lon="8.30366">
        <ele>1355</ele>
        <time>2020-10-24T08:11:19.936Z</time>
      </trkpt>
      <trkpt lat="46.50639" lon="8.30369">
        <ele>1355</ele>
        <time>2020-10-24T08:11:20.937Z</time>
      </trkpt>
      <trkpt lat="46.50637" lon="8.30371">
        <ele>1354</ele>
        <time>2020-10-24T08:11:21.936Z</time>
      </trkpt>
      <trkpt lat="46.50635" lon="8.30374">
        <ele>1353</ele>
        <time>2020-10-24T08:11:22.936Z</time>
      </trkpt>
      <trkpt lat="46.50633" lon="8.30377">
        <ele>1353</ele>
        <time>2020-10-24T08:11:23.936Z</time>
      </trkpt>
      <trkpt lat="46.50632" lon="8.3038">
        <ele>1353</ele>
        <time>2020-10-24T08:11:24.936Z</time>
      </trkpt>
      <trkpt lat="46.50632" lon="8.30384">
        <ele>1352</ele>
        <time>2020-10-24T08:11:25.936Z</time>
      </trkpt>
      <trkpt lat="46.50632" lon="8.30387">
        <ele>1352</ele>
        <time>2020-10-24T08:11:26.936Z</time>
      </trkpt>
      <trkpt lat="46.50632" lon="8.30391">
        <ele>1351</ele>
        <time>2020-10-24T08:11:27.936Z</time>
      </trkpt>
      <trkpt lat="46.50632" lon="8.30394">
        <ele>1351</ele>
        <time>2020-10-24T08:11:28.936Z</time>
      </trkpt>
      <trkpt lat="46.50632" lon="8.30398">
        <ele>1351</ele>
        <time>2020-10-24T08:11:29.937Z</time>
      </trkpt>
      <trkpt lat="46.50632" lon="8.30401">
        <ele>1351</ele>
        <time>2020-10-24T08:11:30.937Z</time>
      </trkpt>
      <trkpt lat="46.50633" lon="8.30404">
        <ele>1351</ele>
        <time>2020-10-24T08:11:31.936Z</time>
      </trkpt>
      <trkpt lat="46.50633" lon="8.30407">
        <ele>1351</ele>
        <time>2020-10-24T08:11:32.937Z</time>
      </trkpt>
      <trkpt lat="46.50633" lon="8.30411">
        <ele>1351</ele>
        <time>2020-10-24T08:11:33.936Z</time>
      </trkpt>
      <trkpt lat="46.50633" lon="8.30414">
        <ele>1352</ele>
        <time>2020-10-24T08:11:34.937Z</time>
      </trkpt>
      <trkpt lat="46.50633" lon="8.30417">
        <ele>1352</ele>
        <time>2020-10-24T08:11:35.937Z</time>
      </trkpt>
      <trkpt lat="46.50633" lon="8.3042">
        <ele>1352</ele>
        <time>2020-10-24T08:11:36.937Z</time>
      </trkpt>
      <trkpt lat="46.50633" lon="8.30423">
        <ele>1352</ele>
        <time>2020-10-24T08:11:37.937Z</time>
      </trkpt>
      <trkpt lat="46.50633" lon="8.30426">
        <ele>1352</ele>
        <time>2020-10-24T08:11:38.937Z</time>
      </trkpt>
      <trkpt lat="46.50633" lon="8.30429">
        <ele>1352</ele>
        <time>2020-10-24T08:11:39.936Z</time>
      </trkpt>
      <trkpt lat="46.50634" lon="8.30432">
        <ele>1352</ele>
        <time>2020-10-24T08:11:40.936Z</time>
      </trkpt>
      <trkpt lat="46.50634" lon="8.30434">
        <ele>1352</ele>
        <time>2020-10-24T08:11:41.937Z</time>
      </trkpt>
      <trkpt lat="46.50634" lon="8.30437">
        <ele>1352</ele>
        <time>2020-10-24T08:11:42.937Z</time>
      </trkpt>
      <trkpt lat="46.50634" lon="8.3044">
        <ele>1352</ele>
        <time>2020-10-24T08:11:43.936Z</time>
      </trkpt>
      <trkpt lat="46.50633" lon="8.30444">
        <ele>1353</ele>
        <time>2020-10-24T08:11:44.936Z</time>
      </trkpt>
      <trkpt lat="46.50633" lon="8.30447">
        <ele>1354</ele>
        <time>2020-10-24T08:11:45.936Z</time>
      </trkpt>
      <trkpt lat="46.50634" lon="8.3045">
        <ele>1354</ele>
        <time>2020-10-24T08:11:46.936Z</time>
      </trkpt>
      <trkpt lat="46.50634" lon="8.30453">
        <ele>1355</ele>
        <time>2020-10-24T08:11:47.936Z</time>
      </trkpt>
      <trkpt lat="46.50634" lon="8.30456">
        <ele>1356</ele>
        <time>2020-10-24T08:11:48.936Z</time>
      </trkpt>
      <trkpt lat="46.50633" lon="8.3046">
        <ele>1356</ele>
        <time>2020-10-24T08:11:49.936Z</time>
      </trkpt>
      <trkpt lat="46.50632" lon="8.30463">
        <ele>1357</ele>
        <time>2020-10-24T08:11:50.936Z</time>
      </trkpt>
      <trkpt lat="46.50631" lon="8.30465">
        <ele>1358</ele>
        <time>2020-10-24T08:11:51.936Z</time>
      </trkpt>
      <trkpt lat="46.5063" lon="8.30467">
        <ele>1359</ele>
        <time>2020-10-24T08:11:52.937Z</time>
      </trkpt>
      <trkpt lat="46.5063" lon="8.30469">
        <ele>1359</ele>
        <time>2020-10-24T08:11:53.937Z</time>
      </trkpt>
      <trkpt lat="46.5063" lon="8.30472">
        <ele>1358</ele>
        <time>2020-10-24T08:11:54.936Z</time>
      </trkpt>
      <trkpt lat="46.5063" lon="8.30477">
        <ele>1358</ele>
        <time>2020-10-24T08:11:55.936Z</time>
      </trkpt>
      <trkpt lat="46.50631" lon="8.3048">
        <ele>1357</ele>
        <time>2020-10-24T08:11:56.937Z</time>
      </trkpt>
      <trkpt lat="46.50631" lon="8.30482">
        <ele>1356</ele>
        <time>2020-10-24T08:11:57.937Z</time>
      </trkpt>
      <trkpt lat="46.50632" lon="8.30484">
        <ele>1355</ele>
        <time>2020-10-24T08:11:58.937Z</time>
      </trkpt>
      <trkpt lat="46.50633" lon="8.30485">
        <ele>1354</ele>
        <time>2020-10-24T08:11:59.937Z</time>
      </trkpt>
      <trkpt lat="46.50634" lon="8.30485">
        <ele>1353</ele>
        <time>2020-10-24T08:12:00.937Z</time>
      </trkpt>
      <trkpt lat="46.50635" lon="8.30483">
        <ele>1352</ele>
        <time>2020-10-24T08:12:01.937Z</time>
      </trkpt>
      <trkpt lat="46.50636" lon="8.30481">
        <ele>1351</ele>
        <time>2020-10-24T08:12:02.937Z</time>
      </trkpt>
      <trkpt lat="46.50637" lon="8.30478">
        <ele>1351</ele>
        <time>2020-10-24T08:12:03.936Z</time>
      </trkpt>
      <trkpt lat="46.50638" lon="8.30474">
        <ele>1351</ele>
        <time>2020-10-24T08:12:04.937Z</time>
      </trkpt>
      <trkpt lat="46.50638" lon="8.30472">
        <ele>1350</ele>
        <time>2020-10-24T08:12:05.936Z</time>
      </trkpt>
      <trkpt lat="46.50638" lon="8.30469">
        <ele>1350</ele>
        <time>2020-10-24T08:12:06.936Z</time>
      </trkpt>
      <trkpt lat="46.50638" lon="8.30466">
        <ele>1350</ele>
        <time>2020-10-24T08:12:07.937Z</time>
      </trkpt>
      <trkpt lat="46.50638" lon="8.30463">
        <ele>1349</ele>
        <time>2020-10-24T08:12:08.936Z</time>
      </trkpt>
      <trkpt lat="46.50638" lon="8.3046">
        <ele>1349</ele>
        <time>2020-10-24T08:12:09.937Z</time>
      </trkpt>
      <trkpt lat="46.50638" lon="8.30456">
        <ele>1348</ele>
        <time>2020-10-24T08:12:10.937Z</time>
      </trkpt>
      <trkpt lat="46.50638" lon="8.30453">
        <ele>1348</ele>
        <time>2020-10-24T08:12:11.937Z</time>
      </trkpt>
      <trkpt lat="46.50639" lon="8.3045">
        <ele>1347</ele>
        <time>2020-10-24T08:12:12.937Z</time>
      </trkpt>
      <trkpt lat="46.50639" lon="8.30446">
        <ele>1347</ele>
        <time>2020-10-24T08:12:13.937Z</time>
      </trkpt>
      <trkpt lat="46.50639" lon="8.30441">
        <ele>1346</ele>
        <time>2020-10-24T08:12:14.937Z</time>
      </trkpt>
      <trkpt lat="46.50639" lon="8.30439">
        <ele>1346</ele>
        <time>2020-10-24T08:12:15.937Z</time>
      </trkpt>
      <trkpt lat="46.50639" lon="8.30436">
        <ele>1346</ele>
        <time>2020-10-24T08:12:16.936Z</time>
      </trkpt>
      <trkpt lat="46.50639" lon="8.30433">
        <ele>1346</ele>
        <time>2020-10-24T08:12:17.937Z</time>
      </trkpt>
      <trkpt lat="46.50639" lon="8.3043">
        <ele>1347</ele>
        <time>2020-10-24T08:12:18.936Z</time>
      </trkpt>
      <trkpt lat="46.50638" lon="8.30427">
        <ele>1347</ele>
        <time>2020-10-24T08:12:19.936Z</time>
      </trkpt>
      <trkpt lat="46.50638" lon="8.30425">
        <ele>1347</ele>
        <time>2020-10-24T08:12:20.936Z</time>
      </trkpt>
      <trkpt lat="46.50638" lon="8.30421">
        <ele>1347</ele>
        <time>2020-10-24T08:12:21.936Z</time>
      </trkpt>
      <trkpt lat="46.50638" lon="8.30419">
        <ele>1347</ele>
        <time>2020-10-24T08:12:22.937Z</time>
      </trkpt>
      <trkpt lat="46.50637" lon="8.30416">
        <ele>1346</ele>
        <time>2020-10-24T08:12:23.936Z</time>
      </trkpt>
      <trkpt lat="46.50637" lon="8.30413">
        <ele>1346</ele>
        <time>2020-10-24T08:12:24.937Z</time>
      </trkpt>
      <trkpt lat="46.50636" lon="8.30411">
        <ele>1346</ele>
        <time>2020-10-24T08:12:25.937Z</time>
      </trkpt>
      <trkpt lat="46.50633" lon="8.3041">
        <ele>1346</ele>
        <time>2020-10-24T08:12:26.937Z</time>
      </trkpt>
      <trkpt lat="46.50631" lon="8.30411">
        <ele>1346</ele>
        <time>2020-10-24T08:12:27.937Z</time>
      </trkpt>
      <trkpt lat="46.50629" lon="8.30411">
        <ele>1346</ele>
        <time>2020-10-24T08:12:28.937Z</time>
      </trkpt>
      <trkpt lat="46.50626" lon="8.30412">
        <ele>1346</ele>
        <time>2020-10-24T08:12:29.936Z</time>
      </trkpt>
      <trkpt lat="46.50623" lon="8.30413">
        <ele>1347</ele>
        <time>2020-10-24T08:12:30.937Z</time>
      </trkpt>
      <trkpt lat="46.5062" lon="8.30414">
        <ele>1347</ele>
        <time>2020-10-24T08:12:31.937Z</time>
      </trkpt>
      <trkpt lat="46.50618" lon="8.30416">
        <ele>1347</ele>
        <time>2020-10-24T08:12:32.937Z</time>
      </trkpt>
      <trkpt lat="46.50617" lon="8.30417">
        <ele>1347</ele>
        <time>2020-10-24T08:12:33.936Z</time>
      </trkpt>
      <trkpt lat="46.50615" lon="8.30418">
        <ele>1347</ele>
        <time>2020-10-24T08:12:34.937Z</time>
      </trkpt>
      <trkpt lat="46.50612" lon="8.30419">
        <ele>1347</ele>
        <time>2020-10-24T08:12:35.936Z</time>
      </trkpt>
      <trkpt lat="46.5061" lon="8.30418">
        <ele>1347</ele>
        <time>2020-10-24T08:12:36.937Z</time>
      </trkpt>
      <trkpt lat="46.50608" lon="8.30418">
        <ele>1348</ele>
        <time>2020-10-24T08:12:37.936Z</time>
      </trkpt>
      <trkpt lat="46.50606" lon="8.30416">
        <ele>1348</ele>
        <time>2020-10-24T08:12:38.936Z</time>
      </trkpt>
      <trkpt lat="46.50605" lon="8.30414">
        <ele>1348</ele>
        <time>2020-10-24T08:12:39.937Z</time>
      </trkpt>
      <trkpt lat="46.50605" lon="8.30411">
        <ele>1348</ele>
        <time>2020-10-24T08:12:40.937Z</time>
      </trkpt>
      <trkpt lat="46.50604" lon="8.30408">
        <ele>1348</ele>
        <time>2020-10-24T08:12:41.936Z</time>
      </trkpt>
      <trkpt lat="46.50603" lon="8.30407">
        <ele>1348</ele>
        <time>2020-10-24T08:12:42.937Z</time>
      </trkpt>
      <trkpt lat="46.50601" lon="8.30404">
        <ele>1349</ele>
        <time>2020-10-24T08:12:43.937Z</time>
      </trkpt>
      <trkpt lat="46.506" lon="8.30402">
        <ele>1348</ele>
        <time>2020-10-24T08:12:44.937Z</time>
      </trkpt>
      <trkpt lat="46.50599" lon="8.30399">
        <ele>1348</ele>
        <time>2020-10-24T08:12:45.936Z</time>
      </trkpt>
      <trkpt lat="46.50598" lon="8.30397">
        <ele>1348</ele>
        <time>2020-10-24T08:12:46.937Z</time>
      </trkpt>
      <trkpt lat="46.50596" lon="8.30395">
        <ele>1348</ele>
        <time>2020-10-24T08:12:47.937Z</time>
      </trkpt>
      <trkpt lat="46.50595" lon="8.30392">
        <ele>1348</ele>
        <time>2020-10-24T08:12:48.936Z</time>
      </trkpt>
      <trkpt lat="46.50594" lon="8.3039">
        <ele>1348</ele>
        <time>2020-10-24T08:12:49.937Z</time>
      </trkpt>
      <trkpt lat="46.50593" lon="8.30387">
        <ele>1348</ele>
        <time>2020-10-24T08:12:50.937Z</time>
      </trkpt>
      <trkpt lat="46.50591" lon="8.30384">
        <ele>1347</ele>
        <time>2020-10-24T08:12:51.937Z</time>
      </trkpt>
      <trkpt lat="46.5059" lon="8.30383">
        <ele>1347</ele>
        <time>2020-10-24T08:12:52.936Z</time>
      </trkpt>
      <trkpt lat="46.50589" lon="8.3038">
        <ele>1347</ele>
        <time>2020-10-24T08:12:53.936Z</time>
      </trkpt>
      <trkpt lat="46.50587" lon="8.30378">
        <ele>1346</ele>
        <time>2020-10-24T08:12:54.937Z</time>
      </trkpt>
      <trkpt lat="46.50586" lon="8.30375">
        <ele>1346</ele>
        <time>2020-10-24T08:12:55.937Z</time>
      </trkpt>
      <trkpt lat="46.50584" lon="8.30373">
        <ele>1346</ele>
        <time>2020-10-24T08:12:56.937Z</time>
      </trkpt>
      <trkpt lat="46.50583" lon="8.3037">
        <ele>1346</ele>
        <time>2020-10-24T08:12:57.937Z</time>
      </trkpt>
      <trkpt lat="46.50582" lon="8.30367">
        <ele>1346</ele>
        <time>2020-10-24T08:12:58.937Z</time>
      </trkpt>
      <trkpt lat="46.5058" lon="8.30365">
        <ele>1346</ele>
        <time>2020-10-24T08:12:59.936Z</time>
      </trkpt>
      <trkpt lat="46.50579" lon="8.30362">
        <ele>1346</ele>
        <time>2020-10-24T08:13:00.937Z</time>
      </trkpt>
      <trkpt lat="46.50577" lon="8.30361">
        <ele>1346</ele>
        <time>2020-10-24T08:13:01.936Z</time>
      </trkpt>
      <trkpt lat="46.50575" lon="8.30361">
        <ele>1346</ele>
        <time>2020-10-24T08:13:02.937Z</time>
      </trkpt>
      <trkpt lat="46.50574" lon="8.30363">
        <ele>1346</ele>
        <time>2020-10-24T08:13:03.937Z</time>
      </trkpt>
      <trkpt lat="46.50573" lon="8.30365">
        <ele>1347</ele>
        <time>2020-10-24T08:13:04.937Z</time>
      </trkpt>
      <trkpt lat="46.50572" lon="8.30368">
        <ele>1347</ele>
        <time>2020-10-24T08:13:05.937Z</time>
      </trkpt>
      <trkpt lat="46.50572" lon="8.30372">
        <ele>1347</ele>
        <time>2020-10-24T08:13:06.937Z</time>
      </trkpt>
      <trkpt lat="46.50571" lon="8.30375">
        <ele>1346</ele>
        <time>2020-10-24T08:13:07.936Z</time>
      </trkpt>
      <trkpt lat="46.50569" lon="8.30379">
        <ele>1347</ele>
        <time>2020-10-24T08:13:08.936Z</time>
      </trkpt>
      <trkpt lat="46.50568" lon="8.30382">
        <ele>1347</ele>
        <time>2020-10-24T08:13:09.936Z</time>
      </trkpt>
      <trkpt lat="46.50567" lon="8.30384">
        <ele>1347</ele>
        <time>2020-10-24T08:13:10.937Z</time>
      </trkpt>
      <trkpt lat="46.50565" lon="8.30386">
        <ele>1346</ele>
        <time>2020-10-24T08:13:11.937Z</time>
      </trkpt>
      <trkpt lat="46.50563" lon="8.30387">
        <ele>1346</ele>
        <time>2020-10-24T08:13:12.936Z</time>
      </trkpt>
      <trkpt lat="46.50562" lon="8.30389">
        <ele>1346</ele>
        <time>2020-10-24T08:13:13.937Z</time>
      </trkpt>
      <trkpt lat="46.5056" lon="8.3039">
        <ele>1347</ele>
        <time>2020-10-24T08:13:14.937Z</time>
      </trkpt>
      <trkpt lat="46.50558" lon="8.30393">
        <ele>1347</ele>
        <time>2020-10-24T08:13:15.937Z</time>
      </trkpt>
      <trkpt lat="46.50557" lon="8.30395">
        <ele>1348</ele>
        <time>2020-10-24T08:13:16.937Z</time>
      </trkpt>
      <trkpt lat="46.50555" lon="8.30397">
        <ele>1348</ele>
        <time>2020-10-24T08:13:17.937Z</time>
      </trkpt>
      <trkpt lat="46.50553" lon="8.30399">
        <ele>1349</ele>
        <time>2020-10-24T08:13:18.936Z</time>
      </trkpt>
      <trkpt lat="46.50551" lon="8.30401">
        <ele>1349</ele>
        <time>2020-10-24T08:13:19.937Z</time>
      </trkpt>
      <trkpt lat="46.50549" lon="8.30402">
        <ele>1349</ele>
        <time>2020-10-24T08:13:20.937Z</time>
      </trkpt>
      <trkpt lat="46.50548" lon="8.30404">
        <ele>1349</ele>
        <time>2020-10-24T08:13:21.936Z</time>
      </trkpt>
      <trkpt lat="46.50546" lon="8.30406">
        <ele>1348</ele>
        <time>2020-10-24T08:13:22.936Z</time>
      </trkpt>
      <trkpt lat="46.50545" lon="8.30408">
        <ele>1348</ele>
        <time>2020-10-24T08:13:23.936Z</time>
      </trkpt>
      <trkpt lat="46.50543" lon="8.30409">
        <ele>1347</ele>
        <time>2020-10-24T08:13:24.937Z</time>
      </trkpt>
      <trkpt lat="46.50541" lon="8.30411">
        <ele>1347</ele>
        <time>2020-10-24T08:13:25.937Z</time>
      </trkpt>
      <trkpt lat="46.5054" lon="8.30413">
        <ele>1347</ele>
        <time>2020-10-24T08:13:26.937Z</time>
      </trkpt>
      <trkpt lat="46.50538" lon="8.30415">
        <ele>1347</ele>
        <time>2020-10-24T08:13:27.937Z</time>
      </trkpt>
      <trkpt lat="46.50536" lon="8.30416">
        <ele>1347</ele>
        <time>2020-10-24T08:13:28.936Z</time>
      </trkpt>
      <trkpt lat="46.50534" lon="8.30418">
        <ele>1348</ele>
        <time>2020-10-24T08:13:29.936Z</time>
      </trkpt>
      <trkpt lat="46.50533" lon="8.3042">
        <ele>1348</ele>
        <time>2020-10-24T08:13:30.936Z</time>
      </trkpt>
      <trkpt lat="46.5053" lon="8.30422">
        <ele>1348</ele>
        <time>2020-10-24T08:13:31.937Z</time>
      </trkpt>
      <trkpt lat="46.50529" lon="8.30424">
        <ele>1348</ele>
        <time>2020-10-24T08:13:32.937Z</time>
      </trkpt>
      <trkpt lat="46.50528" lon="8.30426">
        <ele>1348</ele>
        <time>2020-10-24T08:13:33.937Z</time>
      </trkpt>
      <trkpt lat="46.50526" lon="8.30428">
        <ele>1348</ele>
        <time>2020-10-24T08:13:34.937Z</time>
      </trkpt>
      <trkpt lat="46.50524" lon="8.30429">
        <ele>1347</ele>
        <time>2020-10-24T08:13:35.936Z</time>
      </trkpt>
      <trkpt lat="46.50522" lon="8.30432">
        <ele>1347</ele>
        <time>2020-10-24T08:13:36.937Z</time>
      </trkpt>
      <trkpt lat="46.50521" lon="8.30433">
        <ele>1347</ele>
        <time>2020-10-24T08:13:37.937Z</time>
      </trkpt>
      <trkpt lat="46.50519" lon="8.30436">
        <ele>1347</ele>
        <time>2020-10-24T08:13:38.937Z</time>
      </trkpt>
      <trkpt lat="46.50518" lon="8.30438">
        <ele>1347</ele>
        <time>2020-10-24T08:13:39.936Z</time>
      </trkpt>
      <trkpt lat="46.50516" lon="8.30439">
        <ele>1347</ele>
        <time>2020-10-24T08:13:40.937Z</time>
      </trkpt>
      <trkpt lat="46.50514" lon="8.30441">
        <ele>1348</ele>
        <time>2020-10-24T08:13:41.936Z</time>
      </trkpt>
      <trkpt lat="46.50512" lon="8.30443">
        <ele>1348</ele>
        <time>2020-10-24T08:13:42.937Z</time>
      </trkpt>
      <trkpt lat="46.5051" lon="8.30444">
        <ele>1349</ele>
        <time>2020-10-24T08:13:43.937Z</time>
      </trkpt>
      <trkpt lat="46.50508" lon="8.30446">
        <ele>1349</ele>
        <time>2020-10-24T08:13:44.936Z</time>
      </trkpt>
      <trkpt lat="46.50507" lon="8.30448">
        <ele>1350</ele>
        <time>2020-10-24T08:13:45.937Z</time>
      </trkpt>
      <trkpt lat="46.50505" lon="8.30449">
        <ele>1350</ele>
        <time>2020-10-24T08:13:46.936Z</time>
      </trkpt>
      <trkpt lat="46.50504" lon="8.30451">
        <ele>1350</ele>
        <time>2020-10-24T08:13:47.936Z</time>
      </trkpt>
      <trkpt lat="46.50502" lon="8.30453">
        <ele>1350</ele>
        <time>2020-10-24T08:13:48.936Z</time>
      </trkpt>
      <trkpt lat="46.505" lon="8.30455">
        <ele>1350</ele>
        <time>2020-10-24T08:13:49.937Z</time>
      </trkpt>
      <trkpt lat="46.50498" lon="8.30456">
        <ele>1350</ele>
        <time>2020-10-24T08:13:50.937Z</time>
      </trkpt>
      <trkpt lat="46.50496" lon="8.30458">
        <ele>1351</ele>
        <time>2020-10-24T08:13:51.936Z</time>
      </trkpt>
      <trkpt lat="46.50494" lon="8.3046">
        <ele>1351</ele>
        <time>2020-10-24T08:13:52.936Z</time>
      </trkpt>
      <trkpt lat="46.50492" lon="8.30462">
        <ele>1351</ele>
        <time>2020-10-24T08:13:53.937Z</time>
      </trkpt>
      <trkpt lat="46.5049" lon="8.30464">
        <ele>1350</ele>
        <time>2020-10-24T08:13:54.936Z</time>
      </trkpt>
      <trkpt lat="46.50488" lon="8.30465">
        <ele>1350</ele>
        <time>2020-10-24T08:13:55.937Z</time>
      </trkpt>
      <trkpt lat="46.50487" lon="8.30467">
        <ele>1350</ele>
        <time>2020-10-24T08:13:56.937Z</time>
      </trkpt>
      <trkpt lat="46.50485" lon="8.30469">
        <ele>1350</ele>
        <time>2020-10-24T08:13:57.936Z</time>
      </trkpt>
      <trkpt lat="46.50483" lon="8.3047">
        <ele>1350</ele>
        <time>2020-10-24T08:13:58.936Z</time>
      </trkpt>
      <trkpt lat="46.50481" lon="8.30472">
        <ele>1350</ele>
        <time>2020-10-24T08:13:59.936Z</time>
      </trkpt>
      <trkpt lat="46.5048" lon="8.30473">
        <ele>1350</ele>
        <time>2020-10-24T08:14:00.936Z</time>
      </trkpt>
      <trkpt lat="46.50478" lon="8.30472">
        <ele>1349</ele>
        <time>2020-10-24T08:14:01.937Z</time>
      </trkpt>
      <trkpt lat="46.50476" lon="8.30471">
        <ele>1349</ele>
        <time>2020-10-24T08:14:02.936Z</time>
      </trkpt>
      <trkpt lat="46.50474" lon="8.3047">
        <ele>1348</ele>
        <time>2020-10-24T08:14:03.936Z</time>
      </trkpt>
      <trkpt lat="46.50473" lon="8.30468">
        <ele>1348</ele>
        <time>2020-10-24T08:14:04.936Z</time>
      </trkpt>
      <trkpt lat="46.50471" lon="8.30466">
        <ele>1348</ele>
        <time>2020-10-24T08:14:05.936Z</time>
      </trkpt>
      <trkpt lat="46.5047" lon="8.30464">
        <ele>1349</ele>
        <time>2020-10-24T08:14:06.937Z</time>
      </trkpt>
      <trkpt lat="46.50468" lon="8.30462">
        <ele>1349</ele>
        <time>2020-10-24T08:14:07.936Z</time>
      </trkpt>
      <trkpt lat="46.50467" lon="8.30461">
        <ele>1349</ele>
        <time>2020-10-24T08:14:08.936Z</time>
      </trkpt>
      <trkpt lat="46.50465" lon="8.30459">
        <ele>1349</ele>
        <time>2020-10-24T08:14:09.936Z</time>
      </trkpt>
      <trkpt lat="46.50464" lon="8.30456">
        <ele>1349</ele>
        <time>2020-10-24T08:14:10.937Z</time>
      </trkpt>
      <trkpt lat="46.50463" lon="8.30453">
        <ele>1348</ele>
        <time>2020-10-24T08:14:11.937Z</time>
      </trkpt>
      <trkpt lat="46.50462" lon="8.3045">
        <ele>1348</ele>
        <time>2020-10-24T08:14:12.936Z</time>
      </trkpt>
      <trkpt lat="46.50461" lon="8.30448">
        <ele>1347</ele>
        <time>2020-10-24T08:14:13.936Z</time>
      </trkpt>
      <trkpt lat="46.5046" lon="8.30446">
        <ele>1347</ele>
        <time>2020-10-24T08:14:14.936Z</time>
      </trkpt>
      <trkpt lat="46.50459" lon="8.30442">
        <ele>1346</ele>
        <time>2020-10-24T08:14:15.937Z</time>
      </trkpt>
      <trkpt lat="46.50458" lon="8.30439">
        <ele>1346</ele>
        <time>2020-10-24T08:14:16.937Z</time>
      </trkpt>
      <trkpt lat="46.50457" lon="8.30437">
        <ele>1346</ele>
        <time>2020-10-24T08:14:17.936Z</time>
      </trkpt>
      <trkpt lat="46.50455" lon="8.30435">
        <ele>1346</ele>
        <time>2020-10-24T08:14:18.936Z</time>
      </trkpt>
      <trkpt lat="46.50454" lon="8.30431">
        <ele>1345</ele>
        <time>2020-10-24T08:14:19.936Z</time>
      </trkpt>
      <trkpt lat="46.50453" lon="8.30428">
        <ele>1346</ele>
        <time>2020-10-24T08:14:20.937Z</time>
      </trkpt>
      <trkpt lat="46.50453" lon="8.30425">
        <ele>1346</ele>
        <time>2020-10-24T08:14:21.937Z</time>
      </trkpt>
      <trkpt lat="46.50452" lon="8.30422">
        <ele>1345</ele>
        <time>2020-10-24T08:14:22.936Z</time>
      </trkpt>
      <trkpt lat="46.50451" lon="8.30419">
        <ele>1345</ele>
        <time>2020-10-24T08:14:23.936Z</time>
      </trkpt>
      <trkpt lat="46.5045" lon="8.30417">
        <ele>1345</ele>
        <time>2020-10-24T08:14:24.937Z</time>
      </trkpt>
      <trkpt lat="46.50449" lon="8.30414">
        <ele>1345</ele>
        <time>2020-10-24T08:14:25.937Z</time>
      </trkpt>
      <trkpt lat="46.50447" lon="8.30412">
        <ele>1345</ele>
        <time>2020-10-24T08:14:26.936Z</time>
      </trkpt>
      <trkpt lat="46.50446" lon="8.30409">
        <ele>1345</ele>
        <time>2020-10-24T08:14:27.936Z</time>
      </trkpt>
      <trkpt lat="46.50445" lon="8.30407">
        <ele>1344</ele>
        <time>2020-10-24T08:14:28.936Z</time>
      </trkpt>
      <trkpt lat="46.50444" lon="8.30404">
        <ele>1344</ele>
        <time>2020-10-24T08:14:29.936Z</time>
      </trkpt>
      <trkpt lat="46.50442" lon="8.30401">
        <ele>1344</ele>
        <time>2020-10-24T08:14:30.936Z</time>
      </trkpt>
      <trkpt lat="46.50441" lon="8.30398">
        <ele>1343</ele>
        <time>2020-10-24T08:14:31.937Z</time>
      </trkpt>
      <trkpt lat="46.5044" lon="8.30395">
        <ele>1342</ele>
        <time>2020-10-24T08:14:32.937Z</time>
      </trkpt>
      <trkpt lat="46.50438" lon="8.30393">
        <ele>1341</ele>
        <time>2020-10-24T08:14:33.937Z</time>
      </trkpt>
      <trkpt lat="46.50437" lon="8.30391">
        <ele>1341</ele>
        <time>2020-10-24T08:14:34.936Z</time>
      </trkpt>
      <trkpt lat="46.50435" lon="8.30389">
        <ele>1341</ele>
        <time>2020-10-24T08:14:35.936Z</time>
      </trkpt>
      <trkpt lat="46.50432" lon="8.30388">
        <ele>1342</ele>
        <time>2020-10-24T08:14:36.937Z</time>
      </trkpt>
      <trkpt lat="46.5043" lon="8.30388">
        <ele>1343</ele>
        <time>2020-10-24T08:14:37.936Z</time>
      </trkpt>
      <trkpt lat="46.50428" lon="8.30389">
        <ele>1344</ele>
        <time>2020-10-24T08:14:38.936Z</time>
      </trkpt>
      <trkpt lat="46.50426" lon="8.30389">
        <ele>1345</ele>
        <time>2020-10-24T08:14:39.937Z</time>
      </trkpt>
      <trkpt lat="46.50424" lon="8.3039">
        <ele>1345</ele>
        <time>2020-10-24T08:14:40.936Z</time>
      </trkpt>
      <trkpt lat="46.50422" lon="8.30391">
        <ele>1346</ele>
        <time>2020-10-24T08:14:41.937Z</time>
      </trkpt>
      <trkpt lat="46.5042" lon="8.30393">
        <ele>1346</ele>
        <time>2020-10-24T08:14:42.936Z</time>
      </trkpt>
      <trkpt lat="46.50417" lon="8.30394">
        <ele>1346</ele>
        <time>2020-10-24T08:14:43.937Z</time>
      </trkpt>
      <trkpt lat="46.50415" lon="8.30396">
        <ele>1346</ele>
        <time>2020-10-24T08:14:44.937Z</time>
      </trkpt>
      <trkpt lat="46.50413" lon="8.30398">
        <ele>1346</ele>
        <time>2020-10-24T08:14:45.936Z</time>
      </trkpt>
      <trkpt lat="46.50412" lon="8.304">
        <ele>1347</ele>
        <time>2020-10-24T08:14:46.937Z</time>
      </trkpt>
      <trkpt lat="46.5041" lon="8.30402">
        <ele>1347</ele>
        <time>2020-10-24T08:14:47.937Z</time>
      </trkpt>
      <trkpt lat="46.50408" lon="8.30403">
        <ele>1347</ele>
        <time>2020-10-24T08:14:48.937Z</time>
      </trkpt>
      <trkpt lat="46.50407" lon="8.30405">
        <ele>1347</ele>
        <time>2020-10-24T08:14:49.937Z</time>
      </trkpt>
      <trkpt lat="46.50405" lon="8.30407">
        <ele>1347</ele>
        <time>2020-10-24T08:14:50.937Z</time>
      </trkpt>
      <trkpt lat="46.50403" lon="8.30408">
        <ele>1347</ele>
        <time>2020-10-24T08:14:51.936Z</time>
      </trkpt>
      <trkpt lat="46.50401" lon="8.3041">
        <ele>1347</ele>
        <time>2020-10-24T08:14:52.936Z</time>
      </trkpt>
      <trkpt lat="46.50399" lon="8.30412">
        <ele>1347</ele>
        <time>2020-10-24T08:14:53.937Z</time>
      </trkpt>
      <trkpt lat="46.50397" lon="8.30414">
        <ele>1347</ele>
        <time>2020-10-24T08:14:54.937Z</time>
      </trkpt>
      <trkpt lat="46.50396" lon="8.30416">
        <ele>1346</ele>
        <time>2020-10-24T08:14:55.937Z</time>
      </trkpt>
      <trkpt lat="46.50394" lon="8.30417">
        <ele>1346</ele>
        <time>2020-10-24T08:14:56.937Z</time>
      </trkpt>
      <trkpt lat="46.50392" lon="8.30419">
        <ele>1346</ele>
        <time>2020-10-24T08:14:57.937Z</time>
      </trkpt>
      <trkpt lat="46.50391" lon="8.30421">
        <ele>1346</ele>
        <time>2020-10-24T08:14:58.937Z</time>
      </trkpt>
      <trkpt lat="46.50389" lon="8.30422">
        <ele>1346</ele>
        <time>2020-10-24T08:14:59.937Z</time>
      </trkpt>
      <trkpt lat="46.50387" lon="8.30424">
        <ele>1346</ele>
        <time>2020-10-24T08:15:00.937Z</time>
      </trkpt>
      <trkpt lat="46.50386" lon="8.30426">
        <ele>1346</ele>
        <time>2020-10-24T08:15:01.937Z</time>
      </trkpt>
      <trkpt lat="46.50384" lon="8.30428">
        <ele>1346</ele>
        <time>2020-10-24T08:15:02.936Z</time>
      </trkpt>
      <trkpt lat="46.50382" lon="8.30429">
        <ele>1346</ele>
        <time>2020-10-24T08:15:03.937Z</time>
      </trkpt>
      <trkpt lat="46.50381" lon="8.30431">
        <ele>1346</ele>
        <time>2020-10-24T08:15:04.937Z</time>
      </trkpt>
      <trkpt lat="46.50379" lon="8.30433">
        <ele>1347</ele>
        <time>2020-10-24T08:15:05.937Z</time>
      </trkpt>
      <trkpt lat="46.50377" lon="8.30435">
        <ele>1347</ele>
        <time>2020-10-24T08:15:06.937Z</time>
      </trkpt>
      <trkpt lat="46.50375" lon="8.30437">
        <ele>1347</ele>
        <time>2020-10-24T08:15:07.937Z</time>
      </trkpt>
      <trkpt lat="46.50374" lon="8.30438">
        <ele>1348</ele>
        <time>2020-10-24T08:15:08.936Z</time>
      </trkpt>
      <trkpt lat="46.50372" lon="8.3044">
        <ele>1348</ele>
        <time>2020-10-24T08:15:09.937Z</time>
      </trkpt>
      <trkpt lat="46.5037" lon="8.30442">
        <ele>1348</ele>
        <time>2020-10-24T08:15:10.936Z</time>
      </trkpt>
      <trkpt lat="46.50369" lon="8.30444">
        <ele>1349</ele>
        <time>2020-10-24T08:15:11.937Z</time>
      </trkpt>
      <trkpt lat="46.50367" lon="8.30446">
        <ele>1349</ele>
        <time>2020-10-24T08:15:12.936Z</time>
      </trkpt>
      <trkpt lat="46.50365" lon="8.30447">
        <ele>1349</ele>
        <time>2020-10-24T08:15:13.937Z</time>
      </trkpt>
      <trkpt lat="46.50364" lon="8.30449">
        <ele>1349</ele>
        <time>2020-10-24T08:15:14.937Z</time>
      </trkpt>
      <trkpt lat="46.50362" lon="8.30451">
        <ele>1348</ele>
        <time>2020-10-24T08:15:15.937Z</time>
      </trkpt>
      <trkpt lat="46.5036" lon="8.30453">
        <ele>1349</ele>
        <time>2020-10-24T08:15:16.937Z</time>
      </trkpt>
      <trkpt lat="46.50358" lon="8.30454">
        <ele>1349</ele>
        <time>2020-10-24T08:15:17.937Z</time>
      </trkpt>
      <trkpt lat="46.50357" lon="8.30456">
        <ele>1349</ele>
        <time>2020-10-24T08:15:18.937Z</time>
      </trkpt>
      <trkpt lat="46.50355" lon="8.30458">
        <ele>1349</ele>
        <time>2020-10-24T08:15:19.936Z</time>
      </trkpt>
      <trkpt lat="46.50353" lon="8.3046">
        <ele>1349</ele>
        <time>2020-10-24T08:15:20.936Z</time>
      </trkpt>
      <trkpt lat="46.50352" lon="8.30462">
        <ele>1349</ele>
        <time>2020-10-24T08:15:21.937Z</time>
      </trkpt>
      <trkpt lat="46.5035" lon="8.30465">
        <ele>1349</ele>
        <time>2020-10-24T08:15:22.937Z</time>
      </trkpt>
      <trkpt lat="46.50349" lon="8.30467">
        <ele>1349</ele>
        <time>2020-10-24T08:15:23.936Z</time>
      </trkpt>
      <trkpt lat="46.50347" lon="8.30468">
        <ele>1349</ele>
        <time>2020-10-24T08:15:24.937Z</time>
      </trkpt>
      <trkpt lat="46.50345" lon="8.30468">
        <ele>1349</ele>
        <time>2020-10-24T08:15:25.936Z</time>
      </trkpt>
      <trkpt lat="46.50343" lon="8.30468">
        <ele>1349</ele>
        <time>2020-10-24T08:15:26.937Z</time>
      </trkpt>
      <trkpt lat="46.50341" lon="8.30467">
        <ele>1349</ele>
        <time>2020-10-24T08:15:27.936Z</time>
      </trkpt>
      <trkpt lat="46.50339" lon="8.30466">
        <ele>1349</ele>
        <time>2020-10-24T08:15:28.936Z</time>
      </trkpt>
      <trkpt lat="46.50338" lon="8.30465">
        <ele>1349</ele>
        <time>2020-10-24T08:15:29.936Z</time>
      </trkpt>
      <trkpt lat="46.50336" lon="8.30463">
        <ele>1349</ele>
        <time>2020-10-24T08:15:30.937Z</time>
      </trkpt>
      <trkpt lat="46.50335" lon="8.30461">
        <ele>1349</ele>
        <time>2020-10-24T08:15:31.937Z</time>
      </trkpt>
      <trkpt lat="46.50333" lon="8.30459">
        <ele>1348</ele>
        <time>2020-10-24T08:15:32.937Z</time>
      </trkpt>
      <trkpt lat="46.50332" lon="8.30457">
        <ele>1348</ele>
        <time>2020-10-24T08:15:33.936Z</time>
      </trkpt>
      <trkpt lat="46.50331" lon="8.30454">
        <ele>1348</ele>
        <time>2020-10-24T08:15:34.936Z</time>
      </trkpt>
      <trkpt lat="46.50331" lon="8.30451">
        <ele>1348</ele>
        <time>2020-10-24T08:15:35.936Z</time>
      </trkpt>
      <trkpt lat="46.5033" lon="8.30449">
        <ele>1348</ele>
        <time>2020-10-24T08:15:36.937Z</time>
      </trkpt>
      <trkpt lat="46.50329" lon="8.30446">
        <ele>1348</ele>
        <time>2020-10-24T08:15:37.937Z</time>
      </trkpt>
      <trkpt lat="46.50328" lon="8.30443">
        <ele>1348</ele>
        <time>2020-10-24T08:15:38.937Z</time>
      </trkpt>
      <trkpt lat="46.50327" lon="8.30441">
        <ele>1349</ele>
        <time>2020-10-24T08:15:39.937Z</time>
      </trkpt>
      <trkpt lat="46.50326" lon="8.30438">
        <ele>1349</ele>
        <time>2020-10-24T08:15:40.936Z</time>
      </trkpt>
      <trkpt lat="46.50324" lon="8.30436">
        <ele>1349</ele>
        <time>2020-10-24T08:15:41.937Z</time>
      </trkpt>
      <trkpt lat="46.50323" lon="8.30433">
        <ele>1350</ele>
        <time>2020-10-24T08:15:42.937Z</time>
      </trkpt>
      <trkpt lat="46.50322" lon="8.3043">
        <ele>1350</ele>
        <time>2020-10-24T08:15:43.937Z</time>
      </trkpt>
      <trkpt lat="46.50321" lon="8.30428">
        <ele>1351</ele>
        <time>2020-10-24T08:15:44.937Z</time>
      </trkpt>
      <trkpt lat="46.5032" lon="8.30425">
        <ele>1351</ele>
        <time>2020-10-24T08:15:45.937Z</time>
      </trkpt>
      <trkpt lat="46.50319" lon="8.30422">
        <ele>1351</ele>
        <time>2020-10-24T08:15:46.937Z</time>
      </trkpt>
      <trkpt lat="46.50318" lon="8.3042">
        <ele>1351</ele>
        <time>2020-10-24T08:15:47.937Z</time>
      </trkpt>
      <trkpt lat="46.50317" lon="8.30417">
        <ele>1350</ele>
        <time>2020-10-24T08:15:48.937Z</time>
      </trkpt>
      <trkpt lat="46.50316" lon="8.30415">
        <ele>1349</ele>
        <time>2020-10-24T08:15:49.936Z</time>
      </trkpt>
      <trkpt lat="46.50314" lon="8.30412">
        <ele>1349</ele>
        <time>2020-10-24T08:15:50.937Z</time>
      </trkpt>
      <trkpt lat="46.50314" lon="8.3041">
        <ele>1349</ele>
        <time>2020-10-24T08:15:51.937Z</time>
      </trkpt>
      <trkpt lat="46.50313" lon="8.30407">
        <ele>1348</ele>
        <time>2020-10-24T08:15:52.936Z</time>
      </trkpt>
      <trkpt lat="46.50312" lon="8.30404">
        <ele>1348</ele>
        <time>2020-10-24T08:15:53.937Z</time>
      </trkpt>
      <trkpt lat="46.50311" lon="8.30401">
        <ele>1348</ele>
        <time>2020-10-24T08:15:54.937Z</time>
      </trkpt>
      <trkpt lat="46.5031" lon="8.30399">
        <ele>1348</ele>
        <time>2020-10-24T08:15:55.937Z</time>
      </trkpt>
      <trkpt lat="46.50309" lon="8.30396">
        <ele>1348</ele>
        <time>2020-10-24T08:15:56.936Z</time>
      </trkpt>
      <trkpt lat="46.50307" lon="8.30394">
        <ele>1348</ele>
        <time>2020-10-24T08:15:57.936Z</time>
      </trkpt>
      <trkpt lat="46.50307" lon="8.30391">
        <ele>1348</ele>
        <time>2020-10-24T08:15:58.936Z</time>
      </trkpt>
      <trkpt lat="46.50306" lon="8.30389">
        <ele>1348</ele>
        <time>2020-10-24T08:15:59.937Z</time>
      </trkpt>
      <trkpt lat="46.50305" lon="8.30386">
        <ele>1348</ele>
        <time>2020-10-24T08:16:00.937Z</time>
      </trkpt>
      <trkpt lat="46.50303" lon="8.30384">
        <ele>1348</ele>
        <time>2020-10-24T08:16:01.937Z</time>
      </trkpt>
      <trkpt lat="46.50302" lon="8.30382">
        <ele>1348</ele>
        <time>2020-10-24T08:16:02.937Z</time>
      </trkpt>
      <trkpt lat="46.503" lon="8.30379">
        <ele>1348</ele>
        <time>2020-10-24T08:16:03.937Z</time>
      </trkpt>
      <trkpt lat="46.50299" lon="8.30377">
        <ele>1348</ele>
        <time>2020-10-24T08:16:04.936Z</time>
      </trkpt>
      <trkpt lat="46.50298" lon="8.30375">
        <ele>1348</ele>
        <time>2020-10-24T08:16:05.937Z</time>
      </trkpt>
      <trkpt lat="46.50297" lon="8.30373">
        <ele>1348</ele>
        <time>2020-10-24T08:16:06.936Z</time>
      </trkpt>
      <trkpt lat="46.50295" lon="8.30371">
        <ele>1349</ele>
        <time>2020-10-24T08:16:07.937Z</time>
      </trkpt>
      <trkpt lat="46.50294" lon="8.30369">
        <ele>1349</ele>
        <time>2020-10-24T08:16:08.937Z</time>
      </trkpt>
      <trkpt lat="46.50292" lon="8.30367">
        <ele>1349</ele>
        <time>2020-10-24T08:16:09.937Z</time>
      </trkpt>
      <trkpt lat="46.50291" lon="8.30365">
        <ele>1349</ele>
        <time>2020-10-24T08:16:10.937Z</time>
      </trkpt>
      <trkpt lat="46.5029" lon="8.30363">
        <ele>1349</ele>
        <time>2020-10-24T08:16:11.937Z</time>
      </trkpt>
      <trkpt lat="46.50289" lon="8.3036">
        <ele>1349</ele>
        <time>2020-10-24T08:16:12.936Z</time>
      </trkpt>
      <trkpt lat="46.50288" lon="8.30357">
        <ele>1348</ele>
        <time>2020-10-24T08:16:13.936Z</time>
      </trkpt>
      <trkpt lat="46.50287" lon="8.30355">
        <ele>1348</ele>
        <time>2020-10-24T08:16:14.936Z</time>
      </trkpt>
      <trkpt lat="46.50286" lon="8.30352">
        <ele>1348</ele>
        <time>2020-10-24T08:16:15.936Z</time>
      </trkpt>
      <trkpt lat="46.50285" lon="8.30349">
        <ele>1349</ele>
        <time>2020-10-24T08:16:16.937Z</time>
      </trkpt>
      <trkpt lat="46.50284" lon="8.30347">
        <ele>1349</ele>
        <time>2020-10-24T08:16:17.936Z</time>
      </trkpt>
      <trkpt lat="46.50283" lon="8.30344">
        <ele>1350</ele>
        <time>2020-10-24T08:16:18.936Z</time>
      </trkpt>
      <trkpt lat="46.50282" lon="8.30341">
        <ele>1350</ele>
        <time>2020-10-24T08:16:19.936Z</time>
      </trkpt>
      <trkpt lat="46.50281" lon="8.30339">
        <ele>1349</ele>
        <time>2020-10-24T08:16:20.936Z</time>
      </trkpt>
      <trkpt lat="46.5028" lon="8.30336">
        <ele>1349</ele>
        <time>2020-10-24T08:16:21.937Z</time>
      </trkpt>
      <trkpt lat="46.50279" lon="8.30334">
        <ele>1349</ele>
        <time>2020-10-24T08:16:22.937Z</time>
      </trkpt>
      <trkpt lat="46.50278" lon="8.30331">
        <ele>1349</ele>
        <time>2020-10-24T08:16:23.936Z</time>
      </trkpt>
      <trkpt lat="46.50276" lon="8.30329">
        <ele>1349</ele>
        <time>2020-10-24T08:16:24.937Z</time>
      </trkpt>
      <trkpt lat="46.50275" lon="8.30326">
        <ele>1349</ele>
        <time>2020-10-24T08:16:25.936Z</time>
      </trkpt>
      <trkpt lat="46.50274" lon="8.30324">
        <ele>1349</ele>
        <time>2020-10-24T08:16:26.936Z</time>
      </trkpt>
      <trkpt lat="46.50272" lon="8.30322">
        <ele>1349</ele>
        <time>2020-10-24T08:16:27.936Z</time>
      </trkpt>
      <trkpt lat="46.50271" lon="8.30319">
        <ele>1349</ele>
        <time>2020-10-24T08:16:28.936Z</time>
      </trkpt>
      <trkpt lat="46.50269" lon="8.30317">
        <ele>1349</ele>
        <time>2020-10-24T08:16:29.936Z</time>
      </trkpt>
      <trkpt lat="46.50268" lon="8.30314">
        <ele>1349</ele>
        <time>2020-10-24T08:16:30.936Z</time>
      </trkpt>
      <trkpt lat="46.50267" lon="8.30312">
        <ele>1349</ele>
        <time>2020-10-24T08:16:31.937Z</time>
      </trkpt>
      <trkpt lat="46.50266" lon="8.3031">
        <ele>1349</ele>
        <time>2020-10-24T08:16:32.936Z</time>
      </trkpt>
      <trkpt lat="46.50264" lon="8.30307">
        <ele>1348</ele>
        <time>2020-10-24T08:16:33.936Z</time>
      </trkpt>
      <trkpt lat="46.50263" lon="8.30305">
        <ele>1348</ele>
        <time>2020-10-24T08:16:34.936Z</time>
      </trkpt>
      <trkpt lat="46.50262" lon="8.30302">
        <ele>1348</ele>
        <time>2020-10-24T08:16:35.936Z</time>
      </trkpt>
      <trkpt lat="46.50261" lon="8.303">
        <ele>1348</ele>
        <time>2020-10-24T08:16:36.937Z</time>
      </trkpt>
      <trkpt lat="46.50259" lon="8.30297">
        <ele>1348</ele>
        <time>2020-10-24T08:16:37.937Z</time>
      </trkpt>
      <trkpt lat="46.50258" lon="8.30294">
        <ele>1348</ele>
        <time>2020-10-24T08:16:38.937Z</time>
      </trkpt>
      <trkpt lat="46.50257" lon="8.30292">
        <ele>1348</ele>
        <time>2020-10-24T08:16:39.937Z</time>
      </trkpt>
      <trkpt lat="46.50256" lon="8.30289">
        <ele>1348</ele>
        <time>2020-10-24T08:16:40.937Z</time>
      </trkpt>
      <trkpt lat="46.50254" lon="8.30286">
        <ele>1348</ele>
        <time>2020-10-24T08:16:41.937Z</time>
      </trkpt>
      <trkpt lat="46.50253" lon="8.30284">
        <ele>1348</ele>
        <time>2020-10-24T08:16:42.937Z</time>
      </trkpt>
      <trkpt lat="46.50252" lon="8.30281">
        <ele>1348</ele>
        <time>2020-10-24T08:16:43.936Z</time>
      </trkpt>
      <trkpt lat="46.50251" lon="8.30279">
        <ele>1347</ele>
        <time>2020-10-24T08:16:44.936Z</time>
      </trkpt>
      <trkpt lat="46.50249" lon="8.30276">
        <ele>1347</ele>
        <time>2020-10-24T08:16:45.937Z</time>
      </trkpt>
      <trkpt lat="46.50248" lon="8.30274">
        <ele>1347</ele>
        <time>2020-10-24T08:16:46.937Z</time>
      </trkpt>
      <trkpt lat="46.50247" lon="8.30271">
        <ele>1347</ele>
        <time>2020-10-24T08:16:47.936Z</time>
      </trkpt>
      <trkpt lat="46.50246" lon="8.30268">
        <ele>1347</ele>
        <time>2020-10-24T08:16:48.937Z</time>
      </trkpt>
      <trkpt lat="46.50244" lon="8.30265">
        <ele>1347</ele>
        <time>2020-10-24T08:16:49.937Z</time>
      </trkpt>
      <trkpt lat="46.50243" lon="8.30263">
        <ele>1347</ele>
        <time>2020-10-24T08:16:50.936Z</time>
      </trkpt>
      <trkpt lat="46.50242" lon="8.3026">
        <ele>1347</ele>
        <time>2020-10-24T08:16:51.936Z</time>
      </trkpt>
      <trkpt lat="46.50241" lon="8.30258">
        <ele>1347</ele>
        <time>2020-10-24T08:16:52.937Z</time>
      </trkpt>
      <trkpt lat="46.5024" lon="8.30255">
        <ele>1347</ele>
        <time>2020-10-24T08:16:53.937Z</time>
      </trkpt>
      <trkpt lat="46.50238" lon="8.30252">
        <ele>1347</ele>
        <time>2020-10-24T08:16:54.936Z</time>
      </trkpt>
      <trkpt lat="46.50237" lon="8.3025">
        <ele>1347</ele>
        <time>2020-10-24T08:16:55.936Z</time>
      </trkpt>
      <trkpt lat="46.50235" lon="8.30247">
        <ele>1347</ele>
        <time>2020-10-24T08:16:56.937Z</time>
      </trkpt>
      <trkpt lat="46.50234" lon="8.30245">
        <ele>1347</ele>
        <time>2020-10-24T08:16:57.936Z</time>
      </trkpt>
      <trkpt lat="46.50233" lon="8.30242">
        <ele>1347</ele>
        <time>2020-10-24T08:16:58.937Z</time>
      </trkpt>
      <trkpt lat="46.50232" lon="8.3024">
        <ele>1347</ele>
        <time>2020-10-24T08:16:59.937Z</time>
      </trkpt>
      <trkpt lat="46.50231" lon="8.30237">
        <ele>1347</ele>
        <time>2020-10-24T08:17:00.936Z</time>
      </trkpt>
      <trkpt lat="46.50229" lon="8.30234">
        <ele>1347</ele>
        <time>2020-10-24T08:17:01.937Z</time>
      </trkpt>
      <trkpt lat="46.50228" lon="8.30232">
        <ele>1347</ele>
        <time>2020-10-24T08:17:02.937Z</time>
      </trkpt>
      <trkpt lat="46.50227" lon="8.30229">
        <ele>1347</ele>
        <time>2020-10-24T08:17:03.937Z</time>
      </trkpt>
      <trkpt lat="46.50226" lon="8.30226">
        <ele>1347</ele>
        <time>2020-10-24T08:17:04.936Z</time>
      </trkpt>
      <trkpt lat="46.50225" lon="8.30223">
        <ele>1347</ele>
        <time>2020-10-24T08:17:05.936Z</time>
      </trkpt>
      <trkpt lat="46.50223" lon="8.30221">
        <ele>1347</ele>
        <time>2020-10-24T08:17:06.937Z</time>
      </trkpt>
      <trkpt lat="46.50222" lon="8.30218">
        <ele>1348</ele>
        <time>2020-10-24T08:17:07.937Z</time>
      </trkpt>
      <trkpt lat="46.50221" lon="8.30215">
        <ele>1347</ele>
        <time>2020-10-24T08:17:08.937Z</time>
      </trkpt>
      <trkpt lat="46.5022" lon="8.30212">
        <ele>1347</ele>
        <time>2020-10-24T08:17:09.936Z</time>
      </trkpt>
      <trkpt lat="46.50219" lon="8.30209">
        <ele>1348</ele>
        <time>2020-10-24T08:17:10.937Z</time>
      </trkpt>
      <trkpt lat="46.50217" lon="8.30206">
        <ele>1348</ele>
        <time>2020-10-24T08:17:11.937Z</time>
      </trkpt>
      <trkpt lat="46.50216" lon="8.30203">
        <ele>1348</ele>
        <time>2020-10-24T08:17:12.937Z</time>
      </trkpt>
      <trkpt lat="46.50215" lon="8.30201">
        <ele>1348</ele>
        <time>2020-10-24T08:17:13.937Z</time>
      </trkpt>
      <trkpt lat="46.50214" lon="8.30198">
        <ele>1348</ele>
        <time>2020-10-24T08:17:14.937Z</time>
      </trkpt>
      <trkpt lat="46.50212" lon="8.30195">
        <ele>1348</ele>
        <time>2020-10-24T08:17:15.937Z</time>
      </trkpt>
      <trkpt lat="46.50211" lon="8.30192">
        <ele>1348</ele>
        <time>2020-10-24T08:17:16.937Z</time>
      </trkpt>
      <trkpt lat="46.5021" lon="8.30189">
        <ele>1348</ele>
        <time>2020-10-24T08:17:17.937Z</time>
      </trkpt>
      <trkpt lat="46.50208" lon="8.30186">
        <ele>1348</ele>
        <time>2020-10-24T08:17:18.937Z</time>
      </trkpt>
      <trkpt lat="46.50207" lon="8.30184">
        <ele>1348</ele>
        <time>2020-10-24T08:17:19.936Z</time>
      </trkpt>
      <trkpt lat="46.50206" lon="8.30181">
        <ele>1348</ele>
        <time>2020-10-24T08:17:20.937Z</time>
      </trkpt>
      <trkpt lat="46.50204" lon="8.30178">
        <ele>1348</ele>
        <time>2020-10-24T08:17:21.936Z</time>
      </trkpt>
      <trkpt lat="46.50203" lon="8.30175">
        <ele>1348</ele>
        <time>2020-10-24T08:17:22.936Z</time>
      </trkpt>
      <trkpt lat="46.50202" lon="8.30173">
        <ele>1347</ele>
        <time>2020-10-24T08:17:23.936Z</time>
      </trkpt>
      <trkpt lat="46.50201" lon="8.3017">
        <ele>1347</ele>
        <time>2020-10-24T08:17:24.937Z</time>
      </trkpt>
      <trkpt lat="46.502" lon="8.30167">
        <ele>1347</ele>
        <time>2020-10-24T08:17:25.937Z</time>
      </trkpt>
      <trkpt lat="46.50199" lon="8.30165">
        <ele>1347</ele>
        <time>2020-10-24T08:17:26.937Z</time>
      </trkpt>
      <trkpt lat="46.50198" lon="8.30162">
        <ele>1347</ele>
        <time>2020-10-24T08:17:27.937Z</time>
      </trkpt>
      <trkpt lat="46.50196" lon="8.30159">
        <ele>1347</ele>
        <time>2020-10-24T08:17:28.937Z</time>
      </trkpt>
      <trkpt lat="46.50195" lon="8.30156">
        <ele>1347</ele>
        <time>2020-10-24T08:17:29.937Z</time>
      </trkpt>
      <trkpt lat="46.50194" lon="8.30153">
        <ele>1347</ele>
        <time>2020-10-24T08:17:30.936Z</time>
      </trkpt>
      <trkpt lat="46.50193" lon="8.3015">
        <ele>1347</ele>
        <time>2020-10-24T08:17:31.937Z</time>
      </trkpt>
      <trkpt lat="46.50192" lon="8.30147">
        <ele>1348</ele>
        <time>2020-10-24T08:17:32.937Z</time>
      </trkpt>
      <trkpt lat="46.50191" lon="8.30145">
        <ele>1348</ele>
        <time>2020-10-24T08:17:33.937Z</time>
      </trkpt>
      <trkpt lat="46.5019" lon="8.30142">
        <ele>1348</ele>
        <time>2020-10-24T08:17:34.937Z</time>
      </trkpt>
      <trkpt lat="46.50189" lon="8.30139">
        <ele>1348</ele>
        <time>2020-10-24T08:17:35.936Z</time>
      </trkpt>
      <trkpt lat="46.50187" lon="8.30136">
        <ele>1348</ele>
        <time>2020-10-24T08:17:36.937Z</time>
      </trkpt>
      <trkpt lat="46.50186" lon="8.30133">
        <ele>1348</ele>
        <time>2020-10-24T08:17:37.937Z</time>
      </trkpt>
      <trkpt lat="46.50185" lon="8.30131">
        <ele>1348</ele>
        <time>2020-10-24T08:17:38.936Z</time>
      </trkpt>
      <trkpt lat="46.50184" lon="8.30128">
        <ele>1348</ele>
        <time>2020-10-24T08:17:39.936Z</time>
      </trkpt>
      <trkpt lat="46.50183" lon="8.30126">
        <ele>1348</ele>
        <time>2020-10-24T08:17:40.937Z</time>
      </trkpt>
      <trkpt lat="46.50182" lon="8.30123">
        <ele>1348</ele>
        <time>2020-10-24T08:17:41.937Z</time>
      </trkpt>
      <trkpt lat="46.50181" lon="8.3012">
        <ele>1347</ele>
        <time>2020-10-24T08:17:42.937Z</time>
      </trkpt>
      <trkpt lat="46.5018" lon="8.30118">
        <ele>1347</ele>
        <time>2020-10-24T08:17:43.937Z</time>
      </trkpt>
      <trkpt lat="46.50178" lon="8.30115">
        <ele>1347</ele>
        <time>2020-10-24T08:17:44.936Z</time>
      </trkpt>
      <trkpt lat="46.50177" lon="8.30112">
        <ele>1347</ele>
        <time>2020-10-24T08:17:45.937Z</time>
      </trkpt>
      <trkpt lat="46.50176" lon="8.3011">
        <ele>1346</ele>
        <time>2020-10-24T08:17:46.937Z</time>
      </trkpt>
      <trkpt lat="46.50175" lon="8.30107">
        <ele>1346</ele>
        <time>2020-10-24T08:17:47.936Z</time>
      </trkpt>
      <trkpt lat="46.50174" lon="8.30104">
        <ele>1346</ele>
        <time>2020-10-24T08:17:48.937Z</time>
      </trkpt>
      <trkpt lat="46.50172" lon="8.30101">
        <ele>1346</ele>
        <time>2020-10-24T08:17:49.937Z</time>
      </trkpt>
      <trkpt lat="46.50171" lon="8.30099">
        <ele>1346</ele>
        <time>2020-10-24T08:17:50.937Z</time>
      </trkpt>
      <trkpt lat="46.5017" lon="8.30096">
        <ele>1346</ele>
        <time>2020-10-24T08:17:51.937Z</time>
      </trkpt>
      <trkpt lat="46.50169" lon="8.30093">
        <ele>1346</ele>
        <time>2020-10-24T08:17:52.937Z</time>
      </trkpt>
      <trkpt lat="46.50168" lon="8.3009">
        <ele>1347</ele>
        <time>2020-10-24T08:17:53.937Z</time>
      </trkpt>
      <trkpt lat="46.50167" lon="8.30087">
        <ele>1347</ele>
        <time>2020-10-24T08:17:54.936Z</time>
      </trkpt>
      <trkpt lat="46.50166" lon="8.30084">
        <ele>1347</ele>
        <time>2020-10-24T08:17:55.937Z</time>
      </trkpt>
      <trkpt lat="46.50165" lon="8.30082">
        <ele>1347</ele>
        <time>2020-10-24T08:17:56.937Z</time>
      </trkpt>
      <trkpt lat="46.50164" lon="8.30079">
        <ele>1346</ele>
        <time>2020-10-24T08:17:57.936Z</time>
      </trkpt>
      <trkpt lat="46.50163" lon="8.30076">
        <ele>1346</ele>
        <time>2020-10-24T08:17:58.936Z</time>
      </trkpt>
      <trkpt lat="46.50162" lon="8.30073">
        <ele>1346</ele>
        <time>2020-10-24T08:17:59.937Z</time>
      </trkpt>
      <trkpt lat="46.5016" lon="8.3007">
        <ele>1346</ele>
        <time>2020-10-24T08:18:00.937Z</time>
      </trkpt>
      <trkpt lat="46.50159" lon="8.30067">
        <ele>1346</ele>
        <time>2020-10-24T08:18:01.937Z</time>
      </trkpt>
      <trkpt lat="46.50158" lon="8.30064">
        <ele>1346</ele>
        <time>2020-10-24T08:18:02.936Z</time>
      </trkpt>
      <trkpt lat="46.50157" lon="8.30061">
        <ele>1346</ele>
        <time>2020-10-24T08:18:03.936Z</time>
      </trkpt>
      <trkpt lat="46.50156" lon="8.30058">
        <ele>1346</ele>
        <time>2020-10-24T08:18:04.937Z</time>
      </trkpt>
      <trkpt lat="46.50155" lon="8.30055">
        <ele>1345</ele>
        <time>2020-10-24T08:18:05.937Z</time>
      </trkpt>
      <trkpt lat="46.50154" lon="8.30052">
        <ele>1345</ele>
        <time>2020-10-24T08:18:06.937Z</time>
      </trkpt>
      <trkpt lat="46.50153" lon="8.30049">
        <ele>1345</ele>
        <time>2020-10-24T08:18:07.936Z</time>
      </trkpt>
      <trkpt lat="46.50152" lon="8.30046">
        <ele>1345</ele>
        <time>2020-10-24T08:18:08.937Z</time>
      </trkpt>
      <trkpt lat="46.50151" lon="8.30043">
        <ele>1345</ele>
        <time>2020-10-24T08:18:09.937Z</time>
      </trkpt>
      <trkpt lat="46.50149" lon="8.3004">
        <ele>1345</ele>
        <time>2020-10-24T08:18:10.937Z</time>
      </trkpt>
      <trkpt lat="46.50148" lon="8.30037">
        <ele>1345</ele>
        <time>2020-10-24T08:18:11.937Z</time>
      </trkpt>
      <trkpt lat="46.50147" lon="8.30034">
        <ele>1345</ele>
        <time>2020-10-24T08:18:12.936Z</time>
      </trkpt>
      <trkpt lat="46.50146" lon="8.30031">
        <ele>1345</ele>
        <time>2020-10-24T08:18:13.937Z</time>
      </trkpt>
      <trkpt lat="46.50145" lon="8.30028">
        <ele>1345</ele>
        <time>2020-10-24T08:18:14.937Z</time>
      </trkpt>
      <trkpt lat="46.50144" lon="8.30025">
        <ele>1345</ele>
        <time>2020-10-24T08:18:15.937Z</time>
      </trkpt>
      <trkpt lat="46.50142" lon="8.30022">
        <ele>1345</ele>
        <time>2020-10-24T08:18:16.937Z</time>
      </trkpt>
      <trkpt lat="46.50141" lon="8.30019">
        <ele>1345</ele>
        <time>2020-10-24T08:18:17.937Z</time>
      </trkpt>
      <trkpt lat="46.5014" lon="8.30016">
        <ele>1345</ele>
        <time>2020-10-24T08:18:18.937Z</time>
      </trkpt>
      <trkpt lat="46.50139" lon="8.30013">
        <ele>1345</ele>
        <time>2020-10-24T08:18:19.937Z</time>
      </trkpt>
      <trkpt lat="46.50137" lon="8.3001">
        <ele>1346</ele>
        <time>2020-10-24T08:18:20.936Z</time>
      </trkpt>
      <trkpt lat="46.50136" lon="8.30007">
        <ele>1346</ele>
        <time>2020-10-24T08:18:21.937Z</time>
      </trkpt>
      <trkpt lat="46.50135" lon="8.30004">
        <ele>1346</ele>
        <time>2020-10-24T08:18:22.937Z</time>
      </trkpt>
      <trkpt lat="46.50134" lon="8.30001">
        <ele>1347</ele>
        <time>2020-10-24T08:18:23.937Z</time>
      </trkpt>
      <trkpt lat="46.50133" lon="8.29998">
        <ele>1347</ele>
        <time>2020-10-24T08:18:24.937Z</time>
      </trkpt>
      <trkpt lat="46.50131" lon="8.29995">
        <ele>1347</ele>
        <time>2020-10-24T08:18:25.936Z</time>
      </trkpt>
      <trkpt lat="46.5013" lon="8.29992">
        <ele>1347</ele>
        <time>2020-10-24T08:18:26.937Z</time>
      </trkpt>
      <trkpt lat="46.50129" lon="8.29989">
        <ele>1348</ele>
        <time>2020-10-24T08:18:27.937Z</time>
      </trkpt>
      <trkpt lat="46.50128" lon="8.29986">
        <ele>1348</ele>
        <time>2020-10-24T08:18:28.937Z</time>
      </trkpt>
      <trkpt lat="46.50127" lon="8.29983">
        <ele>1348</ele>
        <time>2020-10-24T08:18:29.937Z</time>
      </trkpt>
      <trkpt lat="46.50126" lon="8.2998">
        <ele>1347</ele>
        <time>2020-10-24T08:18:30.937Z</time>
      </trkpt>
      <trkpt lat="46.50124" lon="8.29977">
        <ele>1347</ele>
        <time>2020-10-24T08:18:31.936Z</time>
      </trkpt>
      <trkpt lat="46.50123" lon="8.29974">
        <ele>1347</ele>
        <time>2020-10-24T08:18:32.937Z</time>
      </trkpt>
      <trkpt lat="46.50121" lon="8.29971">
        <ele>1347</ele>
        <time>2020-10-24T08:18:33.937Z</time>
      </trkpt>
      <trkpt lat="46.5012" lon="8.29968">
        <ele>1347</ele>
        <time>2020-10-24T08:18:34.936Z</time>
      </trkpt>
      <trkpt lat="46.50118" lon="8.29967">
        <ele>1347</ele>
        <time>2020-10-24T08:18:35.936Z</time>
      </trkpt>
      <trkpt lat="46.50116" lon="8.29966">
        <ele>1347</ele>
        <time>2020-10-24T08:18:36.937Z</time>
      </trkpt>
      <trkpt lat="46.50114" lon="8.29965">
        <ele>1347</ele>
        <time>2020-10-24T08:18:37.937Z</time>
      </trkpt>
      <trkpt lat="46.50111" lon="8.29965">
        <ele>1347</ele>
        <time>2020-10-24T08:18:38.937Z</time>
      </trkpt>
      <trkpt lat="46.50109" lon="8.29966">
        <ele>1347</ele>
        <time>2020-10-24T08:18:39.936Z</time>
      </trkpt>
      <trkpt lat="46.50107" lon="8.29967">
        <ele>1347</ele>
        <time>2020-10-24T08:18:40.937Z</time>
      </trkpt>
      <trkpt lat="46.50105" lon="8.29968">
        <ele>1347</ele>
        <time>2020-10-24T08:18:41.937Z</time>
      </trkpt>
      <trkpt lat="46.50104" lon="8.2997">
        <ele>1347</ele>
        <time>2020-10-24T08:18:42.936Z</time>
      </trkpt>
      <trkpt lat="46.50102" lon="8.29971">
        <ele>1347</ele>
        <time>2020-10-24T08:18:43.937Z</time>
      </trkpt>
      <trkpt lat="46.50101" lon="8.29973">
        <ele>1347</ele>
        <time>2020-10-24T08:18:44.937Z</time>
      </trkpt>
      <trkpt lat="46.501" lon="8.29974">
        <ele>1347</ele>
        <time>2020-10-24T08:18:45.936Z</time>
      </trkpt>
      <trkpt lat="46.50099" lon="8.29975">
        <ele>1347</ele>
        <time>2020-10-24T08:18:46.937Z</time>
      </trkpt>
      <trkpt lat="46.50097" lon="8.29976">
        <ele>1347</ele>
        <time>2020-10-24T08:18:47.936Z</time>
      </trkpt>
      <trkpt lat="46.50096" lon="8.29976">
        <ele>1347</ele>
        <time>2020-10-24T08:18:48.937Z</time>
      </trkpt>
      <trkpt lat="46.50095" lon="8.29977">
        <ele>1347</ele>
        <time>2020-10-24T08:18:49.937Z</time>
      </trkpt>
      <trkpt lat="46.50093" lon="8.29978">
        <ele>1347</ele>
        <time>2020-10-24T08:18:50.936Z</time>
      </trkpt>
      <trkpt lat="46.50092" lon="8.29979">
        <ele>1347</ele>
        <time>2020-10-24T08:18:51.936Z</time>
      </trkpt>
      <trkpt lat="46.50091" lon="8.29979">
        <ele>1347</ele>
        <time>2020-10-24T08:18:52.937Z</time>
      </trkpt>
      <trkpt lat="46.5009" lon="8.2998">
        <ele>1347</ele>
        <time>2020-10-24T08:18:53.936Z</time>
      </trkpt>
      <trkpt lat="46.50089" lon="8.29981">
        <ele>1346</ele>
        <time>2020-10-24T08:18:54.937Z</time>
      </trkpt>
      <trkpt lat="46.50088" lon="8.29982">
        <ele>1346</ele>
        <time>2020-10-24T08:18:55.937Z</time>
      </trkpt>
      <trkpt lat="46.50086" lon="8.29982">
        <ele>1346</ele>
        <time>2020-10-24T08:18:56.937Z</time>
      </trkpt>
      <trkpt lat="46.50085" lon="8.29983">
        <ele>1346</ele>
        <time>2020-10-24T08:18:57.937Z</time>
      </trkpt>
      <trkpt lat="46.50084" lon="8.29984">
        <ele>1346</ele>
        <time>2020-10-24T08:18:58.936Z</time>
      </trkpt>
      <trkpt lat="46.50083" lon="8.29985">
        <ele>1346</ele>
        <time>2020-10-24T08:18:59.937Z</time>
      </trkpt>
      <trkpt lat="46.50082" lon="8.29986">
        <ele>1347</ele>
        <time>2020-10-24T08:19:00.937Z</time>
      </trkpt>
      <trkpt lat="46.50081" lon="8.29987">
        <ele>1347</ele>
        <time>2020-10-24T08:19:01.937Z</time>
      </trkpt>
      <trkpt lat="46.5008" lon="8.29988">
        <ele>1347</ele>
        <time>2020-10-24T08:19:02.936Z</time>
      </trkpt>
      <trkpt lat="46.50079" lon="8.29988">
        <ele>1348</ele>
        <time>2020-10-24T08:19:03.937Z</time>
      </trkpt>
      <trkpt lat="46.50078" lon="8.29989">
        <ele>1348</ele>
        <time>2020-10-24T08:19:04.936Z</time>
      </trkpt>
      <trkpt lat="46.50077" lon="8.29989">
        <ele>1349</ele>
        <time>2020-10-24T08:19:05.937Z</time>
      </trkpt>
      <trkpt lat="46.50076" lon="8.2999">
        <ele>1349</ele>
        <time>2020-10-24T08:19:06.937Z</time>
      </trkpt>
      <trkpt lat="46.50076" lon="8.29991">
        <ele>1349</ele>
        <time>2020-10-24T08:19:07.936Z</time>
      </trkpt>
      <trkpt lat="46.50077" lon="8.29991">
        <ele>1349</ele>
        <time>2020-10-24T08:19:08.937Z</time>
      </trkpt>
      <trkpt lat="46.50078" lon="8.29991">
        <ele>1349</ele>
        <time>2020-10-24T08:19:09.937Z</time>
      </trkpt>
      <trkpt lat="46.50079" lon="8.29991">
        <ele>1349</ele>
        <time>2020-10-24T08:19:10.937Z</time>
      </trkpt>
      <trkpt lat="46.5008" lon="8.2999">
        <ele>1348</ele>
        <time>2020-10-24T08:19:11.937Z</time>
      </trkpt>
      <trkpt lat="46.50082" lon="8.29989">
        <ele>1348</ele>
        <time>2020-10-24T08:19:12.937Z</time>
      </trkpt>
      <trkpt lat="46.50083" lon="8.29988">
        <ele>1349</ele>
        <time>2020-10-24T08:19:13.937Z</time>
      </trkpt>
      <trkpt lat="46.50084" lon="8.29987">
        <ele>1349</ele>
        <time>2020-10-24T08:19:14.937Z</time>
      </trkpt>
      <trkpt lat="46.50086" lon="8.29986">
        <ele>1350</ele>
        <time>2020-10-24T08:19:15.936Z</time>
      </trkpt>
      <trkpt lat="46.50087" lon="8.29985">
        <ele>1350</ele>
        <time>2020-10-24T08:19:16.937Z</time>
      </trkpt>
      <trkpt lat="46.50088" lon="8.29984">
        <ele>1350</ele>
        <time>2020-10-24T08:19:17.936Z</time>
      </trkpt>
      <trkpt lat="46.50089" lon="8.29984">
        <ele>1349</ele>
        <time>2020-10-24T08:19:18.937Z</time>
      </trkpt>
      <trkpt lat="46.5009" lon="8.29985">
        <ele>1349</ele>
        <time>2020-10-24T08:19:19.937Z</time>
      </trkpt>
      <trkpt lat="46.50091" lon="8.29986">
        <ele>1348</ele>
        <time>2020-10-24T08:19:20.936Z</time>
      </trkpt>
      <trkpt lat="46.50091" lon="8.29987">
        <ele>1348</ele>
        <time>2020-10-24T08:19:21.937Z</time>
      </trkpt>
      <trkpt lat="46.5009" lon="8.29988">
        <ele>1348</ele>
        <time>2020-10-24T08:19:22.937Z</time>
      </trkpt>
      <trkpt lat="46.50089" lon="8.29989">
        <ele>1348</ele>
        <time>2020-10-24T08:19:23.937Z</time>
      </trkpt>
      <trkpt lat="46.50088" lon="8.2999">
        <ele>1348</ele>
        <time>2020-10-24T08:19:24.937Z</time>
      </trkpt>
      <trkpt lat="46.50087" lon="8.29991">
        <ele>1349</ele>
        <time>2020-10-24T08:19:25.937Z</time>
      </trkpt>
      <trkpt lat="46.50085" lon="8.29992">
        <ele>1349</ele>
        <time>2020-10-24T08:19:26.937Z</time>
      </trkpt>
      <trkpt lat="46.50084" lon="8.29993">
        <ele>1349</ele>
        <time>2020-10-24T08:19:27.937Z</time>
      </trkpt>
      <trkpt lat="46.50083" lon="8.29994">
        <ele>1349</ele>
        <time>2020-10-24T08:19:28.937Z</time>
      </trkpt>
      <trkpt lat="46.50082" lon="8.29995">
        <ele>1349</ele>
        <time>2020-10-24T08:19:29.936Z</time>
      </trkpt>
      <trkpt lat="46.50081" lon="8.29996">
        <ele>1349</ele>
        <time>2020-10-24T08:19:30.937Z</time>
      </trkpt>
      <trkpt lat="46.5008" lon="8.29997">
        <ele>1349</ele>
        <time>2020-10-24T08:19:31.937Z</time>
      </trkpt>
      <trkpt lat="46.50079" lon="8.29998">
        <ele>1348</ele>
        <time>2020-10-24T08:19:32.936Z</time>
      </trkpt>
      <trkpt lat="46.50078" lon="8.29999">
        <ele>1348</ele>
        <time>2020-10-24T08:19:33.937Z</time>
      </trkpt>
      <trkpt lat="46.50077" lon="8.3">
        <ele>1348</ele>
        <time>2020-10-24T08:19:34.937Z</time>
      </trkpt>
      <trkpt lat="46.50077" lon="8.3">
        <ele>1348</ele>
        <time>2020-10-24T08:19:35.937Z</time>
      </trkpt>
      <trkpt lat="46.50076" lon="8.30001">
        <ele>1348</ele>
        <time>2020-10-24T08:19:36.937Z</time>
      </trkpt>
      <trkpt lat="46.50075" lon="8.3">
        <ele>1348</ele>
        <time>2020-10-24T08:19:37.936Z</time>
      </trkpt>
      <trkpt lat="46.50074" lon="8.29999">
        <ele>1347</ele>
        <time>2020-10-24T08:19:38.937Z</time>
      </trkpt>
      <trkpt lat="46.50073" lon="8.29998">
        <ele>1347</ele>
        <time>2020-10-24T08:19:39.936Z</time>
      </trkpt>
      <trkpt lat="46.50071" lon="8.29998">
        <ele>1347</ele>
        <time>2020-10-24T08:19:40.937Z</time>
      </trkpt>
      <trkpt lat="46.5007" lon="8.29998">
        <ele>1347</ele>
        <time>2020-10-24T08:19:41.937Z</time>
      </trkpt>
      <trkpt lat="46.50069" lon="8.29999">
        <ele>1347</ele>
        <time>2020-10-24T08:19:42.936Z</time>
      </trkpt>
      <trkpt lat="46.50067" lon="8.3">
        <ele>1347</ele>
        <time>2020-10-24T08:19:43.937Z</time>
      </trkpt>
      <trkpt lat="46.50066" lon="8.30001">
        <ele>1348</ele>
        <time>2020-10-24T08:19:44.936Z</time>
      </trkpt>
      <trkpt lat="46.50065" lon="8.30002">
        <ele>1348</ele>
        <time>2020-10-24T08:19:45.937Z</time>
      </trkpt>
      <trkpt lat="46.50063" lon="8.30003">
        <ele>1348</ele>
        <time>2020-10-24T08:19:46.937Z</time>
      </trkpt>
      <trkpt lat="46.50062" lon="8.30004">
        <ele>1349</ele>
        <time>2020-10-24T08:19:47.937Z</time>
      </trkpt>
      <trkpt lat="46.50061" lon="8.30006">
        <ele>1349</ele>
        <time>2020-10-24T08:19:48.937Z</time>
      </trkpt>
      <trkpt lat="46.50059" lon="8.30007">
        <ele>1349</ele>
        <time>2020-10-24T08:19:49.937Z</time>
      </trkpt>
      <trkpt lat="46.50058" lon="8.30008">
        <ele>1349</ele>
        <time>2020-10-24T08:19:50.936Z</time>
      </trkpt>
      <trkpt lat="46.50056" lon="8.30009">
        <ele>1349</ele>
        <time>2020-10-24T08:19:51.937Z</time>
      </trkpt>
      <trkpt lat="46.50055" lon="8.3001">
        <ele>1349</ele>
        <time>2020-10-24T08:19:52.937Z</time>
      </trkpt>
      <trkpt lat="46.50053" lon="8.30012">
        <ele>1349</ele>
        <time>2020-10-24T08:19:53.937Z</time>
      </trkpt>
      <trkpt lat="46.50052" lon="8.30013">
        <ele>1350</ele>
        <time>2020-10-24T08:19:54.937Z</time>
      </trkpt>
      <trkpt lat="46.5005" lon="8.30015">
        <ele>1350</ele>
        <time>2020-10-24T08:19:55.937Z</time>
      </trkpt>
      <trkpt lat="46.50048" lon="8.30016">
        <ele>1350</ele>
        <time>2020-10-24T08:19:56.936Z</time>
      </trkpt>
      <trkpt lat="46.50047" lon="8.30017">
        <ele>1350</ele>
        <time>2020-10-24T08:19:57.936Z</time>
      </trkpt>
      <trkpt lat="46.50045" lon="8.30019">
        <ele>1349</ele>
        <time>2020-10-24T08:19:58.937Z</time>
      </trkpt>
      <trkpt lat="46.50043" lon="8.3002">
        <ele>1349</ele>
        <time>2020-10-24T08:19:59.937Z</time>
      </trkpt>
      <trkpt lat="46.50042" lon="8.30022">
        <ele>1349</ele>
        <time>2020-10-24T08:20:00.936Z</time>
      </trkpt>
      <trkpt lat="46.50041" lon="8.30024">
        <ele>1349</ele>
        <time>2020-10-24T08:20:01.937Z</time>
      </trkpt>
      <trkpt lat="46.50039" lon="8.30025">
        <ele>1348</ele>
        <time>2020-10-24T08:20:02.936Z</time>
      </trkpt>
      <trkpt lat="46.50038" lon="8.30027">
        <ele>1348</ele>
        <time>2020-10-24T08:20:03.937Z</time>
      </trkpt>
      <trkpt lat="46.50036" lon="8.30028">
        <ele>1348</ele>
        <time>2020-10-24T08:20:04.936Z</time>
      </trkpt>
      <trkpt lat="46.50034" lon="8.3003">
        <ele>1348</ele>
        <time>2020-10-24T08:20:05.936Z</time>
      </trkpt>
      <trkpt lat="46.50033" lon="8.30031">
        <ele>1349</ele>
        <time>2020-10-24T08:20:06.937Z</time>
      </trkpt>
      <trkpt lat="46.50031" lon="8.30032">
        <ele>1349</ele>
        <time>2020-10-24T08:20:07.937Z</time>
      </trkpt>
      <trkpt lat="46.50029" lon="8.30033">
        <ele>1349</ele>
        <time>2020-10-24T08:20:08.936Z</time>
      </trkpt>
      <trkpt lat="46.50027" lon="8.30034">
        <ele>1349</ele>
        <time>2020-10-24T08:20:09.937Z</time>
      </trkpt>
      <trkpt lat="46.50025" lon="8.30035">
        <ele>1349</ele>
        <time>2020-10-24T08:20:10.937Z</time>
      </trkpt>
      <trkpt lat="46.50023" lon="8.30036">
        <ele>1349</ele>
        <time>2020-10-24T08:20:11.937Z</time>
      </trkpt>
      <trkpt lat="46.50021" lon="8.30038">
        <ele>1350</ele>
        <time>2020-10-24T08:20:12.936Z</time>
      </trkpt>
      <trkpt lat="46.50019" lon="8.30039">
        <ele>1350</ele>
        <time>2020-10-24T08:20:13.937Z</time>
      </trkpt>
      <trkpt lat="46.50017" lon="8.3004">
        <ele>1350</ele>
        <time>2020-10-24T08:20:14.937Z</time>
      </trkpt>
      <trkpt lat="46.50015" lon="8.30041">
        <ele>1350</ele>
        <time>2020-10-24T08:20:15.937Z</time>
      </trkpt>
      <trkpt lat="46.50013" lon="8.30042">
        <ele>1351</ele>
        <time>2020-10-24T08:20:16.937Z</time>
      </trkpt>
      <trkpt lat="46.50011" lon="8.30043">
        <ele>1350</ele>
        <time>2020-10-24T08:20:17.936Z</time>
      </trkpt>
      <trkpt lat="46.50009" lon="8.30043">
        <ele>1350</ele>
        <time>2020-10-24T08:20:18.937Z</time>
      </trkpt>
      <trkpt lat="46.50007" lon="8.30043">
        <ele>1350</ele>
        <time>2020-10-24T08:20:19.936Z</time>
      </trkpt>
      <trkpt lat="46.50005" lon="8.30042">
        <ele>1350</ele>
        <time>2020-10-24T08:20:20.937Z</time>
      </trkpt>
      <trkpt lat="46.50003" lon="8.30041">
        <ele>1350</ele>
        <time>2020-10-24T08:20:21.936Z</time>
      </trkpt>
      <trkpt lat="46.50001" lon="8.30041">
        <ele>1350</ele>
        <time>2020-10-24T08:20:22.937Z</time>
      </trkpt>
      <trkpt lat="46.49999" lon="8.30039">
        <ele>1350</ele>
        <time>2020-10-24T08:20:23.937Z</time>
      </trkpt>
      <trkpt lat="46.49997" lon="8.30039">
        <ele>1350</ele>
        <time>2020-10-24T08:20:24.937Z</time>
      </trkpt>
      <trkpt lat="46.49995" lon="8.30038">
        <ele>1349</ele>
        <time>2020-10-24T08:20:25.936Z</time>
      </trkpt>
      <trkpt lat="46.49993" lon="8.30037">
        <ele>1349</ele>
        <time>2020-10-24T08:20:26.937Z</time>
      </trkpt>
      <trkpt lat="46.49991" lon="8.30036">
        <ele>1349</ele>
        <time>2020-10-24T08:20:27.937Z</time>
      </trkpt>
      <trkpt lat="46.49989" lon="8.30035">
        <ele>1348</ele>
        <time>2020-10-24T08:20:28.937Z</time>
      </trkpt>
      <trkpt lat="46.49987" lon="8.30034">
        <ele>1348</ele>
        <time>2020-10-24T08:20:29.936Z</time>
      </trkpt>
      <trkpt lat="46.49985" lon="8.30033">
        <ele>1349</ele>
        <time>2020-10-24T08:20:30.936Z</time>
      </trkpt>
      <trkpt lat="46.49983" lon="8.30033">
        <ele>1349</ele>
        <time>2020-10-24T08:20:31.936Z</time>
      </trkpt>
      <trkpt lat="46.49981" lon="8.30032">
        <ele>1349</ele>
        <time>2020-10-24T08:20:32.936Z</time>
      </trkpt>
      <trkpt lat="46.49979" lon="8.30031">
        <ele>1350</ele>
        <time>2020-10-24T08:20:33.936Z</time>
      </trkpt>
      <trkpt lat="46.49977" lon="8.3003">
        <ele>1350</ele>
        <time>2020-10-24T08:20:34.937Z</time>
      </trkpt>
      <trkpt lat="46.49975" lon="8.30029">
        <ele>1350</ele>
        <time>2020-10-24T08:20:35.937Z</time>
      </trkpt>
      <trkpt lat="46.49973" lon="8.30028">
        <ele>1350</ele>
        <time>2020-10-24T08:20:36.936Z</time>
      </trkpt>
      <trkpt lat="46.49971" lon="8.30027">
        <ele>1350</ele>
        <time>2020-10-24T08:20:37.937Z</time>
      </trkpt>
      <trkpt lat="46.49969" lon="8.30026">
        <ele>1350</ele>
        <time>2020-10-24T08:20:38.937Z</time>
      </trkpt>
      <trkpt lat="46.49967" lon="8.30025">
        <ele>1351</ele>
        <time>2020-10-24T08:20:39.936Z</time>
      </trkpt>
      <trkpt lat="46.49966" lon="8.30024">
        <ele>1351</ele>
        <time>2020-10-24T08:20:40.936Z</time>
      </trkpt>
      <trkpt lat="46.49964" lon="8.30022">
        <ele>1350</ele>
        <time>2020-10-24T08:20:41.937Z</time>
      </trkpt>
      <trkpt lat="46.49962" lon="8.30021">
        <ele>1350</ele>
        <time>2020-10-24T08:20:42.937Z</time>
      </trkpt>
      <trkpt lat="46.4996" lon="8.3002">
        <ele>1351</ele>
        <time>2020-10-24T08:20:43.937Z</time>
      </trkpt>
      <trkpt lat="46.49959" lon="8.30019">
        <ele>1351</ele>
        <time>2020-10-24T08:20:44.936Z</time>
      </trkpt>
      <trkpt lat="46.49957" lon="8.30018">
        <ele>1351</ele>
        <time>2020-10-24T08:20:45.937Z</time>
      </trkpt>
      <trkpt lat="46.49955" lon="8.30017">
        <ele>1351</ele>
        <time>2020-10-24T08:20:46.937Z</time>
      </trkpt>
      <trkpt lat="46.49953" lon="8.30015">
        <ele>1350</ele>
        <time>2020-10-24T08:20:47.937Z</time>
      </trkpt>
      <trkpt lat="46.49951" lon="8.30014">
        <ele>1350</ele>
        <time>2020-10-24T08:20:48.937Z</time>
      </trkpt>
      <trkpt lat="46.4995" lon="8.30013">
        <ele>1351</ele>
        <time>2020-10-24T08:20:49.937Z</time>
      </trkpt>
      <trkpt lat="46.49948" lon="8.30012">
        <ele>1350</ele>
        <time>2020-10-24T08:20:50.937Z</time>
      </trkpt>
      <trkpt lat="46.49946" lon="8.30011">
        <ele>1351</ele>
        <time>2020-10-24T08:20:51.937Z</time>
      </trkpt>
      <trkpt lat="46.49944" lon="8.3001">
        <ele>1351</ele>
        <time>2020-10-24T08:20:52.937Z</time>
      </trkpt>
      <trkpt lat="46.49943" lon="8.30008">
        <ele>1351</ele>
        <time>2020-10-24T08:20:53.936Z</time>
      </trkpt>
      <trkpt lat="46.49941" lon="8.30007">
        <ele>1351</ele>
        <time>2020-10-24T08:20:54.936Z</time>
      </trkpt>
      <trkpt lat="46.49939" lon="8.30006">
        <ele>1351</ele>
        <time>2020-10-24T08:20:55.936Z</time>
      </trkpt>
      <trkpt lat="46.49937" lon="8.30004">
        <ele>1351</ele>
        <time>2020-10-24T08:20:56.937Z</time>
      </trkpt>
      <trkpt lat="46.49936" lon="8.30003">
        <ele>1351</ele>
        <time>2020-10-24T08:20:57.937Z</time>
      </trkpt>
      <trkpt lat="46.49934" lon="8.30002">
        <ele>1351</ele>
        <time>2020-10-24T08:20:58.937Z</time>
      </trkpt>
      <trkpt lat="46.49932" lon="8.30001">
        <ele>1351</ele>
        <time>2020-10-24T08:20:59.936Z</time>
      </trkpt>
      <trkpt lat="46.49931" lon="8.3">
        <ele>1351</ele>
        <time>2020-10-24T08:21:00.936Z</time>
      </trkpt>
      <trkpt lat="46.49929" lon="8.3">
        <ele>1351</ele>
        <time>2020-10-24T08:21:01.937Z</time>
      </trkpt>
      <trkpt lat="46.49927" lon="8.29999">
        <ele>1351</ele>
        <time>2020-10-24T08:21:02.937Z</time>
      </trkpt>
      <trkpt lat="46.49926" lon="8.29998">
        <ele>1352</ele>
        <time>2020-10-24T08:21:03.937Z</time>
      </trkpt>
      <trkpt lat="46.49924" lon="8.29998">
        <ele>1352</ele>
        <time>2020-10-24T08:21:04.937Z</time>
      </trkpt>
      <trkpt lat="46.49923" lon="8.29997">
        <ele>1353</ele>
        <time>2020-10-24T08:21:05.936Z</time>
      </trkpt>
      <trkpt lat="46.49921" lon="8.29997">
        <ele>1353</ele>
        <time>2020-10-24T08:21:06.937Z</time>
      </trkpt>
      <trkpt lat="46.49919" lon="8.29997">
        <ele>1353</ele>
        <time>2020-10-24T08:21:07.937Z</time>
      </trkpt>
      <trkpt lat="46.49918" lon="8.29997">
        <ele>1353</ele>
        <time>2020-10-24T08:21:08.937Z</time>
      </trkpt>
      <trkpt lat="46.49916" lon="8.29998">
        <ele>1353</ele>
        <time>2020-10-24T08:21:09.937Z</time>
      </trkpt>
      <trkpt lat="46.49915" lon="8.29999">
        <ele>1353</ele>
        <time>2020-10-24T08:21:10.937Z</time>
      </trkpt>
      <trkpt lat="46.49913" lon="8.29999">
        <ele>1354</ele>
        <time>2020-10-24T08:21:11.937Z</time>
      </trkpt>
      <trkpt lat="46.49912" lon="8.29999">
        <ele>1354</ele>
        <time>2020-10-24T08:21:12.937Z</time>
      </trkpt>
      <trkpt lat="46.4991" lon="8.3">
        <ele>1354</ele>
        <time>2020-10-24T08:21:13.937Z</time>
      </trkpt>
      <trkpt lat="46.49909" lon="8.30001">
        <ele>1354</ele>
        <time>2020-10-24T08:21:14.937Z</time>
      </trkpt>
      <trkpt lat="46.49907" lon="8.30001">
        <ele>1354</ele>
        <time>2020-10-24T08:21:15.937Z</time>
      </trkpt>
      <trkpt lat="46.49905" lon="8.30002">
        <ele>1354</ele>
        <time>2020-10-24T08:21:16.937Z</time>
      </trkpt>
      <trkpt lat="46.49904" lon="8.30002">
        <ele>1354</ele>
        <time>2020-10-24T08:21:17.937Z</time>
      </trkpt>
      <trkpt lat="46.49903" lon="8.30002">
        <ele>1355</ele>
        <time>2020-10-24T08:21:18.937Z</time>
      </trkpt>
      <trkpt lat="46.49901" lon="8.30003">
        <ele>1355</ele>
        <time>2020-10-24T08:21:19.937Z</time>
      </trkpt>
      <trkpt lat="46.49899" lon="8.30002">
        <ele>1355</ele>
        <time>2020-10-24T08:21:20.936Z</time>
      </trkpt>
      <trkpt lat="46.49898" lon="8.30002">
        <ele>1356</ele>
        <time>2020-10-24T08:21:21.937Z</time>
      </trkpt>
      <trkpt lat="46.49897" lon="8.30001">
        <ele>1357</ele>
        <time>2020-10-24T08:21:22.936Z</time>
      </trkpt>
      <trkpt lat="46.49896" lon="8.29999">
        <ele>1357</ele>
        <time>2020-10-24T08:21:23.937Z</time>
      </trkpt>
      <trkpt lat="46.49895" lon="8.29997">
        <ele>1358</ele>
        <time>2020-10-24T08:21:24.937Z</time>
      </trkpt>
      <trkpt lat="46.49894" lon="8.29996">
        <ele>1359</ele>
        <time>2020-10-24T08:21:25.937Z</time>
      </trkpt>
      <trkpt lat="46.49893" lon="8.29993">
        <ele>1359</ele>
        <time>2020-10-24T08:21:26.936Z</time>
      </trkpt>
      <trkpt lat="46.49892" lon="8.29989">
        <ele>1359</ele>
        <time>2020-10-24T08:21:27.937Z</time>
      </trkpt>
      <trkpt lat="46.49891" lon="8.29986">
        <ele>1359</ele>
        <time>2020-10-24T08:21:28.937Z</time>
      </trkpt>
      <trkpt lat="46.4989" lon="8.29983">
        <ele>1359</ele>
        <time>2020-10-24T08:21:29.937Z</time>
      </trkpt>
      <trkpt lat="46.4989" lon="8.29981">
        <ele>1359</ele>
        <time>2020-10-24T08:21:30.937Z</time>
      </trkpt>
      <trkpt lat="46.49889" lon="8.29978">
        <ele>1359</ele>
        <time>2020-10-24T08:21:31.937Z</time>
      </trkpt>
      <trkpt lat="46.49888" lon="8.29975">
        <ele>1359</ele>
        <time>2020-10-24T08:21:32.936Z</time>
      </trkpt>
      <trkpt lat="46.49886" lon="8.29974">
        <ele>1359</ele>
        <time>2020-10-24T08:21:33.937Z</time>
      </trkpt>
      <trkpt lat="46.49885" lon="8.29972">
        <ele>1359</ele>
        <time>2020-10-24T08:21:34.937Z</time>
      </trkpt>
      <trkpt lat="46.49884" lon="8.2997">
        <ele>1359</ele>
        <time>2020-10-24T08:21:35.937Z</time>
      </trkpt>
      <trkpt lat="46.49884" lon="8.29967">
        <ele>1359</ele>
        <time>2020-10-24T08:21:36.937Z</time>
      </trkpt>
      <trkpt lat="46.49884" lon="8.29965">
        <ele>1359</ele>
        <time>2020-10-24T08:21:37.937Z</time>
      </trkpt>
      <trkpt lat="46.49883" lon="8.29962">
        <ele>1359</ele>
        <time>2020-10-24T08:21:38.937Z</time>
      </trkpt>
      <trkpt lat="46.49883" lon="8.29959">
        <ele>1360</ele>
        <time>2020-10-24T08:21:39.937Z</time>
      </trkpt>
      <trkpt lat="46.49884" lon="8.29957">
        <ele>1359</ele>
        <time>2020-10-24T08:21:40.936Z</time>
      </trkpt>
      <trkpt lat="46.49884" lon="8.29954">
        <ele>1359</ele>
        <time>2020-10-24T08:21:41.937Z</time>
      </trkpt>
      <trkpt lat="46.49883" lon="8.29951">
        <ele>1359</ele>
        <time>2020-10-24T08:21:42.937Z</time>
      </trkpt>
      <trkpt lat="46.49883" lon="8.29947">
        <ele>1359</ele>
        <time>2020-10-24T08:21:43.936Z</time>
      </trkpt>
      <trkpt lat="46.49883" lon="8.29944">
        <ele>1359</ele>
        <time>2020-10-24T08:21:44.936Z</time>
      </trkpt>
      <trkpt lat="46.49883" lon="8.29941">
        <ele>1359</ele>
        <time>2020-10-24T08:21:45.936Z</time>
      </trkpt>
      <trkpt lat="46.49882" lon="8.29938">
        <ele>1360</ele>
        <time>2020-10-24T08:21:46.936Z</time>
      </trkpt>
      <trkpt lat="46.49882" lon="8.29935">
        <ele>1360</ele>
        <time>2020-10-24T08:21:47.937Z</time>
      </trkpt>
      <trkpt lat="46.49881" lon="8.29932">
        <ele>1360</ele>
        <time>2020-10-24T08:21:48.937Z</time>
      </trkpt>
      <trkpt lat="46.4988" lon="8.29929">
        <ele>1360</ele>
        <time>2020-10-24T08:21:49.936Z</time>
      </trkpt>
      <trkpt lat="46.4988" lon="8.29926">
        <ele>1360</ele>
        <time>2020-10-24T08:21:50.937Z</time>
      </trkpt>
      <trkpt lat="46.49879" lon="8.29924">
        <ele>1359</ele>
        <time>2020-10-24T08:21:51.937Z</time>
      </trkpt>
      <trkpt lat="46.49878" lon="8.29921">
        <ele>1359</ele>
        <time>2020-10-24T08:21:52.937Z</time>
      </trkpt>
      <trkpt lat="46.49878" lon="8.29918">
        <ele>1359</ele>
        <time>2020-10-24T08:21:53.937Z</time>
      </trkpt>
      <trkpt lat="46.49877" lon="8.29915">
        <ele>1359</ele>
        <time>2020-10-24T08:21:54.936Z</time>
      </trkpt>
      <trkpt lat="46.49876" lon="8.29912">
        <ele>1359</ele>
        <time>2020-10-24T08:21:55.937Z</time>
      </trkpt>
      <trkpt lat="46.49875" lon="8.2991">
        <ele>1359</ele>
        <time>2020-10-24T08:21:56.937Z</time>
      </trkpt>
      <trkpt lat="46.49874" lon="8.29907">
        <ele>1358</ele>
        <time>2020-10-24T08:21:57.936Z</time>
      </trkpt>
      <trkpt lat="46.49873" lon="8.29905">
        <ele>1358</ele>
        <time>2020-10-24T08:21:58.937Z</time>
      </trkpt>
      <trkpt lat="46.49872" lon="8.29902">
        <ele>1357</ele>
        <time>2020-10-24T08:21:59.937Z</time>
      </trkpt>
      <trkpt lat="46.49871" lon="8.29899">
        <ele>1357</ele>
        <time>2020-10-24T08:22:00.937Z</time>
      </trkpt>
      <trkpt lat="46.4987" lon="8.29897">
        <ele>1356</ele>
        <time>2020-10-24T08:22:01.936Z</time>
      </trkpt>
      <trkpt lat="46.49868" lon="8.29894">
        <ele>1356</ele>
        <time>2020-10-24T08:22:02.937Z</time>
      </trkpt>
      <trkpt lat="46.49867" lon="8.29891">
        <ele>1356</ele>
        <time>2020-10-24T08:22:03.937Z</time>
      </trkpt>
      <trkpt lat="46.49866" lon="8.29889">
        <ele>1356</ele>
        <time>2020-10-24T08:22:04.937Z</time>
      </trkpt>
      <trkpt lat="46.49865" lon="8.29886">
        <ele>1356</ele>
        <time>2020-10-24T08:22:05.937Z</time>
      </trkpt>
      <trkpt lat="46.49864" lon="8.29884">
        <ele>1356</ele>
        <time>2020-10-24T08:22:06.937Z</time>
      </trkpt>
      <trkpt lat="46.49863" lon="8.29881">
        <ele>1356</ele>
        <time>2020-10-24T08:22:07.937Z</time>
      </trkpt>
      <trkpt lat="46.49861" lon="8.29879">
        <ele>1356</ele>
        <time>2020-10-24T08:22:08.937Z</time>
      </trkpt>
      <trkpt lat="46.4986" lon="8.29876">
        <ele>1356</ele>
        <time>2020-10-24T08:22:09.937Z</time>
      </trkpt>
      <trkpt lat="46.49859" lon="8.29874">
        <ele>1356</ele>
        <time>2020-10-24T08:22:10.937Z</time>
      </trkpt>
      <trkpt lat="46.49858" lon="8.29871">
        <ele>1356</ele>
        <time>2020-10-24T08:22:11.937Z</time>
      </trkpt>
      <trkpt lat="46.49857" lon="8.29869">
        <ele>1356</ele>
        <time>2020-10-24T08:22:12.937Z</time>
      </trkpt>
      <trkpt lat="46.49855" lon="8.29866">
        <ele>1356</ele>
        <time>2020-10-24T08:22:13.936Z</time>
      </trkpt>
      <trkpt lat="46.49854" lon="8.29864">
        <ele>1356</ele>
        <time>2020-10-24T08:22:14.936Z</time>
      </trkpt>
      <trkpt lat="46.49853" lon="8.29862">
        <ele>1356</ele>
        <time>2020-10-24T08:22:15.936Z</time>
      </trkpt>
      <trkpt lat="46.49851" lon="8.29859">
        <ele>1356</ele>
        <time>2020-10-24T08:22:16.937Z</time>
      </trkpt>
      <trkpt lat="46.4985" lon="8.29857">
        <ele>1356</ele>
        <time>2020-10-24T08:22:17.937Z</time>
      </trkpt>
      <trkpt lat="46.49848" lon="8.29854">
        <ele>1355</ele>
        <time>2020-10-24T08:22:18.937Z</time>
      </trkpt>
      <trkpt lat="46.49847" lon="8.29852">
        <ele>1355</ele>
        <time>2020-10-24T08:22:19.937Z</time>
      </trkpt>
      <trkpt lat="46.49845" lon="8.2985">
        <ele>1354</ele>
        <time>2020-10-24T08:22:20.937Z</time>
      </trkpt>
      <trkpt lat="46.49844" lon="8.29847">
        <ele>1353</ele>
        <time>2020-10-24T08:22:21.936Z</time>
      </trkpt>
      <trkpt lat="46.49842" lon="8.29845">
        <ele>1353</ele>
        <time>2020-10-24T08:22:22.936Z</time>
      </trkpt>
      <trkpt lat="46.49841" lon="8.29843">
        <ele>1352</ele>
        <time>2020-10-24T08:22:23.937Z</time>
      </trkpt>
      <trkpt lat="46.4984" lon="8.2984">
        <ele>1352</ele>
        <time>2020-10-24T08:22:24.937Z</time>
      </trkpt>
      <trkpt lat="46.49838" lon="8.29838">
        <ele>1352</ele>
        <time>2020-10-24T08:22:25.937Z</time>
      </trkpt>
      <trkpt lat="46.49837" lon="8.29836">
        <ele>1352</ele>
        <time>2020-10-24T08:22:26.937Z</time>
      </trkpt>
      <trkpt lat="46.49835" lon="8.29833">
        <ele>1352</ele>
        <time>2020-10-24T08:22:27.936Z</time>
      </trkpt>
      <trkpt lat="46.49834" lon="8.29831">
        <ele>1352</ele>
        <time>2020-10-24T08:22:28.937Z</time>
      </trkpt>
      <trkpt lat="46.49832" lon="8.29828">
        <ele>1352</ele>
        <time>2020-10-24T08:22:29.936Z</time>
      </trkpt>
      <trkpt lat="46.49831" lon="8.29826">
        <ele>1353</ele>
        <time>2020-10-24T08:22:30.937Z</time>
      </trkpt>
      <trkpt lat="46.4983" lon="8.29823">
        <ele>1353</ele>
        <time>2020-10-24T08:22:31.937Z</time>
      </trkpt>
      <trkpt lat="46.49828" lon="8.29821">
        <ele>1353</ele>
        <time>2020-10-24T08:22:32.937Z</time>
      </trkpt>
      <trkpt lat="46.49827" lon="8.29818">
        <ele>1353</ele>
        <time>2020-10-24T08:22:33.937Z</time>
      </trkpt>
      <trkpt lat="46.49825" lon="8.29816">
        <ele>1352</ele>
        <time>2020-10-24T08:22:34.937Z</time>
      </trkpt>
      <trkpt lat="46.49824" lon="8.29813">
        <ele>1352</ele>
        <time>2020-10-24T08:22:35.937Z</time>
      </trkpt>
      <trkpt lat="46.49823" lon="8.29811">
        <ele>1352</ele>
        <time>2020-10-24T08:22:36.937Z</time>
      </trkpt>
      <trkpt lat="46.49821" lon="8.29808">
        <ele>1352</ele>
        <time>2020-10-24T08:22:37.936Z</time>
      </trkpt>
      <trkpt lat="46.4982" lon="8.29805">
        <ele>1352</ele>
        <time>2020-10-24T08:22:38.937Z</time>
      </trkpt>
      <trkpt lat="46.49819" lon="8.29803">
        <ele>1352</ele>
        <time>2020-10-24T08:22:39.937Z</time>
      </trkpt>
      <trkpt lat="46.49817" lon="8.298">
        <ele>1352</ele>
        <time>2020-10-24T08:22:40.937Z</time>
      </trkpt>
      <trkpt lat="46.49816" lon="8.29797">
        <ele>1352</ele>
        <time>2020-10-24T08:22:41.937Z</time>
      </trkpt>
      <trkpt lat="46.49815" lon="8.29794">
        <ele>1352</ele>
        <time>2020-10-24T08:22:42.936Z</time>
      </trkpt>
      <trkpt lat="46.49813" lon="8.29791">
        <ele>1353</ele>
        <time>2020-10-24T08:22:43.936Z</time>
      </trkpt>
      <trkpt lat="46.49812" lon="8.29788">
        <ele>1353</ele>
        <time>2020-10-24T08:22:44.936Z</time>
      </trkpt>
      <trkpt lat="46.4981" lon="8.29786">
        <ele>1353</ele>
        <time>2020-10-24T08:22:45.936Z</time>
      </trkpt>
      <trkpt lat="46.49809" lon="8.29783">
        <ele>1353</ele>
        <time>2020-10-24T08:22:46.937Z</time>
      </trkpt>
      <trkpt lat="46.49807" lon="8.2978">
        <ele>1353</ele>
        <time>2020-10-24T08:22:47.936Z</time>
      </trkpt>
      <trkpt lat="46.49805" lon="8.29778">
        <ele>1353</ele>
        <time>2020-10-24T08:22:48.937Z</time>
      </trkpt>
      <trkpt lat="46.49803" lon="8.29775">
        <ele>1353</ele>
        <time>2020-10-24T08:22:49.937Z</time>
      </trkpt>
      <trkpt lat="46.49802" lon="8.29773">
        <ele>1353</ele>
        <time>2020-10-24T08:22:50.936Z</time>
      </trkpt>
      <trkpt lat="46.498" lon="8.29771">
        <ele>1353</ele>
        <time>2020-10-24T08:22:51.936Z</time>
      </trkpt>
      <trkpt lat="46.49798" lon="8.29768">
        <ele>1353</ele>
        <time>2020-10-24T08:22:52.936Z</time>
      </trkpt>
      <trkpt lat="46.49796" lon="8.29767">
        <ele>1353</ele>
        <time>2020-10-24T08:22:53.936Z</time>
      </trkpt>
      <trkpt lat="46.49794" lon="8.29765">
        <ele>1353</ele>
        <time>2020-10-24T08:22:54.937Z</time>
      </trkpt>
      <trkpt lat="46.49792" lon="8.29763">
        <ele>1353</ele>
        <time>2020-10-24T08:22:55.937Z</time>
      </trkpt>
      <trkpt lat="46.4979" lon="8.29762">
        <ele>1353</ele>
        <time>2020-10-24T08:22:56.936Z</time>
      </trkpt>
      <trkpt lat="46.49789" lon="8.2976">
        <ele>1353</ele>
        <time>2020-10-24T08:22:57.936Z</time>
      </trkpt>
      <trkpt lat="46.49787" lon="8.29759">
        <ele>1353</ele>
        <time>2020-10-24T08:22:58.937Z</time>
      </trkpt>
      <trkpt lat="46.49785" lon="8.29757">
        <ele>1354</ele>
        <time>2020-10-24T08:22:59.937Z</time>
      </trkpt>
      <trkpt lat="46.49783" lon="8.29755">
        <ele>1353</ele>
        <time>2020-10-24T08:23:00.937Z</time>
      </trkpt>
      <trkpt lat="46.49781" lon="8.29754">
        <ele>1353</ele>
        <time>2020-10-24T08:23:01.937Z</time>
      </trkpt>
      <trkpt lat="46.49779" lon="8.29752">
        <ele>1353</ele>
        <time>2020-10-24T08:23:02.937Z</time>
      </trkpt>
      <trkpt lat="46.49777" lon="8.2975">
        <ele>1353</ele>
        <time>2020-10-24T08:23:03.937Z</time>
      </trkpt>
      <trkpt lat="46.49775" lon="8.29749">
        <ele>1352</ele>
        <time>2020-10-24T08:23:04.937Z</time>
      </trkpt>
      <trkpt lat="46.49773" lon="8.29747">
        <ele>1352</ele>
        <time>2020-10-24T08:23:05.937Z</time>
      </trkpt>
      <trkpt lat="46.49771" lon="8.29745">
        <ele>1352</ele>
        <time>2020-10-24T08:23:06.936Z</time>
      </trkpt>
      <trkpt lat="46.49769" lon="8.29744">
        <ele>1353</ele>
        <time>2020-10-24T08:23:07.937Z</time>
      </trkpt>
      <trkpt lat="46.49767" lon="8.29742">
        <ele>1353</ele>
        <time>2020-10-24T08:23:08.937Z</time>
      </trkpt>
      <trkpt lat="46.49765" lon="8.29741">
        <ele>1353</ele>
        <time>2020-10-24T08:23:09.937Z</time>
      </trkpt>
      <trkpt lat="46.49763" lon="8.29739">
        <ele>1353</ele>
        <time>2020-10-24T08:23:10.937Z</time>
      </trkpt>
      <trkpt lat="46.49761" lon="8.29738">
        <ele>1353</ele>
        <time>2020-10-24T08:23:11.937Z</time>
      </trkpt>
      <trkpt lat="46.49759" lon="8.29736">
        <ele>1353</ele>
        <time>2020-10-24T08:23:12.937Z</time>
      </trkpt>
      <trkpt lat="46.49757" lon="8.29734">
        <ele>1353</ele>
        <time>2020-10-24T08:23:13.937Z</time>
      </trkpt>
      <trkpt lat="46.49755" lon="8.29733">
        <ele>1354</ele>
        <time>2020-10-24T08:23:14.936Z</time>
      </trkpt>
      <trkpt lat="46.49753" lon="8.29731">
        <ele>1354</ele>
        <time>2020-10-24T08:23:15.937Z</time>
      </trkpt>
      <trkpt lat="46.49751" lon="8.2973">
        <ele>1354</ele>
        <time>2020-10-24T08:23:16.937Z</time>
      </trkpt>
      <trkpt lat="46.49748" lon="8.29728">
        <ele>1354</ele>
        <time>2020-10-24T08:23:17.937Z</time>
      </trkpt>
      <trkpt lat="46.49746" lon="8.29726">
        <ele>1354</ele>
        <time>2020-10-24T08:23:18.937Z</time>
      </trkpt>
      <trkpt lat="46.49744" lon="8.29725">
        <ele>1353</ele>
        <time>2020-10-24T08:23:19.936Z</time>
      </trkpt>
      <trkpt lat="46.49742" lon="8.29724">
        <ele>1353</ele>
        <time>2020-10-24T08:23:20.936Z</time>
      </trkpt>
      <trkpt lat="46.4974" lon="8.29722">
        <ele>1353</ele>
        <time>2020-10-24T08:23:21.937Z</time>
      </trkpt>
      <trkpt lat="46.49738" lon="8.2972">
        <ele>1352</ele>
        <time>2020-10-24T08:23:22.937Z</time>
      </trkpt>
      <trkpt lat="46.49736" lon="8.29719">
        <ele>1352</ele>
        <time>2020-10-24T08:23:23.937Z</time>
      </trkpt>
      <trkpt lat="46.49734" lon="8.29717">
        <ele>1352</ele>
        <time>2020-10-24T08:23:24.937Z</time>
      </trkpt>
      <trkpt lat="46.49731" lon="8.29715">
        <ele>1352</ele>
        <time>2020-10-24T08:23:25.937Z</time>
      </trkpt>
      <trkpt lat="46.4973" lon="8.29714">
        <ele>1352</ele>
        <time>2020-10-24T08:23:26.936Z</time>
      </trkpt>
      <trkpt lat="46.49728" lon="8.29712">
        <ele>1351</ele>
        <time>2020-10-24T08:23:27.937Z</time>
      </trkpt>
      <trkpt lat="46.49726" lon="8.29711">
        <ele>1351</ele>
        <time>2020-10-24T08:23:28.937Z</time>
      </trkpt>
      <trkpt lat="46.49724" lon="8.29709">
        <ele>1351</ele>
        <time>2020-10-24T08:23:29.937Z</time>
      </trkpt>
      <trkpt lat="46.49722" lon="8.29707">
        <ele>1351</ele>
        <time>2020-10-24T08:23:30.937Z</time>
      </trkpt>
      <trkpt lat="46.4972" lon="8.29706">
        <ele>1351</ele>
        <time>2020-10-24T08:23:31.936Z</time>
      </trkpt>
      <trkpt lat="46.49718" lon="8.29704">
        <ele>1351</ele>
        <time>2020-10-24T08:23:32.937Z</time>
      </trkpt>
      <trkpt lat="46.49716" lon="8.29703">
        <ele>1351</ele>
        <time>2020-10-24T08:23:33.936Z</time>
      </trkpt>
      <trkpt lat="46.49714" lon="8.29701">
        <ele>1351</ele>
        <time>2020-10-24T08:23:34.937Z</time>
      </trkpt>
      <trkpt lat="46.49712" lon="8.297">
        <ele>1351</ele>
        <time>2020-10-24T08:23:35.936Z</time>
      </trkpt>
      <trkpt lat="46.4971" lon="8.29699">
        <ele>1351</ele>
        <time>2020-10-24T08:23:36.937Z</time>
      </trkpt>
      <trkpt lat="46.49708" lon="8.29697">
        <ele>1352</ele>
        <time>2020-10-24T08:23:37.937Z</time>
      </trkpt>
      <trkpt lat="46.49706" lon="8.29696">
        <ele>1352</ele>
        <time>2020-10-24T08:23:38.937Z</time>
      </trkpt>
      <trkpt lat="46.49704" lon="8.29695">
        <ele>1352</ele>
        <time>2020-10-24T08:23:39.936Z</time>
      </trkpt>
      <trkpt lat="46.49702" lon="8.29694">
        <ele>1352</ele>
        <time>2020-10-24T08:23:40.937Z</time>
      </trkpt>
      <trkpt lat="46.49699" lon="8.29692">
        <ele>1352</ele>
        <time>2020-10-24T08:23:41.937Z</time>
      </trkpt>
      <trkpt lat="46.49697" lon="8.29691">
        <ele>1352</ele>
        <time>2020-10-24T08:23:42.937Z</time>
      </trkpt>
      <trkpt lat="46.49695" lon="8.2969">
        <ele>1352</ele>
        <time>2020-10-24T08:23:43.937Z</time>
      </trkpt>
      <trkpt lat="46.49693" lon="8.29688">
        <ele>1352</ele>
        <time>2020-10-24T08:23:44.936Z</time>
      </trkpt>
      <trkpt lat="46.4969" lon="8.29687">
        <ele>1351</ele>
        <time>2020-10-24T08:23:45.936Z</time>
      </trkpt>
      <trkpt lat="46.49688" lon="8.29686">
        <ele>1351</ele>
        <time>2020-10-24T08:23:46.936Z</time>
      </trkpt>
      <trkpt lat="46.49686" lon="8.29685">
        <ele>1351</ele>
        <time>2020-10-24T08:23:47.936Z</time>
      </trkpt>
      <trkpt lat="46.49683" lon="8.29684">
        <ele>1351</ele>
        <time>2020-10-24T08:23:48.936Z</time>
      </trkpt>
      <trkpt lat="46.49681" lon="8.29683">
        <ele>1351</ele>
        <time>2020-10-24T08:23:49.936Z</time>
      </trkpt>
      <trkpt lat="46.49679" lon="8.29682">
        <ele>1351</ele>
        <time>2020-10-24T08:23:50.936Z</time>
      </trkpt>
      <trkpt lat="46.49677" lon="8.29682">
        <ele>1351</ele>
        <time>2020-10-24T08:23:51.936Z</time>
      </trkpt>
      <trkpt lat="46.49674" lon="8.29681">
        <ele>1351</ele>
        <time>2020-10-24T08:23:52.937Z</time>
      </trkpt>
      <trkpt lat="46.49672" lon="8.29679">
        <ele>1352</ele>
        <time>2020-10-24T08:23:53.937Z</time>
      </trkpt>
      <trkpt lat="46.49669" lon="8.29678">
        <ele>1352</ele>
        <time>2020-10-24T08:23:54.936Z</time>
      </trkpt>
      <trkpt lat="46.49667" lon="8.29677">
        <ele>1352</ele>
        <time>2020-10-24T08:23:55.936Z</time>
      </trkpt>
      <trkpt lat="46.49665" lon="8.29677">
        <ele>1352</ele>
        <time>2020-10-24T08:23:56.936Z</time>
      </trkpt>
      <trkpt lat="46.49663" lon="8.29676">
        <ele>1352</ele>
        <time>2020-10-24T08:23:57.936Z</time>
      </trkpt>
      <trkpt lat="46.49661" lon="8.29675">
        <ele>1352</ele>
        <time>2020-10-24T08:23:58.936Z</time>
      </trkpt>
      <trkpt lat="46.49658" lon="8.29674">
        <ele>1352</ele>
        <time>2020-10-24T08:23:59.936Z</time>
      </trkpt>
      <trkpt lat="46.49656" lon="8.29673">
        <ele>1352</ele>
        <time>2020-10-24T08:24:00.936Z</time>
      </trkpt>
      <trkpt lat="46.49654" lon="8.29672">
        <ele>1352</ele>
        <time>2020-10-24T08:24:01.936Z</time>
      </trkpt>
      <trkpt lat="46.49651" lon="8.29672">
        <ele>1352</ele>
        <time>2020-10-24T08:24:02.937Z</time>
      </trkpt>
      <trkpt lat="46.49649" lon="8.29671">
        <ele>1352</ele>
        <time>2020-10-24T08:24:03.936Z</time>
      </trkpt>
      <trkpt lat="46.49647" lon="8.2967">
        <ele>1352</ele>
        <time>2020-10-24T08:24:04.936Z</time>
      </trkpt>
      <trkpt lat="46.49644" lon="8.2967">
        <ele>1352</ele>
        <time>2020-10-24T08:24:05.936Z</time>
      </trkpt>
      <trkpt lat="46.49642" lon="8.29669">
        <ele>1352</ele>
        <time>2020-10-24T08:24:06.937Z</time>
      </trkpt>
      <trkpt lat="46.4964" lon="8.29668">
        <ele>1352</ele>
        <time>2020-10-24T08:24:07.936Z</time>
      </trkpt>
      <trkpt lat="46.49637" lon="8.29667">
        <ele>1352</ele>
        <time>2020-10-24T08:24:08.936Z</time>
      </trkpt>
      <trkpt lat="46.49635" lon="8.29666">
        <ele>1352</ele>
        <time>2020-10-24T08:24:09.937Z</time>
      </trkpt>
      <trkpt lat="46.49634" lon="8.29666">
        <ele>1352</ele>
        <time>2020-10-24T08:24:10.937Z</time>
      </trkpt>
      <trkpt lat="46.49632" lon="8.29665">
        <ele>1352</ele>
        <time>2020-10-24T08:24:11.936Z</time>
      </trkpt>
      <trkpt lat="46.4963" lon="8.29664">
        <ele>1353</ele>
        <time>2020-10-24T08:24:12.937Z</time>
      </trkpt>
      <trkpt lat="46.49627" lon="8.29662">
        <ele>1353</ele>
        <time>2020-10-24T08:24:13.937Z</time>
      </trkpt>
      <trkpt lat="46.49626" lon="8.29661">
        <ele>1353</ele>
        <time>2020-10-24T08:24:14.937Z</time>
      </trkpt>
      <trkpt lat="46.49624" lon="8.2966">
        <ele>1352</ele>
        <time>2020-10-24T08:24:15.937Z</time>
      </trkpt>
      <trkpt lat="46.49622" lon="8.29659">
        <ele>1352</ele>
        <time>2020-10-24T08:24:16.936Z</time>
      </trkpt>
      <trkpt lat="46.4962" lon="8.29658">
        <ele>1352</ele>
        <time>2020-10-24T08:24:17.937Z</time>
      </trkpt>
      <trkpt lat="46.49618" lon="8.29656">
        <ele>1352</ele>
        <time>2020-10-24T08:24:18.937Z</time>
      </trkpt>
      <trkpt lat="46.49616" lon="8.29655">
        <ele>1352</ele>
        <time>2020-10-24T08:24:19.937Z</time>
      </trkpt>
      <trkpt lat="46.49613" lon="8.29653">
        <ele>1352</ele>
        <time>2020-10-24T08:24:20.936Z</time>
      </trkpt>
      <trkpt lat="46.49611" lon="8.29652">
        <ele>1352</ele>
        <time>2020-10-24T08:24:21.936Z</time>
      </trkpt>
      <trkpt lat="46.49609" lon="8.2965">
        <ele>1352</ele>
        <time>2020-10-24T08:24:22.937Z</time>
      </trkpt>
      <trkpt lat="46.49607" lon="8.29649">
        <ele>1352</ele>
        <time>2020-10-24T08:24:23.937Z</time>
      </trkpt>
      <trkpt lat="46.49605" lon="8.29648">
        <ele>1352</ele>
        <time>2020-10-24T08:24:24.937Z</time>
      </trkpt>
      <trkpt lat="46.49603" lon="8.29646">
        <ele>1352</ele>
        <time>2020-10-24T08:24:25.936Z</time>
      </trkpt>
      <trkpt lat="46.496" lon="8.29645">
        <ele>1352</ele>
        <time>2020-10-24T08:24:26.937Z</time>
      </trkpt>
      <trkpt lat="46.49598" lon="8.29644">
        <ele>1352</ele>
        <time>2020-10-24T08:24:27.937Z</time>
      </trkpt>
      <trkpt lat="46.49596" lon="8.29642">
        <ele>1352</ele>
        <time>2020-10-24T08:24:28.937Z</time>
      </trkpt>
      <trkpt lat="46.49595" lon="8.29641">
        <ele>1351</ele>
        <time>2020-10-24T08:24:29.936Z</time>
      </trkpt>
      <trkpt lat="46.49593" lon="8.29639">
        <ele>1351</ele>
        <time>2020-10-24T08:24:30.937Z</time>
      </trkpt>
      <trkpt lat="46.49591" lon="8.29637">
        <ele>1351</ele>
        <time>2020-10-24T08:24:31.936Z</time>
      </trkpt>
      <trkpt lat="46.49589" lon="8.29635">
        <ele>1351</ele>
        <time>2020-10-24T08:24:32.937Z</time>
      </trkpt>
      <trkpt lat="46.49587" lon="8.29633">
        <ele>1350</ele>
        <time>2020-10-24T08:24:33.936Z</time>
      </trkpt>
      <trkpt lat="46.49586" lon="8.29631">
        <ele>1350</ele>
        <time>2020-10-24T08:24:34.937Z</time>
      </trkpt>
      <trkpt lat="46.49584" lon="8.29629">
        <ele>1351</ele>
        <time>2020-10-24T08:24:35.937Z</time>
      </trkpt>
      <trkpt lat="46.49582" lon="8.29628">
        <ele>1351</ele>
        <time>2020-10-24T08:24:36.936Z</time>
      </trkpt>
      <trkpt lat="46.49581" lon="8.29626">
        <ele>1351</ele>
        <time>2020-10-24T08:24:37.937Z</time>
      </trkpt>
      <trkpt lat="46.49579" lon="8.29624">
        <ele>1351</ele>
        <time>2020-10-24T08:24:38.937Z</time>
      </trkpt>
      <trkpt lat="46.49578" lon="8.29621">
        <ele>1351</ele>
        <time>2020-10-24T08:24:39.937Z</time>
      </trkpt>
      <trkpt lat="46.49576" lon="8.29619">
        <ele>1351</ele>
        <time>2020-10-24T08:24:40.936Z</time>
      </trkpt>
      <trkpt lat="46.49574" lon="8.29617">
        <ele>1351</ele>
        <time>2020-10-24T08:24:41.937Z</time>
      </trkpt>
      <trkpt lat="46.49573" lon="8.29616">
        <ele>1351</ele>
        <time>2020-10-24T08:24:42.936Z</time>
      </trkpt>
      <trkpt lat="46.49571" lon="8.29614">
        <ele>1352</ele>
        <time>2020-10-24T08:24:43.937Z</time>
      </trkpt>
      <trkpt lat="46.49569" lon="8.29612">
        <ele>1352</ele>
        <time>2020-10-24T08:24:44.937Z</time>
      </trkpt>
      <trkpt lat="46.49567" lon="8.2961">
        <ele>1352</ele>
        <time>2020-10-24T08:24:45.936Z</time>
      </trkpt>
      <trkpt lat="46.49565" lon="8.29609">
        <ele>1352</ele>
        <time>2020-10-24T08:24:46.936Z</time>
      </trkpt>
      <trkpt lat="46.49564" lon="8.29607">
        <ele>1353</ele>
        <time>2020-10-24T08:24:47.937Z</time>
      </trkpt>
      <trkpt lat="46.49562" lon="8.29605">
        <ele>1353</ele>
        <time>2020-10-24T08:24:48.937Z</time>
      </trkpt>
      <trkpt lat="46.49561" lon="8.29603">
        <ele>1353</ele>
        <time>2020-10-24T08:24:49.937Z</time>
      </trkpt>
      <trkpt lat="46.49559" lon="8.29601">
        <ele>1354</ele>
        <time>2020-10-24T08:24:50.936Z</time>
      </trkpt>
      <trkpt lat="46.49557" lon="8.29599">
        <ele>1354</ele>
        <time>2020-10-24T08:24:51.937Z</time>
      </trkpt>
      <trkpt lat="46.49556" lon="8.29597">
        <ele>1354</ele>
        <time>2020-10-24T08:24:52.936Z</time>
      </trkpt>
      <trkpt lat="46.49554" lon="8.29595">
        <ele>1354</ele>
        <time>2020-10-24T08:24:53.937Z</time>
      </trkpt>
      <trkpt lat="46.49552" lon="8.29593">
        <ele>1355</ele>
        <time>2020-10-24T08:24:54.937Z</time>
      </trkpt>
      <trkpt lat="46.4955" lon="8.29592">
        <ele>1355</ele>
        <time>2020-10-24T08:24:55.937Z</time>
      </trkpt>
      <trkpt lat="46.49549" lon="8.29591">
        <ele>1355</ele>
        <time>2020-10-24T08:24:56.936Z</time>
      </trkpt>
      <trkpt lat="46.49547" lon="8.2959">
        <ele>1354</ele>
        <time>2020-10-24T08:24:57.936Z</time>
      </trkpt>
      <trkpt lat="46.49545" lon="8.29588">
        <ele>1354</ele>
        <time>2020-10-24T08:24:58.936Z</time>
      </trkpt>
      <trkpt lat="46.49543" lon="8.29587">
        <ele>1354</ele>
        <time>2020-10-24T08:24:59.936Z</time>
      </trkpt>
      <trkpt lat="46.49541" lon="8.29585">
        <ele>1354</ele>
        <time>2020-10-24T08:25:00.936Z</time>
      </trkpt>
      <trkpt lat="46.49539" lon="8.29584">
        <ele>1354</ele>
        <time>2020-10-24T08:25:01.936Z</time>
      </trkpt>
      <trkpt lat="46.49538" lon="8.29582">
        <ele>1354</ele>
        <time>2020-10-24T08:25:02.936Z</time>
      </trkpt>
      <trkpt lat="46.49536" lon="8.29582">
        <ele>1354</ele>
        <time>2020-10-24T08:25:03.936Z</time>
      </trkpt>
      <trkpt lat="46.49534" lon="8.2958">
        <ele>1354</ele>
        <time>2020-10-24T08:25:04.937Z</time>
      </trkpt>
      <trkpt lat="46.49532" lon="8.29579">
        <ele>1353</ele>
        <time>2020-10-24T08:25:05.937Z</time>
      </trkpt>
      <trkpt lat="46.4953" lon="8.29578">
        <ele>1353</ele>
        <time>2020-10-24T08:25:06.936Z</time>
      </trkpt>
      <trkpt lat="46.49529" lon="8.29577">
        <ele>1353</ele>
        <time>2020-10-24T08:25:07.937Z</time>
      </trkpt>
      <trkpt lat="46.49527" lon="8.29575">
        <ele>1352</ele>
        <time>2020-10-24T08:25:08.937Z</time>
      </trkpt>
      <trkpt lat="46.49525" lon="8.29574">
        <ele>1352</ele>
        <time>2020-10-24T08:25:09.936Z</time>
      </trkpt>
      <trkpt lat="46.49524" lon="8.29572">
        <ele>1353</ele>
        <time>2020-10-24T08:25:10.936Z</time>
      </trkpt>
      <trkpt lat="46.49522" lon="8.2957">
        <ele>1353</ele>
        <time>2020-10-24T08:25:11.937Z</time>
      </trkpt>
      <trkpt lat="46.4952" lon="8.29569">
        <ele>1353</ele>
        <time>2020-10-24T08:25:12.936Z</time>
      </trkpt>
      <trkpt lat="46.49518" lon="8.29567">
        <ele>1353</ele>
        <time>2020-10-24T08:25:13.937Z</time>
      </trkpt>
      <trkpt lat="46.49516" lon="8.29565">
        <ele>1352</ele>
        <time>2020-10-24T08:25:14.936Z</time>
      </trkpt>
      <trkpt lat="46.49515" lon="8.29563">
        <ele>1352</ele>
        <time>2020-10-24T08:25:15.937Z</time>
      </trkpt>
      <trkpt lat="46.49513" lon="8.29561">
        <ele>1352</ele>
        <time>2020-10-24T08:25:16.936Z</time>
      </trkpt>
      <trkpt lat="46.49511" lon="8.29559">
        <ele>1352</ele>
        <time>2020-10-24T08:25:17.937Z</time>
      </trkpt>
      <trkpt lat="46.4951" lon="8.29557">
        <ele>1353</ele>
        <time>2020-10-24T08:25:18.937Z</time>
      </trkpt>
      <trkpt lat="46.49508" lon="8.29555">
        <ele>1353</ele>
        <time>2020-10-24T08:25:19.937Z</time>
      </trkpt>
      <trkpt lat="46.49506" lon="8.29552">
        <ele>1353</ele>
        <time>2020-10-24T08:25:20.937Z</time>
      </trkpt>
      <trkpt lat="46.49505" lon="8.2955">
        <ele>1353</ele>
        <time>2020-10-24T08:25:21.937Z</time>
      </trkpt>
      <trkpt lat="46.49503" lon="8.29547">
        <ele>1353</ele>
        <time>2020-10-24T08:25:22.936Z</time>
      </trkpt>
      <trkpt lat="46.49502" lon="8.29545">
        <ele>1353</ele>
        <time>2020-10-24T08:25:23.937Z</time>
      </trkpt>
      <trkpt lat="46.49501" lon="8.29543">
        <ele>1353</ele>
        <time>2020-10-24T08:25:24.936Z</time>
      </trkpt>
      <trkpt lat="46.49499" lon="8.2954">
        <ele>1353</ele>
        <time>2020-10-24T08:25:25.937Z</time>
      </trkpt>
      <trkpt lat="46.49498" lon="8.29538">
        <ele>1353</ele>
        <time>2020-10-24T08:25:26.937Z</time>
      </trkpt>
      <trkpt lat="46.49497" lon="8.29536">
        <ele>1353</ele>
        <time>2020-10-24T08:25:27.937Z</time>
      </trkpt>
      <trkpt lat="46.49495" lon="8.29533">
        <ele>1353</ele>
        <time>2020-10-24T08:25:28.936Z</time>
      </trkpt>
      <trkpt lat="46.49494" lon="8.29531">
        <ele>1353</ele>
        <time>2020-10-24T08:25:29.937Z</time>
      </trkpt>
      <trkpt lat="46.49493" lon="8.29528">
        <ele>1353</ele>
        <time>2020-10-24T08:25:30.937Z</time>
      </trkpt>
      <trkpt lat="46.49491" lon="8.29526">
        <ele>1352</ele>
        <time>2020-10-24T08:25:31.936Z</time>
      </trkpt>
      <trkpt lat="46.4949" lon="8.29524">
        <ele>1352</ele>
        <time>2020-10-24T08:25:32.936Z</time>
      </trkpt>
      <trkpt lat="46.49489" lon="8.29521">
        <ele>1352</ele>
        <time>2020-10-24T08:25:33.937Z</time>
      </trkpt>
      <trkpt lat="46.49488" lon="8.29518">
        <ele>1352</ele>
        <time>2020-10-24T08:25:34.937Z</time>
      </trkpt>
      <trkpt lat="46.49488" lon="8.29515">
        <ele>1352</ele>
        <time>2020-10-24T08:25:35.937Z</time>
      </trkpt>
      <trkpt lat="46.49487" lon="8.29512">
        <ele>1352</ele>
        <time>2020-10-24T08:25:36.937Z</time>
      </trkpt>
      <trkpt lat="46.49487" lon="8.29509">
        <ele>1352</ele>
        <time>2020-10-24T08:25:37.936Z</time>
      </trkpt>
      <trkpt lat="46.49486" lon="8.29506">
        <ele>1352</ele>
        <time>2020-10-24T08:25:38.936Z</time>
      </trkpt>
      <trkpt lat="46.49486" lon="8.29504">
        <ele>1352</ele>
        <time>2020-10-24T08:25:39.937Z</time>
      </trkpt>
      <trkpt lat="46.49485" lon="8.29501">
        <ele>1352</ele>
        <time>2020-10-24T08:25:40.937Z</time>
      </trkpt>
      <trkpt lat="46.49485" lon="8.29499">
        <ele>1352</ele>
        <time>2020-10-24T08:25:41.937Z</time>
      </trkpt>
      <trkpt lat="46.49484" lon="8.29496">
        <ele>1351</ele>
        <time>2020-10-24T08:25:42.936Z</time>
      </trkpt>
      <trkpt lat="46.49483" lon="8.29494">
        <ele>1350</ele>
        <time>2020-10-24T08:25:43.937Z</time>
      </trkpt>
      <trkpt lat="46.49483" lon="8.29491">
        <ele>1350</ele>
        <time>2020-10-24T08:25:44.936Z</time>
      </trkpt>
      <trkpt lat="46.49482" lon="8.29488">
        <ele>1350</ele>
        <time>2020-10-24T08:25:45.937Z</time>
      </trkpt>
      <trkpt lat="46.49482" lon="8.29486">
        <ele>1350</ele>
        <time>2020-10-24T08:25:46.936Z</time>
      </trkpt>
      <trkpt lat="46.49481" lon="8.29484">
        <ele>1350</ele>
        <time>2020-10-24T08:25:47.937Z</time>
      </trkpt>
      <trkpt lat="46.4948" lon="8.29481">
        <ele>1350</ele>
        <time>2020-10-24T08:25:48.936Z</time>
      </trkpt>
      <trkpt lat="46.49479" lon="8.29479">
        <ele>1351</ele>
        <time>2020-10-24T08:25:49.937Z</time>
      </trkpt>
      <trkpt lat="46.49477" lon="8.29476">
        <ele>1351</ele>
        <time>2020-10-24T08:25:50.937Z</time>
      </trkpt>
      <trkpt lat="46.49476" lon="8.29473">
        <ele>1351</ele>
        <time>2020-10-24T08:25:51.936Z</time>
      </trkpt>
      <trkpt lat="46.49474" lon="8.29471">
        <ele>1351</ele>
        <time>2020-10-24T08:25:52.937Z</time>
      </trkpt>
      <trkpt lat="46.49473" lon="8.29468">
        <ele>1352</ele>
        <time>2020-10-24T08:25:53.937Z</time>
      </trkpt>
      <trkpt lat="46.49472" lon="8.29466">
        <ele>1352</ele>
        <time>2020-10-24T08:25:54.937Z</time>
      </trkpt>
      <trkpt lat="46.4947" lon="8.29464">
        <ele>1352</ele>
        <time>2020-10-24T08:25:55.937Z</time>
      </trkpt>
      <trkpt lat="46.49469" lon="8.29461">
        <ele>1352</ele>
        <time>2020-10-24T08:25:56.937Z</time>
      </trkpt>
      <trkpt lat="46.49467" lon="8.29459">
        <ele>1352</ele>
        <time>2020-10-24T08:25:57.937Z</time>
      </trkpt>
      <trkpt lat="46.49466" lon="8.29457">
        <ele>1352</ele>
        <time>2020-10-24T08:25:58.937Z</time>
      </trkpt>
      <trkpt lat="46.49465" lon="8.29454">
        <ele>1353</ele>
        <time>2020-10-24T08:25:59.937Z</time>
      </trkpt>
      <trkpt lat="46.49463" lon="8.29452">
        <ele>1353</ele>
        <time>2020-10-24T08:26:00.936Z</time>
      </trkpt>
      <trkpt lat="46.49462" lon="8.2945">
        <ele>1353</ele>
        <time>2020-10-24T08:26:01.937Z</time>
      </trkpt>
      <trkpt lat="46.49461" lon="8.29447">
        <ele>1353</ele>
        <time>2020-10-24T08:26:02.936Z</time>
      </trkpt>
      <trkpt lat="46.49459" lon="8.29445">
        <ele>1352</ele>
        <time>2020-10-24T08:26:03.937Z</time>
      </trkpt>
      <trkpt lat="46.49458" lon="8.29442">
        <ele>1351</ele>
        <time>2020-10-24T08:26:04.936Z</time>
      </trkpt>
      <trkpt lat="46.49456" lon="8.2944">
        <ele>1351</ele>
        <time>2020-10-24T08:26:05.937Z</time>
      </trkpt>
      <trkpt lat="46.49455" lon="8.29438">
        <ele>1351</ele>
        <time>2020-10-24T08:26:06.936Z</time>
      </trkpt>
      <trkpt lat="46.49454" lon="8.29436">
        <ele>1351</ele>
        <time>2020-10-24T08:26:07.937Z</time>
      </trkpt>
      <trkpt lat="46.49452" lon="8.29434">
        <ele>1351</ele>
        <time>2020-10-24T08:26:08.936Z</time>
      </trkpt>
      <trkpt lat="46.49451" lon="8.29431">
        <ele>1352</ele>
        <time>2020-10-24T08:26:09.936Z</time>
      </trkpt>
      <trkpt lat="46.4945" lon="8.29429">
        <ele>1352</ele>
        <time>2020-10-24T08:26:10.937Z</time>
      </trkpt>
      <trkpt lat="46.49448" lon="8.29427">
        <ele>1351</ele>
        <time>2020-10-24T08:26:11.937Z</time>
      </trkpt>
      <trkpt lat="46.49447" lon="8.29425">
        <ele>1352</ele>
        <time>2020-10-24T08:26:12.937Z</time>
      </trkpt>
      <trkpt lat="46.49446" lon="8.29422">
        <ele>1352</ele>
        <time>2020-10-24T08:26:13.936Z</time>
      </trkpt>
      <trkpt lat="46.49445" lon="8.2942">
        <ele>1352</ele>
        <time>2020-10-24T08:26:14.937Z</time>
      </trkpt>
      <trkpt lat="46.49443" lon="8.29417">
        <ele>1352</ele>
        <time>2020-10-24T08:26:15.937Z</time>
      </trkpt>
      <trkpt lat="46.49442" lon="8.29414">
        <ele>1352</ele>
        <time>2020-10-24T08:26:16.937Z</time>
      </trkpt>
      <trkpt lat="46.49441" lon="8.29412">
        <ele>1351</ele>
        <time>2020-10-24T08:26:17.936Z</time>
      </trkpt>
      <trkpt lat="46.49439" lon="8.29409">
        <ele>1351</ele>
        <time>2020-10-24T08:26:18.936Z</time>
      </trkpt>
      <trkpt lat="46.49438" lon="8.29406">
        <ele>1350</ele>
        <time>2020-10-24T08:26:19.937Z</time>
      </trkpt>
      <trkpt lat="46.49437" lon="8.29404">
        <ele>1349</ele>
        <time>2020-10-24T08:26:20.937Z</time>
      </trkpt>
      <trkpt lat="46.49435" lon="8.29401">
        <ele>1349</ele>
        <time>2020-10-24T08:26:21.936Z</time>
      </trkpt>
      <trkpt lat="46.49434" lon="8.29398">
        <ele>1348</ele>
        <time>2020-10-24T08:26:22.937Z</time>
      </trkpt>
      <trkpt lat="46.49432" lon="8.29395">
        <ele>1348</ele>
        <time>2020-10-24T08:26:23.937Z</time>
      </trkpt>
      <trkpt lat="46.49431" lon="8.29392">
        <ele>1347</ele>
        <time>2020-10-24T08:26:24.937Z</time>
      </trkpt>
      <trkpt lat="46.49429" lon="8.2939">
        <ele>1346</ele>
        <time>2020-10-24T08:26:25.937Z</time>
      </trkpt>
      <trkpt lat="46.49428" lon="8.29388">
        <ele>1346</ele>
        <time>2020-10-24T08:26:26.937Z</time>
      </trkpt>
      <trkpt lat="46.49426" lon="8.29385">
        <ele>1346</ele>
        <time>2020-10-24T08:26:27.937Z</time>
      </trkpt>
      <trkpt lat="46.49425" lon="8.29382">
        <ele>1346</ele>
        <time>2020-10-24T08:26:28.936Z</time>
      </trkpt>
      <trkpt lat="46.49424" lon="8.2938">
        <ele>1346</ele>
        <time>2020-10-24T08:26:29.937Z</time>
      </trkpt>
      <trkpt lat="46.49423" lon="8.29378">
        <ele>1346</ele>
        <time>2020-10-24T08:26:30.937Z</time>
      </trkpt>
      <trkpt lat="46.49422" lon="8.29375">
        <ele>1347</ele>
        <time>2020-10-24T08:26:31.936Z</time>
      </trkpt>
      <trkpt lat="46.49421" lon="8.29373">
        <ele>1347</ele>
        <time>2020-10-24T08:26:32.937Z</time>
      </trkpt>
      <trkpt lat="46.4942" lon="8.2937">
        <ele>1347</ele>
        <time>2020-10-24T08:26:33.937Z</time>
      </trkpt>
      <trkpt lat="46.49418" lon="8.29368">
        <ele>1347</ele>
        <time>2020-10-24T08:26:34.937Z</time>
      </trkpt>
      <trkpt lat="46.49417" lon="8.29365">
        <ele>1347</ele>
        <time>2020-10-24T08:26:35.936Z</time>
      </trkpt>
      <trkpt lat="46.49416" lon="8.29363">
        <ele>1347</ele>
        <time>2020-10-24T08:26:36.936Z</time>
      </trkpt>
      <trkpt lat="46.49415" lon="8.2936">
        <ele>1347</ele>
        <time>2020-10-24T08:26:37.937Z</time>
      </trkpt>
      <trkpt lat="46.49414" lon="8.29358">
        <ele>1347</ele>
        <time>2020-10-24T08:26:38.937Z</time>
      </trkpt>
      <trkpt lat="46.49413" lon="8.29355">
        <ele>1347</ele>
        <time>2020-10-24T08:26:39.937Z</time>
      </trkpt>
      <trkpt lat="46.49412" lon="8.29352">
        <ele>1347</ele>
        <time>2020-10-24T08:26:40.936Z</time>
      </trkpt>
      <trkpt lat="46.4941" lon="8.29349">
        <ele>1346</ele>
        <time>2020-10-24T08:26:41.936Z</time>
      </trkpt>
      <trkpt lat="46.49409" lon="8.29347">
        <ele>1346</ele>
        <time>2020-10-24T08:26:42.937Z</time>
      </trkpt>
      <trkpt lat="46.49408" lon="8.29344">
        <ele>1346</ele>
        <time>2020-10-24T08:26:43.936Z</time>
      </trkpt>
      <trkpt lat="46.49407" lon="8.29341">
        <ele>1347</ele>
        <time>2020-10-24T08:26:44.937Z</time>
      </trkpt>
      <trkpt lat="46.49406" lon="8.29338">
        <ele>1347</ele>
        <time>2020-10-24T08:26:45.937Z</time>
      </trkpt>
      <trkpt lat="46.49405" lon="8.29335">
        <ele>1347</ele>
        <time>2020-10-24T08:26:46.936Z</time>
      </trkpt>
      <trkpt lat="46.49404" lon="8.29332">
        <ele>1348</ele>
        <time>2020-10-24T08:26:47.936Z</time>
      </trkpt>
      <trkpt lat="46.49403" lon="8.29329">
        <ele>1349</ele>
        <time>2020-10-24T08:26:48.937Z</time>
      </trkpt>
      <trkpt lat="46.49402" lon="8.29326">
        <ele>1349</ele>
        <time>2020-10-24T08:26:49.937Z</time>
      </trkpt>
      <trkpt lat="46.49401" lon="8.29323">
        <ele>1349</ele>
        <time>2020-10-24T08:26:50.937Z</time>
      </trkpt>
      <trkpt lat="46.494" lon="8.29321">
        <ele>1349</ele>
        <time>2020-10-24T08:26:51.937Z</time>
      </trkpt>
      <trkpt lat="46.49398" lon="8.29318">
        <ele>1348</ele>
        <time>2020-10-24T08:26:52.936Z</time>
      </trkpt>
      <trkpt lat="46.49398" lon="8.29315">
        <ele>1348</ele>
        <time>2020-10-24T08:26:53.936Z</time>
      </trkpt>
      <trkpt lat="46.49397" lon="8.29312">
        <ele>1347</ele>
        <time>2020-10-24T08:26:54.937Z</time>
      </trkpt>
      <trkpt lat="46.49395" lon="8.29309">
        <ele>1347</ele>
        <time>2020-10-24T08:26:55.937Z</time>
      </trkpt>
      <trkpt lat="46.49394" lon="8.29306">
        <ele>1346</ele>
        <time>2020-10-24T08:26:56.937Z</time>
      </trkpt>
      <trkpt lat="46.49393" lon="8.29303">
        <ele>1345</ele>
        <time>2020-10-24T08:26:57.937Z</time>
      </trkpt>
      <trkpt lat="46.49392" lon="8.29301">
        <ele>1345</ele>
        <time>2020-10-24T08:26:58.936Z</time>
      </trkpt>
      <trkpt lat="46.49391" lon="8.29298">
        <ele>1345</ele>
        <time>2020-10-24T08:26:59.936Z</time>
      </trkpt>
      <trkpt lat="46.4939" lon="8.29295">
        <ele>1345</ele>
        <time>2020-10-24T08:27:00.937Z</time>
      </trkpt>
      <trkpt lat="46.49388" lon="8.29292">
        <ele>1345</ele>
        <time>2020-10-24T08:27:01.937Z</time>
      </trkpt>
      <trkpt lat="46.49388" lon="8.2929">
        <ele>1345</ele>
        <time>2020-10-24T08:27:02.937Z</time>
      </trkpt>
      <trkpt lat="46.49386" lon="8.29287">
        <ele>1345</ele>
        <time>2020-10-24T08:27:03.937Z</time>
      </trkpt>
      <trkpt lat="46.49385" lon="8.29283">
        <ele>1345</ele>
        <time>2020-10-24T08:27:04.937Z</time>
      </trkpt>
      <trkpt lat="46.49384" lon="8.29281">
        <ele>1345</ele>
        <time>2020-10-24T08:27:05.936Z</time>
      </trkpt>
      <trkpt lat="46.49383" lon="8.29278">
        <ele>1345</ele>
        <time>2020-10-24T08:27:06.936Z</time>
      </trkpt>
      <trkpt lat="46.49382" lon="8.29276">
        <ele>1345</ele>
        <time>2020-10-24T08:27:07.937Z</time>
      </trkpt>
      <trkpt lat="46.49381" lon="8.29273">
        <ele>1346</ele>
        <time>2020-10-24T08:27:08.937Z</time>
      </trkpt>
      <trkpt lat="46.49379" lon="8.2927">
        <ele>1346</ele>
        <time>2020-10-24T08:27:09.937Z</time>
      </trkpt>
      <trkpt lat="46.49378" lon="8.29267">
        <ele>1346</ele>
        <time>2020-10-24T08:27:10.937Z</time>
      </trkpt>
      <trkpt lat="46.49376" lon="8.29264">
        <ele>1345</ele>
        <time>2020-10-24T08:27:11.936Z</time>
      </trkpt>
      <trkpt lat="46.49375" lon="8.29262">
        <ele>1345</ele>
        <time>2020-10-24T08:27:12.937Z</time>
      </trkpt>
      <trkpt lat="46.49373" lon="8.2926">
        <ele>1346</ele>
        <time>2020-10-24T08:27:13.936Z</time>
      </trkpt>
      <trkpt lat="46.49371" lon="8.29258">
        <ele>1346</ele>
        <time>2020-10-24T08:27:14.937Z</time>
      </trkpt>
      <trkpt lat="46.49369" lon="8.29256">
        <ele>1346</ele>
        <time>2020-10-24T08:27:15.937Z</time>
      </trkpt>
      <trkpt lat="46.49367" lon="8.29254">
        <ele>1346</ele>
        <time>2020-10-24T08:27:16.937Z</time>
      </trkpt>
      <trkpt lat="46.49365" lon="8.29252">
        <ele>1346</ele>
        <time>2020-10-24T08:27:17.937Z</time>
      </trkpt>
      <trkpt lat="46.49364" lon="8.2925">
        <ele>1345</ele>
        <time>2020-10-24T08:27:18.937Z</time>
      </trkpt>
      <trkpt lat="46.49362" lon="8.29248">
        <ele>1345</ele>
        <time>2020-10-24T08:27:19.937Z</time>
      </trkpt>
      <trkpt lat="46.49361" lon="8.29246">
        <ele>1344</ele>
        <time>2020-10-24T08:27:20.936Z</time>
      </trkpt>
      <trkpt lat="46.49359" lon="8.29243">
        <ele>1344</ele>
        <time>2020-10-24T08:27:21.936Z</time>
      </trkpt>
      <trkpt lat="46.49358" lon="8.29241">
        <ele>1344</ele>
        <time>2020-10-24T08:27:22.936Z</time>
      </trkpt>
      <trkpt lat="46.49356" lon="8.29239">
        <ele>1343</ele>
        <time>2020-10-24T08:27:23.937Z</time>
      </trkpt>
      <trkpt lat="46.49355" lon="8.29236">
        <ele>1343</ele>
        <time>2020-10-24T08:27:24.936Z</time>
      </trkpt>
      <trkpt lat="46.49354" lon="8.29233">
        <ele>1343</ele>
        <time>2020-10-24T08:27:25.937Z</time>
      </trkpt>
      <trkpt lat="46.49352" lon="8.29231">
        <ele>1343</ele>
        <time>2020-10-24T08:27:26.936Z</time>
      </trkpt>
      <trkpt lat="46.49351" lon="8.29229">
        <ele>1343</ele>
        <time>2020-10-24T08:27:27.936Z</time>
      </trkpt>
      <trkpt lat="46.4935" lon="8.29226">
        <ele>1343</ele>
        <time>2020-10-24T08:27:28.937Z</time>
      </trkpt>
      <trkpt lat="46.49349" lon="8.29224">
        <ele>1343</ele>
        <time>2020-10-24T08:27:29.937Z</time>
      </trkpt>
      <trkpt lat="46.49347" lon="8.2922">
        <ele>1343</ele>
        <time>2020-10-24T08:27:30.936Z</time>
      </trkpt>
      <trkpt lat="46.49346" lon="8.29218">
        <ele>1343</ele>
        <time>2020-10-24T08:27:31.936Z</time>
      </trkpt>
      <trkpt lat="46.49345" lon="8.29215">
        <ele>1343</ele>
        <time>2020-10-24T08:27:32.937Z</time>
      </trkpt>
      <trkpt lat="46.49344" lon="8.29213">
        <ele>1343</ele>
        <time>2020-10-24T08:27:33.936Z</time>
      </trkpt>
      <trkpt lat="46.49343" lon="8.2921">
        <ele>1343</ele>
        <time>2020-10-24T08:27:34.937Z</time>
      </trkpt>
      <trkpt lat="46.49342" lon="8.29207">
        <ele>1343</ele>
        <time>2020-10-24T08:27:35.937Z</time>
      </trkpt>
      <trkpt lat="46.49341" lon="8.29204">
        <ele>1343</ele>
        <time>2020-10-24T08:27:36.937Z</time>
      </trkpt>
      <trkpt lat="46.4934" lon="8.29201">
        <ele>1343</ele>
        <time>2020-10-24T08:27:37.937Z</time>
      </trkpt>
      <trkpt lat="46.49338" lon="8.29198">
        <ele>1343</ele>
        <time>2020-10-24T08:27:38.936Z</time>
      </trkpt>
      <trkpt lat="46.49337" lon="8.29195">
        <ele>1343</ele>
        <time>2020-10-24T08:27:39.936Z</time>
      </trkpt>
      <trkpt lat="46.49336" lon="8.29192">
        <ele>1343</ele>
        <time>2020-10-24T08:27:40.937Z</time>
      </trkpt>
      <trkpt lat="46.49335" lon="8.29189">
        <ele>1343</ele>
        <time>2020-10-24T08:27:41.937Z</time>
      </trkpt>
      <trkpt lat="46.49334" lon="8.29186">
        <ele>1343</ele>
        <time>2020-10-24T08:27:42.937Z</time>
      </trkpt>
      <trkpt lat="46.49333" lon="8.29183">
        <ele>1343</ele>
        <time>2020-10-24T08:27:43.937Z</time>
      </trkpt>
      <trkpt lat="46.49332" lon="8.2918">
        <ele>1343</ele>
        <time>2020-10-24T08:27:44.936Z</time>
      </trkpt>
      <trkpt lat="46.49331" lon="8.29177">
        <ele>1343</ele>
        <time>2020-10-24T08:27:45.937Z</time>
      </trkpt>
      <trkpt lat="46.49331" lon="8.29175">
        <ele>1343</ele>
        <time>2020-10-24T08:27:46.937Z</time>
      </trkpt>
      <trkpt lat="46.4933" lon="8.29172">
        <ele>1342</ele>
        <time>2020-10-24T08:27:47.936Z</time>
      </trkpt>
      <trkpt lat="46.49329" lon="8.29169">
        <ele>1342</ele>
        <time>2020-10-24T08:27:48.936Z</time>
      </trkpt>
      <trkpt lat="46.49329" lon="8.29166">
        <ele>1342</ele>
        <time>2020-10-24T08:27:49.936Z</time>
      </trkpt>
      <trkpt lat="46.49328" lon="8.29162">
        <ele>1342</ele>
        <time>2020-10-24T08:27:50.936Z</time>
      </trkpt>
      <trkpt lat="46.49327" lon="8.29159">
        <ele>1342</ele>
        <time>2020-10-24T08:27:51.937Z</time>
      </trkpt>
      <trkpt lat="46.49327" lon="8.29156">
        <ele>1342</ele>
        <time>2020-10-24T08:27:52.937Z</time>
      </trkpt>
      <trkpt lat="46.49326" lon="8.29153">
        <ele>1341</ele>
        <time>2020-10-24T08:27:53.937Z</time>
      </trkpt>
      <trkpt lat="46.49326" lon="8.2915">
        <ele>1341</ele>
        <time>2020-10-24T08:27:54.937Z</time>
      </trkpt>
      <trkpt lat="46.49325" lon="8.29147">
        <ele>1341</ele>
        <time>2020-10-24T08:27:55.937Z</time>
      </trkpt>
      <trkpt lat="46.49325" lon="8.29144">
        <ele>1341</ele>
        <time>2020-10-24T08:27:56.937Z</time>
      </trkpt>
      <trkpt lat="46.49324" lon="8.29141">
        <ele>1341</ele>
        <time>2020-10-24T08:27:57.936Z</time>
      </trkpt>
      <trkpt lat="46.49324" lon="8.29138">
        <ele>1342</ele>
        <time>2020-10-24T08:27:58.937Z</time>
      </trkpt>
      <trkpt lat="46.49324" lon="8.29135">
        <ele>1342</ele>
        <time>2020-10-24T08:27:59.936Z</time>
      </trkpt>
      <trkpt lat="46.49323" lon="8.29132">
        <ele>1342</ele>
        <time>2020-10-24T08:28:00.937Z</time>
      </trkpt>
      <trkpt lat="46.49323" lon="8.29128">
        <ele>1342</ele>
        <time>2020-10-24T08:28:01.937Z</time>
      </trkpt>
      <trkpt lat="46.49323" lon="8.29125">
        <ele>1342</ele>
        <time>2020-10-24T08:28:02.937Z</time>
      </trkpt>
      <trkpt lat="46.49322" lon="8.29122">
        <ele>1342</ele>
        <time>2020-10-24T08:28:03.937Z</time>
      </trkpt>
      <trkpt lat="46.49322" lon="8.29118">
        <ele>1342</ele>
        <time>2020-10-24T08:28:04.936Z</time>
      </trkpt>
      <trkpt lat="46.49322" lon="8.29115">
        <ele>1343</ele>
        <time>2020-10-24T08:28:05.937Z</time>
      </trkpt>
      <trkpt lat="46.49321" lon="8.29112">
        <ele>1343</ele>
        <time>2020-10-24T08:28:06.937Z</time>
      </trkpt>
      <trkpt lat="46.49321" lon="8.29109">
        <ele>1343</ele>
        <time>2020-10-24T08:28:07.937Z</time>
      </trkpt>
      <trkpt lat="46.4932" lon="8.29106">
        <ele>1343</ele>
        <time>2020-10-24T08:28:08.936Z</time>
      </trkpt>
      <trkpt lat="46.4932" lon="8.29103">
        <ele>1343</ele>
        <time>2020-10-24T08:28:09.936Z</time>
      </trkpt>
      <trkpt lat="46.49319" lon="8.291">
        <ele>1342</ele>
        <time>2020-10-24T08:28:10.937Z</time>
      </trkpt>
      <trkpt lat="46.49318" lon="8.29097">
        <ele>1342</ele>
        <time>2020-10-24T08:28:11.937Z</time>
      </trkpt>
      <trkpt lat="46.49318" lon="8.29094">
        <ele>1342</ele>
        <time>2020-10-24T08:28:12.937Z</time>
      </trkpt>
      <trkpt lat="46.49317" lon="8.29091">
        <ele>1342</ele>
        <time>2020-10-24T08:28:13.937Z</time>
      </trkpt>
      <trkpt lat="46.49316" lon="8.29088">
        <ele>1342</ele>
        <time>2020-10-24T08:28:14.937Z</time>
      </trkpt>
      <trkpt lat="46.49316" lon="8.29085">
        <ele>1342</ele>
        <time>2020-10-24T08:28:15.936Z</time>
      </trkpt>
      <trkpt lat="46.49315" lon="8.29082">
        <ele>1343</ele>
        <time>2020-10-24T08:28:16.936Z</time>
      </trkpt>
      <trkpt lat="46.49314" lon="8.29079">
        <ele>1343</ele>
        <time>2020-10-24T08:28:17.937Z</time>
      </trkpt>
      <trkpt lat="46.49313" lon="8.29077">
        <ele>1343</ele>
        <time>2020-10-24T08:28:18.937Z</time>
      </trkpt>
      <trkpt lat="46.49311" lon="8.29074">
        <ele>1343</ele>
        <time>2020-10-24T08:28:19.936Z</time>
      </trkpt>
      <trkpt lat="46.4931" lon="8.29072">
        <ele>1343</ele>
        <time>2020-10-24T08:28:20.936Z</time>
      </trkpt>
      <trkpt lat="46.49309" lon="8.29069">
        <ele>1343</ele>
        <time>2020-10-24T08:28:21.937Z</time>
      </trkpt>
      <trkpt lat="46.49307" lon="8.29067">
        <ele>1343</ele>
        <time>2020-10-24T08:28:22.937Z</time>
      </trkpt>
      <trkpt lat="46.49306" lon="8.29064">
        <ele>1343</ele>
        <time>2020-10-24T08:28:23.936Z</time>
      </trkpt>
      <trkpt lat="46.49304" lon="8.29062">
        <ele>1344</ele>
        <time>2020-10-24T08:28:24.937Z</time>
      </trkpt>
      <trkpt lat="46.49303" lon="8.2906">
        <ele>1344</ele>
        <time>2020-10-24T08:28:25.937Z</time>
      </trkpt>
      <trkpt lat="46.49301" lon="8.29058">
        <ele>1344</ele>
        <time>2020-10-24T08:28:26.937Z</time>
      </trkpt>
      <trkpt lat="46.493" lon="8.29056">
        <ele>1344</ele>
        <time>2020-10-24T08:28:27.937Z</time>
      </trkpt>
      <trkpt lat="46.49298" lon="8.29053">
        <ele>1344</ele>
        <time>2020-10-24T08:28:28.937Z</time>
      </trkpt>
      <trkpt lat="46.49297" lon="8.29051">
        <ele>1345</ele>
        <time>2020-10-24T08:28:29.937Z</time>
      </trkpt>
      <trkpt lat="46.49295" lon="8.29049">
        <ele>1345</ele>
        <time>2020-10-24T08:28:30.937Z</time>
      </trkpt>
      <trkpt lat="46.49293" lon="8.29047">
        <ele>1346</ele>
        <time>2020-10-24T08:28:31.937Z</time>
      </trkpt>
      <trkpt lat="46.49291" lon="8.29045">
        <ele>1346</ele>
        <time>2020-10-24T08:28:32.937Z</time>
      </trkpt>
      <trkpt lat="46.4929" lon="8.29043">
        <ele>1347</ele>
        <time>2020-10-24T08:28:33.937Z</time>
      </trkpt>
      <trkpt lat="46.49288" lon="8.29041">
        <ele>1347</ele>
        <time>2020-10-24T08:28:34.936Z</time>
      </trkpt>
      <trkpt lat="46.49286" lon="8.29038">
        <ele>1346</ele>
        <time>2020-10-24T08:28:35.937Z</time>
      </trkpt>
      <trkpt lat="46.49284" lon="8.29036">
        <ele>1346</ele>
        <time>2020-10-24T08:28:36.936Z</time>
      </trkpt>
      <trkpt lat="46.49283" lon="8.29033">
        <ele>1345</ele>
        <time>2020-10-24T08:28:37.937Z</time>
      </trkpt>
      <trkpt lat="46.49281" lon="8.29031">
        <ele>1345</ele>
        <time>2020-10-24T08:28:38.937Z</time>
      </trkpt>
      <trkpt lat="46.4928" lon="8.29028">
        <ele>1344</ele>
        <time>2020-10-24T08:28:39.937Z</time>
      </trkpt>
      <trkpt lat="46.49279" lon="8.29026">
        <ele>1344</ele>
        <time>2020-10-24T08:28:40.937Z</time>
      </trkpt>
      <trkpt lat="46.49278" lon="8.29023">
        <ele>1344</ele>
        <time>2020-10-24T08:28:41.937Z</time>
      </trkpt>
      <trkpt lat="46.49277" lon="8.29021">
        <ele>1343</ele>
        <time>2020-10-24T08:28:42.937Z</time>
      </trkpt>
      <trkpt lat="46.49276" lon="8.29018">
        <ele>1343</ele>
        <time>2020-10-24T08:28:43.937Z</time>
      </trkpt>
      <trkpt lat="46.49275" lon="8.29015">
        <ele>1343</ele>
        <time>2020-10-24T08:28:44.937Z</time>
      </trkpt>
      <trkpt lat="46.49274" lon="8.29012">
        <ele>1343</ele>
        <time>2020-10-24T08:28:45.937Z</time>
      </trkpt>
      <trkpt lat="46.49274" lon="8.29009">
        <ele>1344</ele>
        <time>2020-10-24T08:28:46.936Z</time>
      </trkpt>
      <trkpt lat="46.49273" lon="8.29007">
        <ele>1344</ele>
        <time>2020-10-24T08:28:47.937Z</time>
      </trkpt>
      <trkpt lat="46.49272" lon="8.29004">
        <ele>1344</ele>
        <time>2020-10-24T08:28:48.937Z</time>
      </trkpt>
      <trkpt lat="46.49272" lon="8.29001">
        <ele>1345</ele>
        <time>2020-10-24T08:28:49.936Z</time>
      </trkpt>
      <trkpt lat="46.49271" lon="8.28998">
        <ele>1345</ele>
        <time>2020-10-24T08:28:50.937Z</time>
      </trkpt>
      <trkpt lat="46.49271" lon="8.28995">
        <ele>1345</ele>
        <time>2020-10-24T08:28:51.937Z</time>
      </trkpt>
      <trkpt lat="46.4927" lon="8.28992">
        <ele>1345</ele>
        <time>2020-10-24T08:28:52.937Z</time>
      </trkpt>
      <trkpt lat="46.49269" lon="8.28989">
        <ele>1345</ele>
        <time>2020-10-24T08:28:53.937Z</time>
      </trkpt>
      <trkpt lat="46.49268" lon="8.28986">
        <ele>1345</ele>
        <time>2020-10-24T08:28:54.937Z</time>
      </trkpt>
      <trkpt lat="46.49268" lon="8.28983">
        <ele>1345</ele>
        <time>2020-10-24T08:28:55.936Z</time>
      </trkpt>
      <trkpt lat="46.49267" lon="8.2898">
        <ele>1345</ele>
        <time>2020-10-24T08:28:56.937Z</time>
      </trkpt>
      <trkpt lat="46.49266" lon="8.28977">
        <ele>1345</ele>
        <time>2020-10-24T08:28:57.937Z</time>
      </trkpt>
      <trkpt lat="46.49265" lon="8.28975">
        <ele>1345</ele>
        <time>2020-10-24T08:28:58.936Z</time>
      </trkpt>
      <trkpt lat="46.49264" lon="8.28972">
        <ele>1345</ele>
        <time>2020-10-24T08:28:59.937Z</time>
      </trkpt>
      <trkpt lat="46.49264" lon="8.28969">
        <ele>1345</ele>
        <time>2020-10-24T08:29:00.936Z</time>
      </trkpt>
      <trkpt lat="46.49263" lon="8.28966">
        <ele>1345</ele>
        <time>2020-10-24T08:29:01.937Z</time>
      </trkpt>
      <trkpt lat="46.49262" lon="8.28963">
        <ele>1345</ele>
        <time>2020-10-24T08:29:02.937Z</time>
      </trkpt>
      <trkpt lat="46.49261" lon="8.2896">
        <ele>1345</ele>
        <time>2020-10-24T08:29:03.937Z</time>
      </trkpt>
      <trkpt lat="46.4926" lon="8.28957">
        <ele>1345</ele>
        <time>2020-10-24T08:29:04.937Z</time>
      </trkpt>
      <trkpt lat="46.49259" lon="8.28953">
        <ele>1345</ele>
        <time>2020-10-24T08:29:05.937Z</time>
      </trkpt>
      <trkpt lat="46.49258" lon="8.2895">
        <ele>1345</ele>
        <time>2020-10-24T08:29:06.936Z</time>
      </trkpt>
      <trkpt lat="46.49257" lon="8.28947">
        <ele>1345</ele>
        <time>2020-10-24T08:29:07.937Z</time>
      </trkpt>
      <trkpt lat="46.49256" lon="8.28944">
        <ele>1345</ele>
        <time>2020-10-24T08:29:08.937Z</time>
      </trkpt>
      <trkpt lat="46.49255" lon="8.28941">
        <ele>1345</ele>
        <time>2020-10-24T08:29:09.937Z</time>
      </trkpt>
      <trkpt lat="46.49254" lon="8.28938">
        <ele>1345</ele>
        <time>2020-10-24T08:29:10.936Z</time>
      </trkpt>
      <trkpt lat="46.49253" lon="8.28936">
        <ele>1345</ele>
        <time>2020-10-24T08:29:11.937Z</time>
      </trkpt>
      <trkpt lat="46.49251" lon="8.28933">
        <ele>1345</ele>
        <time>2020-10-24T08:29:12.936Z</time>
      </trkpt>
      <trkpt lat="46.4925" lon="8.2893">
        <ele>1345</ele>
        <time>2020-10-24T08:29:13.936Z</time>
      </trkpt>
      <trkpt lat="46.49249" lon="8.28927">
        <ele>1345</ele>
        <time>2020-10-24T08:29:14.937Z</time>
      </trkpt>
      <trkpt lat="46.49247" lon="8.28925">
        <ele>1345</ele>
        <time>2020-10-24T08:29:15.936Z</time>
      </trkpt>
      <trkpt lat="46.49246" lon="8.28922">
        <ele>1346</ele>
        <time>2020-10-24T08:29:16.937Z</time>
      </trkpt>
      <trkpt lat="46.49245" lon="8.28919">
        <ele>1345</ele>
        <time>2020-10-24T08:29:17.937Z</time>
      </trkpt>
      <trkpt lat="46.49243" lon="8.28917">
        <ele>1346</ele>
        <time>2020-10-24T08:29:18.937Z</time>
      </trkpt>
      <trkpt lat="46.49242" lon="8.28915">
        <ele>1346</ele>
        <time>2020-10-24T08:29:19.937Z</time>
      </trkpt>
      <trkpt lat="46.49241" lon="8.28913">
        <ele>1346</ele>
        <time>2020-10-24T08:29:20.936Z</time>
      </trkpt>
      <trkpt lat="46.49239" lon="8.2891">
        <ele>1346</ele>
        <time>2020-10-24T08:29:21.937Z</time>
      </trkpt>
      <trkpt lat="46.49237" lon="8.28908">
        <ele>1345</ele>
        <time>2020-10-24T08:29:22.937Z</time>
      </trkpt>
      <trkpt lat="46.49236" lon="8.28906">
        <ele>1345</ele>
        <time>2020-10-24T08:29:23.936Z</time>
      </trkpt>
      <trkpt lat="46.49234" lon="8.28904">
        <ele>1345</ele>
        <time>2020-10-24T08:29:24.937Z</time>
      </trkpt>
      <trkpt lat="46.49232" lon="8.28901">
        <ele>1345</ele>
        <time>2020-10-24T08:29:25.937Z</time>
      </trkpt>
      <trkpt lat="46.49231" lon="8.28899">
        <ele>1345</ele>
        <time>2020-10-24T08:29:26.937Z</time>
      </trkpt>
      <trkpt lat="46.49229" lon="8.28897">
        <ele>1345</ele>
        <time>2020-10-24T08:29:27.937Z</time>
      </trkpt>
      <trkpt lat="46.49227" lon="8.28895">
        <ele>1345</ele>
        <time>2020-10-24T08:29:28.936Z</time>
      </trkpt>
      <trkpt lat="46.49225" lon="8.28892">
        <ele>1345</ele>
        <time>2020-10-24T08:29:29.937Z</time>
      </trkpt>
      <trkpt lat="46.49223" lon="8.2889">
        <ele>1346</ele>
        <time>2020-10-24T08:29:30.937Z</time>
      </trkpt>
      <trkpt lat="46.49221" lon="8.28888">
        <ele>1346</ele>
        <time>2020-10-24T08:29:31.937Z</time>
      </trkpt>
      <trkpt lat="46.49219" lon="8.28886">
        <ele>1346</ele>
        <time>2020-10-24T08:29:32.937Z</time>
      </trkpt>
      <trkpt lat="46.49217" lon="8.28884">
        <ele>1346</ele>
        <time>2020-10-24T08:29:33.937Z</time>
      </trkpt>
      <trkpt lat="46.49215" lon="8.28881">
        <ele>1346</ele>
        <time>2020-10-24T08:29:34.936Z</time>
      </trkpt>
      <trkpt lat="46.49213" lon="8.28879">
        <ele>1345</ele>
        <time>2020-10-24T08:29:35.937Z</time>
      </trkpt>
      <trkpt lat="46.49211" lon="8.28877">
        <ele>1345</ele>
        <time>2020-10-24T08:29:36.936Z</time>
      </trkpt>
      <trkpt lat="46.4921" lon="8.28875">
        <ele>1345</ele>
        <time>2020-10-24T08:29:37.936Z</time>
      </trkpt>
      <trkpt lat="46.49209" lon="8.28872">
        <ele>1345</ele>
        <time>2020-10-24T08:29:38.937Z</time>
      </trkpt>
      <trkpt lat="46.49208" lon="8.28869">
        <ele>1345</ele>
        <time>2020-10-24T08:29:39.937Z</time>
      </trkpt>
      <trkpt lat="46.49207" lon="8.28866">
        <ele>1345</ele>
        <time>2020-10-24T08:29:40.937Z</time>
      </trkpt>
      <trkpt lat="46.49206" lon="8.28863">
        <ele>1345</ele>
        <time>2020-10-24T08:29:41.937Z</time>
      </trkpt>
      <trkpt lat="46.49206" lon="8.2886">
        <ele>1345</ele>
        <time>2020-10-24T08:29:42.937Z</time>
      </trkpt>
      <trkpt lat="46.49205" lon="8.28857">
        <ele>1345</ele>
        <time>2020-10-24T08:29:43.937Z</time>
      </trkpt>
      <trkpt lat="46.49204" lon="8.28854">
        <ele>1345</ele>
        <time>2020-10-24T08:29:44.937Z</time>
      </trkpt>
      <trkpt lat="46.49204" lon="8.2885">
        <ele>1345</ele>
        <time>2020-10-24T08:29:45.937Z</time>
      </trkpt>
      <trkpt lat="46.49204" lon="8.28847">
        <ele>1345</ele>
        <time>2020-10-24T08:29:46.937Z</time>
      </trkpt>
      <trkpt lat="46.49204" lon="8.28843">
        <ele>1344</ele>
        <time>2020-10-24T08:29:47.937Z</time>
      </trkpt>
      <trkpt lat="46.49204" lon="8.2884">
        <ele>1344</ele>
        <time>2020-10-24T08:29:48.937Z</time>
      </trkpt>
      <trkpt lat="46.49203" lon="8.28836">
        <ele>1344</ele>
        <time>2020-10-24T08:29:49.937Z</time>
      </trkpt>
      <trkpt lat="46.49203" lon="8.28833">
        <ele>1344</ele>
        <time>2020-10-24T08:29:50.937Z</time>
      </trkpt>
      <trkpt lat="46.49203" lon="8.2883">
        <ele>1345</ele>
        <time>2020-10-24T08:29:51.937Z</time>
      </trkpt>
      <trkpt lat="46.49203" lon="8.28826">
        <ele>1345</ele>
        <time>2020-10-24T08:29:52.937Z</time>
      </trkpt>
      <trkpt lat="46.49203" lon="8.28823">
        <ele>1345</ele>
        <time>2020-10-24T08:29:53.937Z</time>
      </trkpt>
      <trkpt lat="46.49202" lon="8.28819">
        <ele>1344</ele>
        <time>2020-10-24T08:29:54.936Z</time>
      </trkpt>
      <trkpt lat="46.49202" lon="8.28816">
        <ele>1344</ele>
        <time>2020-10-24T08:29:55.936Z</time>
      </trkpt>
      <trkpt lat="46.49202" lon="8.28812">
        <ele>1344</ele>
        <time>2020-10-24T08:29:56.937Z</time>
      </trkpt>
      <trkpt lat="46.49201" lon="8.28809">
        <ele>1345</ele>
        <time>2020-10-24T08:29:57.937Z</time>
      </trkpt>
      <trkpt lat="46.49201" lon="8.28806">
        <ele>1344</ele>
        <time>2020-10-24T08:29:58.936Z</time>
      </trkpt>
      <trkpt lat="46.49201" lon="8.28802">
        <ele>1344</ele>
        <time>2020-10-24T08:29:59.937Z</time>
      </trkpt>
      <trkpt lat="46.492" lon="8.28799">
        <ele>1344</ele>
        <time>2020-10-24T08:30:00.937Z</time>
      </trkpt>
      <trkpt lat="46.492" lon="8.28796">
        <ele>1344</ele>
        <time>2020-10-24T08:30:01.937Z</time>
      </trkpt>
      <trkpt lat="46.49199" lon="8.28793">
        <ele>1344</ele>
        <time>2020-10-24T08:30:02.937Z</time>
      </trkpt>
      <trkpt lat="46.49199" lon="8.28789">
        <ele>1344</ele>
        <time>2020-10-24T08:30:03.936Z</time>
      </trkpt>
      <trkpt lat="46.49199" lon="8.28786">
        <ele>1344</ele>
        <time>2020-10-24T08:30:04.936Z</time>
      </trkpt>
      <trkpt lat="46.49198" lon="8.28783">
        <ele>1344</ele>
        <time>2020-10-24T08:30:05.936Z</time>
      </trkpt>
      <trkpt lat="46.49198" lon="8.28779">
        <ele>1344</ele>
        <time>2020-10-24T08:30:06.937Z</time>
      </trkpt>
      <trkpt lat="46.49198" lon="8.28776">
        <ele>1344</ele>
        <time>2020-10-24T08:30:07.936Z</time>
      </trkpt>
      <trkpt lat="46.49197" lon="8.28773">
        <ele>1344</ele>
        <time>2020-10-24T08:30:08.936Z</time>
      </trkpt>
      <trkpt lat="46.49197" lon="8.28769">
        <ele>1344</ele>
        <time>2020-10-24T08:30:09.936Z</time>
      </trkpt>
      <trkpt lat="46.49197" lon="8.28766">
        <ele>1344</ele>
        <time>2020-10-24T08:30:10.937Z</time>
      </trkpt>
      <trkpt lat="46.49196" lon="8.28763">
        <ele>1344</ele>
        <time>2020-10-24T08:30:11.937Z</time>
      </trkpt>
      <trkpt lat="46.49196" lon="8.2876">
        <ele>1344</ele>
        <time>2020-10-24T08:30:12.936Z</time>
      </trkpt>
      <trkpt lat="46.49195" lon="8.28756">
        <ele>1344</ele>
        <time>2020-10-24T08:30:13.937Z</time>
      </trkpt>
      <trkpt lat="46.49194" lon="8.28753">
        <ele>1344</ele>
        <time>2020-10-24T08:30:14.937Z</time>
      </trkpt>
      <trkpt lat="46.49194" lon="8.2875">
        <ele>1345</ele>
        <time>2020-10-24T08:30:15.937Z</time>
      </trkpt>
      <trkpt lat="46.49193" lon="8.28746">
        <ele>1345</ele>
        <time>2020-10-24T08:30:16.937Z</time>
      </trkpt>
      <trkpt lat="46.49192" lon="8.28743">
        <ele>1345</ele>
        <time>2020-10-24T08:30:17.937Z</time>
      </trkpt>
      <trkpt lat="46.49192" lon="8.2874">
        <ele>1345</ele>
        <time>2020-10-24T08:30:18.937Z</time>
      </trkpt>
      <trkpt lat="46.49191" lon="8.28736">
        <ele>1345</ele>
        <time>2020-10-24T08:30:19.937Z</time>
      </trkpt>
      <trkpt lat="46.4919" lon="8.28733">
        <ele>1345</ele>
        <time>2020-10-24T08:30:20.937Z</time>
      </trkpt>
      <trkpt lat="46.49189" lon="8.2873">
        <ele>1345</ele>
        <time>2020-10-24T08:30:21.936Z</time>
      </trkpt>
      <trkpt lat="46.49189" lon="8.28727">
        <ele>1345</ele>
        <time>2020-10-24T08:30:22.937Z</time>
      </trkpt>
      <trkpt lat="46.49188" lon="8.28724">
        <ele>1345</ele>
        <time>2020-10-24T08:30:23.937Z</time>
      </trkpt>
      <trkpt lat="46.49187" lon="8.28721">
        <ele>1345</ele>
        <time>2020-10-24T08:30:24.937Z</time>
      </trkpt>
      <trkpt lat="46.49186" lon="8.28718">
        <ele>1345</ele>
        <time>2020-10-24T08:30:25.937Z</time>
      </trkpt>
      <trkpt lat="46.49185" lon="8.28715">
        <ele>1345</ele>
        <time>2020-10-24T08:30:26.937Z</time>
      </trkpt>
      <trkpt lat="46.49184" lon="8.28712">
        <ele>1345</ele>
        <time>2020-10-24T08:30:27.936Z</time>
      </trkpt>
      <trkpt lat="46.49183" lon="8.28709">
        <ele>1345</ele>
        <time>2020-10-24T08:30:28.936Z</time>
      </trkpt>
      <trkpt lat="46.49182" lon="8.28706">
        <ele>1345</ele>
        <time>2020-10-24T08:30:29.936Z</time>
      </trkpt>
      <trkpt lat="46.49181" lon="8.28703">
        <ele>1345</ele>
        <time>2020-10-24T08:30:30.937Z</time>
      </trkpt>
      <trkpt lat="46.4918" lon="8.287">
        <ele>1346</ele>
        <time>2020-10-24T08:30:31.936Z</time>
      </trkpt>
      <trkpt lat="46.49179" lon="8.28698">
        <ele>1346</ele>
        <time>2020-10-24T08:30:32.937Z</time>
      </trkpt>
      <trkpt lat="46.49178" lon="8.28695">
        <ele>1346</ele>
        <time>2020-10-24T08:30:33.937Z</time>
      </trkpt>
      <trkpt lat="46.49176" lon="8.28693">
        <ele>1347</ele>
        <time>2020-10-24T08:30:34.936Z</time>
      </trkpt>
      <trkpt lat="46.49175" lon="8.2869">
        <ele>1347</ele>
        <time>2020-10-24T08:30:35.937Z</time>
      </trkpt>
      <trkpt lat="46.49174" lon="8.28688">
        <ele>1347</ele>
        <time>2020-10-24T08:30:36.937Z</time>
      </trkpt>
      <trkpt lat="46.49174" lon="8.28686">
        <ele>1348</ele>
        <time>2020-10-24T08:30:37.937Z</time>
      </trkpt>
      <trkpt lat="46.49173" lon="8.28684">
        <ele>1348</ele>
        <time>2020-10-24T08:30:38.937Z</time>
      </trkpt>
      <trkpt lat="46.49172" lon="8.28682">
        <ele>1348</ele>
        <time>2020-10-24T08:30:39.936Z</time>
      </trkpt>
      <trkpt lat="46.49171" lon="8.2868">
        <ele>1348</ele>
        <time>2020-10-24T08:30:40.937Z</time>
      </trkpt>
      <trkpt lat="46.49169" lon="8.28678">
        <ele>1348</ele>
        <time>2020-10-24T08:30:41.936Z</time>
      </trkpt>
      <trkpt lat="46.49168" lon="8.28675">
        <ele>1348</ele>
        <time>2020-10-24T08:30:42.937Z</time>
      </trkpt>
      <trkpt lat="46.49166" lon="8.28673">
        <ele>1348</ele>
        <time>2020-10-24T08:30:43.937Z</time>
      </trkpt>
      <trkpt lat="46.49165" lon="8.28671">
        <ele>1348</ele>
        <time>2020-10-24T08:30:44.936Z</time>
      </trkpt>
      <trkpt lat="46.49163" lon="8.28669">
        <ele>1348</ele>
        <time>2020-10-24T08:30:45.936Z</time>
      </trkpt>
      <trkpt lat="46.49162" lon="8.28666">
        <ele>1349</ele>
        <time>2020-10-24T08:30:46.937Z</time>
      </trkpt>
      <trkpt lat="46.49161" lon="8.28663">
        <ele>1349</ele>
        <time>2020-10-24T08:30:47.936Z</time>
      </trkpt>
      <trkpt lat="46.4916" lon="8.2866">
        <ele>1350</ele>
        <time>2020-10-24T08:30:48.936Z</time>
      </trkpt>
      <trkpt lat="46.49159" lon="8.28658">
        <ele>1350</ele>
        <time>2020-10-24T08:30:49.937Z</time>
      </trkpt>
      <trkpt lat="46.49158" lon="8.28655">
        <ele>1351</ele>
        <time>2020-10-24T08:30:50.937Z</time>
      </trkpt>
      <trkpt lat="46.49158" lon="8.28652">
        <ele>1351</ele>
        <time>2020-10-24T08:30:51.936Z</time>
      </trkpt>
      <trkpt lat="46.49158" lon="8.28649">
        <ele>1351</ele>
        <time>2020-10-24T08:30:52.936Z</time>
      </trkpt>
      <trkpt lat="46.49158" lon="8.28645">
        <ele>1352</ele>
        <time>2020-10-24T08:30:53.936Z</time>
      </trkpt>
      <trkpt lat="46.49157" lon="8.28643">
        <ele>1353</ele>
        <time>2020-10-24T08:30:54.936Z</time>
      </trkpt>
      <trkpt lat="46.49157" lon="8.2864">
        <ele>1353</ele>
        <time>2020-10-24T08:30:55.937Z</time>
      </trkpt>
      <trkpt lat="46.49156" lon="8.28637">
        <ele>1354</ele>
        <time>2020-10-24T08:30:56.936Z</time>
      </trkpt>
      <trkpt lat="46.49156" lon="8.28635">
        <ele>1354</ele>
        <time>2020-10-24T08:30:57.936Z</time>
      </trkpt>
      <trkpt lat="46.49155" lon="8.28632">
        <ele>1355</ele>
        <time>2020-10-24T08:30:58.936Z</time>
      </trkpt>
      <trkpt lat="46.49154" lon="8.28629">
        <ele>1355</ele>
        <time>2020-10-24T08:30:59.936Z</time>
      </trkpt>
      <trkpt lat="46.49154" lon="8.28626">
        <ele>1355</ele>
        <time>2020-10-24T08:31:00.936Z</time>
      </trkpt>
      <trkpt lat="46.49154" lon="8.28624">
        <ele>1355</ele>
        <time>2020-10-24T08:31:01.937Z</time>
      </trkpt>
      <trkpt lat="46.49153" lon="8.28622">
        <ele>1355</ele>
        <time>2020-10-24T08:31:02.936Z</time>
      </trkpt>
      <trkpt lat="46.49153" lon="8.28619">
        <ele>1355</ele>
        <time>2020-10-24T08:31:03.936Z</time>
      </trkpt>
      <trkpt lat="46.49153" lon="8.28616">
        <ele>1355</ele>
        <time>2020-10-24T08:31:04.936Z</time>
      </trkpt>
      <trkpt lat="46.49152" lon="8.28614">
        <ele>1355</ele>
        <time>2020-10-24T08:31:05.936Z</time>
      </trkpt>
      <trkpt lat="46.49152" lon="8.28611">
        <ele>1355</ele>
        <time>2020-10-24T08:31:06.936Z</time>
      </trkpt>
      <trkpt lat="46.49151" lon="8.28609">
        <ele>1355</ele>
        <time>2020-10-24T08:31:07.936Z</time>
      </trkpt>
      <trkpt lat="46.4915" lon="8.28606">
        <ele>1354</ele>
        <time>2020-10-24T08:31:08.936Z</time>
      </trkpt>
      <trkpt lat="46.49149" lon="8.28604">
        <ele>1354</ele>
        <time>2020-10-24T08:31:09.936Z</time>
      </trkpt>
      <trkpt lat="46.49148" lon="8.28601">
        <ele>1354</ele>
        <time>2020-10-24T08:31:10.936Z</time>
      </trkpt>
      <trkpt lat="46.49147" lon="8.28598">
        <ele>1354</ele>
        <time>2020-10-24T08:31:11.937Z</time>
      </trkpt>
      <trkpt lat="46.49146" lon="8.28596">
        <ele>1354</ele>
        <time>2020-10-24T08:31:12.936Z</time>
      </trkpt>
      <trkpt lat="46.49145" lon="8.28593">
        <ele>1354</ele>
        <time>2020-10-24T08:31:13.937Z</time>
      </trkpt>
      <trkpt lat="46.49144" lon="8.2859">
        <ele>1355</ele>
        <time>2020-10-24T08:31:14.937Z</time>
      </trkpt>
      <trkpt lat="46.49144" lon="8.28587">
        <ele>1354</ele>
        <time>2020-10-24T08:31:15.937Z</time>
      </trkpt>
      <trkpt lat="46.49144" lon="8.28584">
        <ele>1354</ele>
        <time>2020-10-24T08:31:16.937Z</time>
      </trkpt>
      <trkpt lat="46.49143" lon="8.28581">
        <ele>1354</ele>
        <time>2020-10-24T08:31:17.937Z</time>
      </trkpt>
      <trkpt lat="46.49143" lon="8.28577">
        <ele>1354</ele>
        <time>2020-10-24T08:31:18.936Z</time>
      </trkpt>
      <trkpt lat="46.49142" lon="8.28574">
        <ele>1354</ele>
        <time>2020-10-24T08:31:19.937Z</time>
      </trkpt>
      <trkpt lat="46.49142" lon="8.2857">
        <ele>1354</ele>
        <time>2020-10-24T08:31:20.936Z</time>
      </trkpt>
      <trkpt lat="46.49141" lon="8.28567">
        <ele>1354</ele>
        <time>2020-10-24T08:31:21.937Z</time>
      </trkpt>
      <trkpt lat="46.4914" lon="8.28564">
        <ele>1355</ele>
        <time>2020-10-24T08:31:22.937Z</time>
      </trkpt>
      <trkpt lat="46.4914" lon="8.2856">
        <ele>1355</ele>
        <time>2020-10-24T08:31:23.937Z</time>
      </trkpt>
      <trkpt lat="46.49139" lon="8.28557">
        <ele>1356</ele>
        <time>2020-10-24T08:31:24.937Z</time>
      </trkpt>
      <trkpt lat="46.49138" lon="8.28554">
        <ele>1356</ele>
        <time>2020-10-24T08:31:25.936Z</time>
      </trkpt>
      <trkpt lat="46.49137" lon="8.28551">
        <ele>1355</ele>
        <time>2020-10-24T08:31:26.937Z</time>
      </trkpt>
      <trkpt lat="46.49137" lon="8.28548">
        <ele>1355</ele>
        <time>2020-10-24T08:31:27.937Z</time>
      </trkpt>
      <trkpt lat="46.49136" lon="8.28545">
        <ele>1354</ele>
        <time>2020-10-24T08:31:28.937Z</time>
      </trkpt>
      <trkpt lat="46.49135" lon="8.28542">
        <ele>1354</ele>
        <time>2020-10-24T08:31:29.937Z</time>
      </trkpt>
      <trkpt lat="46.49134" lon="8.28539">
        <ele>1354</ele>
        <time>2020-10-24T08:31:30.937Z</time>
      </trkpt>
      <trkpt lat="46.49133" lon="8.28537">
        <ele>1354</ele>
        <time>2020-10-24T08:31:31.937Z</time>
      </trkpt>
      <trkpt lat="46.49132" lon="8.28534">
        <ele>1354</ele>
        <time>2020-10-24T08:31:32.936Z</time>
      </trkpt>
      <trkpt lat="46.49131" lon="8.2853">
        <ele>1354</ele>
        <time>2020-10-24T08:31:33.937Z</time>
      </trkpt>
      <trkpt lat="46.4913" lon="8.28527">
        <ele>1354</ele>
        <time>2020-10-24T08:31:34.937Z</time>
      </trkpt>
      <trkpt lat="46.49129" lon="8.28524">
        <ele>1353</ele>
        <time>2020-10-24T08:31:35.937Z</time>
      </trkpt>
      <trkpt lat="46.49128" lon="8.28521">
        <ele>1353</ele>
        <time>2020-10-24T08:31:36.937Z</time>
      </trkpt>
      <trkpt lat="46.49128" lon="8.28518">
        <ele>1353</ele>
        <time>2020-10-24T08:31:37.936Z</time>
      </trkpt>
      <trkpt lat="46.49127" lon="8.28515">
        <ele>1352</ele>
        <time>2020-10-24T08:31:38.937Z</time>
      </trkpt>
      <trkpt lat="46.49126" lon="8.28511">
        <ele>1352</ele>
        <time>2020-10-24T08:31:39.937Z</time>
      </trkpt>
      <trkpt lat="46.49126" lon="8.28508">
        <ele>1352</ele>
        <time>2020-10-24T08:31:40.937Z</time>
      </trkpt>
      <trkpt lat="46.49125" lon="8.28505">
        <ele>1351</ele>
        <time>2020-10-24T08:31:41.936Z</time>
      </trkpt>
      <trkpt lat="46.49124" lon="8.28502">
        <ele>1351</ele>
        <time>2020-10-24T08:31:42.937Z</time>
      </trkpt>
      <trkpt lat="46.49124" lon="8.28499">
        <ele>1351</ele>
        <time>2020-10-24T08:31:43.937Z</time>
      </trkpt>
      <trkpt lat="46.49124" lon="8.28496">
        <ele>1352</ele>
        <time>2020-10-24T08:31:44.937Z</time>
      </trkpt>
      <trkpt lat="46.49123" lon="8.28492">
        <ele>1352</ele>
        <time>2020-10-24T08:31:45.937Z</time>
      </trkpt>
      <trkpt lat="46.49123" lon="8.28489">
        <ele>1352</ele>
        <time>2020-10-24T08:31:46.937Z</time>
      </trkpt>
      <trkpt lat="46.49122" lon="8.28486">
        <ele>1352</ele>
        <time>2020-10-24T08:31:47.936Z</time>
      </trkpt>
      <trkpt lat="46.49122" lon="8.28483">
        <ele>1352</ele>
        <time>2020-10-24T08:31:48.936Z</time>
      </trkpt>
      <trkpt lat="46.49122" lon="8.28479">
        <ele>1352</ele>
        <time>2020-10-24T08:31:49.937Z</time>
      </trkpt>
      <trkpt lat="46.49122" lon="8.28476">
        <ele>1352</ele>
        <time>2020-10-24T08:31:50.937Z</time>
      </trkpt>
      <trkpt lat="46.49121" lon="8.28473">
        <ele>1352</ele>
        <time>2020-10-24T08:31:51.937Z</time>
      </trkpt>
      <trkpt lat="46.49121" lon="8.2847">
        <ele>1352</ele>
        <time>2020-10-24T08:31:52.937Z</time>
      </trkpt>
      <trkpt lat="46.4912" lon="8.28466">
        <ele>1352</ele>
        <time>2020-10-24T08:31:53.936Z</time>
      </trkpt>
      <trkpt lat="46.4912" lon="8.28463">
        <ele>1352</ele>
        <time>2020-10-24T08:31:54.936Z</time>
      </trkpt>
      <trkpt lat="46.4912" lon="8.28459">
        <ele>1352</ele>
        <time>2020-10-24T08:31:55.937Z</time>
      </trkpt>
      <trkpt lat="46.49119" lon="8.28456">
        <ele>1352</ele>
        <time>2020-10-24T08:31:56.936Z</time>
      </trkpt>
      <trkpt lat="46.49119" lon="8.28452">
        <ele>1352</ele>
        <time>2020-10-24T08:31:57.937Z</time>
      </trkpt>
      <trkpt lat="46.49119" lon="8.28449">
        <ele>1351</ele>
        <time>2020-10-24T08:31:58.936Z</time>
      </trkpt>
      <trkpt lat="46.49119" lon="8.28445">
        <ele>1351</ele>
        <time>2020-10-24T08:31:59.937Z</time>
      </trkpt>
      <trkpt lat="46.49118" lon="8.28442">
        <ele>1351</ele>
        <time>2020-10-24T08:32:00.936Z</time>
      </trkpt>
      <trkpt lat="46.49118" lon="8.28438">
        <ele>1351</ele>
        <time>2020-10-24T08:32:01.936Z</time>
      </trkpt>
      <trkpt lat="46.49117" lon="8.28435">
        <ele>1351</ele>
        <time>2020-10-24T08:32:02.937Z</time>
      </trkpt>
      <trkpt lat="46.49117" lon="8.28431">
        <ele>1351</ele>
        <time>2020-10-24T08:32:03.937Z</time>
      </trkpt>
      <trkpt lat="46.49117" lon="8.28428">
        <ele>1351</ele>
        <time>2020-10-24T08:32:04.936Z</time>
      </trkpt>
      <trkpt lat="46.49117" lon="8.28425">
        <ele>1350</ele>
        <time>2020-10-24T08:32:05.937Z</time>
      </trkpt>
      <trkpt lat="46.49116" lon="8.28421">
        <ele>1350</ele>
        <time>2020-10-24T08:32:06.937Z</time>
      </trkpt>
      <trkpt lat="46.49116" lon="8.28418">
        <ele>1350</ele>
        <time>2020-10-24T08:32:07.937Z</time>
      </trkpt>
      <trkpt lat="46.49115" lon="8.28414">
        <ele>1349</ele>
        <time>2020-10-24T08:32:08.937Z</time>
      </trkpt>
      <trkpt lat="46.49115" lon="8.28411">
        <ele>1349</ele>
        <time>2020-10-24T08:32:09.937Z</time>
      </trkpt>
      <trkpt lat="46.49114" lon="8.28407">
        <ele>1349</ele>
        <time>2020-10-24T08:32:10.937Z</time>
      </trkpt>
      <trkpt lat="46.49114" lon="8.28403">
        <ele>1348</ele>
        <time>2020-10-24T08:32:11.937Z</time>
      </trkpt>
      <trkpt lat="46.49113" lon="8.284">
        <ele>1348</ele>
        <time>2020-10-24T08:32:12.937Z</time>
      </trkpt>
      <trkpt lat="46.49113" lon="8.28396">
        <ele>1348</ele>
        <time>2020-10-24T08:32:13.937Z</time>
      </trkpt>
      <trkpt lat="46.49112" lon="8.28393">
        <ele>1348</ele>
        <time>2020-10-24T08:32:14.937Z</time>
      </trkpt>
      <trkpt lat="46.49112" lon="8.28389">
        <ele>1348</ele>
        <time>2020-10-24T08:32:15.937Z</time>
      </trkpt>
      <trkpt lat="46.49111" lon="8.28386">
        <ele>1348</ele>
        <time>2020-10-24T08:32:16.937Z</time>
      </trkpt>
      <trkpt lat="46.49111" lon="8.28383">
        <ele>1348</ele>
        <time>2020-10-24T08:32:17.937Z</time>
      </trkpt>
      <trkpt lat="46.4911" lon="8.28379">
        <ele>1348</ele>
        <time>2020-10-24T08:32:18.937Z</time>
      </trkpt>
      <trkpt lat="46.4911" lon="8.28376">
        <ele>1348</ele>
        <time>2020-10-24T08:32:19.936Z</time>
      </trkpt>
      <trkpt lat="46.49109" lon="8.28373">
        <ele>1348</ele>
        <time>2020-10-24T08:32:20.937Z</time>
      </trkpt>
      <trkpt lat="46.49109" lon="8.28369">
        <ele>1348</ele>
        <time>2020-10-24T08:32:21.937Z</time>
      </trkpt>
      <trkpt lat="46.49108" lon="8.28366">
        <ele>1347</ele>
        <time>2020-10-24T08:32:22.937Z</time>
      </trkpt>
      <trkpt lat="46.49107" lon="8.28363">
        <ele>1347</ele>
        <time>2020-10-24T08:32:23.937Z</time>
      </trkpt>
      <trkpt lat="46.49107" lon="8.2836">
        <ele>1347</ele>
        <time>2020-10-24T08:32:24.936Z</time>
      </trkpt>
      <trkpt lat="46.49106" lon="8.28356">
        <ele>1347</ele>
        <time>2020-10-24T08:32:25.936Z</time>
      </trkpt>
      <trkpt lat="46.49105" lon="8.28353">
        <ele>1347</ele>
        <time>2020-10-24T08:32:26.937Z</time>
      </trkpt>
      <trkpt lat="46.49105" lon="8.28349">
        <ele>1347</ele>
        <time>2020-10-24T08:32:27.937Z</time>
      </trkpt>
      <trkpt lat="46.49104" lon="8.28346">
        <ele>1347</ele>
        <time>2020-10-24T08:32:28.937Z</time>
      </trkpt>
      <trkpt lat="46.49104" lon="8.28343">
        <ele>1347</ele>
        <time>2020-10-24T08:32:29.937Z</time>
      </trkpt>
      <trkpt lat="46.49103" lon="8.28339">
        <ele>1348</ele>
        <time>2020-10-24T08:32:30.937Z</time>
      </trkpt>
      <trkpt lat="46.49102" lon="8.28336">
        <ele>1347</ele>
        <time>2020-10-24T08:32:31.936Z</time>
      </trkpt>
      <trkpt lat="46.49101" lon="8.28332">
        <ele>1347</ele>
        <time>2020-10-24T08:32:32.937Z</time>
      </trkpt>
      <trkpt lat="46.49101" lon="8.28329">
        <ele>1347</ele>
        <time>2020-10-24T08:32:33.937Z</time>
      </trkpt>
      <trkpt lat="46.491" lon="8.28325">
        <ele>1347</ele>
        <time>2020-10-24T08:32:34.937Z</time>
      </trkpt>
      <trkpt lat="46.49099" lon="8.28321">
        <ele>1347</ele>
        <time>2020-10-24T08:32:35.937Z</time>
      </trkpt>
      <trkpt lat="46.49099" lon="8.28318">
        <ele>1347</ele>
        <time>2020-10-24T08:32:36.937Z</time>
      </trkpt>
      <trkpt lat="46.49098" lon="8.28314">
        <ele>1347</ele>
        <time>2020-10-24T08:32:37.937Z</time>
      </trkpt>
      <trkpt lat="46.49097" lon="8.28311">
        <ele>1347</ele>
        <time>2020-10-24T08:32:38.937Z</time>
      </trkpt>
      <trkpt lat="46.49097" lon="8.28307">
        <ele>1347</ele>
        <time>2020-10-24T08:32:39.937Z</time>
      </trkpt>
      <trkpt lat="46.49096" lon="8.28304">
        <ele>1348</ele>
        <time>2020-10-24T08:32:40.937Z</time>
      </trkpt>
      <trkpt lat="46.49096" lon="8.283">
        <ele>1348</ele>
        <time>2020-10-24T08:32:41.937Z</time>
      </trkpt>
      <trkpt lat="46.49095" lon="8.28297">
        <ele>1348</ele>
        <time>2020-10-24T08:32:42.937Z</time>
      </trkpt>
      <trkpt lat="46.49095" lon="8.28293">
        <ele>1348</ele>
        <time>2020-10-24T08:32:43.936Z</time>
      </trkpt>
      <trkpt lat="46.49094" lon="8.2829">
        <ele>1348</ele>
        <time>2020-10-24T08:32:44.937Z</time>
      </trkpt>
      <trkpt lat="46.49094" lon="8.28286">
        <ele>1347</ele>
        <time>2020-10-24T08:32:45.937Z</time>
      </trkpt>
      <trkpt lat="46.49093" lon="8.28283">
        <ele>1347</ele>
        <time>2020-10-24T08:32:46.937Z</time>
      </trkpt>
      <trkpt lat="46.49093" lon="8.28279">
        <ele>1347</ele>
        <time>2020-10-24T08:32:47.937Z</time>
      </trkpt>
      <trkpt lat="46.49093" lon="8.28276">
        <ele>1347</ele>
        <time>2020-10-24T08:32:48.937Z</time>
      </trkpt>
      <trkpt lat="46.49092" lon="8.28273">
        <ele>1347</ele>
        <time>2020-10-24T08:32:49.937Z</time>
      </trkpt>
      <trkpt lat="46.49092" lon="8.28269">
        <ele>1347</ele>
        <time>2020-10-24T08:32:50.936Z</time>
      </trkpt>
      <trkpt lat="46.49092" lon="8.28266">
        <ele>1347</ele>
        <time>2020-10-24T08:32:51.937Z</time>
      </trkpt>
      <trkpt lat="46.49092" lon="8.28262">
        <ele>1347</ele>
        <time>2020-10-24T08:32:52.937Z</time>
      </trkpt>
      <trkpt lat="46.49092" lon="8.28258">
        <ele>1347</ele>
        <time>2020-10-24T08:32:53.936Z</time>
      </trkpt>
      <trkpt lat="46.49092" lon="8.28255">
        <ele>1346</ele>
        <time>2020-10-24T08:32:54.936Z</time>
      </trkpt>
      <trkpt lat="46.49092" lon="8.28252">
        <ele>1346</ele>
        <time>2020-10-24T08:32:55.936Z</time>
      </trkpt>
      <trkpt lat="46.49092" lon="8.28249">
        <ele>1346</ele>
        <time>2020-10-24T08:32:56.937Z</time>
      </trkpt>
      <trkpt lat="46.49092" lon="8.28245">
        <ele>1347</ele>
        <time>2020-10-24T08:32:57.936Z</time>
      </trkpt>
      <trkpt lat="46.49092" lon="8.28242">
        <ele>1347</ele>
        <time>2020-10-24T08:32:58.937Z</time>
      </trkpt>
      <trkpt lat="46.49093" lon="8.28238">
        <ele>1347</ele>
        <time>2020-10-24T08:32:59.937Z</time>
      </trkpt>
      <trkpt lat="46.49093" lon="8.28235">
        <ele>1346</ele>
        <time>2020-10-24T08:33:00.937Z</time>
      </trkpt>
      <trkpt lat="46.49093" lon="8.28232">
        <ele>1346</ele>
        <time>2020-10-24T08:33:01.937Z</time>
      </trkpt>
      <trkpt lat="46.49093" lon="8.28229">
        <ele>1346</ele>
        <time>2020-10-24T08:33:02.937Z</time>
      </trkpt>
      <trkpt lat="46.49094" lon="8.28226">
        <ele>1346</ele>
        <time>2020-10-24T08:33:03.936Z</time>
      </trkpt>
      <trkpt lat="46.49094" lon="8.28222">
        <ele>1346</ele>
        <time>2020-10-24T08:33:04.936Z</time>
      </trkpt>
      <trkpt lat="46.49094" lon="8.28218">
        <ele>1345</ele>
        <time>2020-10-24T08:33:05.936Z</time>
      </trkpt>
      <trkpt lat="46.49094" lon="8.28216">
        <ele>1345</ele>
        <time>2020-10-24T08:33:06.937Z</time>
      </trkpt>
      <trkpt lat="46.49095" lon="8.28213">
        <ele>1345</ele>
        <time>2020-10-24T08:33:07.937Z</time>
      </trkpt>
      <trkpt lat="46.49095" lon="8.2821">
        <ele>1345</ele>
        <time>2020-10-24T08:33:08.937Z</time>
      </trkpt>
      <trkpt lat="46.49096" lon="8.28207">
        <ele>1345</ele>
        <time>2020-10-24T08:33:09.937Z</time>
      </trkpt>
      <trkpt lat="46.49097" lon="8.28205">
        <ele>1345</ele>
        <time>2020-10-24T08:33:10.937Z</time>
      </trkpt>
      <trkpt lat="46.49098" lon="8.28202">
        <ele>1345</ele>
        <time>2020-10-24T08:33:11.937Z</time>
      </trkpt>
      <trkpt lat="46.491" lon="8.28199">
        <ele>1346</ele>
        <time>2020-10-24T08:33:12.937Z</time>
      </trkpt>
      <trkpt lat="46.491" lon="8.28197">
        <ele>1346</ele>
        <time>2020-10-24T08:33:13.937Z</time>
      </trkpt>
      <trkpt lat="46.49102" lon="8.28194">
        <ele>1346</ele>
        <time>2020-10-24T08:33:14.937Z</time>
      </trkpt>
      <trkpt lat="46.49103" lon="8.28191">
        <ele>1346</ele>
        <time>2020-10-24T08:33:15.937Z</time>
      </trkpt>
      <trkpt lat="46.49104" lon="8.28189">
        <ele>1347</ele>
        <time>2020-10-24T08:33:16.937Z</time>
      </trkpt>
      <trkpt lat="46.49106" lon="8.28186">
        <ele>1347</ele>
        <time>2020-10-24T08:33:17.936Z</time>
      </trkpt>
      <trkpt lat="46.49107" lon="8.28183">
        <ele>1347</ele>
        <time>2020-10-24T08:33:18.937Z</time>
      </trkpt>
      <trkpt lat="46.49108" lon="8.28181">
        <ele>1347</ele>
        <time>2020-10-24T08:33:19.936Z</time>
      </trkpt>
      <trkpt lat="46.49109" lon="8.28178">
        <ele>1347</ele>
        <time>2020-10-24T08:33:20.937Z</time>
      </trkpt>
      <trkpt lat="46.49111" lon="8.28175">
        <ele>1347</ele>
        <time>2020-10-24T08:33:21.937Z</time>
      </trkpt>
      <trkpt lat="46.49112" lon="8.28173">
        <ele>1347</ele>
        <time>2020-10-24T08:33:22.936Z</time>
      </trkpt>
      <trkpt lat="46.49114" lon="8.2817">
        <ele>1347</ele>
        <time>2020-10-24T08:33:23.936Z</time>
      </trkpt>
      <trkpt lat="46.49115" lon="8.28168">
        <ele>1347</ele>
        <time>2020-10-24T08:33:24.937Z</time>
      </trkpt>
      <trkpt lat="46.49117" lon="8.28165">
        <ele>1346</ele>
        <time>2020-10-24T08:33:25.937Z</time>
      </trkpt>
      <trkpt lat="46.49118" lon="8.28163">
        <ele>1347</ele>
        <time>2020-10-24T08:33:26.937Z</time>
      </trkpt>
      <trkpt lat="46.4912" lon="8.2816">
        <ele>1347</ele>
        <time>2020-10-24T08:33:27.937Z</time>
      </trkpt>
      <trkpt lat="46.49121" lon="8.28159">
        <ele>1348</ele>
        <time>2020-10-24T08:33:28.936Z</time>
      </trkpt>
      <trkpt lat="46.49123" lon="8.28157">
        <ele>1348</ele>
        <time>2020-10-24T08:33:29.936Z</time>
      </trkpt>
      <trkpt lat="46.49124" lon="8.28155">
        <ele>1349</ele>
        <time>2020-10-24T08:33:30.936Z</time>
      </trkpt>
      <trkpt lat="46.49125" lon="8.28153">
        <ele>1349</ele>
        <time>2020-10-24T08:33:31.937Z</time>
      </trkpt>
      <trkpt lat="46.49126" lon="8.28151">
        <ele>1349</ele>
        <time>2020-10-24T08:33:32.937Z</time>
      </trkpt>
      <trkpt lat="46.49127" lon="8.28149">
        <ele>1349</ele>
        <time>2020-10-24T08:33:33.936Z</time>
      </trkpt>
      <trkpt lat="46.49127" lon="8.28147">
        <ele>1349</ele>
        <time>2020-10-24T08:33:34.937Z</time>
      </trkpt>
      <trkpt lat="46.49128" lon="8.28144">
        <ele>1348</ele>
        <time>2020-10-24T08:33:35.937Z</time>
      </trkpt>
      <trkpt lat="46.49128" lon="8.28142">
        <ele>1348</ele>
        <time>2020-10-24T08:33:36.937Z</time>
      </trkpt>
      <trkpt lat="46.49127" lon="8.28139">
        <ele>1348</ele>
        <time>2020-10-24T08:33:37.937Z</time>
      </trkpt>
      <trkpt lat="46.49126" lon="8.28137">
        <ele>1348</ele>
        <time>2020-10-24T08:33:38.936Z</time>
      </trkpt>
      <trkpt lat="46.49125" lon="8.28135">
        <ele>1348</ele>
        <time>2020-10-24T08:33:39.936Z</time>
      </trkpt>
      <trkpt lat="46.49124" lon="8.28132">
        <ele>1348</ele>
        <time>2020-10-24T08:33:40.937Z</time>
      </trkpt>
      <trkpt lat="46.49123" lon="8.2813">
        <ele>1348</ele>
        <time>2020-10-24T08:33:41.937Z</time>
      </trkpt>
      <trkpt lat="46.49122" lon="8.28128">
        <ele>1348</ele>
        <time>2020-10-24T08:33:42.937Z</time>
      </trkpt>
      <trkpt lat="46.49121" lon="8.28126">
        <ele>1347</ele>
        <time>2020-10-24T08:33:43.937Z</time>
      </trkpt>
      <trkpt lat="46.4912" lon="8.28124">
        <ele>1347</ele>
        <time>2020-10-24T08:33:44.937Z</time>
      </trkpt>
      <trkpt lat="46.49118" lon="8.28122">
        <ele>1346</ele>
        <time>2020-10-24T08:33:45.937Z</time>
      </trkpt>
      <trkpt lat="46.49117" lon="8.2812">
        <ele>1345</ele>
        <time>2020-10-24T08:33:46.937Z</time>
      </trkpt>
      <trkpt lat="46.49115" lon="8.28117">
        <ele>1345</ele>
        <time>2020-10-24T08:33:47.937Z</time>
      </trkpt>
      <trkpt lat="46.49113" lon="8.28115">
        <ele>1345</ele>
        <time>2020-10-24T08:33:48.937Z</time>
      </trkpt>
      <trkpt lat="46.49112" lon="8.28113">
        <ele>1345</ele>
        <time>2020-10-24T08:33:49.937Z</time>
      </trkpt>
      <trkpt lat="46.4911" lon="8.28111">
        <ele>1345</ele>
        <time>2020-10-24T08:33:50.936Z</time>
      </trkpt>
      <trkpt lat="46.49108" lon="8.28109">
        <ele>1345</ele>
        <time>2020-10-24T08:33:51.937Z</time>
      </trkpt>
      <trkpt lat="46.49106" lon="8.28107">
        <ele>1345</ele>
        <time>2020-10-24T08:33:52.936Z</time>
      </trkpt>
      <trkpt lat="46.49105" lon="8.28105">
        <ele>1344</ele>
        <time>2020-10-24T08:33:53.937Z</time>
      </trkpt>
      <trkpt lat="46.49103" lon="8.28104">
        <ele>1344</ele>
        <time>2020-10-24T08:33:54.936Z</time>
      </trkpt>
      <trkpt lat="46.49102" lon="8.28102">
        <ele>1344</ele>
        <time>2020-10-24T08:33:55.937Z</time>
      </trkpt>
      <trkpt lat="46.491" lon="8.28099">
        <ele>1344</ele>
        <time>2020-10-24T08:33:56.937Z</time>
      </trkpt>
      <trkpt lat="46.49099" lon="8.28097">
        <ele>1344</ele>
        <time>2020-10-24T08:33:57.937Z</time>
      </trkpt>
      <trkpt lat="46.49098" lon="8.28095">
        <ele>1343</ele>
        <time>2020-10-24T08:33:58.937Z</time>
      </trkpt>
      <trkpt lat="46.49096" lon="8.28093">
        <ele>1343</ele>
        <time>2020-10-24T08:33:59.937Z</time>
      </trkpt>
      <trkpt lat="46.49095" lon="8.28091">
        <ele>1343</ele>
        <time>2020-10-24T08:34:00.937Z</time>
      </trkpt>
      <trkpt lat="46.49094" lon="8.28089">
        <ele>1342</ele>
        <time>2020-10-24T08:34:01.937Z</time>
      </trkpt>
      <trkpt lat="46.49093" lon="8.28087">
        <ele>1342</ele>
        <time>2020-10-24T08:34:02.937Z</time>
      </trkpt>
      <trkpt lat="46.49092" lon="8.28085">
        <ele>1343</ele>
        <time>2020-10-24T08:34:03.937Z</time>
      </trkpt>
      <trkpt lat="46.49091" lon="8.28083">
        <ele>1343</ele>
        <time>2020-10-24T08:34:04.937Z</time>
      </trkpt>
      <trkpt lat="46.49091" lon="8.28081">
        <ele>1344</ele>
        <time>2020-10-24T08:34:05.937Z</time>
      </trkpt>
      <trkpt lat="46.4909" lon="8.28078">
        <ele>1344</ele>
        <time>2020-10-24T08:34:06.937Z</time>
      </trkpt>
      <trkpt lat="46.49088" lon="8.28076">
        <ele>1345</ele>
        <time>2020-10-24T08:34:07.937Z</time>
      </trkpt>
      <trkpt lat="46.49087" lon="8.28073">
        <ele>1345</ele>
        <time>2020-10-24T08:34:08.936Z</time>
      </trkpt>
      <trkpt lat="46.49086" lon="8.28071">
        <ele>1345</ele>
        <time>2020-10-24T08:34:09.937Z</time>
      </trkpt>
      <trkpt lat="46.49085" lon="8.28069">
        <ele>1345</ele>
        <time>2020-10-24T08:34:10.937Z</time>
      </trkpt>
      <trkpt lat="46.49084" lon="8.28066">
        <ele>1345</ele>
        <time>2020-10-24T08:34:11.937Z</time>
      </trkpt>
      <trkpt lat="46.49083" lon="8.28064">
        <ele>1345</ele>
        <time>2020-10-24T08:34:12.937Z</time>
      </trkpt>
      <trkpt lat="46.49082" lon="8.28061">
        <ele>1346</ele>
        <time>2020-10-24T08:34:13.937Z</time>
      </trkpt>
      <trkpt lat="46.49081" lon="8.28059">
        <ele>1346</ele>
        <time>2020-10-24T08:34:14.937Z</time>
      </trkpt>
      <trkpt lat="46.4908" lon="8.28056">
        <ele>1346</ele>
        <time>2020-10-24T08:34:15.937Z</time>
      </trkpt>
      <trkpt lat="46.4908" lon="8.28054">
        <ele>1346</ele>
        <time>2020-10-24T08:34:16.937Z</time>
      </trkpt>
      <trkpt lat="46.49079" lon="8.28052">
        <ele>1347</ele>
        <time>2020-10-24T08:34:17.936Z</time>
      </trkpt>
      <trkpt lat="46.49078" lon="8.28051">
        <ele>1348</ele>
        <time>2020-10-24T08:34:18.937Z</time>
      </trkpt>
      <trkpt lat="46.49077" lon="8.28049">
        <ele>1348</ele>
        <time>2020-10-24T08:34:19.936Z</time>
      </trkpt>
      <trkpt lat="46.49077" lon="8.28047">
        <ele>1348</ele>
        <time>2020-10-24T08:34:20.937Z</time>
      </trkpt>
      <trkpt lat="46.49076" lon="8.28045">
        <ele>1349</ele>
        <time>2020-10-24T08:34:21.937Z</time>
      </trkpt>
      <trkpt lat="46.49076" lon="8.28043">
        <ele>1349</ele>
        <time>2020-10-24T08:34:22.937Z</time>
      </trkpt>
      <trkpt lat="46.49076" lon="8.28041">
        <ele>1349</ele>
        <time>2020-10-24T08:34:23.936Z</time>
      </trkpt>
      <trkpt lat="46.49075" lon="8.28039">
        <ele>1349</ele>
        <time>2020-10-24T08:34:24.937Z</time>
      </trkpt>
      <trkpt lat="46.49075" lon="8.28036">
        <ele>1349</ele>
        <time>2020-10-24T08:34:25.936Z</time>
      </trkpt>
      <trkpt lat="46.49074" lon="8.28034">
        <ele>1350</ele>
        <time>2020-10-24T08:34:26.936Z</time>
      </trkpt>
      <trkpt lat="46.49073" lon="8.28032">
        <ele>1350</ele>
        <time>2020-10-24T08:34:27.937Z</time>
      </trkpt>
      <trkpt lat="46.49073" lon="8.28029">
        <ele>1350</ele>
        <time>2020-10-24T08:34:28.936Z</time>
      </trkpt>
      <trkpt lat="46.49072" lon="8.28027">
        <ele>1350</ele>
        <time>2020-10-24T08:34:29.937Z</time>
      </trkpt>
      <trkpt lat="46.49071" lon="8.28025">
        <ele>1350</ele>
        <time>2020-10-24T08:34:30.937Z</time>
      </trkpt>
      <trkpt lat="46.4907" lon="8.28022">
        <ele>1350</ele>
        <time>2020-10-24T08:34:31.937Z</time>
      </trkpt>
      <trkpt lat="46.49069" lon="8.2802">
        <ele>1350</ele>
        <time>2020-10-24T08:34:32.937Z</time>
      </trkpt>
      <trkpt lat="46.49068" lon="8.28017">
        <ele>1350</ele>
        <time>2020-10-24T08:34:33.936Z</time>
      </trkpt>
      <trkpt lat="46.49067" lon="8.28015">
        <ele>1350</ele>
        <time>2020-10-24T08:34:34.937Z</time>
      </trkpt>
      <trkpt lat="46.49066" lon="8.28013">
        <ele>1350</ele>
        <time>2020-10-24T08:34:35.937Z</time>
      </trkpt>
      <trkpt lat="46.49064" lon="8.2801">
        <ele>1350</ele>
        <time>2020-10-24T08:34:36.937Z</time>
      </trkpt>
      <trkpt lat="46.49063" lon="8.28008">
        <ele>1350</ele>
        <time>2020-10-24T08:34:37.937Z</time>
      </trkpt>
      <trkpt lat="46.49062" lon="8.28006">
        <ele>1350</ele>
        <time>2020-10-24T08:34:38.937Z</time>
      </trkpt>
      <trkpt lat="46.49061" lon="8.28003">
        <ele>1350</ele>
        <time>2020-10-24T08:34:39.937Z</time>
      </trkpt>
      <trkpt lat="46.4906" lon="8.28002">
        <ele>1349</ele>
        <time>2020-10-24T08:34:40.936Z</time>
      </trkpt>
      <trkpt lat="46.49059" lon="8.28">
        <ele>1349</ele>
        <time>2020-10-24T08:34:41.936Z</time>
      </trkpt>
      <trkpt lat="46.49057" lon="8.27997">
        <ele>1349</ele>
        <time>2020-10-24T08:34:42.937Z</time>
      </trkpt>
      <trkpt lat="46.49056" lon="8.27995">
        <ele>1349</ele>
        <time>2020-10-24T08:34:43.937Z</time>
      </trkpt>
      <trkpt lat="46.49055" lon="8.27993">
        <ele>1349</ele>
        <time>2020-10-24T08:34:44.937Z</time>
      </trkpt>
      <trkpt lat="46.49053" lon="8.27991">
        <ele>1349</ele>
        <time>2020-10-24T08:34:45.937Z</time>
      </trkpt>
      <trkpt lat="46.49052" lon="8.27989">
        <ele>1349</ele>
        <time>2020-10-24T08:34:46.937Z</time>
      </trkpt>
      <trkpt lat="46.4905" lon="8.27987">
        <ele>1349</ele>
        <time>2020-10-24T08:34:47.937Z</time>
      </trkpt>
      <trkpt lat="46.49049" lon="8.27985">
        <ele>1349</ele>
        <time>2020-10-24T08:34:48.936Z</time>
      </trkpt>
      <trkpt lat="46.49048" lon="8.27983">
        <ele>1349</ele>
        <time>2020-10-24T08:34:49.937Z</time>
      </trkpt>
      <trkpt lat="46.49046" lon="8.27981">
        <ele>1349</ele>
        <time>2020-10-24T08:34:50.936Z</time>
      </trkpt>
      <trkpt lat="46.49045" lon="8.27979">
        <ele>1349</ele>
        <time>2020-10-24T08:34:51.937Z</time>
      </trkpt>
      <trkpt lat="46.49044" lon="8.27977">
        <ele>1348</ele>
        <time>2020-10-24T08:34:52.937Z</time>
      </trkpt>
      <trkpt lat="46.49042" lon="8.27975">
        <ele>1348</ele>
        <time>2020-10-24T08:34:53.937Z</time>
      </trkpt>
      <trkpt lat="46.49041" lon="8.27973">
        <ele>1349</ele>
        <time>2020-10-24T08:34:54.936Z</time>
      </trkpt>
      <trkpt lat="46.4904" lon="8.27971">
        <ele>1349</ele>
        <time>2020-10-24T08:34:55.936Z</time>
      </trkpt>
      <trkpt lat="46.49038" lon="8.27969">
        <ele>1349</ele>
        <time>2020-10-24T08:34:56.936Z</time>
      </trkpt>
      <trkpt lat="46.49037" lon="8.27967">
        <ele>1349</ele>
        <time>2020-10-24T08:34:57.937Z</time>
      </trkpt>
      <trkpt lat="46.49036" lon="8.27965">
        <ele>1350</ele>
        <time>2020-10-24T08:34:58.936Z</time>
      </trkpt>
      <trkpt lat="46.49034" lon="8.27963">
        <ele>1350</ele>
        <time>2020-10-24T08:34:59.937Z</time>
      </trkpt>
      <trkpt lat="46.49033" lon="8.27961">
        <ele>1350</ele>
        <time>2020-10-24T08:35:00.937Z</time>
      </trkpt>
      <trkpt lat="46.49032" lon="8.27959">
        <ele>1350</ele>
        <time>2020-10-24T08:35:01.937Z</time>
      </trkpt>
      <trkpt lat="46.49031" lon="8.27957">
        <ele>1350</ele>
        <time>2020-10-24T08:35:02.937Z</time>
      </trkpt>
      <trkpt lat="46.4903" lon="8.27955">
        <ele>1350</ele>
        <time>2020-10-24T08:35:03.937Z</time>
      </trkpt>
      <trkpt lat="46.49029" lon="8.27952">
        <ele>1350</ele>
        <time>2020-10-24T08:35:04.936Z</time>
      </trkpt>
      <trkpt lat="46.49028" lon="8.2795">
        <ele>1349</ele>
        <time>2020-10-24T08:35:05.937Z</time>
      </trkpt>
      <trkpt lat="46.49026" lon="8.27948">
        <ele>1350</ele>
        <time>2020-10-24T08:35:06.937Z</time>
      </trkpt>
      <trkpt lat="46.49025" lon="8.27946">
        <ele>1349</ele>
        <time>2020-10-24T08:35:07.937Z</time>
      </trkpt>
      <trkpt lat="46.49024" lon="8.27943">
        <ele>1349</ele>
        <time>2020-10-24T08:35:08.937Z</time>
      </trkpt>
      <trkpt lat="46.49023" lon="8.2794">
        <ele>1349</ele>
        <time>2020-10-24T08:35:09.937Z</time>
      </trkpt>
      <trkpt lat="46.49022" lon="8.27938">
        <ele>1349</ele>
        <time>2020-10-24T08:35:10.937Z</time>
      </trkpt>
      <trkpt lat="46.4902" lon="8.27935">
        <ele>1349</ele>
        <time>2020-10-24T08:35:11.937Z</time>
      </trkpt>
      <trkpt lat="46.4902" lon="8.27933">
        <ele>1349</ele>
        <time>2020-10-24T08:35:12.936Z</time>
      </trkpt>
      <trkpt lat="46.49019" lon="8.2793">
        <ele>1349</ele>
        <time>2020-10-24T08:35:13.936Z</time>
      </trkpt>
      <trkpt lat="46.49018" lon="8.27928">
        <ele>1349</ele>
        <time>2020-10-24T08:35:14.937Z</time>
      </trkpt>
      <trkpt lat="46.49017" lon="8.27926">
        <ele>1350</ele>
        <time>2020-10-24T08:35:15.936Z</time>
      </trkpt>
      <trkpt lat="46.49016" lon="8.27923">
        <ele>1349</ele>
        <time>2020-10-24T08:35:16.936Z</time>
      </trkpt>
      <trkpt lat="46.49015" lon="8.27921">
        <ele>1349</ele>
        <time>2020-10-24T08:35:17.936Z</time>
      </trkpt>
      <trkpt lat="46.49014" lon="8.27919">
        <ele>1349</ele>
        <time>2020-10-24T08:35:18.937Z</time>
      </trkpt>
      <trkpt lat="46.49013" lon="8.27916">
        <ele>1349</ele>
        <time>2020-10-24T08:35:19.936Z</time>
      </trkpt>
      <trkpt lat="46.49012" lon="8.27914">
        <ele>1350</ele>
        <time>2020-10-24T08:35:20.937Z</time>
      </trkpt>
      <trkpt lat="46.49011" lon="8.27912">
        <ele>1350</ele>
        <time>2020-10-24T08:35:21.937Z</time>
      </trkpt>
      <trkpt lat="46.4901" lon="8.2791">
        <ele>1350</ele>
        <time>2020-10-24T08:35:22.937Z</time>
      </trkpt>
      <trkpt lat="46.49009" lon="8.27907">
        <ele>1350</ele>
        <time>2020-10-24T08:35:23.937Z</time>
      </trkpt>
      <trkpt lat="46.49008" lon="8.27905">
        <ele>1351</ele>
        <time>2020-10-24T08:35:24.937Z</time>
      </trkpt>
      <trkpt lat="46.49007" lon="8.27902">
        <ele>1351</ele>
        <time>2020-10-24T08:35:25.936Z</time>
      </trkpt>
      <trkpt lat="46.49006" lon="8.279">
        <ele>1351</ele>
        <time>2020-10-24T08:35:26.937Z</time>
      </trkpt>
      <trkpt lat="46.49005" lon="8.27898">
        <ele>1351</ele>
        <time>2020-10-24T08:35:27.936Z</time>
      </trkpt>
      <trkpt lat="46.49004" lon="8.27895">
        <ele>1351</ele>
        <time>2020-10-24T08:35:28.937Z</time>
      </trkpt>
      <trkpt lat="46.49003" lon="8.27893">
        <ele>1351</ele>
        <time>2020-10-24T08:35:29.937Z</time>
      </trkpt>
      <trkpt lat="46.49003" lon="8.27891">
        <ele>1352</ele>
        <time>2020-10-24T08:35:30.937Z</time>
      </trkpt>
      <trkpt lat="46.49002" lon="8.27888">
        <ele>1352</ele>
        <time>2020-10-24T08:35:31.936Z</time>
      </trkpt>
      <trkpt lat="46.49001" lon="8.27886">
        <ele>1352</ele>
        <time>2020-10-24T08:35:32.936Z</time>
      </trkpt>
      <trkpt lat="46.49" lon="8.27884">
        <ele>1352</ele>
        <time>2020-10-24T08:35:33.937Z</time>
      </trkpt>
      <trkpt lat="46.48999" lon="8.27882">
        <ele>1352</ele>
        <time>2020-10-24T08:35:34.937Z</time>
      </trkpt>
      <trkpt lat="46.48998" lon="8.2788">
        <ele>1352</ele>
        <time>2020-10-24T08:35:35.937Z</time>
      </trkpt>
      <trkpt lat="46.48997" lon="8.27878">
        <ele>1352</ele>
        <time>2020-10-24T08:35:36.937Z</time>
      </trkpt>
      <trkpt lat="46.48997" lon="8.27875">
        <ele>1353</ele>
        <time>2020-10-24T08:35:37.937Z</time>
      </trkpt>
      <trkpt lat="46.48996" lon="8.27873">
        <ele>1353</ele>
        <time>2020-10-24T08:35:38.937Z</time>
      </trkpt>
      <trkpt lat="46.48995" lon="8.27871">
        <ele>1353</ele>
        <time>2020-10-24T08:35:39.937Z</time>
      </trkpt>
      <trkpt lat="46.48993" lon="8.27868">
        <ele>1353</ele>
        <time>2020-10-24T08:35:40.937Z</time>
      </trkpt>
      <trkpt lat="46.48992" lon="8.27865">
        <ele>1353</ele>
        <time>2020-10-24T08:35:41.937Z</time>
      </trkpt>
      <trkpt lat="46.48991" lon="8.27863">
        <ele>1353</ele>
        <time>2020-10-24T08:35:42.937Z</time>
      </trkpt>
      <trkpt lat="46.4899" lon="8.27861">
        <ele>1353</ele>
        <time>2020-10-24T08:35:43.936Z</time>
      </trkpt>
      <trkpt lat="46.48989" lon="8.27858">
        <ele>1353</ele>
        <time>2020-10-24T08:35:44.937Z</time>
      </trkpt>
      <trkpt lat="46.48988" lon="8.27856">
        <ele>1353</ele>
        <time>2020-10-24T08:35:45.937Z</time>
      </trkpt>
      <trkpt lat="46.48987" lon="8.27854">
        <ele>1353</ele>
        <time>2020-10-24T08:35:46.937Z</time>
      </trkpt>
      <trkpt lat="46.48986" lon="8.27852">
        <ele>1353</ele>
        <time>2020-10-24T08:35:47.937Z</time>
      </trkpt>
      <trkpt lat="46.48986" lon="8.27849">
        <ele>1353</ele>
        <time>2020-10-24T08:35:48.937Z</time>
      </trkpt>
      <trkpt lat="46.48985" lon="8.27847">
        <ele>1354</ele>
        <time>2020-10-24T08:35:49.937Z</time>
      </trkpt>
      <trkpt lat="46.48984" lon="8.27845">
        <ele>1354</ele>
        <time>2020-10-24T08:35:50.937Z</time>
      </trkpt>
      <trkpt lat="46.48982" lon="8.27842">
        <ele>1354</ele>
        <time>2020-10-24T08:35:51.936Z</time>
      </trkpt>
      <trkpt lat="46.48981" lon="8.2784">
        <ele>1355</ele>
        <time>2020-10-24T08:35:52.937Z</time>
      </trkpt>
      <trkpt lat="46.4898" lon="8.27838">
        <ele>1355</ele>
        <time>2020-10-24T08:35:53.936Z</time>
      </trkpt>
      <trkpt lat="46.48979" lon="8.27836">
        <ele>1355</ele>
        <time>2020-10-24T08:35:54.937Z</time>
      </trkpt>
      <trkpt lat="46.48978" lon="8.27833">
        <ele>1355</ele>
        <time>2020-10-24T08:35:55.937Z</time>
      </trkpt>
      <trkpt lat="46.48978" lon="8.27831">
        <ele>1356</ele>
        <time>2020-10-24T08:35:56.937Z</time>
      </trkpt>
      <trkpt lat="46.48977" lon="8.27829">
        <ele>1356</ele>
        <time>2020-10-24T08:35:57.937Z</time>
      </trkpt>
      <trkpt lat="46.48976" lon="8.27827">
        <ele>1356</ele>
        <time>2020-10-24T08:35:58.937Z</time>
      </trkpt>
      <trkpt lat="46.48975" lon="8.27825">
        <ele>1356</ele>
        <time>2020-10-24T08:35:59.936Z</time>
      </trkpt>
      <trkpt lat="46.48974" lon="8.27822">
        <ele>1357</ele>
        <time>2020-10-24T08:36:00.936Z</time>
      </trkpt>
      <trkpt lat="46.48973" lon="8.2782">
        <ele>1357</ele>
        <time>2020-10-24T08:36:01.937Z</time>
      </trkpt>
      <trkpt lat="46.48972" lon="8.27817">
        <ele>1357</ele>
        <time>2020-10-24T08:36:02.936Z</time>
      </trkpt>
      <trkpt lat="46.48971" lon="8.27815">
        <ele>1357</ele>
        <time>2020-10-24T08:36:03.937Z</time>
      </trkpt>
      <trkpt lat="46.4897" lon="8.27812">
        <ele>1357</ele>
        <time>2020-10-24T08:36:04.937Z</time>
      </trkpt>
      <trkpt lat="46.4897" lon="8.27809">
        <ele>1357</ele>
        <time>2020-10-24T08:36:05.937Z</time>
      </trkpt>
      <trkpt lat="46.48969" lon="8.27807">
        <ele>1357</ele>
        <time>2020-10-24T08:36:06.936Z</time>
      </trkpt>
      <trkpt lat="46.48968" lon="8.27804">
        <ele>1357</ele>
        <time>2020-10-24T08:36:07.936Z</time>
      </trkpt>
      <trkpt lat="46.48967" lon="8.27801">
        <ele>1357</ele>
        <time>2020-10-24T08:36:08.936Z</time>
      </trkpt>
      <trkpt lat="46.48966" lon="8.27798">
        <ele>1357</ele>
        <time>2020-10-24T08:36:09.937Z</time>
      </trkpt>
      <trkpt lat="46.48964" lon="8.27796">
        <ele>1357</ele>
        <time>2020-10-24T08:36:10.936Z</time>
      </trkpt>
      <trkpt lat="46.48963" lon="8.27793">
        <ele>1357</ele>
        <time>2020-10-24T08:36:11.937Z</time>
      </trkpt>
      <trkpt lat="46.48962" lon="8.27791">
        <ele>1357</ele>
        <time>2020-10-24T08:36:12.937Z</time>
      </trkpt>
      <trkpt lat="46.4896" lon="8.27788">
        <ele>1357</ele>
        <time>2020-10-24T08:36:13.936Z</time>
      </trkpt>
      <trkpt lat="46.48959" lon="8.27786">
        <ele>1357</ele>
        <time>2020-10-24T08:36:14.937Z</time>
      </trkpt>
      <trkpt lat="46.48958" lon="8.27784">
        <ele>1357</ele>
        <time>2020-10-24T08:36:15.936Z</time>
      </trkpt>
      <trkpt lat="46.48957" lon="8.27782">
        <ele>1357</ele>
        <time>2020-10-24T08:36:16.937Z</time>
      </trkpt>
      <trkpt lat="46.48956" lon="8.27779">
        <ele>1358</ele>
        <time>2020-10-24T08:36:17.937Z</time>
      </trkpt>
      <trkpt lat="46.48954" lon="8.27777">
        <ele>1358</ele>
        <time>2020-10-24T08:36:18.937Z</time>
      </trkpt>
      <trkpt lat="46.48953" lon="8.27775">
        <ele>1358</ele>
        <time>2020-10-24T08:36:19.937Z</time>
      </trkpt>
      <trkpt lat="46.48952" lon="8.27772">
        <ele>1358</ele>
        <time>2020-10-24T08:36:20.936Z</time>
      </trkpt>
      <trkpt lat="46.48951" lon="8.27771">
        <ele>1358</ele>
        <time>2020-10-24T08:36:21.936Z</time>
      </trkpt>
      <trkpt lat="46.48949" lon="8.27769">
        <ele>1358</ele>
        <time>2020-10-24T08:36:22.936Z</time>
      </trkpt>
      <trkpt lat="46.48948" lon="8.27766">
        <ele>1358</ele>
        <time>2020-10-24T08:36:23.937Z</time>
      </trkpt>
      <trkpt lat="46.48947" lon="8.27764">
        <ele>1359</ele>
        <time>2020-10-24T08:36:24.937Z</time>
      </trkpt>
      <trkpt lat="46.48945" lon="8.27762">
        <ele>1359</ele>
        <time>2020-10-24T08:36:25.936Z</time>
      </trkpt>
      <trkpt lat="46.48944" lon="8.2776">
        <ele>1359</ele>
        <time>2020-10-24T08:36:26.937Z</time>
      </trkpt>
      <trkpt lat="46.48943" lon="8.27758">
        <ele>1359</ele>
        <time>2020-10-24T08:36:27.937Z</time>
      </trkpt>
      <trkpt lat="46.48941" lon="8.27756">
        <ele>1359</ele>
        <time>2020-10-24T08:36:28.937Z</time>
      </trkpt>
      <trkpt lat="46.48939" lon="8.27754">
        <ele>1360</ele>
        <time>2020-10-24T08:36:29.937Z</time>
      </trkpt>
      <trkpt lat="46.48938" lon="8.27751">
        <ele>1360</ele>
        <time>2020-10-24T08:36:30.937Z</time>
      </trkpt>
      <trkpt lat="46.48936" lon="8.27749">
        <ele>1360</ele>
        <time>2020-10-24T08:36:31.937Z</time>
      </trkpt>
      <trkpt lat="46.48935" lon="8.27747">
        <ele>1360</ele>
        <time>2020-10-24T08:36:32.937Z</time>
      </trkpt>
      <trkpt lat="46.48933" lon="8.27745">
        <ele>1360</ele>
        <time>2020-10-24T08:36:33.937Z</time>
      </trkpt>
      <trkpt lat="46.48931" lon="8.27743">
        <ele>1360</ele>
        <time>2020-10-24T08:36:34.937Z</time>
      </trkpt>
      <trkpt lat="46.4893" lon="8.27741">
        <ele>1360</ele>
        <time>2020-10-24T08:36:35.936Z</time>
      </trkpt>
      <trkpt lat="46.48929" lon="8.27739">
        <ele>1360</ele>
        <time>2020-10-24T08:36:36.937Z</time>
      </trkpt>
      <trkpt lat="46.48927" lon="8.27737">
        <ele>1360</ele>
        <time>2020-10-24T08:36:37.937Z</time>
      </trkpt>
      <trkpt lat="46.48926" lon="8.27735">
        <ele>1361</ele>
        <time>2020-10-24T08:36:38.937Z</time>
      </trkpt>
      <trkpt lat="46.48924" lon="8.27733">
        <ele>1360</ele>
        <time>2020-10-24T08:36:39.937Z</time>
      </trkpt>
      <trkpt lat="46.48923" lon="8.2773">
        <ele>1360</ele>
        <time>2020-10-24T08:36:40.937Z</time>
      </trkpt>
      <trkpt lat="46.48922" lon="8.27728">
        <ele>1360</ele>
        <time>2020-10-24T08:36:41.937Z</time>
      </trkpt>
      <trkpt lat="46.4892" lon="8.27726">
        <ele>1360</ele>
        <time>2020-10-24T08:36:42.936Z</time>
      </trkpt>
      <trkpt lat="46.48919" lon="8.27724">
        <ele>1360</ele>
        <time>2020-10-24T08:36:43.937Z</time>
      </trkpt>
      <trkpt lat="46.48918" lon="8.27721">
        <ele>1360</ele>
        <time>2020-10-24T08:36:44.937Z</time>
      </trkpt>
      <trkpt lat="46.48917" lon="8.27719">
        <ele>1361</ele>
        <time>2020-10-24T08:36:45.937Z</time>
      </trkpt>
      <trkpt lat="46.48915" lon="8.27716">
        <ele>1361</ele>
        <time>2020-10-24T08:36:46.937Z</time>
      </trkpt>
      <trkpt lat="46.48914" lon="8.27713">
        <ele>1361</ele>
        <time>2020-10-24T08:36:47.936Z</time>
      </trkpt>
      <trkpt lat="46.48913" lon="8.2771">
        <ele>1361</ele>
        <time>2020-10-24T08:36:48.936Z</time>
      </trkpt>
      <trkpt lat="46.48912" lon="8.27708">
        <ele>1361</ele>
        <time>2020-10-24T08:36:49.937Z</time>
      </trkpt>
      <trkpt lat="46.48911" lon="8.27705">
        <ele>1361</ele>
        <time>2020-10-24T08:36:50.937Z</time>
      </trkpt>
      <trkpt lat="46.48909" lon="8.27703">
        <ele>1361</ele>
        <time>2020-10-24T08:36:51.937Z</time>
      </trkpt>
      <trkpt lat="46.48908" lon="8.277">
        <ele>1360</ele>
        <time>2020-10-24T08:36:52.937Z</time>
      </trkpt>
      <trkpt lat="46.48907" lon="8.27698">
        <ele>1360</ele>
        <time>2020-10-24T08:36:53.937Z</time>
      </trkpt>
      <trkpt lat="46.48906" lon="8.27695">
        <ele>1360</ele>
        <time>2020-10-24T08:36:54.937Z</time>
      </trkpt>
      <trkpt lat="46.48904" lon="8.27693">
        <ele>1359</ele>
        <time>2020-10-24T08:36:55.936Z</time>
      </trkpt>
      <trkpt lat="46.48903" lon="8.2769">
        <ele>1359</ele>
        <time>2020-10-24T08:36:56.936Z</time>
      </trkpt>
      <trkpt lat="46.48902" lon="8.27687">
        <ele>1359</ele>
        <time>2020-10-24T08:36:57.937Z</time>
      </trkpt>
      <trkpt lat="46.489" lon="8.27685">
        <ele>1359</ele>
        <time>2020-10-24T08:36:58.936Z</time>
      </trkpt>
      <trkpt lat="46.48899" lon="8.27683">
        <ele>1359</ele>
        <time>2020-10-24T08:36:59.937Z</time>
      </trkpt>
      <trkpt lat="46.48897" lon="8.2768">
        <ele>1359</ele>
        <time>2020-10-24T08:37:00.937Z</time>
      </trkpt>
      <trkpt lat="46.48896" lon="8.27678">
        <ele>1360</ele>
        <time>2020-10-24T08:37:01.937Z</time>
      </trkpt>
      <trkpt lat="46.48895" lon="8.27676">
        <ele>1360</ele>
        <time>2020-10-24T08:37:02.936Z</time>
      </trkpt>
      <trkpt lat="46.48893" lon="8.27673">
        <ele>1360</ele>
        <time>2020-10-24T08:37:03.937Z</time>
      </trkpt>
      <trkpt lat="46.48892" lon="8.27671">
        <ele>1360</ele>
        <time>2020-10-24T08:37:04.937Z</time>
      </trkpt>
      <trkpt lat="46.48891" lon="8.27668">
        <ele>1360</ele>
        <time>2020-10-24T08:37:05.937Z</time>
      </trkpt>
      <trkpt lat="46.48889" lon="8.27666">
        <ele>1360</ele>
        <time>2020-10-24T08:37:06.937Z</time>
      </trkpt>
      <trkpt lat="46.48888" lon="8.27663">
        <ele>1360</ele>
        <time>2020-10-24T08:37:07.937Z</time>
      </trkpt>
      <trkpt lat="46.48886" lon="8.27661">
        <ele>1360</ele>
        <time>2020-10-24T08:37:08.936Z</time>
      </trkpt>
      <trkpt lat="46.48885" lon="8.27658">
        <ele>1360</ele>
        <time>2020-10-24T08:37:09.936Z</time>
      </trkpt>
      <trkpt lat="46.48884" lon="8.27656">
        <ele>1361</ele>
        <time>2020-10-24T08:37:10.937Z</time>
      </trkpt>
      <trkpt lat="46.48882" lon="8.27653">
        <ele>1361</ele>
        <time>2020-10-24T08:37:11.937Z</time>
      </trkpt>
      <trkpt lat="46.48881" lon="8.27651">
        <ele>1361</ele>
        <time>2020-10-24T08:37:12.936Z</time>
      </trkpt>
      <trkpt lat="46.48879" lon="8.27648">
        <ele>1361</ele>
        <time>2020-10-24T08:37:13.937Z</time>
      </trkpt>
      <trkpt lat="46.48878" lon="8.27646">
        <ele>1361</ele>
        <time>2020-10-24T08:37:14.937Z</time>
      </trkpt>
      <trkpt lat="46.48877" lon="8.27644">
        <ele>1362</ele>
        <time>2020-10-24T08:37:15.937Z</time>
      </trkpt>
      <trkpt lat="46.48876" lon="8.27641">
        <ele>1362</ele>
        <time>2020-10-24T08:37:16.936Z</time>
      </trkpt>
      <trkpt lat="46.48874" lon="8.2764">
        <ele>1362</ele>
        <time>2020-10-24T08:37:17.937Z</time>
      </trkpt>
      <trkpt lat="46.48873" lon="8.27638">
        <ele>1362</ele>
        <time>2020-10-24T08:37:18.937Z</time>
      </trkpt>
      <trkpt lat="46.48871" lon="8.27636">
        <ele>1362</ele>
        <time>2020-10-24T08:37:19.937Z</time>
      </trkpt>
      <trkpt lat="46.48869" lon="8.27634">
        <ele>1362</ele>
        <time>2020-10-24T08:37:20.937Z</time>
      </trkpt>
      <trkpt lat="46.48868" lon="8.27631">
        <ele>1363</ele>
        <time>2020-10-24T08:37:21.936Z</time>
      </trkpt>
      <trkpt lat="46.48866" lon="8.27629">
        <ele>1363</ele>
        <time>2020-10-24T08:37:22.936Z</time>
      </trkpt>
      <trkpt lat="46.48865" lon="8.27627">
        <ele>1363</ele>
        <time>2020-10-24T08:37:23.936Z</time>
      </trkpt>
      <trkpt lat="46.48863" lon="8.27625">
        <ele>1363</ele>
        <time>2020-10-24T08:37:24.936Z</time>
      </trkpt>
      <trkpt lat="46.48862" lon="8.27622">
        <ele>1364</ele>
        <time>2020-10-24T08:37:25.936Z</time>
      </trkpt>
      <trkpt lat="46.4886" lon="8.2762">
        <ele>1363</ele>
        <time>2020-10-24T08:37:26.936Z</time>
      </trkpt>
      <trkpt lat="46.48859" lon="8.27618">
        <ele>1363</ele>
        <time>2020-10-24T08:37:27.936Z</time>
      </trkpt>
      <trkpt lat="46.48858" lon="8.27615">
        <ele>1363</ele>
        <time>2020-10-24T08:37:28.936Z</time>
      </trkpt>
      <trkpt lat="46.48856" lon="8.27613">
        <ele>1363</ele>
        <time>2020-10-24T08:37:29.937Z</time>
      </trkpt>
      <trkpt lat="46.48855" lon="8.27611">
        <ele>1364</ele>
        <time>2020-10-24T08:37:30.936Z</time>
      </trkpt>
      <trkpt lat="46.48854" lon="8.27609">
        <ele>1364</ele>
        <time>2020-10-24T08:37:31.937Z</time>
      </trkpt>
      <trkpt lat="46.48853" lon="8.27607">
        <ele>1364</ele>
        <time>2020-10-24T08:37:32.936Z</time>
      </trkpt>
      <trkpt lat="46.48851" lon="8.27605">
        <ele>1364</ele>
        <time>2020-10-24T08:37:33.936Z</time>
      </trkpt>
      <trkpt lat="46.4885" lon="8.27602">
        <ele>1364</ele>
        <time>2020-10-24T08:37:34.937Z</time>
      </trkpt>
      <trkpt lat="46.48849" lon="8.276">
        <ele>1365</ele>
        <time>2020-10-24T08:37:35.936Z</time>
      </trkpt>
      <trkpt lat="46.48848" lon="8.27598">
        <ele>1365</ele>
        <time>2020-10-24T08:37:36.937Z</time>
      </trkpt>
      <trkpt lat="46.48846" lon="8.27595">
        <ele>1365</ele>
        <time>2020-10-24T08:37:37.936Z</time>
      </trkpt>
      <trkpt lat="46.48845" lon="8.27593">
        <ele>1365</ele>
        <time>2020-10-24T08:37:38.936Z</time>
      </trkpt>
      <trkpt lat="46.48844" lon="8.27591">
        <ele>1365</ele>
        <time>2020-10-24T08:37:39.936Z</time>
      </trkpt>
      <trkpt lat="46.48843" lon="8.27589">
        <ele>1365</ele>
        <time>2020-10-24T08:37:40.936Z</time>
      </trkpt>
      <trkpt lat="46.48842" lon="8.27586">
        <ele>1364</ele>
        <time>2020-10-24T08:37:41.936Z</time>
      </trkpt>
      <trkpt lat="46.48841" lon="8.27584">
        <ele>1364</ele>
        <time>2020-10-24T08:37:42.936Z</time>
      </trkpt>
      <trkpt lat="46.4884" lon="8.27582">
        <ele>1364</ele>
        <time>2020-10-24T08:37:43.936Z</time>
      </trkpt>
      <trkpt lat="46.48839" lon="8.2758">
        <ele>1364</ele>
        <time>2020-10-24T08:37:44.936Z</time>
      </trkpt>
      <trkpt lat="46.48838" lon="8.27577">
        <ele>1364</ele>
        <time>2020-10-24T08:37:45.936Z</time>
      </trkpt>
      <trkpt lat="46.48837" lon="8.27575">
        <ele>1363</ele>
        <time>2020-10-24T08:37:46.937Z</time>
      </trkpt>
      <trkpt lat="46.48836" lon="8.27573">
        <ele>1363</ele>
        <time>2020-10-24T08:37:47.936Z</time>
      </trkpt>
      <trkpt lat="46.48835" lon="8.2757">
        <ele>1363</ele>
        <time>2020-10-24T08:37:48.936Z</time>
      </trkpt>
      <trkpt lat="46.48834" lon="8.27568">
        <ele>1362</ele>
        <time>2020-10-24T08:37:49.937Z</time>
      </trkpt>
      <trkpt lat="46.48832" lon="8.27566">
        <ele>1362</ele>
        <time>2020-10-24T08:37:50.937Z</time>
      </trkpt>
      <trkpt lat="46.48831" lon="8.27563">
        <ele>1363</ele>
        <time>2020-10-24T08:37:51.937Z</time>
      </trkpt>
      <trkpt lat="46.4883" lon="8.27561">
        <ele>1363</ele>
        <time>2020-10-24T08:37:52.937Z</time>
      </trkpt>
      <trkpt lat="46.48829" lon="8.27558">
        <ele>1363</ele>
        <time>2020-10-24T08:37:53.936Z</time>
      </trkpt>
      <trkpt lat="46.48827" lon="8.27555">
        <ele>1363</ele>
        <time>2020-10-24T08:37:54.937Z</time>
      </trkpt>
      <trkpt lat="46.48826" lon="8.27553">
        <ele>1363</ele>
        <time>2020-10-24T08:37:55.936Z</time>
      </trkpt>
      <trkpt lat="46.48825" lon="8.2755">
        <ele>1363</ele>
        <time>2020-10-24T08:37:56.936Z</time>
      </trkpt>
      <trkpt lat="46.48823" lon="8.27548">
        <ele>1363</ele>
        <time>2020-10-24T08:37:57.936Z</time>
      </trkpt>
      <trkpt lat="46.48822" lon="8.27545">
        <ele>1363</ele>
        <time>2020-10-24T08:37:58.937Z</time>
      </trkpt>
      <trkpt lat="46.48821" lon="8.27543">
        <ele>1363</ele>
        <time>2020-10-24T08:37:59.937Z</time>
      </trkpt>
      <trkpt lat="46.4882" lon="8.2754">
        <ele>1363</ele>
        <time>2020-10-24T08:38:00.937Z</time>
      </trkpt>
      <trkpt lat="46.48818" lon="8.27537">
        <ele>1364</ele>
        <time>2020-10-24T08:38:01.936Z</time>
      </trkpt>
      <trkpt lat="46.48817" lon="8.27535">
        <ele>1364</ele>
        <time>2020-10-24T08:38:02.937Z</time>
      </trkpt>
      <trkpt lat="46.48816" lon="8.27533">
        <ele>1364</ele>
        <time>2020-10-24T08:38:03.936Z</time>
      </trkpt>
      <trkpt lat="46.48815" lon="8.27531">
        <ele>1364</ele>
        <time>2020-10-24T08:38:04.937Z</time>
      </trkpt>
      <trkpt lat="46.48814" lon="8.27528">
        <ele>1365</ele>
        <time>2020-10-24T08:38:05.937Z</time>
      </trkpt>
      <trkpt lat="46.48813" lon="8.27526">
        <ele>1365</ele>
        <time>2020-10-24T08:38:06.936Z</time>
      </trkpt>
      <trkpt lat="46.48812" lon="8.27524">
        <ele>1365</ele>
        <time>2020-10-24T08:38:07.937Z</time>
      </trkpt>
      <trkpt lat="46.48811" lon="8.27521">
        <ele>1365</ele>
        <time>2020-10-24T08:38:08.936Z</time>
      </trkpt>
      <trkpt lat="46.4881" lon="8.27518">
        <ele>1365</ele>
        <time>2020-10-24T08:38:09.936Z</time>
      </trkpt>
      <trkpt lat="46.48809" lon="8.27516">
        <ele>1365</ele>
        <time>2020-10-24T08:38:10.937Z</time>
      </trkpt>
      <trkpt lat="46.48807" lon="8.27513">
        <ele>1365</ele>
        <time>2020-10-24T08:38:11.937Z</time>
      </trkpt>
      <trkpt lat="46.48806" lon="8.27511">
        <ele>1365</ele>
        <time>2020-10-24T08:38:12.937Z</time>
      </trkpt>
      <trkpt lat="46.48805" lon="8.27508">
        <ele>1364</ele>
        <time>2020-10-24T08:38:13.937Z</time>
      </trkpt>
      <trkpt lat="46.48803" lon="8.27505">
        <ele>1364</ele>
        <time>2020-10-24T08:38:14.937Z</time>
      </trkpt>
      <trkpt lat="46.48802" lon="8.27503">
        <ele>1363</ele>
        <time>2020-10-24T08:38:15.937Z</time>
      </trkpt>
      <trkpt lat="46.48801" lon="8.275">
        <ele>1363</ele>
        <time>2020-10-24T08:38:16.936Z</time>
      </trkpt>
      <trkpt lat="46.488" lon="8.27497">
        <ele>1363</ele>
        <time>2020-10-24T08:38:17.936Z</time>
      </trkpt>
      <trkpt lat="46.48798" lon="8.27495">
        <ele>1363</ele>
        <time>2020-10-24T08:38:18.937Z</time>
      </trkpt>
      <trkpt lat="46.48797" lon="8.27492">
        <ele>1363</ele>
        <time>2020-10-24T08:38:19.936Z</time>
      </trkpt>
      <trkpt lat="46.48796" lon="8.2749">
        <ele>1363</ele>
        <time>2020-10-24T08:38:20.937Z</time>
      </trkpt>
      <trkpt lat="46.48795" lon="8.27487">
        <ele>1363</ele>
        <time>2020-10-24T08:38:21.937Z</time>
      </trkpt>
      <trkpt lat="46.48794" lon="8.27485">
        <ele>1364</ele>
        <time>2020-10-24T08:38:22.937Z</time>
      </trkpt>
      <trkpt lat="46.48793" lon="8.27482">
        <ele>1364</ele>
        <time>2020-10-24T08:38:23.936Z</time>
      </trkpt>
      <trkpt lat="46.48792" lon="8.2748">
        <ele>1364</ele>
        <time>2020-10-24T08:38:24.936Z</time>
      </trkpt>
      <trkpt lat="46.48791" lon="8.27477">
        <ele>1364</ele>
        <time>2020-10-24T08:38:25.936Z</time>
      </trkpt>
      <trkpt lat="46.4879" lon="8.27474">
        <ele>1365</ele>
        <time>2020-10-24T08:38:26.937Z</time>
      </trkpt>
      <trkpt lat="46.48789" lon="8.27472">
        <ele>1365</ele>
        <time>2020-10-24T08:38:27.936Z</time>
      </trkpt>
      <trkpt lat="46.48787" lon="8.27469">
        <ele>1365</ele>
        <time>2020-10-24T08:38:28.937Z</time>
      </trkpt>
      <trkpt lat="46.48786" lon="8.27467">
        <ele>1365</ele>
        <time>2020-10-24T08:38:29.936Z</time>
      </trkpt>
      <trkpt lat="46.48785" lon="8.27464">
        <ele>1366</ele>
        <time>2020-10-24T08:38:30.937Z</time>
      </trkpt>
      <trkpt lat="46.48783" lon="8.27462">
        <ele>1366</ele>
        <time>2020-10-24T08:38:31.937Z</time>
      </trkpt>
      <trkpt lat="46.48782" lon="8.27459">
        <ele>1366</ele>
        <time>2020-10-24T08:38:32.937Z</time>
      </trkpt>
      <trkpt lat="46.48781" lon="8.27457">
        <ele>1366</ele>
        <time>2020-10-24T08:38:33.937Z</time>
      </trkpt>
      <trkpt lat="46.48779" lon="8.27455">
        <ele>1366</ele>
        <time>2020-10-24T08:38:34.937Z</time>
      </trkpt>
      <trkpt lat="46.48778" lon="8.27452">
        <ele>1366</ele>
        <time>2020-10-24T08:38:35.937Z</time>
      </trkpt>
      <trkpt lat="46.48777" lon="8.2745">
        <ele>1365</ele>
        <time>2020-10-24T08:38:36.937Z</time>
      </trkpt>
      <trkpt lat="46.48775" lon="8.27448">
        <ele>1365</ele>
        <time>2020-10-24T08:38:37.937Z</time>
      </trkpt>
      <trkpt lat="46.48774" lon="8.27445">
        <ele>1365</ele>
        <time>2020-10-24T08:38:38.937Z</time>
      </trkpt>
      <trkpt lat="46.48773" lon="8.27442">
        <ele>1365</ele>
        <time>2020-10-24T08:38:39.937Z</time>
      </trkpt>
      <trkpt lat="46.48772" lon="8.2744">
        <ele>1365</ele>
        <time>2020-10-24T08:38:40.937Z</time>
      </trkpt>
      <trkpt lat="46.4877" lon="8.27437">
        <ele>1365</ele>
        <time>2020-10-24T08:38:41.936Z</time>
      </trkpt>
      <trkpt lat="46.48769" lon="8.27434">
        <ele>1365</ele>
        <time>2020-10-24T08:38:42.936Z</time>
      </trkpt>
      <trkpt lat="46.48768" lon="8.27431">
        <ele>1365</ele>
        <time>2020-10-24T08:38:43.937Z</time>
      </trkpt>
      <trkpt lat="46.48767" lon="8.27429">
        <ele>1366</ele>
        <time>2020-10-24T08:38:44.937Z</time>
      </trkpt>
      <trkpt lat="46.48765" lon="8.27426">
        <ele>1366</ele>
        <time>2020-10-24T08:38:45.937Z</time>
      </trkpt>
      <trkpt lat="46.48764" lon="8.27423">
        <ele>1366</ele>
        <time>2020-10-24T08:38:46.936Z</time>
      </trkpt>
      <trkpt lat="46.48763" lon="8.27421">
        <ele>1366</ele>
        <time>2020-10-24T08:38:47.937Z</time>
      </trkpt>
      <trkpt lat="46.48762" lon="8.27418">
        <ele>1366</ele>
        <time>2020-10-24T08:38:48.936Z</time>
      </trkpt>
      <trkpt lat="46.48761" lon="8.27416">
        <ele>1366</ele>
        <time>2020-10-24T08:38:49.936Z</time>
      </trkpt>
      <trkpt lat="46.48759" lon="8.27413">
        <ele>1366</ele>
        <time>2020-10-24T08:38:50.937Z</time>
      </trkpt>
      <trkpt lat="46.48758" lon="8.27411">
        <ele>1366</ele>
        <time>2020-10-24T08:38:51.936Z</time>
      </trkpt>
      <trkpt lat="46.48757" lon="8.27408">
        <ele>1366</ele>
        <time>2020-10-24T08:38:52.936Z</time>
      </trkpt>
      <trkpt lat="46.48756" lon="8.27405">
        <ele>1366</ele>
        <time>2020-10-24T08:38:53.936Z</time>
      </trkpt>
      <trkpt lat="46.48755" lon="8.27402">
        <ele>1366</ele>
        <time>2020-10-24T08:38:54.937Z</time>
      </trkpt>
      <trkpt lat="46.48753" lon="8.27399">
        <ele>1366</ele>
        <time>2020-10-24T08:38:55.937Z</time>
      </trkpt>
      <trkpt lat="46.48752" lon="8.27397">
        <ele>1367</ele>
        <time>2020-10-24T08:38:56.937Z</time>
      </trkpt>
      <trkpt lat="46.48751" lon="8.27394">
        <ele>1367</ele>
        <time>2020-10-24T08:38:57.936Z</time>
      </trkpt>
      <trkpt lat="46.4875" lon="8.27392">
        <ele>1367</ele>
        <time>2020-10-24T08:38:58.937Z</time>
      </trkpt>
      <trkpt lat="46.48749" lon="8.27389">
        <ele>1367</ele>
        <time>2020-10-24T08:38:59.936Z</time>
      </trkpt>
      <trkpt lat="46.48747" lon="8.27386">
        <ele>1367</ele>
        <time>2020-10-24T08:39:00.937Z</time>
      </trkpt>
      <trkpt lat="46.48746" lon="8.27383">
        <ele>1367</ele>
        <time>2020-10-24T08:39:01.937Z</time>
      </trkpt>
      <trkpt lat="46.48745" lon="8.27381">
        <ele>1367</ele>
        <time>2020-10-24T08:39:02.937Z</time>
      </trkpt>
      <trkpt lat="46.48744" lon="8.27378">
        <ele>1367</ele>
        <time>2020-10-24T08:39:03.936Z</time>
      </trkpt>
      <trkpt lat="46.48742" lon="8.27375">
        <ele>1367</ele>
        <time>2020-10-24T08:39:04.937Z</time>
      </trkpt>
      <trkpt lat="46.48741" lon="8.27373">
        <ele>1368</ele>
        <time>2020-10-24T08:39:05.937Z</time>
      </trkpt>
      <trkpt lat="46.4874" lon="8.2737">
        <ele>1368</ele>
        <time>2020-10-24T08:39:06.937Z</time>
      </trkpt>
      <trkpt lat="46.48739" lon="8.27367">
        <ele>1369</ele>
        <time>2020-10-24T08:39:07.936Z</time>
      </trkpt>
      <trkpt lat="46.48737" lon="8.27364">
        <ele>1369</ele>
        <time>2020-10-24T08:39:08.937Z</time>
      </trkpt>
      <trkpt lat="46.48736" lon="8.27362">
        <ele>1369</ele>
        <time>2020-10-24T08:39:09.937Z</time>
      </trkpt>
      <trkpt lat="46.48735" lon="8.27359">
        <ele>1370</ele>
        <time>2020-10-24T08:39:10.937Z</time>
      </trkpt>
      <trkpt lat="46.48733" lon="8.27356">
        <ele>1370</ele>
        <time>2020-10-24T08:39:11.937Z</time>
      </trkpt>
      <trkpt lat="46.48732" lon="8.27353">
        <ele>1370</ele>
        <time>2020-10-24T08:39:12.937Z</time>
      </trkpt>
      <trkpt lat="46.48731" lon="8.2735">
        <ele>1370</ele>
        <time>2020-10-24T08:39:13.937Z</time>
      </trkpt>
      <trkpt lat="46.48729" lon="8.27348">
        <ele>1370</ele>
        <time>2020-10-24T08:39:14.937Z</time>
      </trkpt>
      <trkpt lat="46.48728" lon="8.27345">
        <ele>1370</ele>
        <time>2020-10-24T08:39:15.936Z</time>
      </trkpt>
      <trkpt lat="46.48727" lon="8.27342">
        <ele>1370</ele>
        <time>2020-10-24T08:39:16.936Z</time>
      </trkpt>
      <trkpt lat="46.48725" lon="8.27339">
        <ele>1370</ele>
        <time>2020-10-24T08:39:17.937Z</time>
      </trkpt>
      <trkpt lat="46.48724" lon="8.27337">
        <ele>1370</ele>
        <time>2020-10-24T08:39:18.937Z</time>
      </trkpt>
      <trkpt lat="46.48722" lon="8.27334">
        <ele>1370</ele>
        <time>2020-10-24T08:39:19.936Z</time>
      </trkpt>
      <trkpt lat="46.48721" lon="8.27331">
        <ele>1370</ele>
        <time>2020-10-24T08:39:20.937Z</time>
      </trkpt>
      <trkpt lat="46.4872" lon="8.27328">
        <ele>1370</ele>
        <time>2020-10-24T08:39:21.937Z</time>
      </trkpt>
      <trkpt lat="46.48718" lon="8.27325">
        <ele>1370</ele>
        <time>2020-10-24T08:39:22.937Z</time>
      </trkpt>
      <trkpt lat="46.48717" lon="8.27322">
        <ele>1370</ele>
        <time>2020-10-24T08:39:23.936Z</time>
      </trkpt>
      <trkpt lat="46.48716" lon="8.27319">
        <ele>1370</ele>
        <time>2020-10-24T08:39:24.937Z</time>
      </trkpt>
      <trkpt lat="46.48715" lon="8.27316">
        <ele>1370</ele>
        <time>2020-10-24T08:39:25.937Z</time>
      </trkpt>
      <trkpt lat="46.48713" lon="8.27313">
        <ele>1370</ele>
        <time>2020-10-24T08:39:26.936Z</time>
      </trkpt>
      <trkpt lat="46.48712" lon="8.27311">
        <ele>1370</ele>
        <time>2020-10-24T08:39:27.937Z</time>
      </trkpt>
      <trkpt lat="46.48711" lon="8.27308">
        <ele>1370</ele>
        <time>2020-10-24T08:39:28.937Z</time>
      </trkpt>
      <trkpt lat="46.4871" lon="8.27305">
        <ele>1370</ele>
        <time>2020-10-24T08:39:29.936Z</time>
      </trkpt>
      <trkpt lat="46.48709" lon="8.27302">
        <ele>1370</ele>
        <time>2020-10-24T08:39:30.936Z</time>
      </trkpt>
      <trkpt lat="46.48707" lon="8.273">
        <ele>1370</ele>
        <time>2020-10-24T08:39:31.937Z</time>
      </trkpt>
      <trkpt lat="46.48706" lon="8.27297">
        <ele>1370</ele>
        <time>2020-10-24T08:39:32.937Z</time>
      </trkpt>
      <trkpt lat="46.48705" lon="8.27294">
        <ele>1370</ele>
        <time>2020-10-24T08:39:33.937Z</time>
      </trkpt>
      <trkpt lat="46.48704" lon="8.27291">
        <ele>1370</ele>
        <time>2020-10-24T08:39:34.937Z</time>
      </trkpt>
      <trkpt lat="46.48703" lon="8.27288">
        <ele>1370</ele>
        <time>2020-10-24T08:39:35.936Z</time>
      </trkpt>
      <trkpt lat="46.48702" lon="8.27285">
        <ele>1370</ele>
        <time>2020-10-24T08:39:36.937Z</time>
      </trkpt>
      <trkpt lat="46.48701" lon="8.27282">
        <ele>1370</ele>
        <time>2020-10-24T08:39:37.937Z</time>
      </trkpt>
      <trkpt lat="46.487" lon="8.27279">
        <ele>1370</ele>
        <time>2020-10-24T08:39:38.937Z</time>
      </trkpt>
      <trkpt lat="46.48699" lon="8.27276">
        <ele>1370</ele>
        <time>2020-10-24T08:39:39.936Z</time>
      </trkpt>
      <trkpt lat="46.48698" lon="8.27273">
        <ele>1369</ele>
        <time>2020-10-24T08:39:40.936Z</time>
      </trkpt>
      <trkpt lat="46.48696" lon="8.2727">
        <ele>1369</ele>
        <time>2020-10-24T08:39:41.937Z</time>
      </trkpt>
      <trkpt lat="46.48695" lon="8.27267">
        <ele>1369</ele>
        <time>2020-10-24T08:39:42.937Z</time>
      </trkpt>
      <trkpt lat="46.48694" lon="8.27264">
        <ele>1369</ele>
        <time>2020-10-24T08:39:43.937Z</time>
      </trkpt>
      <trkpt lat="46.48693" lon="8.27261">
        <ele>1368</ele>
        <time>2020-10-24T08:39:44.937Z</time>
      </trkpt>
      <trkpt lat="46.48692" lon="8.27258">
        <ele>1368</ele>
        <time>2020-10-24T08:39:45.936Z</time>
      </trkpt>
      <trkpt lat="46.4869" lon="8.27255">
        <ele>1368</ele>
        <time>2020-10-24T08:39:46.937Z</time>
      </trkpt>
      <trkpt lat="46.48689" lon="8.27252">
        <ele>1368</ele>
        <time>2020-10-24T08:39:47.937Z</time>
      </trkpt>
      <trkpt lat="46.48688" lon="8.27249">
        <ele>1368</ele>
        <time>2020-10-24T08:39:48.937Z</time>
      </trkpt>
      <trkpt lat="46.48687" lon="8.27247">
        <ele>1368</ele>
        <time>2020-10-24T08:39:49.936Z</time>
      </trkpt>
      <trkpt lat="46.48686" lon="8.27244">
        <ele>1367</ele>
        <time>2020-10-24T08:39:50.936Z</time>
      </trkpt>
      <trkpt lat="46.48685" lon="8.2724">
        <ele>1367</ele>
        <time>2020-10-24T08:39:51.937Z</time>
      </trkpt>
      <trkpt lat="46.48684" lon="8.27237">
        <ele>1367</ele>
        <time>2020-10-24T08:39:52.936Z</time>
      </trkpt>
      <trkpt lat="46.48683" lon="8.27234">
        <ele>1367</ele>
        <time>2020-10-24T08:39:53.936Z</time>
      </trkpt>
      <trkpt lat="46.48682" lon="8.27231">
        <ele>1367</ele>
        <time>2020-10-24T08:39:54.936Z</time>
      </trkpt>
      <trkpt lat="46.48681" lon="8.27227">
        <ele>1367</ele>
        <time>2020-10-24T08:39:55.936Z</time>
      </trkpt>
      <trkpt lat="46.4868" lon="8.27224">
        <ele>1367</ele>
        <time>2020-10-24T08:39:56.937Z</time>
      </trkpt>
      <trkpt lat="46.48679" lon="8.27221">
        <ele>1367</ele>
        <time>2020-10-24T08:39:57.937Z</time>
      </trkpt>
      <trkpt lat="46.48678" lon="8.27218">
        <ele>1367</ele>
        <time>2020-10-24T08:39:58.937Z</time>
      </trkpt>
      <trkpt lat="46.48677" lon="8.27215">
        <ele>1367</ele>
        <time>2020-10-24T08:39:59.937Z</time>
      </trkpt>
      <trkpt lat="46.48676" lon="8.27212">
        <ele>1368</ele>
        <time>2020-10-24T08:40:00.936Z</time>
      </trkpt>
      <trkpt lat="46.48675" lon="8.27208">
        <ele>1368</ele>
        <time>2020-10-24T08:40:01.937Z</time>
      </trkpt>
      <trkpt lat="46.48674" lon="8.27205">
        <ele>1368</ele>
        <time>2020-10-24T08:40:02.937Z</time>
      </trkpt>
      <trkpt lat="46.48673" lon="8.27202">
        <ele>1368</ele>
        <time>2020-10-24T08:40:03.937Z</time>
      </trkpt>
      <trkpt lat="46.48672" lon="8.27199">
        <ele>1368</ele>
        <time>2020-10-24T08:40:04.936Z</time>
      </trkpt>
      <trkpt lat="46.48672" lon="8.27196">
        <ele>1368</ele>
        <time>2020-10-24T08:40:05.937Z</time>
      </trkpt>
      <trkpt lat="46.48671" lon="8.27193">
        <ele>1368</ele>
        <time>2020-10-24T08:40:06.936Z</time>
      </trkpt>
      <trkpt lat="46.4867" lon="8.2719">
        <ele>1368</ele>
        <time>2020-10-24T08:40:07.937Z</time>
      </trkpt>
      <trkpt lat="46.48669" lon="8.27187">
        <ele>1368</ele>
        <time>2020-10-24T08:40:08.937Z</time>
      </trkpt>
      <trkpt lat="46.48668" lon="8.27184">
        <ele>1368</ele>
        <time>2020-10-24T08:40:09.937Z</time>
      </trkpt>
      <trkpt lat="46.48667" lon="8.27181">
        <ele>1369</ele>
        <time>2020-10-24T08:40:10.937Z</time>
      </trkpt>
      <trkpt lat="46.48666" lon="8.27177">
        <ele>1369</ele>
        <time>2020-10-24T08:40:11.937Z</time>
      </trkpt>
      <trkpt lat="46.48665" lon="8.27174">
        <ele>1369</ele>
        <time>2020-10-24T08:40:12.937Z</time>
      </trkpt>
      <trkpt lat="46.48664" lon="8.27171">
        <ele>1369</ele>
        <time>2020-10-24T08:40:13.937Z</time>
      </trkpt>
      <trkpt lat="46.48663" lon="8.27168">
        <ele>1369</ele>
        <time>2020-10-24T08:40:14.937Z</time>
      </trkpt>
      <trkpt lat="46.48662" lon="8.27165">
        <ele>1369</ele>
        <time>2020-10-24T08:40:15.937Z</time>
      </trkpt>
      <trkpt lat="46.48662" lon="8.27161">
        <ele>1368</ele>
        <time>2020-10-24T08:40:16.936Z</time>
      </trkpt>
      <trkpt lat="46.48661" lon="8.27158">
        <ele>1368</ele>
        <time>2020-10-24T08:40:17.937Z</time>
      </trkpt>
      <trkpt lat="46.4866" lon="8.27155">
        <ele>1368</ele>
        <time>2020-10-24T08:40:18.937Z</time>
      </trkpt>
      <trkpt lat="46.48659" lon="8.27151">
        <ele>1368</ele>
        <time>2020-10-24T08:40:19.937Z</time>
      </trkpt>
      <trkpt lat="46.48658" lon="8.27148">
        <ele>1368</ele>
        <time>2020-10-24T08:40:20.937Z</time>
      </trkpt>
      <trkpt lat="46.48657" lon="8.27144">
        <ele>1368</ele>
        <time>2020-10-24T08:40:21.937Z</time>
      </trkpt>
      <trkpt lat="46.48656" lon="8.27141">
        <ele>1368</ele>
        <time>2020-10-24T08:40:22.937Z</time>
      </trkpt>
      <trkpt lat="46.48656" lon="8.27138">
        <ele>1368</ele>
        <time>2020-10-24T08:40:23.937Z</time>
      </trkpt>
      <trkpt lat="46.48655" lon="8.27135">
        <ele>1368</ele>
        <time>2020-10-24T08:40:24.937Z</time>
      </trkpt>
      <trkpt lat="46.48654" lon="8.27131">
        <ele>1368</ele>
        <time>2020-10-24T08:40:25.936Z</time>
      </trkpt>
      <trkpt lat="46.48653" lon="8.27128">
        <ele>1367</ele>
        <time>2020-10-24T08:40:26.936Z</time>
      </trkpt>
      <trkpt lat="46.48652" lon="8.27125">
        <ele>1367</ele>
        <time>2020-10-24T08:40:27.937Z</time>
      </trkpt>
      <trkpt lat="46.48651" lon="8.27122">
        <ele>1368</ele>
        <time>2020-10-24T08:40:28.937Z</time>
      </trkpt>
      <trkpt lat="46.4865" lon="8.27118">
        <ele>1368</ele>
        <time>2020-10-24T08:40:29.936Z</time>
      </trkpt>
      <trkpt lat="46.48649" lon="8.27115">
        <ele>1368</ele>
        <time>2020-10-24T08:40:30.937Z</time>
      </trkpt>
      <trkpt lat="46.48648" lon="8.27112">
        <ele>1368</ele>
        <time>2020-10-24T08:40:31.937Z</time>
      </trkpt>
      <trkpt lat="46.48648" lon="8.27108">
        <ele>1368</ele>
        <time>2020-10-24T08:40:32.937Z</time>
      </trkpt>
      <trkpt lat="46.48647" lon="8.27105">
        <ele>1368</ele>
        <time>2020-10-24T08:40:33.936Z</time>
      </trkpt>
      <trkpt lat="46.48646" lon="8.27102">
        <ele>1368</ele>
        <time>2020-10-24T08:40:34.936Z</time>
      </trkpt>
      <trkpt lat="46.48645" lon="8.27098">
        <ele>1368</ele>
        <time>2020-10-24T08:40:35.936Z</time>
      </trkpt>
      <trkpt lat="46.48644" lon="8.27095">
        <ele>1368</ele>
        <time>2020-10-24T08:40:36.936Z</time>
      </trkpt>
      <trkpt lat="46.48643" lon="8.27092">
        <ele>1368</ele>
        <time>2020-10-24T08:40:37.936Z</time>
      </trkpt>
      <trkpt lat="46.48642" lon="8.27089">
        <ele>1367</ele>
        <time>2020-10-24T08:40:38.937Z</time>
      </trkpt>
      <trkpt lat="46.48641" lon="8.27086">
        <ele>1367</ele>
        <time>2020-10-24T08:40:39.937Z</time>
      </trkpt>
      <trkpt lat="46.48641" lon="8.27083">
        <ele>1367</ele>
        <time>2020-10-24T08:40:40.936Z</time>
      </trkpt>
      <trkpt lat="46.4864" lon="8.2708">
        <ele>1367</ele>
        <time>2020-10-24T08:40:41.937Z</time>
      </trkpt>
      <trkpt lat="46.48639" lon="8.27076">
        <ele>1368</ele>
        <time>2020-10-24T08:40:42.936Z</time>
      </trkpt>
      <trkpt lat="46.48638" lon="8.27073">
        <ele>1368</ele>
        <time>2020-10-24T08:40:43.937Z</time>
      </trkpt>
      <trkpt lat="46.48637" lon="8.2707">
        <ele>1368</ele>
        <time>2020-10-24T08:40:44.937Z</time>
      </trkpt>
      <trkpt lat="46.48636" lon="8.27066">
        <ele>1368</ele>
        <time>2020-10-24T08:40:45.936Z</time>
      </trkpt>
      <trkpt lat="46.48635" lon="8.27063">
        <ele>1368</ele>
        <time>2020-10-24T08:40:46.936Z</time>
      </trkpt>
      <trkpt lat="46.48634" lon="8.2706">
        <ele>1368</ele>
        <time>2020-10-24T08:40:47.936Z</time>
      </trkpt>
      <trkpt lat="46.48633" lon="8.27056">
        <ele>1368</ele>
        <time>2020-10-24T08:40:48.936Z</time>
      </trkpt>
      <trkpt lat="46.48632" lon="8.27053">
        <ele>1368</ele>
        <time>2020-10-24T08:40:49.936Z</time>
      </trkpt>
      <trkpt lat="46.48631" lon="8.27049">
        <ele>1368</ele>
        <time>2020-10-24T08:40:50.936Z</time>
      </trkpt>
      <trkpt lat="46.4863" lon="8.27046">
        <ele>1368</ele>
        <time>2020-10-24T08:40:51.936Z</time>
      </trkpt>
      <trkpt lat="46.48629" lon="8.27042">
        <ele>1368</ele>
        <time>2020-10-24T08:40:52.936Z</time>
      </trkpt>
      <trkpt lat="46.48628" lon="8.27039">
        <ele>1368</ele>
        <time>2020-10-24T08:40:53.936Z</time>
      </trkpt>
      <trkpt lat="46.48627" lon="8.27035">
        <ele>1368</ele>
        <time>2020-10-24T08:40:54.936Z</time>
      </trkpt>
      <trkpt lat="46.48626" lon="8.27032">
        <ele>1368</ele>
        <time>2020-10-24T08:40:55.937Z</time>
      </trkpt>
      <trkpt lat="46.48625" lon="8.27028">
        <ele>1368</ele>
        <time>2020-10-24T08:40:56.937Z</time>
      </trkpt>
      <trkpt lat="46.48624" lon="8.27025">
        <ele>1368</ele>
        <time>2020-10-24T08:40:57.936Z</time>
      </trkpt>
      <trkpt lat="46.48623" lon="8.27021">
        <ele>1368</ele>
        <time>2020-10-24T08:40:58.937Z</time>
      </trkpt>
      <trkpt lat="46.48622" lon="8.27018">
        <ele>1368</ele>
        <time>2020-10-24T08:40:59.937Z</time>
      </trkpt>
      <trkpt lat="46.4862" lon="8.27015">
        <ele>1368</ele>
        <time>2020-10-24T08:41:00.937Z</time>
      </trkpt>
      <trkpt lat="46.48619" lon="8.27012">
        <ele>1367</ele>
        <time>2020-10-24T08:41:01.937Z</time>
      </trkpt>
      <trkpt lat="46.48618" lon="8.27009">
        <ele>1368</ele>
        <time>2020-10-24T08:41:02.937Z</time>
      </trkpt>
      <trkpt lat="46.48617" lon="8.27006">
        <ele>1368</ele>
        <time>2020-10-24T08:41:03.937Z</time>
      </trkpt>
      <trkpt lat="46.48616" lon="8.27002">
        <ele>1368</ele>
        <time>2020-10-24T08:41:04.936Z</time>
      </trkpt>
      <trkpt lat="46.48615" lon="8.26999">
        <ele>1368</ele>
        <time>2020-10-24T08:41:05.937Z</time>
      </trkpt>
      <trkpt lat="46.48614" lon="8.26996">
        <ele>1368</ele>
        <time>2020-10-24T08:41:06.937Z</time>
      </trkpt>
      <trkpt lat="46.48614" lon="8.26992">
        <ele>1368</ele>
        <time>2020-10-24T08:41:07.937Z</time>
      </trkpt>
      <trkpt lat="46.48613" lon="8.26989">
        <ele>1368</ele>
        <time>2020-10-24T08:41:08.936Z</time>
      </trkpt>
      <trkpt lat="46.48612" lon="8.26986">
        <ele>1368</ele>
        <time>2020-10-24T08:41:09.937Z</time>
      </trkpt>
      <trkpt lat="46.48611" lon="8.26983">
        <ele>1367</ele>
        <time>2020-10-24T08:41:10.936Z</time>
      </trkpt>
      <trkpt lat="46.4861" lon="8.2698">
        <ele>1367</ele>
        <time>2020-10-24T08:41:11.936Z</time>
      </trkpt>
      <trkpt lat="46.48609" lon="8.26977">
        <ele>1367</ele>
        <time>2020-10-24T08:41:12.936Z</time>
      </trkpt>
      <trkpt lat="46.48608" lon="8.26974">
        <ele>1368</ele>
        <time>2020-10-24T08:41:13.937Z</time>
      </trkpt>
      <trkpt lat="46.48607" lon="8.2697">
        <ele>1368</ele>
        <time>2020-10-24T08:41:14.937Z</time>
      </trkpt>
      <trkpt lat="46.48606" lon="8.26967">
        <ele>1368</ele>
        <time>2020-10-24T08:41:15.936Z</time>
      </trkpt>
      <trkpt lat="46.48605" lon="8.26964">
        <ele>1368</ele>
        <time>2020-10-24T08:41:16.936Z</time>
      </trkpt>
      <trkpt lat="46.48604" lon="8.26961">
        <ele>1368</ele>
        <time>2020-10-24T08:41:17.937Z</time>
      </trkpt>
      <trkpt lat="46.48604" lon="8.26957">
        <ele>1368</ele>
        <time>2020-10-24T08:41:18.936Z</time>
      </trkpt>
      <trkpt lat="46.48603" lon="8.26954">
        <ele>1368</ele>
        <time>2020-10-24T08:41:19.937Z</time>
      </trkpt>
      <trkpt lat="46.48602" lon="8.26951">
        <ele>1368</ele>
        <time>2020-10-24T08:41:20.937Z</time>
      </trkpt>
      <trkpt lat="46.48601" lon="8.26948">
        <ele>1368</ele>
        <time>2020-10-24T08:41:21.936Z</time>
      </trkpt>
      <trkpt lat="46.48601" lon="8.26944">
        <ele>1368</ele>
        <time>2020-10-24T08:41:22.937Z</time>
      </trkpt>
      <trkpt lat="46.486" lon="8.26941">
        <ele>1368</ele>
        <time>2020-10-24T08:41:23.936Z</time>
      </trkpt>
      <trkpt lat="46.48599" lon="8.26938">
        <ele>1368</ele>
        <time>2020-10-24T08:41:24.937Z</time>
      </trkpt>
      <trkpt lat="46.48598" lon="8.26934">
        <ele>1368</ele>
        <time>2020-10-24T08:41:25.937Z</time>
      </trkpt>
      <trkpt lat="46.48598" lon="8.26931">
        <ele>1367</ele>
        <time>2020-10-24T08:41:26.936Z</time>
      </trkpt>
      <trkpt lat="46.48597" lon="8.26927">
        <ele>1367</ele>
        <time>2020-10-24T08:41:27.937Z</time>
      </trkpt>
      <trkpt lat="46.48596" lon="8.26924">
        <ele>1367</ele>
        <time>2020-10-24T08:41:28.937Z</time>
      </trkpt>
      <trkpt lat="46.48596" lon="8.2692">
        <ele>1368</ele>
        <time>2020-10-24T08:41:29.937Z</time>
      </trkpt>
      <trkpt lat="46.48595" lon="8.26917">
        <ele>1368</ele>
        <time>2020-10-24T08:41:30.937Z</time>
      </trkpt>
      <trkpt lat="46.48594" lon="8.26914">
        <ele>1367</ele>
        <time>2020-10-24T08:41:31.936Z</time>
      </trkpt>
      <trkpt lat="46.48594" lon="8.2691">
        <ele>1367</ele>
        <time>2020-10-24T08:41:32.937Z</time>
      </trkpt>
      <trkpt lat="46.48593" lon="8.26907">
        <ele>1367</ele>
        <time>2020-10-24T08:41:33.937Z</time>
      </trkpt>
      <trkpt lat="46.48593" lon="8.26904">
        <ele>1367</ele>
        <time>2020-10-24T08:41:34.937Z</time>
      </trkpt>
      <trkpt lat="46.48592" lon="8.26901">
        <ele>1368</ele>
        <time>2020-10-24T08:41:35.937Z</time>
      </trkpt>
      <trkpt lat="46.48592" lon="8.26897">
        <ele>1368</ele>
        <time>2020-10-24T08:41:36.937Z</time>
      </trkpt>
      <trkpt lat="46.48591" lon="8.26894">
        <ele>1368</ele>
        <time>2020-10-24T08:41:37.936Z</time>
      </trkpt>
      <trkpt lat="46.48591" lon="8.26891">
        <ele>1368</ele>
        <time>2020-10-24T08:41:38.936Z</time>
      </trkpt>
      <trkpt lat="46.4859" lon="8.26888">
        <ele>1369</ele>
        <time>2020-10-24T08:41:39.937Z</time>
      </trkpt>
      <trkpt lat="46.4859" lon="8.26884">
        <ele>1369</ele>
        <time>2020-10-24T08:41:40.937Z</time>
      </trkpt>
      <trkpt lat="46.48589" lon="8.2688">
        <ele>1369</ele>
        <time>2020-10-24T08:41:41.937Z</time>
      </trkpt>
      <trkpt lat="46.48588" lon="8.26877">
        <ele>1369</ele>
        <time>2020-10-24T08:41:42.937Z</time>
      </trkpt>
      <trkpt lat="46.48588" lon="8.26874">
        <ele>1369</ele>
        <time>2020-10-24T08:41:43.936Z</time>
      </trkpt>
      <trkpt lat="46.48588" lon="8.2687">
        <ele>1369</ele>
        <time>2020-10-24T08:41:44.937Z</time>
      </trkpt>
      <trkpt lat="46.48588" lon="8.26867">
        <ele>1369</ele>
        <time>2020-10-24T08:41:45.936Z</time>
      </trkpt>
      <trkpt lat="46.48587" lon="8.26864">
        <ele>1369</ele>
        <time>2020-10-24T08:41:46.937Z</time>
      </trkpt>
      <trkpt lat="46.48587" lon="8.26861">
        <ele>1369</ele>
        <time>2020-10-24T08:41:47.937Z</time>
      </trkpt>
      <trkpt lat="46.48587" lon="8.26858">
        <ele>1369</ele>
        <time>2020-10-24T08:41:48.937Z</time>
      </trkpt>
      <trkpt lat="46.48587" lon="8.26856">
        <ele>1369</ele>
        <time>2020-10-24T08:41:49.937Z</time>
      </trkpt>
      <trkpt lat="46.48587" lon="8.26853">
        <ele>1369</ele>
        <time>2020-10-24T08:41:50.937Z</time>
      </trkpt>
      <trkpt lat="46.48587" lon="8.2685">
        <ele>1369</ele>
        <time>2020-10-24T08:41:51.937Z</time>
      </trkpt>
      <trkpt lat="46.48586" lon="8.26847">
        <ele>1370</ele>
        <time>2020-10-24T08:41:52.937Z</time>
      </trkpt>
      <trkpt lat="46.48586" lon="8.26844">
        <ele>1370</ele>
        <time>2020-10-24T08:41:53.937Z</time>
      </trkpt>
      <trkpt lat="46.48586" lon="8.26841">
        <ele>1370</ele>
        <time>2020-10-24T08:41:54.937Z</time>
      </trkpt>
      <trkpt lat="46.48585" lon="8.26838">
        <ele>1370</ele>
        <time>2020-10-24T08:41:55.937Z</time>
      </trkpt>
      <trkpt lat="46.48585" lon="8.26835">
        <ele>1370</ele>
        <time>2020-10-24T08:41:56.937Z</time>
      </trkpt>
      <trkpt lat="46.48585" lon="8.26832">
        <ele>1370</ele>
        <time>2020-10-24T08:41:57.936Z</time>
      </trkpt>
      <trkpt lat="46.48586" lon="8.26829">
        <ele>1370</ele>
        <time>2020-10-24T08:41:58.937Z</time>
      </trkpt>
      <trkpt lat="46.48586" lon="8.26826">
        <ele>1370</ele>
        <time>2020-10-24T08:41:59.937Z</time>
      </trkpt>
      <trkpt lat="46.48586" lon="8.26823">
        <ele>1371</ele>
        <time>2020-10-24T08:42:00.937Z</time>
      </trkpt>
      <trkpt lat="46.48586" lon="8.2682">
        <ele>1371</ele>
        <time>2020-10-24T08:42:01.937Z</time>
      </trkpt>
      <trkpt lat="46.48586" lon="8.26817">
        <ele>1371</ele>
        <time>2020-10-24T08:42:02.937Z</time>
      </trkpt>
      <trkpt lat="46.48586" lon="8.26814">
        <ele>1371</ele>
        <time>2020-10-24T08:42:03.937Z</time>
      </trkpt>
      <trkpt lat="46.48587" lon="8.26811">
        <ele>1372</ele>
        <time>2020-10-24T08:42:04.937Z</time>
      </trkpt>
      <trkpt lat="46.48587" lon="8.26808">
        <ele>1372</ele>
        <time>2020-10-24T08:42:05.937Z</time>
      </trkpt>
      <trkpt lat="46.48588" lon="8.26806">
        <ele>1372</ele>
        <time>2020-10-24T08:42:06.937Z</time>
      </trkpt>
      <trkpt lat="46.48588" lon="8.26803">
        <ele>1372</ele>
        <time>2020-10-24T08:42:07.936Z</time>
      </trkpt>
      <trkpt lat="46.48589" lon="8.268">
        <ele>1372</ele>
        <time>2020-10-24T08:42:08.937Z</time>
      </trkpt>
      <trkpt lat="46.48589" lon="8.26797">
        <ele>1372</ele>
        <time>2020-10-24T08:42:09.937Z</time>
      </trkpt>
      <trkpt lat="46.48589" lon="8.26794">
        <ele>1372</ele>
        <time>2020-10-24T08:42:10.937Z</time>
      </trkpt>
      <trkpt lat="46.48589" lon="8.26791">
        <ele>1372</ele>
        <time>2020-10-24T08:42:11.937Z</time>
      </trkpt>
      <trkpt lat="46.4859" lon="8.26788">
        <ele>1373</ele>
        <time>2020-10-24T08:42:12.937Z</time>
      </trkpt>
      <trkpt lat="46.4859" lon="8.26785">
        <ele>1373</ele>
        <time>2020-10-24T08:42:13.936Z</time>
      </trkpt>
      <trkpt lat="46.4859" lon="8.26782">
        <ele>1374</ele>
        <time>2020-10-24T08:42:14.936Z</time>
      </trkpt>
      <trkpt lat="46.4859" lon="8.26779">
        <ele>1375</ele>
        <time>2020-10-24T08:42:15.937Z</time>
      </trkpt>
      <trkpt lat="46.4859" lon="8.26776">
        <ele>1375</ele>
        <time>2020-10-24T08:42:16.937Z</time>
      </trkpt>
      <trkpt lat="46.4859" lon="8.26774">
        <ele>1376</ele>
        <time>2020-10-24T08:42:17.937Z</time>
      </trkpt>
      <trkpt lat="46.4859" lon="8.26771">
        <ele>1376</ele>
        <time>2020-10-24T08:42:18.937Z</time>
      </trkpt>
      <trkpt lat="46.4859" lon="8.26769">
        <ele>1377</ele>
        <time>2020-10-24T08:42:19.936Z</time>
      </trkpt>
      <trkpt lat="46.4859" lon="8.26766">
        <ele>1377</ele>
        <time>2020-10-24T08:42:20.937Z</time>
      </trkpt>
      <trkpt lat="46.4859" lon="8.26763">
        <ele>1377</ele>
        <time>2020-10-24T08:42:21.936Z</time>
      </trkpt>
      <trkpt lat="46.48591" lon="8.26759">
        <ele>1377</ele>
        <time>2020-10-24T08:42:22.937Z</time>
      </trkpt>
      <trkpt lat="46.48591" lon="8.26755">
        <ele>1377</ele>
        <time>2020-10-24T08:42:23.937Z</time>
      </trkpt>
      <trkpt lat="46.48592" lon="8.26753">
        <ele>1377</ele>
        <time>2020-10-24T08:42:24.936Z</time>
      </trkpt>
      <trkpt lat="46.48592" lon="8.2675">
        <ele>1377</ele>
        <time>2020-10-24T08:42:25.936Z</time>
      </trkpt>
      <trkpt lat="46.48592" lon="8.26747">
        <ele>1376</ele>
        <time>2020-10-24T08:42:26.937Z</time>
      </trkpt>
      <trkpt lat="46.48592" lon="8.26744">
        <ele>1376</ele>
        <time>2020-10-24T08:42:27.937Z</time>
      </trkpt>
      <trkpt lat="46.48592" lon="8.26741">
        <ele>1376</ele>
        <time>2020-10-24T08:42:28.937Z</time>
      </trkpt>
      <trkpt lat="46.48592" lon="8.26738">
        <ele>1375</ele>
        <time>2020-10-24T08:42:29.936Z</time>
      </trkpt>
      <trkpt lat="46.48592" lon="8.26735">
        <ele>1375</ele>
        <time>2020-10-24T08:42:30.936Z</time>
      </trkpt>
      <trkpt lat="46.48592" lon="8.26733">
        <ele>1375</ele>
        <time>2020-10-24T08:42:31.936Z</time>
      </trkpt>
      <trkpt lat="46.48592" lon="8.2673">
        <ele>1375</ele>
        <time>2020-10-24T08:42:32.936Z</time>
      </trkpt>
      <trkpt lat="46.48592" lon="8.26727">
        <ele>1375</ele>
        <time>2020-10-24T08:42:33.936Z</time>
      </trkpt>
      <trkpt lat="46.48592" lon="8.26724">
        <ele>1374</ele>
        <time>2020-10-24T08:42:34.936Z</time>
      </trkpt>
      <trkpt lat="46.48592" lon="8.2672">
        <ele>1374</ele>
        <time>2020-10-24T08:42:35.936Z</time>
      </trkpt>
      <trkpt lat="46.48592" lon="8.26717">
        <ele>1374</ele>
        <time>2020-10-24T08:42:36.937Z</time>
      </trkpt>
      <trkpt lat="46.48592" lon="8.26713">
        <ele>1374</ele>
        <time>2020-10-24T08:42:37.936Z</time>
      </trkpt>
      <trkpt lat="46.48593" lon="8.26711">
        <ele>1374</ele>
        <time>2020-10-24T08:42:38.936Z</time>
      </trkpt>
      <trkpt lat="46.48594" lon="8.26708">
        <ele>1374</ele>
        <time>2020-10-24T08:42:39.936Z</time>
      </trkpt>
      <trkpt lat="46.48595" lon="8.26705">
        <ele>1374</ele>
        <time>2020-10-24T08:42:40.936Z</time>
      </trkpt>
      <trkpt lat="46.48595" lon="8.26703">
        <ele>1374</ele>
        <time>2020-10-24T08:42:41.937Z</time>
      </trkpt>
      <trkpt lat="46.48595" lon="8.26701">
        <ele>1374</ele>
        <time>2020-10-24T08:42:42.936Z</time>
      </trkpt>
      <trkpt lat="46.48595" lon="8.26698">
        <ele>1374</ele>
        <time>2020-10-24T08:42:43.936Z</time>
      </trkpt>
      <trkpt lat="46.48596" lon="8.26696">
        <ele>1374</ele>
        <time>2020-10-24T08:42:44.936Z</time>
      </trkpt>
      <trkpt lat="46.48597" lon="8.26694">
        <ele>1374</ele>
        <time>2020-10-24T08:42:45.936Z</time>
      </trkpt>
      <trkpt lat="46.48598" lon="8.26691">
        <ele>1374</ele>
        <time>2020-10-24T08:42:46.937Z</time>
      </trkpt>
      <trkpt lat="46.48598" lon="8.26688">
        <ele>1374</ele>
        <time>2020-10-24T08:42:47.936Z</time>
      </trkpt>
      <trkpt lat="46.48599" lon="8.26686">
        <ele>1374</ele>
        <time>2020-10-24T08:42:48.936Z</time>
      </trkpt>
      <trkpt lat="46.486" lon="8.26683">
        <ele>1374</ele>
        <time>2020-10-24T08:42:49.936Z</time>
      </trkpt>
      <trkpt lat="46.486" lon="8.26681">
        <ele>1374</ele>
        <time>2020-10-24T08:42:50.937Z</time>
      </trkpt>
      <trkpt lat="46.48601" lon="8.26678">
        <ele>1374</ele>
        <time>2020-10-24T08:42:51.937Z</time>
      </trkpt>
      <trkpt lat="46.48601" lon="8.26676">
        <ele>1374</ele>
        <time>2020-10-24T08:42:52.937Z</time>
      </trkpt>
      <trkpt lat="46.48601" lon="8.26673">
        <ele>1374</ele>
        <time>2020-10-24T08:42:53.937Z</time>
      </trkpt>
      <trkpt lat="46.48602" lon="8.2667">
        <ele>1374</ele>
        <time>2020-10-24T08:42:54.936Z</time>
      </trkpt>
      <trkpt lat="46.48602" lon="8.26668">
        <ele>1374</ele>
        <time>2020-10-24T08:42:55.937Z</time>
      </trkpt>
      <trkpt lat="46.48602" lon="8.26665">
        <ele>1374</ele>
        <time>2020-10-24T08:42:56.936Z</time>
      </trkpt>
      <trkpt lat="46.48602" lon="8.26662">
        <ele>1373</ele>
        <time>2020-10-24T08:42:57.936Z</time>
      </trkpt>
      <trkpt lat="46.48603" lon="8.26659">
        <ele>1373</ele>
        <time>2020-10-24T08:42:58.936Z</time>
      </trkpt>
      <trkpt lat="46.48603" lon="8.26657">
        <ele>1373</ele>
        <time>2020-10-24T08:42:59.936Z</time>
      </trkpt>
      <trkpt lat="46.48603" lon="8.26654">
        <ele>1373</ele>
        <time>2020-10-24T08:43:00.936Z</time>
      </trkpt>
      <trkpt lat="46.48603" lon="8.26651">
        <ele>1374</ele>
        <time>2020-10-24T08:43:01.937Z</time>
      </trkpt>
      <trkpt lat="46.48604" lon="8.26649">
        <ele>1374</ele>
        <time>2020-10-24T08:43:02.936Z</time>
      </trkpt>
      <trkpt lat="46.48604" lon="8.26646">
        <ele>1375</ele>
        <time>2020-10-24T08:43:03.937Z</time>
      </trkpt>
      <trkpt lat="46.48604" lon="8.26644">
        <ele>1375</ele>
        <time>2020-10-24T08:43:04.937Z</time>
      </trkpt>
      <trkpt lat="46.48604" lon="8.26641">
        <ele>1375</ele>
        <time>2020-10-24T08:43:05.936Z</time>
      </trkpt>
      <trkpt lat="46.48604" lon="8.26639">
        <ele>1375</ele>
        <time>2020-10-24T08:43:06.936Z</time>
      </trkpt>
      <trkpt lat="46.48604" lon="8.26636">
        <ele>1375</ele>
        <time>2020-10-24T08:43:07.937Z</time>
      </trkpt>
      <trkpt lat="46.48605" lon="8.26633">
        <ele>1375</ele>
        <time>2020-10-24T08:43:08.937Z</time>
      </trkpt>
      <trkpt lat="46.48605" lon="8.26631">
        <ele>1375</ele>
        <time>2020-10-24T08:43:09.937Z</time>
      </trkpt>
      <trkpt lat="46.48605" lon="8.26628">
        <ele>1375</ele>
        <time>2020-10-24T08:43:10.937Z</time>
      </trkpt>
      <trkpt lat="46.48606" lon="8.26625">
        <ele>1375</ele>
        <time>2020-10-24T08:43:11.936Z</time>
      </trkpt>
      <trkpt lat="46.48607" lon="8.26623">
        <ele>1375</ele>
        <time>2020-10-24T08:43:12.937Z</time>
      </trkpt>
      <trkpt lat="46.48607" lon="8.2662">
        <ele>1375</ele>
        <time>2020-10-24T08:43:13.937Z</time>
      </trkpt>
      <trkpt lat="46.48608" lon="8.26618">
        <ele>1375</ele>
        <time>2020-10-24T08:43:14.937Z</time>
      </trkpt>
      <trkpt lat="46.48609" lon="8.26616">
        <ele>1375</ele>
        <time>2020-10-24T08:43:15.937Z</time>
      </trkpt>
      <trkpt lat="46.48609" lon="8.26614">
        <ele>1375</ele>
        <time>2020-10-24T08:43:16.937Z</time>
      </trkpt>
      <trkpt lat="46.4861" lon="8.26611">
        <ele>1375</ele>
        <time>2020-10-24T08:43:17.937Z</time>
      </trkpt>
      <trkpt lat="46.48611" lon="8.26609">
        <ele>1375</ele>
        <time>2020-10-24T08:43:18.936Z</time>
      </trkpt>
      <trkpt lat="46.48612" lon="8.26607">
        <ele>1376</ele>
        <time>2020-10-24T08:43:19.937Z</time>
      </trkpt>
      <trkpt lat="46.48613" lon="8.26605">
        <ele>1376</ele>
        <time>2020-10-24T08:43:20.937Z</time>
      </trkpt>
      <trkpt lat="46.48613" lon="8.26603">
        <ele>1376</ele>
        <time>2020-10-24T08:43:21.937Z</time>
      </trkpt>
      <trkpt lat="46.48615" lon="8.26601">
        <ele>1376</ele>
        <time>2020-10-24T08:43:22.937Z</time>
      </trkpt>
      <trkpt lat="46.48616" lon="8.26599">
        <ele>1376</ele>
        <time>2020-10-24T08:43:23.936Z</time>
      </trkpt>
      <trkpt lat="46.48617" lon="8.26597">
        <ele>1377</ele>
        <time>2020-10-24T08:43:24.936Z</time>
      </trkpt>
      <trkpt lat="46.48618" lon="8.26595">
        <ele>1377</ele>
        <time>2020-10-24T08:43:25.937Z</time>
      </trkpt>
      <trkpt lat="46.48618" lon="8.26592">
        <ele>1377</ele>
        <time>2020-10-24T08:43:26.937Z</time>
      </trkpt>
      <trkpt lat="46.48619" lon="8.2659">
        <ele>1376</ele>
        <time>2020-10-24T08:43:27.936Z</time>
      </trkpt>
      <trkpt lat="46.4862" lon="8.26588">
        <ele>1377</ele>
        <time>2020-10-24T08:43:28.936Z</time>
      </trkpt>
      <trkpt lat="46.48621" lon="8.26586">
        <ele>1377</ele>
        <time>2020-10-24T08:43:29.937Z</time>
      </trkpt>
      <trkpt lat="46.48622" lon="8.26584">
        <ele>1377</ele>
        <time>2020-10-24T08:43:30.937Z</time>
      </trkpt>
      <trkpt lat="46.48623" lon="8.26581">
        <ele>1376</ele>
        <time>2020-10-24T08:43:31.937Z</time>
      </trkpt>
      <trkpt lat="46.48623" lon="8.26579">
        <ele>1376</ele>
        <time>2020-10-24T08:43:32.937Z</time>
      </trkpt>
      <trkpt lat="46.48624" lon="8.26577">
        <ele>1376</ele>
        <time>2020-10-24T08:43:33.936Z</time>
      </trkpt>
      <trkpt lat="46.48625" lon="8.26575">
        <ele>1377</ele>
        <time>2020-10-24T08:43:34.937Z</time>
      </trkpt>
      <trkpt lat="46.48626" lon="8.26572">
        <ele>1377</ele>
        <time>2020-10-24T08:43:35.936Z</time>
      </trkpt>
      <trkpt lat="46.48627" lon="8.26569">
        <ele>1377</ele>
        <time>2020-10-24T08:43:36.937Z</time>
      </trkpt>
      <trkpt lat="46.48628" lon="8.26567">
        <ele>1377</ele>
        <time>2020-10-24T08:43:37.937Z</time>
      </trkpt>
      <trkpt lat="46.48629" lon="8.26565">
        <ele>1378</ele>
        <time>2020-10-24T08:43:38.937Z</time>
      </trkpt>
      <trkpt lat="46.4863" lon="8.26562">
        <ele>1378</ele>
        <time>2020-10-24T08:43:39.937Z</time>
      </trkpt>
      <trkpt lat="46.48631" lon="8.2656">
        <ele>1378</ele>
        <time>2020-10-24T08:43:40.937Z</time>
      </trkpt>
      <trkpt lat="46.48632" lon="8.26558">
        <ele>1378</ele>
        <time>2020-10-24T08:43:41.937Z</time>
      </trkpt>
      <trkpt lat="46.48632" lon="8.26555">
        <ele>1378</ele>
        <time>2020-10-24T08:43:42.937Z</time>
      </trkpt>
      <trkpt lat="46.48633" lon="8.26553">
        <ele>1379</ele>
        <time>2020-10-24T08:43:43.937Z</time>
      </trkpt>
      <trkpt lat="46.48634" lon="8.2655">
        <ele>1379</ele>
        <time>2020-10-24T08:43:44.937Z</time>
      </trkpt>
      <trkpt lat="46.48636" lon="8.26548">
        <ele>1379</ele>
        <time>2020-10-24T08:43:45.937Z</time>
      </trkpt>
      <trkpt lat="46.48637" lon="8.26546">
        <ele>1379</ele>
        <time>2020-10-24T08:43:46.937Z</time>
      </trkpt>
      <trkpt lat="46.48638" lon="8.26544">
        <ele>1379</ele>
        <time>2020-10-24T08:43:47.937Z</time>
      </trkpt>
      <trkpt lat="46.48639" lon="8.26541">
        <ele>1379</ele>
        <time>2020-10-24T08:43:48.937Z</time>
      </trkpt>
      <trkpt lat="46.4864" lon="8.26539">
        <ele>1379</ele>
        <time>2020-10-24T08:43:49.937Z</time>
      </trkpt>
      <trkpt lat="46.48641" lon="8.26536">
        <ele>1379</ele>
        <time>2020-10-24T08:43:50.936Z</time>
      </trkpt>
      <trkpt lat="46.48642" lon="8.26534">
        <ele>1379</ele>
        <time>2020-10-24T08:43:51.937Z</time>
      </trkpt>
      <trkpt lat="46.48643" lon="8.26531">
        <ele>1379</ele>
        <time>2020-10-24T08:43:52.937Z</time>
      </trkpt>
      <trkpt lat="46.48644" lon="8.26529">
        <ele>1379</ele>
        <time>2020-10-24T08:43:53.937Z</time>
      </trkpt>
      <trkpt lat="46.48645" lon="8.26527">
        <ele>1379</ele>
        <time>2020-10-24T08:43:54.937Z</time>
      </trkpt>
      <trkpt lat="46.48645" lon="8.26524">
        <ele>1380</ele>
        <time>2020-10-24T08:43:55.936Z</time>
      </trkpt>
      <trkpt lat="46.48646" lon="8.26521">
        <ele>1380</ele>
        <time>2020-10-24T08:43:56.936Z</time>
      </trkpt>
      <trkpt lat="46.48647" lon="8.26519">
        <ele>1380</ele>
        <time>2020-10-24T08:43:57.937Z</time>
      </trkpt>
      <trkpt lat="46.48648" lon="8.26516">
        <ele>1380</ele>
        <time>2020-10-24T08:43:58.937Z</time>
      </trkpt>
      <trkpt lat="46.48649" lon="8.26513">
        <ele>1380</ele>
        <time>2020-10-24T08:43:59.937Z</time>
      </trkpt>
      <trkpt lat="46.4865" lon="8.26511">
        <ele>1380</ele>
        <time>2020-10-24T08:44:00.937Z</time>
      </trkpt>
      <trkpt lat="46.48651" lon="8.26508">
        <ele>1380</ele>
        <time>2020-10-24T08:44:01.937Z</time>
      </trkpt>
      <trkpt lat="46.48652" lon="8.26505">
        <ele>1380</ele>
        <time>2020-10-24T08:44:02.936Z</time>
      </trkpt>
      <trkpt lat="46.48653" lon="8.26502">
        <ele>1380</ele>
        <time>2020-10-24T08:44:03.937Z</time>
      </trkpt>
      <trkpt lat="46.48654" lon="8.265">
        <ele>1380</ele>
        <time>2020-10-24T08:44:04.937Z</time>
      </trkpt>
      <trkpt lat="46.48655" lon="8.26497">
        <ele>1380</ele>
        <time>2020-10-24T08:44:05.936Z</time>
      </trkpt>
      <trkpt lat="46.48655" lon="8.26494">
        <ele>1380</ele>
        <time>2020-10-24T08:44:06.936Z</time>
      </trkpt>
      <trkpt lat="46.48656" lon="8.26492">
        <ele>1381</ele>
        <time>2020-10-24T08:44:07.937Z</time>
      </trkpt>
      <trkpt lat="46.48656" lon="8.26489">
        <ele>1381</ele>
        <time>2020-10-24T08:44:08.937Z</time>
      </trkpt>
      <trkpt lat="46.48657" lon="8.26486">
        <ele>1381</ele>
        <time>2020-10-24T08:44:09.937Z</time>
      </trkpt>
      <trkpt lat="46.48657" lon="8.26483">
        <ele>1381</ele>
        <time>2020-10-24T08:44:10.937Z</time>
      </trkpt>
      <trkpt lat="46.48659" lon="8.2648">
        <ele>1382</ele>
        <time>2020-10-24T08:44:11.936Z</time>
      </trkpt>
      <trkpt lat="46.48659" lon="8.26477">
        <ele>1382</ele>
        <time>2020-10-24T08:44:12.936Z</time>
      </trkpt>
      <trkpt lat="46.4866" lon="8.26474">
        <ele>1382</ele>
        <time>2020-10-24T08:44:13.937Z</time>
      </trkpt>
      <trkpt lat="46.4866" lon="8.26472">
        <ele>1383</ele>
        <time>2020-10-24T08:44:14.936Z</time>
      </trkpt>
      <trkpt lat="46.4866" lon="8.26469">
        <ele>1383</ele>
        <time>2020-10-24T08:44:15.937Z</time>
      </trkpt>
      <trkpt lat="46.48661" lon="8.26467">
        <ele>1383</ele>
        <time>2020-10-24T08:44:16.937Z</time>
      </trkpt>
      <trkpt lat="46.48661" lon="8.26464">
        <ele>1383</ele>
        <time>2020-10-24T08:44:17.937Z</time>
      </trkpt>
      <trkpt lat="46.48662" lon="8.26461">
        <ele>1383</ele>
        <time>2020-10-24T08:44:18.937Z</time>
      </trkpt>
      <trkpt lat="46.48662" lon="8.26459">
        <ele>1383</ele>
        <time>2020-10-24T08:44:19.936Z</time>
      </trkpt>
      <trkpt lat="46.48664" lon="8.26456">
        <ele>1383</ele>
        <time>2020-10-24T08:44:20.937Z</time>
      </trkpt>
      <trkpt lat="46.48665" lon="8.26454">
        <ele>1384</ele>
        <time>2020-10-24T08:44:21.937Z</time>
      </trkpt>
      <trkpt lat="46.48667" lon="8.26452">
        <ele>1384</ele>
        <time>2020-10-24T08:44:22.936Z</time>
      </trkpt>
      <trkpt lat="46.48668" lon="8.2645">
        <ele>1384</ele>
        <time>2020-10-24T08:44:23.936Z</time>
      </trkpt>
      <trkpt lat="46.48669" lon="8.26449">
        <ele>1384</ele>
        <time>2020-10-24T08:44:24.937Z</time>
      </trkpt>
      <trkpt lat="46.4867" lon="8.26447">
        <ele>1384</ele>
        <time>2020-10-24T08:44:25.937Z</time>
      </trkpt>
      <trkpt lat="46.48672" lon="8.26445">
        <ele>1385</ele>
        <time>2020-10-24T08:44:26.936Z</time>
      </trkpt>
      <trkpt lat="46.48673" lon="8.26443">
        <ele>1385</ele>
        <time>2020-10-24T08:44:27.937Z</time>
      </trkpt>
      <trkpt lat="46.48673" lon="8.26441">
        <ele>1385</ele>
        <time>2020-10-24T08:44:28.937Z</time>
      </trkpt>
      <trkpt lat="46.48675" lon="8.2644">
        <ele>1385</ele>
        <time>2020-10-24T08:44:29.937Z</time>
      </trkpt>
      <trkpt lat="46.48676" lon="8.26438">
        <ele>1385</ele>
        <time>2020-10-24T08:44:30.936Z</time>
      </trkpt>
      <trkpt lat="46.48677" lon="8.26436">
        <ele>1386</ele>
        <time>2020-10-24T08:44:31.937Z</time>
      </trkpt>
      <trkpt lat="46.48679" lon="8.26434">
        <ele>1386</ele>
        <time>2020-10-24T08:44:32.937Z</time>
      </trkpt>
      <trkpt lat="46.4868" lon="8.26432">
        <ele>1386</ele>
        <time>2020-10-24T08:44:33.936Z</time>
      </trkpt>
      <trkpt lat="46.48681" lon="8.2643">
        <ele>1387</ele>
        <time>2020-10-24T08:44:34.937Z</time>
      </trkpt>
      <trkpt lat="46.48683" lon="8.26428">
        <ele>1387</ele>
        <time>2020-10-24T08:44:35.937Z</time>
      </trkpt>
      <trkpt lat="46.48684" lon="8.26426">
        <ele>1387</ele>
        <time>2020-10-24T08:44:36.937Z</time>
      </trkpt>
      <trkpt lat="46.48686" lon="8.26425">
        <ele>1388</ele>
        <time>2020-10-24T08:44:37.937Z</time>
      </trkpt>
      <trkpt lat="46.48687" lon="8.26423">
        <ele>1388</ele>
        <time>2020-10-24T08:44:38.936Z</time>
      </trkpt>
      <trkpt lat="46.48689" lon="8.26422">
        <ele>1389</ele>
        <time>2020-10-24T08:44:39.937Z</time>
      </trkpt>
      <trkpt lat="46.48691" lon="8.26422">
        <ele>1389</ele>
        <time>2020-10-24T08:44:40.936Z</time>
      </trkpt>
      <trkpt lat="46.48692" lon="8.26422">
        <ele>1390</ele>
        <time>2020-10-24T08:44:41.936Z</time>
      </trkpt>
      <trkpt lat="46.48694" lon="8.26422">
        <ele>1390</ele>
        <time>2020-10-24T08:44:42.937Z</time>
      </trkpt>
      <trkpt lat="46.48696" lon="8.26423">
        <ele>1391</ele>
        <time>2020-10-24T08:44:43.936Z</time>
      </trkpt>
      <trkpt lat="46.48697" lon="8.26423">
        <ele>1391</ele>
        <time>2020-10-24T08:44:44.937Z</time>
      </trkpt>
      <trkpt lat="46.48699" lon="8.26423">
        <ele>1391</ele>
        <time>2020-10-24T08:44:45.937Z</time>
      </trkpt>
      <trkpt lat="46.48701" lon="8.26424">
        <ele>1392</ele>
        <time>2020-10-24T08:44:46.937Z</time>
      </trkpt>
      <trkpt lat="46.48702" lon="8.26424">
        <ele>1392</ele>
        <time>2020-10-24T08:44:47.936Z</time>
      </trkpt>
      <trkpt lat="46.48703" lon="8.26424">
        <ele>1392</ele>
        <time>2020-10-24T08:44:48.937Z</time>
      </trkpt>
      <trkpt lat="46.48705" lon="8.26424">
        <ele>1393</ele>
        <time>2020-10-24T08:44:49.936Z</time>
      </trkpt>
      <trkpt lat="46.48706" lon="8.26424">
        <ele>1394</ele>
        <time>2020-10-24T08:44:50.936Z</time>
      </trkpt>
      <trkpt lat="46.48708" lon="8.26424">
        <ele>1395</ele>
        <time>2020-10-24T08:44:51.936Z</time>
      </trkpt>
      <trkpt lat="46.48709" lon="8.26424">
        <ele>1396</ele>
        <time>2020-10-24T08:44:52.937Z</time>
      </trkpt>
      <trkpt lat="46.4871" lon="8.26424">
        <ele>1396</ele>
        <time>2020-10-24T08:44:53.936Z</time>
      </trkpt>
      <trkpt lat="46.48711" lon="8.26423">
        <ele>1397</ele>
        <time>2020-10-24T08:44:54.937Z</time>
      </trkpt>
      <trkpt lat="46.48713" lon="8.26423">
        <ele>1398</ele>
        <time>2020-10-24T08:44:55.937Z</time>
      </trkpt>
      <trkpt lat="46.48714" lon="8.26423">
        <ele>1398</ele>
        <time>2020-10-24T08:44:56.937Z</time>
      </trkpt>
      <trkpt lat="46.48716" lon="8.26422">
        <ele>1399</ele>
        <time>2020-10-24T08:44:57.936Z</time>
      </trkpt>
      <trkpt lat="46.48718" lon="8.26423">
        <ele>1399</ele>
        <time>2020-10-24T08:44:58.937Z</time>
      </trkpt>
      <trkpt lat="46.48721" lon="8.26423">
        <ele>1400</ele>
        <time>2020-10-24T08:44:59.937Z</time>
      </trkpt>
      <trkpt lat="46.48723" lon="8.26423">
        <ele>1400</ele>
        <time>2020-10-24T08:45:00.936Z</time>
      </trkpt>
      <trkpt lat="46.48726" lon="8.26423">
        <ele>1400</ele>
        <time>2020-10-24T08:45:01.936Z</time>
      </trkpt>
      <trkpt lat="46.48727" lon="8.26424">
        <ele>1400</ele>
        <time>2020-10-24T08:45:02.937Z</time>
      </trkpt>
      <trkpt lat="46.48729" lon="8.26424">
        <ele>1401</ele>
        <time>2020-10-24T08:45:03.937Z</time>
      </trkpt>
      <trkpt lat="46.48731" lon="8.26424">
        <ele>1401</ele>
        <time>2020-10-24T08:45:04.937Z</time>
      </trkpt>
      <trkpt lat="46.48732" lon="8.26424">
        <ele>1400</ele>
        <time>2020-10-24T08:45:05.937Z</time>
      </trkpt>
      <trkpt lat="46.48733" lon="8.26422">
        <ele>1400</ele>
        <time>2020-10-24T08:45:06.937Z</time>
      </trkpt>
      <trkpt lat="46.48735" lon="8.26421">
        <ele>1399</ele>
        <time>2020-10-24T08:45:07.936Z</time>
      </trkpt>
      <trkpt lat="46.48736" lon="8.26419">
        <ele>1399</ele>
        <time>2020-10-24T08:45:08.937Z</time>
      </trkpt>
      <trkpt lat="46.48738" lon="8.26417">
        <ele>1398</ele>
        <time>2020-10-24T08:45:09.937Z</time>
      </trkpt>
      <trkpt lat="46.4874" lon="8.26415">
        <ele>1398</ele>
        <time>2020-10-24T08:45:10.936Z</time>
      </trkpt>
      <trkpt lat="46.48742" lon="8.26412">
        <ele>1398</ele>
        <time>2020-10-24T08:45:11.936Z</time>
      </trkpt>
      <trkpt lat="46.48744" lon="8.2641">
        <ele>1398</ele>
        <time>2020-10-24T08:45:12.936Z</time>
      </trkpt>
      <trkpt lat="46.48747" lon="8.26409">
        <ele>1397</ele>
        <time>2020-10-24T08:45:13.937Z</time>
      </trkpt>
      <trkpt lat="46.48749" lon="8.26407">
        <ele>1397</ele>
        <time>2020-10-24T08:45:14.937Z</time>
      </trkpt>
      <trkpt lat="46.48752" lon="8.26407">
        <ele>1397</ele>
        <time>2020-10-24T08:45:15.937Z</time>
      </trkpt>
      <trkpt lat="46.48754" lon="8.26406">
        <ele>1398</ele>
        <time>2020-10-24T08:45:16.936Z</time>
      </trkpt>
      <trkpt lat="46.48756" lon="8.26406">
        <ele>1398</ele>
        <time>2020-10-24T08:45:17.937Z</time>
      </trkpt>
      <trkpt lat="46.48757" lon="8.26405">
        <ele>1398</ele>
        <time>2020-10-24T08:45:18.936Z</time>
      </trkpt>
      <trkpt lat="46.48759" lon="8.26404">
        <ele>1398</ele>
        <time>2020-10-24T08:45:19.936Z</time>
      </trkpt>
      <trkpt lat="46.48761" lon="8.26404">
        <ele>1398</ele>
        <time>2020-10-24T08:45:20.936Z</time>
      </trkpt>
      <trkpt lat="46.48762" lon="8.26403">
        <ele>1398</ele>
        <time>2020-10-24T08:45:21.937Z</time>
      </trkpt>
      <trkpt lat="46.48764" lon="8.26403">
        <ele>1397</ele>
        <time>2020-10-24T08:45:22.936Z</time>
      </trkpt>
      <trkpt lat="46.48764" lon="8.26401">
        <ele>1397</ele>
        <time>2020-10-24T08:45:23.936Z</time>
      </trkpt>
      <trkpt lat="46.48765" lon="8.26399">
        <ele>1396</ele>
        <time>2020-10-24T08:45:24.936Z</time>
      </trkpt>
      <trkpt lat="46.48767" lon="8.26397">
        <ele>1396</ele>
        <time>2020-10-24T08:45:25.936Z</time>
      </trkpt>
      <trkpt lat="46.48768" lon="8.26394">
        <ele>1395</ele>
        <time>2020-10-24T08:45:26.937Z</time>
      </trkpt>
      <trkpt lat="46.48769" lon="8.26392">
        <ele>1395</ele>
        <time>2020-10-24T08:45:27.936Z</time>
      </trkpt>
      <trkpt lat="46.48771" lon="8.26389">
        <ele>1395</ele>
        <time>2020-10-24T08:45:28.936Z</time>
      </trkpt>
      <trkpt lat="46.48773" lon="8.26387">
        <ele>1396</ele>
        <time>2020-10-24T08:45:29.936Z</time>
      </trkpt>
      <trkpt lat="46.48774" lon="8.26385">
        <ele>1396</ele>
        <time>2020-10-24T08:45:30.936Z</time>
      </trkpt>
      <trkpt lat="46.48775" lon="8.26382">
        <ele>1397</ele>
        <time>2020-10-24T08:45:31.936Z</time>
      </trkpt>
      <trkpt lat="46.48777" lon="8.2638">
        <ele>1397</ele>
        <time>2020-10-24T08:45:32.937Z</time>
      </trkpt>
      <trkpt lat="46.48778" lon="8.26378">
        <ele>1397</ele>
        <time>2020-10-24T08:45:33.936Z</time>
      </trkpt>
      <trkpt lat="46.48779" lon="8.26376">
        <ele>1398</ele>
        <time>2020-10-24T08:45:34.936Z</time>
      </trkpt>
      <trkpt lat="46.4878" lon="8.26374">
        <ele>1398</ele>
        <time>2020-10-24T08:45:35.936Z</time>
      </trkpt>
      <trkpt lat="46.48782" lon="8.26374">
        <ele>1399</ele>
        <time>2020-10-24T08:45:36.936Z</time>
      </trkpt>
      <trkpt lat="46.48784" lon="8.26373">
        <ele>1399</ele>
        <time>2020-10-24T08:45:37.936Z</time>
      </trkpt>
      <trkpt lat="46.48786" lon="8.26374">
        <ele>1400</ele>
        <time>2020-10-24T08:45:38.936Z</time>
      </trkpt>
      <trkpt lat="46.48789" lon="8.26374">
        <ele>1401</ele>
        <time>2020-10-24T08:45:39.936Z</time>
      </trkpt>
      <trkpt lat="46.48792" lon="8.26376">
        <ele>1401</ele>
        <time>2020-10-24T08:45:40.937Z</time>
      </trkpt>
      <trkpt lat="46.48795" lon="8.26377">
        <ele>1402</ele>
        <time>2020-10-24T08:45:41.937Z</time>
      </trkpt>
      <trkpt lat="46.48797" lon="8.26378">
        <ele>1403</ele>
        <time>2020-10-24T08:45:42.937Z</time>
      </trkpt>
      <trkpt lat="46.48799" lon="8.26378">
        <ele>1404</ele>
        <time>2020-10-24T08:45:43.937Z</time>
      </trkpt>
      <trkpt lat="46.48802" lon="8.26379">
        <ele>1404</ele>
        <time>2020-10-24T08:45:44.936Z</time>
      </trkpt>
      <trkpt lat="46.48805" lon="8.26378">
        <ele>1404</ele>
        <time>2020-10-24T08:45:45.937Z</time>
      </trkpt>
      <trkpt lat="46.48807" lon="8.26377">
        <ele>1404</ele>
        <time>2020-10-24T08:45:46.937Z</time>
      </trkpt>
      <trkpt lat="46.48809" lon="8.26377">
        <ele>1404</ele>
        <time>2020-10-24T08:45:47.937Z</time>
      </trkpt>
      <trkpt lat="46.48812" lon="8.26377">
        <ele>1404</ele>
        <time>2020-10-24T08:45:48.936Z</time>
      </trkpt>
      <trkpt lat="46.48813" lon="8.26376">
        <ele>1404</ele>
        <time>2020-10-24T08:45:49.936Z</time>
      </trkpt>
      <trkpt lat="46.48815" lon="8.26376">
        <ele>1404</ele>
        <time>2020-10-24T08:45:50.936Z</time>
      </trkpt>
      <trkpt lat="46.48817" lon="8.26376">
        <ele>1404</ele>
        <time>2020-10-24T08:45:51.936Z</time>
      </trkpt>
    </trkseg>
  </trk>
</gpx>